<?xml version="1.0" encoding="UTF-8" standalone="no" ?>
<gpx xmlns="http://www.topografix.com/GPX/1/1" xmlns:xsi="http://www.w3.org/2001/XMLSchema-instance" xsi:schemaLocation="http://www.topografix.com/GPX/1/1 http://www.topografix.com/GPX/1/1/gpx.xsd" version="1.1" creator="VisuGPX - https://www.visugpx.com">
  <metadata>
    <name>secteur Saverne - Dabo - Petite Pierre</name>
  </metadata>
  <trk>
    <name><![CDATA[secteur Saverne - Dabo - Petite Pierre_15]]></name>
    <trkseg>
      <trkpt lat="48.65737" lon="7.20091">
        <ele>332.65</ele>
        <time>2020-08-19T13:16:45.000Z</time>
      </trkpt>
      <trkpt lat="48.65737" lon="7.20091">
        <ele>332.65</ele>
        <time>2020-08-19T13:16:45.000Z</time>
      </trkpt>
      <trkpt lat="48.65737" lon="7.20091">
        <ele>332.65</ele>
        <time>2020-08-19T13:16:45.000Z</time>
      </trkpt>
      <trkpt lat="48.65737" lon="7.20091">
        <ele>332.65</ele>
        <time>2020-08-19T13:16:45.000Z</time>
      </trkpt>
      <trkpt lat="48.65737" lon="7.20091">
        <ele>332.65</ele>
        <time>2020-08-19T13:16:45.000Z</time>
      </trkpt>
      <trkpt lat="48.65737" lon="7.20091">
        <ele>332.65</ele>
        <time>2020-08-19T13:16:45.000Z</time>
      </trkpt>
      <trkpt lat="48.65737" lon="7.20091">
        <ele>332.65</ele>
        <time>2020-08-19T13:16:45.000Z</time>
      </trkpt>
      <trkpt lat="48.65737" lon="7.20091">
        <ele>332.65</ele>
        <time>2020-08-19T13:16:45.000Z</time>
      </trkpt>
      <trkpt lat="48.65729" lon="7.20087">
        <ele>332.84</ele>
        <time>2020-08-19T13:16:47.000Z</time>
      </trkpt>
      <trkpt lat="48.65721" lon="7.20081">
        <ele>330.68</ele>
        <time>2020-08-19T13:16:49.000Z</time>
      </trkpt>
      <trkpt lat="48.65717" lon="7.20078">
        <ele>329.89</ele>
        <time>2020-08-19T13:16:50.000Z</time>
      </trkpt>
      <trkpt lat="48.65712" lon="7.20074">
        <ele>327.84</ele>
        <time>2020-08-19T13:16:51.000Z</time>
      </trkpt>
      <trkpt lat="48.65703" lon="7.20067">
        <ele>328.1</ele>
        <time>2020-08-19T13:16:53.000Z</time>
      </trkpt>
      <trkpt lat="48.65698" lon="7.20063">
        <ele>328.01</ele>
        <time>2020-08-19T13:16:54.000Z</time>
      </trkpt>
      <trkpt lat="48.65694" lon="7.20058">
        <ele>328.74</ele>
        <time>2020-08-19T13:16:55.000Z</time>
      </trkpt>
      <trkpt lat="48.65691" lon="7.20052">
        <ele>328.77</ele>
        <time>2020-08-19T13:16:56.000Z</time>
      </trkpt>
      <trkpt lat="48.65685" lon="7.20056">
        <ele>328.25</ele>
        <time>2020-08-19T13:16:57.000Z</time>
      </trkpt>
      <trkpt lat="48.6568" lon="7.2006">
        <ele>328.31</ele>
        <time>2020-08-19T13:16:59.000Z</time>
      </trkpt>
      <trkpt lat="48.65675" lon="7.20069">
        <ele>329.26</ele>
        <time>2020-08-19T13:17:01.000Z</time>
      </trkpt>
      <trkpt lat="48.65672" lon="7.20076">
        <ele>329.63</ele>
        <time>2020-08-19T13:17:03.000Z</time>
      </trkpt>
      <trkpt lat="48.65672" lon="7.20082">
        <ele>329.79</ele>
        <time>2020-08-19T13:17:04.000Z</time>
      </trkpt>
      <trkpt lat="48.65676" lon="7.2009">
        <ele>329.81</ele>
        <time>2020-08-19T13:17:06.000Z</time>
      </trkpt>
      <trkpt lat="48.65678" lon="7.201">
        <ele>330.5</ele>
        <time>2020-08-19T13:17:08.000Z</time>
      </trkpt>
      <trkpt lat="48.6568" lon="7.2011">
        <ele>330.88</ele>
        <time>2020-08-19T13:17:10.000Z</time>
      </trkpt>
      <trkpt lat="48.65683" lon="7.20117">
        <ele>332.6</ele>
        <time>2020-08-19T13:17:13.000Z</time>
      </trkpt>
      <trkpt lat="48.65684" lon="7.20124">
        <ele>333.54</ele>
        <time>2020-08-19T13:17:15.000Z</time>
      </trkpt>
      <trkpt lat="48.65685" lon="7.20132">
        <ele>332.87</ele>
        <time>2020-08-19T13:17:17.000Z</time>
      </trkpt>
      <trkpt lat="48.65685" lon="7.2014">
        <ele>333.51</ele>
        <time>2020-08-19T13:17:19.000Z</time>
      </trkpt>
      <trkpt lat="48.65684" lon="7.2015">
        <ele>336.42</ele>
        <time>2020-08-19T13:17:22.000Z</time>
      </trkpt>
      <trkpt lat="48.65686" lon="7.2016">
        <ele>336.39</ele>
        <time>2020-08-19T13:17:25.000Z</time>
      </trkpt>
      <trkpt lat="48.65685" lon="7.2017">
        <ele>337.11</ele>
        <time>2020-08-19T13:17:28.000Z</time>
      </trkpt>
      <trkpt lat="48.65686" lon="7.20177">
        <ele>337.58</ele>
        <time>2020-08-19T13:17:30.000Z</time>
      </trkpt>
      <trkpt lat="48.65685" lon="7.20186">
        <ele>339.5</ele>
        <time>2020-08-19T13:17:33.000Z</time>
      </trkpt>
      <trkpt lat="48.65684" lon="7.20194">
        <ele>338.36</ele>
        <time>2020-08-19T13:17:35.000Z</time>
      </trkpt>
      <trkpt lat="48.65682" lon="7.202">
        <ele>339.27</ele>
        <time>2020-08-19T13:17:37.000Z</time>
      </trkpt>
      <trkpt lat="48.65681" lon="7.2021">
        <ele>339.23</ele>
        <time>2020-08-19T13:17:39.000Z</time>
      </trkpt>
      <trkpt lat="48.65678" lon="7.20219">
        <ele>339.77</ele>
        <time>2020-08-19T13:17:41.000Z</time>
      </trkpt>
      <trkpt lat="48.65674" lon="7.20237">
        <ele>341.76</ele>
        <time>2020-08-19T13:17:44.000Z</time>
      </trkpt>
      <trkpt lat="48.65672" lon="7.20247">
        <ele>344.63</ele>
        <time>2020-08-19T13:17:47.000Z</time>
      </trkpt>
      <trkpt lat="48.65668" lon="7.20257">
        <ele>344.91</ele>
        <time>2020-08-19T13:17:49.000Z</time>
      </trkpt>
      <trkpt lat="48.65664" lon="7.20267">
        <ele>345.03</ele>
        <time>2020-08-19T13:17:51.000Z</time>
      </trkpt>
      <trkpt lat="48.65657" lon="7.20284">
        <ele>346.39</ele>
        <time>2020-08-19T13:17:54.000Z</time>
      </trkpt>
      <trkpt lat="48.65653" lon="7.20295">
        <ele>346.52</ele>
        <time>2020-08-19T13:17:56.000Z</time>
      </trkpt>
      <trkpt lat="48.6565" lon="7.20306">
        <ele>343.97</ele>
        <time>2020-08-19T13:17:58.000Z</time>
      </trkpt>
      <trkpt lat="48.6565" lon="7.20313">
        <ele>344.28</ele>
        <time>2020-08-19T13:18:01.000Z</time>
      </trkpt>
      <trkpt lat="48.65624" lon="7.20337">
        <ele>345.81</ele>
        <time>2020-08-19T13:18:29.000Z</time>
      </trkpt>
      <trkpt lat="48.65613" lon="7.20345">
        <ele>340.89</ele>
        <time>2020-08-19T13:18:33.000Z</time>
      </trkpt>
      <trkpt lat="48.656" lon="7.20352">
        <ele>339.98</ele>
        <time>2020-08-19T13:18:36.000Z</time>
      </trkpt>
      <trkpt lat="48.65601" lon="7.2036">
        <ele>341</ele>
        <time>2020-08-19T13:18:38.000Z</time>
      </trkpt>
      <trkpt lat="48.65596" lon="7.20361">
        <ele>340.91</ele>
        <time>2020-08-19T13:18:40.000Z</time>
      </trkpt>
      <trkpt lat="48.65593" lon="7.20369">
        <ele>339.08</ele>
        <time>2020-08-19T13:18:42.000Z</time>
      </trkpt>
      <trkpt lat="48.65585" lon="7.20369">
        <ele>334.23</ele>
        <time>2020-08-19T13:18:46.000Z</time>
      </trkpt>
      <trkpt lat="48.65582" lon="7.20364">
        <ele>334.81</ele>
        <time>2020-08-19T13:18:48.000Z</time>
      </trkpt>
      <trkpt lat="48.65576" lon="7.20358">
        <ele>333.19</ele>
        <time>2020-08-19T13:18:50.000Z</time>
      </trkpt>
      <trkpt lat="48.6557" lon="7.20358">
        <ele>335.48</ele>
        <time>2020-08-19T13:18:52.000Z</time>
      </trkpt>
      <trkpt lat="48.65566" lon="7.20363">
        <ele>339.51</ele>
        <time>2020-08-19T13:18:57.000Z</time>
      </trkpt>
      <trkpt lat="48.65562" lon="7.20368">
        <ele>337.99</ele>
        <time>2020-08-19T13:19:01.000Z</time>
      </trkpt>
      <trkpt lat="48.65558" lon="7.20371">
        <ele>340.04</ele>
        <time>2020-08-19T13:19:15.000Z</time>
      </trkpt>
      <trkpt lat="48.65553" lon="7.20373">
        <ele>341.61</ele>
        <time>2020-08-19T13:19:19.000Z</time>
      </trkpt>
      <trkpt lat="48.65548" lon="7.2037">
        <ele>340.49</ele>
        <time>2020-08-19T13:19:25.000Z</time>
      </trkpt>
      <trkpt lat="48.65545" lon="7.20364">
        <ele>339.77</ele>
        <time>2020-08-19T13:19:27.000Z</time>
      </trkpt>
      <trkpt lat="48.65539" lon="7.20341">
        <ele>339.01</ele>
        <time>2020-08-19T13:19:31.000Z</time>
      </trkpt>
      <trkpt lat="48.65544" lon="7.20317">
        <ele>340.02</ele>
        <time>2020-08-19T13:19:35.000Z</time>
      </trkpt>
      <trkpt lat="48.65543" lon="7.20306">
        <ele>336.71</ele>
        <time>2020-08-19T13:19:37.000Z</time>
      </trkpt>
      <trkpt lat="48.65542" lon="7.20296">
        <ele>336.84</ele>
        <time>2020-08-19T13:19:39.000Z</time>
      </trkpt>
      <trkpt lat="48.65539" lon="7.20287">
        <ele>337.05</ele>
        <time>2020-08-19T13:19:41.000Z</time>
      </trkpt>
      <trkpt lat="48.65573" lon="7.20238">
        <ele>338.23</ele>
        <time>2020-08-19T13:19:55.000Z</time>
      </trkpt>
      <trkpt lat="48.65574" lon="7.20231">
        <ele>338.41</ele>
        <time>2020-08-19T13:20:00.000Z</time>
      </trkpt>
      <trkpt lat="48.65574" lon="7.20224">
        <ele>340.36</ele>
        <time>2020-08-19T13:20:09.000Z</time>
      </trkpt>
      <trkpt lat="48.65572" lon="7.20217">
        <ele>340.22</ele>
        <time>2020-08-19T13:20:12.000Z</time>
      </trkpt>
      <trkpt lat="48.65571" lon="7.2021">
        <ele>341.92</ele>
        <time>2020-08-19T13:20:18.000Z</time>
      </trkpt>
      <trkpt lat="48.65568" lon="7.20204">
        <ele>346.03</ele>
        <time>2020-08-19T13:20:29.000Z</time>
      </trkpt>
      <trkpt lat="48.65571" lon="7.20198">
        <ele>350.5</ele>
        <time>2020-08-19T13:20:40.000Z</time>
      </trkpt>
      <trkpt lat="48.65573" lon="7.20192">
        <ele>351.4</ele>
        <time>2020-08-19T13:20:44.000Z</time>
      </trkpt>
      <trkpt lat="48.65573" lon="7.20185">
        <ele>352.32</ele>
        <time>2020-08-19T13:20:51.000Z</time>
      </trkpt>
      <trkpt lat="48.65575" lon="7.20177">
        <ele>352.72</ele>
        <time>2020-08-19T13:20:57.000Z</time>
      </trkpt>
      <trkpt lat="48.65575" lon="7.2017">
        <ele>353.2</ele>
        <time>2020-08-19T13:21:02.000Z</time>
      </trkpt>
      <trkpt lat="48.65575" lon="7.20162">
        <ele>355.55</ele>
        <time>2020-08-19T13:21:07.000Z</time>
      </trkpt>
      <trkpt lat="48.65574" lon="7.20155">
        <ele>352.5</ele>
        <time>2020-08-19T13:21:13.000Z</time>
      </trkpt>
      <trkpt lat="48.65572" lon="7.20149">
        <ele>352.45</ele>
        <time>2020-08-19T13:21:16.000Z</time>
      </trkpt>
      <trkpt lat="48.6557" lon="7.20142">
        <ele>350.02</ele>
        <time>2020-08-19T13:21:22.000Z</time>
      </trkpt>
      <trkpt lat="48.6556" lon="7.20121">
        <ele>356.34</ele>
        <time>2020-08-19T13:21:42.000Z</time>
      </trkpt>
      <trkpt lat="48.65556" lon="7.20115">
        <ele>354.57</ele>
        <time>2020-08-19T13:21:46.000Z</time>
      </trkpt>
      <trkpt lat="48.65553" lon="7.2011">
        <ele>353.97</ele>
        <time>2020-08-19T13:21:49.000Z</time>
      </trkpt>
      <trkpt lat="48.6555" lon="7.20102">
        <ele>356.23</ele>
        <time>2020-08-19T13:21:53.000Z</time>
      </trkpt>
      <trkpt lat="48.65547" lon="7.20096">
        <ele>358.81</ele>
        <time>2020-08-19T13:21:57.000Z</time>
      </trkpt>
      <trkpt lat="48.65544" lon="7.2009">
        <ele>358.16</ele>
        <time>2020-08-19T13:22:02.000Z</time>
      </trkpt>
      <trkpt lat="48.65541" lon="7.20084">
        <ele>360.36</ele>
        <time>2020-08-19T13:22:05.000Z</time>
      </trkpt>
      <trkpt lat="48.65538" lon="7.20079">
        <ele>359.85</ele>
        <time>2020-08-19T13:22:08.000Z</time>
      </trkpt>
      <trkpt lat="48.65529" lon="7.20074">
        <ele>358.69</ele>
        <time>2020-08-19T13:22:15.000Z</time>
      </trkpt>
      <trkpt lat="48.65525" lon="7.20071">
        <ele>376.56</ele>
        <time>2020-08-19T13:22:19.000Z</time>
      </trkpt>
      <trkpt lat="48.65523" lon="7.20064">
        <ele>418.44</ele>
        <time>2020-08-19T13:22:38.000Z</time>
      </trkpt>
      <trkpt lat="48.6552" lon="7.20059">
        <ele>416.64</ele>
        <time>2020-08-19T13:22:45.000Z</time>
      </trkpt>
      <trkpt lat="48.65515" lon="7.20055">
        <ele>378.49</ele>
        <time>2020-08-19T13:22:49.000Z</time>
      </trkpt>
      <trkpt lat="48.65512" lon="7.20049">
        <ele>365.76</ele>
        <time>2020-08-19T13:22:53.000Z</time>
      </trkpt>
      <trkpt lat="48.6551" lon="7.20041">
        <ele>367.07</ele>
        <time>2020-08-19T13:22:57.000Z</time>
      </trkpt>
      <trkpt lat="48.6551" lon="7.20033">
        <ele>368.46</ele>
        <time>2020-08-19T13:23:02.000Z</time>
      </trkpt>
      <trkpt lat="48.65508" lon="7.20027">
        <ele>367.32</ele>
        <time>2020-08-19T13:23:05.000Z</time>
      </trkpt>
      <trkpt lat="48.65506" lon="7.2002">
        <ele>366.4</ele>
        <time>2020-08-19T13:23:12.000Z</time>
      </trkpt>
      <trkpt lat="48.65506" lon="7.20013">
        <ele>366.46</ele>
        <time>2020-08-19T13:23:28.000Z</time>
      </trkpt>
      <trkpt lat="48.65503" lon="7.20007">
        <ele>367.48</ele>
        <time>2020-08-19T13:23:34.000Z</time>
      </trkpt>
      <trkpt lat="48.65502" lon="7.2">
        <ele>367.63</ele>
        <time>2020-08-19T13:23:38.000Z</time>
      </trkpt>
      <trkpt lat="48.655" lon="7.19993">
        <ele>369.34</ele>
        <time>2020-08-19T13:23:43.000Z</time>
      </trkpt>
      <trkpt lat="48.65499" lon="7.19986">
        <ele>368.57</ele>
        <time>2020-08-19T13:23:47.000Z</time>
      </trkpt>
      <trkpt lat="48.65498" lon="7.1998">
        <ele>368.05</ele>
        <time>2020-08-19T13:23:50.000Z</time>
      </trkpt>
      <trkpt lat="48.65496" lon="7.19973">
        <ele>368.32</ele>
        <time>2020-08-19T13:23:54.000Z</time>
      </trkpt>
      <trkpt lat="48.65496" lon="7.19966">
        <ele>369.07</ele>
        <time>2020-08-19T13:23:58.000Z</time>
      </trkpt>
      <trkpt lat="48.65495" lon="7.19958">
        <ele>369.15</ele>
        <time>2020-08-19T13:24:02.000Z</time>
      </trkpt>
      <trkpt lat="48.65493" lon="7.19951">
        <ele>368.59</ele>
        <time>2020-08-19T13:24:06.000Z</time>
      </trkpt>
      <trkpt lat="48.65493" lon="7.19943">
        <ele>368.1</ele>
        <time>2020-08-19T13:24:10.000Z</time>
      </trkpt>
      <trkpt lat="48.65491" lon="7.19935">
        <ele>366.85</ele>
        <time>2020-08-19T13:24:14.000Z</time>
      </trkpt>
      <trkpt lat="48.6549" lon="7.19926">
        <ele>366.09</ele>
        <time>2020-08-19T13:24:18.000Z</time>
      </trkpt>
      <trkpt lat="48.6549" lon="7.19919">
        <ele>364.88</ele>
        <time>2020-08-19T13:24:22.000Z</time>
      </trkpt>
      <trkpt lat="48.65489" lon="7.19911">
        <ele>366.32</ele>
        <time>2020-08-19T13:24:26.000Z</time>
      </trkpt>
      <trkpt lat="48.65491" lon="7.19904">
        <ele>367.65</ele>
        <time>2020-08-19T13:24:30.000Z</time>
      </trkpt>
      <trkpt lat="48.65497" lon="7.19892">
        <ele>372.33</ele>
        <time>2020-08-19T13:24:37.000Z</time>
      </trkpt>
      <trkpt lat="48.65497" lon="7.19885">
        <ele>374.56</ele>
        <time>2020-08-19T13:24:41.000Z</time>
      </trkpt>
      <trkpt lat="48.65497" lon="7.19878">
        <ele>374.31</ele>
        <time>2020-08-19T13:24:45.000Z</time>
      </trkpt>
      <trkpt lat="48.65496" lon="7.1987">
        <ele>375.37</ele>
        <time>2020-08-19T13:24:49.000Z</time>
      </trkpt>
      <trkpt lat="48.65496" lon="7.19862">
        <ele>374.11</ele>
        <time>2020-08-19T13:24:55.000Z</time>
      </trkpt>
      <trkpt lat="48.65498" lon="7.19856">
        <ele>375.17</ele>
        <time>2020-08-19T13:24:59.000Z</time>
      </trkpt>
      <trkpt lat="48.655" lon="7.1985">
        <ele>374.75</ele>
        <time>2020-08-19T13:25:02.000Z</time>
      </trkpt>
      <trkpt lat="48.65504" lon="7.19846">
        <ele>375.11</ele>
        <time>2020-08-19T13:25:05.000Z</time>
      </trkpt>
      <trkpt lat="48.65508" lon="7.19842">
        <ele>374.85</ele>
        <time>2020-08-19T13:25:09.000Z</time>
      </trkpt>
      <trkpt lat="48.65514" lon="7.1984">
        <ele>374.27</ele>
        <time>2020-08-19T13:25:14.000Z</time>
      </trkpt>
      <trkpt lat="48.65519" lon="7.1984">
        <ele>372.82</ele>
        <time>2020-08-19T13:25:18.000Z</time>
      </trkpt>
      <trkpt lat="48.65524" lon="7.19841">
        <ele>373.18</ele>
        <time>2020-08-19T13:25:21.000Z</time>
      </trkpt>
      <trkpt lat="48.65529" lon="7.19843">
        <ele>371.64</ele>
        <time>2020-08-19T13:25:26.000Z</time>
      </trkpt>
      <trkpt lat="48.65535" lon="7.1984">
        <ele>371.81</ele>
        <time>2020-08-19T13:25:30.000Z</time>
      </trkpt>
      <trkpt lat="48.65539" lon="7.19836">
        <ele>378.46</ele>
        <time>2020-08-19T13:26:02.000Z</time>
      </trkpt>
      <trkpt lat="48.65544" lon="7.19834">
        <ele>379.32</ele>
        <time>2020-08-19T13:26:06.000Z</time>
      </trkpt>
      <trkpt lat="48.65548" lon="7.19829">
        <ele>378.08</ele>
        <time>2020-08-19T13:26:12.000Z</time>
      </trkpt>
      <trkpt lat="48.65552" lon="7.19825">
        <ele>377.57</ele>
        <time>2020-08-19T13:26:15.000Z</time>
      </trkpt>
      <trkpt lat="48.65556" lon="7.1982">
        <ele>379.56</ele>
        <time>2020-08-19T13:26:20.000Z</time>
      </trkpt>
      <trkpt lat="48.6556" lon="7.19816">
        <ele>380.19</ele>
        <time>2020-08-19T13:26:23.000Z</time>
      </trkpt>
      <trkpt lat="48.65564" lon="7.19812">
        <ele>379.75</ele>
        <time>2020-08-19T13:26:27.000Z</time>
      </trkpt>
      <trkpt lat="48.65569" lon="7.19808">
        <ele>379.65</ele>
        <time>2020-08-19T13:26:32.000Z</time>
      </trkpt>
      <trkpt lat="48.65573" lon="7.19805">
        <ele>378.51</ele>
        <time>2020-08-19T13:26:36.000Z</time>
      </trkpt>
      <trkpt lat="48.65579" lon="7.19804">
        <ele>379.01</ele>
        <time>2020-08-19T13:26:40.000Z</time>
      </trkpt>
      <trkpt lat="48.65585" lon="7.198">
        <ele>378.25</ele>
        <time>2020-08-19T13:26:44.000Z</time>
      </trkpt>
      <trkpt lat="48.65589" lon="7.19797">
        <ele>378.2</ele>
        <time>2020-08-19T13:26:48.000Z</time>
      </trkpt>
      <trkpt lat="48.65595" lon="7.19795">
        <ele>378.31</ele>
        <time>2020-08-19T13:26:53.000Z</time>
      </trkpt>
      <trkpt lat="48.656" lon="7.19791">
        <ele>378.98</ele>
        <time>2020-08-19T13:26:56.000Z</time>
      </trkpt>
      <trkpt lat="48.65605" lon="7.19793">
        <ele>379.52</ele>
        <time>2020-08-19T13:26:59.000Z</time>
      </trkpt>
      <trkpt lat="48.6561" lon="7.19795">
        <ele>378.83</ele>
        <time>2020-08-19T13:27:03.000Z</time>
      </trkpt>
      <trkpt lat="48.65616" lon="7.19796">
        <ele>379.24</ele>
        <time>2020-08-19T13:27:06.000Z</time>
      </trkpt>
      <trkpt lat="48.6562" lon="7.19797">
        <ele>381.74</ele>
        <time>2020-08-19T13:27:09.000Z</time>
      </trkpt>
      <trkpt lat="48.65623" lon="7.19802">
        <ele>382.11</ele>
        <time>2020-08-19T13:27:12.000Z</time>
      </trkpt>
      <trkpt lat="48.65628" lon="7.19805">
        <ele>381.17</ele>
        <time>2020-08-19T13:27:16.000Z</time>
      </trkpt>
      <trkpt lat="48.65633" lon="7.19809">
        <ele>383.39</ele>
        <time>2020-08-19T13:27:20.000Z</time>
      </trkpt>
      <trkpt lat="48.65638" lon="7.1981">
        <ele>381.06</ele>
        <time>2020-08-19T13:27:31.000Z</time>
      </trkpt>
      <trkpt lat="48.65643" lon="7.19811">
        <ele>381.45</ele>
        <time>2020-08-19T13:27:34.000Z</time>
      </trkpt>
      <trkpt lat="48.65648" lon="7.19814">
        <ele>380.81</ele>
        <time>2020-08-19T13:27:38.000Z</time>
      </trkpt>
      <trkpt lat="48.65653" lon="7.19813">
        <ele>381.83</ele>
        <time>2020-08-19T13:27:42.000Z</time>
      </trkpt>
      <trkpt lat="48.65657" lon="7.19817">
        <ele>382.12</ele>
        <time>2020-08-19T13:27:46.000Z</time>
      </trkpt>
      <trkpt lat="48.65661" lon="7.19816">
        <ele>379.39</ele>
        <time>2020-08-19T13:27:50.000Z</time>
      </trkpt>
      <trkpt lat="48.65667" lon="7.19817">
        <ele>380.39</ele>
        <time>2020-08-19T13:27:54.000Z</time>
      </trkpt>
      <trkpt lat="48.65672" lon="7.19817">
        <ele>382.57</ele>
        <time>2020-08-19T13:27:57.000Z</time>
      </trkpt>
      <trkpt lat="48.65677" lon="7.19813">
        <ele>382.68</ele>
        <time>2020-08-19T13:28:01.000Z</time>
      </trkpt>
      <trkpt lat="48.65681" lon="7.19807">
        <ele>381.19</ele>
        <time>2020-08-19T13:28:05.000Z</time>
      </trkpt>
      <trkpt lat="48.65683" lon="7.19799">
        <ele>383.78</ele>
        <time>2020-08-19T13:28:09.000Z</time>
      </trkpt>
      <trkpt lat="48.65685" lon="7.19792">
        <ele>381.71</ele>
        <time>2020-08-19T13:28:14.000Z</time>
      </trkpt>
      <trkpt lat="48.65687" lon="7.19783">
        <ele>381.01</ele>
        <time>2020-08-19T13:28:19.000Z</time>
      </trkpt>
      <trkpt lat="48.65689" lon="7.19776">
        <ele>382.67</ele>
        <time>2020-08-19T13:28:23.000Z</time>
      </trkpt>
      <trkpt lat="48.65691" lon="7.19769">
        <ele>383.62</ele>
        <time>2020-08-19T13:28:27.000Z</time>
      </trkpt>
      <trkpt lat="48.65693" lon="7.19761">
        <ele>385.16</ele>
        <time>2020-08-19T13:28:32.000Z</time>
      </trkpt>
      <trkpt lat="48.65693" lon="7.19753">
        <ele>384.53</ele>
        <time>2020-08-19T13:28:35.000Z</time>
      </trkpt>
      <trkpt lat="48.65695" lon="7.19746">
        <ele>386.45</ele>
        <time>2020-08-19T13:28:39.000Z</time>
      </trkpt>
      <trkpt lat="48.65695" lon="7.19739">
        <ele>381.89</ele>
        <time>2020-08-19T13:28:43.000Z</time>
      </trkpt>
      <trkpt lat="48.65698" lon="7.19732">
        <ele>380.75</ele>
        <time>2020-08-19T13:28:49.000Z</time>
      </trkpt>
      <trkpt lat="48.65699" lon="7.19717">
        <ele>385.54</ele>
        <time>2020-08-19T13:28:56.000Z</time>
      </trkpt>
      <trkpt lat="48.65699" lon="7.19708">
        <ele>385.18</ele>
        <time>2020-08-19T13:29:01.000Z</time>
      </trkpt>
      <trkpt lat="48.65702" lon="7.19701">
        <ele>386.56</ele>
        <time>2020-08-19T13:29:06.000Z</time>
      </trkpt>
      <trkpt lat="48.65704" lon="7.19695">
        <ele>388.82</ele>
        <time>2020-08-19T13:29:09.000Z</time>
      </trkpt>
      <trkpt lat="48.65708" lon="7.19689">
        <ele>388.81</ele>
        <time>2020-08-19T13:29:14.000Z</time>
      </trkpt>
      <trkpt lat="48.65709" lon="7.19681">
        <ele>387.07</ele>
        <time>2020-08-19T13:29:19.000Z</time>
      </trkpt>
      <trkpt lat="48.65712" lon="7.19673">
        <ele>387.26</ele>
        <time>2020-08-19T13:29:23.000Z</time>
      </trkpt>
      <trkpt lat="48.65714" lon="7.19667">
        <ele>387.07</ele>
        <time>2020-08-19T13:29:26.000Z</time>
      </trkpt>
      <trkpt lat="48.65717" lon="7.1966">
        <ele>386.27</ele>
        <time>2020-08-19T13:29:30.000Z</time>
      </trkpt>
      <trkpt lat="48.65721" lon="7.19656">
        <ele>388.73</ele>
        <time>2020-08-19T13:29:35.000Z</time>
      </trkpt>
      <trkpt lat="48.65724" lon="7.1965">
        <ele>392.5</ele>
        <time>2020-08-19T13:29:56.000Z</time>
      </trkpt>
      <trkpt lat="48.65728" lon="7.19644">
        <ele>391.79</ele>
        <time>2020-08-19T13:30:03.000Z</time>
      </trkpt>
      <trkpt lat="48.65734" lon="7.19644">
        <ele>395.42</ele>
        <time>2020-08-19T13:30:06.000Z</time>
      </trkpt>
      <trkpt lat="48.65739" lon="7.19643">
        <ele>399.45</ele>
        <time>2020-08-19T13:30:10.000Z</time>
      </trkpt>
      <trkpt lat="48.65744" lon="7.19637">
        <ele>399.61</ele>
        <time>2020-08-19T13:30:13.000Z</time>
      </trkpt>
      <trkpt lat="48.65748" lon="7.19631">
        <ele>396.38</ele>
        <time>2020-08-19T13:30:16.000Z</time>
      </trkpt>
      <trkpt lat="48.65751" lon="7.19626">
        <ele>396.01</ele>
        <time>2020-08-19T13:30:18.000Z</time>
      </trkpt>
      <trkpt lat="48.65756" lon="7.19619">
        <ele>396.59</ele>
        <time>2020-08-19T13:30:23.000Z</time>
      </trkpt>
      <trkpt lat="48.6576" lon="7.19615">
        <ele>398.98</ele>
        <time>2020-08-19T13:30:26.000Z</time>
      </trkpt>
      <trkpt lat="48.65764" lon="7.1961">
        <ele>399.97</ele>
        <time>2020-08-19T13:30:30.000Z</time>
      </trkpt>
      <trkpt lat="48.65767" lon="7.19604">
        <ele>401.1</ele>
        <time>2020-08-19T13:30:33.000Z</time>
      </trkpt>
      <trkpt lat="48.65769" lon="7.19598">
        <ele>396.37</ele>
        <time>2020-08-19T13:30:39.000Z</time>
      </trkpt>
      <trkpt lat="48.65774" lon="7.19593">
        <ele>397.33</ele>
        <time>2020-08-19T13:30:45.000Z</time>
      </trkpt>
      <trkpt lat="48.65778" lon="7.19591">
        <ele>400.17</ele>
        <time>2020-08-19T13:30:48.000Z</time>
      </trkpt>
      <trkpt lat="48.65781" lon="7.19585">
        <ele>401.29</ele>
        <time>2020-08-19T13:30:53.000Z</time>
      </trkpt>
      <trkpt lat="48.65783" lon="7.19578">
        <ele>400.7</ele>
        <time>2020-08-19T13:30:58.000Z</time>
      </trkpt>
      <trkpt lat="48.65784" lon="7.1957">
        <ele>399.61</ele>
        <time>2020-08-19T13:31:02.000Z</time>
      </trkpt>
      <trkpt lat="48.65787" lon="7.19565">
        <ele>399.69</ele>
        <time>2020-08-19T13:31:14.000Z</time>
      </trkpt>
      <trkpt lat="48.65789" lon="7.19558">
        <ele>401.37</ele>
        <time>2020-08-19T13:31:18.000Z</time>
      </trkpt>
      <trkpt lat="48.65787" lon="7.1955">
        <ele>402.26</ele>
        <time>2020-08-19T13:31:21.000Z</time>
      </trkpt>
      <trkpt lat="48.65778" lon="7.1953">
        <ele>404.48</ele>
        <time>2020-08-19T13:31:28.000Z</time>
      </trkpt>
      <trkpt lat="48.65765" lon="7.19502">
        <ele>403.78</ele>
        <time>2020-08-19T13:31:38.000Z</time>
      </trkpt>
      <trkpt lat="48.65763" lon="7.19496">
        <ele>407.59</ele>
        <time>2020-08-19T13:31:44.000Z</time>
      </trkpt>
      <trkpt lat="48.65758" lon="7.19493">
        <ele>407.44</ele>
        <time>2020-08-19T13:31:48.000Z</time>
      </trkpt>
      <trkpt lat="48.65754" lon="7.19489">
        <ele>405.3</ele>
        <time>2020-08-19T13:31:53.000Z</time>
      </trkpt>
      <trkpt lat="48.65751" lon="7.19484">
        <ele>403.37</ele>
        <time>2020-08-19T13:31:58.000Z</time>
      </trkpt>
      <trkpt lat="48.65748" lon="7.19478">
        <ele>404.27</ele>
        <time>2020-08-19T13:32:02.000Z</time>
      </trkpt>
      <trkpt lat="48.65745" lon="7.19472">
        <ele>405.14</ele>
        <time>2020-08-19T13:32:06.000Z</time>
      </trkpt>
      <trkpt lat="48.65743" lon="7.19465">
        <ele>406.18</ele>
        <time>2020-08-19T13:32:11.000Z</time>
      </trkpt>
      <trkpt lat="48.65738" lon="7.19462">
        <ele>407.96</ele>
        <time>2020-08-19T13:32:15.000Z</time>
      </trkpt>
      <trkpt lat="48.65735" lon="7.19455">
        <ele>411.34</ele>
        <time>2020-08-19T13:32:27.000Z</time>
      </trkpt>
      <trkpt lat="48.65732" lon="7.1945">
        <ele>403.34</ele>
        <time>2020-08-19T13:32:31.000Z</time>
      </trkpt>
      <trkpt lat="48.65728" lon="7.19444">
        <ele>407.03</ele>
        <time>2020-08-19T13:32:35.000Z</time>
      </trkpt>
      <trkpt lat="48.65723" lon="7.19442">
        <ele>409.19</ele>
        <time>2020-08-19T13:32:39.000Z</time>
      </trkpt>
      <trkpt lat="48.65718" lon="7.19437">
        <ele>409.39</ele>
        <time>2020-08-19T13:32:47.000Z</time>
      </trkpt>
      <trkpt lat="48.65714" lon="7.19432">
        <ele>409.59</ele>
        <time>2020-08-19T13:32:52.000Z</time>
      </trkpt>
      <trkpt lat="48.65709" lon="7.1943">
        <ele>410.53</ele>
        <time>2020-08-19T13:32:56.000Z</time>
      </trkpt>
      <trkpt lat="48.65704" lon="7.19426">
        <ele>411.29</ele>
        <time>2020-08-19T13:33:03.000Z</time>
      </trkpt>
      <trkpt lat="48.65699" lon="7.19422">
        <ele>413.56</ele>
        <time>2020-08-19T13:33:08.000Z</time>
      </trkpt>
      <trkpt lat="48.65695" lon="7.1942">
        <ele>413.39</ele>
        <time>2020-08-19T13:33:12.000Z</time>
      </trkpt>
      <trkpt lat="48.65686" lon="7.19411">
        <ele>416.82</ele>
        <time>2020-08-19T13:33:18.000Z</time>
      </trkpt>
      <trkpt lat="48.65681" lon="7.19406">
        <ele>421.47</ele>
        <time>2020-08-19T13:33:23.000Z</time>
      </trkpt>
      <trkpt lat="48.65678" lon="7.194">
        <ele>421.99</ele>
        <time>2020-08-19T13:33:26.000Z</time>
      </trkpt>
      <trkpt lat="48.65674" lon="7.19396">
        <ele>422.28</ele>
        <time>2020-08-19T13:33:29.000Z</time>
      </trkpt>
      <trkpt lat="48.65671" lon="7.19392">
        <ele>423.94</ele>
        <time>2020-08-19T13:33:32.000Z</time>
      </trkpt>
      <trkpt lat="48.65667" lon="7.19387">
        <ele>426.62</ele>
        <time>2020-08-19T13:33:37.000Z</time>
      </trkpt>
      <trkpt lat="48.65663" lon="7.19387">
        <ele>425.88</ele>
        <time>2020-08-19T13:33:42.000Z</time>
      </trkpt>
      <trkpt lat="48.65657" lon="7.19386">
        <ele>423.16</ele>
        <time>2020-08-19T13:33:47.000Z</time>
      </trkpt>
      <trkpt lat="48.65652" lon="7.19381">
        <ele>423.63</ele>
        <time>2020-08-19T13:33:51.000Z</time>
      </trkpt>
      <trkpt lat="48.65647" lon="7.19378">
        <ele>421.49</ele>
        <time>2020-08-19T13:33:56.000Z</time>
      </trkpt>
      <trkpt lat="48.65643" lon="7.19375">
        <ele>426.45</ele>
        <time>2020-08-19T13:33:59.000Z</time>
      </trkpt>
      <trkpt lat="48.65638" lon="7.19371">
        <ele>426.57</ele>
        <time>2020-08-19T13:34:04.000Z</time>
      </trkpt>
      <trkpt lat="48.65634" lon="7.19366">
        <ele>426.3</ele>
        <time>2020-08-19T13:34:09.000Z</time>
      </trkpt>
      <trkpt lat="48.65631" lon="7.1936">
        <ele>428.88</ele>
        <time>2020-08-19T13:34:14.000Z</time>
      </trkpt>
      <trkpt lat="48.65627" lon="7.19355">
        <ele>429.91</ele>
        <time>2020-08-19T13:34:23.000Z</time>
      </trkpt>
      <trkpt lat="48.65623" lon="7.19351">
        <ele>430.65</ele>
        <time>2020-08-19T13:34:26.000Z</time>
      </trkpt>
      <trkpt lat="48.65614" lon="7.19342">
        <ele>433.12</ele>
        <time>2020-08-19T13:34:35.000Z</time>
      </trkpt>
      <trkpt lat="48.65605" lon="7.19332">
        <ele>434.6</ele>
        <time>2020-08-19T13:34:42.000Z</time>
      </trkpt>
      <trkpt lat="48.65601" lon="7.19329">
        <ele>434.72</ele>
        <time>2020-08-19T13:34:47.000Z</time>
      </trkpt>
      <trkpt lat="48.65598" lon="7.19323">
        <ele>438</ele>
        <time>2020-08-19T13:34:51.000Z</time>
      </trkpt>
      <trkpt lat="48.65593" lon="7.19318">
        <ele>439.41</ele>
        <time>2020-08-19T13:34:56.000Z</time>
      </trkpt>
      <trkpt lat="48.65588" lon="7.19316">
        <ele>439.36</ele>
        <time>2020-08-19T13:34:59.000Z</time>
      </trkpt>
      <trkpt lat="48.65584" lon="7.19312">
        <ele>439.5</ele>
        <time>2020-08-19T13:35:03.000Z</time>
      </trkpt>
      <trkpt lat="48.6558" lon="7.19307">
        <ele>438.21</ele>
        <time>2020-08-19T13:35:07.000Z</time>
      </trkpt>
      <trkpt lat="48.65577" lon="7.19303">
        <ele>437.78</ele>
        <time>2020-08-19T13:35:12.000Z</time>
      </trkpt>
      <trkpt lat="48.65565" lon="7.19288">
        <ele>442.66</ele>
        <time>2020-08-19T13:35:25.000Z</time>
      </trkpt>
      <trkpt lat="48.65561" lon="7.19283">
        <ele>442.74</ele>
        <time>2020-08-19T13:35:29.000Z</time>
      </trkpt>
      <trkpt lat="48.65556" lon="7.1928">
        <ele>442.99</ele>
        <time>2020-08-19T13:35:37.000Z</time>
      </trkpt>
      <trkpt lat="48.65552" lon="7.19276">
        <ele>442.51</ele>
        <time>2020-08-19T13:35:41.000Z</time>
      </trkpt>
      <trkpt lat="48.6555" lon="7.1927">
        <ele>444.11</ele>
        <time>2020-08-19T13:35:45.000Z</time>
      </trkpt>
      <trkpt lat="48.65546" lon="7.19264">
        <ele>443.68</ele>
        <time>2020-08-19T13:35:49.000Z</time>
      </trkpt>
      <trkpt lat="48.65542" lon="7.19258">
        <ele>445.04</ele>
        <time>2020-08-19T13:35:54.000Z</time>
      </trkpt>
      <trkpt lat="48.65538" lon="7.19254">
        <ele>442.15</ele>
        <time>2020-08-19T13:35:59.000Z</time>
      </trkpt>
      <trkpt lat="48.65533" lon="7.19252">
        <ele>443.86</ele>
        <time>2020-08-19T13:36:04.000Z</time>
      </trkpt>
      <trkpt lat="48.65529" lon="7.19247">
        <ele>442.8</ele>
        <time>2020-08-19T13:36:09.000Z</time>
      </trkpt>
      <trkpt lat="48.65526" lon="7.19239">
        <ele>442.98</ele>
        <time>2020-08-19T13:36:13.000Z</time>
      </trkpt>
      <trkpt lat="48.65524" lon="7.19233">
        <ele>444.78</ele>
        <time>2020-08-19T13:36:18.000Z</time>
      </trkpt>
      <trkpt lat="48.65521" lon="7.19227">
        <ele>445.42</ele>
        <time>2020-08-19T13:36:23.000Z</time>
      </trkpt>
      <trkpt lat="48.65517" lon="7.19222">
        <ele>447.4</ele>
        <time>2020-08-19T13:36:28.000Z</time>
      </trkpt>
      <trkpt lat="48.65514" lon="7.19217">
        <ele>447.29</ele>
        <time>2020-08-19T13:36:33.000Z</time>
      </trkpt>
      <trkpt lat="48.65511" lon="7.1921">
        <ele>448.33</ele>
        <time>2020-08-19T13:36:39.000Z</time>
      </trkpt>
      <trkpt lat="48.65509" lon="7.19203">
        <ele>450.98</ele>
        <time>2020-08-19T13:36:46.000Z</time>
      </trkpt>
      <trkpt lat="48.65505" lon="7.19198">
        <ele>451.08</ele>
        <time>2020-08-19T13:36:53.000Z</time>
      </trkpt>
      <trkpt lat="48.65499" lon="7.19196">
        <ele>451.77</ele>
        <time>2020-08-19T13:36:58.000Z</time>
      </trkpt>
      <trkpt lat="48.65495" lon="7.19193">
        <ele>451.69</ele>
        <time>2020-08-19T13:37:02.000Z</time>
      </trkpt>
      <trkpt lat="48.65492" lon="7.19188">
        <ele>454.38</ele>
        <time>2020-08-19T13:37:06.000Z</time>
      </trkpt>
      <trkpt lat="48.65488" lon="7.19181">
        <ele>455.38</ele>
        <time>2020-08-19T13:37:10.000Z</time>
      </trkpt>
      <trkpt lat="48.65484" lon="7.19179">
        <ele>458.03</ele>
        <time>2020-08-19T13:37:15.000Z</time>
      </trkpt>
      <trkpt lat="48.65481" lon="7.19174">
        <ele>464.96</ele>
        <time>2020-08-19T13:38:32.000Z</time>
      </trkpt>
      <trkpt lat="48.65478" lon="7.19167">
        <ele>437.28</ele>
        <time>2020-08-19T13:38:50.000Z</time>
      </trkpt>
      <trkpt lat="48.65474" lon="7.1916">
        <ele>464.67</ele>
        <time>2020-08-19T13:38:57.000Z</time>
      </trkpt>
      <trkpt lat="48.65472" lon="7.19154">
        <ele>465.89</ele>
        <time>2020-08-19T13:39:01.000Z</time>
      </trkpt>
      <trkpt lat="48.6547" lon="7.19146">
        <ele>461.09</ele>
        <time>2020-08-19T13:39:10.000Z</time>
      </trkpt>
      <trkpt lat="48.65468" lon="7.1914">
        <ele>463.59</ele>
        <time>2020-08-19T13:39:14.000Z</time>
      </trkpt>
      <trkpt lat="48.65463" lon="7.19136">
        <ele>459.79</ele>
        <time>2020-08-19T13:39:20.000Z</time>
      </trkpt>
      <trkpt lat="48.6546" lon="7.19129">
        <ele>460.46</ele>
        <time>2020-08-19T13:39:24.000Z</time>
      </trkpt>
      <trkpt lat="48.65456" lon="7.19125">
        <ele>462.5</ele>
        <time>2020-08-19T13:39:29.000Z</time>
      </trkpt>
      <trkpt lat="48.65452" lon="7.19121">
        <ele>463.98</ele>
        <time>2020-08-19T13:39:39.000Z</time>
      </trkpt>
      <trkpt lat="48.65449" lon="7.19114">
        <ele>461.37</ele>
        <time>2020-08-19T13:39:44.000Z</time>
      </trkpt>
      <trkpt lat="48.65446" lon="7.19105">
        <ele>460.89</ele>
        <time>2020-08-19T13:39:50.000Z</time>
      </trkpt>
      <trkpt lat="48.65444" lon="7.19099">
        <ele>461.13</ele>
        <time>2020-08-19T13:39:56.000Z</time>
      </trkpt>
      <trkpt lat="48.65441" lon="7.19093">
        <ele>460.17</ele>
        <time>2020-08-19T13:40:01.000Z</time>
      </trkpt>
      <trkpt lat="48.65439" lon="7.19087">
        <ele>459.95</ele>
        <time>2020-08-19T13:40:05.000Z</time>
      </trkpt>
      <trkpt lat="48.65435" lon="7.19081">
        <ele>459.43</ele>
        <time>2020-08-19T13:40:09.000Z</time>
      </trkpt>
      <trkpt lat="48.6543" lon="7.19077">
        <ele>456.25</ele>
        <time>2020-08-19T13:40:13.000Z</time>
      </trkpt>
      <trkpt lat="48.65426" lon="7.19071">
        <ele>459.83</ele>
        <time>2020-08-19T13:40:17.000Z</time>
      </trkpt>
      <trkpt lat="48.65423" lon="7.19065">
        <ele>461.96</ele>
        <time>2020-08-19T13:40:21.000Z</time>
      </trkpt>
      <trkpt lat="48.65422" lon="7.19059">
        <ele>461.45</ele>
        <time>2020-08-19T13:40:25.000Z</time>
      </trkpt>
      <trkpt lat="48.6542" lon="7.19052">
        <ele>459.57</ele>
        <time>2020-08-19T13:40:30.000Z</time>
      </trkpt>
      <trkpt lat="48.65416" lon="7.19047">
        <ele>462.89</ele>
        <time>2020-08-19T13:40:36.000Z</time>
      </trkpt>
      <trkpt lat="48.65414" lon="7.19039">
        <ele>464.11</ele>
        <time>2020-08-19T13:40:46.000Z</time>
      </trkpt>
      <trkpt lat="48.65412" lon="7.19033">
        <ele>465.28</ele>
        <time>2020-08-19T13:40:50.000Z</time>
      </trkpt>
      <trkpt lat="48.65408" lon="7.19026">
        <ele>466.89</ele>
        <time>2020-08-19T13:40:56.000Z</time>
      </trkpt>
      <trkpt lat="48.65405" lon="7.19021">
        <ele>467.66</ele>
        <time>2020-08-19T13:41:01.000Z</time>
      </trkpt>
      <trkpt lat="48.654" lon="7.19016">
        <ele>468.85</ele>
        <time>2020-08-19T13:41:05.000Z</time>
      </trkpt>
      <trkpt lat="48.65397" lon="7.1901">
        <ele>470.19</ele>
        <time>2020-08-19T13:41:10.000Z</time>
      </trkpt>
      <trkpt lat="48.65393" lon="7.19005">
        <ele>468.34</ele>
        <time>2020-08-19T13:41:16.000Z</time>
      </trkpt>
      <trkpt lat="48.65389" lon="7.19">
        <ele>470.63</ele>
        <time>2020-08-19T13:41:19.000Z</time>
      </trkpt>
      <trkpt lat="48.65387" lon="7.18994">
        <ele>472.05</ele>
        <time>2020-08-19T13:41:24.000Z</time>
      </trkpt>
      <trkpt lat="48.65385" lon="7.18987">
        <ele>472.91</ele>
        <time>2020-08-19T13:41:30.000Z</time>
      </trkpt>
      <trkpt lat="48.65382" lon="7.1898">
        <ele>475.9</ele>
        <time>2020-08-19T13:41:35.000Z</time>
      </trkpt>
      <trkpt lat="48.65378" lon="7.18976">
        <ele>474.06</ele>
        <time>2020-08-19T13:41:40.000Z</time>
      </trkpt>
      <trkpt lat="48.65374" lon="7.1897">
        <ele>474.62</ele>
        <time>2020-08-19T13:41:44.000Z</time>
      </trkpt>
      <trkpt lat="48.6537" lon="7.18966">
        <ele>475.37</ele>
        <time>2020-08-19T13:41:48.000Z</time>
      </trkpt>
      <trkpt lat="48.65367" lon="7.18962">
        <ele>476.58</ele>
        <time>2020-08-19T13:41:54.000Z</time>
      </trkpt>
      <trkpt lat="48.65363" lon="7.18956">
        <ele>478.58</ele>
        <time>2020-08-19T13:41:58.000Z</time>
      </trkpt>
      <trkpt lat="48.6536" lon="7.1895">
        <ele>479.73</ele>
        <time>2020-08-19T13:42:02.000Z</time>
      </trkpt>
      <trkpt lat="48.65358" lon="7.18944">
        <ele>478.76</ele>
        <time>2020-08-19T13:42:06.000Z</time>
      </trkpt>
      <trkpt lat="48.65354" lon="7.18937">
        <ele>476.7</ele>
        <time>2020-08-19T13:42:13.000Z</time>
      </trkpt>
      <trkpt lat="48.65352" lon="7.18931">
        <ele>479.22</ele>
        <time>2020-08-19T13:42:17.000Z</time>
      </trkpt>
      <trkpt lat="48.65349" lon="7.18926">
        <ele>480.97</ele>
        <time>2020-08-19T13:42:21.000Z</time>
      </trkpt>
      <trkpt lat="48.65347" lon="7.18919">
        <ele>479.22</ele>
        <time>2020-08-19T13:42:28.000Z</time>
      </trkpt>
      <trkpt lat="48.65344" lon="7.18913">
        <ele>483.28</ele>
        <time>2020-08-19T13:42:32.000Z</time>
      </trkpt>
      <trkpt lat="48.6534" lon="7.18907">
        <ele>482.88</ele>
        <time>2020-08-19T13:42:36.000Z</time>
      </trkpt>
      <trkpt lat="48.65337" lon="7.18902">
        <ele>484.1</ele>
        <time>2020-08-19T13:42:43.000Z</time>
      </trkpt>
      <trkpt lat="48.65333" lon="7.18898">
        <ele>483.99</ele>
        <time>2020-08-19T13:42:48.000Z</time>
      </trkpt>
      <trkpt lat="48.6533" lon="7.18892">
        <ele>484.24</ele>
        <time>2020-08-19T13:42:53.000Z</time>
      </trkpt>
      <trkpt lat="48.65325" lon="7.18886">
        <ele>485.21</ele>
        <time>2020-08-19T13:42:57.000Z</time>
      </trkpt>
      <trkpt lat="48.65322" lon="7.18882">
        <ele>484.42</ele>
        <time>2020-08-19T13:43:00.000Z</time>
      </trkpt>
      <trkpt lat="48.65319" lon="7.18875">
        <ele>483.56</ele>
        <time>2020-08-19T13:43:04.000Z</time>
      </trkpt>
      <trkpt lat="48.65315" lon="7.18872">
        <ele>483.98</ele>
        <time>2020-08-19T13:43:08.000Z</time>
      </trkpt>
      <trkpt lat="48.65311" lon="7.18865">
        <ele>486.01</ele>
        <time>2020-08-19T13:43:12.000Z</time>
      </trkpt>
      <trkpt lat="48.65308" lon="7.18861">
        <ele>484.22</ele>
        <time>2020-08-19T13:43:16.000Z</time>
      </trkpt>
      <trkpt lat="48.65305" lon="7.18854">
        <ele>485.9</ele>
        <time>2020-08-19T13:43:22.000Z</time>
      </trkpt>
      <trkpt lat="48.65301" lon="7.1885">
        <ele>485.2</ele>
        <time>2020-08-19T13:43:26.000Z</time>
      </trkpt>
      <trkpt lat="48.65297" lon="7.18846">
        <ele>485.98</ele>
        <time>2020-08-19T13:43:29.000Z</time>
      </trkpt>
      <trkpt lat="48.65293" lon="7.1884">
        <ele>486.24</ele>
        <time>2020-08-19T13:43:34.000Z</time>
      </trkpt>
      <trkpt lat="48.65288" lon="7.18835">
        <ele>485.26</ele>
        <time>2020-08-19T13:43:38.000Z</time>
      </trkpt>
      <trkpt lat="48.65285" lon="7.1883">
        <ele>484.24</ele>
        <time>2020-08-19T13:43:54.000Z</time>
      </trkpt>
      <trkpt lat="48.65283" lon="7.18824">
        <ele>485.43</ele>
        <time>2020-08-19T13:43:58.000Z</time>
      </trkpt>
      <trkpt lat="48.65279" lon="7.18819">
        <ele>486.89</ele>
        <time>2020-08-19T13:44:02.000Z</time>
      </trkpt>
      <trkpt lat="48.65275" lon="7.18815">
        <ele>488.76</ele>
        <time>2020-08-19T13:44:10.000Z</time>
      </trkpt>
      <trkpt lat="48.65271" lon="7.18812">
        <ele>490.98</ele>
        <time>2020-08-19T13:44:15.000Z</time>
      </trkpt>
      <trkpt lat="48.65267" lon="7.18806">
        <ele>492.96</ele>
        <time>2020-08-19T13:44:20.000Z</time>
      </trkpt>
      <trkpt lat="48.65264" lon="7.188">
        <ele>496.1</ele>
        <time>2020-08-19T13:44:24.000Z</time>
      </trkpt>
      <trkpt lat="48.65218" lon="7.1874">
        <ele>493.51</ele>
        <time>2020-08-19T13:45:02.000Z</time>
      </trkpt>
      <trkpt lat="48.65212" lon="7.18734">
        <ele>493.5</ele>
        <time>2020-08-19T13:45:05.000Z</time>
      </trkpt>
      <trkpt lat="48.65207" lon="7.18729">
        <ele>491.8</ele>
        <time>2020-08-19T13:45:08.000Z</time>
      </trkpt>
      <trkpt lat="48.65202" lon="7.18722">
        <ele>491.17</ele>
        <time>2020-08-19T13:45:11.000Z</time>
      </trkpt>
      <trkpt lat="48.65198" lon="7.18718">
        <ele>492.38</ele>
        <time>2020-08-19T13:45:14.000Z</time>
      </trkpt>
      <trkpt lat="48.65194" lon="7.18714">
        <ele>492.8</ele>
        <time>2020-08-19T13:45:17.000Z</time>
      </trkpt>
      <trkpt lat="48.65189" lon="7.18709">
        <ele>493.52</ele>
        <time>2020-08-19T13:45:19.000Z</time>
      </trkpt>
      <trkpt lat="48.65185" lon="7.18706">
        <ele>494.89</ele>
        <time>2020-08-19T13:45:21.000Z</time>
      </trkpt>
      <trkpt lat="48.6518" lon="7.18702">
        <ele>494.08</ele>
        <time>2020-08-19T13:45:23.000Z</time>
      </trkpt>
      <trkpt lat="48.65175" lon="7.18698">
        <ele>494.06</ele>
        <time>2020-08-19T13:45:25.000Z</time>
      </trkpt>
      <trkpt lat="48.65171" lon="7.18694">
        <ele>494.06</ele>
        <time>2020-08-19T13:45:27.000Z</time>
      </trkpt>
      <trkpt lat="48.65166" lon="7.18689">
        <ele>496.56</ele>
        <time>2020-08-19T13:45:30.000Z</time>
      </trkpt>
      <trkpt lat="48.65162" lon="7.18685">
        <ele>498.6</ele>
        <time>2020-08-19T13:45:32.000Z</time>
      </trkpt>
      <trkpt lat="48.65157" lon="7.18681">
        <ele>497.86</ele>
        <time>2020-08-19T13:45:35.000Z</time>
      </trkpt>
      <trkpt lat="48.65151" lon="7.18677">
        <ele>500.92</ele>
        <time>2020-08-19T13:45:39.000Z</time>
      </trkpt>
      <trkpt lat="48.65147" lon="7.18673">
        <ele>501.34</ele>
        <time>2020-08-19T13:45:41.000Z</time>
      </trkpt>
      <trkpt lat="48.65142" lon="7.18669">
        <ele>499.65</ele>
        <time>2020-08-19T13:45:44.000Z</time>
      </trkpt>
      <trkpt lat="48.65137" lon="7.18666">
        <ele>500.23</ele>
        <time>2020-08-19T13:45:47.000Z</time>
      </trkpt>
      <trkpt lat="48.65119" lon="7.18656">
        <ele>498.93</ele>
        <time>2020-08-19T13:45:53.000Z</time>
      </trkpt>
      <trkpt lat="48.65113" lon="7.18656">
        <ele>498.77</ele>
        <time>2020-08-19T13:45:55.000Z</time>
      </trkpt>
      <trkpt lat="48.65107" lon="7.18656">
        <ele>499.49</ele>
        <time>2020-08-19T13:46:02.000Z</time>
      </trkpt>
      <trkpt lat="48.65102" lon="7.18657">
        <ele>496.79</ele>
        <time>2020-08-19T13:46:06.000Z</time>
      </trkpt>
      <trkpt lat="48.65096" lon="7.18657">
        <ele>496.61</ele>
        <time>2020-08-19T13:46:10.000Z</time>
      </trkpt>
      <trkpt lat="48.65091" lon="7.18654">
        <ele>498.12</ele>
        <time>2020-08-19T13:46:13.000Z</time>
      </trkpt>
      <trkpt lat="48.65088" lon="7.18648">
        <ele>500.77</ele>
        <time>2020-08-19T13:46:17.000Z</time>
      </trkpt>
      <trkpt lat="48.65084" lon="7.18644">
        <ele>501.84</ele>
        <time>2020-08-19T13:46:22.000Z</time>
      </trkpt>
      <trkpt lat="48.65079" lon="7.18643">
        <ele>502.26</ele>
        <time>2020-08-19T13:46:25.000Z</time>
      </trkpt>
      <trkpt lat="48.65074" lon="7.18643">
        <ele>503.85</ele>
        <time>2020-08-19T13:46:28.000Z</time>
      </trkpt>
      <trkpt lat="48.6507" lon="7.18642">
        <ele>504.66</ele>
        <time>2020-08-19T13:46:32.000Z</time>
      </trkpt>
      <trkpt lat="48.65064" lon="7.18641">
        <ele>504.26</ele>
        <time>2020-08-19T13:46:36.000Z</time>
      </trkpt>
      <trkpt lat="48.65059" lon="7.1864">
        <ele>505.58</ele>
        <time>2020-08-19T13:46:40.000Z</time>
      </trkpt>
      <trkpt lat="48.65054" lon="7.18639">
        <ele>507.76</ele>
        <time>2020-08-19T13:46:45.000Z</time>
      </trkpt>
      <trkpt lat="48.6505" lon="7.18636">
        <ele>494.88</ele>
        <time>2020-08-19T13:46:50.000Z</time>
      </trkpt>
      <trkpt lat="48.65045" lon="7.18632">
        <ele>507.62</ele>
        <time>2020-08-19T13:46:54.000Z</time>
      </trkpt>
      <trkpt lat="48.6504" lon="7.18633">
        <ele>510.52</ele>
        <time>2020-08-19T13:46:59.000Z</time>
      </trkpt>
      <trkpt lat="48.65035" lon="7.18632">
        <ele>512.2</ele>
        <time>2020-08-19T13:47:04.000Z</time>
      </trkpt>
      <trkpt lat="48.65029" lon="7.18633">
        <ele>511.99</ele>
        <time>2020-08-19T13:47:08.000Z</time>
      </trkpt>
      <trkpt lat="48.65025" lon="7.18632">
        <ele>513.09</ele>
        <time>2020-08-19T13:47:13.000Z</time>
      </trkpt>
      <trkpt lat="48.6502" lon="7.18629">
        <ele>515</ele>
        <time>2020-08-19T13:47:17.000Z</time>
      </trkpt>
      <trkpt lat="48.65016" lon="7.18628">
        <ele>516.93</ele>
        <time>2020-08-19T13:47:22.000Z</time>
      </trkpt>
      <trkpt lat="48.6501" lon="7.1863">
        <ele>516.06</ele>
        <time>2020-08-19T13:47:29.000Z</time>
      </trkpt>
      <trkpt lat="48.65006" lon="7.18633">
        <ele>518.21</ele>
        <time>2020-08-19T13:47:34.000Z</time>
      </trkpt>
      <trkpt lat="48.65" lon="7.18634">
        <ele>519.51</ele>
        <time>2020-08-19T13:47:41.000Z</time>
      </trkpt>
      <trkpt lat="48.64995" lon="7.18634">
        <ele>517.17</ele>
        <time>2020-08-19T13:47:45.000Z</time>
      </trkpt>
      <trkpt lat="48.64989" lon="7.18633">
        <ele>520.91</ele>
        <time>2020-08-19T13:47:49.000Z</time>
      </trkpt>
      <trkpt lat="48.64983" lon="7.18632">
        <ele>521.82</ele>
        <time>2020-08-19T13:47:53.000Z</time>
      </trkpt>
      <trkpt lat="48.64979" lon="7.18629">
        <ele>523.14</ele>
        <time>2020-08-19T13:47:57.000Z</time>
      </trkpt>
      <trkpt lat="48.64974" lon="7.18625">
        <ele>523.6</ele>
        <time>2020-08-19T13:48:03.000Z</time>
      </trkpt>
      <trkpt lat="48.6497" lon="7.18622">
        <ele>524.45</ele>
        <time>2020-08-19T13:48:09.000Z</time>
      </trkpt>
      <trkpt lat="48.64964" lon="7.1862">
        <ele>523.81</ele>
        <time>2020-08-19T13:48:16.000Z</time>
      </trkpt>
      <trkpt lat="48.6496" lon="7.18616">
        <ele>525.95</ele>
        <time>2020-08-19T13:48:19.000Z</time>
      </trkpt>
      <trkpt lat="48.64955" lon="7.18613">
        <ele>526.34</ele>
        <time>2020-08-19T13:48:23.000Z</time>
      </trkpt>
      <trkpt lat="48.6495" lon="7.18611">
        <ele>525.54</ele>
        <time>2020-08-19T13:48:28.000Z</time>
      </trkpt>
      <trkpt lat="48.64945" lon="7.1861">
        <ele>527.35</ele>
        <time>2020-08-19T13:48:34.000Z</time>
      </trkpt>
      <trkpt lat="48.6494" lon="7.18611">
        <ele>529.9</ele>
        <time>2020-08-19T13:48:39.000Z</time>
      </trkpt>
      <trkpt lat="48.64934" lon="7.18606">
        <ele>522.07</ele>
        <time>2020-08-19T13:49:00.000Z</time>
      </trkpt>
      <trkpt lat="48.64929" lon="7.18603">
        <ele>524.55</ele>
        <time>2020-08-19T13:49:02.000Z</time>
      </trkpt>
      <trkpt lat="48.64924" lon="7.18599">
        <ele>524.82</ele>
        <time>2020-08-19T13:49:04.000Z</time>
      </trkpt>
      <trkpt lat="48.64918" lon="7.18596">
        <ele>523.68</ele>
        <time>2020-08-19T13:49:06.000Z</time>
      </trkpt>
      <trkpt lat="48.64913" lon="7.18596">
        <ele>524.31</ele>
        <time>2020-08-19T13:49:08.000Z</time>
      </trkpt>
      <trkpt lat="48.64908" lon="7.18596">
        <ele>525.06</ele>
        <time>2020-08-19T13:49:10.000Z</time>
      </trkpt>
      <trkpt lat="48.64904" lon="7.18595">
        <ele>526.39</ele>
        <time>2020-08-19T13:49:12.000Z</time>
      </trkpt>
      <trkpt lat="48.64899" lon="7.18594">
        <ele>525.96</ele>
        <time>2020-08-19T13:49:14.000Z</time>
      </trkpt>
      <trkpt lat="48.64892" lon="7.1859">
        <ele>529.2</ele>
        <time>2020-08-19T13:49:16.000Z</time>
      </trkpt>
      <trkpt lat="48.64887" lon="7.18584">
        <ele>528.23</ele>
        <time>2020-08-19T13:49:18.000Z</time>
      </trkpt>
      <trkpt lat="48.64839" lon="7.1854">
        <ele>530.32</ele>
        <time>2020-08-19T13:49:31.000Z</time>
      </trkpt>
      <trkpt lat="48.64832" lon="7.18532">
        <ele>529.65</ele>
        <time>2020-08-19T13:49:33.000Z</time>
      </trkpt>
      <trkpt lat="48.64824" lon="7.18525">
        <ele>529.21</ele>
        <time>2020-08-19T13:49:35.000Z</time>
      </trkpt>
      <trkpt lat="48.64818" lon="7.18517">
        <ele>528.73</ele>
        <time>2020-08-19T13:49:37.000Z</time>
      </trkpt>
      <trkpt lat="48.64811" lon="7.18508">
        <ele>529.01</ele>
        <time>2020-08-19T13:49:39.000Z</time>
      </trkpt>
      <trkpt lat="48.64808" lon="7.18504">
        <ele>528.95</ele>
        <time>2020-08-19T13:49:40.000Z</time>
      </trkpt>
      <trkpt lat="48.64802" lon="7.18496">
        <ele>528.74</ele>
        <time>2020-08-19T13:49:42.000Z</time>
      </trkpt>
      <trkpt lat="48.64796" lon="7.18487">
        <ele>530.01</ele>
        <time>2020-08-19T13:49:44.000Z</time>
      </trkpt>
      <trkpt lat="48.64788" lon="7.18478">
        <ele>530.11</ele>
        <time>2020-08-19T13:49:46.000Z</time>
      </trkpt>
      <trkpt lat="48.64783" lon="7.18473">
        <ele>530.44</ele>
        <time>2020-08-19T13:49:48.000Z</time>
      </trkpt>
      <trkpt lat="48.64779" lon="7.18466">
        <ele>531.28</ele>
        <time>2020-08-19T13:49:50.000Z</time>
      </trkpt>
      <trkpt lat="48.64774" lon="7.1846">
        <ele>530.16</ele>
        <time>2020-08-19T13:49:52.000Z</time>
      </trkpt>
      <trkpt lat="48.64768" lon="7.18452">
        <ele>532.27</ele>
        <time>2020-08-19T13:49:54.000Z</time>
      </trkpt>
      <trkpt lat="48.64763" lon="7.18445">
        <ele>531.74</ele>
        <time>2020-08-19T13:49:56.000Z</time>
      </trkpt>
      <trkpt lat="48.64758" lon="7.18437">
        <ele>531.43</ele>
        <time>2020-08-19T13:49:58.000Z</time>
      </trkpt>
      <trkpt lat="48.64752" lon="7.18429">
        <ele>530.04</ele>
        <time>2020-08-19T13:50:00.000Z</time>
      </trkpt>
      <trkpt lat="48.64746" lon="7.18422">
        <ele>531.74</ele>
        <time>2020-08-19T13:50:02.000Z</time>
      </trkpt>
      <trkpt lat="48.64739" lon="7.18417">
        <ele>533.44</ele>
        <time>2020-08-19T13:50:04.000Z</time>
      </trkpt>
      <trkpt lat="48.64733" lon="7.18411">
        <ele>532.08</ele>
        <time>2020-08-19T13:50:06.000Z</time>
      </trkpt>
      <trkpt lat="48.64728" lon="7.18404">
        <ele>529.82</ele>
        <time>2020-08-19T13:50:08.000Z</time>
      </trkpt>
      <trkpt lat="48.64723" lon="7.18397">
        <ele>531.2</ele>
        <time>2020-08-19T13:50:10.000Z</time>
      </trkpt>
      <trkpt lat="48.64719" lon="7.18393">
        <ele>532.46</ele>
        <time>2020-08-19T13:50:12.000Z</time>
      </trkpt>
      <trkpt lat="48.64714" lon="7.18386">
        <ele>533.39</ele>
        <time>2020-08-19T13:50:14.000Z</time>
      </trkpt>
      <trkpt lat="48.64708" lon="7.18382">
        <ele>532.54</ele>
        <time>2020-08-19T13:50:16.000Z</time>
      </trkpt>
      <trkpt lat="48.64704" lon="7.18377">
        <ele>531.37</ele>
        <time>2020-08-19T13:50:18.000Z</time>
      </trkpt>
      <trkpt lat="48.647" lon="7.18371">
        <ele>531.43</ele>
        <time>2020-08-19T13:50:20.000Z</time>
      </trkpt>
      <trkpt lat="48.64695" lon="7.18365">
        <ele>531.87</ele>
        <time>2020-08-19T13:50:22.000Z</time>
      </trkpt>
      <trkpt lat="48.64687" lon="7.18354">
        <ele>531.31</ele>
        <time>2020-08-19T13:50:24.000Z</time>
      </trkpt>
      <trkpt lat="48.64679" lon="7.18347">
        <ele>530.09</ele>
        <time>2020-08-19T13:50:26.000Z</time>
      </trkpt>
      <trkpt lat="48.64676" lon="7.18341">
        <ele>531.84</ele>
        <time>2020-08-19T13:50:27.000Z</time>
      </trkpt>
      <trkpt lat="48.64668" lon="7.18331">
        <ele>534.1</ele>
        <time>2020-08-19T13:50:29.000Z</time>
      </trkpt>
      <trkpt lat="48.64662" lon="7.18325">
        <ele>533.98</ele>
        <time>2020-08-19T13:50:31.000Z</time>
      </trkpt>
      <trkpt lat="48.64656" lon="7.18318">
        <ele>533.93</ele>
        <time>2020-08-19T13:50:33.000Z</time>
      </trkpt>
      <trkpt lat="48.64651" lon="7.18313">
        <ele>535.52</ele>
        <time>2020-08-19T13:50:34.000Z</time>
      </trkpt>
      <trkpt lat="48.64647" lon="7.18308">
        <ele>535.16</ele>
        <time>2020-08-19T13:50:36.000Z</time>
      </trkpt>
      <trkpt lat="48.64641" lon="7.18303">
        <ele>535.72</ele>
        <time>2020-08-19T13:50:38.000Z</time>
      </trkpt>
      <trkpt lat="48.64637" lon="7.18298">
        <ele>537.91</ele>
        <time>2020-08-19T13:50:40.000Z</time>
      </trkpt>
      <trkpt lat="48.64632" lon="7.18293">
        <ele>540.3</ele>
        <time>2020-08-19T13:50:42.000Z</time>
      </trkpt>
      <trkpt lat="48.64627" lon="7.18288">
        <ele>539.71</ele>
        <time>2020-08-19T13:50:44.000Z</time>
      </trkpt>
      <trkpt lat="48.64622" lon="7.18283">
        <ele>540.2</ele>
        <time>2020-08-19T13:50:46.000Z</time>
      </trkpt>
      <trkpt lat="48.64606" lon="7.18269">
        <ele>537.51</ele>
        <time>2020-08-19T13:50:50.000Z</time>
      </trkpt>
      <trkpt lat="48.64595" lon="7.18265">
        <ele>534.23</ele>
        <time>2020-08-19T13:50:53.000Z</time>
      </trkpt>
      <trkpt lat="48.64591" lon="7.18263">
        <ele>531.44</ele>
        <time>2020-08-19T13:50:54.000Z</time>
      </trkpt>
      <trkpt lat="48.64585" lon="7.18253">
        <ele>532.76</ele>
        <time>2020-08-19T13:50:56.000Z</time>
      </trkpt>
      <trkpt lat="48.64581" lon="7.18246">
        <ele>533.6</ele>
        <time>2020-08-19T13:50:58.000Z</time>
      </trkpt>
      <trkpt lat="48.64576" lon="7.18245">
        <ele>535</ele>
        <time>2020-08-19T13:51:07.000Z</time>
      </trkpt>
      <trkpt lat="48.64571" lon="7.1824">
        <ele>538.2</ele>
        <time>2020-08-19T13:51:12.000Z</time>
      </trkpt>
      <trkpt lat="48.64565" lon="7.18231">
        <ele>537.13</ele>
        <time>2020-08-19T13:51:14.000Z</time>
      </trkpt>
      <trkpt lat="48.64559" lon="7.18224">
        <ele>536.94</ele>
        <time>2020-08-19T13:51:16.000Z</time>
      </trkpt>
      <trkpt lat="48.64556" lon="7.18212">
        <ele>536.83</ele>
        <time>2020-08-19T13:51:18.000Z</time>
      </trkpt>
      <trkpt lat="48.64553" lon="7.18203">
        <ele>536.6</ele>
        <time>2020-08-19T13:51:20.000Z</time>
      </trkpt>
      <trkpt lat="48.6455" lon="7.18197">
        <ele>537.14</ele>
        <time>2020-08-19T13:51:21.000Z</time>
      </trkpt>
      <trkpt lat="48.64547" lon="7.18187">
        <ele>536.03</ele>
        <time>2020-08-19T13:51:23.000Z</time>
      </trkpt>
      <trkpt lat="48.64544" lon="7.18182">
        <ele>535.87</ele>
        <time>2020-08-19T13:51:24.000Z</time>
      </trkpt>
      <trkpt lat="48.64541" lon="7.18176">
        <ele>534.7</ele>
        <time>2020-08-19T13:51:26.000Z</time>
      </trkpt>
      <trkpt lat="48.64537" lon="7.18168">
        <ele>535.32</ele>
        <time>2020-08-19T13:51:28.000Z</time>
      </trkpt>
      <trkpt lat="48.64536" lon="7.18159">
        <ele>535.72</ele>
        <time>2020-08-19T13:51:30.000Z</time>
      </trkpt>
      <trkpt lat="48.64537" lon="7.18152">
        <ele>536.32</ele>
        <time>2020-08-19T13:51:32.000Z</time>
      </trkpt>
      <trkpt lat="48.64541" lon="7.18145">
        <ele>535.82</ele>
        <time>2020-08-19T13:51:34.000Z</time>
      </trkpt>
      <trkpt lat="48.64545" lon="7.18134">
        <ele>534.55</ele>
        <time>2020-08-19T13:51:36.000Z</time>
      </trkpt>
      <trkpt lat="48.64551" lon="7.18128">
        <ele>533.65</ele>
        <time>2020-08-19T13:51:38.000Z</time>
      </trkpt>
      <trkpt lat="48.64556" lon="7.1812">
        <ele>533.41</ele>
        <time>2020-08-19T13:51:40.000Z</time>
      </trkpt>
      <trkpt lat="48.64561" lon="7.18112">
        <ele>533.67</ele>
        <time>2020-08-19T13:51:42.000Z</time>
      </trkpt>
      <trkpt lat="48.64568" lon="7.18107">
        <ele>533.64</ele>
        <time>2020-08-19T13:51:44.000Z</time>
      </trkpt>
      <trkpt lat="48.64574" lon="7.18101">
        <ele>534.04</ele>
        <time>2020-08-19T13:51:46.000Z</time>
      </trkpt>
      <trkpt lat="48.64581" lon="7.18094">
        <ele>535.54</ele>
        <time>2020-08-19T13:51:48.000Z</time>
      </trkpt>
      <trkpt lat="48.64587" lon="7.18088">
        <ele>534.39</ele>
        <time>2020-08-19T13:51:50.000Z</time>
      </trkpt>
      <trkpt lat="48.64591" lon="7.18085">
        <ele>534.8</ele>
        <time>2020-08-19T13:51:51.000Z</time>
      </trkpt>
      <trkpt lat="48.64597" lon="7.18082">
        <ele>532.38</ele>
        <time>2020-08-19T13:51:53.000Z</time>
      </trkpt>
      <trkpt lat="48.64604" lon="7.18077">
        <ele>532.16</ele>
        <time>2020-08-19T13:51:55.000Z</time>
      </trkpt>
      <trkpt lat="48.64609" lon="7.18072">
        <ele>527.6</ele>
        <time>2020-08-19T13:51:58.000Z</time>
      </trkpt>
      <trkpt lat="48.64612" lon="7.18066">
        <ele>525.84</ele>
        <time>2020-08-19T13:52:00.000Z</time>
      </trkpt>
      <trkpt lat="48.64617" lon="7.18059">
        <ele>525.54</ele>
        <time>2020-08-19T13:52:02.000Z</time>
      </trkpt>
      <trkpt lat="48.64623" lon="7.18054">
        <ele>527.95</ele>
        <time>2020-08-19T13:52:04.000Z</time>
      </trkpt>
      <trkpt lat="48.64629" lon="7.1805">
        <ele>528.21</ele>
        <time>2020-08-19T13:52:06.000Z</time>
      </trkpt>
      <trkpt lat="48.64635" lon="7.18044">
        <ele>528.77</ele>
        <time>2020-08-19T13:52:08.000Z</time>
      </trkpt>
      <trkpt lat="48.64643" lon="7.18038">
        <ele>527.8</ele>
        <time>2020-08-19T13:52:10.000Z</time>
      </trkpt>
      <trkpt lat="48.64647" lon="7.18036">
        <ele>527.49</ele>
        <time>2020-08-19T13:52:11.000Z</time>
      </trkpt>
      <trkpt lat="48.64655" lon="7.1803">
        <ele>525.27</ele>
        <time>2020-08-19T13:52:13.000Z</time>
      </trkpt>
      <trkpt lat="48.64662" lon="7.18024">
        <ele>524.72</ele>
        <time>2020-08-19T13:52:15.000Z</time>
      </trkpt>
      <trkpt lat="48.64669" lon="7.18017">
        <ele>523.86</ele>
        <time>2020-08-19T13:52:17.000Z</time>
      </trkpt>
      <trkpt lat="48.6469" lon="7.17993">
        <ele>581.66</ele>
        <time>2020-08-19T13:52:22.000Z</time>
      </trkpt>
      <trkpt lat="48.64696" lon="7.17987">
        <ele>553.19</ele>
        <time>2020-08-19T13:52:24.000Z</time>
      </trkpt>
      <trkpt lat="48.647" lon="7.17978">
        <ele>540.22</ele>
        <time>2020-08-19T13:52:26.000Z</time>
      </trkpt>
      <trkpt lat="48.64704" lon="7.17975">
        <ele>526.15</ele>
        <time>2020-08-19T13:52:42.000Z</time>
      </trkpt>
      <trkpt lat="48.64708" lon="7.17969">
        <ele>525.18</ele>
        <time>2020-08-19T13:52:44.000Z</time>
      </trkpt>
      <trkpt lat="48.6471" lon="7.17963">
        <ele>525.41</ele>
        <time>2020-08-19T13:52:46.000Z</time>
      </trkpt>
      <trkpt lat="48.64709" lon="7.17955">
        <ele>525.49</ele>
        <time>2020-08-19T13:52:48.000Z</time>
      </trkpt>
      <trkpt lat="48.64708" lon="7.17946">
        <ele>526.4</ele>
        <time>2020-08-19T13:52:50.000Z</time>
      </trkpt>
      <trkpt lat="48.64704" lon="7.17937">
        <ele>527.03</ele>
        <time>2020-08-19T13:52:52.000Z</time>
      </trkpt>
      <trkpt lat="48.64703" lon="7.17931">
        <ele>527.58</ele>
        <time>2020-08-19T13:52:54.000Z</time>
      </trkpt>
      <trkpt lat="48.64704" lon="7.17924">
        <ele>527.74</ele>
        <time>2020-08-19T13:53:00.000Z</time>
      </trkpt>
      <trkpt lat="48.64709" lon="7.17917">
        <ele>524.39</ele>
        <time>2020-08-19T13:53:03.000Z</time>
      </trkpt>
      <trkpt lat="48.64714" lon="7.17914">
        <ele>523.06</ele>
        <time>2020-08-19T13:53:05.000Z</time>
      </trkpt>
      <trkpt lat="48.64719" lon="7.1791">
        <ele>518.19</ele>
        <time>2020-08-19T13:53:17.000Z</time>
      </trkpt>
      <trkpt lat="48.6472" lon="7.17901">
        <ele>519.91</ele>
        <time>2020-08-19T13:53:19.000Z</time>
      </trkpt>
      <trkpt lat="48.64721" lon="7.17891">
        <ele>520.8</ele>
        <time>2020-08-19T13:53:21.000Z</time>
      </trkpt>
      <trkpt lat="48.64723" lon="7.17879">
        <ele>520.47</ele>
        <time>2020-08-19T13:53:23.000Z</time>
      </trkpt>
      <trkpt lat="48.64723" lon="7.1787">
        <ele>520.73</ele>
        <time>2020-08-19T13:53:25.000Z</time>
      </trkpt>
      <trkpt lat="48.64729" lon="7.17857">
        <ele>519.88</ele>
        <time>2020-08-19T13:53:28.000Z</time>
      </trkpt>
      <trkpt lat="48.6473" lon="7.1785">
        <ele>519.36</ele>
        <time>2020-08-19T13:53:29.000Z</time>
      </trkpt>
      <trkpt lat="48.64743" lon="7.17808">
        <ele>520.13</ele>
        <time>2020-08-19T13:53:37.000Z</time>
      </trkpt>
      <trkpt lat="48.64746" lon="7.17801">
        <ele>518.11</ele>
        <time>2020-08-19T13:53:39.000Z</time>
      </trkpt>
      <trkpt lat="48.64751" lon="7.17792">
        <ele>516.73</ele>
        <time>2020-08-19T13:53:41.000Z</time>
      </trkpt>
      <trkpt lat="48.64754" lon="7.17784">
        <ele>515.62</ele>
        <time>2020-08-19T13:53:43.000Z</time>
      </trkpt>
      <trkpt lat="48.64754" lon="7.17776">
        <ele>521.61</ele>
        <time>2020-08-19T13:54:12.000Z</time>
      </trkpt>
      <trkpt lat="48.64755" lon="7.17769">
        <ele>524.57</ele>
        <time>2020-08-19T13:54:41.000Z</time>
      </trkpt>
      <trkpt lat="48.64758" lon="7.17763">
        <ele>524.46</ele>
        <time>2020-08-19T13:54:50.000Z</time>
      </trkpt>
      <trkpt lat="48.64762" lon="7.17758">
        <ele>524.67</ele>
        <time>2020-08-19T13:54:52.000Z</time>
      </trkpt>
      <trkpt lat="48.64768" lon="7.17752">
        <ele>525.16</ele>
        <time>2020-08-19T13:54:54.000Z</time>
      </trkpt>
      <trkpt lat="48.64772" lon="7.17745">
        <ele>522.5</ele>
        <time>2020-08-19T13:54:56.000Z</time>
      </trkpt>
      <trkpt lat="48.64774" lon="7.17737">
        <ele>521.69</ele>
        <time>2020-08-19T13:54:58.000Z</time>
      </trkpt>
      <trkpt lat="48.64779" lon="7.17732">
        <ele>517.82</ele>
        <time>2020-08-19T13:55:00.000Z</time>
      </trkpt>
      <trkpt lat="48.64783" lon="7.17725">
        <ele>518.04</ele>
        <time>2020-08-19T13:55:02.000Z</time>
      </trkpt>
      <trkpt lat="48.64786" lon="7.1772">
        <ele>517.15</ele>
        <time>2020-08-19T13:55:05.000Z</time>
      </trkpt>
      <trkpt lat="48.64791" lon="7.17712">
        <ele>516.33</ele>
        <time>2020-08-19T13:55:19.000Z</time>
      </trkpt>
      <trkpt lat="48.64795" lon="7.17702">
        <ele>514.87</ele>
        <time>2020-08-19T13:55:21.000Z</time>
      </trkpt>
      <trkpt lat="48.64798" lon="7.17694">
        <ele>514.07</ele>
        <time>2020-08-19T13:55:23.000Z</time>
      </trkpt>
      <trkpt lat="48.64801" lon="7.17685">
        <ele>509.43</ele>
        <time>2020-08-19T13:55:25.000Z</time>
      </trkpt>
      <trkpt lat="48.64804" lon="7.17679">
        <ele>509.84</ele>
        <time>2020-08-19T13:55:27.000Z</time>
      </trkpt>
      <trkpt lat="48.64807" lon="7.17673">
        <ele>507.63</ele>
        <time>2020-08-19T13:55:30.000Z</time>
      </trkpt>
      <trkpt lat="48.6481" lon="7.17668">
        <ele>507.58</ele>
        <time>2020-08-19T13:55:33.000Z</time>
      </trkpt>
      <trkpt lat="48.64812" lon="7.1766">
        <ele>505.13</ele>
        <time>2020-08-19T13:55:35.000Z</time>
      </trkpt>
      <trkpt lat="48.64813" lon="7.1765">
        <ele>503.73</ele>
        <time>2020-08-19T13:55:37.000Z</time>
      </trkpt>
      <trkpt lat="48.64815" lon="7.1764">
        <ele>501.92</ele>
        <time>2020-08-19T13:55:39.000Z</time>
      </trkpt>
      <trkpt lat="48.64817" lon="7.17631">
        <ele>500.23</ele>
        <time>2020-08-19T13:55:41.000Z</time>
      </trkpt>
      <trkpt lat="48.64819" lon="7.17624">
        <ele>498.56</ele>
        <time>2020-08-19T13:55:43.000Z</time>
      </trkpt>
      <trkpt lat="48.64821" lon="7.17617">
        <ele>496.07</ele>
        <time>2020-08-19T13:55:45.000Z</time>
      </trkpt>
      <trkpt lat="48.64823" lon="7.17608">
        <ele>495.7</ele>
        <time>2020-08-19T13:55:47.000Z</time>
      </trkpt>
      <trkpt lat="48.64826" lon="7.176">
        <ele>494.62</ele>
        <time>2020-08-19T13:55:49.000Z</time>
      </trkpt>
      <trkpt lat="48.64831" lon="7.1759">
        <ele>493.72</ele>
        <time>2020-08-19T13:55:51.000Z</time>
      </trkpt>
      <trkpt lat="48.64833" lon="7.17579">
        <ele>494.65</ele>
        <time>2020-08-19T13:55:53.000Z</time>
      </trkpt>
      <trkpt lat="48.64833" lon="7.17571">
        <ele>494.05</ele>
        <time>2020-08-19T13:55:55.000Z</time>
      </trkpt>
      <trkpt lat="48.64836" lon="7.17564">
        <ele>492.86</ele>
        <time>2020-08-19T13:55:57.000Z</time>
      </trkpt>
      <trkpt lat="48.64839" lon="7.17555">
        <ele>493.39</ele>
        <time>2020-08-19T13:55:59.000Z</time>
      </trkpt>
      <trkpt lat="48.64842" lon="7.17546">
        <ele>491.67</ele>
        <time>2020-08-19T13:56:01.000Z</time>
      </trkpt>
      <trkpt lat="48.64846" lon="7.17535">
        <ele>488.23</ele>
        <time>2020-08-19T13:56:03.000Z</time>
      </trkpt>
      <trkpt lat="48.64849" lon="7.17526">
        <ele>486.49</ele>
        <time>2020-08-19T13:56:05.000Z</time>
      </trkpt>
      <trkpt lat="48.64851" lon="7.17514">
        <ele>485.91</ele>
        <time>2020-08-19T13:56:07.000Z</time>
      </trkpt>
      <trkpt lat="48.64852" lon="7.17503">
        <ele>482.21</ele>
        <time>2020-08-19T13:56:09.000Z</time>
      </trkpt>
      <trkpt lat="48.64854" lon="7.17494">
        <ele>482.62</ele>
        <time>2020-08-19T13:56:11.000Z</time>
      </trkpt>
      <trkpt lat="48.64856" lon="7.17487">
        <ele>481.49</ele>
        <time>2020-08-19T13:56:13.000Z</time>
      </trkpt>
      <trkpt lat="48.64857" lon="7.17479">
        <ele>481.71</ele>
        <time>2020-08-19T13:56:15.000Z</time>
      </trkpt>
      <trkpt lat="48.64856" lon="7.1747">
        <ele>484.41</ele>
        <time>2020-08-19T13:56:17.000Z</time>
      </trkpt>
      <trkpt lat="48.64856" lon="7.17461">
        <ele>482.82</ele>
        <time>2020-08-19T13:56:19.000Z</time>
      </trkpt>
      <trkpt lat="48.64862" lon="7.17431">
        <ele>484.05</ele>
        <time>2020-08-19T13:56:25.000Z</time>
      </trkpt>
      <trkpt lat="48.64864" lon="7.17424">
        <ele>483.73</ele>
        <time>2020-08-19T13:56:27.000Z</time>
      </trkpt>
      <trkpt lat="48.64864" lon="7.17416">
        <ele>483.68</ele>
        <time>2020-08-19T13:56:28.000Z</time>
      </trkpt>
      <trkpt lat="48.64867" lon="7.17404">
        <ele>482.21</ele>
        <time>2020-08-19T13:56:30.000Z</time>
      </trkpt>
      <trkpt lat="48.6487" lon="7.17388">
        <ele>482.03</ele>
        <time>2020-08-19T13:56:33.000Z</time>
      </trkpt>
      <trkpt lat="48.64871" lon="7.17381">
        <ele>484.51</ele>
        <time>2020-08-19T13:56:36.000Z</time>
      </trkpt>
      <trkpt lat="48.64869" lon="7.17358">
        <ele>484.88</ele>
        <time>2020-08-19T13:56:40.000Z</time>
      </trkpt>
      <trkpt lat="48.64869" lon="7.17346">
        <ele>483.98</ele>
        <time>2020-08-19T13:56:42.000Z</time>
      </trkpt>
      <trkpt lat="48.64873" lon="7.17338">
        <ele>482.75</ele>
        <time>2020-08-19T13:56:44.000Z</time>
      </trkpt>
      <trkpt lat="48.64873" lon="7.17331">
        <ele>485.78</ele>
        <time>2020-08-19T13:56:45.000Z</time>
      </trkpt>
      <trkpt lat="48.6487" lon="7.17291">
        <ele>482.11</ele>
        <time>2020-08-19T13:56:51.000Z</time>
      </trkpt>
      <trkpt lat="48.64867" lon="7.17276">
        <ele>480.44</ele>
        <time>2020-08-19T13:56:53.000Z</time>
      </trkpt>
      <trkpt lat="48.64867" lon="7.17267">
        <ele>479.37</ele>
        <time>2020-08-19T13:56:54.000Z</time>
      </trkpt>
      <trkpt lat="48.64866" lon="7.1726">
        <ele>478.13</ele>
        <time>2020-08-19T13:56:55.000Z</time>
      </trkpt>
      <trkpt lat="48.64867" lon="7.1724">
        <ele>474.71</ele>
        <time>2020-08-19T13:56:58.000Z</time>
      </trkpt>
      <trkpt lat="48.64868" lon="7.17227">
        <ele>474.17</ele>
        <time>2020-08-19T13:57:00.000Z</time>
      </trkpt>
      <trkpt lat="48.64867" lon="7.1722">
        <ele>473.22</ele>
        <time>2020-08-19T13:57:02.000Z</time>
      </trkpt>
      <trkpt lat="48.64867" lon="7.17211">
        <ele>473.29</ele>
        <time>2020-08-19T13:57:04.000Z</time>
      </trkpt>
      <trkpt lat="48.64866" lon="7.17201">
        <ele>471.44</ele>
        <time>2020-08-19T13:57:06.000Z</time>
      </trkpt>
      <trkpt lat="48.64868" lon="7.1719">
        <ele>469.01</ele>
        <time>2020-08-19T13:57:08.000Z</time>
      </trkpt>
      <trkpt lat="48.64868" lon="7.1718">
        <ele>464.74</ele>
        <time>2020-08-19T13:57:10.000Z</time>
      </trkpt>
      <trkpt lat="48.6487" lon="7.1717">
        <ele>462.59</ele>
        <time>2020-08-19T13:57:12.000Z</time>
      </trkpt>
      <trkpt lat="48.6487" lon="7.17161">
        <ele>461.17</ele>
        <time>2020-08-19T13:57:15.000Z</time>
      </trkpt>
      <trkpt lat="48.64871" lon="7.1715">
        <ele>458.25</ele>
        <time>2020-08-19T13:57:17.000Z</time>
      </trkpt>
      <trkpt lat="48.64873" lon="7.17139">
        <ele>456.7</ele>
        <time>2020-08-19T13:57:19.000Z</time>
      </trkpt>
      <trkpt lat="48.64872" lon="7.17126">
        <ele>457.25</ele>
        <time>2020-08-19T13:57:21.000Z</time>
      </trkpt>
      <trkpt lat="48.64872" lon="7.17119">
        <ele>457.12</ele>
        <time>2020-08-19T13:57:22.000Z</time>
      </trkpt>
      <trkpt lat="48.64871" lon="7.17112">
        <ele>456.01</ele>
        <time>2020-08-19T13:57:23.000Z</time>
      </trkpt>
      <trkpt lat="48.6487" lon="7.17103">
        <ele>455.1</ele>
        <time>2020-08-19T13:57:25.000Z</time>
      </trkpt>
      <trkpt lat="48.6487" lon="7.17093">
        <ele>451.77</ele>
        <time>2020-08-19T13:57:27.000Z</time>
      </trkpt>
      <trkpt lat="48.64868" lon="7.17061">
        <ele>456.54</ele>
        <time>2020-08-19T13:57:31.000Z</time>
      </trkpt>
      <trkpt lat="48.64868" lon="7.17053">
        <ele>454.89</ele>
        <time>2020-08-19T13:57:32.000Z</time>
      </trkpt>
      <trkpt lat="48.6487" lon="7.17043">
        <ele>453.66</ele>
        <time>2020-08-19T13:57:34.000Z</time>
      </trkpt>
      <trkpt lat="48.64873" lon="7.17036">
        <ele>450.69</ele>
        <time>2020-08-19T13:57:51.000Z</time>
      </trkpt>
      <trkpt lat="48.64872" lon="7.17028">
        <ele>449.7</ele>
        <time>2020-08-19T13:57:53.000Z</time>
      </trkpt>
      <trkpt lat="48.64871" lon="7.1702">
        <ele>449.35</ele>
        <time>2020-08-19T13:57:55.000Z</time>
      </trkpt>
      <trkpt lat="48.6487" lon="7.17013">
        <ele>446.43</ele>
        <time>2020-08-19T13:57:57.000Z</time>
      </trkpt>
      <trkpt lat="48.6487" lon="7.17004">
        <ele>447.56</ele>
        <time>2020-08-19T13:58:00.000Z</time>
      </trkpt>
      <trkpt lat="48.64872" lon="7.16996">
        <ele>448.71</ele>
        <time>2020-08-19T13:58:02.000Z</time>
      </trkpt>
      <trkpt lat="48.64871" lon="7.16985">
        <ele>449.23</ele>
        <time>2020-08-19T13:58:04.000Z</time>
      </trkpt>
      <trkpt lat="48.64869" lon="7.16976">
        <ele>449.19</ele>
        <time>2020-08-19T13:58:06.000Z</time>
      </trkpt>
      <trkpt lat="48.64867" lon="7.16965">
        <ele>449.56</ele>
        <time>2020-08-19T13:58:08.000Z</time>
      </trkpt>
      <trkpt lat="48.64866" lon="7.16953">
        <ele>447.62</ele>
        <time>2020-08-19T13:58:10.000Z</time>
      </trkpt>
      <trkpt lat="48.64864" lon="7.16941">
        <ele>445.51</ele>
        <time>2020-08-19T13:58:12.000Z</time>
      </trkpt>
      <trkpt lat="48.64864" lon="7.1693">
        <ele>445.99</ele>
        <time>2020-08-19T13:58:14.000Z</time>
      </trkpt>
      <trkpt lat="48.64864" lon="7.16922">
        <ele>445.74</ele>
        <time>2020-08-19T13:58:16.000Z</time>
      </trkpt>
      <trkpt lat="48.64863" lon="7.1691">
        <ele>445.65</ele>
        <time>2020-08-19T13:58:18.000Z</time>
      </trkpt>
      <trkpt lat="48.64861" lon="7.16898">
        <ele>445.18</ele>
        <time>2020-08-19T13:58:20.000Z</time>
      </trkpt>
      <trkpt lat="48.6486" lon="7.16891">
        <ele>445.86</ele>
        <time>2020-08-19T13:58:21.000Z</time>
      </trkpt>
      <trkpt lat="48.64858" lon="7.16881">
        <ele>444.9</ele>
        <time>2020-08-19T13:58:23.000Z</time>
      </trkpt>
      <trkpt lat="48.64855" lon="7.16873">
        <ele>443.83</ele>
        <time>2020-08-19T13:58:25.000Z</time>
      </trkpt>
      <trkpt lat="48.64853" lon="7.16862">
        <ele>444.36</ele>
        <time>2020-08-19T13:58:27.000Z</time>
      </trkpt>
      <trkpt lat="48.6485" lon="7.16856">
        <ele>440.58</ele>
        <time>2020-08-19T13:58:34.000Z</time>
      </trkpt>
      <trkpt lat="48.6485" lon="7.16848">
        <ele>438.65</ele>
        <time>2020-08-19T13:58:41.000Z</time>
      </trkpt>
      <trkpt lat="48.64848" lon="7.1684">
        <ele>434.32</ele>
        <time>2020-08-19T13:58:45.000Z</time>
      </trkpt>
      <trkpt lat="48.6483" lon="7.1672">
        <ele>423.1</ele>
        <time>2020-08-19T13:58:59.000Z</time>
      </trkpt>
      <trkpt lat="48.64827" lon="7.16713">
        <ele>422.29</ele>
        <time>2020-08-19T13:59:01.000Z</time>
      </trkpt>
      <trkpt lat="48.64826" lon="7.16704">
        <ele>420.57</ele>
        <time>2020-08-19T13:59:03.000Z</time>
      </trkpt>
      <trkpt lat="48.64826" lon="7.16712">
        <ele>416.23</ele>
        <time>2020-08-19T13:59:29.000Z</time>
      </trkpt>
      <trkpt lat="48.64825" lon="7.16719">
        <ele>415.88</ele>
        <time>2020-08-19T13:59:32.000Z</time>
      </trkpt>
      <trkpt lat="48.64824" lon="7.16727">
        <ele>414.88</ele>
        <time>2020-08-19T13:59:35.000Z</time>
      </trkpt>
      <trkpt lat="48.64825" lon="7.16736">
        <ele>416.73</ele>
        <time>2020-08-19T13:59:38.000Z</time>
      </trkpt>
      <trkpt lat="48.64826" lon="7.16744">
        <ele>417.89</ele>
        <time>2020-08-19T13:59:40.000Z</time>
      </trkpt>
      <trkpt lat="48.64826" lon="7.16753">
        <ele>417.91</ele>
        <time>2020-08-19T13:59:42.000Z</time>
      </trkpt>
      <trkpt lat="48.64827" lon="7.16762">
        <ele>425.12</ele>
        <time>2020-08-19T14:00:02.000Z</time>
      </trkpt>
      <trkpt lat="48.64828" lon="7.1677">
        <ele>418.97</ele>
        <time>2020-08-19T14:00:04.000Z</time>
      </trkpt>
      <trkpt lat="48.64829" lon="7.16781">
        <ele>415.94</ele>
        <time>2020-08-19T14:00:06.000Z</time>
      </trkpt>
      <trkpt lat="48.64829" lon="7.16791">
        <ele>415.44</ele>
        <time>2020-08-19T14:00:08.000Z</time>
      </trkpt>
      <trkpt lat="48.6483" lon="7.16802">
        <ele>416.09</ele>
        <time>2020-08-19T14:00:10.000Z</time>
      </trkpt>
      <trkpt lat="48.64832" lon="7.16812">
        <ele>416.31</ele>
        <time>2020-08-19T14:00:12.000Z</time>
      </trkpt>
      <trkpt lat="48.64833" lon="7.1682">
        <ele>416.91</ele>
        <time>2020-08-19T14:00:14.000Z</time>
      </trkpt>
      <trkpt lat="48.64835" lon="7.16831">
        <ele>416.03</ele>
        <time>2020-08-19T14:00:16.000Z</time>
      </trkpt>
      <trkpt lat="48.64836" lon="7.16841">
        <ele>414.69</ele>
        <time>2020-08-19T14:00:18.000Z</time>
      </trkpt>
      <trkpt lat="48.64836" lon="7.1685">
        <ele>415.16</ele>
        <time>2020-08-19T14:00:20.000Z</time>
      </trkpt>
      <trkpt lat="48.64838" lon="7.1686">
        <ele>415.89</ele>
        <time>2020-08-19T14:00:22.000Z</time>
      </trkpt>
      <trkpt lat="48.64839" lon="7.1687">
        <ele>417.04</ele>
        <time>2020-08-19T14:00:25.000Z</time>
      </trkpt>
      <trkpt lat="48.64839" lon="7.1688">
        <ele>418.2</ele>
        <time>2020-08-19T14:00:27.000Z</time>
      </trkpt>
      <trkpt lat="48.64838" lon="7.16891">
        <ele>418.32</ele>
        <time>2020-08-19T14:00:29.000Z</time>
      </trkpt>
      <trkpt lat="48.64834" lon="7.16902">
        <ele>418.51</ele>
        <time>2020-08-19T14:00:31.000Z</time>
      </trkpt>
      <trkpt lat="48.64829" lon="7.16908">
        <ele>418.67</ele>
        <time>2020-08-19T14:00:33.000Z</time>
      </trkpt>
      <trkpt lat="48.64822" lon="7.16916">
        <ele>418.65</ele>
        <time>2020-08-19T14:00:35.000Z</time>
      </trkpt>
      <trkpt lat="48.64816" lon="7.1692">
        <ele>417.81</ele>
        <time>2020-08-19T14:00:37.000Z</time>
      </trkpt>
      <trkpt lat="48.6481" lon="7.16919">
        <ele>418.12</ele>
        <time>2020-08-19T14:00:39.000Z</time>
      </trkpt>
      <trkpt lat="48.64805" lon="7.16915">
        <ele>420</ele>
        <time>2020-08-19T14:00:41.000Z</time>
      </trkpt>
      <trkpt lat="48.64801" lon="7.16908">
        <ele>419.68</ele>
        <time>2020-08-19T14:00:43.000Z</time>
      </trkpt>
      <trkpt lat="48.64798" lon="7.16894">
        <ele>418.93</ele>
        <time>2020-08-19T14:00:45.000Z</time>
      </trkpt>
      <trkpt lat="48.64797" lon="7.16884">
        <ele>418.5</ele>
        <time>2020-08-19T14:00:47.000Z</time>
      </trkpt>
      <trkpt lat="48.64797" lon="7.16877">
        <ele>417.34</ele>
        <time>2020-08-19T14:00:49.000Z</time>
      </trkpt>
      <trkpt lat="48.64795" lon="7.16871">
        <ele>418.51</ele>
        <time>2020-08-19T14:00:50.000Z</time>
      </trkpt>
      <trkpt lat="48.64795" lon="7.1686">
        <ele>417.66</ele>
        <time>2020-08-19T14:00:52.000Z</time>
      </trkpt>
      <trkpt lat="48.64792" lon="7.16848">
        <ele>417.65</ele>
        <time>2020-08-19T14:00:54.000Z</time>
      </trkpt>
      <trkpt lat="48.64789" lon="7.16837">
        <ele>417.27</ele>
        <time>2020-08-19T14:00:56.000Z</time>
      </trkpt>
      <trkpt lat="48.64787" lon="7.16826">
        <ele>415.75</ele>
        <time>2020-08-19T14:00:58.000Z</time>
      </trkpt>
      <trkpt lat="48.64784" lon="7.16815">
        <ele>416.42</ele>
        <time>2020-08-19T14:01:00.000Z</time>
      </trkpt>
      <trkpt lat="48.64781" lon="7.1681">
        <ele>415.99</ele>
        <time>2020-08-19T14:01:01.000Z</time>
      </trkpt>
      <trkpt lat="48.64777" lon="7.16799">
        <ele>416.71</ele>
        <time>2020-08-19T14:01:03.000Z</time>
      </trkpt>
      <trkpt lat="48.64772" lon="7.16788">
        <ele>416.28</ele>
        <time>2020-08-19T14:01:05.000Z</time>
      </trkpt>
      <trkpt lat="48.64769" lon="7.16782">
        <ele>416.68</ele>
        <time>2020-08-19T14:01:06.000Z</time>
      </trkpt>
      <trkpt lat="48.64762" lon="7.16773">
        <ele>416.76</ele>
        <time>2020-08-19T14:01:08.000Z</time>
      </trkpt>
      <trkpt lat="48.64759" lon="7.16768">
        <ele>417.3</ele>
        <time>2020-08-19T14:01:09.000Z</time>
      </trkpt>
      <trkpt lat="48.64754" lon="7.16759">
        <ele>416.82</ele>
        <time>2020-08-19T14:01:11.000Z</time>
      </trkpt>
      <trkpt lat="48.64748" lon="7.16747">
        <ele>417.8</ele>
        <time>2020-08-19T14:01:13.000Z</time>
      </trkpt>
      <trkpt lat="48.6474" lon="7.16743">
        <ele>416.35</ele>
        <time>2020-08-19T14:01:15.000Z</time>
      </trkpt>
      <trkpt lat="48.64733" lon="7.16733">
        <ele>416.15</ele>
        <time>2020-08-19T14:01:17.000Z</time>
      </trkpt>
      <trkpt lat="48.64728" lon="7.16731">
        <ele>416.74</ele>
        <time>2020-08-19T14:01:18.000Z</time>
      </trkpt>
      <trkpt lat="48.64722" lon="7.16729">
        <ele>416.72</ele>
        <time>2020-08-19T14:01:19.000Z</time>
      </trkpt>
      <trkpt lat="48.64715" lon="7.16727">
        <ele>415.13</ele>
        <time>2020-08-19T14:01:21.000Z</time>
      </trkpt>
      <trkpt lat="48.6471" lon="7.16725">
        <ele>413.99</ele>
        <time>2020-08-19T14:01:22.000Z</time>
      </trkpt>
      <trkpt lat="48.64705" lon="7.16727">
        <ele>414.28</ele>
        <time>2020-08-19T14:01:23.000Z</time>
      </trkpt>
      <trkpt lat="48.647" lon="7.16729">
        <ele>415.02</ele>
        <time>2020-08-19T14:01:24.000Z</time>
      </trkpt>
      <trkpt lat="48.64695" lon="7.16734">
        <ele>415.21</ele>
        <time>2020-08-19T14:01:25.000Z</time>
      </trkpt>
      <trkpt lat="48.64688" lon="7.16736">
        <ele>410.08</ele>
        <time>2020-08-19T14:01:27.000Z</time>
      </trkpt>
      <trkpt lat="48.64681" lon="7.16738">
        <ele>412.85</ele>
        <time>2020-08-19T14:01:29.000Z</time>
      </trkpt>
      <trkpt lat="48.64674" lon="7.16743">
        <ele>411.37</ele>
        <time>2020-08-19T14:01:31.000Z</time>
      </trkpt>
      <trkpt lat="48.64666" lon="7.16746">
        <ele>410.58</ele>
        <time>2020-08-19T14:01:33.000Z</time>
      </trkpt>
      <trkpt lat="48.64659" lon="7.16754">
        <ele>408.73</ele>
        <time>2020-08-19T14:01:35.000Z</time>
      </trkpt>
      <trkpt lat="48.64655" lon="7.1676">
        <ele>409.67</ele>
        <time>2020-08-19T14:01:36.000Z</time>
      </trkpt>
      <trkpt lat="48.6465" lon="7.16761">
        <ele>410.23</ele>
        <time>2020-08-19T14:01:37.000Z</time>
      </trkpt>
      <trkpt lat="48.64647" lon="7.16765">
        <ele>411.13</ele>
        <time>2020-08-19T14:01:38.000Z</time>
      </trkpt>
      <trkpt lat="48.64644" lon="7.16771">
        <ele>411.8</ele>
        <time>2020-08-19T14:01:39.000Z</time>
      </trkpt>
      <trkpt lat="48.64637" lon="7.16778">
        <ele>411.09</ele>
        <time>2020-08-19T14:01:41.000Z</time>
      </trkpt>
      <trkpt lat="48.64632" lon="7.16782">
        <ele>411.17</ele>
        <time>2020-08-19T14:01:42.000Z</time>
      </trkpt>
      <trkpt lat="48.64623" lon="7.16788">
        <ele>412</ele>
        <time>2020-08-19T14:01:44.000Z</time>
      </trkpt>
      <trkpt lat="48.64619" lon="7.16792">
        <ele>412.23</ele>
        <time>2020-08-19T14:01:45.000Z</time>
      </trkpt>
      <trkpt lat="48.64614" lon="7.16795">
        <ele>412.83</ele>
        <time>2020-08-19T14:01:46.000Z</time>
      </trkpt>
      <trkpt lat="48.64609" lon="7.16798">
        <ele>414.13</ele>
        <time>2020-08-19T14:01:47.000Z</time>
      </trkpt>
      <trkpt lat="48.64602" lon="7.16806">
        <ele>413.73</ele>
        <time>2020-08-19T14:01:49.000Z</time>
      </trkpt>
      <trkpt lat="48.64598" lon="7.16811">
        <ele>414.64</ele>
        <time>2020-08-19T14:01:50.000Z</time>
      </trkpt>
      <trkpt lat="48.64595" lon="7.16816">
        <ele>414.87</ele>
        <time>2020-08-19T14:01:51.000Z</time>
      </trkpt>
      <trkpt lat="48.64591" lon="7.16819">
        <ele>415.86</ele>
        <time>2020-08-19T14:01:52.000Z</time>
      </trkpt>
      <trkpt lat="48.64583" lon="7.16828">
        <ele>417.66</ele>
        <time>2020-08-19T14:01:54.000Z</time>
      </trkpt>
      <trkpt lat="48.64578" lon="7.16835">
        <ele>418.14</ele>
        <time>2020-08-19T14:01:56.000Z</time>
      </trkpt>
      <trkpt lat="48.64573" lon="7.16839">
        <ele>418.02</ele>
        <time>2020-08-19T14:01:57.000Z</time>
      </trkpt>
      <trkpt lat="48.64565" lon="7.16847">
        <ele>419.73</ele>
        <time>2020-08-19T14:01:59.000Z</time>
      </trkpt>
      <trkpt lat="48.64559" lon="7.16857">
        <ele>418</ele>
        <time>2020-08-19T14:02:01.000Z</time>
      </trkpt>
      <trkpt lat="48.64555" lon="7.16859">
        <ele>418.63</ele>
        <time>2020-08-19T14:02:02.000Z</time>
      </trkpt>
      <trkpt lat="48.64548" lon="7.16867">
        <ele>416.56</ele>
        <time>2020-08-19T14:02:04.000Z</time>
      </trkpt>
      <trkpt lat="48.64542" lon="7.16873">
        <ele>417.98</ele>
        <time>2020-08-19T14:02:06.000Z</time>
      </trkpt>
      <trkpt lat="48.64538" lon="7.16878">
        <ele>417.73</ele>
        <time>2020-08-19T14:02:07.000Z</time>
      </trkpt>
      <trkpt lat="48.64532" lon="7.16885">
        <ele>417.91</ele>
        <time>2020-08-19T14:02:09.000Z</time>
      </trkpt>
      <trkpt lat="48.64525" lon="7.16891">
        <ele>419.39</ele>
        <time>2020-08-19T14:02:11.000Z</time>
      </trkpt>
      <trkpt lat="48.64519" lon="7.16898">
        <ele>420.57</ele>
        <time>2020-08-19T14:02:13.000Z</time>
      </trkpt>
      <trkpt lat="48.64515" lon="7.16902">
        <ele>420.06</ele>
        <time>2020-08-19T14:02:14.000Z</time>
      </trkpt>
      <trkpt lat="48.64509" lon="7.1691">
        <ele>419.45</ele>
        <time>2020-08-19T14:02:16.000Z</time>
      </trkpt>
      <trkpt lat="48.64503" lon="7.16916">
        <ele>419.19</ele>
        <time>2020-08-19T14:02:18.000Z</time>
      </trkpt>
      <trkpt lat="48.645" lon="7.16921">
        <ele>419.44</ele>
        <time>2020-08-19T14:02:19.000Z</time>
      </trkpt>
      <trkpt lat="48.64496" lon="7.16929">
        <ele>420.01</ele>
        <time>2020-08-19T14:02:21.000Z</time>
      </trkpt>
      <trkpt lat="48.64487" lon="7.16934">
        <ele>421.03</ele>
        <time>2020-08-19T14:02:23.000Z</time>
      </trkpt>
      <trkpt lat="48.64482" lon="7.16943">
        <ele>421.65</ele>
        <time>2020-08-19T14:02:25.000Z</time>
      </trkpt>
      <trkpt lat="48.64476" lon="7.1695">
        <ele>422.5</ele>
        <time>2020-08-19T14:02:27.000Z</time>
      </trkpt>
      <trkpt lat="48.64472" lon="7.16959">
        <ele>422.74</ele>
        <time>2020-08-19T14:02:29.000Z</time>
      </trkpt>
      <trkpt lat="48.64468" lon="7.16964">
        <ele>456.41</ele>
        <time>2020-08-19T14:02:31.000Z</time>
      </trkpt>
      <trkpt lat="48.64463" lon="7.1697">
        <ele>436.67</ele>
        <time>2020-08-19T14:02:33.000Z</time>
      </trkpt>
      <trkpt lat="48.64453" lon="7.16981">
        <ele>428.3</ele>
        <time>2020-08-19T14:02:36.000Z</time>
      </trkpt>
      <trkpt lat="48.64449" lon="7.16988">
        <ele>425.29</ele>
        <time>2020-08-19T14:02:38.000Z</time>
      </trkpt>
      <trkpt lat="48.64442" lon="7.16994">
        <ele>426.99</ele>
        <time>2020-08-19T14:02:40.000Z</time>
      </trkpt>
      <trkpt lat="48.64433" lon="7.17002">
        <ele>426.12</ele>
        <time>2020-08-19T14:02:43.000Z</time>
      </trkpt>
      <trkpt lat="48.64428" lon="7.17011">
        <ele>426.16</ele>
        <time>2020-08-19T14:02:45.000Z</time>
      </trkpt>
      <trkpt lat="48.64417" lon="7.17022">
        <ele>428.23</ele>
        <time>2020-08-19T14:02:48.000Z</time>
      </trkpt>
      <trkpt lat="48.64413" lon="7.17027">
        <ele>427.98</ele>
        <time>2020-08-19T14:02:50.000Z</time>
      </trkpt>
      <trkpt lat="48.64409" lon="7.17033">
        <ele>425.24</ele>
        <time>2020-08-19T14:02:52.000Z</time>
      </trkpt>
      <trkpt lat="48.64403" lon="7.17039">
        <ele>424.51</ele>
        <time>2020-08-19T14:02:54.000Z</time>
      </trkpt>
      <trkpt lat="48.64398" lon="7.17047">
        <ele>426.98</ele>
        <time>2020-08-19T14:02:56.000Z</time>
      </trkpt>
      <trkpt lat="48.64393" lon="7.17053">
        <ele>426.93</ele>
        <time>2020-08-19T14:02:58.000Z</time>
      </trkpt>
      <trkpt lat="48.64388" lon="7.1706">
        <ele>428.17</ele>
        <time>2020-08-19T14:03:00.000Z</time>
      </trkpt>
      <trkpt lat="48.64383" lon="7.17067">
        <ele>427.65</ele>
        <time>2020-08-19T14:03:02.000Z</time>
      </trkpt>
      <trkpt lat="48.64378" lon="7.17073">
        <ele>426.93</ele>
        <time>2020-08-19T14:03:04.000Z</time>
      </trkpt>
      <trkpt lat="48.64373" lon="7.17079">
        <ele>426.27</ele>
        <time>2020-08-19T14:03:06.000Z</time>
      </trkpt>
      <trkpt lat="48.64368" lon="7.17086">
        <ele>425.79</ele>
        <time>2020-08-19T14:03:08.000Z</time>
      </trkpt>
      <trkpt lat="48.64364" lon="7.17091">
        <ele>426.28</ele>
        <time>2020-08-19T14:03:10.000Z</time>
      </trkpt>
      <trkpt lat="48.64359" lon="7.17095">
        <ele>427.75</ele>
        <time>2020-08-19T14:03:12.000Z</time>
      </trkpt>
      <trkpt lat="48.64354" lon="7.17103">
        <ele>428.19</ele>
        <time>2020-08-19T14:03:14.000Z</time>
      </trkpt>
      <trkpt lat="48.6435" lon="7.1711">
        <ele>428.63</ele>
        <time>2020-08-19T14:03:16.000Z</time>
      </trkpt>
      <trkpt lat="48.64345" lon="7.17118">
        <ele>428.83</ele>
        <time>2020-08-19T14:03:18.000Z</time>
      </trkpt>
      <trkpt lat="48.64341" lon="7.17126">
        <ele>427.77</ele>
        <time>2020-08-19T14:03:20.000Z</time>
      </trkpt>
      <trkpt lat="48.64337" lon="7.17134">
        <ele>427.72</ele>
        <time>2020-08-19T14:03:22.000Z</time>
      </trkpt>
      <trkpt lat="48.64333" lon="7.17141">
        <ele>427.78</ele>
        <time>2020-08-19T14:03:24.000Z</time>
      </trkpt>
      <trkpt lat="48.64328" lon="7.1715">
        <ele>427.27</ele>
        <time>2020-08-19T14:03:26.000Z</time>
      </trkpt>
      <trkpt lat="48.64324" lon="7.17158">
        <ele>427.92</ele>
        <time>2020-08-19T14:03:28.000Z</time>
      </trkpt>
      <trkpt lat="48.64319" lon="7.17166">
        <ele>427.6</ele>
        <time>2020-08-19T14:03:30.000Z</time>
      </trkpt>
      <trkpt lat="48.64314" lon="7.17174">
        <ele>428.65</ele>
        <time>2020-08-19T14:03:32.000Z</time>
      </trkpt>
      <trkpt lat="48.6431" lon="7.17181">
        <ele>431.79</ele>
        <time>2020-08-19T14:03:34.000Z</time>
      </trkpt>
      <trkpt lat="48.64305" lon="7.17187">
        <ele>433.65</ele>
        <time>2020-08-19T14:03:36.000Z</time>
      </trkpt>
      <trkpt lat="48.64299" lon="7.17191">
        <ele>433.71</ele>
        <time>2020-08-19T14:03:38.000Z</time>
      </trkpt>
      <trkpt lat="48.64296" lon="7.17195">
        <ele>435.73</ele>
        <time>2020-08-19T14:03:40.000Z</time>
      </trkpt>
      <trkpt lat="48.64293" lon="7.17202">
        <ele>436.72</ele>
        <time>2020-08-19T14:03:42.000Z</time>
      </trkpt>
      <trkpt lat="48.64289" lon="7.17212">
        <ele>438.81</ele>
        <time>2020-08-19T14:03:44.000Z</time>
      </trkpt>
      <trkpt lat="48.64285" lon="7.1722">
        <ele>437.73</ele>
        <time>2020-08-19T14:03:46.000Z</time>
      </trkpt>
      <trkpt lat="48.64284" lon="7.17213">
        <ele>426.82</ele>
        <time>2020-08-19T14:04:06.000Z</time>
      </trkpt>
      <trkpt lat="48.64285" lon="7.17206">
        <ele>426.39</ele>
        <time>2020-08-19T14:04:21.000Z</time>
      </trkpt>
      <trkpt lat="48.64289" lon="7.17198">
        <ele>422.27</ele>
        <time>2020-08-19T14:04:25.000Z</time>
      </trkpt>
      <trkpt lat="48.64295" lon="7.17192">
        <ele>423.3</ele>
        <time>2020-08-19T14:04:27.000Z</time>
      </trkpt>
      <trkpt lat="48.64285" lon="7.1717">
        <ele>424.94</ele>
        <time>2020-08-19T14:04:33.000Z</time>
      </trkpt>
      <trkpt lat="48.64281" lon="7.1716">
        <ele>424.27</ele>
        <time>2020-08-19T14:04:35.000Z</time>
      </trkpt>
      <trkpt lat="48.64277" lon="7.17151">
        <ele>425.82</ele>
        <time>2020-08-19T14:04:37.000Z</time>
      </trkpt>
      <trkpt lat="48.64279" lon="7.17144">
        <ele>432.29</ele>
        <time>2020-08-19T14:04:46.000Z</time>
      </trkpt>
      <trkpt lat="48.64282" lon="7.17138">
        <ele>432.1</ele>
        <time>2020-08-19T14:04:48.000Z</time>
      </trkpt>
      <trkpt lat="48.64285" lon="7.17132">
        <ele>430.56</ele>
        <time>2020-08-19T14:04:50.000Z</time>
      </trkpt>
      <trkpt lat="48.64287" lon="7.17125">
        <ele>429.35</ele>
        <time>2020-08-19T14:04:52.000Z</time>
      </trkpt>
      <trkpt lat="48.6429" lon="7.17117">
        <ele>428.23</ele>
        <time>2020-08-19T14:04:54.000Z</time>
      </trkpt>
      <trkpt lat="48.64294" lon="7.17112">
        <ele>428.04</ele>
        <time>2020-08-19T14:04:56.000Z</time>
      </trkpt>
      <trkpt lat="48.64299" lon="7.17108">
        <ele>427.46</ele>
        <time>2020-08-19T14:04:58.000Z</time>
      </trkpt>
      <trkpt lat="48.64304" lon="7.17105">
        <ele>425.87</ele>
        <time>2020-08-19T14:05:00.000Z</time>
      </trkpt>
      <trkpt lat="48.64307" lon="7.17098">
        <ele>423.2</ele>
        <time>2020-08-19T14:05:07.000Z</time>
      </trkpt>
      <trkpt lat="48.64312" lon="7.17092">
        <ele>423.26</ele>
        <time>2020-08-19T14:05:09.000Z</time>
      </trkpt>
      <trkpt lat="48.64316" lon="7.17088">
        <ele>420.88</ele>
        <time>2020-08-19T14:05:11.000Z</time>
      </trkpt>
      <trkpt lat="48.6432" lon="7.17082">
        <ele>421.05</ele>
        <time>2020-08-19T14:05:13.000Z</time>
      </trkpt>
      <trkpt lat="48.64324" lon="7.17073">
        <ele>422.53</ele>
        <time>2020-08-19T14:05:15.000Z</time>
      </trkpt>
      <trkpt lat="48.64328" lon="7.17066">
        <ele>423.74</ele>
        <time>2020-08-19T14:05:17.000Z</time>
      </trkpt>
      <trkpt lat="48.64333" lon="7.17059">
        <ele>422.59</ele>
        <time>2020-08-19T14:05:19.000Z</time>
      </trkpt>
      <trkpt lat="48.64337" lon="7.17053">
        <ele>422.58</ele>
        <time>2020-08-19T14:05:21.000Z</time>
      </trkpt>
      <trkpt lat="48.64341" lon="7.17048">
        <ele>423.28</ele>
        <time>2020-08-19T14:05:23.000Z</time>
      </trkpt>
      <trkpt lat="48.64345" lon="7.17043">
        <ele>422.19</ele>
        <time>2020-08-19T14:05:25.000Z</time>
      </trkpt>
      <trkpt lat="48.6435" lon="7.17037">
        <ele>423.44</ele>
        <time>2020-08-19T14:05:27.000Z</time>
      </trkpt>
      <trkpt lat="48.64353" lon="7.1703">
        <ele>422.87</ele>
        <time>2020-08-19T14:05:29.000Z</time>
      </trkpt>
      <trkpt lat="48.64356" lon="7.17021">
        <ele>422.52</ele>
        <time>2020-08-19T14:05:31.000Z</time>
      </trkpt>
      <trkpt lat="48.6436" lon="7.17014">
        <ele>421.63</ele>
        <time>2020-08-19T14:05:33.000Z</time>
      </trkpt>
      <trkpt lat="48.64364" lon="7.17008">
        <ele>421.85</ele>
        <time>2020-08-19T14:05:35.000Z</time>
      </trkpt>
      <trkpt lat="48.64367" lon="7.16998">
        <ele>419.48</ele>
        <time>2020-08-19T14:05:38.000Z</time>
      </trkpt>
      <trkpt lat="48.64369" lon="7.1699">
        <ele>418.56</ele>
        <time>2020-08-19T14:05:40.000Z</time>
      </trkpt>
      <trkpt lat="48.64373" lon="7.16981">
        <ele>416.84</ele>
        <time>2020-08-19T14:05:42.000Z</time>
      </trkpt>
      <trkpt lat="48.64376" lon="7.16975">
        <ele>417.7</ele>
        <time>2020-08-19T14:05:44.000Z</time>
      </trkpt>
      <trkpt lat="48.64379" lon="7.16969">
        <ele>419.37</ele>
        <time>2020-08-19T14:05:46.000Z</time>
      </trkpt>
      <trkpt lat="48.64383" lon="7.16962">
        <ele>420.94</ele>
        <time>2020-08-19T14:05:48.000Z</time>
      </trkpt>
      <trkpt lat="48.64386" lon="7.16954">
        <ele>420.21</ele>
        <time>2020-08-19T14:05:50.000Z</time>
      </trkpt>
      <trkpt lat="48.64389" lon="7.16945">
        <ele>419.74</ele>
        <time>2020-08-19T14:05:52.000Z</time>
      </trkpt>
      <trkpt lat="48.64394" lon="7.16941">
        <ele>416.67</ele>
        <time>2020-08-19T14:06:01.000Z</time>
      </trkpt>
      <trkpt lat="48.64409" lon="7.16919">
        <ele>418.95</ele>
        <time>2020-08-19T14:06:06.000Z</time>
      </trkpt>
      <trkpt lat="48.64414" lon="7.16911">
        <ele>420.51</ele>
        <time>2020-08-19T14:06:08.000Z</time>
      </trkpt>
      <trkpt lat="48.64418" lon="7.16902">
        <ele>419.7</ele>
        <time>2020-08-19T14:06:10.000Z</time>
      </trkpt>
      <trkpt lat="48.64418" lon="7.16894">
        <ele>418.46</ele>
        <time>2020-08-19T14:06:12.000Z</time>
      </trkpt>
      <trkpt lat="48.64426" lon="7.1688">
        <ele>419.12</ele>
        <time>2020-08-19T14:06:15.000Z</time>
      </trkpt>
      <trkpt lat="48.64451" lon="7.16825">
        <ele>425.07</ele>
        <time>2020-08-19T14:06:24.000Z</time>
      </trkpt>
      <trkpt lat="48.64457" lon="7.16813">
        <ele>424.12</ele>
        <time>2020-08-19T14:06:26.000Z</time>
      </trkpt>
      <trkpt lat="48.64463" lon="7.16804">
        <ele>423.23</ele>
        <time>2020-08-19T14:06:28.000Z</time>
      </trkpt>
      <trkpt lat="48.64468" lon="7.16801">
        <ele>420.84</ele>
        <time>2020-08-19T14:06:29.000Z</time>
      </trkpt>
      <trkpt lat="48.64475" lon="7.16792">
        <ele>419.16</ele>
        <time>2020-08-19T14:06:31.000Z</time>
      </trkpt>
      <trkpt lat="48.64478" lon="7.16787">
        <ele>418.89</ele>
        <time>2020-08-19T14:06:32.000Z</time>
      </trkpt>
      <trkpt lat="48.64481" lon="7.16781">
        <ele>418.29</ele>
        <time>2020-08-19T14:06:33.000Z</time>
      </trkpt>
      <trkpt lat="48.64484" lon="7.16775">
        <ele>417.8</ele>
        <time>2020-08-19T14:06:34.000Z</time>
      </trkpt>
      <trkpt lat="48.6449" lon="7.16765">
        <ele>415.63</ele>
        <time>2020-08-19T14:06:36.000Z</time>
      </trkpt>
      <trkpt lat="48.64493" lon="7.16758">
        <ele>416.62</ele>
        <time>2020-08-19T14:06:37.000Z</time>
      </trkpt>
      <trkpt lat="48.64496" lon="7.16753">
        <ele>416.28</ele>
        <time>2020-08-19T14:06:38.000Z</time>
      </trkpt>
      <trkpt lat="48.64502" lon="7.16741">
        <ele>415.9</ele>
        <time>2020-08-19T14:06:41.000Z</time>
      </trkpt>
      <trkpt lat="48.64508" lon="7.16732">
        <ele>419.63</ele>
        <time>2020-08-19T14:06:43.000Z</time>
      </trkpt>
      <trkpt lat="48.64513" lon="7.16728">
        <ele>418.5</ele>
        <time>2020-08-19T14:06:45.000Z</time>
      </trkpt>
      <trkpt lat="48.6452" lon="7.16721">
        <ele>416.22</ele>
        <time>2020-08-19T14:06:47.000Z</time>
      </trkpt>
      <trkpt lat="48.64529" lon="7.16712">
        <ele>416.93</ele>
        <time>2020-08-19T14:06:49.000Z</time>
      </trkpt>
      <trkpt lat="48.64532" lon="7.16707">
        <ele>418.53</ele>
        <time>2020-08-19T14:06:50.000Z</time>
      </trkpt>
      <trkpt lat="48.64535" lon="7.16703">
        <ele>418.61</ele>
        <time>2020-08-19T14:06:51.000Z</time>
      </trkpt>
      <trkpt lat="48.64538" lon="7.16696">
        <ele>416.62</ele>
        <time>2020-08-19T14:06:52.000Z</time>
      </trkpt>
      <trkpt lat="48.64545" lon="7.16689">
        <ele>414.78</ele>
        <time>2020-08-19T14:06:54.000Z</time>
      </trkpt>
      <trkpt lat="48.6455" lon="7.16684">
        <ele>412.34</ele>
        <time>2020-08-19T14:06:56.000Z</time>
      </trkpt>
      <trkpt lat="48.64558" lon="7.16669">
        <ele>412.63</ele>
        <time>2020-08-19T14:06:58.000Z</time>
      </trkpt>
      <trkpt lat="48.64563" lon="7.16653">
        <ele>412.98</ele>
        <time>2020-08-19T14:07:00.000Z</time>
      </trkpt>
      <trkpt lat="48.64568" lon="7.16651">
        <ele>411.97</ele>
        <time>2020-08-19T14:07:01.000Z</time>
      </trkpt>
      <trkpt lat="48.64574" lon="7.16648">
        <ele>413.04</ele>
        <time>2020-08-19T14:07:03.000Z</time>
      </trkpt>
      <trkpt lat="48.64581" lon="7.16641">
        <ele>412.36</ele>
        <time>2020-08-19T14:07:05.000Z</time>
      </trkpt>
      <trkpt lat="48.64587" lon="7.16636">
        <ele>410.61</ele>
        <time>2020-08-19T14:07:07.000Z</time>
      </trkpt>
      <trkpt lat="48.64595" lon="7.1663">
        <ele>408.35</ele>
        <time>2020-08-19T14:07:10.000Z</time>
      </trkpt>
      <trkpt lat="48.64601" lon="7.16625">
        <ele>408.71</ele>
        <time>2020-08-19T14:07:12.000Z</time>
      </trkpt>
      <trkpt lat="48.64605" lon="7.1662">
        <ele>409.08</ele>
        <time>2020-08-19T14:07:14.000Z</time>
      </trkpt>
      <trkpt lat="48.64608" lon="7.16615">
        <ele>411.85</ele>
        <time>2020-08-19T14:07:16.000Z</time>
      </trkpt>
      <trkpt lat="48.64613" lon="7.16612">
        <ele>409.58</ele>
        <time>2020-08-19T14:07:37.000Z</time>
      </trkpt>
      <trkpt lat="48.64616" lon="7.16605">
        <ele>410.14</ele>
        <time>2020-08-19T14:07:39.000Z</time>
      </trkpt>
      <trkpt lat="48.64621" lon="7.16596">
        <ele>409.89</ele>
        <time>2020-08-19T14:07:41.000Z</time>
      </trkpt>
      <trkpt lat="48.64626" lon="7.16589">
        <ele>410.76</ele>
        <time>2020-08-19T14:07:43.000Z</time>
      </trkpt>
      <trkpt lat="48.64629" lon="7.16582">
        <ele>410.6</ele>
        <time>2020-08-19T14:07:45.000Z</time>
      </trkpt>
      <trkpt lat="48.64632" lon="7.16574">
        <ele>409.96</ele>
        <time>2020-08-19T14:07:48.000Z</time>
      </trkpt>
      <trkpt lat="48.64636" lon="7.16568">
        <ele>410.08</ele>
        <time>2020-08-19T14:07:50.000Z</time>
      </trkpt>
      <trkpt lat="48.64642" lon="7.16563">
        <ele>409.36</ele>
        <time>2020-08-19T14:07:52.000Z</time>
      </trkpt>
      <trkpt lat="48.64646" lon="7.16557">
        <ele>409.88</ele>
        <time>2020-08-19T14:07:54.000Z</time>
      </trkpt>
      <trkpt lat="48.6465" lon="7.16548">
        <ele>410.6</ele>
        <time>2020-08-19T14:07:56.000Z</time>
      </trkpt>
      <trkpt lat="48.64653" lon="7.16541">
        <ele>412.35</ele>
        <time>2020-08-19T14:07:58.000Z</time>
      </trkpt>
      <trkpt lat="48.6466" lon="7.16528">
        <ele>415.59</ele>
        <time>2020-08-19T14:08:07.000Z</time>
      </trkpt>
      <trkpt lat="48.64669" lon="7.16518">
        <ele>416.79</ele>
        <time>2020-08-19T14:08:10.000Z</time>
      </trkpt>
      <trkpt lat="48.64689" lon="7.16478">
        <ele>415.03</ele>
        <time>2020-08-19T14:08:17.000Z</time>
      </trkpt>
      <trkpt lat="48.64696" lon="7.16462">
        <ele>415.81</ele>
        <time>2020-08-19T14:08:19.000Z</time>
      </trkpt>
      <trkpt lat="48.647" lon="7.16455">
        <ele>414.98</ele>
        <time>2020-08-19T14:08:20.000Z</time>
      </trkpt>
      <trkpt lat="48.64704" lon="7.16447">
        <ele>415.25</ele>
        <time>2020-08-19T14:08:21.000Z</time>
      </trkpt>
      <trkpt lat="48.64708" lon="7.1644">
        <ele>455.18</ele>
        <time>2020-08-19T14:08:22.000Z</time>
      </trkpt>
      <trkpt lat="48.64709" lon="7.16432">
        <ele>442.11</ele>
        <time>2020-08-19T14:08:23.000Z</time>
      </trkpt>
      <trkpt lat="48.64717" lon="7.16415">
        <ele>428.01</ele>
        <time>2020-08-19T14:08:25.000Z</time>
      </trkpt>
      <trkpt lat="48.6472" lon="7.16407">
        <ele>420.18</ele>
        <time>2020-08-19T14:08:26.000Z</time>
      </trkpt>
      <trkpt lat="48.64724" lon="7.16398">
        <ele>416.32</ele>
        <time>2020-08-19T14:08:27.000Z</time>
      </trkpt>
      <trkpt lat="48.64729" lon="7.1639">
        <ele>413.75</ele>
        <time>2020-08-19T14:08:28.000Z</time>
      </trkpt>
      <trkpt lat="48.64732" lon="7.16385">
        <ele>412.2</ele>
        <time>2020-08-19T14:08:29.000Z</time>
      </trkpt>
      <trkpt lat="48.64735" lon="7.1638">
        <ele>411.29</ele>
        <time>2020-08-19T14:08:30.000Z</time>
      </trkpt>
      <trkpt lat="48.64743" lon="7.16371">
        <ele>409.04</ele>
        <time>2020-08-19T14:08:32.000Z</time>
      </trkpt>
      <trkpt lat="48.64746" lon="7.16366">
        <ele>408.67</ele>
        <time>2020-08-19T14:08:33.000Z</time>
      </trkpt>
      <trkpt lat="48.64747" lon="7.16359">
        <ele>407.1</ele>
        <time>2020-08-19T14:08:47.000Z</time>
      </trkpt>
      <trkpt lat="48.64744" lon="7.16353">
        <ele>404.63</ele>
        <time>2020-08-19T14:08:59.000Z</time>
      </trkpt>
      <trkpt lat="48.64743" lon="7.16347">
        <ele>401.12</ele>
        <time>2020-08-19T14:09:04.000Z</time>
      </trkpt>
      <trkpt lat="48.64745" lon="7.1634">
        <ele>402.59</ele>
        <time>2020-08-19T14:09:08.000Z</time>
      </trkpt>
      <trkpt lat="48.64746" lon="7.16333">
        <ele>403.78</ele>
        <time>2020-08-19T14:09:13.000Z</time>
      </trkpt>
      <trkpt lat="48.64747" lon="7.16326">
        <ele>403.75</ele>
        <time>2020-08-19T14:09:17.000Z</time>
      </trkpt>
      <trkpt lat="48.64748" lon="7.1632">
        <ele>404.61</ele>
        <time>2020-08-19T14:09:22.000Z</time>
      </trkpt>
      <trkpt lat="48.6475" lon="7.16312">
        <ele>403.95</ele>
        <time>2020-08-19T14:09:26.000Z</time>
      </trkpt>
      <trkpt lat="48.64748" lon="7.16305">
        <ele>401.71</ele>
        <time>2020-08-19T14:09:30.000Z</time>
      </trkpt>
      <trkpt lat="48.64749" lon="7.16298">
        <ele>401.08</ele>
        <time>2020-08-19T14:09:34.000Z</time>
      </trkpt>
      <trkpt lat="48.64747" lon="7.16292">
        <ele>400.7</ele>
        <time>2020-08-19T14:09:42.000Z</time>
      </trkpt>
      <trkpt lat="48.64742" lon="7.1627">
        <ele>404.31</ele>
        <time>2020-08-19T14:09:57.000Z</time>
      </trkpt>
      <trkpt lat="48.64738" lon="7.16266">
        <ele>411.22</ele>
        <time>2020-08-19T14:10:12.000Z</time>
      </trkpt>
      <trkpt lat="48.64737" lon="7.16258">
        <ele>410.95</ele>
        <time>2020-08-19T14:10:19.000Z</time>
      </trkpt>
      <trkpt lat="48.64736" lon="7.16244">
        <ele>407.23</ele>
        <time>2020-08-19T14:10:28.000Z</time>
      </trkpt>
      <trkpt lat="48.64731" lon="7.16241">
        <ele>404.93</ele>
        <time>2020-08-19T14:10:36.000Z</time>
      </trkpt>
      <trkpt lat="48.64728" lon="7.16236">
        <ele>410.47</ele>
        <time>2020-08-19T14:10:42.000Z</time>
      </trkpt>
      <trkpt lat="48.64723" lon="7.1623">
        <ele>410.7</ele>
        <time>2020-08-19T14:10:50.000Z</time>
      </trkpt>
      <trkpt lat="48.64721" lon="7.16224">
        <ele>410.28</ele>
        <time>2020-08-19T14:10:55.000Z</time>
      </trkpt>
      <trkpt lat="48.6471" lon="7.1622">
        <ele>420.35</ele>
        <time>2020-08-19T14:11:03.000Z</time>
      </trkpt>
      <trkpt lat="48.64706" lon="7.16216">
        <ele>422.31</ele>
        <time>2020-08-19T14:11:11.000Z</time>
      </trkpt>
      <trkpt lat="48.64701" lon="7.16212">
        <ele>421.95</ele>
        <time>2020-08-19T14:11:16.000Z</time>
      </trkpt>
      <trkpt lat="48.64697" lon="7.1621">
        <ele>419.57</ele>
        <time>2020-08-19T14:11:24.000Z</time>
      </trkpt>
      <trkpt lat="48.64691" lon="7.16207">
        <ele>421.19</ele>
        <time>2020-08-19T14:11:30.000Z</time>
      </trkpt>
      <trkpt lat="48.6468" lon="7.16148">
        <ele>420.39</ele>
        <time>2020-08-19T14:12:01.000Z</time>
      </trkpt>
      <trkpt lat="48.64679" lon="7.16139">
        <ele>419.46</ele>
        <time>2020-08-19T14:12:03.000Z</time>
      </trkpt>
      <trkpt lat="48.64677" lon="7.16128">
        <ele>421.12</ele>
        <time>2020-08-19T14:12:05.000Z</time>
      </trkpt>
      <trkpt lat="48.64675" lon="7.16121">
        <ele>418.89</ele>
        <time>2020-08-19T14:12:07.000Z</time>
      </trkpt>
      <trkpt lat="48.64672" lon="7.16113">
        <ele>416.43</ele>
        <time>2020-08-19T14:12:09.000Z</time>
      </trkpt>
      <trkpt lat="48.64668" lon="7.16106">
        <ele>416.11</ele>
        <time>2020-08-19T14:12:11.000Z</time>
      </trkpt>
      <trkpt lat="48.64668" lon="7.16098">
        <ele>413.25</ele>
        <time>2020-08-19T14:12:13.000Z</time>
      </trkpt>
      <trkpt lat="48.64664" lon="7.1609">
        <ele>412.52</ele>
        <time>2020-08-19T14:12:15.000Z</time>
      </trkpt>
      <trkpt lat="48.64659" lon="7.16084">
        <ele>411.91</ele>
        <time>2020-08-19T14:12:17.000Z</time>
      </trkpt>
      <trkpt lat="48.64654" lon="7.16078">
        <ele>408.7</ele>
        <time>2020-08-19T14:12:19.000Z</time>
      </trkpt>
      <trkpt lat="48.64651" lon="7.16072">
        <ele>409.16</ele>
        <time>2020-08-19T14:12:21.000Z</time>
      </trkpt>
      <trkpt lat="48.64647" lon="7.16062">
        <ele>409.29</ele>
        <time>2020-08-19T14:12:23.000Z</time>
      </trkpt>
      <trkpt lat="48.64645" lon="7.16053">
        <ele>407.65</ele>
        <time>2020-08-19T14:12:25.000Z</time>
      </trkpt>
      <trkpt lat="48.6464" lon="7.16047">
        <ele>408.84</ele>
        <time>2020-08-19T14:12:27.000Z</time>
      </trkpt>
      <trkpt lat="48.64635" lon="7.16041">
        <ele>409.38</ele>
        <time>2020-08-19T14:12:29.000Z</time>
      </trkpt>
      <trkpt lat="48.64609" lon="7.16009">
        <ele>414.83</ele>
        <time>2020-08-19T14:12:36.000Z</time>
      </trkpt>
      <trkpt lat="48.64606" lon="7.16001">
        <ele>416.71</ele>
        <time>2020-08-19T14:12:38.000Z</time>
      </trkpt>
      <trkpt lat="48.64572" lon="7.15963">
        <ele>421.53</ele>
        <time>2020-08-19T14:12:49.000Z</time>
      </trkpt>
      <trkpt lat="48.64569" lon="7.15954">
        <ele>422.51</ele>
        <time>2020-08-19T14:12:51.000Z</time>
      </trkpt>
      <trkpt lat="48.64564" lon="7.15949">
        <ele>422.65</ele>
        <time>2020-08-19T14:12:53.000Z</time>
      </trkpt>
      <trkpt lat="48.64557" lon="7.15942">
        <ele>420.46</ele>
        <time>2020-08-19T14:12:55.000Z</time>
      </trkpt>
      <trkpt lat="48.64551" lon="7.15934">
        <ele>416.14</ele>
        <time>2020-08-19T14:12:57.000Z</time>
      </trkpt>
      <trkpt lat="48.64546" lon="7.15931">
        <ele>415.01</ele>
        <time>2020-08-19T14:12:58.000Z</time>
      </trkpt>
      <trkpt lat="48.6454" lon="7.1593">
        <ele>415.79</ele>
        <time>2020-08-19T14:12:59.000Z</time>
      </trkpt>
      <trkpt lat="48.64535" lon="7.15928">
        <ele>416.21</ele>
        <time>2020-08-19T14:13:00.000Z</time>
      </trkpt>
      <trkpt lat="48.64534" lon="7.1592">
        <ele>415.08</ele>
        <time>2020-08-19T14:13:01.000Z</time>
      </trkpt>
      <trkpt lat="48.64528" lon="7.15915">
        <ele>409.31</ele>
        <time>2020-08-19T14:13:03.000Z</time>
      </trkpt>
      <trkpt lat="48.64517" lon="7.15903">
        <ele>410.13</ele>
        <time>2020-08-19T14:13:05.000Z</time>
      </trkpt>
      <trkpt lat="48.64511" lon="7.15899">
        <ele>409.83</ele>
        <time>2020-08-19T14:13:06.000Z</time>
      </trkpt>
      <trkpt lat="48.64505" lon="7.159">
        <ele>409.29</ele>
        <time>2020-08-19T14:13:07.000Z</time>
      </trkpt>
      <trkpt lat="48.645" lon="7.15895">
        <ele>411.37</ele>
        <time>2020-08-19T14:13:08.000Z</time>
      </trkpt>
      <trkpt lat="48.64496" lon="7.15892">
        <ele>411.88</ele>
        <time>2020-08-19T14:13:09.000Z</time>
      </trkpt>
      <trkpt lat="48.64491" lon="7.15889">
        <ele>411.6</ele>
        <time>2020-08-19T14:13:11.000Z</time>
      </trkpt>
      <trkpt lat="48.64484" lon="7.15887">
        <ele>411.44</ele>
        <time>2020-08-19T14:13:14.000Z</time>
      </trkpt>
      <trkpt lat="48.6448" lon="7.15889">
        <ele>410.02</ele>
        <time>2020-08-19T14:13:17.000Z</time>
      </trkpt>
      <trkpt lat="48.64475" lon="7.15889">
        <ele>408.77</ele>
        <time>2020-08-19T14:13:19.000Z</time>
      </trkpt>
      <trkpt lat="48.64472" lon="7.15883">
        <ele>412.54</ele>
        <time>2020-08-19T14:13:24.000Z</time>
      </trkpt>
      <trkpt lat="48.64466" lon="7.15879">
        <ele>410.81</ele>
        <time>2020-08-19T14:13:31.000Z</time>
      </trkpt>
      <trkpt lat="48.64459" lon="7.15878">
        <ele>409.09</ele>
        <time>2020-08-19T14:13:33.000Z</time>
      </trkpt>
      <trkpt lat="48.6445" lon="7.15877">
        <ele>409.27</ele>
        <time>2020-08-19T14:13:35.000Z</time>
      </trkpt>
      <trkpt lat="48.64441" lon="7.15878">
        <ele>407.36</ele>
        <time>2020-08-19T14:13:37.000Z</time>
      </trkpt>
      <trkpt lat="48.64436" lon="7.15878">
        <ele>407.36</ele>
        <time>2020-08-19T14:13:38.000Z</time>
      </trkpt>
      <trkpt lat="48.64432" lon="7.15878">
        <ele>406.71</ele>
        <time>2020-08-19T14:13:39.000Z</time>
      </trkpt>
      <trkpt lat="48.64423" lon="7.15876">
        <ele>405.82</ele>
        <time>2020-08-19T14:13:41.000Z</time>
      </trkpt>
      <trkpt lat="48.64414" lon="7.15877">
        <ele>405.42</ele>
        <time>2020-08-19T14:13:43.000Z</time>
      </trkpt>
      <trkpt lat="48.64406" lon="7.15875">
        <ele>410.82</ele>
        <time>2020-08-19T14:13:45.000Z</time>
      </trkpt>
      <trkpt lat="48.64399" lon="7.15878">
        <ele>411.84</ele>
        <time>2020-08-19T14:13:47.000Z</time>
      </trkpt>
      <trkpt lat="48.64391" lon="7.15881">
        <ele>413.29</ele>
        <time>2020-08-19T14:13:49.000Z</time>
      </trkpt>
      <trkpt lat="48.64382" lon="7.1588">
        <ele>410.78</ele>
        <time>2020-08-19T14:13:51.000Z</time>
      </trkpt>
      <trkpt lat="48.64377" lon="7.15878">
        <ele>411.85</ele>
        <time>2020-08-19T14:13:54.000Z</time>
      </trkpt>
      <trkpt lat="48.64373" lon="7.15879">
        <ele>409.13</ele>
        <time>2020-08-19T14:14:06.000Z</time>
      </trkpt>
      <trkpt lat="48.64367" lon="7.15878">
        <ele>408.75</ele>
        <time>2020-08-19T14:14:08.000Z</time>
      </trkpt>
      <trkpt lat="48.64362" lon="7.15876">
        <ele>408.91</ele>
        <time>2020-08-19T14:14:10.000Z</time>
      </trkpt>
      <trkpt lat="48.64357" lon="7.15876">
        <ele>409.95</ele>
        <time>2020-08-19T14:14:12.000Z</time>
      </trkpt>
      <trkpt lat="48.64352" lon="7.15878">
        <ele>409.39</ele>
        <time>2020-08-19T14:14:14.000Z</time>
      </trkpt>
      <trkpt lat="48.64346" lon="7.15881">
        <ele>408.27</ele>
        <time>2020-08-19T14:14:17.000Z</time>
      </trkpt>
      <trkpt lat="48.64339" lon="7.15881">
        <ele>409.52</ele>
        <time>2020-08-19T14:14:19.000Z</time>
      </trkpt>
      <trkpt lat="48.64331" lon="7.15881">
        <ele>409.98</ele>
        <time>2020-08-19T14:14:21.000Z</time>
      </trkpt>
      <trkpt lat="48.64323" lon="7.15881">
        <ele>411.04</ele>
        <time>2020-08-19T14:14:24.000Z</time>
      </trkpt>
      <trkpt lat="48.64315" lon="7.15881">
        <ele>409.14</ele>
        <time>2020-08-19T14:14:26.000Z</time>
      </trkpt>
      <trkpt lat="48.64311" lon="7.15881">
        <ele>410.03</ele>
        <time>2020-08-19T14:14:27.000Z</time>
      </trkpt>
      <trkpt lat="48.64288" lon="7.15886">
        <ele>409.42</ele>
        <time>2020-08-19T14:14:31.000Z</time>
      </trkpt>
      <trkpt lat="48.64282" lon="7.15894">
        <ele>409.37</ele>
        <time>2020-08-19T14:14:33.000Z</time>
      </trkpt>
      <trkpt lat="48.64276" lon="7.15899">
        <ele>407.57</ele>
        <time>2020-08-19T14:14:35.000Z</time>
      </trkpt>
      <trkpt lat="48.64272" lon="7.15901">
        <ele>408.53</ele>
        <time>2020-08-19T14:14:36.000Z</time>
      </trkpt>
      <trkpt lat="48.64267" lon="7.15904">
        <ele>407.68</ele>
        <time>2020-08-19T14:14:37.000Z</time>
      </trkpt>
      <trkpt lat="48.6426" lon="7.15907">
        <ele>407.96</ele>
        <time>2020-08-19T14:14:39.000Z</time>
      </trkpt>
      <trkpt lat="48.64254" lon="7.15908">
        <ele>408.4</ele>
        <time>2020-08-19T14:14:41.000Z</time>
      </trkpt>
      <trkpt lat="48.64247" lon="7.15909">
        <ele>406.86</ele>
        <time>2020-08-19T14:14:43.000Z</time>
      </trkpt>
      <trkpt lat="48.64236" lon="7.15919">
        <ele>407.2</ele>
        <time>2020-08-19T14:14:46.000Z</time>
      </trkpt>
      <trkpt lat="48.64224" lon="7.15932">
        <ele>403.49</ele>
        <time>2020-08-19T14:14:49.000Z</time>
      </trkpt>
      <trkpt lat="48.64213" lon="7.1594">
        <ele>403.37</ele>
        <time>2020-08-19T14:14:51.000Z</time>
      </trkpt>
      <trkpt lat="48.64208" lon="7.15945">
        <ele>402.6</ele>
        <time>2020-08-19T14:14:52.000Z</time>
      </trkpt>
      <trkpt lat="48.64204" lon="7.15952">
        <ele>401.88</ele>
        <time>2020-08-19T14:14:53.000Z</time>
      </trkpt>
      <trkpt lat="48.642" lon="7.15954">
        <ele>401.19</ele>
        <time>2020-08-19T14:14:54.000Z</time>
      </trkpt>
      <trkpt lat="48.64195" lon="7.15959">
        <ele>401.89</ele>
        <time>2020-08-19T14:14:55.000Z</time>
      </trkpt>
      <trkpt lat="48.64193" lon="7.15968">
        <ele>401.28</ele>
        <time>2020-08-19T14:14:56.000Z</time>
      </trkpt>
      <trkpt lat="48.64189" lon="7.15974">
        <ele>400.48</ele>
        <time>2020-08-19T14:14:57.000Z</time>
      </trkpt>
      <trkpt lat="48.64186" lon="7.15981">
        <ele>401.73</ele>
        <time>2020-08-19T14:14:58.000Z</time>
      </trkpt>
      <trkpt lat="48.64183" lon="7.15985">
        <ele>403.96</ele>
        <time>2020-08-19T14:14:59.000Z</time>
      </trkpt>
      <trkpt lat="48.64178" lon="7.15995">
        <ele>405.64</ele>
        <time>2020-08-19T14:15:01.000Z</time>
      </trkpt>
      <trkpt lat="48.64174" lon="7.16004">
        <ele>408.8</ele>
        <time>2020-08-19T14:15:03.000Z</time>
      </trkpt>
      <trkpt lat="48.64169" lon="7.16013">
        <ele>410.52</ele>
        <time>2020-08-19T14:15:06.000Z</time>
      </trkpt>
      <trkpt lat="48.64166" lon="7.16022">
        <ele>410.23</ele>
        <time>2020-08-19T14:15:09.000Z</time>
      </trkpt>
      <trkpt lat="48.64166" lon="7.16029">
        <ele>409.45</ele>
        <time>2020-08-19T14:15:11.000Z</time>
      </trkpt>
      <trkpt lat="48.64166" lon="7.16038">
        <ele>411.23</ele>
        <time>2020-08-19T14:15:13.000Z</time>
      </trkpt>
      <trkpt lat="48.64165" lon="7.16045">
        <ele>409.92</ele>
        <time>2020-08-19T14:15:16.000Z</time>
      </trkpt>
      <trkpt lat="48.64166" lon="7.16053">
        <ele>406.66</ele>
        <time>2020-08-19T14:15:35.000Z</time>
      </trkpt>
      <trkpt lat="48.64164" lon="7.16061">
        <ele>407.41</ele>
        <time>2020-08-19T14:15:38.000Z</time>
      </trkpt>
      <trkpt lat="48.64164" lon="7.16069">
        <ele>407.84</ele>
        <time>2020-08-19T14:15:40.000Z</time>
      </trkpt>
      <trkpt lat="48.64164" lon="7.16076">
        <ele>409.49</ele>
        <time>2020-08-19T14:15:42.000Z</time>
      </trkpt>
      <trkpt lat="48.64164" lon="7.16085">
        <ele>407.21</ele>
        <time>2020-08-19T14:15:45.000Z</time>
      </trkpt>
      <trkpt lat="48.64164" lon="7.16093">
        <ele>408.63</ele>
        <time>2020-08-19T14:16:05.000Z</time>
      </trkpt>
      <trkpt lat="48.6416" lon="7.16084">
        <ele>414.83</ele>
        <time>2020-08-19T14:16:29.000Z</time>
      </trkpt>
      <trkpt lat="48.6416" lon="7.16077">
        <ele>414.68</ele>
        <time>2020-08-19T14:16:31.000Z</time>
      </trkpt>
      <trkpt lat="48.64161" lon="7.16069">
        <ele>412.8</ele>
        <time>2020-08-19T14:16:33.000Z</time>
      </trkpt>
      <trkpt lat="48.64162" lon="7.16061">
        <ele>412.59</ele>
        <time>2020-08-19T14:16:35.000Z</time>
      </trkpt>
      <trkpt lat="48.64165" lon="7.16053">
        <ele>410.87</ele>
        <time>2020-08-19T14:16:38.000Z</time>
      </trkpt>
      <trkpt lat="48.64182" lon="7.15992">
        <ele>406.48</ele>
        <time>2020-08-19T14:16:51.000Z</time>
      </trkpt>
      <trkpt lat="48.64185" lon="7.15985">
        <ele>405.51</ele>
        <time>2020-08-19T14:16:53.000Z</time>
      </trkpt>
      <trkpt lat="48.64185" lon="7.15976">
        <ele>405.2</ele>
        <time>2020-08-19T14:16:56.000Z</time>
      </trkpt>
      <trkpt lat="48.6418" lon="7.15982">
        <ele>405.58</ele>
        <time>2020-08-19T14:16:59.000Z</time>
      </trkpt>
      <trkpt lat="48.64177" lon="7.15988">
        <ele>406.08</ele>
        <time>2020-08-19T14:17:03.000Z</time>
      </trkpt>
      <trkpt lat="48.64172" lon="7.15989">
        <ele>406.31</ele>
        <time>2020-08-19T14:17:11.000Z</time>
      </trkpt>
      <trkpt lat="48.64167" lon="7.15993">
        <ele>406.39</ele>
        <time>2020-08-19T14:17:19.000Z</time>
      </trkpt>
      <trkpt lat="48.64163" lon="7.15999">
        <ele>405.55</ele>
        <time>2020-08-19T14:17:21.000Z</time>
      </trkpt>
      <trkpt lat="48.64159" lon="7.16006">
        <ele>404.84</ele>
        <time>2020-08-19T14:17:34.000Z</time>
      </trkpt>
      <trkpt lat="48.64155" lon="7.16011">
        <ele>404.01</ele>
        <time>2020-08-19T14:17:36.000Z</time>
      </trkpt>
      <trkpt lat="48.64153" lon="7.16017">
        <ele>403.08</ele>
        <time>2020-08-19T14:17:38.000Z</time>
      </trkpt>
      <trkpt lat="48.6415" lon="7.16024">
        <ele>403.49</ele>
        <time>2020-08-19T14:17:40.000Z</time>
      </trkpt>
      <trkpt lat="48.64147" lon="7.16031">
        <ele>401.24</ele>
        <time>2020-08-19T14:17:42.000Z</time>
      </trkpt>
      <trkpt lat="48.64143" lon="7.16037">
        <ele>400.92</ele>
        <time>2020-08-19T14:17:44.000Z</time>
      </trkpt>
      <trkpt lat="48.64139" lon="7.16042">
        <ele>399.96</ele>
        <time>2020-08-19T14:17:46.000Z</time>
      </trkpt>
      <trkpt lat="48.64134" lon="7.16047">
        <ele>400.89</ele>
        <time>2020-08-19T14:17:48.000Z</time>
      </trkpt>
      <trkpt lat="48.64129" lon="7.16052">
        <ele>400.34</ele>
        <time>2020-08-19T14:17:50.000Z</time>
      </trkpt>
      <trkpt lat="48.64123" lon="7.1606">
        <ele>399.32</ele>
        <time>2020-08-19T14:17:52.000Z</time>
      </trkpt>
      <trkpt lat="48.64117" lon="7.16068">
        <ele>399.64</ele>
        <time>2020-08-19T14:17:54.000Z</time>
      </trkpt>
      <trkpt lat="48.64112" lon="7.16071">
        <ele>400.66</ele>
        <time>2020-08-19T14:17:55.000Z</time>
      </trkpt>
      <trkpt lat="48.64105" lon="7.16078">
        <ele>398.54</ele>
        <time>2020-08-19T14:17:57.000Z</time>
      </trkpt>
      <trkpt lat="48.64101" lon="7.16082">
        <ele>397.91</ele>
        <time>2020-08-19T14:17:58.000Z</time>
      </trkpt>
      <trkpt lat="48.64092" lon="7.16088">
        <ele>398.17</ele>
        <time>2020-08-19T14:18:00.000Z</time>
      </trkpt>
      <trkpt lat="48.64087" lon="7.1609">
        <ele>396.32</ele>
        <time>2020-08-19T14:18:01.000Z</time>
      </trkpt>
      <trkpt lat="48.6408" lon="7.16092">
        <ele>396.82</ele>
        <time>2020-08-19T14:18:03.000Z</time>
      </trkpt>
      <trkpt lat="48.64072" lon="7.16094">
        <ele>397.66</ele>
        <time>2020-08-19T14:18:05.000Z</time>
      </trkpt>
      <trkpt lat="48.64068" lon="7.16094">
        <ele>397.17</ele>
        <time>2020-08-19T14:18:06.000Z</time>
      </trkpt>
      <trkpt lat="48.6406" lon="7.16096">
        <ele>397.86</ele>
        <time>2020-08-19T14:18:08.000Z</time>
      </trkpt>
      <trkpt lat="48.64053" lon="7.16096">
        <ele>397.78</ele>
        <time>2020-08-19T14:18:10.000Z</time>
      </trkpt>
      <trkpt lat="48.64046" lon="7.16096">
        <ele>398.8</ele>
        <time>2020-08-19T14:18:12.000Z</time>
      </trkpt>
      <trkpt lat="48.64039" lon="7.16096">
        <ele>399.11</ele>
        <time>2020-08-19T14:18:14.000Z</time>
      </trkpt>
      <trkpt lat="48.64033" lon="7.16095">
        <ele>399.54</ele>
        <time>2020-08-19T14:18:16.000Z</time>
      </trkpt>
      <trkpt lat="48.64026" lon="7.16094">
        <ele>400.12</ele>
        <time>2020-08-19T14:18:18.000Z</time>
      </trkpt>
      <trkpt lat="48.6402" lon="7.16093">
        <ele>400.79</ele>
        <time>2020-08-19T14:18:20.000Z</time>
      </trkpt>
      <trkpt lat="48.64013" lon="7.16094">
        <ele>401.68</ele>
        <time>2020-08-19T14:18:22.000Z</time>
      </trkpt>
      <trkpt lat="48.64006" lon="7.16093">
        <ele>401.85</ele>
        <time>2020-08-19T14:18:24.000Z</time>
      </trkpt>
      <trkpt lat="48.64" lon="7.16093">
        <ele>400.97</ele>
        <time>2020-08-19T14:18:26.000Z</time>
      </trkpt>
      <trkpt lat="48.63994" lon="7.16092">
        <ele>401.54</ele>
        <time>2020-08-19T14:18:28.000Z</time>
      </trkpt>
      <trkpt lat="48.63988" lon="7.16092">
        <ele>401.95</ele>
        <time>2020-08-19T14:18:30.000Z</time>
      </trkpt>
      <trkpt lat="48.63981" lon="7.16091">
        <ele>402.45</ele>
        <time>2020-08-19T14:18:32.000Z</time>
      </trkpt>
      <trkpt lat="48.63975" lon="7.16092">
        <ele>403.5</ele>
        <time>2020-08-19T14:18:34.000Z</time>
      </trkpt>
      <trkpt lat="48.63969" lon="7.16092">
        <ele>404.47</ele>
        <time>2020-08-19T14:18:36.000Z</time>
      </trkpt>
      <trkpt lat="48.63962" lon="7.16092">
        <ele>404.86</ele>
        <time>2020-08-19T14:18:38.000Z</time>
      </trkpt>
      <trkpt lat="48.63956" lon="7.16092">
        <ele>404.24</ele>
        <time>2020-08-19T14:18:40.000Z</time>
      </trkpt>
      <trkpt lat="48.63949" lon="7.16092">
        <ele>403.68</ele>
        <time>2020-08-19T14:18:42.000Z</time>
      </trkpt>
      <trkpt lat="48.63942" lon="7.16091">
        <ele>403.97</ele>
        <time>2020-08-19T14:18:44.000Z</time>
      </trkpt>
      <trkpt lat="48.63935" lon="7.16089">
        <ele>403.8</ele>
        <time>2020-08-19T14:18:46.000Z</time>
      </trkpt>
      <trkpt lat="48.6393" lon="7.16089">
        <ele>404.07</ele>
        <time>2020-08-19T14:18:48.000Z</time>
      </trkpt>
      <trkpt lat="48.63923" lon="7.16089">
        <ele>403.91</ele>
        <time>2020-08-19T14:18:50.000Z</time>
      </trkpt>
      <trkpt lat="48.63917" lon="7.1609">
        <ele>404.47</ele>
        <time>2020-08-19T14:18:53.000Z</time>
      </trkpt>
      <trkpt lat="48.63912" lon="7.16088">
        <ele>403.5</ele>
        <time>2020-08-19T14:18:55.000Z</time>
      </trkpt>
      <trkpt lat="48.63908" lon="7.16087">
        <ele>407.79</ele>
        <time>2020-08-19T14:19:26.000Z</time>
      </trkpt>
      <trkpt lat="48.63903" lon="7.16082">
        <ele>413.08</ele>
        <time>2020-08-19T14:20:08.000Z</time>
      </trkpt>
      <trkpt lat="48.63897" lon="7.16081">
        <ele>408.44</ele>
        <time>2020-08-19T14:20:12.000Z</time>
      </trkpt>
      <trkpt lat="48.63892" lon="7.16081">
        <ele>408.86</ele>
        <time>2020-08-19T14:20:14.000Z</time>
      </trkpt>
      <trkpt lat="48.63886" lon="7.16079">
        <ele>407.54</ele>
        <time>2020-08-19T14:20:16.000Z</time>
      </trkpt>
      <trkpt lat="48.63881" lon="7.16077">
        <ele>406.09</ele>
        <time>2020-08-19T14:20:18.000Z</time>
      </trkpt>
      <trkpt lat="48.63875" lon="7.16077">
        <ele>399.15</ele>
        <time>2020-08-19T14:20:21.000Z</time>
      </trkpt>
      <trkpt lat="48.63869" lon="7.16077">
        <ele>397.56</ele>
        <time>2020-08-19T14:20:23.000Z</time>
      </trkpt>
      <trkpt lat="48.63863" lon="7.16075">
        <ele>399.57</ele>
        <time>2020-08-19T14:20:25.000Z</time>
      </trkpt>
      <trkpt lat="48.63848" lon="7.1607">
        <ele>401.1</ele>
        <time>2020-08-19T14:20:28.000Z</time>
      </trkpt>
      <trkpt lat="48.63843" lon="7.1607">
        <ele>399.85</ele>
        <time>2020-08-19T14:20:30.000Z</time>
      </trkpt>
      <trkpt lat="48.63837" lon="7.16069">
        <ele>398.31</ele>
        <time>2020-08-19T14:20:31.000Z</time>
      </trkpt>
      <trkpt lat="48.63831" lon="7.16066">
        <ele>399.75</ele>
        <time>2020-08-19T14:20:33.000Z</time>
      </trkpt>
      <trkpt lat="48.63822" lon="7.16065">
        <ele>398.14</ele>
        <time>2020-08-19T14:20:35.000Z</time>
      </trkpt>
      <trkpt lat="48.63814" lon="7.16063">
        <ele>400.92</ele>
        <time>2020-08-19T14:20:37.000Z</time>
      </trkpt>
      <trkpt lat="48.63806" lon="7.16061">
        <ele>402.1</ele>
        <time>2020-08-19T14:20:39.000Z</time>
      </trkpt>
      <trkpt lat="48.63799" lon="7.16061">
        <ele>401.79</ele>
        <time>2020-08-19T14:20:41.000Z</time>
      </trkpt>
      <trkpt lat="48.63791" lon="7.16063">
        <ele>403.04</ele>
        <time>2020-08-19T14:20:43.000Z</time>
      </trkpt>
      <trkpt lat="48.63783" lon="7.16063">
        <ele>401.76</ele>
        <time>2020-08-19T14:20:45.000Z</time>
      </trkpt>
      <trkpt lat="48.63776" lon="7.16064">
        <ele>402.26</ele>
        <time>2020-08-19T14:20:47.000Z</time>
      </trkpt>
      <trkpt lat="48.63768" lon="7.16065">
        <ele>403.21</ele>
        <time>2020-08-19T14:20:49.000Z</time>
      </trkpt>
      <trkpt lat="48.63761" lon="7.16066">
        <ele>404.72</ele>
        <time>2020-08-19T14:20:51.000Z</time>
      </trkpt>
      <trkpt lat="48.63754" lon="7.16067">
        <ele>405.83</ele>
        <time>2020-08-19T14:20:53.000Z</time>
      </trkpt>
      <trkpt lat="48.63746" lon="7.16069">
        <ele>407.21</ele>
        <time>2020-08-19T14:20:55.000Z</time>
      </trkpt>
      <trkpt lat="48.6374" lon="7.16071">
        <ele>407.78</ele>
        <time>2020-08-19T14:20:57.000Z</time>
      </trkpt>
      <trkpt lat="48.63733" lon="7.16076">
        <ele>408.03</ele>
        <time>2020-08-19T14:20:59.000Z</time>
      </trkpt>
      <trkpt lat="48.63726" lon="7.1608">
        <ele>409.04</ele>
        <time>2020-08-19T14:21:01.000Z</time>
      </trkpt>
      <trkpt lat="48.6372" lon="7.16085">
        <ele>411.57</ele>
        <time>2020-08-19T14:21:03.000Z</time>
      </trkpt>
      <trkpt lat="48.63713" lon="7.1609">
        <ele>412.6</ele>
        <time>2020-08-19T14:21:05.000Z</time>
      </trkpt>
      <trkpt lat="48.63707" lon="7.16095">
        <ele>412.99</ele>
        <time>2020-08-19T14:21:07.000Z</time>
      </trkpt>
      <trkpt lat="48.63701" lon="7.161">
        <ele>410.48</ele>
        <time>2020-08-19T14:21:09.000Z</time>
      </trkpt>
      <trkpt lat="48.63694" lon="7.16106">
        <ele>410.62</ele>
        <time>2020-08-19T14:21:11.000Z</time>
      </trkpt>
      <trkpt lat="48.63686" lon="7.16113">
        <ele>410.13</ele>
        <time>2020-08-19T14:21:13.000Z</time>
      </trkpt>
      <trkpt lat="48.63682" lon="7.16116">
        <ele>409.97</ele>
        <time>2020-08-19T14:21:14.000Z</time>
      </trkpt>
      <trkpt lat="48.63678" lon="7.16121">
        <ele>409.36</ele>
        <time>2020-08-19T14:21:15.000Z</time>
      </trkpt>
      <trkpt lat="48.63674" lon="7.16126">
        <ele>409.83</ele>
        <time>2020-08-19T14:21:16.000Z</time>
      </trkpt>
      <trkpt lat="48.63669" lon="7.16133">
        <ele>409.68</ele>
        <time>2020-08-19T14:21:17.000Z</time>
      </trkpt>
      <trkpt lat="48.63665" lon="7.16139">
        <ele>409.47</ele>
        <time>2020-08-19T14:21:18.000Z</time>
      </trkpt>
      <trkpt lat="48.63661" lon="7.16147">
        <ele>409.25</ele>
        <time>2020-08-19T14:21:19.000Z</time>
      </trkpt>
      <trkpt lat="48.63657" lon="7.16153">
        <ele>408.43</ele>
        <time>2020-08-19T14:21:20.000Z</time>
      </trkpt>
      <trkpt lat="48.63652" lon="7.16159">
        <ele>409.04</ele>
        <time>2020-08-19T14:21:21.000Z</time>
      </trkpt>
      <trkpt lat="48.63648" lon="7.16164">
        <ele>408.33</ele>
        <time>2020-08-19T14:21:22.000Z</time>
      </trkpt>
      <trkpt lat="48.63643" lon="7.16169">
        <ele>407.37</ele>
        <time>2020-08-19T14:21:23.000Z</time>
      </trkpt>
      <trkpt lat="48.63638" lon="7.16175">
        <ele>408.18</ele>
        <time>2020-08-19T14:21:24.000Z</time>
      </trkpt>
      <trkpt lat="48.63633" lon="7.16179">
        <ele>408.82</ele>
        <time>2020-08-19T14:21:25.000Z</time>
      </trkpt>
      <trkpt lat="48.63627" lon="7.16183">
        <ele>409.46</ele>
        <time>2020-08-19T14:21:26.000Z</time>
      </trkpt>
      <trkpt lat="48.63622" lon="7.16185">
        <ele>409.8</ele>
        <time>2020-08-19T14:21:27.000Z</time>
      </trkpt>
      <trkpt lat="48.63617" lon="7.16192">
        <ele>411.42</ele>
        <time>2020-08-19T14:21:29.000Z</time>
      </trkpt>
      <trkpt lat="48.63623" lon="7.16186">
        <ele>410.47</ele>
        <time>2020-08-19T14:21:45.000Z</time>
      </trkpt>
      <trkpt lat="48.63629" lon="7.16176">
        <ele>411.88</ele>
        <time>2020-08-19T14:21:47.000Z</time>
      </trkpt>
      <trkpt lat="48.63632" lon="7.1617">
        <ele>412.75</ele>
        <time>2020-08-19T14:21:48.000Z</time>
      </trkpt>
      <trkpt lat="48.63636" lon="7.16165">
        <ele>413.32</ele>
        <time>2020-08-19T14:21:49.000Z</time>
      </trkpt>
      <trkpt lat="48.6364" lon="7.16158">
        <ele>412.41</ele>
        <time>2020-08-19T14:21:50.000Z</time>
      </trkpt>
      <trkpt lat="48.63644" lon="7.16151">
        <ele>411.28</ele>
        <time>2020-08-19T14:21:51.000Z</time>
      </trkpt>
      <trkpt lat="48.63649" lon="7.16144">
        <ele>412.03</ele>
        <time>2020-08-19T14:21:52.000Z</time>
      </trkpt>
      <trkpt lat="48.63654" lon="7.16136">
        <ele>412.9</ele>
        <time>2020-08-19T14:21:53.000Z</time>
      </trkpt>
      <trkpt lat="48.63658" lon="7.16128">
        <ele>413</ele>
        <time>2020-08-19T14:21:54.000Z</time>
      </trkpt>
      <trkpt lat="48.63663" lon="7.1612">
        <ele>411.67</ele>
        <time>2020-08-19T14:21:55.000Z</time>
      </trkpt>
      <trkpt lat="48.63665" lon="7.16107">
        <ele>412.24</ele>
        <time>2020-08-19T14:21:56.000Z</time>
      </trkpt>
      <trkpt lat="48.63668" lon="7.16095">
        <ele>410.87</ele>
        <time>2020-08-19T14:21:57.000Z</time>
      </trkpt>
      <trkpt lat="48.6367" lon="7.16083">
        <ele>409.97</ele>
        <time>2020-08-19T14:21:58.000Z</time>
      </trkpt>
      <trkpt lat="48.63671" lon="7.16068">
        <ele>409.59</ele>
        <time>2020-08-19T14:21:59.000Z</time>
      </trkpt>
      <trkpt lat="48.63671" lon="7.16056">
        <ele>408.61</ele>
        <time>2020-08-19T14:22:00.000Z</time>
      </trkpt>
      <trkpt lat="48.63672" lon="7.1604">
        <ele>407.13</ele>
        <time>2020-08-19T14:22:01.000Z</time>
      </trkpt>
      <trkpt lat="48.63674" lon="7.1603">
        <ele>406.64</ele>
        <time>2020-08-19T14:22:02.000Z</time>
      </trkpt>
      <trkpt lat="48.63676" lon="7.16018">
        <ele>406.62</ele>
        <time>2020-08-19T14:22:03.000Z</time>
      </trkpt>
      <trkpt lat="48.63679" lon="7.16006">
        <ele>407.05</ele>
        <time>2020-08-19T14:22:04.000Z</time>
      </trkpt>
      <trkpt lat="48.63681" lon="7.15996">
        <ele>407.42</ele>
        <time>2020-08-19T14:22:05.000Z</time>
      </trkpt>
      <trkpt lat="48.63686" lon="7.15985">
        <ele>407.69</ele>
        <time>2020-08-19T14:22:06.000Z</time>
      </trkpt>
      <trkpt lat="48.6369" lon="7.15975">
        <ele>406.85</ele>
        <time>2020-08-19T14:22:07.000Z</time>
      </trkpt>
      <trkpt lat="48.63693" lon="7.15963">
        <ele>406.71</ele>
        <time>2020-08-19T14:22:08.000Z</time>
      </trkpt>
      <trkpt lat="48.63697" lon="7.15953">
        <ele>408.04</ele>
        <time>2020-08-19T14:22:09.000Z</time>
      </trkpt>
      <trkpt lat="48.63702" lon="7.15944">
        <ele>408.31</ele>
        <time>2020-08-19T14:22:10.000Z</time>
      </trkpt>
      <trkpt lat="48.63706" lon="7.15935">
        <ele>407.75</ele>
        <time>2020-08-19T14:22:11.000Z</time>
      </trkpt>
      <trkpt lat="48.63709" lon="7.15925">
        <ele>407.4</ele>
        <time>2020-08-19T14:22:12.000Z</time>
      </trkpt>
      <trkpt lat="48.63713" lon="7.15916">
        <ele>406.07</ele>
        <time>2020-08-19T14:22:13.000Z</time>
      </trkpt>
      <trkpt lat="48.63717" lon="7.15907">
        <ele>405.66</ele>
        <time>2020-08-19T14:22:14.000Z</time>
      </trkpt>
      <trkpt lat="48.63721" lon="7.15899">
        <ele>405.62</ele>
        <time>2020-08-19T14:22:15.000Z</time>
      </trkpt>
      <trkpt lat="48.63724" lon="7.15893">
        <ele>404.29</ele>
        <time>2020-08-19T14:22:16.000Z</time>
      </trkpt>
      <trkpt lat="48.63727" lon="7.15888">
        <ele>406.4</ele>
        <time>2020-08-19T14:22:17.000Z</time>
      </trkpt>
      <trkpt lat="48.63729" lon="7.15882">
        <ele>406.34</ele>
        <time>2020-08-19T14:22:19.000Z</time>
      </trkpt>
      <trkpt lat="48.63723" lon="7.15879">
        <ele>406.17</ele>
        <time>2020-08-19T14:22:40.000Z</time>
      </trkpt>
      <trkpt lat="48.63716" lon="7.15879">
        <ele>406.67</ele>
        <time>2020-08-19T14:22:43.000Z</time>
      </trkpt>
      <trkpt lat="48.6371" lon="7.1588">
        <ele>404.96</ele>
        <time>2020-08-19T14:22:45.000Z</time>
      </trkpt>
      <trkpt lat="48.63703" lon="7.15883">
        <ele>404.82</ele>
        <time>2020-08-19T14:22:47.000Z</time>
      </trkpt>
      <trkpt lat="48.63698" lon="7.15884">
        <ele>403.42</ele>
        <time>2020-08-19T14:22:49.000Z</time>
      </trkpt>
      <trkpt lat="48.63693" lon="7.15886">
        <ele>404.75</ele>
        <time>2020-08-19T14:22:51.000Z</time>
      </trkpt>
      <trkpt lat="48.63685" lon="7.15888">
        <ele>404.2</ele>
        <time>2020-08-19T14:22:53.000Z</time>
      </trkpt>
      <trkpt lat="48.6368" lon="7.15891">
        <ele>403.56</ele>
        <time>2020-08-19T14:22:54.000Z</time>
      </trkpt>
      <trkpt lat="48.63673" lon="7.15897">
        <ele>403.85</ele>
        <time>2020-08-19T14:22:56.000Z</time>
      </trkpt>
      <trkpt lat="48.63669" lon="7.15901">
        <ele>403.85</ele>
        <time>2020-08-19T14:22:57.000Z</time>
      </trkpt>
      <trkpt lat="48.63664" lon="7.15904">
        <ele>403.99</ele>
        <time>2020-08-19T14:22:58.000Z</time>
      </trkpt>
      <trkpt lat="48.63657" lon="7.15909">
        <ele>403.22</ele>
        <time>2020-08-19T14:23:00.000Z</time>
      </trkpt>
      <trkpt lat="48.63652" lon="7.15913">
        <ele>404.26</ele>
        <time>2020-08-19T14:23:01.000Z</time>
      </trkpt>
      <trkpt lat="48.63644" lon="7.15919">
        <ele>403.93</ele>
        <time>2020-08-19T14:23:03.000Z</time>
      </trkpt>
      <trkpt lat="48.6364" lon="7.15922">
        <ele>403.43</ele>
        <time>2020-08-19T14:23:04.000Z</time>
      </trkpt>
      <trkpt lat="48.63636" lon="7.15926">
        <ele>404.04</ele>
        <time>2020-08-19T14:23:05.000Z</time>
      </trkpt>
      <trkpt lat="48.63632" lon="7.1593">
        <ele>403.48</ele>
        <time>2020-08-19T14:23:06.000Z</time>
      </trkpt>
      <trkpt lat="48.63624" lon="7.15938">
        <ele>403.81</ele>
        <time>2020-08-19T14:23:08.000Z</time>
      </trkpt>
      <trkpt lat="48.6362" lon="7.15942">
        <ele>403.72</ele>
        <time>2020-08-19T14:23:09.000Z</time>
      </trkpt>
      <trkpt lat="48.63616" lon="7.15948">
        <ele>404.09</ele>
        <time>2020-08-19T14:23:10.000Z</time>
      </trkpt>
      <trkpt lat="48.6361" lon="7.15956">
        <ele>405.03</ele>
        <time>2020-08-19T14:23:12.000Z</time>
      </trkpt>
      <trkpt lat="48.63605" lon="7.15959">
        <ele>405.29</ele>
        <time>2020-08-19T14:23:13.000Z</time>
      </trkpt>
      <trkpt lat="48.63598" lon="7.15967">
        <ele>406.2</ele>
        <time>2020-08-19T14:23:15.000Z</time>
      </trkpt>
      <trkpt lat="48.63594" lon="7.15972">
        <ele>406.42</ele>
        <time>2020-08-19T14:23:16.000Z</time>
      </trkpt>
      <trkpt lat="48.63586" lon="7.15978">
        <ele>406.44</ele>
        <time>2020-08-19T14:23:18.000Z</time>
      </trkpt>
      <trkpt lat="48.6358" lon="7.15984">
        <ele>407.48</ele>
        <time>2020-08-19T14:23:20.000Z</time>
      </trkpt>
      <trkpt lat="48.63572" lon="7.15992">
        <ele>410.44</ele>
        <time>2020-08-19T14:23:22.000Z</time>
      </trkpt>
      <trkpt lat="48.63568" lon="7.15996">
        <ele>410.09</ele>
        <time>2020-08-19T14:23:23.000Z</time>
      </trkpt>
      <trkpt lat="48.63562" lon="7.16002">
        <ele>408.76</ele>
        <time>2020-08-19T14:23:25.000Z</time>
      </trkpt>
      <trkpt lat="48.63558" lon="7.16006">
        <ele>409.14</ele>
        <time>2020-08-19T14:23:26.000Z</time>
      </trkpt>
      <trkpt lat="48.63554" lon="7.1601">
        <ele>407.87</ele>
        <time>2020-08-19T14:23:28.000Z</time>
      </trkpt>
      <trkpt lat="48.63548" lon="7.16015">
        <ele>408.43</ele>
        <time>2020-08-19T14:23:29.000Z</time>
      </trkpt>
      <trkpt lat="48.63543" lon="7.16018">
        <ele>408.93</ele>
        <time>2020-08-19T14:23:30.000Z</time>
      </trkpt>
      <trkpt lat="48.63528" lon="7.16026">
        <ele>407.02</ele>
        <time>2020-08-19T14:23:33.000Z</time>
      </trkpt>
      <trkpt lat="48.63521" lon="7.16032">
        <ele>407.3</ele>
        <time>2020-08-19T14:23:35.000Z</time>
      </trkpt>
      <trkpt lat="48.63517" lon="7.16035">
        <ele>406.27</ele>
        <time>2020-08-19T14:23:36.000Z</time>
      </trkpt>
      <trkpt lat="48.63512" lon="7.16036">
        <ele>406.62</ele>
        <time>2020-08-19T14:23:37.000Z</time>
      </trkpt>
      <trkpt lat="48.63504" lon="7.16043">
        <ele>404.29</ele>
        <time>2020-08-19T14:23:39.000Z</time>
      </trkpt>
      <trkpt lat="48.635" lon="7.16048">
        <ele>401.65</ele>
        <time>2020-08-19T14:23:40.000Z</time>
      </trkpt>
      <trkpt lat="48.63496" lon="7.16052">
        <ele>401.26</ele>
        <time>2020-08-19T14:23:41.000Z</time>
      </trkpt>
      <trkpt lat="48.63491" lon="7.16056">
        <ele>402.09</ele>
        <time>2020-08-19T14:23:42.000Z</time>
      </trkpt>
      <trkpt lat="48.63484" lon="7.16064">
        <ele>402.26</ele>
        <time>2020-08-19T14:23:44.000Z</time>
      </trkpt>
      <trkpt lat="48.6348" lon="7.16068">
        <ele>402.49</ele>
        <time>2020-08-19T14:23:45.000Z</time>
      </trkpt>
      <trkpt lat="48.63476" lon="7.16073">
        <ele>401.84</ele>
        <time>2020-08-19T14:23:46.000Z</time>
      </trkpt>
      <trkpt lat="48.63471" lon="7.16076">
        <ele>401.38</ele>
        <time>2020-08-19T14:23:47.000Z</time>
      </trkpt>
      <trkpt lat="48.63464" lon="7.16081">
        <ele>400.12</ele>
        <time>2020-08-19T14:23:49.000Z</time>
      </trkpt>
      <trkpt lat="48.63456" lon="7.16084">
        <ele>399.58</ele>
        <time>2020-08-19T14:23:51.000Z</time>
      </trkpt>
      <trkpt lat="48.63451" lon="7.16093">
        <ele>403.64</ele>
        <time>2020-08-19T14:23:53.000Z</time>
      </trkpt>
      <trkpt lat="48.63442" lon="7.16097">
        <ele>401.25</ele>
        <time>2020-08-19T14:23:55.000Z</time>
      </trkpt>
      <trkpt lat="48.63436" lon="7.16099">
        <ele>398.09</ele>
        <time>2020-08-19T14:23:57.000Z</time>
      </trkpt>
      <trkpt lat="48.63429" lon="7.16103">
        <ele>396.43</ele>
        <time>2020-08-19T14:23:59.000Z</time>
      </trkpt>
      <trkpt lat="48.63422" lon="7.16109">
        <ele>397.69</ele>
        <time>2020-08-19T14:24:01.000Z</time>
      </trkpt>
      <trkpt lat="48.63419" lon="7.16113">
        <ele>397.45</ele>
        <time>2020-08-19T14:24:02.000Z</time>
      </trkpt>
      <trkpt lat="48.63414" lon="7.16118">
        <ele>396.68</ele>
        <time>2020-08-19T14:24:04.000Z</time>
      </trkpt>
      <trkpt lat="48.63409" lon="7.16123">
        <ele>397.54</ele>
        <time>2020-08-19T14:24:06.000Z</time>
      </trkpt>
      <trkpt lat="48.63404" lon="7.16128">
        <ele>400.22</ele>
        <time>2020-08-19T14:24:08.000Z</time>
      </trkpt>
      <trkpt lat="48.63399" lon="7.16133">
        <ele>401.87</ele>
        <time>2020-08-19T14:24:10.000Z</time>
      </trkpt>
      <trkpt lat="48.63394" lon="7.16137">
        <ele>403.2</ele>
        <time>2020-08-19T14:24:12.000Z</time>
      </trkpt>
      <trkpt lat="48.63383" lon="7.16151">
        <ele>407.17</ele>
        <time>2020-08-19T14:24:15.000Z</time>
      </trkpt>
      <trkpt lat="48.63378" lon="7.16154">
        <ele>406.83</ele>
        <time>2020-08-19T14:24:16.000Z</time>
      </trkpt>
      <trkpt lat="48.63374" lon="7.16158">
        <ele>406.83</ele>
        <time>2020-08-19T14:24:17.000Z</time>
      </trkpt>
      <trkpt lat="48.6337" lon="7.16161">
        <ele>407.15</ele>
        <time>2020-08-19T14:24:18.000Z</time>
      </trkpt>
      <trkpt lat="48.63365" lon="7.16163">
        <ele>406.82</ele>
        <time>2020-08-19T14:24:19.000Z</time>
      </trkpt>
      <trkpt lat="48.6336" lon="7.16166">
        <ele>407.05</ele>
        <time>2020-08-19T14:24:20.000Z</time>
      </trkpt>
      <trkpt lat="48.63352" lon="7.16173">
        <ele>408.16</ele>
        <time>2020-08-19T14:24:22.000Z</time>
      </trkpt>
      <trkpt lat="48.63344" lon="7.16178">
        <ele>409.35</ele>
        <time>2020-08-19T14:24:24.000Z</time>
      </trkpt>
      <trkpt lat="48.63337" lon="7.16182">
        <ele>409.63</ele>
        <time>2020-08-19T14:24:26.000Z</time>
      </trkpt>
      <trkpt lat="48.63333" lon="7.16184">
        <ele>410.48</ele>
        <time>2020-08-19T14:24:27.000Z</time>
      </trkpt>
      <trkpt lat="48.63326" lon="7.16186">
        <ele>411.46</ele>
        <time>2020-08-19T14:24:29.000Z</time>
      </trkpt>
      <trkpt lat="48.6332" lon="7.16189">
        <ele>411.31</ele>
        <time>2020-08-19T14:24:31.000Z</time>
      </trkpt>
      <trkpt lat="48.63314" lon="7.16193">
        <ele>409.07</ele>
        <time>2020-08-19T14:24:33.000Z</time>
      </trkpt>
      <trkpt lat="48.6331" lon="7.16198">
        <ele>410.66</ele>
        <time>2020-08-19T14:24:34.000Z</time>
      </trkpt>
      <trkpt lat="48.63302" lon="7.16201">
        <ele>410.63</ele>
        <time>2020-08-19T14:24:36.000Z</time>
      </trkpt>
      <trkpt lat="48.63294" lon="7.16205">
        <ele>409.91</ele>
        <time>2020-08-19T14:24:38.000Z</time>
      </trkpt>
      <trkpt lat="48.63286" lon="7.16209">
        <ele>411.43</ele>
        <time>2020-08-19T14:24:40.000Z</time>
      </trkpt>
      <trkpt lat="48.63278" lon="7.16214">
        <ele>413.3</ele>
        <time>2020-08-19T14:24:42.000Z</time>
      </trkpt>
      <trkpt lat="48.63272" lon="7.16218">
        <ele>414.99</ele>
        <time>2020-08-19T14:24:44.000Z</time>
      </trkpt>
      <trkpt lat="48.63266" lon="7.16223">
        <ele>415.52</ele>
        <time>2020-08-19T14:24:46.000Z</time>
      </trkpt>
      <trkpt lat="48.63259" lon="7.16229">
        <ele>415.14</ele>
        <time>2020-08-19T14:24:48.000Z</time>
      </trkpt>
      <trkpt lat="48.63252" lon="7.16234">
        <ele>413.21</ele>
        <time>2020-08-19T14:24:50.000Z</time>
      </trkpt>
      <trkpt lat="48.63246" lon="7.16239">
        <ele>411.71</ele>
        <time>2020-08-19T14:24:52.000Z</time>
      </trkpt>
      <trkpt lat="48.63239" lon="7.16244">
        <ele>411.17</ele>
        <time>2020-08-19T14:24:54.000Z</time>
      </trkpt>
      <trkpt lat="48.63233" lon="7.1625">
        <ele>413.94</ele>
        <time>2020-08-19T14:24:56.000Z</time>
      </trkpt>
      <trkpt lat="48.63226" lon="7.16256">
        <ele>413.87</ele>
        <time>2020-08-19T14:24:58.000Z</time>
      </trkpt>
      <trkpt lat="48.6322" lon="7.16261">
        <ele>416.21</ele>
        <time>2020-08-19T14:25:00.000Z</time>
      </trkpt>
      <trkpt lat="48.63215" lon="7.16264">
        <ele>415.7</ele>
        <time>2020-08-19T14:25:02.000Z</time>
      </trkpt>
      <trkpt lat="48.63208" lon="7.16269">
        <ele>414.87</ele>
        <time>2020-08-19T14:25:04.000Z</time>
      </trkpt>
      <trkpt lat="48.63201" lon="7.16275">
        <ele>413.78</ele>
        <time>2020-08-19T14:25:06.000Z</time>
      </trkpt>
      <trkpt lat="48.63194" lon="7.16279">
        <ele>412.77</ele>
        <time>2020-08-19T14:25:08.000Z</time>
      </trkpt>
      <trkpt lat="48.63187" lon="7.16285">
        <ele>416.03</ele>
        <time>2020-08-19T14:25:10.000Z</time>
      </trkpt>
      <trkpt lat="48.63181" lon="7.16291">
        <ele>416.34</ele>
        <time>2020-08-19T14:25:12.000Z</time>
      </trkpt>
      <trkpt lat="48.63175" lon="7.16296">
        <ele>417.37</ele>
        <time>2020-08-19T14:25:14.000Z</time>
      </trkpt>
      <trkpt lat="48.63169" lon="7.16303">
        <ele>418.47</ele>
        <time>2020-08-19T14:25:16.000Z</time>
      </trkpt>
      <trkpt lat="48.63163" lon="7.16308">
        <ele>419.06</ele>
        <time>2020-08-19T14:25:18.000Z</time>
      </trkpt>
      <trkpt lat="48.63157" lon="7.16312">
        <ele>420.36</ele>
        <time>2020-08-19T14:25:20.000Z</time>
      </trkpt>
      <trkpt lat="48.63152" lon="7.16315">
        <ele>420.66</ele>
        <time>2020-08-19T14:25:22.000Z</time>
      </trkpt>
      <trkpt lat="48.63148" lon="7.16316">
        <ele>420.55</ele>
        <time>2020-08-19T14:25:43.000Z</time>
      </trkpt>
      <trkpt lat="48.63143" lon="7.16313">
        <ele>419.15</ele>
        <time>2020-08-19T14:25:48.000Z</time>
      </trkpt>
      <trkpt lat="48.63138" lon="7.16315">
        <ele>418.98</ele>
        <time>2020-08-19T14:25:53.000Z</time>
      </trkpt>
      <trkpt lat="48.63135" lon="7.1632">
        <ele>421.78</ele>
        <time>2020-08-19T14:25:58.000Z</time>
      </trkpt>
      <trkpt lat="48.63132" lon="7.16328">
        <ele>428.44</ele>
        <time>2020-08-19T14:26:03.000Z</time>
      </trkpt>
      <trkpt lat="48.63129" lon="7.16334">
        <ele>429.74</ele>
        <time>2020-08-19T14:26:08.000Z</time>
      </trkpt>
      <trkpt lat="48.63128" lon="7.16341">
        <ele>435.09</ele>
        <time>2020-08-19T14:26:20.000Z</time>
      </trkpt>
      <trkpt lat="48.63119" lon="7.16347">
        <ele>436.62</ele>
        <time>2020-08-19T14:26:25.000Z</time>
      </trkpt>
      <trkpt lat="48.63115" lon="7.16351">
        <ele>439.67</ele>
        <time>2020-08-19T14:26:29.000Z</time>
      </trkpt>
      <trkpt lat="48.63111" lon="7.16353">
        <ele>439.2</ele>
        <time>2020-08-19T14:26:32.000Z</time>
      </trkpt>
      <trkpt lat="48.63106" lon="7.16356">
        <ele>437.91</ele>
        <time>2020-08-19T14:26:35.000Z</time>
      </trkpt>
      <trkpt lat="48.63101" lon="7.16359">
        <ele>435.85</ele>
        <time>2020-08-19T14:26:38.000Z</time>
      </trkpt>
      <trkpt lat="48.63096" lon="7.16365">
        <ele>438.86</ele>
        <time>2020-08-19T14:26:42.000Z</time>
      </trkpt>
      <trkpt lat="48.63093" lon="7.16371">
        <ele>441.58</ele>
        <time>2020-08-19T14:26:47.000Z</time>
      </trkpt>
      <trkpt lat="48.63089" lon="7.16377">
        <ele>440.89</ele>
        <time>2020-08-19T14:26:54.000Z</time>
      </trkpt>
      <trkpt lat="48.63084" lon="7.16379">
        <ele>438.28</ele>
        <time>2020-08-19T14:26:58.000Z</time>
      </trkpt>
      <trkpt lat="48.63079" lon="7.16383">
        <ele>439.52</ele>
        <time>2020-08-19T14:27:03.000Z</time>
      </trkpt>
      <trkpt lat="48.63075" lon="7.1639">
        <ele>441.43</ele>
        <time>2020-08-19T14:27:11.000Z</time>
      </trkpt>
      <trkpt lat="48.63071" lon="7.16392">
        <ele>439.77</ele>
        <time>2020-08-19T14:27:14.000Z</time>
      </trkpt>
      <trkpt lat="48.6306" lon="7.16398">
        <ele>440.34</ele>
        <time>2020-08-19T14:27:20.000Z</time>
      </trkpt>
      <trkpt lat="48.63056" lon="7.16401">
        <ele>440.99</ele>
        <time>2020-08-19T14:27:23.000Z</time>
      </trkpt>
      <trkpt lat="48.63051" lon="7.16401">
        <ele>438.94</ele>
        <time>2020-08-19T14:27:26.000Z</time>
      </trkpt>
      <trkpt lat="48.63046" lon="7.164">
        <ele>441.3</ele>
        <time>2020-08-19T14:27:29.000Z</time>
      </trkpt>
      <trkpt lat="48.63041" lon="7.164">
        <ele>441.49</ele>
        <time>2020-08-19T14:27:33.000Z</time>
      </trkpt>
      <trkpt lat="48.63036" lon="7.16399">
        <ele>443.12</ele>
        <time>2020-08-19T14:27:38.000Z</time>
      </trkpt>
      <trkpt lat="48.63032" lon="7.16395">
        <ele>447.47</ele>
        <time>2020-08-19T14:27:42.000Z</time>
      </trkpt>
      <trkpt lat="48.63027" lon="7.16395">
        <ele>451.4</ele>
        <time>2020-08-19T14:27:52.000Z</time>
      </trkpt>
      <trkpt lat="48.63025" lon="7.16388">
        <ele>451.9</ele>
        <time>2020-08-19T14:28:03.000Z</time>
      </trkpt>
      <trkpt lat="48.63028" lon="7.16382">
        <ele>449.46</ele>
        <time>2020-08-19T14:28:20.000Z</time>
      </trkpt>
      <trkpt lat="48.63032" lon="7.16377">
        <ele>443</ele>
        <time>2020-08-19T14:28:25.000Z</time>
      </trkpt>
      <trkpt lat="48.63035" lon="7.16371">
        <ele>441.88</ele>
        <time>2020-08-19T14:28:30.000Z</time>
      </trkpt>
      <trkpt lat="48.63038" lon="7.16365">
        <ele>447.28</ele>
        <time>2020-08-19T14:28:35.000Z</time>
      </trkpt>
      <trkpt lat="48.63041" lon="7.1636">
        <ele>445.15</ele>
        <time>2020-08-19T14:28:39.000Z</time>
      </trkpt>
      <trkpt lat="48.63045" lon="7.16355">
        <ele>440.64</ele>
        <time>2020-08-19T14:28:43.000Z</time>
      </trkpt>
      <trkpt lat="48.63049" lon="7.16348">
        <ele>446.95</ele>
        <time>2020-08-19T14:28:47.000Z</time>
      </trkpt>
      <trkpt lat="48.63051" lon="7.16341">
        <ele>450.5</ele>
        <time>2020-08-19T14:28:51.000Z</time>
      </trkpt>
      <trkpt lat="48.6305" lon="7.16333">
        <ele>453.67</ele>
        <time>2020-08-19T14:28:56.000Z</time>
      </trkpt>
      <trkpt lat="48.63052" lon="7.16326">
        <ele>455.73</ele>
        <time>2020-08-19T14:29:01.000Z</time>
      </trkpt>
      <trkpt lat="48.63053" lon="7.16318">
        <ele>453.35</ele>
        <time>2020-08-19T14:29:05.000Z</time>
      </trkpt>
      <trkpt lat="48.63054" lon="7.16312">
        <ele>452.29</ele>
        <time>2020-08-19T14:29:11.000Z</time>
      </trkpt>
      <trkpt lat="48.63058" lon="7.1631">
        <ele>458.91</ele>
        <time>2020-08-19T14:29:15.000Z</time>
      </trkpt>
      <trkpt lat="48.63062" lon="7.16303">
        <ele>434.87</ele>
        <time>2020-08-19T14:29:19.000Z</time>
      </trkpt>
      <trkpt lat="48.63063" lon="7.16296">
        <ele>448.99</ele>
        <time>2020-08-19T14:29:23.000Z</time>
      </trkpt>
      <trkpt lat="48.63066" lon="7.1629">
        <ele>458.73</ele>
        <time>2020-08-19T14:29:28.000Z</time>
      </trkpt>
      <trkpt lat="48.63068" lon="7.16282">
        <ele>457.18</ele>
        <time>2020-08-19T14:29:32.000Z</time>
      </trkpt>
      <trkpt lat="48.6307" lon="7.16274">
        <ele>459.37</ele>
        <time>2020-08-19T14:29:36.000Z</time>
      </trkpt>
      <trkpt lat="48.63073" lon="7.16269">
        <ele>462.56</ele>
        <time>2020-08-19T14:29:39.000Z</time>
      </trkpt>
      <trkpt lat="48.63077" lon="7.16264">
        <ele>462.05</ele>
        <time>2020-08-19T14:29:42.000Z</time>
      </trkpt>
      <trkpt lat="48.6308" lon="7.16259">
        <ele>461.95</ele>
        <time>2020-08-19T14:29:46.000Z</time>
      </trkpt>
      <trkpt lat="48.63083" lon="7.16253">
        <ele>467.14</ele>
        <time>2020-08-19T14:29:51.000Z</time>
      </trkpt>
      <trkpt lat="48.63086" lon="7.16246">
        <ele>467.22</ele>
        <time>2020-08-19T14:29:55.000Z</time>
      </trkpt>
      <trkpt lat="48.63087" lon="7.16239">
        <ele>469.38</ele>
        <time>2020-08-19T14:29:59.000Z</time>
      </trkpt>
      <trkpt lat="48.6309" lon="7.16232">
        <ele>465.69</ele>
        <time>2020-08-19T14:30:14.000Z</time>
      </trkpt>
      <trkpt lat="48.63094" lon="7.16227">
        <ele>465.71</ele>
        <time>2020-08-19T14:30:20.000Z</time>
      </trkpt>
      <trkpt lat="48.63098" lon="7.16222">
        <ele>466.99</ele>
        <time>2020-08-19T14:30:22.000Z</time>
      </trkpt>
      <trkpt lat="48.63103" lon="7.16217">
        <ele>467.35</ele>
        <time>2020-08-19T14:30:24.000Z</time>
      </trkpt>
      <trkpt lat="48.63109" lon="7.16213">
        <ele>470.48</ele>
        <time>2020-08-19T14:30:28.000Z</time>
      </trkpt>
      <trkpt lat="48.63114" lon="7.16208">
        <ele>471.49</ele>
        <time>2020-08-19T14:30:30.000Z</time>
      </trkpt>
      <trkpt lat="48.63118" lon="7.16202">
        <ele>471.5</ele>
        <time>2020-08-19T14:30:32.000Z</time>
      </trkpt>
      <trkpt lat="48.63123" lon="7.16198">
        <ele>471.25</ele>
        <time>2020-08-19T14:30:34.000Z</time>
      </trkpt>
      <trkpt lat="48.63127" lon="7.16194">
        <ele>472.93</ele>
        <time>2020-08-19T14:30:36.000Z</time>
      </trkpt>
      <trkpt lat="48.63132" lon="7.16189">
        <ele>475.21</ele>
        <time>2020-08-19T14:30:38.000Z</time>
      </trkpt>
      <trkpt lat="48.63137" lon="7.16184">
        <ele>476.43</ele>
        <time>2020-08-19T14:30:40.000Z</time>
      </trkpt>
      <trkpt lat="48.63139" lon="7.16177">
        <ele>478.67</ele>
        <time>2020-08-19T14:30:42.000Z</time>
      </trkpt>
      <trkpt lat="48.63143" lon="7.16168">
        <ele>480.05</ele>
        <time>2020-08-19T14:30:45.000Z</time>
      </trkpt>
      <trkpt lat="48.63149" lon="7.16162">
        <ele>477.48</ele>
        <time>2020-08-19T14:30:47.000Z</time>
      </trkpt>
      <trkpt lat="48.63155" lon="7.16158">
        <ele>476.24</ele>
        <time>2020-08-19T14:30:49.000Z</time>
      </trkpt>
      <trkpt lat="48.63161" lon="7.16152">
        <ele>477.65</ele>
        <time>2020-08-19T14:30:51.000Z</time>
      </trkpt>
      <trkpt lat="48.63166" lon="7.16146">
        <ele>479.09</ele>
        <time>2020-08-19T14:30:53.000Z</time>
      </trkpt>
      <trkpt lat="48.6317" lon="7.16138">
        <ele>480.52</ele>
        <time>2020-08-19T14:30:55.000Z</time>
      </trkpt>
      <trkpt lat="48.63175" lon="7.16132">
        <ele>480.74</ele>
        <time>2020-08-19T14:30:57.000Z</time>
      </trkpt>
      <trkpt lat="48.6318" lon="7.16126">
        <ele>481.02</ele>
        <time>2020-08-19T14:30:59.000Z</time>
      </trkpt>
      <trkpt lat="48.63185" lon="7.16118">
        <ele>478.61</ele>
        <time>2020-08-19T14:31:01.000Z</time>
      </trkpt>
      <trkpt lat="48.6319" lon="7.1611">
        <ele>478.56</ele>
        <time>2020-08-19T14:31:03.000Z</time>
      </trkpt>
      <trkpt lat="48.63195" lon="7.16103">
        <ele>477.62</ele>
        <time>2020-08-19T14:31:05.000Z</time>
      </trkpt>
      <trkpt lat="48.632" lon="7.16096">
        <ele>478.51</ele>
        <time>2020-08-19T14:31:07.000Z</time>
      </trkpt>
      <trkpt lat="48.63204" lon="7.16089">
        <ele>476.83</ele>
        <time>2020-08-19T14:31:09.000Z</time>
      </trkpt>
      <trkpt lat="48.63209" lon="7.16081">
        <ele>476.21</ele>
        <time>2020-08-19T14:31:11.000Z</time>
      </trkpt>
      <trkpt lat="48.63212" lon="7.16073">
        <ele>474.76</ele>
        <time>2020-08-19T14:31:13.000Z</time>
      </trkpt>
      <trkpt lat="48.63216" lon="7.16065">
        <ele>474.78</ele>
        <time>2020-08-19T14:31:15.000Z</time>
      </trkpt>
      <trkpt lat="48.6322" lon="7.16057">
        <ele>475.84</ele>
        <time>2020-08-19T14:31:17.000Z</time>
      </trkpt>
      <trkpt lat="48.63223" lon="7.16047">
        <ele>476.6</ele>
        <time>2020-08-19T14:31:19.000Z</time>
      </trkpt>
      <trkpt lat="48.63226" lon="7.16038">
        <ele>477.56</ele>
        <time>2020-08-19T14:31:21.000Z</time>
      </trkpt>
      <trkpt lat="48.63231" lon="7.1603">
        <ele>477.27</ele>
        <time>2020-08-19T14:31:23.000Z</time>
      </trkpt>
      <trkpt lat="48.63235" lon="7.16024">
        <ele>480.18</ele>
        <time>2020-08-19T14:31:25.000Z</time>
      </trkpt>
      <trkpt lat="48.6324" lon="7.16017">
        <ele>481.91</ele>
        <time>2020-08-19T14:31:27.000Z</time>
      </trkpt>
      <trkpt lat="48.63245" lon="7.1601">
        <ele>481.66</ele>
        <time>2020-08-19T14:31:29.000Z</time>
      </trkpt>
      <trkpt lat="48.63249" lon="7.16001">
        <ele>479.99</ele>
        <time>2020-08-19T14:31:31.000Z</time>
      </trkpt>
      <trkpt lat="48.63253" lon="7.15992">
        <ele>481.3</ele>
        <time>2020-08-19T14:31:33.000Z</time>
      </trkpt>
      <trkpt lat="48.63255" lon="7.15985">
        <ele>482.22</ele>
        <time>2020-08-19T14:31:35.000Z</time>
      </trkpt>
      <trkpt lat="48.63251" lon="7.15989">
        <ele>477.94</ele>
        <time>2020-08-19T14:31:46.000Z</time>
      </trkpt>
      <trkpt lat="48.63256" lon="7.15985">
        <ele>479.17</ele>
        <time>2020-08-19T14:31:57.000Z</time>
      </trkpt>
      <trkpt lat="48.6326" lon="7.15977">
        <ele>477.84</ele>
        <time>2020-08-19T14:31:59.000Z</time>
      </trkpt>
      <trkpt lat="48.63265" lon="7.15969">
        <ele>478.12</ele>
        <time>2020-08-19T14:32:01.000Z</time>
      </trkpt>
      <trkpt lat="48.63269" lon="7.15958">
        <ele>476.83</ele>
        <time>2020-08-19T14:32:03.000Z</time>
      </trkpt>
      <trkpt lat="48.63273" lon="7.15946">
        <ele>478.69</ele>
        <time>2020-08-19T14:32:05.000Z</time>
      </trkpt>
      <trkpt lat="48.63283" lon="7.15928">
        <ele>481.69</ele>
        <time>2020-08-19T14:32:08.000Z</time>
      </trkpt>
      <trkpt lat="48.63289" lon="7.15916">
        <ele>482.46</ele>
        <time>2020-08-19T14:32:10.000Z</time>
      </trkpt>
      <trkpt lat="48.63293" lon="7.1591">
        <ele>482.64</ele>
        <time>2020-08-19T14:32:11.000Z</time>
      </trkpt>
      <trkpt lat="48.63299" lon="7.15901">
        <ele>481.23</ele>
        <time>2020-08-19T14:32:13.000Z</time>
      </trkpt>
      <trkpt lat="48.63304" lon="7.159">
        <ele>479.77</ele>
        <time>2020-08-19T14:32:14.000Z</time>
      </trkpt>
      <trkpt lat="48.6331" lon="7.159">
        <ele>481.1</ele>
        <time>2020-08-19T14:32:15.000Z</time>
      </trkpt>
      <trkpt lat="48.63317" lon="7.15893">
        <ele>480.27</ele>
        <time>2020-08-19T14:32:17.000Z</time>
      </trkpt>
      <trkpt lat="48.63324" lon="7.15886">
        <ele>480.72</ele>
        <time>2020-08-19T14:32:19.000Z</time>
      </trkpt>
      <trkpt lat="48.63331" lon="7.15879">
        <ele>480.94</ele>
        <time>2020-08-19T14:32:21.000Z</time>
      </trkpt>
      <trkpt lat="48.63335" lon="7.15876">
        <ele>480.26</ele>
        <time>2020-08-19T14:32:22.000Z</time>
      </trkpt>
      <trkpt lat="48.6334" lon="7.15872">
        <ele>481.31</ele>
        <time>2020-08-19T14:32:23.000Z</time>
      </trkpt>
      <trkpt lat="48.63347" lon="7.15866">
        <ele>483.09</ele>
        <time>2020-08-19T14:32:25.000Z</time>
      </trkpt>
      <trkpt lat="48.63357" lon="7.15863">
        <ele>482.73</ele>
        <time>2020-08-19T14:32:27.000Z</time>
      </trkpt>
      <trkpt lat="48.63362" lon="7.1586">
        <ele>483.33</ele>
        <time>2020-08-19T14:32:28.000Z</time>
      </trkpt>
      <trkpt lat="48.6337" lon="7.15853">
        <ele>483.29</ele>
        <time>2020-08-19T14:32:30.000Z</time>
      </trkpt>
      <trkpt lat="48.63379" lon="7.15846">
        <ele>484.92</ele>
        <time>2020-08-19T14:32:32.000Z</time>
      </trkpt>
      <trkpt lat="48.63386" lon="7.15842">
        <ele>485.05</ele>
        <time>2020-08-19T14:32:34.000Z</time>
      </trkpt>
      <trkpt lat="48.63393" lon="7.15835">
        <ele>484.1</ele>
        <time>2020-08-19T14:32:36.000Z</time>
      </trkpt>
      <trkpt lat="48.634" lon="7.15828">
        <ele>484.76</ele>
        <time>2020-08-19T14:32:38.000Z</time>
      </trkpt>
      <trkpt lat="48.63405" lon="7.15826">
        <ele>486.94</ele>
        <time>2020-08-19T14:32:40.000Z</time>
      </trkpt>
      <trkpt lat="48.6341" lon="7.15823">
        <ele>489.06</ele>
        <time>2020-08-19T14:32:42.000Z</time>
      </trkpt>
      <trkpt lat="48.63414" lon="7.15819">
        <ele>488.41</ele>
        <time>2020-08-19T14:32:43.000Z</time>
      </trkpt>
      <trkpt lat="48.6342" lon="7.15813">
        <ele>486.16</ele>
        <time>2020-08-19T14:32:46.000Z</time>
      </trkpt>
      <trkpt lat="48.63425" lon="7.15808">
        <ele>486.01</ele>
        <time>2020-08-19T14:32:48.000Z</time>
      </trkpt>
      <trkpt lat="48.63432" lon="7.15807">
        <ele>485.25</ele>
        <time>2020-08-19T14:32:50.000Z</time>
      </trkpt>
      <trkpt lat="48.63438" lon="7.158">
        <ele>483.79</ele>
        <time>2020-08-19T14:32:52.000Z</time>
      </trkpt>
      <trkpt lat="48.63444" lon="7.15795">
        <ele>483.56</ele>
        <time>2020-08-19T14:32:54.000Z</time>
      </trkpt>
      <trkpt lat="48.6345" lon="7.15791">
        <ele>484.46</ele>
        <time>2020-08-19T14:32:56.000Z</time>
      </trkpt>
      <trkpt lat="48.63455" lon="7.15789">
        <ele>486.13</ele>
        <time>2020-08-19T14:32:58.000Z</time>
      </trkpt>
      <trkpt lat="48.6346" lon="7.15788">
        <ele>489.2</ele>
        <time>2020-08-19T14:33:00.000Z</time>
      </trkpt>
      <trkpt lat="48.63466" lon="7.15786">
        <ele>490.49</ele>
        <time>2020-08-19T14:33:02.000Z</time>
      </trkpt>
      <trkpt lat="48.63472" lon="7.15785">
        <ele>490.11</ele>
        <time>2020-08-19T14:33:04.000Z</time>
      </trkpt>
      <trkpt lat="48.6351" lon="7.15771">
        <ele>480.54</ele>
        <time>2020-08-19T14:33:11.000Z</time>
      </trkpt>
      <trkpt lat="48.63526" lon="7.15766">
        <ele>480.53</ele>
        <time>2020-08-19T14:33:14.000Z</time>
      </trkpt>
      <trkpt lat="48.63531" lon="7.15765">
        <ele>480.31</ele>
        <time>2020-08-19T14:33:15.000Z</time>
      </trkpt>
      <trkpt lat="48.63539" lon="7.15762">
        <ele>480.85</ele>
        <time>2020-08-19T14:33:17.000Z</time>
      </trkpt>
      <trkpt lat="48.63546" lon="7.15758">
        <ele>481.21</ele>
        <time>2020-08-19T14:33:19.000Z</time>
      </trkpt>
      <trkpt lat="48.63552" lon="7.15755">
        <ele>483.1</ele>
        <time>2020-08-19T14:33:21.000Z</time>
      </trkpt>
      <trkpt lat="48.63559" lon="7.15747">
        <ele>483.15</ele>
        <time>2020-08-19T14:33:23.000Z</time>
      </trkpt>
      <trkpt lat="48.63565" lon="7.1574">
        <ele>482.31</ele>
        <time>2020-08-19T14:33:25.000Z</time>
      </trkpt>
      <trkpt lat="48.6357" lon="7.15731">
        <ele>480.76</ele>
        <time>2020-08-19T14:33:27.000Z</time>
      </trkpt>
      <trkpt lat="48.63573" lon="7.15721">
        <ele>481.76</ele>
        <time>2020-08-19T14:33:29.000Z</time>
      </trkpt>
      <trkpt lat="48.63577" lon="7.15712">
        <ele>479.49</ele>
        <time>2020-08-19T14:33:31.000Z</time>
      </trkpt>
      <trkpt lat="48.6358" lon="7.15702">
        <ele>479.38</ele>
        <time>2020-08-19T14:33:33.000Z</time>
      </trkpt>
      <trkpt lat="48.63583" lon="7.15693">
        <ele>478.94</ele>
        <time>2020-08-19T14:33:35.000Z</time>
      </trkpt>
      <trkpt lat="48.63583" lon="7.15681">
        <ele>480.04</ele>
        <time>2020-08-19T14:33:37.000Z</time>
      </trkpt>
      <trkpt lat="48.63578" lon="7.15667">
        <ele>480.08</ele>
        <time>2020-08-19T14:33:39.000Z</time>
      </trkpt>
      <trkpt lat="48.63578" lon="7.15655">
        <ele>480.24</ele>
        <time>2020-08-19T14:33:41.000Z</time>
      </trkpt>
      <trkpt lat="48.63578" lon="7.15642">
        <ele>482.1</ele>
        <time>2020-08-19T14:33:43.000Z</time>
      </trkpt>
      <trkpt lat="48.63576" lon="7.15636">
        <ele>481.71</ele>
        <time>2020-08-19T14:33:44.000Z</time>
      </trkpt>
      <trkpt lat="48.63575" lon="7.15628">
        <ele>482.47</ele>
        <time>2020-08-19T14:33:45.000Z</time>
      </trkpt>
      <trkpt lat="48.63575" lon="7.15621">
        <ele>481.74</ele>
        <time>2020-08-19T14:33:46.000Z</time>
      </trkpt>
      <trkpt lat="48.63574" lon="7.15614">
        <ele>481.64</ele>
        <time>2020-08-19T14:33:47.000Z</time>
      </trkpt>
      <trkpt lat="48.63575" lon="7.15603">
        <ele>479.51</ele>
        <time>2020-08-19T14:33:49.000Z</time>
      </trkpt>
      <trkpt lat="48.63572" lon="7.15593">
        <ele>479.55</ele>
        <time>2020-08-19T14:33:51.000Z</time>
      </trkpt>
      <trkpt lat="48.6357" lon="7.15586">
        <ele>479.5</ele>
        <time>2020-08-19T14:33:52.000Z</time>
      </trkpt>
      <trkpt lat="48.63568" lon="7.15575">
        <ele>482.23</ele>
        <time>2020-08-19T14:33:54.000Z</time>
      </trkpt>
      <trkpt lat="48.63567" lon="7.15567">
        <ele>482.4</ele>
        <time>2020-08-19T14:33:55.000Z</time>
      </trkpt>
      <trkpt lat="48.63569" lon="7.15556">
        <ele>482.18</ele>
        <time>2020-08-19T14:33:57.000Z</time>
      </trkpt>
      <trkpt lat="48.63569" lon="7.15549">
        <ele>483.29</ele>
        <time>2020-08-19T14:33:58.000Z</time>
      </trkpt>
      <trkpt lat="48.63571" lon="7.15542">
        <ele>482.94</ele>
        <time>2020-08-19T14:33:59.000Z</time>
      </trkpt>
      <trkpt lat="48.63572" lon="7.15534">
        <ele>483.41</ele>
        <time>2020-08-19T14:34:00.000Z</time>
      </trkpt>
      <trkpt lat="48.63574" lon="7.15528">
        <ele>484.08</ele>
        <time>2020-08-19T14:34:01.000Z</time>
      </trkpt>
      <trkpt lat="48.63577" lon="7.15523">
        <ele>480.61</ele>
        <time>2020-08-19T14:34:10.000Z</time>
      </trkpt>
      <trkpt lat="48.63578" lon="7.15514">
        <ele>480.88</ele>
        <time>2020-08-19T14:34:27.000Z</time>
      </trkpt>
      <trkpt lat="48.63577" lon="7.15506">
        <ele>481.38</ele>
        <time>2020-08-19T14:34:31.000Z</time>
      </trkpt>
      <trkpt lat="48.63576" lon="7.155">
        <ele>483.55</ele>
        <time>2020-08-19T14:34:43.000Z</time>
      </trkpt>
      <trkpt lat="48.63576" lon="7.15492">
        <ele>486.69</ele>
        <time>2020-08-19T14:34:48.000Z</time>
      </trkpt>
      <trkpt lat="48.63577" lon="7.15485">
        <ele>485.67</ele>
        <time>2020-08-19T14:34:51.000Z</time>
      </trkpt>
      <trkpt lat="48.6358" lon="7.15477">
        <ele>486.62</ele>
        <time>2020-08-19T14:34:55.000Z</time>
      </trkpt>
      <trkpt lat="48.63581" lon="7.15469">
        <ele>489.23</ele>
        <time>2020-08-19T14:35:00.000Z</time>
      </trkpt>
      <trkpt lat="48.63579" lon="7.15461">
        <ele>489.28</ele>
        <time>2020-08-19T14:35:04.000Z</time>
      </trkpt>
      <trkpt lat="48.63579" lon="7.15453">
        <ele>490.23</ele>
        <time>2020-08-19T14:35:07.000Z</time>
      </trkpt>
      <trkpt lat="48.63577" lon="7.15447">
        <ele>491.49</ele>
        <time>2020-08-19T14:35:10.000Z</time>
      </trkpt>
      <trkpt lat="48.63576" lon="7.15439">
        <ele>494.97</ele>
        <time>2020-08-19T14:35:14.000Z</time>
      </trkpt>
      <trkpt lat="48.63574" lon="7.15431">
        <ele>494.14</ele>
        <time>2020-08-19T14:35:24.000Z</time>
      </trkpt>
      <trkpt lat="48.63574" lon="7.15424">
        <ele>493.49</ele>
        <time>2020-08-19T14:35:28.000Z</time>
      </trkpt>
      <trkpt lat="48.63575" lon="7.15415">
        <ele>491.11</ele>
        <time>2020-08-19T14:35:32.000Z</time>
      </trkpt>
      <trkpt lat="48.63575" lon="7.15408">
        <ele>492.35</ele>
        <time>2020-08-19T14:35:35.000Z</time>
      </trkpt>
      <trkpt lat="48.63578" lon="7.15401">
        <ele>493.47</ele>
        <time>2020-08-19T14:35:39.000Z</time>
      </trkpt>
      <trkpt lat="48.63581" lon="7.15394">
        <ele>493.21</ele>
        <time>2020-08-19T14:35:42.000Z</time>
      </trkpt>
      <trkpt lat="48.63582" lon="7.15387">
        <ele>493.27</ele>
        <time>2020-08-19T14:35:47.000Z</time>
      </trkpt>
      <trkpt lat="48.63583" lon="7.1538">
        <ele>495.04</ele>
        <time>2020-08-19T14:35:50.000Z</time>
      </trkpt>
      <trkpt lat="48.63586" lon="7.15374">
        <ele>498.09</ele>
        <time>2020-08-19T14:35:54.000Z</time>
      </trkpt>
      <trkpt lat="48.63586" lon="7.15366">
        <ele>498.94</ele>
        <time>2020-08-19T14:35:57.000Z</time>
      </trkpt>
      <trkpt lat="48.63587" lon="7.15349">
        <ele>497.27</ele>
        <time>2020-08-19T14:36:03.000Z</time>
      </trkpt>
      <trkpt lat="48.6359" lon="7.15343">
        <ele>498.59</ele>
        <time>2020-08-19T14:36:07.000Z</time>
      </trkpt>
      <trkpt lat="48.63591" lon="7.15336">
        <ele>498.68</ele>
        <time>2020-08-19T14:36:10.000Z</time>
      </trkpt>
      <trkpt lat="48.63593" lon="7.15329">
        <ele>499.86</ele>
        <time>2020-08-19T14:36:14.000Z</time>
      </trkpt>
      <trkpt lat="48.63595" lon="7.1532">
        <ele>499.6</ele>
        <time>2020-08-19T14:36:22.000Z</time>
      </trkpt>
      <trkpt lat="48.63597" lon="7.15313">
        <ele>499.46</ele>
        <time>2020-08-19T14:36:26.000Z</time>
      </trkpt>
      <trkpt lat="48.63599" lon="7.15306">
        <ele>502.31</ele>
        <time>2020-08-19T14:36:31.000Z</time>
      </trkpt>
      <trkpt lat="48.63603" lon="7.15299">
        <ele>506.49</ele>
        <time>2020-08-19T14:36:36.000Z</time>
      </trkpt>
      <trkpt lat="48.63607" lon="7.15294">
        <ele>506.65</ele>
        <time>2020-08-19T14:36:39.000Z</time>
      </trkpt>
      <trkpt lat="48.63608" lon="7.15287">
        <ele>507.55</ele>
        <time>2020-08-19T14:36:42.000Z</time>
      </trkpt>
      <trkpt lat="48.63609" lon="7.15279">
        <ele>510.28</ele>
        <time>2020-08-19T14:36:46.000Z</time>
      </trkpt>
      <trkpt lat="48.63613" lon="7.15274">
        <ele>511.3</ele>
        <time>2020-08-19T14:36:51.000Z</time>
      </trkpt>
      <trkpt lat="48.63616" lon="7.15267">
        <ele>508.56</ele>
        <time>2020-08-19T14:36:57.000Z</time>
      </trkpt>
      <trkpt lat="48.6362" lon="7.15264">
        <ele>509.19</ele>
        <time>2020-08-19T14:37:09.000Z</time>
      </trkpt>
      <trkpt lat="48.63624" lon="7.15261">
        <ele>505.01</ele>
        <time>2020-08-19T14:37:19.000Z</time>
      </trkpt>
      <trkpt lat="48.63631" lon="7.15259">
        <ele>500.95</ele>
        <time>2020-08-19T14:37:22.000Z</time>
      </trkpt>
      <trkpt lat="48.63636" lon="7.15259">
        <ele>501.63</ele>
        <time>2020-08-19T14:37:24.000Z</time>
      </trkpt>
      <trkpt lat="48.63642" lon="7.1526">
        <ele>501.82</ele>
        <time>2020-08-19T14:37:27.000Z</time>
      </trkpt>
      <trkpt lat="48.63648" lon="7.15257">
        <ele>501.67</ele>
        <time>2020-08-19T14:37:30.000Z</time>
      </trkpt>
      <trkpt lat="48.63661" lon="7.15248">
        <ele>502.67</ele>
        <time>2020-08-19T14:37:35.000Z</time>
      </trkpt>
      <trkpt lat="48.63683" lon="7.15234">
        <ele>505.82</ele>
        <time>2020-08-19T14:37:43.000Z</time>
      </trkpt>
      <trkpt lat="48.63689" lon="7.15234">
        <ele>506.65</ele>
        <time>2020-08-19T14:37:45.000Z</time>
      </trkpt>
      <trkpt lat="48.6369" lon="7.15227">
        <ele>505.27</ele>
        <time>2020-08-19T14:37:50.000Z</time>
      </trkpt>
      <trkpt lat="48.63687" lon="7.15222">
        <ele>503.52</ele>
        <time>2020-08-19T14:37:56.000Z</time>
      </trkpt>
      <trkpt lat="48.63682" lon="7.1522">
        <ele>503.56</ele>
        <time>2020-08-19T14:38:01.000Z</time>
      </trkpt>
      <trkpt lat="48.63677" lon="7.15224">
        <ele>502.68</ele>
        <time>2020-08-19T14:38:04.000Z</time>
      </trkpt>
      <trkpt lat="48.63673" lon="7.15227">
        <ele>503.89</ele>
        <time>2020-08-19T14:38:10.000Z</time>
      </trkpt>
      <trkpt lat="48.63667" lon="7.1523">
        <ele>504.99</ele>
        <time>2020-08-19T14:38:14.000Z</time>
      </trkpt>
      <trkpt lat="48.63662" lon="7.1523">
        <ele>508.09</ele>
        <time>2020-08-19T14:38:18.000Z</time>
      </trkpt>
      <trkpt lat="48.63657" lon="7.15232">
        <ele>508.59</ele>
        <time>2020-08-19T14:38:22.000Z</time>
      </trkpt>
      <trkpt lat="48.63639" lon="7.15225">
        <ele>501.45</ele>
        <time>2020-08-19T14:38:33.000Z</time>
      </trkpt>
      <trkpt lat="48.63634" lon="7.15222">
        <ele>502.12</ele>
        <time>2020-08-19T14:38:35.000Z</time>
      </trkpt>
      <trkpt lat="48.63629" lon="7.1522">
        <ele>503.21</ele>
        <time>2020-08-19T14:38:37.000Z</time>
      </trkpt>
      <trkpt lat="48.63624" lon="7.15218">
        <ele>502.78</ele>
        <time>2020-08-19T14:38:39.000Z</time>
      </trkpt>
      <trkpt lat="48.6362" lon="7.15216">
        <ele>502.77</ele>
        <time>2020-08-19T14:38:41.000Z</time>
      </trkpt>
      <trkpt lat="48.63615" lon="7.15215">
        <ele>502.62</ele>
        <time>2020-08-19T14:38:43.000Z</time>
      </trkpt>
      <trkpt lat="48.63611" lon="7.15217">
        <ele>503.22</ele>
        <time>2020-08-19T14:38:45.000Z</time>
      </trkpt>
      <trkpt lat="48.63605" lon="7.15221">
        <ele>504.44</ele>
        <time>2020-08-19T14:38:48.000Z</time>
      </trkpt>
      <trkpt lat="48.636" lon="7.15225">
        <ele>504.44</ele>
        <time>2020-08-19T14:38:50.000Z</time>
      </trkpt>
      <trkpt lat="48.63595" lon="7.1523">
        <ele>507.29</ele>
        <time>2020-08-19T14:38:52.000Z</time>
      </trkpt>
      <trkpt lat="48.63591" lon="7.15235">
        <ele>507.06</ele>
        <time>2020-08-19T14:38:54.000Z</time>
      </trkpt>
      <trkpt lat="48.63586" lon="7.15239">
        <ele>507.52</ele>
        <time>2020-08-19T14:38:57.000Z</time>
      </trkpt>
      <trkpt lat="48.63577" lon="7.15256">
        <ele>507.77</ele>
        <time>2020-08-19T14:39:02.000Z</time>
      </trkpt>
      <trkpt lat="48.63574" lon="7.15261">
        <ele>507.83</ele>
        <time>2020-08-19T14:39:04.000Z</time>
      </trkpt>
      <trkpt lat="48.63572" lon="7.15268">
        <ele>508.3</ele>
        <time>2020-08-19T14:39:06.000Z</time>
      </trkpt>
      <trkpt lat="48.63571" lon="7.15275">
        <ele>511.21</ele>
        <time>2020-08-19T14:39:08.000Z</time>
      </trkpt>
      <trkpt lat="48.63568" lon="7.15282">
        <ele>512.97</ele>
        <time>2020-08-19T14:39:11.000Z</time>
      </trkpt>
      <trkpt lat="48.63565" lon="7.15292">
        <ele>514.29</ele>
        <time>2020-08-19T14:39:13.000Z</time>
      </trkpt>
      <trkpt lat="48.63563" lon="7.15301">
        <ele>514.83</ele>
        <time>2020-08-19T14:39:15.000Z</time>
      </trkpt>
      <trkpt lat="48.63562" lon="7.1531">
        <ele>515.32</ele>
        <time>2020-08-19T14:39:17.000Z</time>
      </trkpt>
      <trkpt lat="48.63531" lon="7.15385">
        <ele>516.7</ele>
        <time>2020-08-19T14:39:34.000Z</time>
      </trkpt>
      <trkpt lat="48.63527" lon="7.15381">
        <ele>516.67</ele>
        <time>2020-08-19T14:39:42.000Z</time>
      </trkpt>
      <trkpt lat="48.63527" lon="7.15374">
        <ele>516.24</ele>
        <time>2020-08-19T14:39:51.000Z</time>
      </trkpt>
      <trkpt lat="48.63523" lon="7.15369">
        <ele>515.79</ele>
        <time>2020-08-19T14:39:55.000Z</time>
      </trkpt>
      <trkpt lat="48.63521" lon="7.15363">
        <ele>518.08</ele>
        <time>2020-08-19T14:40:09.000Z</time>
      </trkpt>
      <trkpt lat="48.6352" lon="7.15356">
        <ele>520.46</ele>
        <time>2020-08-19T14:40:15.000Z</time>
      </trkpt>
      <trkpt lat="48.63518" lon="7.15348">
        <ele>519.54</ele>
        <time>2020-08-19T14:40:31.000Z</time>
      </trkpt>
      <trkpt lat="48.63519" lon="7.1534">
        <ele>521.4</ele>
        <time>2020-08-19T14:40:35.000Z</time>
      </trkpt>
      <trkpt lat="48.63519" lon="7.15331">
        <ele>523.78</ele>
        <time>2020-08-19T14:40:39.000Z</time>
      </trkpt>
      <trkpt lat="48.6352" lon="7.15324">
        <ele>526.3</ele>
        <time>2020-08-19T14:40:42.000Z</time>
      </trkpt>
      <trkpt lat="48.63522" lon="7.15317">
        <ele>527.75</ele>
        <time>2020-08-19T14:40:45.000Z</time>
      </trkpt>
      <trkpt lat="48.63524" lon="7.1531">
        <ele>525.31</ele>
        <time>2020-08-19T14:40:48.000Z</time>
      </trkpt>
      <trkpt lat="48.63526" lon="7.15303">
        <ele>525.92</ele>
        <time>2020-08-19T14:40:51.000Z</time>
      </trkpt>
      <trkpt lat="48.63526" lon="7.15295">
        <ele>524.82</ele>
        <time>2020-08-19T14:40:55.000Z</time>
      </trkpt>
      <trkpt lat="48.63526" lon="7.15288">
        <ele>528.34</ele>
        <time>2020-08-19T14:40:59.000Z</time>
      </trkpt>
      <trkpt lat="48.63527" lon="7.1528">
        <ele>528.38</ele>
        <time>2020-08-19T14:41:03.000Z</time>
      </trkpt>
      <trkpt lat="48.63528" lon="7.15273">
        <ele>526.79</ele>
        <time>2020-08-19T14:41:09.000Z</time>
      </trkpt>
      <trkpt lat="48.63529" lon="7.15265">
        <ele>528.54</ele>
        <time>2020-08-19T14:41:13.000Z</time>
      </trkpt>
      <trkpt lat="48.63531" lon="7.15258">
        <ele>526.42</ele>
        <time>2020-08-19T14:41:16.000Z</time>
      </trkpt>
      <trkpt lat="48.63532" lon="7.1525">
        <ele>528.1</ele>
        <time>2020-08-19T14:41:20.000Z</time>
      </trkpt>
      <trkpt lat="48.63531" lon="7.15243">
        <ele>525.41</ele>
        <time>2020-08-19T14:41:24.000Z</time>
      </trkpt>
      <trkpt lat="48.6353" lon="7.15235">
        <ele>528.75</ele>
        <time>2020-08-19T14:41:28.000Z</time>
      </trkpt>
      <trkpt lat="48.63528" lon="7.15227">
        <ele>528.73</ele>
        <time>2020-08-19T14:41:34.000Z</time>
      </trkpt>
      <trkpt lat="48.63528" lon="7.1522">
        <ele>527.91</ele>
        <time>2020-08-19T14:41:38.000Z</time>
      </trkpt>
      <trkpt lat="48.63527" lon="7.15211">
        <ele>527.3</ele>
        <time>2020-08-19T14:41:42.000Z</time>
      </trkpt>
      <trkpt lat="48.63526" lon="7.15205">
        <ele>527.44</ele>
        <time>2020-08-19T14:41:45.000Z</time>
      </trkpt>
      <trkpt lat="48.63523" lon="7.15198">
        <ele>529.24</ele>
        <time>2020-08-19T14:41:50.000Z</time>
      </trkpt>
      <trkpt lat="48.63521" lon="7.15192">
        <ele>529.22</ele>
        <time>2020-08-19T14:41:54.000Z</time>
      </trkpt>
      <trkpt lat="48.63519" lon="7.15185">
        <ele>529.6</ele>
        <time>2020-08-19T14:41:59.000Z</time>
      </trkpt>
      <trkpt lat="48.63518" lon="7.15176">
        <ele>532.34</ele>
        <time>2020-08-19T14:42:07.000Z</time>
      </trkpt>
      <trkpt lat="48.63522" lon="7.1517">
        <ele>528.64</ele>
        <time>2020-08-19T14:42:10.000Z</time>
      </trkpt>
      <trkpt lat="48.63526" lon="7.15164">
        <ele>531.91</ele>
        <time>2020-08-19T14:42:13.000Z</time>
      </trkpt>
      <trkpt lat="48.63527" lon="7.15157">
        <ele>533.54</ele>
        <time>2020-08-19T14:42:30.000Z</time>
      </trkpt>
      <trkpt lat="48.63529" lon="7.15151">
        <ele>531.48</ele>
        <time>2020-08-19T14:42:39.000Z</time>
      </trkpt>
      <trkpt lat="48.63533" lon="7.15145">
        <ele>529.94</ele>
        <time>2020-08-19T14:42:43.000Z</time>
      </trkpt>
      <trkpt lat="48.63537" lon="7.1514">
        <ele>530.86</ele>
        <time>2020-08-19T14:42:46.000Z</time>
      </trkpt>
      <trkpt lat="48.63538" lon="7.15133">
        <ele>528.35</ele>
        <time>2020-08-19T14:42:49.000Z</time>
      </trkpt>
      <trkpt lat="48.63548" lon="7.15123">
        <ele>528.34</ele>
        <time>2020-08-19T14:42:54.000Z</time>
      </trkpt>
      <trkpt lat="48.6357" lon="7.15045">
        <ele>524.41</ele>
        <time>2020-08-19T14:43:17.000Z</time>
      </trkpt>
      <trkpt lat="48.63572" lon="7.15035">
        <ele>524.11</ele>
        <time>2020-08-19T14:43:18.000Z</time>
      </trkpt>
      <trkpt lat="48.63574" lon="7.15027">
        <ele>523.78</ele>
        <time>2020-08-19T14:43:19.000Z</time>
      </trkpt>
      <trkpt lat="48.63577" lon="7.15019">
        <ele>521.89</ele>
        <time>2020-08-19T14:43:20.000Z</time>
      </trkpt>
      <trkpt lat="48.63579" lon="7.15011">
        <ele>523.52</ele>
        <time>2020-08-19T14:43:21.000Z</time>
      </trkpt>
      <trkpt lat="48.63581" lon="7.15003">
        <ele>521.53</ele>
        <time>2020-08-19T14:43:22.000Z</time>
      </trkpt>
      <trkpt lat="48.63582" lon="7.14995">
        <ele>520.64</ele>
        <time>2020-08-19T14:43:23.000Z</time>
      </trkpt>
      <trkpt lat="48.63584" lon="7.14988">
        <ele>520.33</ele>
        <time>2020-08-19T14:43:24.000Z</time>
      </trkpt>
      <trkpt lat="48.63586" lon="7.14981">
        <ele>521.06</ele>
        <time>2020-08-19T14:43:25.000Z</time>
      </trkpt>
      <trkpt lat="48.63591" lon="7.14972">
        <ele>519.68</ele>
        <time>2020-08-19T14:43:27.000Z</time>
      </trkpt>
      <trkpt lat="48.6359" lon="7.14961">
        <ele>523.69</ele>
        <time>2020-08-19T14:43:28.000Z</time>
      </trkpt>
      <trkpt lat="48.63592" lon="7.14954">
        <ele>524.19</ele>
        <time>2020-08-19T14:43:29.000Z</time>
      </trkpt>
      <trkpt lat="48.63596" lon="7.14943">
        <ele>524.2</ele>
        <time>2020-08-19T14:43:31.000Z</time>
      </trkpt>
      <trkpt lat="48.63595" lon="7.14936">
        <ele>524</ele>
        <time>2020-08-19T14:43:33.000Z</time>
      </trkpt>
      <trkpt lat="48.63597" lon="7.14926">
        <ele>525.11</ele>
        <time>2020-08-19T14:43:34.000Z</time>
      </trkpt>
      <trkpt lat="48.636" lon="7.14917">
        <ele>523.92</ele>
        <time>2020-08-19T14:43:36.000Z</time>
      </trkpt>
      <trkpt lat="48.63602" lon="7.14907">
        <ele>525.78</ele>
        <time>2020-08-19T14:43:38.000Z</time>
      </trkpt>
      <trkpt lat="48.63603" lon="7.14896">
        <ele>525.7</ele>
        <time>2020-08-19T14:43:40.000Z</time>
      </trkpt>
      <trkpt lat="48.63605" lon="7.14889">
        <ele>524.83</ele>
        <time>2020-08-19T14:43:41.000Z</time>
      </trkpt>
      <trkpt lat="48.63607" lon="7.14882">
        <ele>524.99</ele>
        <time>2020-08-19T14:43:42.000Z</time>
      </trkpt>
      <trkpt lat="48.63608" lon="7.14874">
        <ele>524.59</ele>
        <time>2020-08-19T14:43:43.000Z</time>
      </trkpt>
      <trkpt lat="48.63607" lon="7.14867">
        <ele>524.93</ele>
        <time>2020-08-19T14:43:44.000Z</time>
      </trkpt>
      <trkpt lat="48.6361" lon="7.14856">
        <ele>525.7</ele>
        <time>2020-08-19T14:43:46.000Z</time>
      </trkpt>
      <trkpt lat="48.63614" lon="7.14837">
        <ele>527.72</ele>
        <time>2020-08-19T14:43:48.000Z</time>
      </trkpt>
      <trkpt lat="48.63617" lon="7.14825">
        <ele>527.15</ele>
        <time>2020-08-19T14:43:50.000Z</time>
      </trkpt>
      <trkpt lat="48.63619" lon="7.14813">
        <ele>525.34</ele>
        <time>2020-08-19T14:43:52.000Z</time>
      </trkpt>
      <trkpt lat="48.63623" lon="7.1481">
        <ele>520.91</ele>
        <time>2020-08-19T14:43:53.000Z</time>
      </trkpt>
      <trkpt lat="48.63628" lon="7.14792">
        <ele>520.51</ele>
        <time>2020-08-19T14:43:56.000Z</time>
      </trkpt>
      <trkpt lat="48.6363" lon="7.14782">
        <ele>520.65</ele>
        <time>2020-08-19T14:43:58.000Z</time>
      </trkpt>
      <trkpt lat="48.63643" lon="7.1475">
        <ele>520.58</ele>
        <time>2020-08-19T14:44:03.000Z</time>
      </trkpt>
      <trkpt lat="48.63649" lon="7.1474">
        <ele>521.09</ele>
        <time>2020-08-19T14:44:05.000Z</time>
      </trkpt>
      <trkpt lat="48.63653" lon="7.14736">
        <ele>522.17</ele>
        <time>2020-08-19T14:44:06.000Z</time>
      </trkpt>
      <trkpt lat="48.63657" lon="7.14731">
        <ele>523.45</ele>
        <time>2020-08-19T14:44:07.000Z</time>
      </trkpt>
      <trkpt lat="48.63662" lon="7.14727">
        <ele>524.97</ele>
        <time>2020-08-19T14:44:09.000Z</time>
      </trkpt>
      <trkpt lat="48.63656" lon="7.1472">
        <ele>526.86</ele>
        <time>2020-08-19T14:44:28.000Z</time>
      </trkpt>
      <trkpt lat="48.63654" lon="7.14728">
        <ele>524.17</ele>
        <time>2020-08-19T14:44:33.000Z</time>
      </trkpt>
      <trkpt lat="48.63645" lon="7.1474">
        <ele>526.25</ele>
        <time>2020-08-19T14:44:36.000Z</time>
      </trkpt>
      <trkpt lat="48.6364" lon="7.14748">
        <ele>526.22</ele>
        <time>2020-08-19T14:44:38.000Z</time>
      </trkpt>
      <trkpt lat="48.63636" lon="7.1475">
        <ele>526.07</ele>
        <time>2020-08-19T14:44:44.000Z</time>
      </trkpt>
      <trkpt lat="48.63629" lon="7.14752">
        <ele>524.32</ele>
        <time>2020-08-19T14:44:46.000Z</time>
      </trkpt>
      <trkpt lat="48.63624" lon="7.14753">
        <ele>524.99</ele>
        <time>2020-08-19T14:44:48.000Z</time>
      </trkpt>
      <trkpt lat="48.63621" lon="7.14747">
        <ele>524.87</ele>
        <time>2020-08-19T14:44:54.000Z</time>
      </trkpt>
      <trkpt lat="48.6362" lon="7.1474">
        <ele>524.69</ele>
        <time>2020-08-19T14:44:56.000Z</time>
      </trkpt>
      <trkpt lat="48.6362" lon="7.14733">
        <ele>524.41</ele>
        <time>2020-08-19T14:44:58.000Z</time>
      </trkpt>
      <trkpt lat="48.6362" lon="7.14724">
        <ele>522.25</ele>
        <time>2020-08-19T14:45:04.000Z</time>
      </trkpt>
      <trkpt lat="48.63622" lon="7.14688">
        <ele>521.16</ele>
        <time>2020-08-19T14:45:12.000Z</time>
      </trkpt>
      <trkpt lat="48.63624" lon="7.14672">
        <ele>522.35</ele>
        <time>2020-08-19T14:45:23.000Z</time>
      </trkpt>
      <trkpt lat="48.63621" lon="7.1468">
        <ele>516.79</ele>
        <time>2020-08-19T14:45:38.000Z</time>
      </trkpt>
      <trkpt lat="48.6362" lon="7.14688">
        <ele>518.68</ele>
        <time>2020-08-19T14:45:47.000Z</time>
      </trkpt>
      <trkpt lat="48.6362" lon="7.14695">
        <ele>517.88</ele>
        <time>2020-08-19T14:45:50.000Z</time>
      </trkpt>
      <trkpt lat="48.63616" lon="7.14703">
        <ele>517.77</ele>
        <time>2020-08-19T14:45:56.000Z</time>
      </trkpt>
      <trkpt lat="48.63617" lon="7.14712">
        <ele>517.87</ele>
        <time>2020-08-19T14:46:00.000Z</time>
      </trkpt>
      <trkpt lat="48.6362" lon="7.14718">
        <ele>517.93</ele>
        <time>2020-08-19T14:46:02.000Z</time>
      </trkpt>
      <trkpt lat="48.63624" lon="7.14724">
        <ele>519.61</ele>
        <time>2020-08-19T14:46:05.000Z</time>
      </trkpt>
      <trkpt lat="48.63627" lon="7.14731">
        <ele>520.42</ele>
        <time>2020-08-19T14:46:09.000Z</time>
      </trkpt>
      <trkpt lat="48.63624" lon="7.14738">
        <ele>522.71</ele>
        <time>2020-08-19T14:46:14.000Z</time>
      </trkpt>
      <trkpt lat="48.63624" lon="7.14744">
        <ele>528.11</ele>
        <time>2020-08-19T14:46:18.000Z</time>
      </trkpt>
      <trkpt lat="48.63622" lon="7.14751">
        <ele>523.75</ele>
        <time>2020-08-19T14:46:23.000Z</time>
      </trkpt>
      <trkpt lat="48.63608" lon="7.14762">
        <ele>524.89</ele>
        <time>2020-08-19T14:46:54.000Z</time>
      </trkpt>
      <trkpt lat="48.63605" lon="7.14768">
        <ele>525.9</ele>
        <time>2020-08-19T14:47:04.000Z</time>
      </trkpt>
      <trkpt lat="48.63581" lon="7.14657">
        <ele>524.46</ele>
        <time>2020-08-19T14:47:26.000Z</time>
      </trkpt>
      <trkpt lat="48.63579" lon="7.1465">
        <ele>514.72</ele>
        <time>2020-08-19T14:47:52.000Z</time>
      </trkpt>
      <trkpt lat="48.63581" lon="7.14643">
        <ele>520.24</ele>
        <time>2020-08-19T14:47:59.000Z</time>
      </trkpt>
      <trkpt lat="48.63582" lon="7.14635">
        <ele>520.93</ele>
        <time>2020-08-19T14:48:09.000Z</time>
      </trkpt>
      <trkpt lat="48.63586" lon="7.14614">
        <ele>518.11</ele>
        <time>2020-08-19T14:48:17.000Z</time>
      </trkpt>
      <trkpt lat="48.63587" lon="7.14607">
        <ele>516.67</ele>
        <time>2020-08-19T14:48:22.000Z</time>
      </trkpt>
      <trkpt lat="48.63589" lon="7.14601">
        <ele>514.82</ele>
        <time>2020-08-19T14:48:26.000Z</time>
      </trkpt>
      <trkpt lat="48.6359" lon="7.14594">
        <ele>517.17</ele>
        <time>2020-08-19T14:48:29.000Z</time>
      </trkpt>
      <trkpt lat="48.63591" lon="7.14586">
        <ele>521.13</ele>
        <time>2020-08-19T14:48:34.000Z</time>
      </trkpt>
      <trkpt lat="48.63588" lon="7.14579">
        <ele>521.41</ele>
        <time>2020-08-19T14:48:49.000Z</time>
      </trkpt>
      <trkpt lat="48.63584" lon="7.14574">
        <ele>524.3</ele>
        <time>2020-08-19T14:48:53.000Z</time>
      </trkpt>
      <trkpt lat="48.63581" lon="7.14566">
        <ele>524.51</ele>
        <time>2020-08-19T14:48:58.000Z</time>
      </trkpt>
      <trkpt lat="48.63582" lon="7.14558">
        <ele>519.43</ele>
        <time>2020-08-19T14:49:04.000Z</time>
      </trkpt>
      <trkpt lat="48.63584" lon="7.1455">
        <ele>516.06</ele>
        <time>2020-08-19T14:49:08.000Z</time>
      </trkpt>
      <trkpt lat="48.63584" lon="7.14543">
        <ele>514.73</ele>
        <time>2020-08-19T14:49:11.000Z</time>
      </trkpt>
      <trkpt lat="48.63581" lon="7.14536">
        <ele>516.78</ele>
        <time>2020-08-19T14:49:15.000Z</time>
      </trkpt>
      <trkpt lat="48.63578" lon="7.14529">
        <ele>515.31</ele>
        <time>2020-08-19T14:49:19.000Z</time>
      </trkpt>
      <trkpt lat="48.63578" lon="7.14521">
        <ele>517.78</ele>
        <time>2020-08-19T14:49:23.000Z</time>
      </trkpt>
      <trkpt lat="48.6358" lon="7.14514">
        <ele>519.21</ele>
        <time>2020-08-19T14:49:27.000Z</time>
      </trkpt>
      <trkpt lat="48.63583" lon="7.14507">
        <ele>521.19</ele>
        <time>2020-08-19T14:49:33.000Z</time>
      </trkpt>
      <trkpt lat="48.63587" lon="7.14499">
        <ele>523.18</ele>
        <time>2020-08-19T14:49:37.000Z</time>
      </trkpt>
      <trkpt lat="48.63588" lon="7.14491">
        <ele>523.71</ele>
        <time>2020-08-19T14:49:42.000Z</time>
      </trkpt>
      <trkpt lat="48.63592" lon="7.14486">
        <ele>523.46</ele>
        <time>2020-08-19T14:49:46.000Z</time>
      </trkpt>
      <trkpt lat="48.63594" lon="7.14479">
        <ele>524.73</ele>
        <time>2020-08-19T14:49:50.000Z</time>
      </trkpt>
      <trkpt lat="48.63597" lon="7.14473">
        <ele>522.8</ele>
        <time>2020-08-19T14:49:55.000Z</time>
      </trkpt>
      <trkpt lat="48.63601" lon="7.14468">
        <ele>525.56</ele>
        <time>2020-08-19T14:50:00.000Z</time>
      </trkpt>
      <trkpt lat="48.63606" lon="7.14464">
        <ele>530.09</ele>
        <time>2020-08-19T14:50:21.000Z</time>
      </trkpt>
      <trkpt lat="48.63611" lon="7.14463">
        <ele>527.14</ele>
        <time>2020-08-19T14:50:25.000Z</time>
      </trkpt>
      <trkpt lat="48.63606" lon="7.14464">
        <ele>527.76</ele>
        <time>2020-08-19T14:50:33.000Z</time>
      </trkpt>
      <trkpt lat="48.636" lon="7.14463">
        <ele>526.31</ele>
        <time>2020-08-19T14:50:38.000Z</time>
      </trkpt>
      <trkpt lat="48.63595" lon="7.14461">
        <ele>525.23</ele>
        <time>2020-08-19T14:50:43.000Z</time>
      </trkpt>
      <trkpt lat="48.63591" lon="7.14456">
        <ele>526.2</ele>
        <time>2020-08-19T14:50:50.000Z</time>
      </trkpt>
      <trkpt lat="48.63587" lon="7.14451">
        <ele>527.97</ele>
        <time>2020-08-19T14:50:58.000Z</time>
      </trkpt>
      <trkpt lat="48.63584" lon="7.14443">
        <ele>528.51</ele>
        <time>2020-08-19T14:51:03.000Z</time>
      </trkpt>
      <trkpt lat="48.63581" lon="7.14438">
        <ele>528.96</ele>
        <time>2020-08-19T14:51:06.000Z</time>
      </trkpt>
      <trkpt lat="48.63577" lon="7.14433">
        <ele>529.38</ele>
        <time>2020-08-19T14:51:10.000Z</time>
      </trkpt>
      <trkpt lat="48.63573" lon="7.14426">
        <ele>531.01</ele>
        <time>2020-08-19T14:51:14.000Z</time>
      </trkpt>
      <trkpt lat="48.6357" lon="7.14421">
        <ele>528.94</ele>
        <time>2020-08-19T14:51:18.000Z</time>
      </trkpt>
      <trkpt lat="48.63568" lon="7.14414">
        <ele>527.97</ele>
        <time>2020-08-19T14:51:22.000Z</time>
      </trkpt>
      <trkpt lat="48.63565" lon="7.14407">
        <ele>527.85</ele>
        <time>2020-08-19T14:51:29.000Z</time>
      </trkpt>
      <trkpt lat="48.63562" lon="7.14401">
        <ele>526.88</ele>
        <time>2020-08-19T14:51:35.000Z</time>
      </trkpt>
      <trkpt lat="48.63561" lon="7.14394">
        <ele>528.2</ele>
        <time>2020-08-19T14:51:43.000Z</time>
      </trkpt>
      <trkpt lat="48.63557" lon="7.14388">
        <ele>528.11</ele>
        <time>2020-08-19T14:51:47.000Z</time>
      </trkpt>
      <trkpt lat="48.63554" lon="7.14383">
        <ele>531.26</ele>
        <time>2020-08-19T14:51:51.000Z</time>
      </trkpt>
      <trkpt lat="48.63549" lon="7.14377">
        <ele>536.68</ele>
        <time>2020-08-19T14:51:55.000Z</time>
      </trkpt>
      <trkpt lat="48.63546" lon="7.14371">
        <ele>531.15</ele>
        <time>2020-08-19T14:51:58.000Z</time>
      </trkpt>
      <trkpt lat="48.63546" lon="7.14364">
        <ele>535.59</ele>
        <time>2020-08-19T14:52:01.000Z</time>
      </trkpt>
      <trkpt lat="48.63543" lon="7.14359">
        <ele>535.57</ele>
        <time>2020-08-19T14:52:05.000Z</time>
      </trkpt>
      <trkpt lat="48.63541" lon="7.14352">
        <ele>536.24</ele>
        <time>2020-08-19T14:52:10.000Z</time>
      </trkpt>
      <trkpt lat="48.63539" lon="7.14345">
        <ele>537.7</ele>
        <time>2020-08-19T14:52:27.000Z</time>
      </trkpt>
      <trkpt lat="48.63534" lon="7.14342">
        <ele>534.91</ele>
        <time>2020-08-19T14:52:31.000Z</time>
      </trkpt>
      <trkpt lat="48.63531" lon="7.14336">
        <ele>533.76</ele>
        <time>2020-08-19T14:52:35.000Z</time>
      </trkpt>
      <trkpt lat="48.63528" lon="7.14331">
        <ele>536.37</ele>
        <time>2020-08-19T14:52:40.000Z</time>
      </trkpt>
      <trkpt lat="48.63524" lon="7.14328">
        <ele>536.3</ele>
        <time>2020-08-19T14:52:46.000Z</time>
      </trkpt>
      <trkpt lat="48.63519" lon="7.14326">
        <ele>537.52</ele>
        <time>2020-08-19T14:52:50.000Z</time>
      </trkpt>
      <trkpt lat="48.63515" lon="7.14323">
        <ele>537.11</ele>
        <time>2020-08-19T14:52:54.000Z</time>
      </trkpt>
      <trkpt lat="48.63511" lon="7.14317">
        <ele>539.14</ele>
        <time>2020-08-19T14:52:58.000Z</time>
      </trkpt>
      <trkpt lat="48.63506" lon="7.14314">
        <ele>538.45</ele>
        <time>2020-08-19T14:53:04.000Z</time>
      </trkpt>
      <trkpt lat="48.63501" lon="7.14312">
        <ele>538.21</ele>
        <time>2020-08-19T14:53:10.000Z</time>
      </trkpt>
      <trkpt lat="48.63496" lon="7.1431">
        <ele>539.96</ele>
        <time>2020-08-19T14:53:14.000Z</time>
      </trkpt>
      <trkpt lat="48.63492" lon="7.14306">
        <ele>539.11</ele>
        <time>2020-08-19T14:53:17.000Z</time>
      </trkpt>
      <trkpt lat="48.63488" lon="7.14301">
        <ele>541.01</ele>
        <time>2020-08-19T14:53:20.000Z</time>
      </trkpt>
      <trkpt lat="48.63484" lon="7.14296">
        <ele>543.46</ele>
        <time>2020-08-19T14:53:24.000Z</time>
      </trkpt>
      <trkpt lat="48.63479" lon="7.14289">
        <ele>546.5</ele>
        <time>2020-08-19T14:53:31.000Z</time>
      </trkpt>
      <trkpt lat="48.63474" lon="7.14287">
        <ele>549.58</ele>
        <time>2020-08-19T14:53:34.000Z</time>
      </trkpt>
      <trkpt lat="48.6347" lon="7.14283">
        <ele>548.22</ele>
        <time>2020-08-19T14:53:37.000Z</time>
      </trkpt>
      <trkpt lat="48.63466" lon="7.14277">
        <ele>548.29</ele>
        <time>2020-08-19T14:53:40.000Z</time>
      </trkpt>
      <trkpt lat="48.63461" lon="7.14271">
        <ele>547.48</ele>
        <time>2020-08-19T14:53:42.000Z</time>
      </trkpt>
      <trkpt lat="48.63457" lon="7.14264">
        <ele>547.41</ele>
        <time>2020-08-19T14:53:44.000Z</time>
      </trkpt>
      <trkpt lat="48.63453" lon="7.14259">
        <ele>545.47</ele>
        <time>2020-08-19T14:53:46.000Z</time>
      </trkpt>
      <trkpt lat="48.6345" lon="7.14252">
        <ele>547.33</ele>
        <time>2020-08-19T14:53:48.000Z</time>
      </trkpt>
      <trkpt lat="48.63445" lon="7.14248">
        <ele>545.1</ele>
        <time>2020-08-19T14:53:51.000Z</time>
      </trkpt>
      <trkpt lat="48.63441" lon="7.1424">
        <ele>546.34</ele>
        <time>2020-08-19T14:53:54.000Z</time>
      </trkpt>
      <trkpt lat="48.6344" lon="7.1423">
        <ele>544.01</ele>
        <time>2020-08-19T14:53:56.000Z</time>
      </trkpt>
      <trkpt lat="48.63439" lon="7.14221">
        <ele>542.48</ele>
        <time>2020-08-19T14:53:58.000Z</time>
      </trkpt>
      <trkpt lat="48.63437" lon="7.14212">
        <ele>542.72</ele>
        <time>2020-08-19T14:54:00.000Z</time>
      </trkpt>
      <trkpt lat="48.63436" lon="7.14205">
        <ele>542.81</ele>
        <time>2020-08-19T14:54:02.000Z</time>
      </trkpt>
      <trkpt lat="48.63434" lon="7.14198">
        <ele>543.06</ele>
        <time>2020-08-19T14:54:04.000Z</time>
      </trkpt>
      <trkpt lat="48.63432" lon="7.14188">
        <ele>542.45</ele>
        <time>2020-08-19T14:54:06.000Z</time>
      </trkpt>
      <trkpt lat="48.63433" lon="7.14178">
        <ele>525.36</ele>
        <time>2020-08-19T14:54:08.000Z</time>
      </trkpt>
      <trkpt lat="48.63434" lon="7.14167">
        <ele>532.79</ele>
        <time>2020-08-19T14:54:10.000Z</time>
      </trkpt>
      <trkpt lat="48.63432" lon="7.14157">
        <ele>537.6</ele>
        <time>2020-08-19T14:54:12.000Z</time>
      </trkpt>
      <trkpt lat="48.63429" lon="7.14153">
        <ele>539.91</ele>
        <time>2020-08-19T14:54:15.000Z</time>
      </trkpt>
      <trkpt lat="48.63399" lon="7.14097">
        <ele>543.06</ele>
        <time>2020-08-19T14:54:36.000Z</time>
      </trkpt>
      <trkpt lat="48.63394" lon="7.14088">
        <ele>542.06</ele>
        <time>2020-08-19T14:54:37.000Z</time>
      </trkpt>
      <trkpt lat="48.63391" lon="7.14079">
        <ele>541.37</ele>
        <time>2020-08-19T14:54:38.000Z</time>
      </trkpt>
      <trkpt lat="48.63388" lon="7.1407">
        <ele>541.33</ele>
        <time>2020-08-19T14:54:39.000Z</time>
      </trkpt>
      <trkpt lat="48.63382" lon="7.14066">
        <ele>541.38</ele>
        <time>2020-08-19T14:54:40.000Z</time>
      </trkpt>
      <trkpt lat="48.63381" lon="7.14054">
        <ele>539.48</ele>
        <time>2020-08-19T14:54:41.000Z</time>
      </trkpt>
      <trkpt lat="48.63377" lon="7.14046">
        <ele>539.42</ele>
        <time>2020-08-19T14:54:42.000Z</time>
      </trkpt>
      <trkpt lat="48.63371" lon="7.1404">
        <ele>539.9</ele>
        <time>2020-08-19T14:54:43.000Z</time>
      </trkpt>
      <trkpt lat="48.63369" lon="7.14033">
        <ele>541.55</ele>
        <time>2020-08-19T14:54:44.000Z</time>
      </trkpt>
      <trkpt lat="48.63364" lon="7.14024">
        <ele>541.99</ele>
        <time>2020-08-19T14:54:45.000Z</time>
      </trkpt>
      <trkpt lat="48.63361" lon="7.14017">
        <ele>541.93</ele>
        <time>2020-08-19T14:54:46.000Z</time>
      </trkpt>
      <trkpt lat="48.63359" lon="7.14007">
        <ele>543.27</ele>
        <time>2020-08-19T14:54:48.000Z</time>
      </trkpt>
      <trkpt lat="48.63356" lon="7.14001">
        <ele>541.07</ele>
        <time>2020-08-19T14:54:49.000Z</time>
      </trkpt>
      <trkpt lat="48.63353" lon="7.13993">
        <ele>541.73</ele>
        <time>2020-08-19T14:54:51.000Z</time>
      </trkpt>
      <trkpt lat="48.63344" lon="7.13986">
        <ele>542.4</ele>
        <time>2020-08-19T14:54:53.000Z</time>
      </trkpt>
      <trkpt lat="48.63339" lon="7.1398">
        <ele>543.12</ele>
        <time>2020-08-19T14:54:54.000Z</time>
      </trkpt>
      <trkpt lat="48.63335" lon="7.13975">
        <ele>542.1</ele>
        <time>2020-08-19T14:54:55.000Z</time>
      </trkpt>
      <trkpt lat="48.6333" lon="7.13972">
        <ele>540.87</ele>
        <time>2020-08-19T14:54:56.000Z</time>
      </trkpt>
      <trkpt lat="48.63322" lon="7.13969">
        <ele>538.22</ele>
        <time>2020-08-19T14:54:57.000Z</time>
      </trkpt>
      <trkpt lat="48.63317" lon="7.13962">
        <ele>542.11</ele>
        <time>2020-08-19T14:54:58.000Z</time>
      </trkpt>
      <trkpt lat="48.63312" lon="7.13959">
        <ele>540.85</ele>
        <time>2020-08-19T14:54:59.000Z</time>
      </trkpt>
      <trkpt lat="48.63308" lon="7.13949">
        <ele>538.64</ele>
        <time>2020-08-19T14:55:00.000Z</time>
      </trkpt>
      <trkpt lat="48.63302" lon="7.13948">
        <ele>537.83</ele>
        <time>2020-08-19T14:55:01.000Z</time>
      </trkpt>
      <trkpt lat="48.63275" lon="7.13934">
        <ele>535.51</ele>
        <time>2020-08-19T14:55:05.000Z</time>
      </trkpt>
      <trkpt lat="48.6327" lon="7.1393">
        <ele>536.57</ele>
        <time>2020-08-19T14:55:06.000Z</time>
      </trkpt>
      <trkpt lat="48.63267" lon="7.13924">
        <ele>536.32</ele>
        <time>2020-08-19T14:55:07.000Z</time>
      </trkpt>
      <trkpt lat="48.63258" lon="7.13919">
        <ele>534.81</ele>
        <time>2020-08-19T14:55:09.000Z</time>
      </trkpt>
      <trkpt lat="48.63248" lon="7.13915">
        <ele>533.97</ele>
        <time>2020-08-19T14:55:11.000Z</time>
      </trkpt>
      <trkpt lat="48.63244" lon="7.1391">
        <ele>532.2</ele>
        <time>2020-08-19T14:55:12.000Z</time>
      </trkpt>
      <trkpt lat="48.63239" lon="7.13904">
        <ele>527.21</ele>
        <time>2020-08-19T14:55:14.000Z</time>
      </trkpt>
      <trkpt lat="48.63233" lon="7.13897">
        <ele>526.99</ele>
        <time>2020-08-19T14:55:16.000Z</time>
      </trkpt>
      <trkpt lat="48.63186" lon="7.13873">
        <ele>521.65</ele>
        <time>2020-08-19T14:55:25.000Z</time>
      </trkpt>
      <trkpt lat="48.63182" lon="7.13869">
        <ele>521.87</ele>
        <time>2020-08-19T14:55:26.000Z</time>
      </trkpt>
      <trkpt lat="48.63178" lon="7.1386">
        <ele>521.84</ele>
        <time>2020-08-19T14:55:28.000Z</time>
      </trkpt>
      <trkpt lat="48.63174" lon="7.13854">
        <ele>521.04</ele>
        <time>2020-08-19T14:55:30.000Z</time>
      </trkpt>
      <trkpt lat="48.63169" lon="7.13846">
        <ele>521.21</ele>
        <time>2020-08-19T14:55:32.000Z</time>
      </trkpt>
      <trkpt lat="48.63167" lon="7.1384">
        <ele>517.48</ele>
        <time>2020-08-19T14:55:34.000Z</time>
      </trkpt>
      <trkpt lat="48.63164" lon="7.13832">
        <ele>519.38</ele>
        <time>2020-08-19T14:55:36.000Z</time>
      </trkpt>
      <trkpt lat="48.63161" lon="7.13825">
        <ele>518</ele>
        <time>2020-08-19T14:55:38.000Z</time>
      </trkpt>
      <trkpt lat="48.63158" lon="7.13819">
        <ele>519.23</ele>
        <time>2020-08-19T14:55:40.000Z</time>
      </trkpt>
      <trkpt lat="48.63156" lon="7.13812">
        <ele>516.06</ele>
        <time>2020-08-19T14:55:51.000Z</time>
      </trkpt>
      <trkpt lat="48.63114" lon="7.13772">
        <ele>512.84</ele>
        <time>2020-08-19T14:56:05.000Z</time>
      </trkpt>
      <trkpt lat="48.63108" lon="7.13769">
        <ele>511.49</ele>
        <time>2020-08-19T14:56:07.000Z</time>
      </trkpt>
      <trkpt lat="48.63104" lon="7.1377">
        <ele>513.41</ele>
        <time>2020-08-19T14:56:15.000Z</time>
      </trkpt>
      <trkpt lat="48.63098" lon="7.13765">
        <ele>513.72</ele>
        <time>2020-08-19T14:56:18.000Z</time>
      </trkpt>
      <trkpt lat="48.63093" lon="7.13759">
        <ele>515.14</ele>
        <time>2020-08-19T14:56:20.000Z</time>
      </trkpt>
      <trkpt lat="48.63088" lon="7.13753">
        <ele>513.57</ele>
        <time>2020-08-19T14:56:22.000Z</time>
      </trkpt>
      <trkpt lat="48.63084" lon="7.13746">
        <ele>512.86</ele>
        <time>2020-08-19T14:56:24.000Z</time>
      </trkpt>
      <trkpt lat="48.63081" lon="7.13741">
        <ele>513.08</ele>
        <time>2020-08-19T14:56:30.000Z</time>
      </trkpt>
      <trkpt lat="48.63075" lon="7.13738">
        <ele>514.17</ele>
        <time>2020-08-19T14:56:45.000Z</time>
      </trkpt>
      <trkpt lat="48.6307" lon="7.1374">
        <ele>514.86</ele>
        <time>2020-08-19T14:56:48.000Z</time>
      </trkpt>
      <trkpt lat="48.63063" lon="7.13741">
        <ele>516.4</ele>
        <time>2020-08-19T14:56:51.000Z</time>
      </trkpt>
      <trkpt lat="48.63058" lon="7.13741">
        <ele>518.12</ele>
        <time>2020-08-19T14:56:53.000Z</time>
      </trkpt>
      <trkpt lat="48.63052" lon="7.13741">
        <ele>518.24</ele>
        <time>2020-08-19T14:56:56.000Z</time>
      </trkpt>
      <trkpt lat="48.63047" lon="7.1374">
        <ele>520.51</ele>
        <time>2020-08-19T14:57:09.000Z</time>
      </trkpt>
      <trkpt lat="48.63042" lon="7.13738">
        <ele>520.97</ele>
        <time>2020-08-19T14:57:24.000Z</time>
      </trkpt>
      <trkpt lat="48.63038" lon="7.13736">
        <ele>524.06</ele>
        <time>2020-08-19T14:57:29.000Z</time>
      </trkpt>
      <trkpt lat="48.63034" lon="7.13733">
        <ele>526.9</ele>
        <time>2020-08-19T14:57:36.000Z</time>
      </trkpt>
      <trkpt lat="48.6303" lon="7.13738">
        <ele>525.48</ele>
        <time>2020-08-19T14:57:42.000Z</time>
      </trkpt>
      <trkpt lat="48.63028" lon="7.13745">
        <ele>521.37</ele>
        <time>2020-08-19T14:57:53.000Z</time>
      </trkpt>
      <trkpt lat="48.63023" lon="7.13746">
        <ele>522.59</ele>
        <time>2020-08-19T14:57:58.000Z</time>
      </trkpt>
      <trkpt lat="48.63018" lon="7.13746">
        <ele>521.62</ele>
        <time>2020-08-19T14:58:04.000Z</time>
      </trkpt>
      <trkpt lat="48.63013" lon="7.13746">
        <ele>513.07</ele>
        <time>2020-08-19T14:58:13.000Z</time>
      </trkpt>
      <trkpt lat="48.63008" lon="7.13745">
        <ele>513.06</ele>
        <time>2020-08-19T14:58:15.000Z</time>
      </trkpt>
      <trkpt lat="48.63002" lon="7.13742">
        <ele>513.13</ele>
        <time>2020-08-19T14:58:18.000Z</time>
      </trkpt>
      <trkpt lat="48.62996" lon="7.1374">
        <ele>511.88</ele>
        <time>2020-08-19T14:58:20.000Z</time>
      </trkpt>
      <trkpt lat="48.6299" lon="7.13739">
        <ele>511.88</ele>
        <time>2020-08-19T14:58:22.000Z</time>
      </trkpt>
      <trkpt lat="48.62983" lon="7.13736">
        <ele>510.65</ele>
        <time>2020-08-19T14:58:24.000Z</time>
      </trkpt>
      <trkpt lat="48.62977" lon="7.13731">
        <ele>509.3</ele>
        <time>2020-08-19T14:58:26.000Z</time>
      </trkpt>
      <trkpt lat="48.62974" lon="7.13726">
        <ele>508.47</ele>
        <time>2020-08-19T14:58:32.000Z</time>
      </trkpt>
      <trkpt lat="48.62968" lon="7.13725">
        <ele>510.32</ele>
        <time>2020-08-19T14:58:57.000Z</time>
      </trkpt>
      <trkpt lat="48.62963" lon="7.13725">
        <ele>508.72</ele>
        <time>2020-08-19T14:58:59.000Z</time>
      </trkpt>
      <trkpt lat="48.62958" lon="7.13724">
        <ele>507.07</ele>
        <time>2020-08-19T14:59:01.000Z</time>
      </trkpt>
      <trkpt lat="48.62953" lon="7.13723">
        <ele>505.34</ele>
        <time>2020-08-19T14:59:03.000Z</time>
      </trkpt>
      <trkpt lat="48.62949" lon="7.13716">
        <ele>505.78</ele>
        <time>2020-08-19T14:59:15.000Z</time>
      </trkpt>
      <trkpt lat="48.62916" lon="7.13693">
        <ele>498.26</ele>
        <time>2020-08-19T14:59:23.000Z</time>
      </trkpt>
      <trkpt lat="48.62914" lon="7.13687">
        <ele>497.94</ele>
        <time>2020-08-19T14:59:24.000Z</time>
      </trkpt>
      <trkpt lat="48.62909" lon="7.13681">
        <ele>495.95</ele>
        <time>2020-08-19T14:59:26.000Z</time>
      </trkpt>
      <trkpt lat="48.62901" lon="7.13676">
        <ele>495.22</ele>
        <time>2020-08-19T14:59:28.000Z</time>
      </trkpt>
      <trkpt lat="48.62896" lon="7.13676">
        <ele>495.51</ele>
        <time>2020-08-19T14:59:30.000Z</time>
      </trkpt>
      <trkpt lat="48.62885" lon="7.1367">
        <ele>493.74</ele>
        <time>2020-08-19T14:59:33.000Z</time>
      </trkpt>
      <trkpt lat="48.62881" lon="7.13666">
        <ele>492.9</ele>
        <time>2020-08-19T14:59:36.000Z</time>
      </trkpt>
      <trkpt lat="48.62877" lon="7.13664">
        <ele>494.78</ele>
        <time>2020-08-19T14:59:45.000Z</time>
      </trkpt>
      <trkpt lat="48.62872" lon="7.1366">
        <ele>495.13</ele>
        <time>2020-08-19T14:59:50.000Z</time>
      </trkpt>
      <trkpt lat="48.62868" lon="7.13657">
        <ele>497.11</ele>
        <time>2020-08-19T14:59:54.000Z</time>
      </trkpt>
      <trkpt lat="48.62865" lon="7.13649">
        <ele>500.84</ele>
        <time>2020-08-19T15:00:00.000Z</time>
      </trkpt>
      <trkpt lat="48.62856" lon="7.13639">
        <ele>495.54</ele>
        <time>2020-08-19T15:00:07.000Z</time>
      </trkpt>
      <trkpt lat="48.62851" lon="7.13636">
        <ele>497.01</ele>
        <time>2020-08-19T15:00:11.000Z</time>
      </trkpt>
      <trkpt lat="48.62847" lon="7.1363">
        <ele>494.48</ele>
        <time>2020-08-19T15:00:15.000Z</time>
      </trkpt>
      <trkpt lat="48.62846" lon="7.13623">
        <ele>494.13</ele>
        <time>2020-08-19T15:00:21.000Z</time>
      </trkpt>
      <trkpt lat="48.62845" lon="7.13615">
        <ele>498.2</ele>
        <time>2020-08-19T15:00:24.000Z</time>
      </trkpt>
      <trkpt lat="48.62841" lon="7.1361">
        <ele>494.03</ele>
        <time>2020-08-19T15:00:27.000Z</time>
      </trkpt>
      <trkpt lat="48.62838" lon="7.13602">
        <ele>496.24</ele>
        <time>2020-08-19T15:00:32.000Z</time>
      </trkpt>
      <trkpt lat="48.62834" lon="7.13598">
        <ele>497.62</ele>
        <time>2020-08-19T15:00:37.000Z</time>
      </trkpt>
      <trkpt lat="48.6283" lon="7.13592">
        <ele>497.69</ele>
        <time>2020-08-19T15:00:41.000Z</time>
      </trkpt>
      <trkpt lat="48.62806" lon="7.13568">
        <ele>498.5</ele>
        <time>2020-08-19T15:00:58.000Z</time>
      </trkpt>
      <trkpt lat="48.62795" lon="7.1354">
        <ele>496.19</ele>
        <time>2020-08-19T15:01:10.000Z</time>
      </trkpt>
      <trkpt lat="48.62792" lon="7.13534">
        <ele>496.21</ele>
        <time>2020-08-19T15:01:12.000Z</time>
      </trkpt>
      <trkpt lat="48.62788" lon="7.13527">
        <ele>494.64</ele>
        <time>2020-08-19T15:01:14.000Z</time>
      </trkpt>
      <trkpt lat="48.62783" lon="7.1352">
        <ele>492.61</ele>
        <time>2020-08-19T15:01:16.000Z</time>
      </trkpt>
      <trkpt lat="48.62778" lon="7.13514">
        <ele>491.93</ele>
        <time>2020-08-19T15:01:18.000Z</time>
      </trkpt>
      <trkpt lat="48.62774" lon="7.13506">
        <ele>491.19</ele>
        <time>2020-08-19T15:01:20.000Z</time>
      </trkpt>
      <trkpt lat="48.62769" lon="7.13498">
        <ele>491.67</ele>
        <time>2020-08-19T15:01:22.000Z</time>
      </trkpt>
      <trkpt lat="48.62766" lon="7.13492">
        <ele>491.13</ele>
        <time>2020-08-19T15:01:24.000Z</time>
      </trkpt>
      <trkpt lat="48.6276" lon="7.13485">
        <ele>491.84</ele>
        <time>2020-08-19T15:01:26.000Z</time>
      </trkpt>
      <trkpt lat="48.62756" lon="7.1348">
        <ele>491.77</ele>
        <time>2020-08-19T15:01:28.000Z</time>
      </trkpt>
      <trkpt lat="48.62754" lon="7.13475">
        <ele>490.74</ele>
        <time>2020-08-19T15:01:32.000Z</time>
      </trkpt>
      <trkpt lat="48.62748" lon="7.13468">
        <ele>492.18</ele>
        <time>2020-08-19T15:01:35.000Z</time>
      </trkpt>
      <trkpt lat="48.62745" lon="7.13463">
        <ele>493.71</ele>
        <time>2020-08-19T15:01:41.000Z</time>
      </trkpt>
      <trkpt lat="48.62741" lon="7.13458">
        <ele>494.31</ele>
        <time>2020-08-19T15:01:46.000Z</time>
      </trkpt>
      <trkpt lat="48.62735" lon="7.13453">
        <ele>490.87</ele>
        <time>2020-08-19T15:01:49.000Z</time>
      </trkpt>
      <trkpt lat="48.62722" lon="7.13437">
        <ele>488.77</ele>
        <time>2020-08-19T15:01:53.000Z</time>
      </trkpt>
      <trkpt lat="48.62716" lon="7.13433">
        <ele>488.05</ele>
        <time>2020-08-19T15:01:55.000Z</time>
      </trkpt>
      <trkpt lat="48.62711" lon="7.13426">
        <ele>486.64</ele>
        <time>2020-08-19T15:01:58.000Z</time>
      </trkpt>
      <trkpt lat="48.62707" lon="7.13416">
        <ele>486.73</ele>
        <time>2020-08-19T15:02:00.000Z</time>
      </trkpt>
      <trkpt lat="48.62706" lon="7.13408">
        <ele>484.03</ele>
        <time>2020-08-19T15:02:02.000Z</time>
      </trkpt>
      <trkpt lat="48.62707" lon="7.134">
        <ele>483.23</ele>
        <time>2020-08-19T15:02:04.000Z</time>
      </trkpt>
      <trkpt lat="48.62709" lon="7.13391">
        <ele>481.7</ele>
        <time>2020-08-19T15:02:06.000Z</time>
      </trkpt>
      <trkpt lat="48.62712" lon="7.13383">
        <ele>481.08</ele>
        <time>2020-08-19T15:02:08.000Z</time>
      </trkpt>
      <trkpt lat="48.62715" lon="7.13377">
        <ele>480.16</ele>
        <time>2020-08-19T15:02:10.000Z</time>
      </trkpt>
      <trkpt lat="48.6272" lon="7.1337">
        <ele>482.94</ele>
        <time>2020-08-19T15:02:12.000Z</time>
      </trkpt>
      <trkpt lat="48.62725" lon="7.13366">
        <ele>481.84</ele>
        <time>2020-08-19T15:02:14.000Z</time>
      </trkpt>
      <trkpt lat="48.62729" lon="7.13362">
        <ele>480.76</ele>
        <time>2020-08-19T15:02:16.000Z</time>
      </trkpt>
      <trkpt lat="48.62734" lon="7.13356">
        <ele>481.14</ele>
        <time>2020-08-19T15:02:18.000Z</time>
      </trkpt>
      <trkpt lat="48.62734" lon="7.1335">
        <ele>479.14</ele>
        <time>2020-08-19T15:02:26.000Z</time>
      </trkpt>
      <trkpt lat="48.62738" lon="7.13346">
        <ele>478.73</ele>
        <time>2020-08-19T15:02:37.000Z</time>
      </trkpt>
      <trkpt lat="48.62745" lon="7.13342">
        <ele>476.62</ele>
        <time>2020-08-19T15:02:39.000Z</time>
      </trkpt>
      <trkpt lat="48.62754" lon="7.13336">
        <ele>475.55</ele>
        <time>2020-08-19T15:02:41.000Z</time>
      </trkpt>
      <trkpt lat="48.62759" lon="7.13334">
        <ele>476.94</ele>
        <time>2020-08-19T15:02:42.000Z</time>
      </trkpt>
      <trkpt lat="48.62763" lon="7.13331">
        <ele>477.79</ele>
        <time>2020-08-19T15:02:43.000Z</time>
      </trkpt>
      <trkpt lat="48.62768" lon="7.13329">
        <ele>474.67</ele>
        <time>2020-08-19T15:02:44.000Z</time>
      </trkpt>
      <trkpt lat="48.62777" lon="7.13321">
        <ele>473.78</ele>
        <time>2020-08-19T15:02:46.000Z</time>
      </trkpt>
      <trkpt lat="48.62786" lon="7.13316">
        <ele>474.32</ele>
        <time>2020-08-19T15:02:48.000Z</time>
      </trkpt>
      <trkpt lat="48.62793" lon="7.13305">
        <ele>475.67</ele>
        <time>2020-08-19T15:02:50.000Z</time>
      </trkpt>
      <trkpt lat="48.62798" lon="7.13298">
        <ele>477.43</ele>
        <time>2020-08-19T15:02:51.000Z</time>
      </trkpt>
      <trkpt lat="48.62803" lon="7.13294">
        <ele>477.54</ele>
        <time>2020-08-19T15:02:53.000Z</time>
      </trkpt>
      <trkpt lat="48.62807" lon="7.13286">
        <ele>477.09</ele>
        <time>2020-08-19T15:02:55.000Z</time>
      </trkpt>
      <trkpt lat="48.62811" lon="7.13277">
        <ele>475.96</ele>
        <time>2020-08-19T15:02:57.000Z</time>
      </trkpt>
      <trkpt lat="48.62817" lon="7.13269">
        <ele>475.57</ele>
        <time>2020-08-19T15:02:59.000Z</time>
      </trkpt>
      <trkpt lat="48.62821" lon="7.13264">
        <ele>474.59</ele>
        <time>2020-08-19T15:03:00.000Z</time>
      </trkpt>
      <trkpt lat="48.62828" lon="7.13256">
        <ele>472.23</ele>
        <time>2020-08-19T15:03:02.000Z</time>
      </trkpt>
      <trkpt lat="48.62831" lon="7.13248">
        <ele>472.74</ele>
        <time>2020-08-19T15:03:03.000Z</time>
      </trkpt>
      <trkpt lat="48.62837" lon="7.1324">
        <ele>472.88</ele>
        <time>2020-08-19T15:03:05.000Z</time>
      </trkpt>
      <trkpt lat="48.62843" lon="7.13232">
        <ele>472.39</ele>
        <time>2020-08-19T15:03:07.000Z</time>
      </trkpt>
      <trkpt lat="48.62846" lon="7.13228">
        <ele>472.03</ele>
        <time>2020-08-19T15:03:08.000Z</time>
      </trkpt>
      <trkpt lat="48.6285" lon="7.13224">
        <ele>471.85</ele>
        <time>2020-08-19T15:03:09.000Z</time>
      </trkpt>
      <trkpt lat="48.62854" lon="7.13221">
        <ele>471.98</ele>
        <time>2020-08-19T15:03:10.000Z</time>
      </trkpt>
      <trkpt lat="48.6286" lon="7.13218">
        <ele>472.02</ele>
        <time>2020-08-19T15:03:11.000Z</time>
      </trkpt>
      <trkpt lat="48.62863" lon="7.13212">
        <ele>471.14</ele>
        <time>2020-08-19T15:03:12.000Z</time>
      </trkpt>
      <trkpt lat="48.62866" lon="7.13206">
        <ele>471.29</ele>
        <time>2020-08-19T15:03:13.000Z</time>
      </trkpt>
      <trkpt lat="48.6287" lon="7.132">
        <ele>470.47</ele>
        <time>2020-08-19T15:03:14.000Z</time>
      </trkpt>
      <trkpt lat="48.62876" lon="7.13189">
        <ele>469.63</ele>
        <time>2020-08-19T15:03:16.000Z</time>
      </trkpt>
      <trkpt lat="48.62878" lon="7.13183">
        <ele>469.99</ele>
        <time>2020-08-19T15:03:17.000Z</time>
      </trkpt>
      <trkpt lat="48.6288" lon="7.13176">
        <ele>470.19</ele>
        <time>2020-08-19T15:03:18.000Z</time>
      </trkpt>
      <trkpt lat="48.62884" lon="7.13159">
        <ele>471.2</ele>
        <time>2020-08-19T15:03:20.000Z</time>
      </trkpt>
      <trkpt lat="48.62888" lon="7.13145">
        <ele>469.67</ele>
        <time>2020-08-19T15:03:22.000Z</time>
      </trkpt>
      <trkpt lat="48.62889" lon="7.13131">
        <ele>468.57</ele>
        <time>2020-08-19T15:03:24.000Z</time>
      </trkpt>
      <trkpt lat="48.62888" lon="7.13122">
        <ele>467.56</ele>
        <time>2020-08-19T15:03:25.000Z</time>
      </trkpt>
      <trkpt lat="48.62887" lon="7.13115">
        <ele>468.05</ele>
        <time>2020-08-19T15:03:26.000Z</time>
      </trkpt>
      <trkpt lat="48.62887" lon="7.13108">
        <ele>467.97</ele>
        <time>2020-08-19T15:03:27.000Z</time>
      </trkpt>
      <trkpt lat="48.62888" lon="7.13095">
        <ele>467.32</ele>
        <time>2020-08-19T15:03:29.000Z</time>
      </trkpt>
      <trkpt lat="48.6289" lon="7.13088">
        <ele>467.39</ele>
        <time>2020-08-19T15:03:30.000Z</time>
      </trkpt>
      <trkpt lat="48.62895" lon="7.13075">
        <ele>465.29</ele>
        <time>2020-08-19T15:03:32.000Z</time>
      </trkpt>
      <trkpt lat="48.62897" lon="7.13069">
        <ele>466.1</ele>
        <time>2020-08-19T15:03:33.000Z</time>
      </trkpt>
      <trkpt lat="48.62898" lon="7.13062">
        <ele>465.86</ele>
        <time>2020-08-19T15:03:34.000Z</time>
      </trkpt>
      <trkpt lat="48.62899" lon="7.13049">
        <ele>466.66</ele>
        <time>2020-08-19T15:03:36.000Z</time>
      </trkpt>
      <trkpt lat="48.62899" lon="7.13038">
        <ele>466.53</ele>
        <time>2020-08-19T15:03:38.000Z</time>
      </trkpt>
      <trkpt lat="48.62894" lon="7.13031">
        <ele>464.77</ele>
        <time>2020-08-19T15:03:40.000Z</time>
      </trkpt>
      <trkpt lat="48.62887" lon="7.13021">
        <ele>465.22</ele>
        <time>2020-08-19T15:03:42.000Z</time>
      </trkpt>
      <trkpt lat="48.62886" lon="7.13014">
        <ele>465.25</ele>
        <time>2020-08-19T15:03:43.000Z</time>
      </trkpt>
      <trkpt lat="48.62883" lon="7.13007">
        <ele>468.28</ele>
        <time>2020-08-19T15:03:49.000Z</time>
      </trkpt>
      <trkpt lat="48.62882" lon="7.13">
        <ele>467.25</ele>
        <time>2020-08-19T15:03:56.000Z</time>
      </trkpt>
      <trkpt lat="48.62877" lon="7.12997">
        <ele>468.87</ele>
        <time>2020-08-19T15:04:03.000Z</time>
      </trkpt>
      <trkpt lat="48.62875" lon="7.1299">
        <ele>468.97</ele>
        <time>2020-08-19T15:04:08.000Z</time>
      </trkpt>
      <trkpt lat="48.62874" lon="7.12983">
        <ele>469.16</ele>
        <time>2020-08-19T15:04:12.000Z</time>
      </trkpt>
      <trkpt lat="48.62872" lon="7.12976">
        <ele>468.36</ele>
        <time>2020-08-19T15:04:16.000Z</time>
      </trkpt>
      <trkpt lat="48.62871" lon="7.12969">
        <ele>466.06</ele>
        <time>2020-08-19T15:04:20.000Z</time>
      </trkpt>
      <trkpt lat="48.62869" lon="7.12962">
        <ele>471.26</ele>
        <time>2020-08-19T15:05:00.000Z</time>
      </trkpt>
      <trkpt lat="48.62867" lon="7.12955">
        <ele>468.84</ele>
        <time>2020-08-19T15:05:04.000Z</time>
      </trkpt>
      <trkpt lat="48.62866" lon="7.12948">
        <ele>469.03</ele>
        <time>2020-08-19T15:05:07.000Z</time>
      </trkpt>
      <trkpt lat="48.62864" lon="7.12942">
        <ele>472.84</ele>
        <time>2020-08-19T15:05:11.000Z</time>
      </trkpt>
      <trkpt lat="48.62864" lon="7.12934">
        <ele>473.84</ele>
        <time>2020-08-19T15:05:21.000Z</time>
      </trkpt>
      <trkpt lat="48.62863" lon="7.12926">
        <ele>472.92</ele>
        <time>2020-08-19T15:05:24.000Z</time>
      </trkpt>
      <trkpt lat="48.62864" lon="7.12917">
        <ele>473.43</ele>
        <time>2020-08-19T15:05:27.000Z</time>
      </trkpt>
      <trkpt lat="48.62866" lon="7.12909">
        <ele>475.31</ele>
        <time>2020-08-19T15:05:30.000Z</time>
      </trkpt>
      <trkpt lat="48.62867" lon="7.12902">
        <ele>473.54</ele>
        <time>2020-08-19T15:05:32.000Z</time>
      </trkpt>
      <trkpt lat="48.62868" lon="7.12895">
        <ele>473.29</ele>
        <time>2020-08-19T15:05:34.000Z</time>
      </trkpt>
      <trkpt lat="48.62869" lon="7.12888">
        <ele>473.81</ele>
        <time>2020-08-19T15:05:36.000Z</time>
      </trkpt>
      <trkpt lat="48.62884" lon="7.12831">
        <ele>473.26</ele>
        <time>2020-08-19T15:05:51.000Z</time>
      </trkpt>
      <trkpt lat="48.62883" lon="7.12824">
        <ele>472.93</ele>
        <time>2020-08-19T15:05:53.000Z</time>
      </trkpt>
      <trkpt lat="48.62884" lon="7.12817">
        <ele>469.28</ele>
        <time>2020-08-19T15:05:55.000Z</time>
      </trkpt>
      <trkpt lat="48.62889" lon="7.12809">
        <ele>465.19</ele>
        <time>2020-08-19T15:05:57.000Z</time>
      </trkpt>
      <trkpt lat="48.62894" lon="7.12805">
        <ele>467.24</ele>
        <time>2020-08-19T15:05:59.000Z</time>
      </trkpt>
      <trkpt lat="48.62897" lon="7.12799">
        <ele>469.19</ele>
        <time>2020-08-19T15:06:02.000Z</time>
      </trkpt>
      <trkpt lat="48.62899" lon="7.12792">
        <ele>464.54</ele>
        <time>2020-08-19T15:06:04.000Z</time>
      </trkpt>
      <trkpt lat="48.62902" lon="7.12785">
        <ele>464.67</ele>
        <time>2020-08-19T15:06:06.000Z</time>
      </trkpt>
      <trkpt lat="48.62907" lon="7.12778">
        <ele>463.02</ele>
        <time>2020-08-19T15:06:08.000Z</time>
      </trkpt>
      <trkpt lat="48.62913" lon="7.12772">
        <ele>463.06</ele>
        <time>2020-08-19T15:06:10.000Z</time>
      </trkpt>
      <trkpt lat="48.62918" lon="7.12768">
        <ele>465.47</ele>
        <time>2020-08-19T15:06:12.000Z</time>
      </trkpt>
      <trkpt lat="48.62921" lon="7.12762">
        <ele>468.59</ele>
        <time>2020-08-19T15:06:14.000Z</time>
      </trkpt>
      <trkpt lat="48.62926" lon="7.12752">
        <ele>472.17</ele>
        <time>2020-08-19T15:06:16.000Z</time>
      </trkpt>
      <trkpt lat="48.62931" lon="7.12746">
        <ele>474.29</ele>
        <time>2020-08-19T15:06:18.000Z</time>
      </trkpt>
      <trkpt lat="48.62935" lon="7.12742">
        <ele>473.03</ele>
        <time>2020-08-19T15:06:20.000Z</time>
      </trkpt>
      <trkpt lat="48.6294" lon="7.12739">
        <ele>473.43</ele>
        <time>2020-08-19T15:06:22.000Z</time>
      </trkpt>
      <trkpt lat="48.62945" lon="7.12734">
        <ele>472.51</ele>
        <time>2020-08-19T15:06:24.000Z</time>
      </trkpt>
      <trkpt lat="48.6295" lon="7.12729">
        <ele>473.4</ele>
        <time>2020-08-19T15:06:26.000Z</time>
      </trkpt>
      <trkpt lat="48.62956" lon="7.12723">
        <ele>474.08</ele>
        <time>2020-08-19T15:06:28.000Z</time>
      </trkpt>
      <trkpt lat="48.62961" lon="7.12717">
        <ele>475.45</ele>
        <time>2020-08-19T15:06:30.000Z</time>
      </trkpt>
      <trkpt lat="48.62967" lon="7.1271">
        <ele>475.16</ele>
        <time>2020-08-19T15:06:32.000Z</time>
      </trkpt>
      <trkpt lat="48.62974" lon="7.12702">
        <ele>476.34</ele>
        <time>2020-08-19T15:06:34.000Z</time>
      </trkpt>
      <trkpt lat="48.62978" lon="7.12698">
        <ele>476.32</ele>
        <time>2020-08-19T15:06:36.000Z</time>
      </trkpt>
      <trkpt lat="48.62984" lon="7.12694">
        <ele>475.76</ele>
        <time>2020-08-19T15:06:38.000Z</time>
      </trkpt>
      <trkpt lat="48.62991" lon="7.1269">
        <ele>474.77</ele>
        <time>2020-08-19T15:06:40.000Z</time>
      </trkpt>
      <trkpt lat="48.62996" lon="7.12689">
        <ele>479.48</ele>
        <time>2020-08-19T15:06:42.000Z</time>
      </trkpt>
      <trkpt lat="48.63001" lon="7.12686">
        <ele>477.75</ele>
        <time>2020-08-19T15:06:44.000Z</time>
      </trkpt>
      <trkpt lat="48.63005" lon="7.12684">
        <ele>475.19</ele>
        <time>2020-08-19T15:06:46.000Z</time>
      </trkpt>
      <trkpt lat="48.63011" lon="7.12679">
        <ele>474.05</ele>
        <time>2020-08-19T15:06:49.000Z</time>
      </trkpt>
      <trkpt lat="48.63016" lon="7.12671">
        <ele>472.87</ele>
        <time>2020-08-19T15:06:51.000Z</time>
      </trkpt>
      <trkpt lat="48.63018" lon="7.1266">
        <ele>472.64</ele>
        <time>2020-08-19T15:06:53.000Z</time>
      </trkpt>
      <trkpt lat="48.63021" lon="7.12649">
        <ele>471.6</ele>
        <time>2020-08-19T15:06:55.000Z</time>
      </trkpt>
      <trkpt lat="48.63024" lon="7.1264">
        <ele>473.8</ele>
        <time>2020-08-19T15:06:57.000Z</time>
      </trkpt>
      <trkpt lat="48.63028" lon="7.12633">
        <ele>472.66</ele>
        <time>2020-08-19T15:06:59.000Z</time>
      </trkpt>
      <trkpt lat="48.63033" lon="7.12625">
        <ele>469.65</ele>
        <time>2020-08-19T15:07:01.000Z</time>
      </trkpt>
      <trkpt lat="48.63037" lon="7.12607">
        <ele>468.78</ele>
        <time>2020-08-19T15:07:03.000Z</time>
      </trkpt>
      <trkpt lat="48.63038" lon="7.12589">
        <ele>469.09</ele>
        <time>2020-08-19T15:07:05.000Z</time>
      </trkpt>
      <trkpt lat="48.63039" lon="7.12581">
        <ele>469.28</ele>
        <time>2020-08-19T15:07:06.000Z</time>
      </trkpt>
      <trkpt lat="48.6304" lon="7.12574">
        <ele>468.24</ele>
        <time>2020-08-19T15:07:07.000Z</time>
      </trkpt>
      <trkpt lat="48.63045" lon="7.12561">
        <ele>466.28</ele>
        <time>2020-08-19T15:07:09.000Z</time>
      </trkpt>
      <trkpt lat="48.63046" lon="7.12547">
        <ele>466.51</ele>
        <time>2020-08-19T15:07:11.000Z</time>
      </trkpt>
      <trkpt lat="48.63045" lon="7.12534">
        <ele>465.03</ele>
        <time>2020-08-19T15:07:13.000Z</time>
      </trkpt>
      <trkpt lat="48.63044" lon="7.12525">
        <ele>463.35</ele>
        <time>2020-08-19T15:07:14.000Z</time>
      </trkpt>
      <trkpt lat="48.63043" lon="7.12517">
        <ele>463.96</ele>
        <time>2020-08-19T15:07:15.000Z</time>
      </trkpt>
      <trkpt lat="48.63043" lon="7.1251">
        <ele>462.59</ele>
        <time>2020-08-19T15:07:16.000Z</time>
      </trkpt>
      <trkpt lat="48.6304" lon="7.12501">
        <ele>463.54</ele>
        <time>2020-08-19T15:07:17.000Z</time>
      </trkpt>
      <trkpt lat="48.63037" lon="7.12493">
        <ele>463.67</ele>
        <time>2020-08-19T15:07:18.000Z</time>
      </trkpt>
      <trkpt lat="48.63036" lon="7.12485">
        <ele>463.08</ele>
        <time>2020-08-19T15:07:19.000Z</time>
      </trkpt>
      <trkpt lat="48.63026" lon="7.12445">
        <ele>468.83</ele>
        <time>2020-08-19T15:07:26.000Z</time>
      </trkpt>
      <trkpt lat="48.63025" lon="7.12438">
        <ele>461.77</ele>
        <time>2020-08-19T15:07:30.000Z</time>
      </trkpt>
      <trkpt lat="48.63023" lon="7.1243">
        <ele>448.49</ele>
        <time>2020-08-19T15:08:28.000Z</time>
      </trkpt>
      <trkpt lat="48.6302" lon="7.12424">
        <ele>448.11</ele>
        <time>2020-08-19T15:08:31.000Z</time>
      </trkpt>
      <trkpt lat="48.63016" lon="7.12421">
        <ele>448.62</ele>
        <time>2020-08-19T15:08:34.000Z</time>
      </trkpt>
      <trkpt lat="48.63011" lon="7.12418">
        <ele>451.52</ele>
        <time>2020-08-19T15:08:51.000Z</time>
      </trkpt>
      <trkpt lat="48.63009" lon="7.12411">
        <ele>452.44</ele>
        <time>2020-08-19T15:09:06.000Z</time>
      </trkpt>
      <trkpt lat="48.63005" lon="7.12406">
        <ele>453.02</ele>
        <time>2020-08-19T15:09:11.000Z</time>
      </trkpt>
      <trkpt lat="48.63001" lon="7.12404">
        <ele>452.12</ele>
        <time>2020-08-19T15:09:18.000Z</time>
      </trkpt>
      <trkpt lat="48.62995" lon="7.12389">
        <ele>445.26</ele>
        <time>2020-08-19T15:10:51.000Z</time>
      </trkpt>
      <trkpt lat="48.62994" lon="7.12372">
        <ele>444.56</ele>
        <time>2020-08-19T15:11:04.000Z</time>
      </trkpt>
      <trkpt lat="48.62998" lon="7.12318">
        <ele>435.02</ele>
        <time>2020-08-19T15:11:20.000Z</time>
      </trkpt>
      <trkpt lat="48.63001" lon="7.12313">
        <ele>435.03</ele>
        <time>2020-08-19T15:11:28.000Z</time>
      </trkpt>
      <trkpt lat="48.63025" lon="7.12278">
        <ele>466.68</ele>
        <time>2020-08-19T15:11:43.000Z</time>
      </trkpt>
      <trkpt lat="48.6303" lon="7.12276">
        <ele>458.24</ele>
        <time>2020-08-19T15:11:45.000Z</time>
      </trkpt>
      <trkpt lat="48.63032" lon="7.1227">
        <ele>435.04</ele>
        <time>2020-08-19T15:11:57.000Z</time>
      </trkpt>
      <trkpt lat="48.63035" lon="7.12262">
        <ele>431.11</ele>
        <time>2020-08-19T15:12:22.000Z</time>
      </trkpt>
      <trkpt lat="48.63039" lon="7.12258">
        <ele>429.99</ele>
        <time>2020-08-19T15:12:25.000Z</time>
      </trkpt>
      <trkpt lat="48.63043" lon="7.12253">
        <ele>427.26</ele>
        <time>2020-08-19T15:12:36.000Z</time>
      </trkpt>
      <trkpt lat="48.63048" lon="7.12252">
        <ele>423.28</ele>
        <time>2020-08-19T15:12:42.000Z</time>
      </trkpt>
      <trkpt lat="48.63051" lon="7.12247">
        <ele>420.78</ele>
        <time>2020-08-19T15:12:47.000Z</time>
      </trkpt>
      <trkpt lat="48.63054" lon="7.12239">
        <ele>421.01</ele>
        <time>2020-08-19T15:12:53.000Z</time>
      </trkpt>
      <trkpt lat="48.63059" lon="7.12239">
        <ele>421.23</ele>
        <time>2020-08-19T15:12:56.000Z</time>
      </trkpt>
      <trkpt lat="48.63067" lon="7.12238">
        <ele>420.89</ele>
        <time>2020-08-19T15:12:59.000Z</time>
      </trkpt>
      <trkpt lat="48.63071" lon="7.12241">
        <ele>419.76</ele>
        <time>2020-08-19T15:13:02.000Z</time>
      </trkpt>
      <trkpt lat="48.63052" lon="7.12227">
        <ele>414.06</ele>
        <time>2020-08-19T15:13:15.000Z</time>
      </trkpt>
      <trkpt lat="48.63055" lon="7.1222">
        <ele>412.92</ele>
        <time>2020-08-19T15:13:26.000Z</time>
      </trkpt>
      <trkpt lat="48.63054" lon="7.12213">
        <ele>411.4</ele>
        <time>2020-08-19T15:13:32.000Z</time>
      </trkpt>
      <trkpt lat="48.63052" lon="7.12206">
        <ele>412.14</ele>
        <time>2020-08-19T15:13:40.000Z</time>
      </trkpt>
      <trkpt lat="48.63042" lon="7.12184">
        <ele>405.42</ele>
        <time>2020-08-19T15:13:46.000Z</time>
      </trkpt>
      <trkpt lat="48.63036" lon="7.12177">
        <ele>404.08</ele>
        <time>2020-08-19T15:13:48.000Z</time>
      </trkpt>
      <trkpt lat="48.62998" lon="7.12142">
        <ele>409.28</ele>
        <time>2020-08-19T15:13:58.000Z</time>
      </trkpt>
      <trkpt lat="48.62989" lon="7.12139">
        <ele>410.03</ele>
        <time>2020-08-19T15:14:00.000Z</time>
      </trkpt>
      <trkpt lat="48.62982" lon="7.12138">
        <ele>406.3</ele>
        <time>2020-08-19T15:14:02.000Z</time>
      </trkpt>
      <trkpt lat="48.62977" lon="7.12135">
        <ele>406.48</ele>
        <time>2020-08-19T15:14:04.000Z</time>
      </trkpt>
      <trkpt lat="48.62971" lon="7.12132">
        <ele>404.84</ele>
        <time>2020-08-19T15:14:06.000Z</time>
      </trkpt>
      <trkpt lat="48.62965" lon="7.12131">
        <ele>403.15</ele>
        <time>2020-08-19T15:14:08.000Z</time>
      </trkpt>
      <trkpt lat="48.62958" lon="7.1213">
        <ele>403.56</ele>
        <time>2020-08-19T15:14:10.000Z</time>
      </trkpt>
      <trkpt lat="48.62953" lon="7.12131">
        <ele>403.68</ele>
        <time>2020-08-19T15:14:13.000Z</time>
      </trkpt>
      <trkpt lat="48.62947" lon="7.12133">
        <ele>404.89</ele>
        <time>2020-08-19T15:14:24.000Z</time>
      </trkpt>
      <trkpt lat="48.62941" lon="7.12134">
        <ele>403.33</ele>
        <time>2020-08-19T15:14:26.000Z</time>
      </trkpt>
      <trkpt lat="48.62935" lon="7.12137">
        <ele>402.7</ele>
        <time>2020-08-19T15:14:28.000Z</time>
      </trkpt>
      <trkpt lat="48.62928" lon="7.1214">
        <ele>400.73</ele>
        <time>2020-08-19T15:14:30.000Z</time>
      </trkpt>
      <trkpt lat="48.62924" lon="7.12142">
        <ele>400.54</ele>
        <time>2020-08-19T15:14:32.000Z</time>
      </trkpt>
      <trkpt lat="48.62919" lon="7.12144">
        <ele>402.44</ele>
        <time>2020-08-19T15:14:34.000Z</time>
      </trkpt>
      <trkpt lat="48.62915" lon="7.12146">
        <ele>401.73</ele>
        <time>2020-08-19T15:14:37.000Z</time>
      </trkpt>
      <trkpt lat="48.62909" lon="7.12147">
        <ele>401.24</ele>
        <time>2020-08-19T15:14:41.000Z</time>
      </trkpt>
      <trkpt lat="48.62904" lon="7.12147">
        <ele>400.07</ele>
        <time>2020-08-19T15:14:45.000Z</time>
      </trkpt>
      <trkpt lat="48.62899" lon="7.12144">
        <ele>397.51</ele>
        <time>2020-08-19T15:14:47.000Z</time>
      </trkpt>
      <trkpt lat="48.62895" lon="7.1214">
        <ele>398.5</ele>
        <time>2020-08-19T15:14:52.000Z</time>
      </trkpt>
      <trkpt lat="48.6289" lon="7.12132">
        <ele>399.68</ele>
        <time>2020-08-19T15:14:58.000Z</time>
      </trkpt>
      <trkpt lat="48.62888" lon="7.12124">
        <ele>397.53</ele>
        <time>2020-08-19T15:15:00.000Z</time>
      </trkpt>
      <trkpt lat="48.62886" lon="7.12116">
        <ele>397.27</ele>
        <time>2020-08-19T15:15:02.000Z</time>
      </trkpt>
      <trkpt lat="48.62885" lon="7.12108">
        <ele>395.36</ele>
        <time>2020-08-19T15:15:04.000Z</time>
      </trkpt>
      <trkpt lat="48.62886" lon="7.12099">
        <ele>391.98</ele>
        <time>2020-08-19T15:15:07.000Z</time>
      </trkpt>
      <trkpt lat="48.62887" lon="7.12092">
        <ele>389.88</ele>
        <time>2020-08-19T15:15:09.000Z</time>
      </trkpt>
      <trkpt lat="48.62887" lon="7.12086">
        <ele>388.97</ele>
        <time>2020-08-19T15:15:11.000Z</time>
      </trkpt>
      <trkpt lat="48.62888" lon="7.12077">
        <ele>387.94</ele>
        <time>2020-08-19T15:15:13.000Z</time>
      </trkpt>
      <trkpt lat="48.62889" lon="7.12066">
        <ele>386.85</ele>
        <time>2020-08-19T15:15:15.000Z</time>
      </trkpt>
      <trkpt lat="48.62891" lon="7.12057">
        <ele>385.5</ele>
        <time>2020-08-19T15:15:17.000Z</time>
      </trkpt>
      <trkpt lat="48.62892" lon="7.1205">
        <ele>383.89</ele>
        <time>2020-08-19T15:15:19.000Z</time>
      </trkpt>
      <trkpt lat="48.62891" lon="7.1204">
        <ele>383.31</ele>
        <time>2020-08-19T15:15:22.000Z</time>
      </trkpt>
      <trkpt lat="48.62889" lon="7.12033">
        <ele>383.14</ele>
        <time>2020-08-19T15:15:24.000Z</time>
      </trkpt>
      <trkpt lat="48.62976" lon="7.11902">
        <ele>369.63</ele>
        <time>2020-08-19T15:15:53.000Z</time>
      </trkpt>
      <trkpt lat="48.6298" lon="7.11895">
        <ele>368.23</ele>
        <time>2020-08-19T15:15:54.000Z</time>
      </trkpt>
      <trkpt lat="48.62983" lon="7.11887">
        <ele>367.27</ele>
        <time>2020-08-19T15:15:55.000Z</time>
      </trkpt>
      <trkpt lat="48.62986" lon="7.11879">
        <ele>366.58</ele>
        <time>2020-08-19T15:15:56.000Z</time>
      </trkpt>
      <trkpt lat="48.6299" lon="7.11873">
        <ele>366.37</ele>
        <time>2020-08-19T15:15:57.000Z</time>
      </trkpt>
      <trkpt lat="48.62998" lon="7.11868">
        <ele>363.19</ele>
        <time>2020-08-19T15:15:59.000Z</time>
      </trkpt>
      <trkpt lat="48.63002" lon="7.11864">
        <ele>366.87</ele>
        <time>2020-08-19T15:16:03.000Z</time>
      </trkpt>
      <trkpt lat="48.63003" lon="7.11855">
        <ele>365.33</ele>
        <time>2020-08-19T15:16:14.000Z</time>
      </trkpt>
      <trkpt lat="48.63004" lon="7.11847">
        <ele>364.74</ele>
        <time>2020-08-19T15:16:16.000Z</time>
      </trkpt>
      <trkpt lat="48.63007" lon="7.11836">
        <ele>364.66</ele>
        <time>2020-08-19T15:16:18.000Z</time>
      </trkpt>
      <trkpt lat="48.63013" lon="7.11826">
        <ele>362.31</ele>
        <time>2020-08-19T15:16:20.000Z</time>
      </trkpt>
      <trkpt lat="48.63015" lon="7.1182">
        <ele>361.6</ele>
        <time>2020-08-19T15:16:21.000Z</time>
      </trkpt>
      <trkpt lat="48.63018" lon="7.11813">
        <ele>361.41</ele>
        <time>2020-08-19T15:16:22.000Z</time>
      </trkpt>
      <trkpt lat="48.6302" lon="7.11808">
        <ele>362.65</ele>
        <time>2020-08-19T15:16:23.000Z</time>
      </trkpt>
      <trkpt lat="48.63022" lon="7.11801">
        <ele>362.51</ele>
        <time>2020-08-19T15:16:24.000Z</time>
      </trkpt>
      <trkpt lat="48.63025" lon="7.11795">
        <ele>363.31</ele>
        <time>2020-08-19T15:16:25.000Z</time>
      </trkpt>
      <trkpt lat="48.63027" lon="7.11788">
        <ele>363.01</ele>
        <time>2020-08-19T15:16:26.000Z</time>
      </trkpt>
      <trkpt lat="48.6303" lon="7.11779">
        <ele>360.42</ele>
        <time>2020-08-19T15:16:28.000Z</time>
      </trkpt>
      <trkpt lat="48.63033" lon="7.11772">
        <ele>361.97</ele>
        <time>2020-08-19T15:16:30.000Z</time>
      </trkpt>
      <trkpt lat="48.63034" lon="7.11762">
        <ele>361.86</ele>
        <time>2020-08-19T15:16:32.000Z</time>
      </trkpt>
      <trkpt lat="48.63034" lon="7.11752">
        <ele>361.03</ele>
        <time>2020-08-19T15:16:34.000Z</time>
      </trkpt>
      <trkpt lat="48.63032" lon="7.11743">
        <ele>359.32</ele>
        <time>2020-08-19T15:16:36.000Z</time>
      </trkpt>
      <trkpt lat="48.63033" lon="7.11731">
        <ele>358.84</ele>
        <time>2020-08-19T15:16:38.000Z</time>
      </trkpt>
      <trkpt lat="48.63033" lon="7.1172">
        <ele>358.43</ele>
        <time>2020-08-19T15:16:40.000Z</time>
      </trkpt>
      <trkpt lat="48.63033" lon="7.1171">
        <ele>357.98</ele>
        <time>2020-08-19T15:16:42.000Z</time>
      </trkpt>
      <trkpt lat="48.63032" lon="7.11701">
        <ele>357.47</ele>
        <time>2020-08-19T15:16:44.000Z</time>
      </trkpt>
      <trkpt lat="48.63036" lon="7.11693">
        <ele>355.53</ele>
        <time>2020-08-19T15:16:46.000Z</time>
      </trkpt>
      <trkpt lat="48.63042" lon="7.11695">
        <ele>356.42</ele>
        <time>2020-08-19T15:16:48.000Z</time>
      </trkpt>
      <trkpt lat="48.63045" lon="7.11701">
        <ele>356.3</ele>
        <time>2020-08-19T15:16:50.000Z</time>
      </trkpt>
      <trkpt lat="48.63047" lon="7.1171">
        <ele>357.12</ele>
        <time>2020-08-19T15:16:52.000Z</time>
      </trkpt>
      <trkpt lat="48.63049" lon="7.11719">
        <ele>357.09</ele>
        <time>2020-08-19T15:16:54.000Z</time>
      </trkpt>
      <trkpt lat="48.63051" lon="7.11728">
        <ele>357.65</ele>
        <time>2020-08-19T15:16:56.000Z</time>
      </trkpt>
      <trkpt lat="48.63053" lon="7.11736">
        <ele>357.03</ele>
        <time>2020-08-19T15:16:58.000Z</time>
      </trkpt>
      <trkpt lat="48.63056" lon="7.11746">
        <ele>358.95</ele>
        <time>2020-08-19T15:17:00.000Z</time>
      </trkpt>
      <trkpt lat="48.6306" lon="7.11755">
        <ele>359.25</ele>
        <time>2020-08-19T15:17:02.000Z</time>
      </trkpt>
      <trkpt lat="48.63064" lon="7.11763">
        <ele>359.21</ele>
        <time>2020-08-19T15:17:04.000Z</time>
      </trkpt>
      <trkpt lat="48.63068" lon="7.11769">
        <ele>358.5</ele>
        <time>2020-08-19T15:17:06.000Z</time>
      </trkpt>
      <trkpt lat="48.63073" lon="7.11775">
        <ele>358.67</ele>
        <time>2020-08-19T15:17:08.000Z</time>
      </trkpt>
      <trkpt lat="48.63079" lon="7.1178">
        <ele>360.62</ele>
        <time>2020-08-19T15:17:10.000Z</time>
      </trkpt>
      <trkpt lat="48.63085" lon="7.11783">
        <ele>362.11</ele>
        <time>2020-08-19T15:17:12.000Z</time>
      </trkpt>
      <trkpt lat="48.6309" lon="7.11782">
        <ele>368.22</ele>
        <time>2020-08-19T15:17:19.000Z</time>
      </trkpt>
      <trkpt lat="48.63095" lon="7.11781">
        <ele>362.36</ele>
        <time>2020-08-19T15:17:24.000Z</time>
      </trkpt>
      <trkpt lat="48.631" lon="7.11784">
        <ele>362.18</ele>
        <time>2020-08-19T15:17:29.000Z</time>
      </trkpt>
      <trkpt lat="48.63104" lon="7.11786">
        <ele>364.47</ele>
        <time>2020-08-19T15:17:34.000Z</time>
      </trkpt>
      <trkpt lat="48.63108" lon="7.1179">
        <ele>369.43</ele>
        <time>2020-08-19T15:17:37.000Z</time>
      </trkpt>
      <trkpt lat="48.63112" lon="7.11787">
        <ele>369.15</ele>
        <time>2020-08-19T15:18:13.000Z</time>
      </trkpt>
      <trkpt lat="48.63117" lon="7.11784">
        <ele>367.82</ele>
        <time>2020-08-19T15:18:21.000Z</time>
      </trkpt>
      <trkpt lat="48.63119" lon="7.11777">
        <ele>371.07</ele>
        <time>2020-08-19T15:18:27.000Z</time>
      </trkpt>
      <trkpt lat="48.6312" lon="7.1177">
        <ele>375.58</ele>
        <time>2020-08-19T15:18:34.000Z</time>
      </trkpt>
      <trkpt lat="48.63119" lon="7.11763">
        <ele>377.84</ele>
        <time>2020-08-19T15:18:38.000Z</time>
      </trkpt>
      <trkpt lat="48.63116" lon="7.11756">
        <ele>376.03</ele>
        <time>2020-08-19T15:18:43.000Z</time>
      </trkpt>
      <trkpt lat="48.63114" lon="7.1175">
        <ele>377.13</ele>
        <time>2020-08-19T15:18:48.000Z</time>
      </trkpt>
      <trkpt lat="48.63116" lon="7.11742">
        <ele>375</ele>
        <time>2020-08-19T15:18:53.000Z</time>
      </trkpt>
      <trkpt lat="48.63116" lon="7.11734">
        <ele>375.19</ele>
        <time>2020-08-19T15:18:57.000Z</time>
      </trkpt>
      <trkpt lat="48.63116" lon="7.11726">
        <ele>377.8</ele>
        <time>2020-08-19T15:19:01.000Z</time>
      </trkpt>
      <trkpt lat="48.63115" lon="7.11719">
        <ele>378</ele>
        <time>2020-08-19T15:19:05.000Z</time>
      </trkpt>
      <trkpt lat="48.63112" lon="7.11713">
        <ele>378.8</ele>
        <time>2020-08-19T15:19:08.000Z</time>
      </trkpt>
      <trkpt lat="48.63111" lon="7.11705">
        <ele>379.62</ele>
        <time>2020-08-19T15:19:12.000Z</time>
      </trkpt>
      <trkpt lat="48.63111" lon="7.11697">
        <ele>381.47</ele>
        <time>2020-08-19T15:19:16.000Z</time>
      </trkpt>
      <trkpt lat="48.6311" lon="7.11689">
        <ele>382.38</ele>
        <time>2020-08-19T15:19:20.000Z</time>
      </trkpt>
      <trkpt lat="48.63109" lon="7.11683">
        <ele>384.35</ele>
        <time>2020-08-19T15:19:24.000Z</time>
      </trkpt>
      <trkpt lat="48.63107" lon="7.11675">
        <ele>383.87</ele>
        <time>2020-08-19T15:19:29.000Z</time>
      </trkpt>
      <trkpt lat="48.63104" lon="7.11667">
        <ele>383.91</ele>
        <time>2020-08-19T15:19:34.000Z</time>
      </trkpt>
      <trkpt lat="48.63104" lon="7.11659">
        <ele>383.91</ele>
        <time>2020-08-19T15:19:39.000Z</time>
      </trkpt>
      <trkpt lat="48.63104" lon="7.11652">
        <ele>383.98</ele>
        <time>2020-08-19T15:19:43.000Z</time>
      </trkpt>
      <trkpt lat="48.63104" lon="7.11645">
        <ele>383.1</ele>
        <time>2020-08-19T15:19:46.000Z</time>
      </trkpt>
      <trkpt lat="48.63101" lon="7.11638">
        <ele>383.13</ele>
        <time>2020-08-19T15:19:50.000Z</time>
      </trkpt>
      <trkpt lat="48.63099" lon="7.11631">
        <ele>382.33</ele>
        <time>2020-08-19T15:19:55.000Z</time>
      </trkpt>
      <trkpt lat="48.63098" lon="7.11623">
        <ele>383.64</ele>
        <time>2020-08-19T15:19:59.000Z</time>
      </trkpt>
      <trkpt lat="48.63097" lon="7.11615">
        <ele>384.24</ele>
        <time>2020-08-19T15:20:03.000Z</time>
      </trkpt>
      <trkpt lat="48.63097" lon="7.11608">
        <ele>386.47</ele>
        <time>2020-08-19T15:20:06.000Z</time>
      </trkpt>
      <trkpt lat="48.63098" lon="7.11601">
        <ele>387.56</ele>
        <time>2020-08-19T15:20:10.000Z</time>
      </trkpt>
      <trkpt lat="48.63096" lon="7.11593">
        <ele>390.01</ele>
        <time>2020-08-19T15:20:14.000Z</time>
      </trkpt>
      <trkpt lat="48.63093" lon="7.11587">
        <ele>390.01</ele>
        <time>2020-08-19T15:20:17.000Z</time>
      </trkpt>
      <trkpt lat="48.63095" lon="7.1158">
        <ele>389.56</ele>
        <time>2020-08-19T15:20:21.000Z</time>
      </trkpt>
      <trkpt lat="48.63095" lon="7.11572">
        <ele>389.74</ele>
        <time>2020-08-19T15:20:25.000Z</time>
      </trkpt>
      <trkpt lat="48.63094" lon="7.11564">
        <ele>391.38</ele>
        <time>2020-08-19T15:20:29.000Z</time>
      </trkpt>
      <trkpt lat="48.63093" lon="7.11557">
        <ele>394.96</ele>
        <time>2020-08-19T15:20:33.000Z</time>
      </trkpt>
      <trkpt lat="48.63092" lon="7.11551">
        <ele>397.93</ele>
        <time>2020-08-19T15:20:38.000Z</time>
      </trkpt>
      <trkpt lat="48.63093" lon="7.11542">
        <ele>398.01</ele>
        <time>2020-08-19T15:20:43.000Z</time>
      </trkpt>
      <trkpt lat="48.63093" lon="7.11534">
        <ele>398.53</ele>
        <time>2020-08-19T15:20:48.000Z</time>
      </trkpt>
      <trkpt lat="48.63094" lon="7.11526">
        <ele>400.32</ele>
        <time>2020-08-19T15:20:56.000Z</time>
      </trkpt>
      <trkpt lat="48.63094" lon="7.11517">
        <ele>401.88</ele>
        <time>2020-08-19T15:20:58.000Z</time>
      </trkpt>
      <trkpt lat="48.63094" lon="7.11508">
        <ele>403.14</ele>
        <time>2020-08-19T15:21:00.000Z</time>
      </trkpt>
      <trkpt lat="48.63094" lon="7.11499">
        <ele>402.93</ele>
        <time>2020-08-19T15:21:02.000Z</time>
      </trkpt>
      <trkpt lat="48.63095" lon="7.11492">
        <ele>402.07</ele>
        <time>2020-08-19T15:21:04.000Z</time>
      </trkpt>
      <trkpt lat="48.63096" lon="7.11485">
        <ele>399.5</ele>
        <time>2020-08-19T15:21:06.000Z</time>
      </trkpt>
      <trkpt lat="48.63097" lon="7.11476">
        <ele>399.94</ele>
        <time>2020-08-19T15:21:08.000Z</time>
      </trkpt>
      <trkpt lat="48.63099" lon="7.11457">
        <ele>398.19</ele>
        <time>2020-08-19T15:21:12.000Z</time>
      </trkpt>
      <trkpt lat="48.631" lon="7.11448">
        <ele>396.58</ele>
        <time>2020-08-19T15:21:14.000Z</time>
      </trkpt>
      <trkpt lat="48.631" lon="7.1144">
        <ele>395.59</ele>
        <time>2020-08-19T15:21:16.000Z</time>
      </trkpt>
      <trkpt lat="48.63105" lon="7.11421">
        <ele>398.17</ele>
        <time>2020-08-19T15:21:20.000Z</time>
      </trkpt>
      <trkpt lat="48.63105" lon="7.11413">
        <ele>396.25</ele>
        <time>2020-08-19T15:21:22.000Z</time>
      </trkpt>
      <trkpt lat="48.63108" lon="7.11405">
        <ele>395.47</ele>
        <time>2020-08-19T15:21:24.000Z</time>
      </trkpt>
      <trkpt lat="48.6311" lon="7.11396">
        <ele>397.75</ele>
        <time>2020-08-19T15:21:26.000Z</time>
      </trkpt>
      <trkpt lat="48.63113" lon="7.11389">
        <ele>399.07</ele>
        <time>2020-08-19T15:21:28.000Z</time>
      </trkpt>
      <trkpt lat="48.63115" lon="7.11381">
        <ele>400.93</ele>
        <time>2020-08-19T15:21:30.000Z</time>
      </trkpt>
      <trkpt lat="48.63117" lon="7.11373">
        <ele>401.2</ele>
        <time>2020-08-19T15:21:32.000Z</time>
      </trkpt>
      <trkpt lat="48.63121" lon="7.11366">
        <ele>399.43</ele>
        <time>2020-08-19T15:21:34.000Z</time>
      </trkpt>
      <trkpt lat="48.63125" lon="7.11359">
        <ele>397.32</ele>
        <time>2020-08-19T15:21:36.000Z</time>
      </trkpt>
      <trkpt lat="48.63127" lon="7.11351">
        <ele>397.93</ele>
        <time>2020-08-19T15:21:38.000Z</time>
      </trkpt>
      <trkpt lat="48.63129" lon="7.11342">
        <ele>396.84</ele>
        <time>2020-08-19T15:21:40.000Z</time>
      </trkpt>
      <trkpt lat="48.63132" lon="7.11334">
        <ele>395.93</ele>
        <time>2020-08-19T15:21:42.000Z</time>
      </trkpt>
      <trkpt lat="48.63135" lon="7.11327">
        <ele>397</ele>
        <time>2020-08-19T15:21:44.000Z</time>
      </trkpt>
      <trkpt lat="48.63136" lon="7.11318">
        <ele>397.84</ele>
        <time>2020-08-19T15:21:46.000Z</time>
      </trkpt>
      <trkpt lat="48.63138" lon="7.11308">
        <ele>400.28</ele>
        <time>2020-08-19T15:21:48.000Z</time>
      </trkpt>
      <trkpt lat="48.63141" lon="7.11298">
        <ele>401.88</ele>
        <time>2020-08-19T15:21:50.000Z</time>
      </trkpt>
      <trkpt lat="48.63143" lon="7.1129">
        <ele>402.72</ele>
        <time>2020-08-19T15:21:52.000Z</time>
      </trkpt>
      <trkpt lat="48.63144" lon="7.11283">
        <ele>403.29</ele>
        <time>2020-08-19T15:21:57.000Z</time>
      </trkpt>
      <trkpt lat="48.63146" lon="7.11276">
        <ele>402.74</ele>
        <time>2020-08-19T15:22:06.000Z</time>
      </trkpt>
      <trkpt lat="48.6315" lon="7.11268">
        <ele>402.28</ele>
        <time>2020-08-19T15:22:09.000Z</time>
      </trkpt>
      <trkpt lat="48.63154" lon="7.11261">
        <ele>402.33</ele>
        <time>2020-08-19T15:22:11.000Z</time>
      </trkpt>
      <trkpt lat="48.6316" lon="7.11254">
        <ele>399.55</ele>
        <time>2020-08-19T15:22:13.000Z</time>
      </trkpt>
      <trkpt lat="48.63164" lon="7.11246">
        <ele>397.99</ele>
        <time>2020-08-19T15:22:15.000Z</time>
      </trkpt>
      <trkpt lat="48.63168" lon="7.11236">
        <ele>396.97</ele>
        <time>2020-08-19T15:22:17.000Z</time>
      </trkpt>
      <trkpt lat="48.63172" lon="7.11225">
        <ele>396.29</ele>
        <time>2020-08-19T15:22:19.000Z</time>
      </trkpt>
      <trkpt lat="48.63175" lon="7.11215">
        <ele>396.05</ele>
        <time>2020-08-19T15:22:21.000Z</time>
      </trkpt>
      <trkpt lat="48.63176" lon="7.11205">
        <ele>394.95</ele>
        <time>2020-08-19T15:22:23.000Z</time>
      </trkpt>
      <trkpt lat="48.63177" lon="7.11195">
        <ele>397.14</ele>
        <time>2020-08-19T15:22:25.000Z</time>
      </trkpt>
      <trkpt lat="48.63177" lon="7.11184">
        <ele>400.67</ele>
        <time>2020-08-19T15:22:27.000Z</time>
      </trkpt>
      <trkpt lat="48.63178" lon="7.11174">
        <ele>401.07</ele>
        <time>2020-08-19T15:22:29.000Z</time>
      </trkpt>
      <trkpt lat="48.63178" lon="7.11163">
        <ele>402.11</ele>
        <time>2020-08-19T15:22:31.000Z</time>
      </trkpt>
      <trkpt lat="48.6318" lon="7.11153">
        <ele>400.65</ele>
        <time>2020-08-19T15:22:33.000Z</time>
      </trkpt>
      <trkpt lat="48.63181" lon="7.11143">
        <ele>398.91</ele>
        <time>2020-08-19T15:22:35.000Z</time>
      </trkpt>
      <trkpt lat="48.63182" lon="7.11132">
        <ele>404.56</ele>
        <time>2020-08-19T15:22:37.000Z</time>
      </trkpt>
      <trkpt lat="48.63184" lon="7.11119">
        <ele>404.69</ele>
        <time>2020-08-19T15:22:39.000Z</time>
      </trkpt>
      <trkpt lat="48.63185" lon="7.11112">
        <ele>403.9</ele>
        <time>2020-08-19T15:22:40.000Z</time>
      </trkpt>
      <trkpt lat="48.63186" lon="7.11099">
        <ele>402.3</ele>
        <time>2020-08-19T15:22:42.000Z</time>
      </trkpt>
      <trkpt lat="48.63187" lon="7.11074">
        <ele>404.86</ele>
        <time>2020-08-19T15:22:45.000Z</time>
      </trkpt>
      <trkpt lat="48.63189" lon="7.11062">
        <ele>404.93</ele>
        <time>2020-08-19T15:22:47.000Z</time>
      </trkpt>
      <trkpt lat="48.6319" lon="7.11049">
        <ele>407.46</ele>
        <time>2020-08-19T15:22:49.000Z</time>
      </trkpt>
      <trkpt lat="48.6319" lon="7.1104">
        <ele>409.3</ele>
        <time>2020-08-19T15:22:51.000Z</time>
      </trkpt>
      <trkpt lat="48.63191" lon="7.11029">
        <ele>409.86</ele>
        <time>2020-08-19T15:22:53.000Z</time>
      </trkpt>
      <trkpt lat="48.6319" lon="7.11015">
        <ele>407.74</ele>
        <time>2020-08-19T15:22:55.000Z</time>
      </trkpt>
      <trkpt lat="48.63188" lon="7.11009">
        <ele>407.39</ele>
        <time>2020-08-19T15:22:56.000Z</time>
      </trkpt>
      <trkpt lat="48.63187" lon="7.11002">
        <ele>407.59</ele>
        <time>2020-08-19T15:22:57.000Z</time>
      </trkpt>
      <trkpt lat="48.63188" lon="7.10994">
        <ele>407.82</ele>
        <time>2020-08-19T15:22:58.000Z</time>
      </trkpt>
      <trkpt lat="48.63187" lon="7.10985">
        <ele>409.15</ele>
        <time>2020-08-19T15:22:59.000Z</time>
      </trkpt>
      <trkpt lat="48.63186" lon="7.10979">
        <ele>409.53</ele>
        <time>2020-08-19T15:23:00.000Z</time>
      </trkpt>
      <trkpt lat="48.63183" lon="7.10951">
        <ele>409.37</ele>
        <time>2020-08-19T15:23:03.000Z</time>
      </trkpt>
      <trkpt lat="48.63184" lon="7.10938">
        <ele>409.43</ele>
        <time>2020-08-19T15:23:04.000Z</time>
      </trkpt>
      <trkpt lat="48.63185" lon="7.10927">
        <ele>408.59</ele>
        <time>2020-08-19T15:23:05.000Z</time>
      </trkpt>
      <trkpt lat="48.63185" lon="7.10918">
        <ele>407.57</ele>
        <time>2020-08-19T15:23:06.000Z</time>
      </trkpt>
      <trkpt lat="48.63187" lon="7.10908">
        <ele>405.51</ele>
        <time>2020-08-19T15:23:07.000Z</time>
      </trkpt>
      <trkpt lat="48.63188" lon="7.10899">
        <ele>404.9</ele>
        <time>2020-08-19T15:23:08.000Z</time>
      </trkpt>
      <trkpt lat="48.6319" lon="7.10889">
        <ele>404.31</ele>
        <time>2020-08-19T15:23:09.000Z</time>
      </trkpt>
      <trkpt lat="48.63192" lon="7.10877">
        <ele>403.72</ele>
        <time>2020-08-19T15:23:10.000Z</time>
      </trkpt>
      <trkpt lat="48.63191" lon="7.10865">
        <ele>403.03</ele>
        <time>2020-08-19T15:23:11.000Z</time>
      </trkpt>
      <trkpt lat="48.63194" lon="7.10858">
        <ele>402.12</ele>
        <time>2020-08-19T15:23:12.000Z</time>
      </trkpt>
      <trkpt lat="48.63198" lon="7.10851">
        <ele>401.11</ele>
        <time>2020-08-19T15:23:13.000Z</time>
      </trkpt>
      <trkpt lat="48.63201" lon="7.10843">
        <ele>401.7</ele>
        <time>2020-08-19T15:23:14.000Z</time>
      </trkpt>
      <trkpt lat="48.632" lon="7.10833">
        <ele>401.52</ele>
        <time>2020-08-19T15:23:15.000Z</time>
      </trkpt>
      <trkpt lat="48.63201" lon="7.10823">
        <ele>401.37</ele>
        <time>2020-08-19T15:23:16.000Z</time>
      </trkpt>
      <trkpt lat="48.63201" lon="7.10812">
        <ele>399.95</ele>
        <time>2020-08-19T15:23:17.000Z</time>
      </trkpt>
      <trkpt lat="48.63202" lon="7.10801">
        <ele>399.46</ele>
        <time>2020-08-19T15:23:18.000Z</time>
      </trkpt>
      <trkpt lat="48.63204" lon="7.10788">
        <ele>397.94</ele>
        <time>2020-08-19T15:23:19.000Z</time>
      </trkpt>
      <trkpt lat="48.63205" lon="7.10774">
        <ele>395.7</ele>
        <time>2020-08-19T15:23:20.000Z</time>
      </trkpt>
      <trkpt lat="48.63208" lon="7.10764">
        <ele>394.89</ele>
        <time>2020-08-19T15:23:21.000Z</time>
      </trkpt>
      <trkpt lat="48.63211" lon="7.10752">
        <ele>394.38</ele>
        <time>2020-08-19T15:23:22.000Z</time>
      </trkpt>
      <trkpt lat="48.63214" lon="7.1074">
        <ele>393.29</ele>
        <time>2020-08-19T15:23:23.000Z</time>
      </trkpt>
      <trkpt lat="48.63216" lon="7.10729">
        <ele>392.17</ele>
        <time>2020-08-19T15:23:24.000Z</time>
      </trkpt>
      <trkpt lat="48.63217" lon="7.10721">
        <ele>391.59</ele>
        <time>2020-08-19T15:23:25.000Z</time>
      </trkpt>
      <trkpt lat="48.63219" lon="7.10713">
        <ele>391.61</ele>
        <time>2020-08-19T15:23:26.000Z</time>
      </trkpt>
      <trkpt lat="48.6322" lon="7.10704">
        <ele>391.18</ele>
        <time>2020-08-19T15:23:27.000Z</time>
      </trkpt>
      <trkpt lat="48.63222" lon="7.10695">
        <ele>391.68</ele>
        <time>2020-08-19T15:23:28.000Z</time>
      </trkpt>
      <trkpt lat="48.63224" lon="7.10688">
        <ele>391.05</ele>
        <time>2020-08-19T15:23:29.000Z</time>
      </trkpt>
      <trkpt lat="48.63226" lon="7.10679">
        <ele>389.84</ele>
        <time>2020-08-19T15:23:30.000Z</time>
      </trkpt>
      <trkpt lat="48.63227" lon="7.10669">
        <ele>388.98</ele>
        <time>2020-08-19T15:23:31.000Z</time>
      </trkpt>
      <trkpt lat="48.63229" lon="7.1066">
        <ele>388.1</ele>
        <time>2020-08-19T15:23:32.000Z</time>
      </trkpt>
      <trkpt lat="48.63232" lon="7.10652">
        <ele>389.34</ele>
        <time>2020-08-19T15:23:33.000Z</time>
      </trkpt>
      <trkpt lat="48.63235" lon="7.10643">
        <ele>388.91</ele>
        <time>2020-08-19T15:23:34.000Z</time>
      </trkpt>
      <trkpt lat="48.63235" lon="7.10636">
        <ele>388.53</ele>
        <time>2020-08-19T15:23:35.000Z</time>
      </trkpt>
      <trkpt lat="48.63237" lon="7.10628">
        <ele>387.22</ele>
        <time>2020-08-19T15:23:36.000Z</time>
      </trkpt>
      <trkpt lat="48.63239" lon="7.10621">
        <ele>385.86</ele>
        <time>2020-08-19T15:23:37.000Z</time>
      </trkpt>
      <trkpt lat="48.63241" lon="7.10614">
        <ele>385.19</ele>
        <time>2020-08-19T15:23:38.000Z</time>
      </trkpt>
      <trkpt lat="48.63244" lon="7.10608">
        <ele>384.19</ele>
        <time>2020-08-19T15:23:39.000Z</time>
      </trkpt>
      <trkpt lat="48.63246" lon="7.10602">
        <ele>382.97</ele>
        <time>2020-08-19T15:23:40.000Z</time>
      </trkpt>
      <trkpt lat="48.63249" lon="7.10596">
        <ele>381.03</ele>
        <time>2020-08-19T15:23:41.000Z</time>
      </trkpt>
      <trkpt lat="48.63254" lon="7.10592">
        <ele>379.44</ele>
        <time>2020-08-19T15:23:43.000Z</time>
      </trkpt>
      <trkpt lat="48.63249" lon="7.10593">
        <ele>380.04</ele>
        <time>2020-08-19T15:23:53.000Z</time>
      </trkpt>
      <trkpt lat="48.63253" lon="7.10588">
        <ele>381.18</ele>
        <time>2020-08-19T15:24:39.000Z</time>
      </trkpt>
      <trkpt lat="48.63258" lon="7.1058">
        <ele>378.45</ele>
        <time>2020-08-19T15:24:41.000Z</time>
      </trkpt>
      <trkpt lat="48.63262" lon="7.10574">
        <ele>376.76</ele>
        <time>2020-08-19T15:24:42.000Z</time>
      </trkpt>
      <trkpt lat="48.63265" lon="7.10568">
        <ele>376.03</ele>
        <time>2020-08-19T15:24:43.000Z</time>
      </trkpt>
      <trkpt lat="48.63268" lon="7.1056">
        <ele>374.68</ele>
        <time>2020-08-19T15:24:44.000Z</time>
      </trkpt>
      <trkpt lat="48.63271" lon="7.1055">
        <ele>375.71</ele>
        <time>2020-08-19T15:24:45.000Z</time>
      </trkpt>
      <trkpt lat="48.63275" lon="7.10542">
        <ele>373.83</ele>
        <time>2020-08-19T15:24:46.000Z</time>
      </trkpt>
      <trkpt lat="48.63279" lon="7.10532">
        <ele>372.36</ele>
        <time>2020-08-19T15:24:47.000Z</time>
      </trkpt>
      <trkpt lat="48.63284" lon="7.10522">
        <ele>372.01</ele>
        <time>2020-08-19T15:24:48.000Z</time>
      </trkpt>
      <trkpt lat="48.63287" lon="7.10514">
        <ele>371.01</ele>
        <time>2020-08-19T15:24:49.000Z</time>
      </trkpt>
      <trkpt lat="48.6329" lon="7.10505">
        <ele>369.96</ele>
        <time>2020-08-19T15:24:50.000Z</time>
      </trkpt>
      <trkpt lat="48.63293" lon="7.10497">
        <ele>368.82</ele>
        <time>2020-08-19T15:24:51.000Z</time>
      </trkpt>
      <trkpt lat="48.63296" lon="7.10489">
        <ele>367.71</ele>
        <time>2020-08-19T15:24:52.000Z</time>
      </trkpt>
      <trkpt lat="48.633" lon="7.10482">
        <ele>367.03</ele>
        <time>2020-08-19T15:24:53.000Z</time>
      </trkpt>
      <trkpt lat="48.63304" lon="7.10475">
        <ele>365.26</ele>
        <time>2020-08-19T15:24:54.000Z</time>
      </trkpt>
      <trkpt lat="48.63309" lon="7.10467">
        <ele>364.42</ele>
        <time>2020-08-19T15:24:55.000Z</time>
      </trkpt>
      <trkpt lat="48.6332" lon="7.10452">
        <ele>361.5</ele>
        <time>2020-08-19T15:24:57.000Z</time>
      </trkpt>
      <trkpt lat="48.63324" lon="7.10445">
        <ele>360.85</ele>
        <time>2020-08-19T15:24:58.000Z</time>
      </trkpt>
      <trkpt lat="48.63328" lon="7.10439">
        <ele>360.1</ele>
        <time>2020-08-19T15:24:59.000Z</time>
      </trkpt>
      <trkpt lat="48.63332" lon="7.10435">
        <ele>359.18</ele>
        <time>2020-08-19T15:25:00.000Z</time>
      </trkpt>
      <trkpt lat="48.63338" lon="7.10429">
        <ele>357.22</ele>
        <time>2020-08-19T15:25:02.000Z</time>
      </trkpt>
      <trkpt lat="48.63343" lon="7.10426">
        <ele>356.47</ele>
        <time>2020-08-19T15:25:31.000Z</time>
      </trkpt>
      <trkpt lat="48.63347" lon="7.10423">
        <ele>357.09</ele>
        <time>2020-08-19T15:25:33.000Z</time>
      </trkpt>
      <trkpt lat="48.63353" lon="7.10422">
        <ele>356.56</ele>
        <time>2020-08-19T15:25:35.000Z</time>
      </trkpt>
      <trkpt lat="48.63361" lon="7.10421">
        <ele>355.78</ele>
        <time>2020-08-19T15:25:37.000Z</time>
      </trkpt>
      <trkpt lat="48.63369" lon="7.10419">
        <ele>354.35</ele>
        <time>2020-08-19T15:25:39.000Z</time>
      </trkpt>
      <trkpt lat="48.63378" lon="7.10417">
        <ele>355.09</ele>
        <time>2020-08-19T15:25:41.000Z</time>
      </trkpt>
      <trkpt lat="48.63382" lon="7.10417">
        <ele>354.9</ele>
        <time>2020-08-19T15:25:42.000Z</time>
      </trkpt>
      <trkpt lat="48.63387" lon="7.10415">
        <ele>355.47</ele>
        <time>2020-08-19T15:25:43.000Z</time>
      </trkpt>
      <trkpt lat="48.63392" lon="7.10413">
        <ele>356.03</ele>
        <time>2020-08-19T15:25:44.000Z</time>
      </trkpt>
      <trkpt lat="48.63397" lon="7.10412">
        <ele>356</ele>
        <time>2020-08-19T15:25:45.000Z</time>
      </trkpt>
      <trkpt lat="48.63404" lon="7.10407">
        <ele>355.22</ele>
        <time>2020-08-19T15:25:47.000Z</time>
      </trkpt>
      <trkpt lat="48.63409" lon="7.10404">
        <ele>355.97</ele>
        <time>2020-08-19T15:25:48.000Z</time>
      </trkpt>
      <trkpt lat="48.63417" lon="7.10399">
        <ele>356.19</ele>
        <time>2020-08-19T15:25:50.000Z</time>
      </trkpt>
      <trkpt lat="48.63422" lon="7.10397">
        <ele>356.05</ele>
        <time>2020-08-19T15:25:51.000Z</time>
      </trkpt>
      <trkpt lat="48.63426" lon="7.10394">
        <ele>355.07</ele>
        <time>2020-08-19T15:25:52.000Z</time>
      </trkpt>
      <trkpt lat="48.63431" lon="7.10391">
        <ele>354.75</ele>
        <time>2020-08-19T15:25:53.000Z</time>
      </trkpt>
      <trkpt lat="48.63435" lon="7.10388">
        <ele>354.51</ele>
        <time>2020-08-19T15:25:54.000Z</time>
      </trkpt>
      <trkpt lat="48.6344" lon="7.10385">
        <ele>355.06</ele>
        <time>2020-08-19T15:25:55.000Z</time>
      </trkpt>
      <trkpt lat="48.63444" lon="7.10382">
        <ele>354.95</ele>
        <time>2020-08-19T15:25:56.000Z</time>
      </trkpt>
      <trkpt lat="48.63451" lon="7.10375">
        <ele>357.16</ele>
        <time>2020-08-19T15:25:58.000Z</time>
      </trkpt>
      <trkpt lat="48.63455" lon="7.1037">
        <ele>357.54</ele>
        <time>2020-08-19T15:25:59.000Z</time>
      </trkpt>
      <trkpt lat="48.63461" lon="7.1036">
        <ele>356.92</ele>
        <time>2020-08-19T15:26:01.000Z</time>
      </trkpt>
      <trkpt lat="48.63463" lon="7.10354">
        <ele>356.49</ele>
        <time>2020-08-19T15:26:02.000Z</time>
      </trkpt>
      <trkpt lat="48.63465" lon="7.10348">
        <ele>356.68</ele>
        <time>2020-08-19T15:26:03.000Z</time>
      </trkpt>
      <trkpt lat="48.63467" lon="7.10341">
        <ele>356.33</ele>
        <time>2020-08-19T15:26:04.000Z</time>
      </trkpt>
      <trkpt lat="48.63469" lon="7.10334">
        <ele>356.44</ele>
        <time>2020-08-19T15:26:05.000Z</time>
      </trkpt>
      <trkpt lat="48.63472" lon="7.10328">
        <ele>356.4</ele>
        <time>2020-08-19T15:26:06.000Z</time>
      </trkpt>
      <trkpt lat="48.63475" lon="7.10316">
        <ele>355.75</ele>
        <time>2020-08-19T15:26:08.000Z</time>
      </trkpt>
      <trkpt lat="48.63477" lon="7.10305">
        <ele>355.92</ele>
        <time>2020-08-19T15:26:10.000Z</time>
      </trkpt>
      <trkpt lat="48.63481" lon="7.10293">
        <ele>354.7</ele>
        <time>2020-08-19T15:26:12.000Z</time>
      </trkpt>
      <trkpt lat="48.63485" lon="7.10283">
        <ele>354.71</ele>
        <time>2020-08-19T15:26:14.000Z</time>
      </trkpt>
      <trkpt lat="48.6349" lon="7.10273">
        <ele>355.78</ele>
        <time>2020-08-19T15:26:16.000Z</time>
      </trkpt>
      <trkpt lat="48.63495" lon="7.10264">
        <ele>357.69</ele>
        <time>2020-08-19T15:26:18.000Z</time>
      </trkpt>
      <trkpt lat="48.63499" lon="7.10254">
        <ele>358.27</ele>
        <time>2020-08-19T15:26:20.000Z</time>
      </trkpt>
      <trkpt lat="48.63504" lon="7.10245">
        <ele>358.28</ele>
        <time>2020-08-19T15:26:22.000Z</time>
      </trkpt>
      <trkpt lat="48.63509" lon="7.10235">
        <ele>358.1</ele>
        <time>2020-08-19T15:26:24.000Z</time>
      </trkpt>
      <trkpt lat="48.63514" lon="7.10226">
        <ele>357.37</ele>
        <time>2020-08-19T15:26:26.000Z</time>
      </trkpt>
      <trkpt lat="48.63518" lon="7.10217">
        <ele>356.35</ele>
        <time>2020-08-19T15:26:28.000Z</time>
      </trkpt>
      <trkpt lat="48.63521" lon="7.1021">
        <ele>356.79</ele>
        <time>2020-08-19T15:26:30.000Z</time>
      </trkpt>
      <trkpt lat="48.63518" lon="7.10218">
        <ele>360.12</ele>
        <time>2020-08-19T15:26:56.000Z</time>
      </trkpt>
      <trkpt lat="48.63516" lon="7.10224">
        <ele>361.21</ele>
        <time>2020-08-19T15:26:59.000Z</time>
      </trkpt>
      <trkpt lat="48.63513" lon="7.1023">
        <ele>363.8</ele>
        <time>2020-08-19T15:27:01.000Z</time>
      </trkpt>
      <trkpt lat="48.63513" lon="7.10241">
        <ele>363.36</ele>
        <time>2020-08-19T15:27:03.000Z</time>
      </trkpt>
      <trkpt lat="48.63515" lon="7.10249">
        <ele>365.66</ele>
        <time>2020-08-19T15:27:05.000Z</time>
      </trkpt>
      <trkpt lat="48.6352" lon="7.10255">
        <ele>366.39</ele>
        <time>2020-08-19T15:27:07.000Z</time>
      </trkpt>
      <trkpt lat="48.63525" lon="7.10261">
        <ele>366.39</ele>
        <time>2020-08-19T15:27:09.000Z</time>
      </trkpt>
      <trkpt lat="48.63532" lon="7.10266">
        <ele>368.35</ele>
        <time>2020-08-19T15:27:11.000Z</time>
      </trkpt>
      <trkpt lat="48.63539" lon="7.10268">
        <ele>369.07</ele>
        <time>2020-08-19T15:27:13.000Z</time>
      </trkpt>
      <trkpt lat="48.63547" lon="7.10265">
        <ele>371.02</ele>
        <time>2020-08-19T15:27:15.000Z</time>
      </trkpt>
      <trkpt lat="48.63553" lon="7.10257">
        <ele>369.14</ele>
        <time>2020-08-19T15:27:17.000Z</time>
      </trkpt>
      <trkpt lat="48.63557" lon="7.10246">
        <ele>369.09</ele>
        <time>2020-08-19T15:27:19.000Z</time>
      </trkpt>
      <trkpt lat="48.63561" lon="7.10237">
        <ele>368.69</ele>
        <time>2020-08-19T15:27:21.000Z</time>
      </trkpt>
      <trkpt lat="48.63565" lon="7.10228">
        <ele>369.49</ele>
        <time>2020-08-19T15:27:23.000Z</time>
      </trkpt>
      <trkpt lat="48.63569" lon="7.10219">
        <ele>370.8</ele>
        <time>2020-08-19T15:27:25.000Z</time>
      </trkpt>
      <trkpt lat="48.63572" lon="7.1021">
        <ele>371.92</ele>
        <time>2020-08-19T15:27:27.000Z</time>
      </trkpt>
      <trkpt lat="48.63576" lon="7.10202">
        <ele>372.25</ele>
        <time>2020-08-19T15:27:29.000Z</time>
      </trkpt>
      <trkpt lat="48.6358" lon="7.10194">
        <ele>373.37</ele>
        <time>2020-08-19T15:27:31.000Z</time>
      </trkpt>
      <trkpt lat="48.63584" lon="7.10185">
        <ele>373.68</ele>
        <time>2020-08-19T15:27:33.000Z</time>
      </trkpt>
      <trkpt lat="48.63587" lon="7.10176">
        <ele>374.24</ele>
        <time>2020-08-19T15:27:35.000Z</time>
      </trkpt>
      <trkpt lat="48.63589" lon="7.10167">
        <ele>374.54</ele>
        <time>2020-08-19T15:27:37.000Z</time>
      </trkpt>
      <trkpt lat="48.63592" lon="7.10156">
        <ele>375.2</ele>
        <time>2020-08-19T15:27:39.000Z</time>
      </trkpt>
      <trkpt lat="48.63594" lon="7.10146">
        <ele>375.13</ele>
        <time>2020-08-19T15:27:41.000Z</time>
      </trkpt>
      <trkpt lat="48.63595" lon="7.10136">
        <ele>375.65</ele>
        <time>2020-08-19T15:27:43.000Z</time>
      </trkpt>
      <trkpt lat="48.63597" lon="7.10125">
        <ele>376.33</ele>
        <time>2020-08-19T15:27:45.000Z</time>
      </trkpt>
      <trkpt lat="48.63598" lon="7.10115">
        <ele>377.83</ele>
        <time>2020-08-19T15:27:47.000Z</time>
      </trkpt>
      <trkpt lat="48.636" lon="7.10105">
        <ele>377.08</ele>
        <time>2020-08-19T15:27:49.000Z</time>
      </trkpt>
      <trkpt lat="48.63603" lon="7.10095">
        <ele>376.88</ele>
        <time>2020-08-19T15:27:51.000Z</time>
      </trkpt>
      <trkpt lat="48.63605" lon="7.10085">
        <ele>377.87</ele>
        <time>2020-08-19T15:27:53.000Z</time>
      </trkpt>
      <trkpt lat="48.63608" lon="7.10076">
        <ele>378.5</ele>
        <time>2020-08-19T15:27:55.000Z</time>
      </trkpt>
      <trkpt lat="48.6361" lon="7.10067">
        <ele>379.23</ele>
        <time>2020-08-19T15:27:57.000Z</time>
      </trkpt>
      <trkpt lat="48.63611" lon="7.10058">
        <ele>377.71</ele>
        <time>2020-08-19T15:27:59.000Z</time>
      </trkpt>
      <trkpt lat="48.63613" lon="7.10049">
        <ele>377.4</ele>
        <time>2020-08-19T15:28:01.000Z</time>
      </trkpt>
      <trkpt lat="48.63615" lon="7.10041">
        <ele>377.15</ele>
        <time>2020-08-19T15:28:03.000Z</time>
      </trkpt>
      <trkpt lat="48.63618" lon="7.10032">
        <ele>377.64</ele>
        <time>2020-08-19T15:28:05.000Z</time>
      </trkpt>
      <trkpt lat="48.6362" lon="7.10023">
        <ele>375.29</ele>
        <time>2020-08-19T15:28:07.000Z</time>
      </trkpt>
      <trkpt lat="48.63623" lon="7.10018">
        <ele>375.86</ele>
        <time>2020-08-19T15:28:11.000Z</time>
      </trkpt>
      <trkpt lat="48.63625" lon="7.10011">
        <ele>374.56</ele>
        <time>2020-08-19T15:28:23.000Z</time>
      </trkpt>
      <trkpt lat="48.6363" lon="7.10003">
        <ele>375.99</ele>
        <time>2020-08-19T15:28:26.000Z</time>
      </trkpt>
      <trkpt lat="48.63633" lon="7.09999">
        <ele>375.82</ele>
        <time>2020-08-19T15:28:28.000Z</time>
      </trkpt>
      <trkpt lat="48.63638" lon="7.09993">
        <ele>374.87</ele>
        <time>2020-08-19T15:28:30.000Z</time>
      </trkpt>
      <trkpt lat="48.63642" lon="7.0999">
        <ele>374.58</ele>
        <time>2020-08-19T15:28:32.000Z</time>
      </trkpt>
      <trkpt lat="48.63643" lon="7.09981">
        <ele>376.15</ele>
        <time>2020-08-19T15:28:39.000Z</time>
      </trkpt>
      <trkpt lat="48.63645" lon="7.09973">
        <ele>375.91</ele>
        <time>2020-08-19T15:28:41.000Z</time>
      </trkpt>
      <trkpt lat="48.63646" lon="7.09961">
        <ele>375.62</ele>
        <time>2020-08-19T15:28:43.000Z</time>
      </trkpt>
      <trkpt lat="48.63649" lon="7.09951">
        <ele>373.3</ele>
        <time>2020-08-19T15:28:45.000Z</time>
      </trkpt>
      <trkpt lat="48.6365" lon="7.09938">
        <ele>371.41</ele>
        <time>2020-08-19T15:28:47.000Z</time>
      </trkpt>
      <trkpt lat="48.63652" lon="7.09927">
        <ele>369.49</ele>
        <time>2020-08-19T15:28:49.000Z</time>
      </trkpt>
      <trkpt lat="48.6365" lon="7.09917">
        <ele>368.34</ele>
        <time>2020-08-19T15:28:51.000Z</time>
      </trkpt>
      <trkpt lat="48.63651" lon="7.09904">
        <ele>364.17</ele>
        <time>2020-08-19T15:28:53.000Z</time>
      </trkpt>
      <trkpt lat="48.63651" lon="7.09896">
        <ele>362.37</ele>
        <time>2020-08-19T15:28:55.000Z</time>
      </trkpt>
      <trkpt lat="48.63651" lon="7.09886">
        <ele>362.55</ele>
        <time>2020-08-19T15:28:57.000Z</time>
      </trkpt>
      <trkpt lat="48.63651" lon="7.09878">
        <ele>362.77</ele>
        <time>2020-08-19T15:28:59.000Z</time>
      </trkpt>
      <trkpt lat="48.63652" lon="7.09869">
        <ele>362.58</ele>
        <time>2020-08-19T15:29:01.000Z</time>
      </trkpt>
      <trkpt lat="48.63653" lon="7.09862">
        <ele>360.72</ele>
        <time>2020-08-19T15:29:03.000Z</time>
      </trkpt>
      <trkpt lat="48.63654" lon="7.09855">
        <ele>359.99</ele>
        <time>2020-08-19T15:29:05.000Z</time>
      </trkpt>
      <trkpt lat="48.63658" lon="7.09848">
        <ele>359.58</ele>
        <time>2020-08-19T15:29:07.000Z</time>
      </trkpt>
      <trkpt lat="48.63662" lon="7.09843">
        <ele>358.17</ele>
        <time>2020-08-19T15:29:09.000Z</time>
      </trkpt>
      <trkpt lat="48.63666" lon="7.09839">
        <ele>356.81</ele>
        <time>2020-08-19T15:29:19.000Z</time>
      </trkpt>
      <trkpt lat="48.63664" lon="7.09828">
        <ele>354.11</ele>
        <time>2020-08-19T15:29:22.000Z</time>
      </trkpt>
      <trkpt lat="48.63661" lon="7.09821">
        <ele>354.68</ele>
        <time>2020-08-19T15:29:24.000Z</time>
      </trkpt>
      <trkpt lat="48.63656" lon="7.09814">
        <ele>352.29</ele>
        <time>2020-08-19T15:29:26.000Z</time>
      </trkpt>
      <trkpt lat="48.63651" lon="7.09806">
        <ele>352.31</ele>
        <time>2020-08-19T15:29:28.000Z</time>
      </trkpt>
      <trkpt lat="48.63646" lon="7.09797">
        <ele>351.47</ele>
        <time>2020-08-19T15:29:30.000Z</time>
      </trkpt>
      <trkpt lat="48.63642" lon="7.09788">
        <ele>351.63</ele>
        <time>2020-08-19T15:29:32.000Z</time>
      </trkpt>
      <trkpt lat="48.6364" lon="7.09781">
        <ele>352.34</ele>
        <time>2020-08-19T15:29:34.000Z</time>
      </trkpt>
      <trkpt lat="48.63639" lon="7.09774">
        <ele>352.39</ele>
        <time>2020-08-19T15:29:50.000Z</time>
      </trkpt>
      <trkpt lat="48.63635" lon="7.0977">
        <ele>349.7</ele>
        <time>2020-08-19T15:29:52.000Z</time>
      </trkpt>
      <trkpt lat="48.63629" lon="7.0977">
        <ele>349.54</ele>
        <time>2020-08-19T15:29:54.000Z</time>
      </trkpt>
      <trkpt lat="48.63623" lon="7.09771">
        <ele>349.16</ele>
        <time>2020-08-19T15:29:56.000Z</time>
      </trkpt>
      <trkpt lat="48.63617" lon="7.09774">
        <ele>349.94</ele>
        <time>2020-08-19T15:29:58.000Z</time>
      </trkpt>
      <trkpt lat="48.63612" lon="7.09778">
        <ele>350.65</ele>
        <time>2020-08-19T15:30:00.000Z</time>
      </trkpt>
      <trkpt lat="48.63605" lon="7.09782">
        <ele>350.92</ele>
        <time>2020-08-19T15:30:02.000Z</time>
      </trkpt>
      <trkpt lat="48.63598" lon="7.09789">
        <ele>351.11</ele>
        <time>2020-08-19T15:30:04.000Z</time>
      </trkpt>
      <trkpt lat="48.63592" lon="7.09797">
        <ele>352.06</ele>
        <time>2020-08-19T15:30:06.000Z</time>
      </trkpt>
      <trkpt lat="48.63588" lon="7.09806">
        <ele>351.56</ele>
        <time>2020-08-19T15:30:08.000Z</time>
      </trkpt>
      <trkpt lat="48.63585" lon="7.09815">
        <ele>351.07</ele>
        <time>2020-08-19T15:30:10.000Z</time>
      </trkpt>
      <trkpt lat="48.63581" lon="7.09826">
        <ele>351.45</ele>
        <time>2020-08-19T15:30:12.000Z</time>
      </trkpt>
      <trkpt lat="48.63578" lon="7.09832">
        <ele>352.24</ele>
        <time>2020-08-19T15:30:13.000Z</time>
      </trkpt>
      <trkpt lat="48.63575" lon="7.09838">
        <ele>352.22</ele>
        <time>2020-08-19T15:30:14.000Z</time>
      </trkpt>
      <trkpt lat="48.63573" lon="7.09845">
        <ele>353.08</ele>
        <time>2020-08-19T15:30:15.000Z</time>
      </trkpt>
      <trkpt lat="48.6357" lon="7.09851">
        <ele>353.14</ele>
        <time>2020-08-19T15:30:16.000Z</time>
      </trkpt>
      <trkpt lat="48.63567" lon="7.09858">
        <ele>353.01</ele>
        <time>2020-08-19T15:30:17.000Z</time>
      </trkpt>
      <trkpt lat="48.63565" lon="7.09866">
        <ele>353.14</ele>
        <time>2020-08-19T15:30:18.000Z</time>
      </trkpt>
      <trkpt lat="48.63562" lon="7.09873">
        <ele>353.43</ele>
        <time>2020-08-19T15:30:19.000Z</time>
      </trkpt>
      <trkpt lat="48.63561" lon="7.09882">
        <ele>353.71</ele>
        <time>2020-08-19T15:30:20.000Z</time>
      </trkpt>
      <trkpt lat="48.63559" lon="7.0989">
        <ele>353.69</ele>
        <time>2020-08-19T15:30:21.000Z</time>
      </trkpt>
      <trkpt lat="48.63557" lon="7.09897">
        <ele>353.15</ele>
        <time>2020-08-19T15:30:22.000Z</time>
      </trkpt>
      <trkpt lat="48.63554" lon="7.09906">
        <ele>353.76</ele>
        <time>2020-08-19T15:30:23.000Z</time>
      </trkpt>
      <trkpt lat="48.63552" lon="7.09914">
        <ele>353.37</ele>
        <time>2020-08-19T15:30:24.000Z</time>
      </trkpt>
      <trkpt lat="48.6355" lon="7.09922">
        <ele>353.11</ele>
        <time>2020-08-19T15:30:25.000Z</time>
      </trkpt>
      <trkpt lat="48.63549" lon="7.09931">
        <ele>353.1</ele>
        <time>2020-08-19T15:30:26.000Z</time>
      </trkpt>
      <trkpt lat="48.63547" lon="7.0994">
        <ele>352.73</ele>
        <time>2020-08-19T15:30:27.000Z</time>
      </trkpt>
      <trkpt lat="48.63545" lon="7.09947">
        <ele>352.2</ele>
        <time>2020-08-19T15:30:28.000Z</time>
      </trkpt>
      <trkpt lat="48.63544" lon="7.09955">
        <ele>351.83</ele>
        <time>2020-08-19T15:30:29.000Z</time>
      </trkpt>
      <trkpt lat="48.63543" lon="7.09963">
        <ele>351.95</ele>
        <time>2020-08-19T15:30:30.000Z</time>
      </trkpt>
      <trkpt lat="48.63541" lon="7.09974">
        <ele>352.46</ele>
        <time>2020-08-19T15:30:32.000Z</time>
      </trkpt>
      <trkpt lat="48.63539" lon="7.09981">
        <ele>351.86</ele>
        <time>2020-08-19T15:30:33.000Z</time>
      </trkpt>
      <trkpt lat="48.63538" lon="7.09987">
        <ele>351.57</ele>
        <time>2020-08-19T15:30:34.000Z</time>
      </trkpt>
      <trkpt lat="48.63535" lon="7.09994">
        <ele>353.03</ele>
        <time>2020-08-19T15:30:35.000Z</time>
      </trkpt>
      <trkpt lat="48.63533" lon="7.10006">
        <ele>353.72</ele>
        <time>2020-08-19T15:30:37.000Z</time>
      </trkpt>
      <trkpt lat="48.63531" lon="7.10019">
        <ele>354.89</ele>
        <time>2020-08-19T15:30:39.000Z</time>
      </trkpt>
      <trkpt lat="48.63529" lon="7.10031">
        <ele>355.47</ele>
        <time>2020-08-19T15:30:41.000Z</time>
      </trkpt>
      <trkpt lat="48.63528" lon="7.10038">
        <ele>355.46</ele>
        <time>2020-08-19T15:30:42.000Z</time>
      </trkpt>
      <trkpt lat="48.63525" lon="7.10051">
        <ele>355.95</ele>
        <time>2020-08-19T15:30:44.000Z</time>
      </trkpt>
      <trkpt lat="48.63521" lon="7.10062">
        <ele>354.81</ele>
        <time>2020-08-19T15:30:46.000Z</time>
      </trkpt>
      <trkpt lat="48.63519" lon="7.10068">
        <ele>354.29</ele>
        <time>2020-08-19T15:30:50.000Z</time>
      </trkpt>
      <trkpt lat="48.63516" lon="7.10075">
        <ele>355.32</ele>
        <time>2020-08-19T15:31:04.000Z</time>
      </trkpt>
      <trkpt lat="48.63512" lon="7.10083">
        <ele>355.86</ele>
        <time>2020-08-19T15:31:06.000Z</time>
      </trkpt>
      <trkpt lat="48.63508" lon="7.10094">
        <ele>355.82</ele>
        <time>2020-08-19T15:31:08.000Z</time>
      </trkpt>
      <trkpt lat="48.63504" lon="7.10105">
        <ele>355.61</ele>
        <time>2020-08-19T15:31:10.000Z</time>
      </trkpt>
      <trkpt lat="48.63501" lon="7.10111">
        <ele>356.04</ele>
        <time>2020-08-19T15:31:11.000Z</time>
      </trkpt>
      <trkpt lat="48.63497" lon="7.10121">
        <ele>355.58</ele>
        <time>2020-08-19T15:31:13.000Z</time>
      </trkpt>
      <trkpt lat="48.63492" lon="7.10127">
        <ele>356.86</ele>
        <time>2020-08-19T15:31:15.000Z</time>
      </trkpt>
      <trkpt lat="48.63486" lon="7.10121">
        <ele>355.17</ele>
        <time>2020-08-19T15:31:18.000Z</time>
      </trkpt>
      <trkpt lat="48.63479" lon="7.10112">
        <ele>352.71</ele>
        <time>2020-08-19T15:31:20.000Z</time>
      </trkpt>
      <trkpt lat="48.63475" lon="7.10107">
        <ele>352.84</ele>
        <time>2020-08-19T15:31:21.000Z</time>
      </trkpt>
      <trkpt lat="48.63466" lon="7.10097">
        <ele>352.24</ele>
        <time>2020-08-19T15:31:23.000Z</time>
      </trkpt>
      <trkpt lat="48.63462" lon="7.10091">
        <ele>351.33</ele>
        <time>2020-08-19T15:31:24.000Z</time>
      </trkpt>
      <trkpt lat="48.63458" lon="7.10086">
        <ele>350.42</ele>
        <time>2020-08-19T15:31:25.000Z</time>
      </trkpt>
      <trkpt lat="48.63452" lon="7.10078">
        <ele>349.05</ele>
        <time>2020-08-19T15:31:27.000Z</time>
      </trkpt>
      <trkpt lat="48.63451" lon="7.10069">
        <ele>348.54</ele>
        <time>2020-08-19T15:31:29.000Z</time>
      </trkpt>
      <trkpt lat="48.63449" lon="7.10063">
        <ele>347.81</ele>
        <time>2020-08-19T15:31:42.000Z</time>
      </trkpt>
      <trkpt lat="48.63445" lon="7.10055">
        <ele>345.74</ele>
        <time>2020-08-19T15:31:56.000Z</time>
      </trkpt>
      <trkpt lat="48.63441" lon="7.1005">
        <ele>344.93</ele>
        <time>2020-08-19T15:31:57.000Z</time>
      </trkpt>
      <trkpt lat="48.63436" lon="7.1004">
        <ele>342.63</ele>
        <time>2020-08-19T15:31:59.000Z</time>
      </trkpt>
      <trkpt lat="48.63432" lon="7.10035">
        <ele>343.91</ele>
        <time>2020-08-19T15:32:00.000Z</time>
      </trkpt>
      <trkpt lat="48.63428" lon="7.10029">
        <ele>344.25</ele>
        <time>2020-08-19T15:32:01.000Z</time>
      </trkpt>
      <trkpt lat="48.63424" lon="7.10022">
        <ele>344.32</ele>
        <time>2020-08-19T15:32:02.000Z</time>
      </trkpt>
      <trkpt lat="48.6342" lon="7.10015">
        <ele>344.6</ele>
        <time>2020-08-19T15:32:03.000Z</time>
      </trkpt>
      <trkpt lat="48.63417" lon="7.10009">
        <ele>343.85</ele>
        <time>2020-08-19T15:32:04.000Z</time>
      </trkpt>
      <trkpt lat="48.63414" lon="7.10003">
        <ele>344.11</ele>
        <time>2020-08-19T15:32:05.000Z</time>
      </trkpt>
      <trkpt lat="48.63409" lon="7.09996">
        <ele>343.75</ele>
        <time>2020-08-19T15:32:06.000Z</time>
      </trkpt>
      <trkpt lat="48.63406" lon="7.09991">
        <ele>343.2</ele>
        <time>2020-08-19T15:32:07.000Z</time>
      </trkpt>
      <trkpt lat="48.63401" lon="7.09984">
        <ele>343.13</ele>
        <time>2020-08-19T15:32:08.000Z</time>
      </trkpt>
      <trkpt lat="48.63397" lon="7.0998">
        <ele>343.13</ele>
        <time>2020-08-19T15:32:09.000Z</time>
      </trkpt>
      <trkpt lat="48.63393" lon="7.09974">
        <ele>342.05</ele>
        <time>2020-08-19T15:32:10.000Z</time>
      </trkpt>
      <trkpt lat="48.63388" lon="7.09969">
        <ele>341.63</ele>
        <time>2020-08-19T15:32:11.000Z</time>
      </trkpt>
      <trkpt lat="48.63384" lon="7.09963">
        <ele>341.01</ele>
        <time>2020-08-19T15:32:12.000Z</time>
      </trkpt>
      <trkpt lat="48.63378" lon="7.09959">
        <ele>341.1</ele>
        <time>2020-08-19T15:32:13.000Z</time>
      </trkpt>
      <trkpt lat="48.63372" lon="7.09956">
        <ele>341.28</ele>
        <time>2020-08-19T15:32:14.000Z</time>
      </trkpt>
      <trkpt lat="48.63368" lon="7.09953">
        <ele>341.39</ele>
        <time>2020-08-19T15:32:15.000Z</time>
      </trkpt>
      <trkpt lat="48.63363" lon="7.0995">
        <ele>339.87</ele>
        <time>2020-08-19T15:32:16.000Z</time>
      </trkpt>
      <trkpt lat="48.63359" lon="7.09946">
        <ele>339.34</ele>
        <time>2020-08-19T15:32:17.000Z</time>
      </trkpt>
      <trkpt lat="48.63353" lon="7.09942">
        <ele>339.82</ele>
        <time>2020-08-19T15:32:18.000Z</time>
      </trkpt>
      <trkpt lat="48.63349" lon="7.09938">
        <ele>339.47</ele>
        <time>2020-08-19T15:32:19.000Z</time>
      </trkpt>
      <trkpt lat="48.63342" lon="7.09929">
        <ele>339.43</ele>
        <time>2020-08-19T15:32:21.000Z</time>
      </trkpt>
      <trkpt lat="48.63338" lon="7.09923">
        <ele>338.94</ele>
        <time>2020-08-19T15:32:22.000Z</time>
      </trkpt>
      <trkpt lat="48.63334" lon="7.09918">
        <ele>338.76</ele>
        <time>2020-08-19T15:32:23.000Z</time>
      </trkpt>
      <trkpt lat="48.6333" lon="7.09912">
        <ele>339.26</ele>
        <time>2020-08-19T15:32:24.000Z</time>
      </trkpt>
      <trkpt lat="48.63328" lon="7.09905">
        <ele>341.3</ele>
        <time>2020-08-19T15:32:25.000Z</time>
      </trkpt>
      <trkpt lat="48.63323" lon="7.09893">
        <ele>341.24</ele>
        <time>2020-08-19T15:32:27.000Z</time>
      </trkpt>
      <trkpt lat="48.63319" lon="7.09879">
        <ele>341.03</ele>
        <time>2020-08-19T15:32:29.000Z</time>
      </trkpt>
      <trkpt lat="48.63316" lon="7.09874">
        <ele>341.93</ele>
        <time>2020-08-19T15:32:30.000Z</time>
      </trkpt>
      <trkpt lat="48.63313" lon="7.09866">
        <ele>341.54</ele>
        <time>2020-08-19T15:32:31.000Z</time>
      </trkpt>
      <trkpt lat="48.63309" lon="7.09859">
        <ele>340.86</ele>
        <time>2020-08-19T15:32:32.000Z</time>
      </trkpt>
      <trkpt lat="48.63304" lon="7.09854">
        <ele>341.05</ele>
        <time>2020-08-19T15:32:33.000Z</time>
      </trkpt>
      <trkpt lat="48.63299" lon="7.0985">
        <ele>341.25</ele>
        <time>2020-08-19T15:32:34.000Z</time>
      </trkpt>
      <trkpt lat="48.63289" lon="7.09842">
        <ele>339.28</ele>
        <time>2020-08-19T15:32:36.000Z</time>
      </trkpt>
      <trkpt lat="48.63283" lon="7.09831">
        <ele>337.3</ele>
        <time>2020-08-19T15:32:38.000Z</time>
      </trkpt>
      <trkpt lat="48.63279" lon="7.09823">
        <ele>339.07</ele>
        <time>2020-08-19T15:32:39.000Z</time>
      </trkpt>
      <trkpt lat="48.63275" lon="7.09817">
        <ele>338.64</ele>
        <time>2020-08-19T15:32:40.000Z</time>
      </trkpt>
      <trkpt lat="48.63271" lon="7.09809">
        <ele>336.9</ele>
        <time>2020-08-19T15:32:41.000Z</time>
      </trkpt>
      <trkpt lat="48.63268" lon="7.09804">
        <ele>338.46</ele>
        <time>2020-08-19T15:32:42.000Z</time>
      </trkpt>
      <trkpt lat="48.63263" lon="7.09797">
        <ele>338.38</ele>
        <time>2020-08-19T15:32:43.000Z</time>
      </trkpt>
      <trkpt lat="48.63258" lon="7.09792">
        <ele>345.87</ele>
        <time>2020-08-19T15:32:44.000Z</time>
      </trkpt>
      <trkpt lat="48.63254" lon="7.09788">
        <ele>345.86</ele>
        <time>2020-08-19T15:32:45.000Z</time>
      </trkpt>
      <trkpt lat="48.63251" lon="7.09782">
        <ele>344.12</ele>
        <time>2020-08-19T15:32:46.000Z</time>
      </trkpt>
      <trkpt lat="48.63247" lon="7.09775">
        <ele>343.53</ele>
        <time>2020-08-19T15:32:47.000Z</time>
      </trkpt>
      <trkpt lat="48.63243" lon="7.0977">
        <ele>343.55</ele>
        <time>2020-08-19T15:32:48.000Z</time>
      </trkpt>
      <trkpt lat="48.63237" lon="7.09766">
        <ele>344.86</ele>
        <time>2020-08-19T15:32:49.000Z</time>
      </trkpt>
      <trkpt lat="48.63234" lon="7.09759">
        <ele>344.22</ele>
        <time>2020-08-19T15:32:50.000Z</time>
      </trkpt>
      <trkpt lat="48.63221" lon="7.09743">
        <ele>345.78</ele>
        <time>2020-08-19T15:32:53.000Z</time>
      </trkpt>
      <trkpt lat="48.63215" lon="7.09734">
        <ele>349.05</ele>
        <time>2020-08-19T15:32:55.000Z</time>
      </trkpt>
      <trkpt lat="48.63211" lon="7.09729">
        <ele>348.92</ele>
        <time>2020-08-19T15:32:57.000Z</time>
      </trkpt>
      <trkpt lat="48.63207" lon="7.09737">
        <ele>346.59</ele>
        <time>2020-08-19T15:33:00.000Z</time>
      </trkpt>
      <trkpt lat="48.632" lon="7.09751">
        <ele>346.91</ele>
        <time>2020-08-19T15:33:03.000Z</time>
      </trkpt>
      <trkpt lat="48.63195" lon="7.09757">
        <ele>348.85</ele>
        <time>2020-08-19T15:33:05.000Z</time>
      </trkpt>
      <trkpt lat="48.63192" lon="7.09767">
        <ele>351.25</ele>
        <time>2020-08-19T15:33:07.000Z</time>
      </trkpt>
      <trkpt lat="48.63187" lon="7.09774">
        <ele>351.53</ele>
        <time>2020-08-19T15:33:09.000Z</time>
      </trkpt>
      <trkpt lat="48.63188" lon="7.09781">
        <ele>355.95</ele>
        <time>2020-08-19T15:33:27.000Z</time>
      </trkpt>
      <trkpt lat="48.63189" lon="7.09791">
        <ele>353.99</ele>
        <time>2020-08-19T15:33:30.000Z</time>
      </trkpt>
      <trkpt lat="48.63185" lon="7.09799">
        <ele>353.42</ele>
        <time>2020-08-19T15:33:34.000Z</time>
      </trkpt>
      <trkpt lat="48.63183" lon="7.09807">
        <ele>355.73</ele>
        <time>2020-08-19T15:33:36.000Z</time>
      </trkpt>
      <trkpt lat="48.63183" lon="7.09817">
        <ele>357.21</ele>
        <time>2020-08-19T15:33:39.000Z</time>
      </trkpt>
      <trkpt lat="48.63182" lon="7.09828">
        <ele>356.8</ele>
        <time>2020-08-19T15:33:41.000Z</time>
      </trkpt>
      <trkpt lat="48.63182" lon="7.09837">
        <ele>355.4</ele>
        <time>2020-08-19T15:33:43.000Z</time>
      </trkpt>
      <trkpt lat="48.6318" lon="7.09847">
        <ele>353.93</ele>
        <time>2020-08-19T15:33:45.000Z</time>
      </trkpt>
      <trkpt lat="48.63177" lon="7.09856">
        <ele>350.21</ele>
        <time>2020-08-19T15:33:47.000Z</time>
      </trkpt>
      <trkpt lat="48.63175" lon="7.09863">
        <ele>350.76</ele>
        <time>2020-08-19T15:33:49.000Z</time>
      </trkpt>
      <trkpt lat="48.63174" lon="7.09872">
        <ele>350.76</ele>
        <time>2020-08-19T15:33:51.000Z</time>
      </trkpt>
      <trkpt lat="48.63173" lon="7.09883">
        <ele>351.36</ele>
        <time>2020-08-19T15:33:53.000Z</time>
      </trkpt>
      <trkpt lat="48.63172" lon="7.09893">
        <ele>355.85</ele>
        <time>2020-08-19T15:33:55.000Z</time>
      </trkpt>
      <trkpt lat="48.6317" lon="7.09905">
        <ele>355.97</ele>
        <time>2020-08-19T15:33:57.000Z</time>
      </trkpt>
      <trkpt lat="48.63168" lon="7.09915">
        <ele>359.15</ele>
        <time>2020-08-19T15:33:59.000Z</time>
      </trkpt>
      <trkpt lat="48.63168" lon="7.09924">
        <ele>359.25</ele>
        <time>2020-08-19T15:34:01.000Z</time>
      </trkpt>
      <trkpt lat="48.63169" lon="7.09933">
        <ele>362.14</ele>
        <time>2020-08-19T15:34:03.000Z</time>
      </trkpt>
      <trkpt lat="48.63169" lon="7.09941">
        <ele>442.86</ele>
        <time>2020-08-19T15:34:05.000Z</time>
      </trkpt>
      <trkpt lat="48.63169" lon="7.09949">
        <ele>429.12</ele>
        <time>2020-08-19T15:34:07.000Z</time>
      </trkpt>
      <trkpt lat="48.6317" lon="7.09956">
        <ele>402.44</ele>
        <time>2020-08-19T15:34:09.000Z</time>
      </trkpt>
      <trkpt lat="48.63173" lon="7.09962">
        <ele>388.41</ele>
        <time>2020-08-19T15:34:11.000Z</time>
      </trkpt>
      <trkpt lat="48.63174" lon="7.0997">
        <ele>383.48</ele>
        <time>2020-08-19T15:34:13.000Z</time>
      </trkpt>
      <trkpt lat="48.63174" lon="7.09979">
        <ele>380.6</ele>
        <time>2020-08-19T15:34:15.000Z</time>
      </trkpt>
      <trkpt lat="48.63175" lon="7.09987">
        <ele>377.53</ele>
        <time>2020-08-19T15:34:17.000Z</time>
      </trkpt>
      <trkpt lat="48.63175" lon="7.09996">
        <ele>374.28</ele>
        <time>2020-08-19T15:34:19.000Z</time>
      </trkpt>
      <trkpt lat="48.63175" lon="7.10004">
        <ele>371.46</ele>
        <time>2020-08-19T15:34:21.000Z</time>
      </trkpt>
      <trkpt lat="48.63174" lon="7.10012">
        <ele>372.07</ele>
        <time>2020-08-19T15:34:23.000Z</time>
      </trkpt>
      <trkpt lat="48.63172" lon="7.1002">
        <ele>372.61</ele>
        <time>2020-08-19T15:34:26.000Z</time>
      </trkpt>
      <trkpt lat="48.63171" lon="7.1003">
        <ele>373.7</ele>
        <time>2020-08-19T15:34:30.000Z</time>
      </trkpt>
      <trkpt lat="48.63169" lon="7.10037">
        <ele>375.3</ele>
        <time>2020-08-19T15:34:34.000Z</time>
      </trkpt>
      <trkpt lat="48.63165" lon="7.10044">
        <ele>376.36</ele>
        <time>2020-08-19T15:34:36.000Z</time>
      </trkpt>
      <trkpt lat="48.6316" lon="7.1005">
        <ele>376.89</ele>
        <time>2020-08-19T15:34:38.000Z</time>
      </trkpt>
      <trkpt lat="48.63155" lon="7.10055">
        <ele>372.88</ele>
        <time>2020-08-19T15:34:40.000Z</time>
      </trkpt>
      <trkpt lat="48.63151" lon="7.10061">
        <ele>372.88</ele>
        <time>2020-08-19T15:34:42.000Z</time>
      </trkpt>
      <trkpt lat="48.63139" lon="7.10075">
        <ele>369.92</ele>
        <time>2020-08-19T15:34:46.000Z</time>
      </trkpt>
      <trkpt lat="48.63134" lon="7.10082">
        <ele>369.53</ele>
        <time>2020-08-19T15:34:48.000Z</time>
      </trkpt>
      <trkpt lat="48.6313" lon="7.10087">
        <ele>371.51</ele>
        <time>2020-08-19T15:34:51.000Z</time>
      </trkpt>
      <trkpt lat="48.63129" lon="7.10094">
        <ele>370.72</ele>
        <time>2020-08-19T15:35:00.000Z</time>
      </trkpt>
      <trkpt lat="48.63126" lon="7.10101">
        <ele>371.75</ele>
        <time>2020-08-19T15:35:10.000Z</time>
      </trkpt>
      <trkpt lat="48.63123" lon="7.10105">
        <ele>370.98</ele>
        <time>2020-08-19T15:35:12.000Z</time>
      </trkpt>
      <trkpt lat="48.63119" lon="7.1011">
        <ele>372.59</ele>
        <time>2020-08-19T15:35:14.000Z</time>
      </trkpt>
      <trkpt lat="48.63114" lon="7.10113">
        <ele>374.98</ele>
        <time>2020-08-19T15:35:18.000Z</time>
      </trkpt>
      <trkpt lat="48.6311" lon="7.10118">
        <ele>375.62</ele>
        <time>2020-08-19T15:35:20.000Z</time>
      </trkpt>
      <trkpt lat="48.63106" lon="7.10124">
        <ele>374.95</ele>
        <time>2020-08-19T15:35:22.000Z</time>
      </trkpt>
      <trkpt lat="48.63103" lon="7.10131">
        <ele>374.88</ele>
        <time>2020-08-19T15:35:24.000Z</time>
      </trkpt>
      <trkpt lat="48.63099" lon="7.10137">
        <ele>375.76</ele>
        <time>2020-08-19T15:35:26.000Z</time>
      </trkpt>
      <trkpt lat="48.63093" lon="7.10143">
        <ele>376.8</ele>
        <time>2020-08-19T15:35:29.000Z</time>
      </trkpt>
      <trkpt lat="48.6309" lon="7.1015">
        <ele>377.55</ele>
        <time>2020-08-19T15:35:31.000Z</time>
      </trkpt>
      <trkpt lat="48.63085" lon="7.10157">
        <ele>377.45</ele>
        <time>2020-08-19T15:35:33.000Z</time>
      </trkpt>
      <trkpt lat="48.63078" lon="7.10163">
        <ele>375.19</ele>
        <time>2020-08-19T15:35:35.000Z</time>
      </trkpt>
      <trkpt lat="48.63072" lon="7.10166">
        <ele>376.69</ele>
        <time>2020-08-19T15:35:38.000Z</time>
      </trkpt>
      <trkpt lat="48.63066" lon="7.10172">
        <ele>377.6</ele>
        <time>2020-08-19T15:35:40.000Z</time>
      </trkpt>
      <trkpt lat="48.63062" lon="7.10177">
        <ele>377.92</ele>
        <time>2020-08-19T15:35:41.000Z</time>
      </trkpt>
      <trkpt lat="48.63058" lon="7.10181">
        <ele>376.4</ele>
        <time>2020-08-19T15:35:42.000Z</time>
      </trkpt>
      <trkpt lat="48.63053" lon="7.10188">
        <ele>376.18</ele>
        <time>2020-08-19T15:35:44.000Z</time>
      </trkpt>
      <trkpt lat="48.63049" lon="7.10195">
        <ele>374.56</ele>
        <time>2020-08-19T15:35:46.000Z</time>
      </trkpt>
      <trkpt lat="48.63042" lon="7.10202">
        <ele>374.34</ele>
        <time>2020-08-19T15:35:48.000Z</time>
      </trkpt>
      <trkpt lat="48.63036" lon="7.10209">
        <ele>375.58</ele>
        <time>2020-08-19T15:35:50.000Z</time>
      </trkpt>
      <trkpt lat="48.63032" lon="7.10213">
        <ele>376.75</ele>
        <time>2020-08-19T15:35:52.000Z</time>
      </trkpt>
      <trkpt lat="48.63026" lon="7.1022">
        <ele>379.47</ele>
        <time>2020-08-19T15:35:54.000Z</time>
      </trkpt>
      <trkpt lat="48.63021" lon="7.10228">
        <ele>379.64</ele>
        <time>2020-08-19T15:35:56.000Z</time>
      </trkpt>
      <trkpt lat="48.63016" lon="7.10234">
        <ele>379.68</ele>
        <time>2020-08-19T15:35:58.000Z</time>
      </trkpt>
      <trkpt lat="48.6301" lon="7.1024">
        <ele>379.16</ele>
        <time>2020-08-19T15:36:00.000Z</time>
      </trkpt>
      <trkpt lat="48.63005" lon="7.10246">
        <ele>376.37</ele>
        <time>2020-08-19T15:36:02.000Z</time>
      </trkpt>
      <trkpt lat="48.63001" lon="7.10252">
        <ele>376.39</ele>
        <time>2020-08-19T15:36:04.000Z</time>
      </trkpt>
      <trkpt lat="48.62997" lon="7.1026">
        <ele>375.96</ele>
        <time>2020-08-19T15:36:06.000Z</time>
      </trkpt>
      <trkpt lat="48.62991" lon="7.10265">
        <ele>376.35</ele>
        <time>2020-08-19T15:36:08.000Z</time>
      </trkpt>
      <trkpt lat="48.62987" lon="7.10272">
        <ele>376.56</ele>
        <time>2020-08-19T15:36:10.000Z</time>
      </trkpt>
      <trkpt lat="48.62983" lon="7.10279">
        <ele>377.75</ele>
        <time>2020-08-19T15:36:12.000Z</time>
      </trkpt>
      <trkpt lat="48.62978" lon="7.10287">
        <ele>377.72</ele>
        <time>2020-08-19T15:36:14.000Z</time>
      </trkpt>
      <trkpt lat="48.62973" lon="7.10292">
        <ele>378.38</ele>
        <time>2020-08-19T15:36:16.000Z</time>
      </trkpt>
      <trkpt lat="48.62969" lon="7.10294">
        <ele>376.21</ele>
        <time>2020-08-19T15:36:18.000Z</time>
      </trkpt>
      <trkpt lat="48.62961" lon="7.10299">
        <ele>378.69</ele>
        <time>2020-08-19T15:36:20.000Z</time>
      </trkpt>
      <trkpt lat="48.62957" lon="7.10306">
        <ele>379</ele>
        <time>2020-08-19T15:36:22.000Z</time>
      </trkpt>
      <trkpt lat="48.62952" lon="7.1031">
        <ele>380.4</ele>
        <time>2020-08-19T15:36:24.000Z</time>
      </trkpt>
      <trkpt lat="48.62946" lon="7.10315">
        <ele>380.64</ele>
        <time>2020-08-19T15:36:26.000Z</time>
      </trkpt>
      <trkpt lat="48.6294" lon="7.1032">
        <ele>382.44</ele>
        <time>2020-08-19T15:36:28.000Z</time>
      </trkpt>
      <trkpt lat="48.62936" lon="7.10324">
        <ele>380.25</ele>
        <time>2020-08-19T15:36:30.000Z</time>
      </trkpt>
      <trkpt lat="48.62932" lon="7.10328">
        <ele>379.15</ele>
        <time>2020-08-19T15:36:32.000Z</time>
      </trkpt>
      <trkpt lat="48.62927" lon="7.10332">
        <ele>378.96</ele>
        <time>2020-08-19T15:36:35.000Z</time>
      </trkpt>
      <trkpt lat="48.62922" lon="7.10334">
        <ele>379.39</ele>
        <time>2020-08-19T15:36:37.000Z</time>
      </trkpt>
      <trkpt lat="48.62916" lon="7.10338">
        <ele>378.74</ele>
        <time>2020-08-19T15:36:39.000Z</time>
      </trkpt>
      <trkpt lat="48.62911" lon="7.1034">
        <ele>378.88</ele>
        <time>2020-08-19T15:36:41.000Z</time>
      </trkpt>
      <trkpt lat="48.62906" lon="7.1034">
        <ele>378.84</ele>
        <time>2020-08-19T15:36:43.000Z</time>
      </trkpt>
      <trkpt lat="48.629" lon="7.10341">
        <ele>380.39</ele>
        <time>2020-08-19T15:36:45.000Z</time>
      </trkpt>
      <trkpt lat="48.62893" lon="7.10338">
        <ele>379.55</ele>
        <time>2020-08-19T15:36:47.000Z</time>
      </trkpt>
      <trkpt lat="48.62888" lon="7.10333">
        <ele>378.61</ele>
        <time>2020-08-19T15:36:49.000Z</time>
      </trkpt>
      <trkpt lat="48.62884" lon="7.10328">
        <ele>380</ele>
        <time>2020-08-19T15:36:51.000Z</time>
      </trkpt>
      <trkpt lat="48.62868" lon="7.10312">
        <ele>382.84</ele>
        <time>2020-08-19T15:36:57.000Z</time>
      </trkpt>
      <trkpt lat="48.62833" lon="7.10273">
        <ele>391</ele>
        <time>2020-08-19T15:37:26.000Z</time>
      </trkpt>
      <trkpt lat="48.62835" lon="7.10266">
        <ele>390.38</ele>
        <time>2020-08-19T15:37:29.000Z</time>
      </trkpt>
      <trkpt lat="48.6284" lon="7.10265">
        <ele>390.04</ele>
        <time>2020-08-19T15:37:38.000Z</time>
      </trkpt>
      <trkpt lat="48.62844" lon="7.10267">
        <ele>389.27</ele>
        <time>2020-08-19T15:37:42.000Z</time>
      </trkpt>
      <trkpt lat="48.62848" lon="7.10273">
        <ele>390.42</ele>
        <time>2020-08-19T15:37:46.000Z</time>
      </trkpt>
      <trkpt lat="48.62852" lon="7.10278">
        <ele>390.94</ele>
        <time>2020-08-19T15:37:51.000Z</time>
      </trkpt>
      <trkpt lat="48.62857" lon="7.10283">
        <ele>391.34</ele>
        <time>2020-08-19T15:37:56.000Z</time>
      </trkpt>
      <trkpt lat="48.62861" lon="7.10288">
        <ele>392.15</ele>
        <time>2020-08-19T15:38:01.000Z</time>
      </trkpt>
      <trkpt lat="48.62864" lon="7.10293">
        <ele>391.49</ele>
        <time>2020-08-19T15:38:12.000Z</time>
      </trkpt>
      <trkpt lat="48.62868" lon="7.10298">
        <ele>420.34</ele>
        <time>2020-08-19T15:38:16.000Z</time>
      </trkpt>
      <trkpt lat="48.62872" lon="7.10302">
        <ele>402.69</ele>
        <time>2020-08-19T15:38:20.000Z</time>
      </trkpt>
      <trkpt lat="48.62877" lon="7.10305">
        <ele>415.04</ele>
        <time>2020-08-19T15:38:24.000Z</time>
      </trkpt>
      <trkpt lat="48.62879" lon="7.10299">
        <ele>399.37</ele>
        <time>2020-08-19T15:38:29.000Z</time>
      </trkpt>
      <trkpt lat="48.62877" lon="7.10292">
        <ele>395.58</ele>
        <time>2020-08-19T15:38:34.000Z</time>
      </trkpt>
      <trkpt lat="48.62874" lon="7.10286">
        <ele>393.95</ele>
        <time>2020-08-19T15:38:41.000Z</time>
      </trkpt>
      <trkpt lat="48.6287" lon="7.10281">
        <ele>396.57</ele>
        <time>2020-08-19T15:38:46.000Z</time>
      </trkpt>
      <trkpt lat="48.62866" lon="7.10278">
        <ele>399.83</ele>
        <time>2020-08-19T15:38:50.000Z</time>
      </trkpt>
      <trkpt lat="48.62862" lon="7.10274">
        <ele>401.91</ele>
        <time>2020-08-19T15:38:54.000Z</time>
      </trkpt>
      <trkpt lat="48.62856" lon="7.10271">
        <ele>410</ele>
        <time>2020-08-19T15:39:12.000Z</time>
      </trkpt>
      <trkpt lat="48.62853" lon="7.10266">
        <ele>410.29</ele>
        <time>2020-08-19T15:39:14.000Z</time>
      </trkpt>
      <trkpt lat="48.6285" lon="7.10261">
        <ele>411.13</ele>
        <time>2020-08-19T15:39:16.000Z</time>
      </trkpt>
      <trkpt lat="48.62846" lon="7.10255">
        <ele>411.54</ele>
        <time>2020-08-19T15:39:18.000Z</time>
      </trkpt>
      <trkpt lat="48.62842" lon="7.1025">
        <ele>411.22</ele>
        <time>2020-08-19T15:39:20.000Z</time>
      </trkpt>
      <trkpt lat="48.62838" lon="7.10245">
        <ele>411.14</ele>
        <time>2020-08-19T15:39:22.000Z</time>
      </trkpt>
      <trkpt lat="48.62835" lon="7.10239">
        <ele>411.6</ele>
        <time>2020-08-19T15:39:24.000Z</time>
      </trkpt>
      <trkpt lat="48.62831" lon="7.10231">
        <ele>411.95</ele>
        <time>2020-08-19T15:39:26.000Z</time>
      </trkpt>
      <trkpt lat="48.62828" lon="7.10224">
        <ele>410.08</ele>
        <time>2020-08-19T15:39:28.000Z</time>
      </trkpt>
      <trkpt lat="48.62825" lon="7.10218">
        <ele>410.09</ele>
        <time>2020-08-19T15:39:30.000Z</time>
      </trkpt>
      <trkpt lat="48.62821" lon="7.10212">
        <ele>409.98</ele>
        <time>2020-08-19T15:39:32.000Z</time>
      </trkpt>
      <trkpt lat="48.62817" lon="7.10207">
        <ele>411.94</ele>
        <time>2020-08-19T15:39:34.000Z</time>
      </trkpt>
      <trkpt lat="48.62813" lon="7.10202">
        <ele>410.26</ele>
        <time>2020-08-19T15:39:36.000Z</time>
      </trkpt>
      <trkpt lat="48.62809" lon="7.10195">
        <ele>409.82</ele>
        <time>2020-08-19T15:39:38.000Z</time>
      </trkpt>
      <trkpt lat="48.62805" lon="7.10185">
        <ele>407.35</ele>
        <time>2020-08-19T15:39:40.000Z</time>
      </trkpt>
      <trkpt lat="48.62801" lon="7.10177">
        <ele>406.06</ele>
        <time>2020-08-19T15:39:42.000Z</time>
      </trkpt>
      <trkpt lat="48.62797" lon="7.10172">
        <ele>407.96</ele>
        <time>2020-08-19T15:39:44.000Z</time>
      </trkpt>
      <trkpt lat="48.62792" lon="7.10166">
        <ele>407.07</ele>
        <time>2020-08-19T15:39:46.000Z</time>
      </trkpt>
      <trkpt lat="48.62786" lon="7.1016">
        <ele>407.78</ele>
        <time>2020-08-19T15:39:48.000Z</time>
      </trkpt>
      <trkpt lat="48.6278" lon="7.10154">
        <ele>409.87</ele>
        <time>2020-08-19T15:39:50.000Z</time>
      </trkpt>
      <trkpt lat="48.62775" lon="7.10148">
        <ele>411.51</ele>
        <time>2020-08-19T15:39:52.000Z</time>
      </trkpt>
      <trkpt lat="48.6277" lon="7.10143">
        <ele>408.56</ele>
        <time>2020-08-19T15:39:54.000Z</time>
      </trkpt>
      <trkpt lat="48.62765" lon="7.10141">
        <ele>406.66</ele>
        <time>2020-08-19T15:39:57.000Z</time>
      </trkpt>
      <trkpt lat="48.62752" lon="7.10127">
        <ele>406.01</ele>
        <time>2020-08-19T15:40:02.000Z</time>
      </trkpt>
      <trkpt lat="48.62749" lon="7.10119">
        <ele>406.6</ele>
        <time>2020-08-19T15:40:04.000Z</time>
      </trkpt>
      <trkpt lat="48.62745" lon="7.10114">
        <ele>408.63</ele>
        <time>2020-08-19T15:40:06.000Z</time>
      </trkpt>
      <trkpt lat="48.62741" lon="7.10106">
        <ele>407.27</ele>
        <time>2020-08-19T15:40:08.000Z</time>
      </trkpt>
      <trkpt lat="48.62739" lon="7.10098">
        <ele>406.34</ele>
        <time>2020-08-19T15:40:10.000Z</time>
      </trkpt>
      <trkpt lat="48.62735" lon="7.10093">
        <ele>406.89</ele>
        <time>2020-08-19T15:40:12.000Z</time>
      </trkpt>
      <trkpt lat="48.62732" lon="7.10085">
        <ele>405.7</ele>
        <time>2020-08-19T15:40:15.000Z</time>
      </trkpt>
      <trkpt lat="48.62732" lon="7.10075">
        <ele>406.38</ele>
        <time>2020-08-19T15:40:18.000Z</time>
      </trkpt>
      <trkpt lat="48.6273" lon="7.10068">
        <ele>406.67</ele>
        <time>2020-08-19T15:40:20.000Z</time>
      </trkpt>
      <trkpt lat="48.62727" lon="7.1006">
        <ele>406.63</ele>
        <time>2020-08-19T15:40:22.000Z</time>
      </trkpt>
      <trkpt lat="48.62722" lon="7.10054">
        <ele>408.48</ele>
        <time>2020-08-19T15:40:24.000Z</time>
      </trkpt>
      <trkpt lat="48.62718" lon="7.1005">
        <ele>407.69</ele>
        <time>2020-08-19T15:40:26.000Z</time>
      </trkpt>
      <trkpt lat="48.62714" lon="7.10043">
        <ele>405.95</ele>
        <time>2020-08-19T15:40:28.000Z</time>
      </trkpt>
      <trkpt lat="48.62711" lon="7.10036">
        <ele>405.59</ele>
        <time>2020-08-19T15:40:30.000Z</time>
      </trkpt>
      <trkpt lat="48.62709" lon="7.10029">
        <ele>406.35</ele>
        <time>2020-08-19T15:40:32.000Z</time>
      </trkpt>
      <trkpt lat="48.62709" lon="7.10022">
        <ele>406.4</ele>
        <time>2020-08-19T15:40:34.000Z</time>
      </trkpt>
      <trkpt lat="48.62707" lon="7.10013">
        <ele>406.48</ele>
        <time>2020-08-19T15:40:36.000Z</time>
      </trkpt>
      <trkpt lat="48.62702" lon="7.10005">
        <ele>407.19</ele>
        <time>2020-08-19T15:40:38.000Z</time>
      </trkpt>
      <trkpt lat="48.62699" lon="7.09998">
        <ele>408.71</ele>
        <time>2020-08-19T15:40:40.000Z</time>
      </trkpt>
      <trkpt lat="48.62698" lon="7.09989">
        <ele>410.95</ele>
        <time>2020-08-19T15:40:42.000Z</time>
      </trkpt>
      <trkpt lat="48.62697" lon="7.09981">
        <ele>408.97</ele>
        <time>2020-08-19T15:40:49.000Z</time>
      </trkpt>
      <trkpt lat="48.62694" lon="7.09976">
        <ele>410.92</ele>
        <time>2020-08-19T15:40:53.000Z</time>
      </trkpt>
      <trkpt lat="48.62692" lon="7.09969">
        <ele>411.48</ele>
        <time>2020-08-19T15:40:57.000Z</time>
      </trkpt>
      <trkpt lat="48.62692" lon="7.09962">
        <ele>411.52</ele>
        <time>2020-08-19T15:41:08.000Z</time>
      </trkpt>
      <trkpt lat="48.6269" lon="7.09955">
        <ele>413.45</ele>
        <time>2020-08-19T15:41:12.000Z</time>
      </trkpt>
      <trkpt lat="48.62687" lon="7.09951">
        <ele>416.28</ele>
        <time>2020-08-19T15:41:16.000Z</time>
      </trkpt>
      <trkpt lat="48.62683" lon="7.09946">
        <ele>416.29</ele>
        <time>2020-08-19T15:41:24.000Z</time>
      </trkpt>
      <trkpt lat="48.62681" lon="7.09938">
        <ele>415.3</ele>
        <time>2020-08-19T15:41:27.000Z</time>
      </trkpt>
      <trkpt lat="48.6268" lon="7.0993">
        <ele>410.43</ele>
        <time>2020-08-19T15:41:29.000Z</time>
      </trkpt>
      <trkpt lat="48.62678" lon="7.09921">
        <ele>411.74</ele>
        <time>2020-08-19T15:41:31.000Z</time>
      </trkpt>
      <trkpt lat="48.62677" lon="7.09914">
        <ele>414.48</ele>
        <time>2020-08-19T15:41:33.000Z</time>
      </trkpt>
      <trkpt lat="48.62675" lon="7.09906">
        <ele>416.03</ele>
        <time>2020-08-19T15:41:35.000Z</time>
      </trkpt>
      <trkpt lat="48.62672" lon="7.09898">
        <ele>419.93</ele>
        <time>2020-08-19T15:41:37.000Z</time>
      </trkpt>
      <trkpt lat="48.62668" lon="7.09892">
        <ele>420.59</ele>
        <time>2020-08-19T15:41:39.000Z</time>
      </trkpt>
      <trkpt lat="48.62665" lon="7.09883">
        <ele>422.3</ele>
        <time>2020-08-19T15:41:41.000Z</time>
      </trkpt>
      <trkpt lat="48.62662" lon="7.09876">
        <ele>422.59</ele>
        <time>2020-08-19T15:41:43.000Z</time>
      </trkpt>
      <trkpt lat="48.62659" lon="7.09868">
        <ele>419.35</ele>
        <time>2020-08-19T15:41:46.000Z</time>
      </trkpt>
      <trkpt lat="48.62658" lon="7.09857">
        <ele>419.67</ele>
        <time>2020-08-19T15:41:49.000Z</time>
      </trkpt>
      <trkpt lat="48.62658" lon="7.09847">
        <ele>420.14</ele>
        <time>2020-08-19T15:41:51.000Z</time>
      </trkpt>
      <trkpt lat="48.62657" lon="7.09837">
        <ele>420.88</ele>
        <time>2020-08-19T15:41:53.000Z</time>
      </trkpt>
      <trkpt lat="48.62656" lon="7.09826">
        <ele>421.05</ele>
        <time>2020-08-19T15:41:55.000Z</time>
      </trkpt>
      <trkpt lat="48.62656" lon="7.09816">
        <ele>422.02</ele>
        <time>2020-08-19T15:41:57.000Z</time>
      </trkpt>
      <trkpt lat="48.62654" lon="7.09808">
        <ele>420.81</ele>
        <time>2020-08-19T15:41:59.000Z</time>
      </trkpt>
      <trkpt lat="48.62652" lon="7.09799">
        <ele>422.79</ele>
        <time>2020-08-19T15:42:01.000Z</time>
      </trkpt>
      <trkpt lat="48.62651" lon="7.0979">
        <ele>424.59</ele>
        <time>2020-08-19T15:42:04.000Z</time>
      </trkpt>
      <trkpt lat="48.6265" lon="7.09782">
        <ele>425.74</ele>
        <time>2020-08-19T15:42:06.000Z</time>
      </trkpt>
      <trkpt lat="48.62649" lon="7.09774">
        <ele>425.76</ele>
        <time>2020-08-19T15:42:08.000Z</time>
      </trkpt>
      <trkpt lat="48.62647" lon="7.09767">
        <ele>428.34</ele>
        <time>2020-08-19T15:42:10.000Z</time>
      </trkpt>
      <trkpt lat="48.62614" lon="7.09658">
        <ele>425.45</ele>
        <time>2020-08-19T15:42:34.000Z</time>
      </trkpt>
      <trkpt lat="48.62613" lon="7.09649">
        <ele>421.78</ele>
        <time>2020-08-19T15:42:36.000Z</time>
      </trkpt>
      <trkpt lat="48.62615" lon="7.09643">
        <ele>438.34</ele>
        <time>2020-08-19T15:42:45.000Z</time>
      </trkpt>
      <trkpt lat="48.62616" lon="7.09633">
        <ele>426.71</ele>
        <time>2020-08-19T15:43:06.000Z</time>
      </trkpt>
      <trkpt lat="48.62616" lon="7.09626">
        <ele>425.11</ele>
        <time>2020-08-19T15:43:09.000Z</time>
      </trkpt>
      <trkpt lat="48.62614" lon="7.09618">
        <ele>424.87</ele>
        <time>2020-08-19T15:43:13.000Z</time>
      </trkpt>
      <trkpt lat="48.62612" lon="7.0961">
        <ele>425</ele>
        <time>2020-08-19T15:43:16.000Z</time>
      </trkpt>
      <trkpt lat="48.62611" lon="7.09603">
        <ele>423.86</ele>
        <time>2020-08-19T15:43:20.000Z</time>
      </trkpt>
      <trkpt lat="48.62611" lon="7.09595">
        <ele>426.31</ele>
        <time>2020-08-19T15:43:26.000Z</time>
      </trkpt>
      <trkpt lat="48.6261" lon="7.09588">
        <ele>428.58</ele>
        <time>2020-08-19T15:43:29.000Z</time>
      </trkpt>
      <trkpt lat="48.62608" lon="7.0958">
        <ele>455.52</ele>
        <time>2020-08-19T15:43:34.000Z</time>
      </trkpt>
      <trkpt lat="48.62609" lon="7.09572">
        <ele>435.19</ele>
        <time>2020-08-19T15:43:57.000Z</time>
      </trkpt>
      <trkpt lat="48.6261" lon="7.09565">
        <ele>436.05</ele>
        <time>2020-08-19T15:44:00.000Z</time>
      </trkpt>
      <trkpt lat="48.62611" lon="7.09557">
        <ele>436.16</ele>
        <time>2020-08-19T15:44:04.000Z</time>
      </trkpt>
      <trkpt lat="48.62614" lon="7.09551">
        <ele>437.77</ele>
        <time>2020-08-19T15:44:10.000Z</time>
      </trkpt>
      <trkpt lat="48.62619" lon="7.09546">
        <ele>438.19</ele>
        <time>2020-08-19T15:44:15.000Z</time>
      </trkpt>
      <trkpt lat="48.62621" lon="7.0954">
        <ele>442.41</ele>
        <time>2020-08-19T15:44:20.000Z</time>
      </trkpt>
      <trkpt lat="48.62617" lon="7.0954">
        <ele>444.8</ele>
        <time>2020-08-19T15:44:43.000Z</time>
      </trkpt>
      <trkpt lat="48.62616" lon="7.09546">
        <ele>442.2</ele>
        <time>2020-08-19T15:44:50.000Z</time>
      </trkpt>
      <trkpt lat="48.62612" lon="7.09553">
        <ele>441.4</ele>
        <time>2020-08-19T15:44:53.000Z</time>
      </trkpt>
      <trkpt lat="48.6261" lon="7.09559">
        <ele>440.4</ele>
        <time>2020-08-19T15:44:56.000Z</time>
      </trkpt>
      <trkpt lat="48.62609" lon="7.09566">
        <ele>439.03</ele>
        <time>2020-08-19T15:44:59.000Z</time>
      </trkpt>
      <trkpt lat="48.62604" lon="7.09562">
        <ele>440.89</ele>
        <time>2020-08-19T15:45:02.000Z</time>
      </trkpt>
      <trkpt lat="48.62599" lon="7.09559">
        <ele>440.82</ele>
        <time>2020-08-19T15:45:05.000Z</time>
      </trkpt>
      <trkpt lat="48.62595" lon="7.09554">
        <ele>440.07</ele>
        <time>2020-08-19T15:45:13.000Z</time>
      </trkpt>
      <trkpt lat="48.62592" lon="7.09545">
        <ele>438.91</ele>
        <time>2020-08-19T15:45:20.000Z</time>
      </trkpt>
      <trkpt lat="48.62591" lon="7.09538">
        <ele>439.32</ele>
        <time>2020-08-19T15:45:22.000Z</time>
      </trkpt>
      <trkpt lat="48.62591" lon="7.09529">
        <ele>436.3</ele>
        <time>2020-08-19T15:45:25.000Z</time>
      </trkpt>
      <trkpt lat="48.62589" lon="7.09522">
        <ele>436.41</ele>
        <time>2020-08-19T15:45:29.000Z</time>
      </trkpt>
      <trkpt lat="48.62587" lon="7.09513">
        <ele>438.1</ele>
        <time>2020-08-19T15:45:37.000Z</time>
      </trkpt>
      <trkpt lat="48.62585" lon="7.09505">
        <ele>438.6</ele>
        <time>2020-08-19T15:45:40.000Z</time>
      </trkpt>
      <trkpt lat="48.62577" lon="7.09488">
        <ele>437.79</ele>
        <time>2020-08-19T15:45:45.000Z</time>
      </trkpt>
      <trkpt lat="48.62576" lon="7.09481">
        <ele>439.62</ele>
        <time>2020-08-19T15:45:47.000Z</time>
      </trkpt>
      <trkpt lat="48.62574" lon="7.09474">
        <ele>440.92</ele>
        <time>2020-08-19T15:45:49.000Z</time>
      </trkpt>
      <trkpt lat="48.62573" lon="7.09466">
        <ele>440.92</ele>
        <time>2020-08-19T15:45:51.000Z</time>
      </trkpt>
      <trkpt lat="48.62564" lon="7.09446">
        <ele>440.02</ele>
        <time>2020-08-19T15:45:57.000Z</time>
      </trkpt>
      <trkpt lat="48.62561" lon="7.09439">
        <ele>441.09</ele>
        <time>2020-08-19T15:45:59.000Z</time>
      </trkpt>
      <trkpt lat="48.62558" lon="7.09429">
        <ele>439.91</ele>
        <time>2020-08-19T15:46:02.000Z</time>
      </trkpt>
      <trkpt lat="48.62555" lon="7.09422">
        <ele>438.9</ele>
        <time>2020-08-19T15:46:04.000Z</time>
      </trkpt>
      <trkpt lat="48.62554" lon="7.09413">
        <ele>441.6</ele>
        <time>2020-08-19T15:46:06.000Z</time>
      </trkpt>
      <trkpt lat="48.62549" lon="7.09407">
        <ele>444.43</ele>
        <time>2020-08-19T15:46:08.000Z</time>
      </trkpt>
      <trkpt lat="48.62546" lon="7.09401">
        <ele>445.21</ele>
        <time>2020-08-19T15:46:10.000Z</time>
      </trkpt>
      <trkpt lat="48.62544" lon="7.09392">
        <ele>444.46</ele>
        <time>2020-08-19T15:46:12.000Z</time>
      </trkpt>
      <trkpt lat="48.62543" lon="7.09384">
        <ele>441.1</ele>
        <time>2020-08-19T15:46:15.000Z</time>
      </trkpt>
      <trkpt lat="48.62541" lon="7.09375">
        <ele>439.79</ele>
        <time>2020-08-19T15:46:18.000Z</time>
      </trkpt>
      <trkpt lat="48.6254" lon="7.09368">
        <ele>439.97</ele>
        <time>2020-08-19T15:46:21.000Z</time>
      </trkpt>
      <trkpt lat="48.62522" lon="7.09335">
        <ele>440.66</ele>
        <time>2020-08-19T15:46:29.000Z</time>
      </trkpt>
      <trkpt lat="48.62519" lon="7.0932">
        <ele>439.73</ele>
        <time>2020-08-19T15:46:32.000Z</time>
      </trkpt>
      <trkpt lat="48.62515" lon="7.09312">
        <ele>443.19</ele>
        <time>2020-08-19T15:46:34.000Z</time>
      </trkpt>
      <trkpt lat="48.62511" lon="7.09304">
        <ele>445.35</ele>
        <time>2020-08-19T15:46:37.000Z</time>
      </trkpt>
      <trkpt lat="48.62506" lon="7.09302">
        <ele>446.44</ele>
        <time>2020-08-19T15:46:42.000Z</time>
      </trkpt>
      <trkpt lat="48.625" lon="7.09303">
        <ele>446.03</ele>
        <time>2020-08-19T15:46:45.000Z</time>
      </trkpt>
      <trkpt lat="48.62495" lon="7.09303">
        <ele>447.52</ele>
        <time>2020-08-19T15:46:48.000Z</time>
      </trkpt>
      <trkpt lat="48.62491" lon="7.093">
        <ele>444.84</ele>
        <time>2020-08-19T15:46:59.000Z</time>
      </trkpt>
      <trkpt lat="48.62485" lon="7.09299">
        <ele>444.1</ele>
        <time>2020-08-19T15:47:16.000Z</time>
      </trkpt>
      <trkpt lat="48.62479" lon="7.09303">
        <ele>443.68</ele>
        <time>2020-08-19T15:47:19.000Z</time>
      </trkpt>
      <trkpt lat="48.62474" lon="7.09305">
        <ele>445.87</ele>
        <time>2020-08-19T15:47:21.000Z</time>
      </trkpt>
      <trkpt lat="48.62468" lon="7.09309">
        <ele>446.84</ele>
        <time>2020-08-19T15:47:23.000Z</time>
      </trkpt>
      <trkpt lat="48.62463" lon="7.09314">
        <ele>447.83</ele>
        <time>2020-08-19T15:47:25.000Z</time>
      </trkpt>
      <trkpt lat="48.62459" lon="7.09318">
        <ele>449.52</ele>
        <time>2020-08-19T15:47:27.000Z</time>
      </trkpt>
      <trkpt lat="48.62453" lon="7.09323">
        <ele>450.55</ele>
        <time>2020-08-19T15:47:30.000Z</time>
      </trkpt>
      <trkpt lat="48.62448" lon="7.09324">
        <ele>451.02</ele>
        <time>2020-08-19T15:47:32.000Z</time>
      </trkpt>
      <trkpt lat="48.62444" lon="7.09332">
        <ele>448.29</ele>
        <time>2020-08-19T15:47:35.000Z</time>
      </trkpt>
      <trkpt lat="48.62441" lon="7.09338">
        <ele>453.03</ele>
        <time>2020-08-19T15:47:37.000Z</time>
      </trkpt>
      <trkpt lat="48.62437" lon="7.09341">
        <ele>454.79</ele>
        <time>2020-08-19T15:47:39.000Z</time>
      </trkpt>
      <trkpt lat="48.62431" lon="7.09345">
        <ele>454.54</ele>
        <time>2020-08-19T15:47:41.000Z</time>
      </trkpt>
      <trkpt lat="48.62424" lon="7.09347">
        <ele>453.82</ele>
        <time>2020-08-19T15:47:45.000Z</time>
      </trkpt>
      <trkpt lat="48.62418" lon="7.09351">
        <ele>453.65</ele>
        <time>2020-08-19T15:47:47.000Z</time>
      </trkpt>
      <trkpt lat="48.62414" lon="7.09357">
        <ele>453.41</ele>
        <time>2020-08-19T15:47:50.000Z</time>
      </trkpt>
      <trkpt lat="48.6241" lon="7.09363">
        <ele>454.35</ele>
        <time>2020-08-19T15:47:52.000Z</time>
      </trkpt>
      <trkpt lat="48.62406" lon="7.0937">
        <ele>453.5</ele>
        <time>2020-08-19T15:47:54.000Z</time>
      </trkpt>
      <trkpt lat="48.62403" lon="7.09374">
        <ele>454.13</ele>
        <time>2020-08-19T15:47:56.000Z</time>
      </trkpt>
      <trkpt lat="48.62368" lon="7.0942">
        <ele>452.51</ele>
        <time>2020-08-19T15:48:07.000Z</time>
      </trkpt>
      <trkpt lat="48.62355" lon="7.09445">
        <ele>456.31</ele>
        <time>2020-08-19T15:48:12.000Z</time>
      </trkpt>
      <trkpt lat="48.62351" lon="7.09455">
        <ele>456.04</ele>
        <time>2020-08-19T15:48:14.000Z</time>
      </trkpt>
      <trkpt lat="48.62348" lon="7.0946">
        <ele>456.99</ele>
        <time>2020-08-19T15:48:16.000Z</time>
      </trkpt>
      <trkpt lat="48.62347" lon="7.09467">
        <ele>457.6</ele>
        <time>2020-08-19T15:48:18.000Z</time>
      </trkpt>
      <trkpt lat="48.62343" lon="7.09477">
        <ele>453.77</ele>
        <time>2020-08-19T15:48:20.000Z</time>
      </trkpt>
      <trkpt lat="48.62337" lon="7.09497">
        <ele>456.87</ele>
        <time>2020-08-19T15:48:24.000Z</time>
      </trkpt>
      <trkpt lat="48.62334" lon="7.09507">
        <ele>460.81</ele>
        <time>2020-08-19T15:48:26.000Z</time>
      </trkpt>
      <trkpt lat="48.62331" lon="7.09518">
        <ele>460.65</ele>
        <time>2020-08-19T15:48:28.000Z</time>
      </trkpt>
      <trkpt lat="48.62328" lon="7.09527">
        <ele>460.83</ele>
        <time>2020-08-19T15:48:30.000Z</time>
      </trkpt>
      <trkpt lat="48.62327" lon="7.09537">
        <ele>461.73</ele>
        <time>2020-08-19T15:48:32.000Z</time>
      </trkpt>
      <trkpt lat="48.62323" lon="7.09543">
        <ele>459.8</ele>
        <time>2020-08-19T15:48:34.000Z</time>
      </trkpt>
      <trkpt lat="48.6232" lon="7.09552">
        <ele>458.04</ele>
        <time>2020-08-19T15:48:37.000Z</time>
      </trkpt>
      <trkpt lat="48.62318" lon="7.09559">
        <ele>461.22</ele>
        <time>2020-08-19T15:48:39.000Z</time>
      </trkpt>
      <trkpt lat="48.62315" lon="7.09565">
        <ele>459.86</ele>
        <time>2020-08-19T15:48:42.000Z</time>
      </trkpt>
      <trkpt lat="48.6231" lon="7.09565">
        <ele>460.97</ele>
        <time>2020-08-19T15:48:45.000Z</time>
      </trkpt>
      <trkpt lat="48.62303" lon="7.09565">
        <ele>454.73</ele>
        <time>2020-08-19T15:48:48.000Z</time>
      </trkpt>
      <trkpt lat="48.62298" lon="7.09567">
        <ele>453.15</ele>
        <time>2020-08-19T15:48:50.000Z</time>
      </trkpt>
      <trkpt lat="48.62293" lon="7.09565">
        <ele>454.58</ele>
        <time>2020-08-19T15:48:52.000Z</time>
      </trkpt>
      <trkpt lat="48.62289" lon="7.09562">
        <ele>454</ele>
        <time>2020-08-19T15:48:54.000Z</time>
      </trkpt>
      <trkpt lat="48.62283" lon="7.09559">
        <ele>453.9</ele>
        <time>2020-08-19T15:48:56.000Z</time>
      </trkpt>
      <trkpt lat="48.62279" lon="7.09554">
        <ele>452.85</ele>
        <time>2020-08-19T15:48:58.000Z</time>
      </trkpt>
      <trkpt lat="48.62274" lon="7.09547">
        <ele>451.69</ele>
        <time>2020-08-19T15:49:00.000Z</time>
      </trkpt>
      <trkpt lat="48.6227" lon="7.09542">
        <ele>451.1</ele>
        <time>2020-08-19T15:49:02.000Z</time>
      </trkpt>
      <trkpt lat="48.62267" lon="7.09536">
        <ele>450.76</ele>
        <time>2020-08-19T15:49:04.000Z</time>
      </trkpt>
      <trkpt lat="48.62264" lon="7.09528">
        <ele>452.47</ele>
        <time>2020-08-19T15:49:07.000Z</time>
      </trkpt>
      <trkpt lat="48.62262" lon="7.09521">
        <ele>452.98</ele>
        <time>2020-08-19T15:49:10.000Z</time>
      </trkpt>
      <trkpt lat="48.62259" lon="7.09514">
        <ele>454.81</ele>
        <time>2020-08-19T15:49:12.000Z</time>
      </trkpt>
      <trkpt lat="48.62257" lon="7.09507">
        <ele>456.11</ele>
        <time>2020-08-19T15:49:14.000Z</time>
      </trkpt>
      <trkpt lat="48.62255" lon="7.09498">
        <ele>453.83</ele>
        <time>2020-08-19T15:49:17.000Z</time>
      </trkpt>
      <trkpt lat="48.62252" lon="7.09492">
        <ele>454.26</ele>
        <time>2020-08-19T15:49:19.000Z</time>
      </trkpt>
      <trkpt lat="48.62249" lon="7.09484">
        <ele>454.31</ele>
        <time>2020-08-19T15:49:22.000Z</time>
      </trkpt>
      <trkpt lat="48.6225" lon="7.09477">
        <ele>451.69</ele>
        <time>2020-08-19T15:49:24.000Z</time>
      </trkpt>
      <trkpt lat="48.62251" lon="7.09469">
        <ele>452.62</ele>
        <time>2020-08-19T15:49:26.000Z</time>
      </trkpt>
      <trkpt lat="48.62251" lon="7.09462">
        <ele>453.91</ele>
        <time>2020-08-19T15:49:28.000Z</time>
      </trkpt>
      <trkpt lat="48.62249" lon="7.09456">
        <ele>453.91</ele>
        <time>2020-08-19T15:49:30.000Z</time>
      </trkpt>
      <trkpt lat="48.62245" lon="7.09448">
        <ele>455.22</ele>
        <time>2020-08-19T15:49:33.000Z</time>
      </trkpt>
      <trkpt lat="48.62243" lon="7.0944">
        <ele>456.25</ele>
        <time>2020-08-19T15:49:35.000Z</time>
      </trkpt>
      <trkpt lat="48.62241" lon="7.09432">
        <ele>457.86</ele>
        <time>2020-08-19T15:49:38.000Z</time>
      </trkpt>
      <trkpt lat="48.62242" lon="7.09425">
        <ele>457.21</ele>
        <time>2020-08-19T15:49:40.000Z</time>
      </trkpt>
      <trkpt lat="48.62246" lon="7.09418">
        <ele>455.89</ele>
        <time>2020-08-19T15:49:42.000Z</time>
      </trkpt>
      <trkpt lat="48.62248" lon="7.09409">
        <ele>456.59</ele>
        <time>2020-08-19T15:49:45.000Z</time>
      </trkpt>
      <trkpt lat="48.62248" lon="7.09399">
        <ele>455.18</ele>
        <time>2020-08-19T15:49:48.000Z</time>
      </trkpt>
      <trkpt lat="48.62249" lon="7.09392">
        <ele>456.16</ele>
        <time>2020-08-19T15:49:50.000Z</time>
      </trkpt>
      <trkpt lat="48.6225" lon="7.09384">
        <ele>504.51</ele>
        <time>2020-08-19T15:49:53.000Z</time>
      </trkpt>
      <trkpt lat="48.6225" lon="7.09372">
        <ele>482.03</ele>
        <time>2020-08-19T15:49:56.000Z</time>
      </trkpt>
      <trkpt lat="48.62249" lon="7.09363">
        <ele>474.54</ele>
        <time>2020-08-19T15:49:58.000Z</time>
      </trkpt>
      <trkpt lat="48.62249" lon="7.09352">
        <ele>469.91</ele>
        <time>2020-08-19T15:50:00.000Z</time>
      </trkpt>
      <trkpt lat="48.62249" lon="7.09342">
        <ele>467.2</ele>
        <time>2020-08-19T15:50:02.000Z</time>
      </trkpt>
      <trkpt lat="48.62247" lon="7.09333">
        <ele>467.77</ele>
        <time>2020-08-19T15:50:04.000Z</time>
      </trkpt>
      <trkpt lat="48.62244" lon="7.09327">
        <ele>467.93</ele>
        <time>2020-08-19T15:50:06.000Z</time>
      </trkpt>
      <trkpt lat="48.62242" lon="7.09319">
        <ele>467.82</ele>
        <time>2020-08-19T15:50:08.000Z</time>
      </trkpt>
      <trkpt lat="48.62243" lon="7.09311">
        <ele>466.9</ele>
        <time>2020-08-19T15:50:10.000Z</time>
      </trkpt>
      <trkpt lat="48.62244" lon="7.09302">
        <ele>465.5</ele>
        <time>2020-08-19T15:50:12.000Z</time>
      </trkpt>
      <trkpt lat="48.62244" lon="7.09295">
        <ele>465.77</ele>
        <time>2020-08-19T15:50:14.000Z</time>
      </trkpt>
      <trkpt lat="48.62245" lon="7.09285">
        <ele>464.25</ele>
        <time>2020-08-19T15:50:16.000Z</time>
      </trkpt>
      <trkpt lat="48.62245" lon="7.09275">
        <ele>467.6</ele>
        <time>2020-08-19T15:50:18.000Z</time>
      </trkpt>
      <trkpt lat="48.62244" lon="7.09265">
        <ele>468.74</ele>
        <time>2020-08-19T15:50:20.000Z</time>
      </trkpt>
      <trkpt lat="48.62243" lon="7.09257">
        <ele>468.35</ele>
        <time>2020-08-19T15:50:22.000Z</time>
      </trkpt>
      <trkpt lat="48.62242" lon="7.09249">
        <ele>467.99</ele>
        <time>2020-08-19T15:50:24.000Z</time>
      </trkpt>
      <trkpt lat="48.62239" lon="7.09243">
        <ele>470.49</ele>
        <time>2020-08-19T15:50:26.000Z</time>
      </trkpt>
      <trkpt lat="48.62235" lon="7.09233">
        <ele>471.19</ele>
        <time>2020-08-19T15:50:28.000Z</time>
      </trkpt>
      <trkpt lat="48.62232" lon="7.09223">
        <ele>470.9</ele>
        <time>2020-08-19T15:50:30.000Z</time>
      </trkpt>
      <trkpt lat="48.62231" lon="7.09212">
        <ele>470.8</ele>
        <time>2020-08-19T15:50:32.000Z</time>
      </trkpt>
      <trkpt lat="48.62229" lon="7.09204">
        <ele>471.64</ele>
        <time>2020-08-19T15:50:34.000Z</time>
      </trkpt>
      <trkpt lat="48.62227" lon="7.09194">
        <ele>471.09</ele>
        <time>2020-08-19T15:50:36.000Z</time>
      </trkpt>
      <trkpt lat="48.62225" lon="7.09184">
        <ele>470.66</ele>
        <time>2020-08-19T15:50:38.000Z</time>
      </trkpt>
      <trkpt lat="48.62222" lon="7.09178">
        <ele>470.52</ele>
        <time>2020-08-19T15:50:40.000Z</time>
      </trkpt>
      <trkpt lat="48.62219" lon="7.09171">
        <ele>471.16</ele>
        <time>2020-08-19T15:50:42.000Z</time>
      </trkpt>
      <trkpt lat="48.62214" lon="7.09163">
        <ele>471.99</ele>
        <time>2020-08-19T15:50:44.000Z</time>
      </trkpt>
      <trkpt lat="48.62209" lon="7.09157">
        <ele>472.75</ele>
        <time>2020-08-19T15:50:46.000Z</time>
      </trkpt>
      <trkpt lat="48.62205" lon="7.09152">
        <ele>470.28</ele>
        <time>2020-08-19T15:50:48.000Z</time>
      </trkpt>
      <trkpt lat="48.62191" lon="7.09129">
        <ele>470.28</ele>
        <time>2020-08-19T15:50:54.000Z</time>
      </trkpt>
      <trkpt lat="48.62187" lon="7.09123">
        <ele>471.03</ele>
        <time>2020-08-19T15:50:56.000Z</time>
      </trkpt>
      <trkpt lat="48.62184" lon="7.09115">
        <ele>470.79</ele>
        <time>2020-08-19T15:50:58.000Z</time>
      </trkpt>
      <trkpt lat="48.6218" lon="7.09105">
        <ele>472.41</ele>
        <time>2020-08-19T15:51:01.000Z</time>
      </trkpt>
      <trkpt lat="48.62178" lon="7.09097">
        <ele>471.88</ele>
        <time>2020-08-19T15:51:03.000Z</time>
      </trkpt>
      <trkpt lat="48.62176" lon="7.09091">
        <ele>469.53</ele>
        <time>2020-08-19T15:51:05.000Z</time>
      </trkpt>
      <trkpt lat="48.62171" lon="7.09084">
        <ele>470.95</ele>
        <time>2020-08-19T15:51:07.000Z</time>
      </trkpt>
      <trkpt lat="48.62167" lon="7.09079">
        <ele>502.88</ele>
        <time>2020-08-19T15:51:09.000Z</time>
      </trkpt>
      <trkpt lat="48.6216" lon="7.09074">
        <ele>489.34</ele>
        <time>2020-08-19T15:51:11.000Z</time>
      </trkpt>
      <trkpt lat="48.62154" lon="7.09068">
        <ele>481.82</ele>
        <time>2020-08-19T15:51:13.000Z</time>
      </trkpt>
      <trkpt lat="48.6215" lon="7.09064">
        <ele>481.19</ele>
        <time>2020-08-19T15:51:14.000Z</time>
      </trkpt>
      <trkpt lat="48.62144" lon="7.09057">
        <ele>476.07</ele>
        <time>2020-08-19T15:51:16.000Z</time>
      </trkpt>
      <trkpt lat="48.6214" lon="7.09052">
        <ele>474.34</ele>
        <time>2020-08-19T15:51:17.000Z</time>
      </trkpt>
      <trkpt lat="48.62137" lon="7.09047">
        <ele>472.81</ele>
        <time>2020-08-19T15:51:18.000Z</time>
      </trkpt>
      <trkpt lat="48.62133" lon="7.09042">
        <ele>472.52</ele>
        <time>2020-08-19T15:51:19.000Z</time>
      </trkpt>
      <trkpt lat="48.62129" lon="7.09038">
        <ele>472.22</ele>
        <time>2020-08-19T15:51:20.000Z</time>
      </trkpt>
      <trkpt lat="48.62123" lon="7.0903">
        <ele>473.81</ele>
        <time>2020-08-19T15:51:22.000Z</time>
      </trkpt>
      <trkpt lat="48.62119" lon="7.09023">
        <ele>474.97</ele>
        <time>2020-08-19T15:51:24.000Z</time>
      </trkpt>
      <trkpt lat="48.62113" lon="7.09015">
        <ele>474.84</ele>
        <time>2020-08-19T15:51:26.000Z</time>
      </trkpt>
      <trkpt lat="48.62107" lon="7.0901">
        <ele>475.57</ele>
        <time>2020-08-19T15:51:28.000Z</time>
      </trkpt>
      <trkpt lat="48.62102" lon="7.09004">
        <ele>475.4</ele>
        <time>2020-08-19T15:51:30.000Z</time>
      </trkpt>
      <trkpt lat="48.62099" lon="7.08996">
        <ele>475.86</ele>
        <time>2020-08-19T15:51:32.000Z</time>
      </trkpt>
      <trkpt lat="48.62096" lon="7.08987">
        <ele>477.49</ele>
        <time>2020-08-19T15:51:34.000Z</time>
      </trkpt>
      <trkpt lat="48.62095" lon="7.08978">
        <ele>478.8</ele>
        <time>2020-08-19T15:51:36.000Z</time>
      </trkpt>
      <trkpt lat="48.62094" lon="7.08969">
        <ele>477.6</ele>
        <time>2020-08-19T15:51:38.000Z</time>
      </trkpt>
      <trkpt lat="48.62094" lon="7.08962">
        <ele>479.07</ele>
        <time>2020-08-19T15:51:40.000Z</time>
      </trkpt>
      <trkpt lat="48.62092" lon="7.08954">
        <ele>476.68</ele>
        <time>2020-08-19T15:51:43.000Z</time>
      </trkpt>
      <trkpt lat="48.62085" lon="7.0895">
        <ele>484.33</ele>
        <time>2020-08-19T15:51:59.000Z</time>
      </trkpt>
      <trkpt lat="48.62081" lon="7.08945">
        <ele>480.77</ele>
        <time>2020-08-19T15:52:01.000Z</time>
      </trkpt>
      <trkpt lat="48.62075" lon="7.08941">
        <ele>480.43</ele>
        <time>2020-08-19T15:52:03.000Z</time>
      </trkpt>
      <trkpt lat="48.62068" lon="7.08935">
        <ele>478.6</ele>
        <time>2020-08-19T15:52:05.000Z</time>
      </trkpt>
      <trkpt lat="48.6206" lon="7.08926">
        <ele>477.92</ele>
        <time>2020-08-19T15:52:07.000Z</time>
      </trkpt>
      <trkpt lat="48.62054" lon="7.08923">
        <ele>504.97</ele>
        <time>2020-08-19T15:52:08.000Z</time>
      </trkpt>
      <trkpt lat="48.62037" lon="7.08907">
        <ele>486.77</ele>
        <time>2020-08-19T15:52:11.000Z</time>
      </trkpt>
      <trkpt lat="48.62031" lon="7.08903">
        <ele>485.55</ele>
        <time>2020-08-19T15:52:12.000Z</time>
      </trkpt>
      <trkpt lat="48.62006" lon="7.08874">
        <ele>479.22</ele>
        <time>2020-08-19T15:52:17.000Z</time>
      </trkpt>
      <trkpt lat="48.62" lon="7.08869">
        <ele>478.63</ele>
        <time>2020-08-19T15:52:18.000Z</time>
      </trkpt>
      <trkpt lat="48.61994" lon="7.08866">
        <ele>478.61</ele>
        <time>2020-08-19T15:52:19.000Z</time>
      </trkpt>
      <trkpt lat="48.61989" lon="7.08864">
        <ele>478.53</ele>
        <time>2020-08-19T15:52:20.000Z</time>
      </trkpt>
      <trkpt lat="48.61983" lon="7.08863">
        <ele>477.22</ele>
        <time>2020-08-19T15:52:21.000Z</time>
      </trkpt>
      <trkpt lat="48.61978" lon="7.08863">
        <ele>476.95</ele>
        <time>2020-08-19T15:52:22.000Z</time>
      </trkpt>
      <trkpt lat="48.61974" lon="7.08864">
        <ele>476.58</ele>
        <time>2020-08-19T15:52:23.000Z</time>
      </trkpt>
      <trkpt lat="48.61969" lon="7.08864">
        <ele>476.66</ele>
        <time>2020-08-19T15:52:24.000Z</time>
      </trkpt>
      <trkpt lat="48.61963" lon="7.08866">
        <ele>476.83</ele>
        <time>2020-08-19T15:52:26.000Z</time>
      </trkpt>
      <trkpt lat="48.61959" lon="7.08864">
        <ele>473.24</ele>
        <time>2020-08-19T15:52:27.000Z</time>
      </trkpt>
      <trkpt lat="48.61953" lon="7.08866">
        <ele>474.34</ele>
        <time>2020-08-19T15:52:28.000Z</time>
      </trkpt>
      <trkpt lat="48.61948" lon="7.08869">
        <ele>474.75</ele>
        <time>2020-08-19T15:52:29.000Z</time>
      </trkpt>
      <trkpt lat="48.61943" lon="7.08868">
        <ele>474.27</ele>
        <time>2020-08-19T15:52:30.000Z</time>
      </trkpt>
      <trkpt lat="48.61927" lon="7.08854">
        <ele>473.17</ele>
        <time>2020-08-19T15:52:33.000Z</time>
      </trkpt>
      <trkpt lat="48.61921" lon="7.08849">
        <ele>475.1</ele>
        <time>2020-08-19T15:52:35.000Z</time>
      </trkpt>
      <trkpt lat="48.61915" lon="7.08854">
        <ele>474.75</ele>
        <time>2020-08-19T15:52:37.000Z</time>
      </trkpt>
      <trkpt lat="48.61913" lon="7.08847">
        <ele>476.07</ele>
        <time>2020-08-19T15:53:16.000Z</time>
      </trkpt>
      <trkpt lat="48.61914" lon="7.08839">
        <ele>474.59</ele>
        <time>2020-08-19T15:53:20.000Z</time>
      </trkpt>
      <trkpt lat="48.61915" lon="7.08832">
        <ele>478.85</ele>
        <time>2020-08-19T15:53:25.000Z</time>
      </trkpt>
      <trkpt lat="48.61912" lon="7.08826">
        <ele>477.1</ele>
        <time>2020-08-19T15:53:27.000Z</time>
      </trkpt>
      <trkpt lat="48.61908" lon="7.0882">
        <ele>476.68</ele>
        <time>2020-08-19T15:53:29.000Z</time>
      </trkpt>
      <trkpt lat="48.61904" lon="7.08816">
        <ele>475.98</ele>
        <time>2020-08-19T15:53:40.000Z</time>
      </trkpt>
      <trkpt lat="48.61899" lon="7.08808">
        <ele>476.46</ele>
        <time>2020-08-19T15:53:43.000Z</time>
      </trkpt>
      <trkpt lat="48.61895" lon="7.08802">
        <ele>477.64</ele>
        <time>2020-08-19T15:53:45.000Z</time>
      </trkpt>
      <trkpt lat="48.61887" lon="7.08798">
        <ele>476.76</ele>
        <time>2020-08-19T15:53:47.000Z</time>
      </trkpt>
      <trkpt lat="48.61882" lon="7.08794">
        <ele>477.12</ele>
        <time>2020-08-19T15:53:49.000Z</time>
      </trkpt>
      <trkpt lat="48.61877" lon="7.08789">
        <ele>473.9</ele>
        <time>2020-08-19T15:53:51.000Z</time>
      </trkpt>
      <trkpt lat="48.61871" lon="7.08786">
        <ele>473.55</ele>
        <time>2020-08-19T15:53:53.000Z</time>
      </trkpt>
      <trkpt lat="48.61864" lon="7.08781">
        <ele>474.64</ele>
        <time>2020-08-19T15:53:55.000Z</time>
      </trkpt>
      <trkpt lat="48.61857" lon="7.08773">
        <ele>475.75</ele>
        <time>2020-08-19T15:53:57.000Z</time>
      </trkpt>
      <trkpt lat="48.61853" lon="7.08765">
        <ele>474.96</ele>
        <time>2020-08-19T15:53:59.000Z</time>
      </trkpt>
      <trkpt lat="48.61849" lon="7.08757">
        <ele>474.42</ele>
        <time>2020-08-19T15:54:01.000Z</time>
      </trkpt>
      <trkpt lat="48.61845" lon="7.08753">
        <ele>476.37</ele>
        <time>2020-08-19T15:54:06.000Z</time>
      </trkpt>
      <trkpt lat="48.61832" lon="7.08731">
        <ele>478.47</ele>
        <time>2020-08-19T15:54:17.000Z</time>
      </trkpt>
      <trkpt lat="48.61828" lon="7.08721">
        <ele>478.97</ele>
        <time>2020-08-19T15:54:19.000Z</time>
      </trkpt>
      <trkpt lat="48.61824" lon="7.08714">
        <ele>477.99</ele>
        <time>2020-08-19T15:54:20.000Z</time>
      </trkpt>
      <trkpt lat="48.6182" lon="7.08708">
        <ele>477.06</ele>
        <time>2020-08-19T15:54:21.000Z</time>
      </trkpt>
      <trkpt lat="48.61815" lon="7.08701">
        <ele>474.91</ele>
        <time>2020-08-19T15:54:22.000Z</time>
      </trkpt>
      <trkpt lat="48.61811" lon="7.08694">
        <ele>474.46</ele>
        <time>2020-08-19T15:54:23.000Z</time>
      </trkpt>
      <trkpt lat="48.61806" lon="7.08687">
        <ele>472.93</ele>
        <time>2020-08-19T15:54:24.000Z</time>
      </trkpt>
      <trkpt lat="48.61802" lon="7.08678">
        <ele>473.8</ele>
        <time>2020-08-19T15:54:25.000Z</time>
      </trkpt>
      <trkpt lat="48.61799" lon="7.08671">
        <ele>472.45</ele>
        <time>2020-08-19T15:54:26.000Z</time>
      </trkpt>
      <trkpt lat="48.61796" lon="7.08663">
        <ele>472.05</ele>
        <time>2020-08-19T15:54:27.000Z</time>
      </trkpt>
      <trkpt lat="48.6179" lon="7.08652">
        <ele>470.82</ele>
        <time>2020-08-19T15:54:29.000Z</time>
      </trkpt>
      <trkpt lat="48.61786" lon="7.08642">
        <ele>469.63</ele>
        <time>2020-08-19T15:54:30.000Z</time>
      </trkpt>
      <trkpt lat="48.6178" lon="7.08631">
        <ele>470.86</ele>
        <time>2020-08-19T15:54:31.000Z</time>
      </trkpt>
      <trkpt lat="48.61776" lon="7.08622">
        <ele>468.83</ele>
        <time>2020-08-19T15:54:32.000Z</time>
      </trkpt>
      <trkpt lat="48.6177" lon="7.08612">
        <ele>468.48</ele>
        <time>2020-08-19T15:54:33.000Z</time>
      </trkpt>
      <trkpt lat="48.61765" lon="7.08603">
        <ele>469.35</ele>
        <time>2020-08-19T15:54:34.000Z</time>
      </trkpt>
      <trkpt lat="48.61761" lon="7.08593">
        <ele>467.05</ele>
        <time>2020-08-19T15:54:35.000Z</time>
      </trkpt>
      <trkpt lat="48.61758" lon="7.08583">
        <ele>466.87</ele>
        <time>2020-08-19T15:54:36.000Z</time>
      </trkpt>
      <trkpt lat="48.61754" lon="7.0857">
        <ele>466.37</ele>
        <time>2020-08-19T15:54:37.000Z</time>
      </trkpt>
      <trkpt lat="48.61749" lon="7.0856">
        <ele>465.45</ele>
        <time>2020-08-19T15:54:38.000Z</time>
      </trkpt>
      <trkpt lat="48.61744" lon="7.0855">
        <ele>464.94</ele>
        <time>2020-08-19T15:54:39.000Z</time>
      </trkpt>
      <trkpt lat="48.61741" lon="7.08539">
        <ele>464.47</ele>
        <time>2020-08-19T15:54:40.000Z</time>
      </trkpt>
      <trkpt lat="48.61737" lon="7.08528">
        <ele>464.37</ele>
        <time>2020-08-19T15:54:41.000Z</time>
      </trkpt>
      <trkpt lat="48.61733" lon="7.08519">
        <ele>462.84</ele>
        <time>2020-08-19T15:54:42.000Z</time>
      </trkpt>
      <trkpt lat="48.6173" lon="7.08507">
        <ele>460.67</ele>
        <time>2020-08-19T15:54:43.000Z</time>
      </trkpt>
      <trkpt lat="48.61724" lon="7.08495">
        <ele>458.99</ele>
        <time>2020-08-19T15:54:44.000Z</time>
      </trkpt>
      <trkpt lat="48.61699" lon="7.08433">
        <ele>452.49</ele>
        <time>2020-08-19T15:54:50.000Z</time>
      </trkpt>
      <trkpt lat="48.61689" lon="7.08417">
        <ele>453.25</ele>
        <time>2020-08-19T15:54:52.000Z</time>
      </trkpt>
      <trkpt lat="48.61685" lon="7.08412">
        <ele>451.79</ele>
        <time>2020-08-19T15:54:53.000Z</time>
      </trkpt>
      <trkpt lat="48.61687" lon="7.08405">
        <ele>448.32</ele>
        <time>2020-08-19T15:54:54.000Z</time>
      </trkpt>
      <trkpt lat="48.61687" lon="7.08412">
        <ele>443.88</ele>
        <time>2020-08-19T15:55:00.000Z</time>
      </trkpt>
      <trkpt lat="48.61684" lon="7.08406">
        <ele>445.67</ele>
        <time>2020-08-19T15:55:09.000Z</time>
      </trkpt>
      <trkpt lat="48.61679" lon="7.08406">
        <ele>447.31</ele>
        <time>2020-08-19T15:55:21.000Z</time>
      </trkpt>
      <trkpt lat="48.61675" lon="7.08402">
        <ele>448.57</ele>
        <time>2020-08-19T15:55:25.000Z</time>
      </trkpt>
      <trkpt lat="48.61671" lon="7.08399">
        <ele>450.91</ele>
        <time>2020-08-19T15:55:27.000Z</time>
      </trkpt>
      <trkpt lat="48.61665" lon="7.08395">
        <ele>448.78</ele>
        <time>2020-08-19T15:55:29.000Z</time>
      </trkpt>
      <trkpt lat="48.6166" lon="7.0839">
        <ele>448.74</ele>
        <time>2020-08-19T15:55:31.000Z</time>
      </trkpt>
      <trkpt lat="48.61656" lon="7.08385">
        <ele>449.3</ele>
        <time>2020-08-19T15:55:33.000Z</time>
      </trkpt>
      <trkpt lat="48.6165" lon="7.08379">
        <ele>449.93</ele>
        <time>2020-08-19T15:55:35.000Z</time>
      </trkpt>
      <trkpt lat="48.61635" lon="7.08368">
        <ele>460.78</ele>
        <time>2020-08-19T15:55:38.000Z</time>
      </trkpt>
      <trkpt lat="48.61628" lon="7.08365">
        <ele>455.45</ele>
        <time>2020-08-19T15:55:39.000Z</time>
      </trkpt>
      <trkpt lat="48.61613" lon="7.0836">
        <ele>445.92</ele>
        <time>2020-08-19T15:55:42.000Z</time>
      </trkpt>
      <trkpt lat="48.61608" lon="7.08357">
        <ele>445.4</ele>
        <time>2020-08-19T15:55:43.000Z</time>
      </trkpt>
      <trkpt lat="48.616" lon="7.08351">
        <ele>445.27</ele>
        <time>2020-08-19T15:55:45.000Z</time>
      </trkpt>
      <trkpt lat="48.6159" lon="7.08347">
        <ele>444.7</ele>
        <time>2020-08-19T15:55:47.000Z</time>
      </trkpt>
      <trkpt lat="48.61586" lon="7.08344">
        <ele>444.07</ele>
        <time>2020-08-19T15:55:48.000Z</time>
      </trkpt>
      <trkpt lat="48.6158" lon="7.08342">
        <ele>443.98</ele>
        <time>2020-08-19T15:55:49.000Z</time>
      </trkpt>
      <trkpt lat="48.61576" lon="7.08336">
        <ele>442.51</ele>
        <time>2020-08-19T15:55:50.000Z</time>
      </trkpt>
      <trkpt lat="48.61571" lon="7.08333">
        <ele>440.66</ele>
        <time>2020-08-19T15:55:51.000Z</time>
      </trkpt>
      <trkpt lat="48.61566" lon="7.08326">
        <ele>438.38</ele>
        <time>2020-08-19T15:55:53.000Z</time>
      </trkpt>
      <trkpt lat="48.61559" lon="7.08325">
        <ele>438.55</ele>
        <time>2020-08-19T15:55:54.000Z</time>
      </trkpt>
      <trkpt lat="48.61553" lon="7.08323">
        <ele>439.05</ele>
        <time>2020-08-19T15:55:55.000Z</time>
      </trkpt>
      <trkpt lat="48.61549" lon="7.08323">
        <ele>438.92</ele>
        <time>2020-08-19T15:55:56.000Z</time>
      </trkpt>
      <trkpt lat="48.61544" lon="7.08322">
        <ele>439.83</ele>
        <time>2020-08-19T15:55:57.000Z</time>
      </trkpt>
      <trkpt lat="48.61539" lon="7.08321">
        <ele>439.46</ele>
        <time>2020-08-19T15:55:58.000Z</time>
      </trkpt>
      <trkpt lat="48.61533" lon="7.0832">
        <ele>440.35</ele>
        <time>2020-08-19T15:55:59.000Z</time>
      </trkpt>
      <trkpt lat="48.61528" lon="7.0832">
        <ele>440.87</ele>
        <time>2020-08-19T15:56:00.000Z</time>
      </trkpt>
      <trkpt lat="48.61514" lon="7.08324">
        <ele>439.29</ele>
        <time>2020-08-19T15:56:02.000Z</time>
      </trkpt>
      <trkpt lat="48.61509" lon="7.08327">
        <ele>439.66</ele>
        <time>2020-08-19T15:56:03.000Z</time>
      </trkpt>
      <trkpt lat="48.61504" lon="7.08331">
        <ele>439.19</ele>
        <time>2020-08-19T15:56:04.000Z</time>
      </trkpt>
      <trkpt lat="48.615" lon="7.08336">
        <ele>438.08</ele>
        <time>2020-08-19T15:56:05.000Z</time>
      </trkpt>
      <trkpt lat="48.61495" lon="7.08347">
        <ele>439.52</ele>
        <time>2020-08-19T15:56:07.000Z</time>
      </trkpt>
      <trkpt lat="48.61491" lon="7.08359">
        <ele>441.34</ele>
        <time>2020-08-19T15:56:09.000Z</time>
      </trkpt>
      <trkpt lat="48.61486" lon="7.08369">
        <ele>442.83</ele>
        <time>2020-08-19T15:56:11.000Z</time>
      </trkpt>
      <trkpt lat="48.61485" lon="7.08381">
        <ele>442.84</ele>
        <time>2020-08-19T15:56:13.000Z</time>
      </trkpt>
      <trkpt lat="48.61482" lon="7.08392">
        <ele>443.72</ele>
        <time>2020-08-19T15:56:15.000Z</time>
      </trkpt>
      <trkpt lat="48.61481" lon="7.08402">
        <ele>442.91</ele>
        <time>2020-08-19T15:56:17.000Z</time>
      </trkpt>
      <trkpt lat="48.61479" lon="7.0841">
        <ele>439.91</ele>
        <time>2020-08-19T15:56:19.000Z</time>
      </trkpt>
      <trkpt lat="48.61478" lon="7.0842">
        <ele>437.96</ele>
        <time>2020-08-19T15:56:21.000Z</time>
      </trkpt>
      <trkpt lat="48.61478" lon="7.08429">
        <ele>437.37</ele>
        <time>2020-08-19T15:56:23.000Z</time>
      </trkpt>
      <trkpt lat="48.61476" lon="7.08438">
        <ele>441.56</ele>
        <time>2020-08-19T15:56:26.000Z</time>
      </trkpt>
      <trkpt lat="48.61472" lon="7.08447">
        <ele>441.16</ele>
        <time>2020-08-19T15:56:28.000Z</time>
      </trkpt>
      <trkpt lat="48.61463" lon="7.08461">
        <ele>439.45</ele>
        <time>2020-08-19T15:56:30.000Z</time>
      </trkpt>
      <trkpt lat="48.61461" lon="7.08472">
        <ele>435.53</ele>
        <time>2020-08-19T15:56:32.000Z</time>
      </trkpt>
      <trkpt lat="48.61461" lon="7.08485">
        <ele>436.3</ele>
        <time>2020-08-19T15:56:34.000Z</time>
      </trkpt>
      <trkpt lat="48.61457" lon="7.08491">
        <ele>435.31</ele>
        <time>2020-08-19T15:56:35.000Z</time>
      </trkpt>
      <trkpt lat="48.61456" lon="7.08498">
        <ele>434.53</ele>
        <time>2020-08-19T15:56:36.000Z</time>
      </trkpt>
      <trkpt lat="48.61455" lon="7.08512">
        <ele>433.64</ele>
        <time>2020-08-19T15:56:38.000Z</time>
      </trkpt>
      <trkpt lat="48.61456" lon="7.0852">
        <ele>431.9</ele>
        <time>2020-08-19T15:56:39.000Z</time>
      </trkpt>
      <trkpt lat="48.61456" lon="7.08528">
        <ele>431.92</ele>
        <time>2020-08-19T15:56:40.000Z</time>
      </trkpt>
      <trkpt lat="48.61456" lon="7.08536">
        <ele>432.13</ele>
        <time>2020-08-19T15:56:41.000Z</time>
      </trkpt>
      <trkpt lat="48.61458" lon="7.08543">
        <ele>432.3</ele>
        <time>2020-08-19T15:56:42.000Z</time>
      </trkpt>
      <trkpt lat="48.61459" lon="7.08553">
        <ele>432.36</ele>
        <time>2020-08-19T15:56:43.000Z</time>
      </trkpt>
      <trkpt lat="48.61458" lon="7.0856">
        <ele>432.16</ele>
        <time>2020-08-19T15:56:44.000Z</time>
      </trkpt>
      <trkpt lat="48.61456" lon="7.08569">
        <ele>433.64</ele>
        <time>2020-08-19T15:56:45.000Z</time>
      </trkpt>
      <trkpt lat="48.61456" lon="7.08577">
        <ele>433.1</ele>
        <time>2020-08-19T15:56:46.000Z</time>
      </trkpt>
      <trkpt lat="48.61454" lon="7.08593">
        <ele>432.22</ele>
        <time>2020-08-19T15:56:48.000Z</time>
      </trkpt>
      <trkpt lat="48.61455" lon="7.086">
        <ele>432.76</ele>
        <time>2020-08-19T15:56:49.000Z</time>
      </trkpt>
      <trkpt lat="48.61457" lon="7.08608">
        <ele>433.22</ele>
        <time>2020-08-19T15:56:50.000Z</time>
      </trkpt>
      <trkpt lat="48.61458" lon="7.08616">
        <ele>432.2</ele>
        <time>2020-08-19T15:56:51.000Z</time>
      </trkpt>
      <trkpt lat="48.61459" lon="7.08624">
        <ele>431.43</ele>
        <time>2020-08-19T15:56:52.000Z</time>
      </trkpt>
      <trkpt lat="48.61456" lon="7.08632">
        <ele>432.84</ele>
        <time>2020-08-19T15:56:53.000Z</time>
      </trkpt>
      <trkpt lat="48.61457" lon="7.08641">
        <ele>432.47</ele>
        <time>2020-08-19T15:56:54.000Z</time>
      </trkpt>
      <trkpt lat="48.61457" lon="7.08653">
        <ele>433.23</ele>
        <time>2020-08-19T15:56:56.000Z</time>
      </trkpt>
      <trkpt lat="48.61457" lon="7.08665">
        <ele>433.51</ele>
        <time>2020-08-19T15:56:58.000Z</time>
      </trkpt>
      <trkpt lat="48.61459" lon="7.08676">
        <ele>433.6</ele>
        <time>2020-08-19T15:57:00.000Z</time>
      </trkpt>
      <trkpt lat="48.6146" lon="7.08683">
        <ele>433.11</ele>
        <time>2020-08-19T15:57:01.000Z</time>
      </trkpt>
      <trkpt lat="48.61465" lon="7.08691">
        <ele>431.95</ele>
        <time>2020-08-19T15:57:02.000Z</time>
      </trkpt>
      <trkpt lat="48.61463" lon="7.08699">
        <ele>432.78</ele>
        <time>2020-08-19T15:57:03.000Z</time>
      </trkpt>
      <trkpt lat="48.61465" lon="7.08707">
        <ele>430.18</ele>
        <time>2020-08-19T15:57:04.000Z</time>
      </trkpt>
      <trkpt lat="48.61466" lon="7.0872">
        <ele>430.63</ele>
        <time>2020-08-19T15:57:06.000Z</time>
      </trkpt>
      <trkpt lat="48.61466" lon="7.08727">
        <ele>431.88</ele>
        <time>2020-08-19T15:57:07.000Z</time>
      </trkpt>
      <trkpt lat="48.61466" lon="7.0874">
        <ele>431.43</ele>
        <time>2020-08-19T15:57:09.000Z</time>
      </trkpt>
      <trkpt lat="48.61463" lon="7.08747">
        <ele>430.66</ele>
        <time>2020-08-19T15:57:10.000Z</time>
      </trkpt>
      <trkpt lat="48.61463" lon="7.08754">
        <ele>429.96</ele>
        <time>2020-08-19T15:57:11.000Z</time>
      </trkpt>
      <trkpt lat="48.61463" lon="7.08761">
        <ele>429.86</ele>
        <time>2020-08-19T15:57:12.000Z</time>
      </trkpt>
      <trkpt lat="48.61463" lon="7.08768">
        <ele>431.03</ele>
        <time>2020-08-19T15:57:13.000Z</time>
      </trkpt>
      <trkpt lat="48.61466" lon="7.08775">
        <ele>432.99</ele>
        <time>2020-08-19T15:57:14.000Z</time>
      </trkpt>
      <trkpt lat="48.61468" lon="7.08782">
        <ele>432.71</ele>
        <time>2020-08-19T15:57:15.000Z</time>
      </trkpt>
      <trkpt lat="48.61469" lon="7.08789">
        <ele>432.91</ele>
        <time>2020-08-19T15:57:16.000Z</time>
      </trkpt>
      <trkpt lat="48.6147" lon="7.08797">
        <ele>432.86</ele>
        <time>2020-08-19T15:57:17.000Z</time>
      </trkpt>
      <trkpt lat="48.61469" lon="7.08804">
        <ele>433.88</ele>
        <time>2020-08-19T15:57:18.000Z</time>
      </trkpt>
      <trkpt lat="48.6147" lon="7.08812">
        <ele>432.63</ele>
        <time>2020-08-19T15:57:19.000Z</time>
      </trkpt>
      <trkpt lat="48.6147" lon="7.0882">
        <ele>432.51</ele>
        <time>2020-08-19T15:57:20.000Z</time>
      </trkpt>
      <trkpt lat="48.6147" lon="7.08828">
        <ele>433.3</ele>
        <time>2020-08-19T15:57:21.000Z</time>
      </trkpt>
      <trkpt lat="48.61469" lon="7.08835">
        <ele>432.92</ele>
        <time>2020-08-19T15:57:22.000Z</time>
      </trkpt>
      <trkpt lat="48.61469" lon="7.08848">
        <ele>433.24</ele>
        <time>2020-08-19T15:57:24.000Z</time>
      </trkpt>
      <trkpt lat="48.6147" lon="7.08855">
        <ele>433.39</ele>
        <time>2020-08-19T15:57:25.000Z</time>
      </trkpt>
      <trkpt lat="48.61468" lon="7.08868">
        <ele>448.2</ele>
        <time>2020-08-19T15:57:27.000Z</time>
      </trkpt>
      <trkpt lat="48.61466" lon="7.08875">
        <ele>444.11</ele>
        <time>2020-08-19T15:57:28.000Z</time>
      </trkpt>
      <trkpt lat="48.61466" lon="7.08886">
        <ele>442.67</ele>
        <time>2020-08-19T15:57:30.000Z</time>
      </trkpt>
      <trkpt lat="48.61462" lon="7.08897">
        <ele>438.59</ele>
        <time>2020-08-19T15:57:32.000Z</time>
      </trkpt>
      <trkpt lat="48.61457" lon="7.089">
        <ele>438.54</ele>
        <time>2020-08-19T15:57:33.000Z</time>
      </trkpt>
      <trkpt lat="48.61452" lon="7.08902">
        <ele>438.84</ele>
        <time>2020-08-19T15:57:34.000Z</time>
      </trkpt>
      <trkpt lat="48.61447" lon="7.08902">
        <ele>438.99</ele>
        <time>2020-08-19T15:57:35.000Z</time>
      </trkpt>
      <trkpt lat="48.61442" lon="7.089">
        <ele>438.48</ele>
        <time>2020-08-19T15:57:36.000Z</time>
      </trkpt>
      <trkpt lat="48.61436" lon="7.08898">
        <ele>438.49</ele>
        <time>2020-08-19T15:57:37.000Z</time>
      </trkpt>
      <trkpt lat="48.61431" lon="7.08896">
        <ele>436.49</ele>
        <time>2020-08-19T15:57:38.000Z</time>
      </trkpt>
      <trkpt lat="48.61425" lon="7.08893">
        <ele>436.36</ele>
        <time>2020-08-19T15:57:39.000Z</time>
      </trkpt>
      <trkpt lat="48.61419" lon="7.0889">
        <ele>436.69</ele>
        <time>2020-08-19T15:57:40.000Z</time>
      </trkpt>
      <trkpt lat="48.61413" lon="7.08886">
        <ele>434.71</ele>
        <time>2020-08-19T15:57:41.000Z</time>
      </trkpt>
      <trkpt lat="48.61407" lon="7.08882">
        <ele>434.43</ele>
        <time>2020-08-19T15:57:42.000Z</time>
      </trkpt>
      <trkpt lat="48.61402" lon="7.08879">
        <ele>451.46</ele>
        <time>2020-08-19T15:57:43.000Z</time>
      </trkpt>
      <trkpt lat="48.61397" lon="7.08875">
        <ele>446.3</ele>
        <time>2020-08-19T15:57:44.000Z</time>
      </trkpt>
      <trkpt lat="48.61391" lon="7.08872">
        <ele>442.48</ele>
        <time>2020-08-19T15:57:45.000Z</time>
      </trkpt>
      <trkpt lat="48.61386" lon="7.08869">
        <ele>440.06</ele>
        <time>2020-08-19T15:57:46.000Z</time>
      </trkpt>
      <trkpt lat="48.61381" lon="7.08866">
        <ele>437.94</ele>
        <time>2020-08-19T15:57:47.000Z</time>
      </trkpt>
      <trkpt lat="48.61376" lon="7.08864">
        <ele>436.97</ele>
        <time>2020-08-19T15:57:48.000Z</time>
      </trkpt>
      <trkpt lat="48.61372" lon="7.08861">
        <ele>436.4</ele>
        <time>2020-08-19T15:57:49.000Z</time>
      </trkpt>
      <trkpt lat="48.61368" lon="7.08858">
        <ele>434.08</ele>
        <time>2020-08-19T15:57:50.000Z</time>
      </trkpt>
      <trkpt lat="48.61362" lon="7.08855">
        <ele>435.23</ele>
        <time>2020-08-19T15:57:52.000Z</time>
      </trkpt>
      <trkpt lat="48.61357" lon="7.08852">
        <ele>436.54</ele>
        <time>2020-08-19T15:57:53.000Z</time>
      </trkpt>
      <trkpt lat="48.61352" lon="7.0885">
        <ele>436.85</ele>
        <time>2020-08-19T15:57:54.000Z</time>
      </trkpt>
      <trkpt lat="48.61347" lon="7.08843">
        <ele>457.04</ele>
        <time>2020-08-19T15:57:56.000Z</time>
      </trkpt>
      <trkpt lat="48.61342" lon="7.08837">
        <ele>450.03</ele>
        <time>2020-08-19T15:57:58.000Z</time>
      </trkpt>
      <trkpt lat="48.61335" lon="7.08832">
        <ele>444.12</ele>
        <time>2020-08-19T15:58:00.000Z</time>
      </trkpt>
      <trkpt lat="48.61328" lon="7.08828">
        <ele>438.19</ele>
        <time>2020-08-19T15:58:02.000Z</time>
      </trkpt>
      <trkpt lat="48.61319" lon="7.08826">
        <ele>433.87</ele>
        <time>2020-08-19T15:58:04.000Z</time>
      </trkpt>
      <trkpt lat="48.61311" lon="7.08824">
        <ele>433.79</ele>
        <time>2020-08-19T15:58:06.000Z</time>
      </trkpt>
      <trkpt lat="48.61307" lon="7.08821">
        <ele>431.87</ele>
        <time>2020-08-19T15:58:07.000Z</time>
      </trkpt>
      <trkpt lat="48.61303" lon="7.08817">
        <ele>431.78</ele>
        <time>2020-08-19T15:58:08.000Z</time>
      </trkpt>
      <trkpt lat="48.61299" lon="7.08814">
        <ele>432.39</ele>
        <time>2020-08-19T15:58:09.000Z</time>
      </trkpt>
      <trkpt lat="48.61291" lon="7.08808">
        <ele>432.11</ele>
        <time>2020-08-19T15:58:11.000Z</time>
      </trkpt>
      <trkpt lat="48.61286" lon="7.08806">
        <ele>432.68</ele>
        <time>2020-08-19T15:58:12.000Z</time>
      </trkpt>
      <trkpt lat="48.61278" lon="7.08804">
        <ele>431.18</ele>
        <time>2020-08-19T15:58:14.000Z</time>
      </trkpt>
      <trkpt lat="48.61273" lon="7.08803">
        <ele>431.46</ele>
        <time>2020-08-19T15:58:15.000Z</time>
      </trkpt>
      <trkpt lat="48.61268" lon="7.08803">
        <ele>430.42</ele>
        <time>2020-08-19T15:58:16.000Z</time>
      </trkpt>
      <trkpt lat="48.61263" lon="7.08803">
        <ele>430.31</ele>
        <time>2020-08-19T15:58:17.000Z</time>
      </trkpt>
      <trkpt lat="48.61255" lon="7.08802">
        <ele>430.76</ele>
        <time>2020-08-19T15:58:19.000Z</time>
      </trkpt>
      <trkpt lat="48.61247" lon="7.08802">
        <ele>433.17</ele>
        <time>2020-08-19T15:58:21.000Z</time>
      </trkpt>
      <trkpt lat="48.61239" lon="7.08805">
        <ele>435.66</ele>
        <time>2020-08-19T15:58:23.000Z</time>
      </trkpt>
      <trkpt lat="48.61231" lon="7.08808">
        <ele>437.91</ele>
        <time>2020-08-19T15:58:25.000Z</time>
      </trkpt>
      <trkpt lat="48.61225" lon="7.08812">
        <ele>437.14</ele>
        <time>2020-08-19T15:58:26.000Z</time>
      </trkpt>
      <trkpt lat="48.61217" lon="7.08817">
        <ele>437.65</ele>
        <time>2020-08-19T15:58:28.000Z</time>
      </trkpt>
      <trkpt lat="48.61213" lon="7.0882">
        <ele>437.35</ele>
        <time>2020-08-19T15:58:29.000Z</time>
      </trkpt>
      <trkpt lat="48.61208" lon="7.08823">
        <ele>435.46</ele>
        <time>2020-08-19T15:58:30.000Z</time>
      </trkpt>
      <trkpt lat="48.61204" lon="7.08827">
        <ele>435.67</ele>
        <time>2020-08-19T15:58:31.000Z</time>
      </trkpt>
      <trkpt lat="48.612" lon="7.0883">
        <ele>436.25</ele>
        <time>2020-08-19T15:58:32.000Z</time>
      </trkpt>
      <trkpt lat="48.61197" lon="7.08836">
        <ele>437.11</ele>
        <time>2020-08-19T15:58:33.000Z</time>
      </trkpt>
      <trkpt lat="48.61193" lon="7.08841">
        <ele>438.02</ele>
        <time>2020-08-19T15:58:34.000Z</time>
      </trkpt>
      <trkpt lat="48.61188" lon="7.08851">
        <ele>438.4</ele>
        <time>2020-08-19T15:58:36.000Z</time>
      </trkpt>
      <trkpt lat="48.61183" lon="7.08855">
        <ele>438.58</ele>
        <time>2020-08-19T15:58:37.000Z</time>
      </trkpt>
      <trkpt lat="48.61179" lon="7.08859">
        <ele>438.55</ele>
        <time>2020-08-19T15:58:38.000Z</time>
      </trkpt>
      <trkpt lat="48.61176" lon="7.08865">
        <ele>438.49</ele>
        <time>2020-08-19T15:58:39.000Z</time>
      </trkpt>
      <trkpt lat="48.6117" lon="7.08875">
        <ele>436.55</ele>
        <time>2020-08-19T15:58:41.000Z</time>
      </trkpt>
      <trkpt lat="48.61168" lon="7.08882">
        <ele>436.54</ele>
        <time>2020-08-19T15:58:42.000Z</time>
      </trkpt>
      <trkpt lat="48.61164" lon="7.08888">
        <ele>436.81</ele>
        <time>2020-08-19T15:58:43.000Z</time>
      </trkpt>
      <trkpt lat="48.61163" lon="7.08895">
        <ele>434.92</ele>
        <time>2020-08-19T15:58:44.000Z</time>
      </trkpt>
      <trkpt lat="48.61161" lon="7.08902">
        <ele>436.14</ele>
        <time>2020-08-19T15:58:45.000Z</time>
      </trkpt>
      <trkpt lat="48.61159" lon="7.08909">
        <ele>434.91</ele>
        <time>2020-08-19T15:58:46.000Z</time>
      </trkpt>
      <trkpt lat="48.61157" lon="7.0892">
        <ele>434.12</ele>
        <time>2020-08-19T15:58:48.000Z</time>
      </trkpt>
      <trkpt lat="48.61155" lon="7.08933">
        <ele>435.97</ele>
        <time>2020-08-19T15:58:50.000Z</time>
      </trkpt>
      <trkpt lat="48.61153" lon="7.08945">
        <ele>435.95</ele>
        <time>2020-08-19T15:58:52.000Z</time>
      </trkpt>
      <trkpt lat="48.61151" lon="7.08958">
        <ele>437.16</ele>
        <time>2020-08-19T15:58:54.000Z</time>
      </trkpt>
      <trkpt lat="48.61152" lon="7.0897">
        <ele>439.99</ele>
        <time>2020-08-19T15:58:56.000Z</time>
      </trkpt>
      <trkpt lat="48.61153" lon="7.08978">
        <ele>441.21</ele>
        <time>2020-08-19T15:58:57.000Z</time>
      </trkpt>
      <trkpt lat="48.61153" lon="7.08989">
        <ele>440.73</ele>
        <time>2020-08-19T15:58:59.000Z</time>
      </trkpt>
      <trkpt lat="48.61153" lon="7.08996">
        <ele>441.55</ele>
        <time>2020-08-19T15:59:00.000Z</time>
      </trkpt>
      <trkpt lat="48.61154" lon="7.09009">
        <ele>442.39</ele>
        <time>2020-08-19T15:59:02.000Z</time>
      </trkpt>
      <trkpt lat="48.61154" lon="7.09016">
        <ele>441.92</ele>
        <time>2020-08-19T15:59:03.000Z</time>
      </trkpt>
      <trkpt lat="48.61155" lon="7.09026">
        <ele>443.04</ele>
        <time>2020-08-19T15:59:05.000Z</time>
      </trkpt>
      <trkpt lat="48.61158" lon="7.0904">
        <ele>446.55</ele>
        <time>2020-08-19T15:59:07.000Z</time>
      </trkpt>
      <trkpt lat="48.6116" lon="7.09054">
        <ele>446.04</ele>
        <time>2020-08-19T15:59:09.000Z</time>
      </trkpt>
      <trkpt lat="48.61162" lon="7.09067">
        <ele>447.67</ele>
        <time>2020-08-19T15:59:11.000Z</time>
      </trkpt>
      <trkpt lat="48.61163" lon="7.09079">
        <ele>447.92</ele>
        <time>2020-08-19T15:59:13.000Z</time>
      </trkpt>
      <trkpt lat="48.61162" lon="7.0909">
        <ele>448.07</ele>
        <time>2020-08-19T15:59:15.000Z</time>
      </trkpt>
      <trkpt lat="48.61163" lon="7.09101">
        <ele>448.67</ele>
        <time>2020-08-19T15:59:17.000Z</time>
      </trkpt>
      <trkpt lat="48.61167" lon="7.09113">
        <ele>447.91</ele>
        <time>2020-08-19T15:59:19.000Z</time>
      </trkpt>
      <trkpt lat="48.61164" lon="7.09126">
        <ele>447.2</ele>
        <time>2020-08-19T15:59:21.000Z</time>
      </trkpt>
      <trkpt lat="48.61163" lon="7.09137">
        <ele>448.53</ele>
        <time>2020-08-19T15:59:23.000Z</time>
      </trkpt>
      <trkpt lat="48.61165" lon="7.09144">
        <ele>452.44</ele>
        <time>2020-08-19T15:59:42.000Z</time>
      </trkpt>
      <trkpt lat="48.61165" lon="7.09152">
        <ele>452.66</ele>
        <time>2020-08-19T15:59:45.000Z</time>
      </trkpt>
      <trkpt lat="48.61166" lon="7.09164">
        <ele>450.25</ele>
        <time>2020-08-19T15:59:47.000Z</time>
      </trkpt>
      <trkpt lat="48.61166" lon="7.09171">
        <ele>450.06</ele>
        <time>2020-08-19T15:59:48.000Z</time>
      </trkpt>
      <trkpt lat="48.61166" lon="7.09178">
        <ele>448.48</ele>
        <time>2020-08-19T15:59:49.000Z</time>
      </trkpt>
      <trkpt lat="48.61167" lon="7.09187">
        <ele>448.78</ele>
        <time>2020-08-19T15:59:50.000Z</time>
      </trkpt>
      <trkpt lat="48.61167" lon="7.09195">
        <ele>447.55</ele>
        <time>2020-08-19T15:59:51.000Z</time>
      </trkpt>
      <trkpt lat="48.61168" lon="7.09204">
        <ele>446.24</ele>
        <time>2020-08-19T15:59:52.000Z</time>
      </trkpt>
      <trkpt lat="48.61164" lon="7.09254">
        <ele>444.17</ele>
        <time>2020-08-19T15:59:57.000Z</time>
      </trkpt>
      <trkpt lat="48.61163" lon="7.09262">
        <ele>444.26</ele>
        <time>2020-08-19T15:59:58.000Z</time>
      </trkpt>
      <trkpt lat="48.61161" lon="7.09268">
        <ele>440.36</ele>
        <time>2020-08-19T16:00:02.000Z</time>
      </trkpt>
      <trkpt lat="48.61157" lon="7.09265">
        <ele>449.1</ele>
        <time>2020-08-19T16:00:14.000Z</time>
      </trkpt>
      <trkpt lat="48.6116" lon="7.0926">
        <ele>450.77</ele>
        <time>2020-08-19T16:00:18.000Z</time>
      </trkpt>
      <trkpt lat="48.61161" lon="7.09252">
        <ele>450.09</ele>
        <time>2020-08-19T16:00:23.000Z</time>
      </trkpt>
      <trkpt lat="48.61161" lon="7.09244">
        <ele>449.63</ele>
        <time>2020-08-19T16:00:28.000Z</time>
      </trkpt>
      <trkpt lat="48.61161" lon="7.09236">
        <ele>453.75</ele>
        <time>2020-08-19T16:00:32.000Z</time>
      </trkpt>
      <trkpt lat="48.61164" lon="7.0923">
        <ele>452.68</ele>
        <time>2020-08-19T16:00:37.000Z</time>
      </trkpt>
      <trkpt lat="48.61167" lon="7.09236">
        <ele>453.69</ele>
        <time>2020-08-19T16:00:42.000Z</time>
      </trkpt>
      <trkpt lat="48.61166" lon="7.09244">
        <ele>456.23</ele>
        <time>2020-08-19T16:00:46.000Z</time>
      </trkpt>
      <trkpt lat="48.61169" lon="7.09248">
        <ele>457.2</ele>
        <time>2020-08-19T16:00:51.000Z</time>
      </trkpt>
      <trkpt lat="48.6117" lon="7.09256">
        <ele>458.46</ele>
        <time>2020-08-19T16:00:58.000Z</time>
      </trkpt>
      <trkpt lat="48.61172" lon="7.09264">
        <ele>456.94</ele>
        <time>2020-08-19T16:01:01.000Z</time>
      </trkpt>
      <trkpt lat="48.61174" lon="7.09271">
        <ele>455.65</ele>
        <time>2020-08-19T16:01:05.000Z</time>
      </trkpt>
      <trkpt lat="48.61176" lon="7.09278">
        <ele>455.07</ele>
        <time>2020-08-19T16:01:08.000Z</time>
      </trkpt>
      <trkpt lat="48.61173" lon="7.09285">
        <ele>456.55</ele>
        <time>2020-08-19T16:01:12.000Z</time>
      </trkpt>
      <trkpt lat="48.61175" lon="7.09294">
        <ele>458.03</ele>
        <time>2020-08-19T16:01:17.000Z</time>
      </trkpt>
      <trkpt lat="48.61174" lon="7.09302">
        <ele>457.48</ele>
        <time>2020-08-19T16:01:21.000Z</time>
      </trkpt>
      <trkpt lat="48.61174" lon="7.09309">
        <ele>457.02</ele>
        <time>2020-08-19T16:01:24.000Z</time>
      </trkpt>
      <trkpt lat="48.61176" lon="7.09316">
        <ele>455.92</ele>
        <time>2020-08-19T16:01:27.000Z</time>
      </trkpt>
      <trkpt lat="48.61177" lon="7.09323">
        <ele>456.24</ele>
        <time>2020-08-19T16:01:31.000Z</time>
      </trkpt>
      <trkpt lat="48.61176" lon="7.09331">
        <ele>455.22</ele>
        <time>2020-08-19T16:01:34.000Z</time>
      </trkpt>
      <trkpt lat="48.61176" lon="7.09338">
        <ele>455.11</ele>
        <time>2020-08-19T16:01:38.000Z</time>
      </trkpt>
      <trkpt lat="48.61175" lon="7.09346">
        <ele>456.58</ele>
        <time>2020-08-19T16:01:42.000Z</time>
      </trkpt>
      <trkpt lat="48.61175" lon="7.09355">
        <ele>453.32</ele>
        <time>2020-08-19T16:01:46.000Z</time>
      </trkpt>
      <trkpt lat="48.61174" lon="7.09363">
        <ele>453.06</ele>
        <time>2020-08-19T16:01:50.000Z</time>
      </trkpt>
      <trkpt lat="48.61176" lon="7.0937">
        <ele>454.01</ele>
        <time>2020-08-19T16:01:57.000Z</time>
      </trkpt>
      <trkpt lat="48.61175" lon="7.09377">
        <ele>454.05</ele>
        <time>2020-08-19T16:02:00.000Z</time>
      </trkpt>
      <trkpt lat="48.61175" lon="7.09385">
        <ele>453.6</ele>
        <time>2020-08-19T16:02:03.000Z</time>
      </trkpt>
      <trkpt lat="48.61172" lon="7.09391">
        <ele>455.98</ele>
        <time>2020-08-19T16:02:24.000Z</time>
      </trkpt>
      <trkpt lat="48.61169" lon="7.09398">
        <ele>454.71</ele>
        <time>2020-08-19T16:03:26.000Z</time>
      </trkpt>
      <trkpt lat="48.61169" lon="7.09405">
        <ele>457.52</ele>
        <time>2020-08-19T16:03:28.000Z</time>
      </trkpt>
      <trkpt lat="48.6117" lon="7.09413">
        <ele>453.66</ele>
        <time>2020-08-19T16:03:30.000Z</time>
      </trkpt>
      <trkpt lat="48.6117" lon="7.09424">
        <ele>457.36</ele>
        <time>2020-08-19T16:03:32.000Z</time>
      </trkpt>
      <trkpt lat="48.61169" lon="7.09433">
        <ele>456.03</ele>
        <time>2020-08-19T16:03:34.000Z</time>
      </trkpt>
      <trkpt lat="48.61169" lon="7.09439">
        <ele>454.18</ele>
        <time>2020-08-19T16:03:36.000Z</time>
      </trkpt>
      <trkpt lat="48.6117" lon="7.09448">
        <ele>454.25</ele>
        <time>2020-08-19T16:03:38.000Z</time>
      </trkpt>
      <trkpt lat="48.61171" lon="7.09457">
        <ele>451.06</ele>
        <time>2020-08-19T16:03:40.000Z</time>
      </trkpt>
      <trkpt lat="48.61172" lon="7.09468">
        <ele>451.22</ele>
        <time>2020-08-19T16:03:42.000Z</time>
      </trkpt>
      <trkpt lat="48.61174" lon="7.09476">
        <ele>452.54</ele>
        <time>2020-08-19T16:03:44.000Z</time>
      </trkpt>
      <trkpt lat="48.61175" lon="7.09485">
        <ele>452.26</ele>
        <time>2020-08-19T16:03:46.000Z</time>
      </trkpt>
      <trkpt lat="48.61172" lon="7.09494">
        <ele>453.04</ele>
        <time>2020-08-19T16:03:48.000Z</time>
      </trkpt>
      <trkpt lat="48.6117" lon="7.09505">
        <ele>454.13</ele>
        <time>2020-08-19T16:03:51.000Z</time>
      </trkpt>
      <trkpt lat="48.61172" lon="7.09512">
        <ele>456.99</ele>
        <time>2020-08-19T16:03:53.000Z</time>
      </trkpt>
      <trkpt lat="48.6117" lon="7.09521">
        <ele>455.13</ele>
        <time>2020-08-19T16:03:55.000Z</time>
      </trkpt>
      <trkpt lat="48.61166" lon="7.09531">
        <ele>454.67</ele>
        <time>2020-08-19T16:03:57.000Z</time>
      </trkpt>
      <trkpt lat="48.61162" lon="7.09539">
        <ele>452.43</ele>
        <time>2020-08-19T16:03:59.000Z</time>
      </trkpt>
      <trkpt lat="48.61157" lon="7.09557">
        <ele>455.3</ele>
        <time>2020-08-19T16:04:02.000Z</time>
      </trkpt>
      <trkpt lat="48.61155" lon="7.09564">
        <ele>457.32</ele>
        <time>2020-08-19T16:04:03.000Z</time>
      </trkpt>
      <trkpt lat="48.61153" lon="7.09574">
        <ele>455.57</ele>
        <time>2020-08-19T16:04:05.000Z</time>
      </trkpt>
      <trkpt lat="48.6115" lon="7.09586">
        <ele>455.71</ele>
        <time>2020-08-19T16:04:07.000Z</time>
      </trkpt>
      <trkpt lat="48.61147" lon="7.09597">
        <ele>455.8</ele>
        <time>2020-08-19T16:04:09.000Z</time>
      </trkpt>
      <trkpt lat="48.61146" lon="7.09606">
        <ele>453.14</ele>
        <time>2020-08-19T16:04:11.000Z</time>
      </trkpt>
      <trkpt lat="48.61144" lon="7.09616">
        <ele>452.5</ele>
        <time>2020-08-19T16:04:13.000Z</time>
      </trkpt>
      <trkpt lat="48.61142" lon="7.09627">
        <ele>454.6</ele>
        <time>2020-08-19T16:04:15.000Z</time>
      </trkpt>
      <trkpt lat="48.61142" lon="7.09637">
        <ele>450.93</ele>
        <time>2020-08-19T16:04:17.000Z</time>
      </trkpt>
      <trkpt lat="48.61142" lon="7.09645">
        <ele>452.47</ele>
        <time>2020-08-19T16:04:19.000Z</time>
      </trkpt>
      <trkpt lat="48.61141" lon="7.09654">
        <ele>452.01</ele>
        <time>2020-08-19T16:04:21.000Z</time>
      </trkpt>
      <trkpt lat="48.61141" lon="7.09661">
        <ele>450.86</ele>
        <time>2020-08-19T16:04:23.000Z</time>
      </trkpt>
      <trkpt lat="48.61139" lon="7.0967">
        <ele>449.64</ele>
        <time>2020-08-19T16:04:25.000Z</time>
      </trkpt>
      <trkpt lat="48.61136" lon="7.09679">
        <ele>450.74</ele>
        <time>2020-08-19T16:04:27.000Z</time>
      </trkpt>
      <trkpt lat="48.61134" lon="7.09687">
        <ele>452.33</ele>
        <time>2020-08-19T16:04:29.000Z</time>
      </trkpt>
      <trkpt lat="48.61132" lon="7.09697">
        <ele>451.72</ele>
        <time>2020-08-19T16:04:31.000Z</time>
      </trkpt>
      <trkpt lat="48.6113" lon="7.09707">
        <ele>453.27</ele>
        <time>2020-08-19T16:04:33.000Z</time>
      </trkpt>
      <trkpt lat="48.61128" lon="7.09716">
        <ele>454.59</ele>
        <time>2020-08-19T16:04:35.000Z</time>
      </trkpt>
      <trkpt lat="48.61126" lon="7.09725">
        <ele>455.92</ele>
        <time>2020-08-19T16:04:37.000Z</time>
      </trkpt>
      <trkpt lat="48.61125" lon="7.09733">
        <ele>457.52</ele>
        <time>2020-08-19T16:04:39.000Z</time>
      </trkpt>
      <trkpt lat="48.61123" lon="7.09741">
        <ele>458.44</ele>
        <time>2020-08-19T16:04:42.000Z</time>
      </trkpt>
      <trkpt lat="48.61121" lon="7.09752">
        <ele>457.45</ele>
        <time>2020-08-19T16:04:45.000Z</time>
      </trkpt>
      <trkpt lat="48.6112" lon="7.0976">
        <ele>459.25</ele>
        <time>2020-08-19T16:04:47.000Z</time>
      </trkpt>
      <trkpt lat="48.61121" lon="7.09769">
        <ele>458.29</ele>
        <time>2020-08-19T16:04:49.000Z</time>
      </trkpt>
      <trkpt lat="48.61123" lon="7.09777">
        <ele>459.88</ele>
        <time>2020-08-19T16:04:51.000Z</time>
      </trkpt>
      <trkpt lat="48.61123" lon="7.09789">
        <ele>461.43</ele>
        <time>2020-08-19T16:04:53.000Z</time>
      </trkpt>
      <trkpt lat="48.61123" lon="7.09798">
        <ele>462.8</ele>
        <time>2020-08-19T16:04:55.000Z</time>
      </trkpt>
      <trkpt lat="48.61123" lon="7.09805">
        <ele>463.72</ele>
        <time>2020-08-19T16:04:58.000Z</time>
      </trkpt>
      <trkpt lat="48.61123" lon="7.09813">
        <ele>463.35</ele>
        <time>2020-08-19T16:05:00.000Z</time>
      </trkpt>
      <trkpt lat="48.61123" lon="7.09822">
        <ele>465.23</ele>
        <time>2020-08-19T16:05:02.000Z</time>
      </trkpt>
      <trkpt lat="48.61125" lon="7.09833">
        <ele>464.84</ele>
        <time>2020-08-19T16:05:04.000Z</time>
      </trkpt>
      <trkpt lat="48.61127" lon="7.09843">
        <ele>466.26</ele>
        <time>2020-08-19T16:05:06.000Z</time>
      </trkpt>
      <trkpt lat="48.61128" lon="7.09853">
        <ele>467.94</ele>
        <time>2020-08-19T16:05:08.000Z</time>
      </trkpt>
      <trkpt lat="48.61128" lon="7.09862">
        <ele>468.26</ele>
        <time>2020-08-19T16:05:10.000Z</time>
      </trkpt>
      <trkpt lat="48.61129" lon="7.0987">
        <ele>469.77</ele>
        <time>2020-08-19T16:05:12.000Z</time>
      </trkpt>
      <trkpt lat="48.61129" lon="7.09877">
        <ele>472.92</ele>
        <time>2020-08-19T16:05:14.000Z</time>
      </trkpt>
      <trkpt lat="48.6113" lon="7.09884">
        <ele>476.3</ele>
        <time>2020-08-19T16:05:16.000Z</time>
      </trkpt>
      <trkpt lat="48.61129" lon="7.09895">
        <ele>478.58</ele>
        <time>2020-08-19T16:05:19.000Z</time>
      </trkpt>
      <trkpt lat="48.6113" lon="7.09902">
        <ele>479.63</ele>
        <time>2020-08-19T16:05:21.000Z</time>
      </trkpt>
      <trkpt lat="48.61133" lon="7.09911">
        <ele>479.58</ele>
        <time>2020-08-19T16:05:23.000Z</time>
      </trkpt>
      <trkpt lat="48.61135" lon="7.09919">
        <ele>481.61</ele>
        <time>2020-08-19T16:05:25.000Z</time>
      </trkpt>
      <trkpt lat="48.61138" lon="7.09924">
        <ele>484.22</ele>
        <time>2020-08-19T16:05:27.000Z</time>
      </trkpt>
      <trkpt lat="48.61139" lon="7.09931">
        <ele>487.53</ele>
        <time>2020-08-19T16:05:29.000Z</time>
      </trkpt>
      <trkpt lat="48.61138" lon="7.09941">
        <ele>487.89</ele>
        <time>2020-08-19T16:05:31.000Z</time>
      </trkpt>
      <trkpt lat="48.61136" lon="7.09948">
        <ele>491.16</ele>
        <time>2020-08-19T16:05:33.000Z</time>
      </trkpt>
      <trkpt lat="48.61134" lon="7.09958">
        <ele>491.48</ele>
        <time>2020-08-19T16:05:35.000Z</time>
      </trkpt>
      <trkpt lat="48.61134" lon="7.09967">
        <ele>490.48</ele>
        <time>2020-08-19T16:05:37.000Z</time>
      </trkpt>
      <trkpt lat="48.61134" lon="7.09978">
        <ele>492.29</ele>
        <time>2020-08-19T16:05:40.000Z</time>
      </trkpt>
      <trkpt lat="48.61135" lon="7.09986">
        <ele>491.31</ele>
        <time>2020-08-19T16:05:42.000Z</time>
      </trkpt>
      <trkpt lat="48.61137" lon="7.09996">
        <ele>492.9</ele>
        <time>2020-08-19T16:05:45.000Z</time>
      </trkpt>
      <trkpt lat="48.61137" lon="7.10004">
        <ele>492.63</ele>
        <time>2020-08-19T16:05:47.000Z</time>
      </trkpt>
      <trkpt lat="48.61139" lon="7.10011">
        <ele>491.41</ele>
        <time>2020-08-19T16:05:49.000Z</time>
      </trkpt>
      <trkpt lat="48.61143" lon="7.10016">
        <ele>489.63</ele>
        <time>2020-08-19T16:05:51.000Z</time>
      </trkpt>
      <trkpt lat="48.61145" lon="7.10025">
        <ele>488.83</ele>
        <time>2020-08-19T16:05:54.000Z</time>
      </trkpt>
      <trkpt lat="48.61147" lon="7.10031">
        <ele>489.95</ele>
        <time>2020-08-19T16:05:56.000Z</time>
      </trkpt>
      <trkpt lat="48.61147" lon="7.10041">
        <ele>489.41</ele>
        <time>2020-08-19T16:05:59.000Z</time>
      </trkpt>
      <trkpt lat="48.61145" lon="7.1005">
        <ele>489.8</ele>
        <time>2020-08-19T16:06:01.000Z</time>
      </trkpt>
      <trkpt lat="48.61144" lon="7.10057">
        <ele>488.56</ele>
        <time>2020-08-19T16:06:03.000Z</time>
      </trkpt>
      <trkpt lat="48.61145" lon="7.10065">
        <ele>487.95</ele>
        <time>2020-08-19T16:06:05.000Z</time>
      </trkpt>
      <trkpt lat="48.61146" lon="7.10074">
        <ele>484.5</ele>
        <time>2020-08-19T16:06:07.000Z</time>
      </trkpt>
      <trkpt lat="48.61147" lon="7.10082">
        <ele>484.36</ele>
        <time>2020-08-19T16:06:09.000Z</time>
      </trkpt>
      <trkpt lat="48.61148" lon="7.10091">
        <ele>485.41</ele>
        <time>2020-08-19T16:06:11.000Z</time>
      </trkpt>
      <trkpt lat="48.6115" lon="7.10099">
        <ele>487.75</ele>
        <time>2020-08-19T16:06:13.000Z</time>
      </trkpt>
      <trkpt lat="48.61152" lon="7.10107">
        <ele>489.04</ele>
        <time>2020-08-19T16:06:15.000Z</time>
      </trkpt>
      <trkpt lat="48.6115" lon="7.10116">
        <ele>490.63</ele>
        <time>2020-08-19T16:06:17.000Z</time>
      </trkpt>
      <trkpt lat="48.61149" lon="7.10124">
        <ele>489.07</ele>
        <time>2020-08-19T16:06:19.000Z</time>
      </trkpt>
      <trkpt lat="48.61151" lon="7.10134">
        <ele>487.61</ele>
        <time>2020-08-19T16:06:22.000Z</time>
      </trkpt>
      <trkpt lat="48.61152" lon="7.10143">
        <ele>487.85</ele>
        <time>2020-08-19T16:06:24.000Z</time>
      </trkpt>
      <trkpt lat="48.61152" lon="7.10152">
        <ele>488.95</ele>
        <time>2020-08-19T16:06:26.000Z</time>
      </trkpt>
      <trkpt lat="48.61153" lon="7.10163">
        <ele>490.25</ele>
        <time>2020-08-19T16:06:29.000Z</time>
      </trkpt>
      <trkpt lat="48.61153" lon="7.10171">
        <ele>491.23</ele>
        <time>2020-08-19T16:06:31.000Z</time>
      </trkpt>
      <trkpt lat="48.61151" lon="7.10179">
        <ele>494.32</ele>
        <time>2020-08-19T16:06:33.000Z</time>
      </trkpt>
      <trkpt lat="48.6115" lon="7.10188">
        <ele>501.24</ele>
        <time>2020-08-19T16:06:36.000Z</time>
      </trkpt>
      <trkpt lat="48.61151" lon="7.10196">
        <ele>500.17</ele>
        <time>2020-08-19T16:06:38.000Z</time>
      </trkpt>
      <trkpt lat="48.61154" lon="7.10202">
        <ele>498.69</ele>
        <time>2020-08-19T16:06:40.000Z</time>
      </trkpt>
      <trkpt lat="48.61159" lon="7.10209">
        <ele>499.26</ele>
        <time>2020-08-19T16:06:43.000Z</time>
      </trkpt>
      <trkpt lat="48.61162" lon="7.10215">
        <ele>503.58</ele>
        <time>2020-08-19T16:06:45.000Z</time>
      </trkpt>
      <trkpt lat="48.61166" lon="7.10218">
        <ele>507.16</ele>
        <time>2020-08-19T16:06:47.000Z</time>
      </trkpt>
      <trkpt lat="48.61171" lon="7.10221">
        <ele>507.88</ele>
        <time>2020-08-19T16:06:49.000Z</time>
      </trkpt>
      <trkpt lat="48.61176" lon="7.10225">
        <ele>510.46</ele>
        <time>2020-08-19T16:06:51.000Z</time>
      </trkpt>
      <trkpt lat="48.61182" lon="7.10232">
        <ele>510.93</ele>
        <time>2020-08-19T16:06:54.000Z</time>
      </trkpt>
      <trkpt lat="48.61187" lon="7.10238">
        <ele>510.32</ele>
        <time>2020-08-19T16:06:56.000Z</time>
      </trkpt>
      <trkpt lat="48.6119" lon="7.10244">
        <ele>510.37</ele>
        <time>2020-08-19T16:06:58.000Z</time>
      </trkpt>
      <trkpt lat="48.61191" lon="7.10252">
        <ele>510.74</ele>
        <time>2020-08-19T16:07:00.000Z</time>
      </trkpt>
      <trkpt lat="48.6119" lon="7.10259">
        <ele>509.03</ele>
        <time>2020-08-19T16:07:06.000Z</time>
      </trkpt>
      <trkpt lat="48.6119" lon="7.10266">
        <ele>508.05</ele>
        <time>2020-08-19T16:07:13.000Z</time>
      </trkpt>
      <trkpt lat="48.6119" lon="7.10273">
        <ele>508.29</ele>
        <time>2020-08-19T16:07:16.000Z</time>
      </trkpt>
      <trkpt lat="48.61189" lon="7.10282">
        <ele>509.34</ele>
        <time>2020-08-19T16:07:19.000Z</time>
      </trkpt>
      <trkpt lat="48.61187" lon="7.10291">
        <ele>511.65</ele>
        <time>2020-08-19T16:07:22.000Z</time>
      </trkpt>
      <trkpt lat="48.61186" lon="7.10298">
        <ele>511.25</ele>
        <time>2020-08-19T16:07:25.000Z</time>
      </trkpt>
      <trkpt lat="48.61186" lon="7.10307">
        <ele>510.51</ele>
        <time>2020-08-19T16:07:28.000Z</time>
      </trkpt>
      <trkpt lat="48.61185" lon="7.10314">
        <ele>508.07</ele>
        <time>2020-08-19T16:07:31.000Z</time>
      </trkpt>
      <trkpt lat="48.61183" lon="7.10321">
        <ele>508.54</ele>
        <time>2020-08-19T16:07:34.000Z</time>
      </trkpt>
      <trkpt lat="48.61179" lon="7.10331">
        <ele>506.78</ele>
        <time>2020-08-19T16:07:37.000Z</time>
      </trkpt>
      <trkpt lat="48.61176" lon="7.10338">
        <ele>508.19</ele>
        <time>2020-08-19T16:07:39.000Z</time>
      </trkpt>
      <trkpt lat="48.61174" lon="7.10345">
        <ele>510.09</ele>
        <time>2020-08-19T16:07:41.000Z</time>
      </trkpt>
      <trkpt lat="48.6117" lon="7.10352">
        <ele>509.56</ele>
        <time>2020-08-19T16:07:43.000Z</time>
      </trkpt>
      <trkpt lat="48.61168" lon="7.1036">
        <ele>510.86</ele>
        <time>2020-08-19T16:07:45.000Z</time>
      </trkpt>
      <trkpt lat="48.61168" lon="7.10368">
        <ele>510.7</ele>
        <time>2020-08-19T16:07:47.000Z</time>
      </trkpt>
      <trkpt lat="48.61168" lon="7.10377">
        <ele>512.17</ele>
        <time>2020-08-19T16:07:49.000Z</time>
      </trkpt>
      <trkpt lat="48.61171" lon="7.10385">
        <ele>512.23</ele>
        <time>2020-08-19T16:07:51.000Z</time>
      </trkpt>
      <trkpt lat="48.61172" lon="7.10392">
        <ele>513.37</ele>
        <time>2020-08-19T16:07:53.000Z</time>
      </trkpt>
      <trkpt lat="48.61171" lon="7.10401">
        <ele>514.52</ele>
        <time>2020-08-19T16:07:55.000Z</time>
      </trkpt>
      <trkpt lat="48.6117" lon="7.10409">
        <ele>515</ele>
        <time>2020-08-19T16:07:57.000Z</time>
      </trkpt>
      <trkpt lat="48.6117" lon="7.10419">
        <ele>514.22</ele>
        <time>2020-08-19T16:08:00.000Z</time>
      </trkpt>
      <trkpt lat="48.6117" lon="7.10428">
        <ele>518.79</ele>
        <time>2020-08-19T16:08:03.000Z</time>
      </trkpt>
      <trkpt lat="48.6117" lon="7.10436">
        <ele>520.9</ele>
        <time>2020-08-19T16:08:05.000Z</time>
      </trkpt>
      <trkpt lat="48.6117" lon="7.10445">
        <ele>522.94</ele>
        <time>2020-08-19T16:08:07.000Z</time>
      </trkpt>
      <trkpt lat="48.61171" lon="7.10452">
        <ele>523.5</ele>
        <time>2020-08-19T16:08:09.000Z</time>
      </trkpt>
      <trkpt lat="48.61173" lon="7.10461">
        <ele>523.89</ele>
        <time>2020-08-19T16:08:11.000Z</time>
      </trkpt>
      <trkpt lat="48.61172" lon="7.10469">
        <ele>523.92</ele>
        <time>2020-08-19T16:08:13.000Z</time>
      </trkpt>
      <trkpt lat="48.61173" lon="7.10478">
        <ele>524.3</ele>
        <time>2020-08-19T16:08:15.000Z</time>
      </trkpt>
      <trkpt lat="48.61174" lon="7.10487">
        <ele>521.98</ele>
        <time>2020-08-19T16:08:17.000Z</time>
      </trkpt>
      <trkpt lat="48.61176" lon="7.10495">
        <ele>523.39</ele>
        <time>2020-08-19T16:08:19.000Z</time>
      </trkpt>
      <trkpt lat="48.61177" lon="7.10503">
        <ele>525.7</ele>
        <time>2020-08-19T16:08:21.000Z</time>
      </trkpt>
      <trkpt lat="48.61178" lon="7.10512">
        <ele>528.4</ele>
        <time>2020-08-19T16:08:24.000Z</time>
      </trkpt>
      <trkpt lat="48.61178" lon="7.1052">
        <ele>528.49</ele>
        <time>2020-08-19T16:08:26.000Z</time>
      </trkpt>
      <trkpt lat="48.61179" lon="7.10528">
        <ele>528.58</ele>
        <time>2020-08-19T16:08:28.000Z</time>
      </trkpt>
      <trkpt lat="48.6118" lon="7.10538">
        <ele>526</ele>
        <time>2020-08-19T16:08:30.000Z</time>
      </trkpt>
      <trkpt lat="48.6118" lon="7.10549">
        <ele>526.13</ele>
        <time>2020-08-19T16:08:32.000Z</time>
      </trkpt>
      <trkpt lat="48.61179" lon="7.10561">
        <ele>526</ele>
        <time>2020-08-19T16:08:34.000Z</time>
      </trkpt>
      <trkpt lat="48.6118" lon="7.1057">
        <ele>525.98</ele>
        <time>2020-08-19T16:08:36.000Z</time>
      </trkpt>
      <trkpt lat="48.61182" lon="7.1058">
        <ele>526.23</ele>
        <time>2020-08-19T16:08:38.000Z</time>
      </trkpt>
      <trkpt lat="48.61184" lon="7.10591">
        <ele>527.91</ele>
        <time>2020-08-19T16:08:40.000Z</time>
      </trkpt>
      <trkpt lat="48.61186" lon="7.10602">
        <ele>529.39</ele>
        <time>2020-08-19T16:08:42.000Z</time>
      </trkpt>
      <trkpt lat="48.61186" lon="7.10614">
        <ele>531.14</ele>
        <time>2020-08-19T16:08:44.000Z</time>
      </trkpt>
      <trkpt lat="48.61186" lon="7.10625">
        <ele>531.99</ele>
        <time>2020-08-19T16:08:46.000Z</time>
      </trkpt>
      <trkpt lat="48.61186" lon="7.10637">
        <ele>529.93</ele>
        <time>2020-08-19T16:08:48.000Z</time>
      </trkpt>
      <trkpt lat="48.61186" lon="7.10647">
        <ele>529.01</ele>
        <time>2020-08-19T16:08:50.000Z</time>
      </trkpt>
      <trkpt lat="48.61186" lon="7.10659">
        <ele>529.95</ele>
        <time>2020-08-19T16:08:52.000Z</time>
      </trkpt>
      <trkpt lat="48.61186" lon="7.1067">
        <ele>530.62</ele>
        <time>2020-08-19T16:08:54.000Z</time>
      </trkpt>
      <trkpt lat="48.61187" lon="7.1068">
        <ele>535.18</ele>
        <time>2020-08-19T16:08:56.000Z</time>
      </trkpt>
      <trkpt lat="48.6119" lon="7.10692">
        <ele>535.83</ele>
        <time>2020-08-19T16:08:58.000Z</time>
      </trkpt>
      <trkpt lat="48.61193" lon="7.10702">
        <ele>536.07</ele>
        <time>2020-08-19T16:09:00.000Z</time>
      </trkpt>
      <trkpt lat="48.61203" lon="7.10716">
        <ele>537.28</ele>
        <time>2020-08-19T16:09:02.000Z</time>
      </trkpt>
      <trkpt lat="48.61205" lon="7.10723">
        <ele>535.66</ele>
        <time>2020-08-19T16:09:03.000Z</time>
      </trkpt>
      <trkpt lat="48.61206" lon="7.10729">
        <ele>537</ele>
        <time>2020-08-19T16:09:04.000Z</time>
      </trkpt>
      <trkpt lat="48.61208" lon="7.10742">
        <ele>537.24</ele>
        <time>2020-08-19T16:09:06.000Z</time>
      </trkpt>
      <trkpt lat="48.61212" lon="7.10747">
        <ele>538.78</ele>
        <time>2020-08-19T16:09:08.000Z</time>
      </trkpt>
      <trkpt lat="48.61214" lon="7.10756">
        <ele>535.5</ele>
        <time>2020-08-19T16:09:10.000Z</time>
      </trkpt>
      <trkpt lat="48.61215" lon="7.10764">
        <ele>534.27</ele>
        <time>2020-08-19T16:09:11.000Z</time>
      </trkpt>
      <trkpt lat="48.61219" lon="7.10768">
        <ele>535.08</ele>
        <time>2020-08-19T16:09:13.000Z</time>
      </trkpt>
      <trkpt lat="48.6122" lon="7.10775">
        <ele>534.18</ele>
        <time>2020-08-19T16:09:26.000Z</time>
      </trkpt>
      <trkpt lat="48.61224" lon="7.10782">
        <ele>535.19</ele>
        <time>2020-08-19T16:09:28.000Z</time>
      </trkpt>
      <trkpt lat="48.61226" lon="7.10794">
        <ele>535.74</ele>
        <time>2020-08-19T16:09:30.000Z</time>
      </trkpt>
      <trkpt lat="48.61229" lon="7.10807">
        <ele>536.5</ele>
        <time>2020-08-19T16:09:32.000Z</time>
      </trkpt>
      <trkpt lat="48.61234" lon="7.10825">
        <ele>533.52</ele>
        <time>2020-08-19T16:09:34.000Z</time>
      </trkpt>
      <trkpt lat="48.61236" lon="7.10833">
        <ele>532.22</ele>
        <time>2020-08-19T16:09:35.000Z</time>
      </trkpt>
      <trkpt lat="48.61237" lon="7.10842">
        <ele>531.31</ele>
        <time>2020-08-19T16:09:36.000Z</time>
      </trkpt>
      <trkpt lat="48.61237" lon="7.10851">
        <ele>531.31</ele>
        <time>2020-08-19T16:09:37.000Z</time>
      </trkpt>
      <trkpt lat="48.6124" lon="7.10858">
        <ele>531.1</ele>
        <time>2020-08-19T16:09:38.000Z</time>
      </trkpt>
      <trkpt lat="48.61242" lon="7.10868">
        <ele>531.02</ele>
        <time>2020-08-19T16:09:39.000Z</time>
      </trkpt>
      <trkpt lat="48.61243" lon="7.10876">
        <ele>529.86</ele>
        <time>2020-08-19T16:09:40.000Z</time>
      </trkpt>
      <trkpt lat="48.61244" lon="7.10883">
        <ele>528.44</ele>
        <time>2020-08-19T16:09:41.000Z</time>
      </trkpt>
      <trkpt lat="48.61246" lon="7.1089">
        <ele>528.43</ele>
        <time>2020-08-19T16:09:42.000Z</time>
      </trkpt>
      <trkpt lat="48.61249" lon="7.10899">
        <ele>528.35</ele>
        <time>2020-08-19T16:09:44.000Z</time>
      </trkpt>
      <trkpt lat="48.61247" lon="7.10906">
        <ele>525.23</ele>
        <time>2020-08-19T16:10:09.000Z</time>
      </trkpt>
      <trkpt lat="48.61242" lon="7.10912">
        <ele>525.43</ele>
        <time>2020-08-19T16:10:11.000Z</time>
      </trkpt>
      <trkpt lat="48.61235" lon="7.10912">
        <ele>525.75</ele>
        <time>2020-08-19T16:10:13.000Z</time>
      </trkpt>
      <trkpt lat="48.6123" lon="7.10911">
        <ele>526.11</ele>
        <time>2020-08-19T16:10:15.000Z</time>
      </trkpt>
      <trkpt lat="48.61225" lon="7.10912">
        <ele>526.88</ele>
        <time>2020-08-19T16:10:17.000Z</time>
      </trkpt>
      <trkpt lat="48.61218" lon="7.10916">
        <ele>526.81</ele>
        <time>2020-08-19T16:10:20.000Z</time>
      </trkpt>
      <trkpt lat="48.61212" lon="7.10913">
        <ele>521.85</ele>
        <time>2020-08-19T16:10:48.000Z</time>
      </trkpt>
      <trkpt lat="48.61207" lon="7.1091">
        <ele>523.28</ele>
        <time>2020-08-19T16:10:50.000Z</time>
      </trkpt>
      <trkpt lat="48.61201" lon="7.1091">
        <ele>522.21</ele>
        <time>2020-08-19T16:10:52.000Z</time>
      </trkpt>
      <trkpt lat="48.61196" lon="7.10908">
        <ele>521.16</ele>
        <time>2020-08-19T16:10:54.000Z</time>
      </trkpt>
      <trkpt lat="48.61189" lon="7.10904">
        <ele>523.33</ele>
        <time>2020-08-19T16:10:56.000Z</time>
      </trkpt>
      <trkpt lat="48.61184" lon="7.10902">
        <ele>522.71</ele>
        <time>2020-08-19T16:10:58.000Z</time>
      </trkpt>
      <trkpt lat="48.61179" lon="7.109">
        <ele>518.45</ele>
        <time>2020-08-19T16:11:00.000Z</time>
      </trkpt>
      <trkpt lat="48.61152" lon="7.10883">
        <ele>520.63</ele>
        <time>2020-08-19T16:11:07.000Z</time>
      </trkpt>
      <trkpt lat="48.61144" lon="7.10886">
        <ele>521.58</ele>
        <time>2020-08-19T16:11:09.000Z</time>
      </trkpt>
      <trkpt lat="48.6114" lon="7.1088">
        <ele>521.54</ele>
        <time>2020-08-19T16:11:12.000Z</time>
      </trkpt>
      <trkpt lat="48.6113" lon="7.10875">
        <ele>521</ele>
        <time>2020-08-19T16:11:15.000Z</time>
      </trkpt>
      <trkpt lat="48.61123" lon="7.10873">
        <ele>522.44</ele>
        <time>2020-08-19T16:11:17.000Z</time>
      </trkpt>
      <trkpt lat="48.61117" lon="7.1087">
        <ele>517.94</ele>
        <time>2020-08-19T16:11:19.000Z</time>
      </trkpt>
      <trkpt lat="48.61111" lon="7.10864">
        <ele>516.97</ele>
        <time>2020-08-19T16:11:21.000Z</time>
      </trkpt>
      <trkpt lat="48.61106" lon="7.10859">
        <ele>515.62</ele>
        <time>2020-08-19T16:11:23.000Z</time>
      </trkpt>
      <trkpt lat="48.61103" lon="7.10854">
        <ele>550.53</ele>
        <time>2020-08-19T16:11:25.000Z</time>
      </trkpt>
      <trkpt lat="48.61101" lon="7.10847">
        <ele>542.93</ele>
        <time>2020-08-19T16:11:27.000Z</time>
      </trkpt>
      <trkpt lat="48.61095" lon="7.10843">
        <ele>538.95</ele>
        <time>2020-08-19T16:11:29.000Z</time>
      </trkpt>
      <trkpt lat="48.61088" lon="7.10842">
        <ele>538.16</ele>
        <time>2020-08-19T16:11:31.000Z</time>
      </trkpt>
      <trkpt lat="48.61082" lon="7.10841">
        <ele>538.59</ele>
        <time>2020-08-19T16:11:33.000Z</time>
      </trkpt>
      <trkpt lat="48.61076" lon="7.10843">
        <ele>539.04</ele>
        <time>2020-08-19T16:11:35.000Z</time>
      </trkpt>
      <trkpt lat="48.61069" lon="7.10843">
        <ele>537.93</ele>
        <time>2020-08-19T16:11:37.000Z</time>
      </trkpt>
      <trkpt lat="48.61062" lon="7.10839">
        <ele>530.96</ele>
        <time>2020-08-19T16:11:39.000Z</time>
      </trkpt>
      <trkpt lat="48.61056" lon="7.10837">
        <ele>527.61</ele>
        <time>2020-08-19T16:11:41.000Z</time>
      </trkpt>
      <trkpt lat="48.61048" lon="7.10835">
        <ele>525.05</ele>
        <time>2020-08-19T16:11:43.000Z</time>
      </trkpt>
      <trkpt lat="48.6104" lon="7.10833">
        <ele>525.16</ele>
        <time>2020-08-19T16:11:45.000Z</time>
      </trkpt>
      <trkpt lat="48.61032" lon="7.10832">
        <ele>525.8</ele>
        <time>2020-08-19T16:11:47.000Z</time>
      </trkpt>
      <trkpt lat="48.61026" lon="7.10832">
        <ele>525.61</ele>
        <time>2020-08-19T16:11:49.000Z</time>
      </trkpt>
      <trkpt lat="48.61022" lon="7.10832">
        <ele>524</ele>
        <time>2020-08-19T16:11:55.000Z</time>
      </trkpt>
      <trkpt lat="48.61017" lon="7.10837">
        <ele>521.21</ele>
        <time>2020-08-19T16:12:09.000Z</time>
      </trkpt>
      <trkpt lat="48.61011" lon="7.10837">
        <ele>522.75</ele>
        <time>2020-08-19T16:12:13.000Z</time>
      </trkpt>
      <trkpt lat="48.61005" lon="7.10836">
        <ele>522.18</ele>
        <time>2020-08-19T16:12:15.000Z</time>
      </trkpt>
      <trkpt lat="48.60999" lon="7.10834">
        <ele>519.42</ele>
        <time>2020-08-19T16:12:17.000Z</time>
      </trkpt>
      <trkpt lat="48.60963" lon="7.10816">
        <ele>514.14</ele>
        <time>2020-08-19T16:12:24.000Z</time>
      </trkpt>
      <trkpt lat="48.60957" lon="7.10813">
        <ele>514.53</ele>
        <time>2020-08-19T16:12:25.000Z</time>
      </trkpt>
      <trkpt lat="48.60949" lon="7.10808">
        <ele>516.87</ele>
        <time>2020-08-19T16:12:26.000Z</time>
      </trkpt>
      <trkpt lat="48.60945" lon="7.10801">
        <ele>515.05</ele>
        <time>2020-08-19T16:12:27.000Z</time>
      </trkpt>
      <trkpt lat="48.60939" lon="7.10799">
        <ele>515.65</ele>
        <time>2020-08-19T16:12:28.000Z</time>
      </trkpt>
      <trkpt lat="48.6093" lon="7.10796">
        <ele>515.83</ele>
        <time>2020-08-19T16:12:29.000Z</time>
      </trkpt>
      <trkpt lat="48.60924" lon="7.10796">
        <ele>516.24</ele>
        <time>2020-08-19T16:12:30.000Z</time>
      </trkpt>
      <trkpt lat="48.60919" lon="7.10794">
        <ele>516.04</ele>
        <time>2020-08-19T16:12:31.000Z</time>
      </trkpt>
      <trkpt lat="48.60914" lon="7.10792">
        <ele>514.61</ele>
        <time>2020-08-19T16:12:32.000Z</time>
      </trkpt>
      <trkpt lat="48.60909" lon="7.1079">
        <ele>515.84</ele>
        <time>2020-08-19T16:12:34.000Z</time>
      </trkpt>
      <trkpt lat="48.60902" lon="7.10786">
        <ele>518.75</ele>
        <time>2020-08-19T16:12:42.000Z</time>
      </trkpt>
      <trkpt lat="48.60896" lon="7.10781">
        <ele>519.11</ele>
        <time>2020-08-19T16:12:44.000Z</time>
      </trkpt>
      <trkpt lat="48.60889" lon="7.10775">
        <ele>516.05</ele>
        <time>2020-08-19T16:12:46.000Z</time>
      </trkpt>
      <trkpt lat="48.60883" lon="7.10773">
        <ele>515.56</ele>
        <time>2020-08-19T16:12:47.000Z</time>
      </trkpt>
      <trkpt lat="48.60875" lon="7.10769">
        <ele>515.18</ele>
        <time>2020-08-19T16:12:49.000Z</time>
      </trkpt>
      <trkpt lat="48.60868" lon="7.10769">
        <ele>515.05</ele>
        <time>2020-08-19T16:12:50.000Z</time>
      </trkpt>
      <trkpt lat="48.60863" lon="7.10768">
        <ele>514.16</ele>
        <time>2020-08-19T16:12:51.000Z</time>
      </trkpt>
      <trkpt lat="48.60853" lon="7.10768">
        <ele>512.74</ele>
        <time>2020-08-19T16:12:53.000Z</time>
      </trkpt>
      <trkpt lat="48.60848" lon="7.10768">
        <ele>511.58</ele>
        <time>2020-08-19T16:12:54.000Z</time>
      </trkpt>
      <trkpt lat="48.60842" lon="7.10768">
        <ele>510.64</ele>
        <time>2020-08-19T16:12:55.000Z</time>
      </trkpt>
      <trkpt lat="48.60833" lon="7.10764">
        <ele>507.97</ele>
        <time>2020-08-19T16:12:57.000Z</time>
      </trkpt>
      <trkpt lat="48.60828" lon="7.10765">
        <ele>507.59</ele>
        <time>2020-08-19T16:12:58.000Z</time>
      </trkpt>
      <trkpt lat="48.60823" lon="7.10765">
        <ele>506.77</ele>
        <time>2020-08-19T16:12:59.000Z</time>
      </trkpt>
      <trkpt lat="48.60808" lon="7.10768">
        <ele>502.34</ele>
        <time>2020-08-19T16:13:01.000Z</time>
      </trkpt>
      <trkpt lat="48.60801" lon="7.10769">
        <ele>502.37</ele>
        <time>2020-08-19T16:13:02.000Z</time>
      </trkpt>
      <trkpt lat="48.60795" lon="7.10769">
        <ele>501.82</ele>
        <time>2020-08-19T16:13:03.000Z</time>
      </trkpt>
      <trkpt lat="48.60763" lon="7.10773">
        <ele>503.52</ele>
        <time>2020-08-19T16:13:07.000Z</time>
      </trkpt>
      <trkpt lat="48.60757" lon="7.10776">
        <ele>504.71</ele>
        <time>2020-08-19T16:13:08.000Z</time>
      </trkpt>
      <trkpt lat="48.60755" lon="7.10784">
        <ele>503.75</ele>
        <time>2020-08-19T16:13:09.000Z</time>
      </trkpt>
      <trkpt lat="48.60749" lon="7.10787">
        <ele>504.94</ele>
        <time>2020-08-19T16:13:10.000Z</time>
      </trkpt>
      <trkpt lat="48.60744" lon="7.1079">
        <ele>506.17</ele>
        <time>2020-08-19T16:13:11.000Z</time>
      </trkpt>
      <trkpt lat="48.6074" lon="7.10792">
        <ele>506.83</ele>
        <time>2020-08-19T16:13:12.000Z</time>
      </trkpt>
      <trkpt lat="48.60735" lon="7.10797">
        <ele>506.5</ele>
        <time>2020-08-19T16:13:14.000Z</time>
      </trkpt>
      <trkpt lat="48.6073" lon="7.10799">
        <ele>505.07</ele>
        <time>2020-08-19T16:13:16.000Z</time>
      </trkpt>
      <trkpt lat="48.60726" lon="7.10804">
        <ele>504.57</ele>
        <time>2020-08-19T16:13:17.000Z</time>
      </trkpt>
      <trkpt lat="48.60711" lon="7.10811">
        <ele>504.49</ele>
        <time>2020-08-19T16:13:19.000Z</time>
      </trkpt>
      <trkpt lat="48.60706" lon="7.10811">
        <ele>505.21</ele>
        <time>2020-08-19T16:13:20.000Z</time>
      </trkpt>
      <trkpt lat="48.60701" lon="7.10812">
        <ele>503.11</ele>
        <time>2020-08-19T16:13:21.000Z</time>
      </trkpt>
      <trkpt lat="48.60695" lon="7.10813">
        <ele>504.58</ele>
        <time>2020-08-19T16:13:22.000Z</time>
      </trkpt>
      <trkpt lat="48.6069" lon="7.10813">
        <ele>504.33</ele>
        <time>2020-08-19T16:13:23.000Z</time>
      </trkpt>
      <trkpt lat="48.60682" lon="7.10817">
        <ele>504.45</ele>
        <time>2020-08-19T16:13:24.000Z</time>
      </trkpt>
      <trkpt lat="48.60672" lon="7.10823">
        <ele>503.18</ele>
        <time>2020-08-19T16:13:26.000Z</time>
      </trkpt>
      <trkpt lat="48.60668" lon="7.10829">
        <ele>505.28</ele>
        <time>2020-08-19T16:13:28.000Z</time>
      </trkpt>
      <trkpt lat="48.60663" lon="7.10831">
        <ele>502.63</ele>
        <time>2020-08-19T16:13:36.000Z</time>
      </trkpt>
      <trkpt lat="48.60656" lon="7.10835">
        <ele>503.12</ele>
        <time>2020-08-19T16:13:54.000Z</time>
      </trkpt>
      <trkpt lat="48.60653" lon="7.10844">
        <ele>503.99</ele>
        <time>2020-08-19T16:13:56.000Z</time>
      </trkpt>
      <trkpt lat="48.60653" lon="7.10852">
        <ele>504.57</ele>
        <time>2020-08-19T16:13:58.000Z</time>
      </trkpt>
      <trkpt lat="48.60657" lon="7.10861">
        <ele>504.12</ele>
        <time>2020-08-19T16:14:00.000Z</time>
      </trkpt>
      <trkpt lat="48.60657" lon="7.10868">
        <ele>500.27</ele>
        <time>2020-08-19T16:14:14.000Z</time>
      </trkpt>
      <trkpt lat="48.6066" lon="7.10875">
        <ele>501.58</ele>
        <time>2020-08-19T16:14:16.000Z</time>
      </trkpt>
      <trkpt lat="48.60661" lon="7.10883">
        <ele>498.82</ele>
        <time>2020-08-19T16:14:18.000Z</time>
      </trkpt>
      <trkpt lat="48.60662" lon="7.10894">
        <ele>498.69</ele>
        <time>2020-08-19T16:14:20.000Z</time>
      </trkpt>
      <trkpt lat="48.60664" lon="7.10905">
        <ele>497.83</ele>
        <time>2020-08-19T16:14:22.000Z</time>
      </trkpt>
      <trkpt lat="48.60665" lon="7.10912">
        <ele>496.61</ele>
        <time>2020-08-19T16:14:24.000Z</time>
      </trkpt>
      <trkpt lat="48.60662" lon="7.10918">
        <ele>495.44</ele>
        <time>2020-08-19T16:14:26.000Z</time>
      </trkpt>
      <trkpt lat="48.60666" lon="7.10921">
        <ele>496.84</ele>
        <time>2020-08-19T16:14:32.000Z</time>
      </trkpt>
      <trkpt lat="48.60666" lon="7.10928">
        <ele>498.94</ele>
        <time>2020-08-19T16:14:42.000Z</time>
      </trkpt>
      <trkpt lat="48.6067" lon="7.1094">
        <ele>565.66</ele>
        <time>2020-08-19T16:14:44.000Z</time>
      </trkpt>
      <trkpt lat="48.60678" lon="7.10953">
        <ele>535.98</ele>
        <time>2020-08-19T16:14:46.000Z</time>
      </trkpt>
      <trkpt lat="48.60678" lon="7.1097">
        <ele>525.41</ele>
        <time>2020-08-19T16:14:48.000Z</time>
      </trkpt>
      <trkpt lat="48.60679" lon="7.10981">
        <ele>512.79</ele>
        <time>2020-08-19T16:14:49.000Z</time>
      </trkpt>
      <trkpt lat="48.60682" lon="7.10995">
        <ele>507.05</ele>
        <time>2020-08-19T16:14:51.000Z</time>
      </trkpt>
      <trkpt lat="48.60686" lon="7.11004">
        <ele>506.08</ele>
        <time>2020-08-19T16:14:52.000Z</time>
      </trkpt>
      <trkpt lat="48.60698" lon="7.11046">
        <ele>498.7</ele>
        <time>2020-08-19T16:14:56.000Z</time>
      </trkpt>
      <trkpt lat="48.60701" lon="7.11056">
        <ele>498.79</ele>
        <time>2020-08-19T16:14:57.000Z</time>
      </trkpt>
      <trkpt lat="48.60707" lon="7.11077">
        <ele>497.14</ele>
        <time>2020-08-19T16:14:59.000Z</time>
      </trkpt>
      <trkpt lat="48.60709" lon="7.11085">
        <ele>496.19</ele>
        <time>2020-08-19T16:15:00.000Z</time>
      </trkpt>
      <trkpt lat="48.60713" lon="7.11092">
        <ele>496.17</ele>
        <time>2020-08-19T16:15:01.000Z</time>
      </trkpt>
      <trkpt lat="48.60716" lon="7.11096">
        <ele>577.68</ele>
        <time>2020-08-19T16:15:02.000Z</time>
      </trkpt>
      <trkpt lat="48.60721" lon="7.11103">
        <ele>501.38</ele>
        <time>2020-08-19T16:15:13.000Z</time>
      </trkpt>
      <trkpt lat="48.60721" lon="7.1111">
        <ele>496.55</ele>
        <time>2020-08-19T16:15:14.000Z</time>
      </trkpt>
      <trkpt lat="48.60726" lon="7.11118">
        <ele>496.3</ele>
        <time>2020-08-19T16:15:15.000Z</time>
      </trkpt>
      <trkpt lat="48.6073" lon="7.11126">
        <ele>493.63</ele>
        <time>2020-08-19T16:15:16.000Z</time>
      </trkpt>
      <trkpt lat="48.60735" lon="7.11133">
        <ele>491.94</ele>
        <time>2020-08-19T16:15:17.000Z</time>
      </trkpt>
      <trkpt lat="48.60738" lon="7.11139">
        <ele>490.93</ele>
        <time>2020-08-19T16:15:18.000Z</time>
      </trkpt>
      <trkpt lat="48.60742" lon="7.11145">
        <ele>490.21</ele>
        <time>2020-08-19T16:15:19.000Z</time>
      </trkpt>
      <trkpt lat="48.60745" lon="7.11152">
        <ele>490.57</ele>
        <time>2020-08-19T16:15:20.000Z</time>
      </trkpt>
      <trkpt lat="48.60748" lon="7.11158">
        <ele>471.71</ele>
        <time>2020-08-19T16:15:21.000Z</time>
      </trkpt>
      <trkpt lat="48.60744" lon="7.11166">
        <ele>475.3</ele>
        <time>2020-08-19T16:15:22.000Z</time>
      </trkpt>
      <trkpt lat="48.60745" lon="7.11174">
        <ele>477.89</ele>
        <time>2020-08-19T16:15:23.000Z</time>
      </trkpt>
      <trkpt lat="48.60745" lon="7.11184">
        <ele>480.9</ele>
        <time>2020-08-19T16:15:25.000Z</time>
      </trkpt>
      <trkpt lat="48.60749" lon="7.1119">
        <ele>486.65</ele>
        <time>2020-08-19T16:15:39.000Z</time>
      </trkpt>
      <trkpt lat="48.60748" lon="7.11198">
        <ele>485.48</ele>
        <time>2020-08-19T16:15:41.000Z</time>
      </trkpt>
      <trkpt lat="48.6075" lon="7.11205">
        <ele>483.09</ele>
        <time>2020-08-19T16:15:42.000Z</time>
      </trkpt>
      <trkpt lat="48.6075" lon="7.11216">
        <ele>481.87</ele>
        <time>2020-08-19T16:15:44.000Z</time>
      </trkpt>
      <trkpt lat="48.60747" lon="7.11224">
        <ele>480.97</ele>
        <time>2020-08-19T16:15:45.000Z</time>
      </trkpt>
      <trkpt lat="48.60745" lon="7.11233">
        <ele>481.8</ele>
        <time>2020-08-19T16:15:46.000Z</time>
      </trkpt>
      <trkpt lat="48.60748" lon="7.11241">
        <ele>481.98</ele>
        <time>2020-08-19T16:15:47.000Z</time>
      </trkpt>
      <trkpt lat="48.60748" lon="7.11254">
        <ele>481.77</ele>
        <time>2020-08-19T16:15:49.000Z</time>
      </trkpt>
      <trkpt lat="48.60748" lon="7.11261">
        <ele>481.89</ele>
        <time>2020-08-19T16:15:50.000Z</time>
      </trkpt>
      <trkpt lat="48.60751" lon="7.11268">
        <ele>481.57</ele>
        <time>2020-08-19T16:15:51.000Z</time>
      </trkpt>
      <trkpt lat="48.60753" lon="7.11288">
        <ele>476.79</ele>
        <time>2020-08-19T16:15:53.000Z</time>
      </trkpt>
      <trkpt lat="48.60753" lon="7.11301">
        <ele>475.81</ele>
        <time>2020-08-19T16:15:55.000Z</time>
      </trkpt>
      <trkpt lat="48.60758" lon="7.11308">
        <ele>472.68</ele>
        <time>2020-08-19T16:15:56.000Z</time>
      </trkpt>
      <trkpt lat="48.60758" lon="7.11315">
        <ele>472.57</ele>
        <time>2020-08-19T16:15:57.000Z</time>
      </trkpt>
      <trkpt lat="48.60758" lon="7.11324">
        <ele>474.51</ele>
        <time>2020-08-19T16:15:58.000Z</time>
      </trkpt>
      <trkpt lat="48.60758" lon="7.11331">
        <ele>472.8</ele>
        <time>2020-08-19T16:15:59.000Z</time>
      </trkpt>
      <trkpt lat="48.60754" lon="7.11349">
        <ele>470.34</ele>
        <time>2020-08-19T16:16:01.000Z</time>
      </trkpt>
      <trkpt lat="48.60758" lon="7.11355">
        <ele>470.99</ele>
        <time>2020-08-19T16:16:02.000Z</time>
      </trkpt>
      <trkpt lat="48.60756" lon="7.11365">
        <ele>471.16</ele>
        <time>2020-08-19T16:16:03.000Z</time>
      </trkpt>
      <trkpt lat="48.60755" lon="7.11373">
        <ele>472.83</ele>
        <time>2020-08-19T16:16:04.000Z</time>
      </trkpt>
      <trkpt lat="48.60757" lon="7.11381">
        <ele>471.23</ele>
        <time>2020-08-19T16:16:05.000Z</time>
      </trkpt>
      <trkpt lat="48.60759" lon="7.11389">
        <ele>472.11</ele>
        <time>2020-08-19T16:16:06.000Z</time>
      </trkpt>
      <trkpt lat="48.60756" lon="7.11395">
        <ele>470.94</ele>
        <time>2020-08-19T16:16:07.000Z</time>
      </trkpt>
      <trkpt lat="48.60762" lon="7.11399">
        <ele>468.89</ele>
        <time>2020-08-19T16:16:08.000Z</time>
      </trkpt>
      <trkpt lat="48.60763" lon="7.11406">
        <ele>472.84</ele>
        <time>2020-08-19T16:16:14.000Z</time>
      </trkpt>
      <trkpt lat="48.60767" lon="7.11409">
        <ele>475.97</ele>
        <time>2020-08-19T16:16:20.000Z</time>
      </trkpt>
      <trkpt lat="48.60767" lon="7.11417">
        <ele>476.71</ele>
        <time>2020-08-19T16:16:30.000Z</time>
      </trkpt>
      <trkpt lat="48.60765" lon="7.11426">
        <ele>475.28</ele>
        <time>2020-08-19T16:16:34.000Z</time>
      </trkpt>
      <trkpt lat="48.60763" lon="7.11436">
        <ele>477.29</ele>
        <time>2020-08-19T16:16:36.000Z</time>
      </trkpt>
      <trkpt lat="48.60764" lon="7.11448">
        <ele>477.48</ele>
        <time>2020-08-19T16:16:38.000Z</time>
      </trkpt>
      <trkpt lat="48.60769" lon="7.1147">
        <ele>473.54</ele>
        <time>2020-08-19T16:16:40.000Z</time>
      </trkpt>
      <trkpt lat="48.60767" lon="7.11487">
        <ele>475.64</ele>
        <time>2020-08-19T16:16:42.000Z</time>
      </trkpt>
      <trkpt lat="48.60766" lon="7.11498">
        <ele>473.26</ele>
        <time>2020-08-19T16:16:44.000Z</time>
      </trkpt>
      <trkpt lat="48.60767" lon="7.11505">
        <ele>471.19</ele>
        <time>2020-08-19T16:16:45.000Z</time>
      </trkpt>
      <trkpt lat="48.60766" lon="7.11526">
        <ele>467.74</ele>
        <time>2020-08-19T16:16:47.000Z</time>
      </trkpt>
      <trkpt lat="48.60761" lon="7.11536">
        <ele>468.17</ele>
        <time>2020-08-19T16:16:48.000Z</time>
      </trkpt>
      <trkpt lat="48.60761" lon="7.11546">
        <ele>466.83</ele>
        <time>2020-08-19T16:16:49.000Z</time>
      </trkpt>
      <trkpt lat="48.60761" lon="7.11559">
        <ele>466.77</ele>
        <time>2020-08-19T16:16:50.000Z</time>
      </trkpt>
      <trkpt lat="48.60764" lon="7.11568">
        <ele>467.83</ele>
        <time>2020-08-19T16:16:51.000Z</time>
      </trkpt>
      <trkpt lat="48.60767" lon="7.11576">
        <ele>467.99</ele>
        <time>2020-08-19T16:16:52.000Z</time>
      </trkpt>
      <trkpt lat="48.60772" lon="7.11599">
        <ele>463.66</ele>
        <time>2020-08-19T16:16:54.000Z</time>
      </trkpt>
      <trkpt lat="48.6077" lon="7.11613">
        <ele>463.57</ele>
        <time>2020-08-19T16:16:55.000Z</time>
      </trkpt>
      <trkpt lat="48.60773" lon="7.11621">
        <ele>461.65</ele>
        <time>2020-08-19T16:16:56.000Z</time>
      </trkpt>
      <trkpt lat="48.60775" lon="7.11634">
        <ele>461.99</ele>
        <time>2020-08-19T16:16:57.000Z</time>
      </trkpt>
      <trkpt lat="48.60778" lon="7.11641">
        <ele>461.18</ele>
        <time>2020-08-19T16:16:58.000Z</time>
      </trkpt>
      <trkpt lat="48.60777" lon="7.11654">
        <ele>460.83</ele>
        <time>2020-08-19T16:16:59.000Z</time>
      </trkpt>
      <trkpt lat="48.60786" lon="7.11668">
        <ele>459.42</ele>
        <time>2020-08-19T16:17:01.000Z</time>
      </trkpt>
      <trkpt lat="48.60794" lon="7.11679">
        <ele>454.99</ele>
        <time>2020-08-19T16:17:03.000Z</time>
      </trkpt>
      <trkpt lat="48.608" lon="7.11685">
        <ele>455.24</ele>
        <time>2020-08-19T16:17:04.000Z</time>
      </trkpt>
      <trkpt lat="48.60804" lon="7.1169">
        <ele>455.76</ele>
        <time>2020-08-19T16:17:05.000Z</time>
      </trkpt>
      <trkpt lat="48.6081" lon="7.11695">
        <ele>455</ele>
        <time>2020-08-19T16:17:06.000Z</time>
      </trkpt>
      <trkpt lat="48.60815" lon="7.117">
        <ele>454.27</ele>
        <time>2020-08-19T16:17:07.000Z</time>
      </trkpt>
      <trkpt lat="48.60818" lon="7.11706">
        <ele>455.33</ele>
        <time>2020-08-19T16:17:08.000Z</time>
      </trkpt>
      <trkpt lat="48.60819" lon="7.11718">
        <ele>452.03</ele>
        <time>2020-08-19T16:17:09.000Z</time>
      </trkpt>
      <trkpt lat="48.60819" lon="7.11729">
        <ele>452.23</ele>
        <time>2020-08-19T16:17:10.000Z</time>
      </trkpt>
      <trkpt lat="48.60817" lon="7.11735">
        <ele>450.92</ele>
        <time>2020-08-19T16:17:11.000Z</time>
      </trkpt>
      <trkpt lat="48.6081" lon="7.11766">
        <ele>450.45</ele>
        <time>2020-08-19T16:17:14.000Z</time>
      </trkpt>
      <trkpt lat="48.6081" lon="7.11774">
        <ele>449.14</ele>
        <time>2020-08-19T16:17:15.000Z</time>
      </trkpt>
      <trkpt lat="48.60799" lon="7.11804">
        <ele>447.96</ele>
        <time>2020-08-19T16:17:18.000Z</time>
      </trkpt>
      <trkpt lat="48.60795" lon="7.1181">
        <ele>447.78</ele>
        <time>2020-08-19T16:17:19.000Z</time>
      </trkpt>
      <trkpt lat="48.60791" lon="7.11821">
        <ele>444.38</ele>
        <time>2020-08-19T16:17:21.000Z</time>
      </trkpt>
      <trkpt lat="48.60772" lon="7.11831">
        <ele>443.79</ele>
        <time>2020-08-19T16:17:23.000Z</time>
      </trkpt>
      <trkpt lat="48.60757" lon="7.11844">
        <ele>443.4</ele>
        <time>2020-08-19T16:17:25.000Z</time>
      </trkpt>
      <trkpt lat="48.6075" lon="7.11852">
        <ele>444.79</ele>
        <time>2020-08-19T16:17:27.000Z</time>
      </trkpt>
      <trkpt lat="48.6075" lon="7.11861">
        <ele>443.52</ele>
        <time>2020-08-19T16:17:28.000Z</time>
      </trkpt>
      <trkpt lat="48.60747" lon="7.1187">
        <ele>443.06</ele>
        <time>2020-08-19T16:17:29.000Z</time>
      </trkpt>
      <trkpt lat="48.60744" lon="7.1188">
        <ele>442.02</ele>
        <time>2020-08-19T16:17:30.000Z</time>
      </trkpt>
      <trkpt lat="48.60744" lon="7.1189">
        <ele>442.48</ele>
        <time>2020-08-19T16:17:31.000Z</time>
      </trkpt>
      <trkpt lat="48.60742" lon="7.11899">
        <ele>447.53</ele>
        <time>2020-08-19T16:17:32.000Z</time>
      </trkpt>
      <trkpt lat="48.60743" lon="7.11922">
        <ele>444.84</ele>
        <time>2020-08-19T16:17:34.000Z</time>
      </trkpt>
      <trkpt lat="48.60747" lon="7.11933">
        <ele>445.09</ele>
        <time>2020-08-19T16:17:35.000Z</time>
      </trkpt>
      <trkpt lat="48.60745" lon="7.11944">
        <ele>444.09</ele>
        <time>2020-08-19T16:17:36.000Z</time>
      </trkpt>
      <trkpt lat="48.60746" lon="7.11954">
        <ele>443.28</ele>
        <time>2020-08-19T16:17:37.000Z</time>
      </trkpt>
      <trkpt lat="48.60745" lon="7.11962">
        <ele>443.45</ele>
        <time>2020-08-19T16:17:38.000Z</time>
      </trkpt>
      <trkpt lat="48.60746" lon="7.1197">
        <ele>443.07</ele>
        <time>2020-08-19T16:17:39.000Z</time>
      </trkpt>
      <trkpt lat="48.60746" lon="7.11982">
        <ele>441.07</ele>
        <time>2020-08-19T16:17:40.000Z</time>
      </trkpt>
      <trkpt lat="48.60745" lon="7.11992">
        <ele>440.43</ele>
        <time>2020-08-19T16:17:41.000Z</time>
      </trkpt>
      <trkpt lat="48.60746" lon="7.12">
        <ele>440.68</ele>
        <time>2020-08-19T16:17:42.000Z</time>
      </trkpt>
      <trkpt lat="48.60745" lon="7.1202">
        <ele>438.13</ele>
        <time>2020-08-19T16:17:44.000Z</time>
      </trkpt>
      <trkpt lat="48.60744" lon="7.12027">
        <ele>438.53</ele>
        <time>2020-08-19T16:17:45.000Z</time>
      </trkpt>
      <trkpt lat="48.6074" lon="7.12032">
        <ele>438.74</ele>
        <time>2020-08-19T16:17:47.000Z</time>
      </trkpt>
      <trkpt lat="48.60737" lon="7.12037">
        <ele>437.83</ele>
        <time>2020-08-19T16:17:59.000Z</time>
      </trkpt>
      <trkpt lat="48.60738" lon="7.12045">
        <ele>437.45</ele>
        <time>2020-08-19T16:18:07.000Z</time>
      </trkpt>
      <trkpt lat="48.60737" lon="7.12056">
        <ele>438.92</ele>
        <time>2020-08-19T16:18:09.000Z</time>
      </trkpt>
      <trkpt lat="48.60739" lon="7.12066">
        <ele>437.32</ele>
        <time>2020-08-19T16:18:12.000Z</time>
      </trkpt>
      <trkpt lat="48.60739" lon="7.12078">
        <ele>433.81</ele>
        <time>2020-08-19T16:18:13.000Z</time>
      </trkpt>
      <trkpt lat="48.60738" lon="7.12091">
        <ele>432.66</ele>
        <time>2020-08-19T16:18:15.000Z</time>
      </trkpt>
      <trkpt lat="48.60736" lon="7.12099">
        <ele>432.82</ele>
        <time>2020-08-19T16:18:16.000Z</time>
      </trkpt>
      <trkpt lat="48.60737" lon="7.12116">
        <ele>432.28</ele>
        <time>2020-08-19T16:18:18.000Z</time>
      </trkpt>
      <trkpt lat="48.60736" lon="7.12126">
        <ele>432.56</ele>
        <time>2020-08-19T16:18:19.000Z</time>
      </trkpt>
      <trkpt lat="48.60735" lon="7.12134">
        <ele>431.02</ele>
        <time>2020-08-19T16:18:20.000Z</time>
      </trkpt>
      <trkpt lat="48.60736" lon="7.12142">
        <ele>430.76</ele>
        <time>2020-08-19T16:18:21.000Z</time>
      </trkpt>
      <trkpt lat="48.60734" lon="7.12162">
        <ele>429.88</ele>
        <time>2020-08-19T16:18:23.000Z</time>
      </trkpt>
      <trkpt lat="48.60734" lon="7.1217">
        <ele>430.52</ele>
        <time>2020-08-19T16:18:24.000Z</time>
      </trkpt>
      <trkpt lat="48.60732" lon="7.12181">
        <ele>429.39</ele>
        <time>2020-08-19T16:18:25.000Z</time>
      </trkpt>
      <trkpt lat="48.60735" lon="7.1219">
        <ele>431.16</ele>
        <time>2020-08-19T16:18:26.000Z</time>
      </trkpt>
      <trkpt lat="48.60733" lon="7.122">
        <ele>429.86</ele>
        <time>2020-08-19T16:18:27.000Z</time>
      </trkpt>
      <trkpt lat="48.60738" lon="7.12203">
        <ele>428.96</ele>
        <time>2020-08-19T16:18:29.000Z</time>
      </trkpt>
      <trkpt lat="48.60733" lon="7.12205">
        <ele>432.71</ele>
        <time>2020-08-19T16:18:30.000Z</time>
      </trkpt>
      <trkpt lat="48.60739" lon="7.12205">
        <ele>429.72</ele>
        <time>2020-08-19T16:18:32.000Z</time>
      </trkpt>
      <trkpt lat="48.60739" lon="7.12217">
        <ele>431.46</ele>
        <time>2020-08-19T16:18:45.000Z</time>
      </trkpt>
      <trkpt lat="48.60736" lon="7.12223">
        <ele>430.67</ele>
        <time>2020-08-19T16:18:47.000Z</time>
      </trkpt>
      <trkpt lat="48.60732" lon="7.1223">
        <ele>432.68</ele>
        <time>2020-08-19T16:18:52.000Z</time>
      </trkpt>
      <trkpt lat="48.60728" lon="7.12238">
        <ele>430.46</ele>
        <time>2020-08-19T16:18:54.000Z</time>
      </trkpt>
      <trkpt lat="48.60729" lon="7.12246">
        <ele>423.41</ele>
        <time>2020-08-19T16:19:04.000Z</time>
      </trkpt>
      <trkpt lat="48.60726" lon="7.12255">
        <ele>422.76</ele>
        <time>2020-08-19T16:19:06.000Z</time>
      </trkpt>
      <trkpt lat="48.60724" lon="7.12264">
        <ele>421.65</ele>
        <time>2020-08-19T16:19:08.000Z</time>
      </trkpt>
      <trkpt lat="48.60722" lon="7.12274">
        <ele>420.58</ele>
        <time>2020-08-19T16:19:11.000Z</time>
      </trkpt>
      <trkpt lat="48.60721" lon="7.12282">
        <ele>419.73</ele>
        <time>2020-08-19T16:19:13.000Z</time>
      </trkpt>
      <trkpt lat="48.60721" lon="7.1229">
        <ele>417.18</ele>
        <time>2020-08-19T16:19:15.000Z</time>
      </trkpt>
      <trkpt lat="48.60718" lon="7.123">
        <ele>414.67</ele>
        <time>2020-08-19T16:19:18.000Z</time>
      </trkpt>
      <trkpt lat="48.60717" lon="7.12308">
        <ele>413.96</ele>
        <time>2020-08-19T16:19:20.000Z</time>
      </trkpt>
      <trkpt lat="48.60717" lon="7.12316">
        <ele>412.58</ele>
        <time>2020-08-19T16:19:22.000Z</time>
      </trkpt>
      <trkpt lat="48.60714" lon="7.12324">
        <ele>411.42</ele>
        <time>2020-08-19T16:19:24.000Z</time>
      </trkpt>
      <trkpt lat="48.6071" lon="7.12332">
        <ele>410.63</ele>
        <time>2020-08-19T16:19:26.000Z</time>
      </trkpt>
      <trkpt lat="48.60708" lon="7.12339">
        <ele>409.4</ele>
        <time>2020-08-19T16:19:28.000Z</time>
      </trkpt>
      <trkpt lat="48.60706" lon="7.12347">
        <ele>409.15</ele>
        <time>2020-08-19T16:19:30.000Z</time>
      </trkpt>
      <trkpt lat="48.60706" lon="7.12355">
        <ele>407.29</ele>
        <time>2020-08-19T16:19:32.000Z</time>
      </trkpt>
      <trkpt lat="48.60705" lon="7.12362">
        <ele>406.8</ele>
        <time>2020-08-19T16:19:34.000Z</time>
      </trkpt>
      <trkpt lat="48.60703" lon="7.12371">
        <ele>407.2</ele>
        <time>2020-08-19T16:19:37.000Z</time>
      </trkpt>
      <trkpt lat="48.607" lon="7.12378">
        <ele>407.28</ele>
        <time>2020-08-19T16:19:39.000Z</time>
      </trkpt>
      <trkpt lat="48.60699" lon="7.12386">
        <ele>404.16</ele>
        <time>2020-08-19T16:19:41.000Z</time>
      </trkpt>
      <trkpt lat="48.60692" lon="7.12417">
        <ele>402.2</ele>
        <time>2020-08-19T16:19:47.000Z</time>
      </trkpt>
      <trkpt lat="48.60689" lon="7.12426">
        <ele>401.75</ele>
        <time>2020-08-19T16:19:49.000Z</time>
      </trkpt>
      <trkpt lat="48.60689" lon="7.12438">
        <ele>402.34</ele>
        <time>2020-08-19T16:19:52.000Z</time>
      </trkpt>
      <trkpt lat="48.60688" lon="7.12445">
        <ele>401.01</ele>
        <time>2020-08-19T16:19:54.000Z</time>
      </trkpt>
      <trkpt lat="48.60686" lon="7.12454">
        <ele>396.22</ele>
        <time>2020-08-19T16:19:58.000Z</time>
      </trkpt>
      <trkpt lat="48.60685" lon="7.12462">
        <ele>395.8</ele>
        <time>2020-08-19T16:20:00.000Z</time>
      </trkpt>
      <trkpt lat="48.60686" lon="7.12469">
        <ele>396.06</ele>
        <time>2020-08-19T16:20:03.000Z</time>
      </trkpt>
      <trkpt lat="48.60688" lon="7.12476">
        <ele>392.07</ele>
        <time>2020-08-19T16:20:08.000Z</time>
      </trkpt>
      <trkpt lat="48.6069" lon="7.12483">
        <ele>390.88</ele>
        <time>2020-08-19T16:20:12.000Z</time>
      </trkpt>
      <trkpt lat="48.60692" lon="7.1249">
        <ele>404.61</ele>
        <time>2020-08-19T16:20:21.000Z</time>
      </trkpt>
      <trkpt lat="48.60696" lon="7.12496">
        <ele>392.92</ele>
        <time>2020-08-19T16:20:24.000Z</time>
      </trkpt>
      <trkpt lat="48.60696" lon="7.12503">
        <ele>382.27</ele>
        <time>2020-08-19T16:20:40.000Z</time>
      </trkpt>
      <trkpt lat="48.60694" lon="7.1251">
        <ele>389.76</ele>
        <time>2020-08-19T16:20:46.000Z</time>
      </trkpt>
      <trkpt lat="48.60697" lon="7.12517">
        <ele>386.87</ele>
        <time>2020-08-19T16:20:50.000Z</time>
      </trkpt>
      <trkpt lat="48.60701" lon="7.12523">
        <ele>388.31</ele>
        <time>2020-08-19T16:20:56.000Z</time>
      </trkpt>
      <trkpt lat="48.60704" lon="7.12529">
        <ele>390.05</ele>
        <time>2020-08-19T16:21:01.000Z</time>
      </trkpt>
      <trkpt lat="48.60706" lon="7.12535">
        <ele>389.71</ele>
        <time>2020-08-19T16:21:10.000Z</time>
      </trkpt>
      <trkpt lat="48.60711" lon="7.12539">
        <ele>388.33</ele>
        <time>2020-08-19T16:21:12.000Z</time>
      </trkpt>
      <trkpt lat="48.60716" lon="7.12545">
        <ele>388.99</ele>
        <time>2020-08-19T16:21:14.000Z</time>
      </trkpt>
      <trkpt lat="48.6072" lon="7.12548">
        <ele>389.58</ele>
        <time>2020-08-19T16:21:16.000Z</time>
      </trkpt>
      <trkpt lat="48.60726" lon="7.12549">
        <ele>393.07</ele>
        <time>2020-08-19T16:21:18.000Z</time>
      </trkpt>
      <trkpt lat="48.6073" lon="7.12549">
        <ele>391.38</ele>
        <time>2020-08-19T16:21:20.000Z</time>
      </trkpt>
      <trkpt lat="48.60735" lon="7.12551">
        <ele>394.03</ele>
        <time>2020-08-19T16:21:22.000Z</time>
      </trkpt>
      <trkpt lat="48.60742" lon="7.1255">
        <ele>391.5</ele>
        <time>2020-08-19T16:21:24.000Z</time>
      </trkpt>
      <trkpt lat="48.60749" lon="7.1255">
        <ele>393.26</ele>
        <time>2020-08-19T16:21:26.000Z</time>
      </trkpt>
      <trkpt lat="48.60754" lon="7.12546">
        <ele>392.93</ele>
        <time>2020-08-19T16:21:28.000Z</time>
      </trkpt>
      <trkpt lat="48.60757" lon="7.12541">
        <ele>392.87</ele>
        <time>2020-08-19T16:21:30.000Z</time>
      </trkpt>
      <trkpt lat="48.60761" lon="7.12535">
        <ele>394.53</ele>
        <time>2020-08-19T16:21:32.000Z</time>
      </trkpt>
      <trkpt lat="48.60764" lon="7.12528">
        <ele>394.68</ele>
        <time>2020-08-19T16:21:34.000Z</time>
      </trkpt>
      <trkpt lat="48.60766" lon="7.1252">
        <ele>394.72</ele>
        <time>2020-08-19T16:21:36.000Z</time>
      </trkpt>
      <trkpt lat="48.60766" lon="7.12511">
        <ele>394.05</ele>
        <time>2020-08-19T16:21:38.000Z</time>
      </trkpt>
      <trkpt lat="48.60767" lon="7.125">
        <ele>395.67</ele>
        <time>2020-08-19T16:21:41.000Z</time>
      </trkpt>
      <trkpt lat="48.60768" lon="7.1249">
        <ele>397.38</ele>
        <time>2020-08-19T16:21:44.000Z</time>
      </trkpt>
      <trkpt lat="48.6077" lon="7.12483">
        <ele>396.12</ele>
        <time>2020-08-19T16:21:46.000Z</time>
      </trkpt>
      <trkpt lat="48.60773" lon="7.12476">
        <ele>398.31</ele>
        <time>2020-08-19T16:21:48.000Z</time>
      </trkpt>
      <trkpt lat="48.60776" lon="7.12469">
        <ele>397.84</ele>
        <time>2020-08-19T16:21:51.000Z</time>
      </trkpt>
      <trkpt lat="48.60781" lon="7.12465">
        <ele>397.08</ele>
        <time>2020-08-19T16:21:53.000Z</time>
      </trkpt>
      <trkpt lat="48.60786" lon="7.12462">
        <ele>396.19</ele>
        <time>2020-08-19T16:21:55.000Z</time>
      </trkpt>
      <trkpt lat="48.60793" lon="7.12459">
        <ele>395.49</ele>
        <time>2020-08-19T16:21:57.000Z</time>
      </trkpt>
      <trkpt lat="48.60799" lon="7.12455">
        <ele>395.2</ele>
        <time>2020-08-19T16:21:59.000Z</time>
      </trkpt>
      <trkpt lat="48.60803" lon="7.1245">
        <ele>395.42</ele>
        <time>2020-08-19T16:22:01.000Z</time>
      </trkpt>
      <trkpt lat="48.60806" lon="7.12444">
        <ele>395.11</ele>
        <time>2020-08-19T16:22:07.000Z</time>
      </trkpt>
      <trkpt lat="48.60811" lon="7.1244">
        <ele>394.15</ele>
        <time>2020-08-19T16:22:11.000Z</time>
      </trkpt>
      <trkpt lat="48.60816" lon="7.12436">
        <ele>394.65</ele>
        <time>2020-08-19T16:22:14.000Z</time>
      </trkpt>
      <trkpt lat="48.60821" lon="7.12431">
        <ele>396.68</ele>
        <time>2020-08-19T16:22:16.000Z</time>
      </trkpt>
      <trkpt lat="48.60825" lon="7.12425">
        <ele>398.14</ele>
        <time>2020-08-19T16:22:18.000Z</time>
      </trkpt>
      <trkpt lat="48.60831" lon="7.12423">
        <ele>399.99</ele>
        <time>2020-08-19T16:22:20.000Z</time>
      </trkpt>
      <trkpt lat="48.60838" lon="7.1242">
        <ele>400.98</ele>
        <time>2020-08-19T16:22:22.000Z</time>
      </trkpt>
      <trkpt lat="48.60843" lon="7.12416">
        <ele>401.56</ele>
        <time>2020-08-19T16:22:24.000Z</time>
      </trkpt>
      <trkpt lat="48.6085" lon="7.12413">
        <ele>403.68</ele>
        <time>2020-08-19T16:22:26.000Z</time>
      </trkpt>
      <trkpt lat="48.60857" lon="7.1241">
        <ele>405.21</ele>
        <time>2020-08-19T16:22:28.000Z</time>
      </trkpt>
      <trkpt lat="48.60863" lon="7.12407">
        <ele>408.33</ele>
        <time>2020-08-19T16:22:30.000Z</time>
      </trkpt>
      <trkpt lat="48.60869" lon="7.12405">
        <ele>407.27</ele>
        <time>2020-08-19T16:22:32.000Z</time>
      </trkpt>
      <trkpt lat="48.60874" lon="7.12404">
        <ele>408.61</ele>
        <time>2020-08-19T16:22:33.000Z</time>
      </trkpt>
      <trkpt lat="48.60878" lon="7.12405">
        <ele>410.15</ele>
        <time>2020-08-19T16:22:34.000Z</time>
      </trkpt>
      <trkpt lat="48.60883" lon="7.12406">
        <ele>409.7</ele>
        <time>2020-08-19T16:22:35.000Z</time>
      </trkpt>
      <trkpt lat="48.60891" lon="7.12405">
        <ele>410.41</ele>
        <time>2020-08-19T16:22:37.000Z</time>
      </trkpt>
      <trkpt lat="48.60899" lon="7.12405">
        <ele>409.21</ele>
        <time>2020-08-19T16:22:39.000Z</time>
      </trkpt>
      <trkpt lat="48.60906" lon="7.12405">
        <ele>408.22</ele>
        <time>2020-08-19T16:22:41.000Z</time>
      </trkpt>
      <trkpt lat="48.60914" lon="7.12407">
        <ele>409.42</ele>
        <time>2020-08-19T16:22:43.000Z</time>
      </trkpt>
      <trkpt lat="48.60921" lon="7.12411">
        <ele>410.02</ele>
        <time>2020-08-19T16:22:45.000Z</time>
      </trkpt>
      <trkpt lat="48.60926" lon="7.12415">
        <ele>409.24</ele>
        <time>2020-08-19T16:22:47.000Z</time>
      </trkpt>
      <trkpt lat="48.60934" lon="7.12419">
        <ele>408.41</ele>
        <time>2020-08-19T16:22:49.000Z</time>
      </trkpt>
      <trkpt lat="48.60941" lon="7.12421">
        <ele>407.19</ele>
        <time>2020-08-19T16:22:51.000Z</time>
      </trkpt>
      <trkpt lat="48.60947" lon="7.12422">
        <ele>409.91</ele>
        <time>2020-08-19T16:22:53.000Z</time>
      </trkpt>
      <trkpt lat="48.60955" lon="7.12424">
        <ele>407.27</ele>
        <time>2020-08-19T16:22:55.000Z</time>
      </trkpt>
      <trkpt lat="48.60959" lon="7.12428">
        <ele>406.33</ele>
        <time>2020-08-19T16:22:57.000Z</time>
      </trkpt>
      <trkpt lat="48.60965" lon="7.12432">
        <ele>405</ele>
        <time>2020-08-19T16:22:59.000Z</time>
      </trkpt>
      <trkpt lat="48.6097" lon="7.12434">
        <ele>402.6</ele>
        <time>2020-08-19T16:23:01.000Z</time>
      </trkpt>
      <trkpt lat="48.60975" lon="7.12436">
        <ele>401.75</ele>
        <time>2020-08-19T16:23:04.000Z</time>
      </trkpt>
      <trkpt lat="48.60981" lon="7.12441">
        <ele>402.65</ele>
        <time>2020-08-19T16:23:06.000Z</time>
      </trkpt>
      <trkpt lat="48.60988" lon="7.12445">
        <ele>402.12</ele>
        <time>2020-08-19T16:23:08.000Z</time>
      </trkpt>
      <trkpt lat="48.60995" lon="7.12447">
        <ele>401.98</ele>
        <time>2020-08-19T16:23:10.000Z</time>
      </trkpt>
      <trkpt lat="48.61001" lon="7.12449">
        <ele>400.44</ele>
        <time>2020-08-19T16:23:12.000Z</time>
      </trkpt>
      <trkpt lat="48.61003" lon="7.12455">
        <ele>400.87</ele>
        <time>2020-08-19T16:23:21.000Z</time>
      </trkpt>
      <trkpt lat="48.61007" lon="7.12466">
        <ele>400.98</ele>
        <time>2020-08-19T16:23:25.000Z</time>
      </trkpt>
      <trkpt lat="48.61011" lon="7.12477">
        <ele>399.9</ele>
        <time>2020-08-19T16:23:27.000Z</time>
      </trkpt>
      <trkpt lat="48.61016" lon="7.12481">
        <ele>399.58</ele>
        <time>2020-08-19T16:23:28.000Z</time>
      </trkpt>
      <trkpt lat="48.61024" lon="7.12489">
        <ele>400.35</ele>
        <time>2020-08-19T16:23:30.000Z</time>
      </trkpt>
      <trkpt lat="48.61028" lon="7.12493">
        <ele>400.85</ele>
        <time>2020-08-19T16:23:31.000Z</time>
      </trkpt>
      <trkpt lat="48.61034" lon="7.12499">
        <ele>401.58</ele>
        <time>2020-08-19T16:23:32.000Z</time>
      </trkpt>
      <trkpt lat="48.61037" lon="7.12505">
        <ele>401.13</ele>
        <time>2020-08-19T16:23:33.000Z</time>
      </trkpt>
      <trkpt lat="48.61039" lon="7.12511">
        <ele>402.78</ele>
        <time>2020-08-19T16:23:34.000Z</time>
      </trkpt>
      <trkpt lat="48.61043" lon="7.12517">
        <ele>403.64</ele>
        <time>2020-08-19T16:23:35.000Z</time>
      </trkpt>
      <trkpt lat="48.61046" lon="7.12521">
        <ele>403.76</ele>
        <time>2020-08-19T16:23:36.000Z</time>
      </trkpt>
      <trkpt lat="48.61049" lon="7.12527">
        <ele>404.05</ele>
        <time>2020-08-19T16:23:37.000Z</time>
      </trkpt>
      <trkpt lat="48.61055" lon="7.1253">
        <ele>405.58</ele>
        <time>2020-08-19T16:23:38.000Z</time>
      </trkpt>
      <trkpt lat="48.61056" lon="7.12538">
        <ele>406.07</ele>
        <time>2020-08-19T16:23:39.000Z</time>
      </trkpt>
      <trkpt lat="48.61062" lon="7.12541">
        <ele>406.22</ele>
        <time>2020-08-19T16:23:40.000Z</time>
      </trkpt>
      <trkpt lat="48.61065" lon="7.12547">
        <ele>406.71</ele>
        <time>2020-08-19T16:23:41.000Z</time>
      </trkpt>
      <trkpt lat="48.61068" lon="7.12553">
        <ele>406.51</ele>
        <time>2020-08-19T16:23:42.000Z</time>
      </trkpt>
      <trkpt lat="48.61072" lon="7.12558">
        <ele>407.23</ele>
        <time>2020-08-19T16:23:43.000Z</time>
      </trkpt>
      <trkpt lat="48.61076" lon="7.12565">
        <ele>407.24</ele>
        <time>2020-08-19T16:23:44.000Z</time>
      </trkpt>
      <trkpt lat="48.61079" lon="7.12571">
        <ele>407.55</ele>
        <time>2020-08-19T16:23:45.000Z</time>
      </trkpt>
      <trkpt lat="48.61082" lon="7.12577">
        <ele>407.34</ele>
        <time>2020-08-19T16:23:46.000Z</time>
      </trkpt>
      <trkpt lat="48.61086" lon="7.12582">
        <ele>407.87</ele>
        <time>2020-08-19T16:23:47.000Z</time>
      </trkpt>
      <trkpt lat="48.61095" lon="7.12588">
        <ele>408.75</ele>
        <time>2020-08-19T16:23:49.000Z</time>
      </trkpt>
      <trkpt lat="48.611" lon="7.12594">
        <ele>409.1</ele>
        <time>2020-08-19T16:23:50.000Z</time>
      </trkpt>
      <trkpt lat="48.61102" lon="7.126">
        <ele>409.21</ele>
        <time>2020-08-19T16:23:51.000Z</time>
      </trkpt>
      <trkpt lat="48.61102" lon="7.1261">
        <ele>404.1</ele>
        <time>2020-08-19T16:23:52.000Z</time>
      </trkpt>
      <trkpt lat="48.61106" lon="7.12621">
        <ele>401.27</ele>
        <time>2020-08-19T16:23:54.000Z</time>
      </trkpt>
      <trkpt lat="48.6111" lon="7.12627">
        <ele>401.79</ele>
        <time>2020-08-19T16:23:55.000Z</time>
      </trkpt>
      <trkpt lat="48.61114" lon="7.12634">
        <ele>401.96</ele>
        <time>2020-08-19T16:23:56.000Z</time>
      </trkpt>
      <trkpt lat="48.61119" lon="7.12639">
        <ele>402.23</ele>
        <time>2020-08-19T16:23:57.000Z</time>
      </trkpt>
      <trkpt lat="48.61124" lon="7.12651">
        <ele>403.05</ele>
        <time>2020-08-19T16:23:59.000Z</time>
      </trkpt>
      <trkpt lat="48.61126" lon="7.12658">
        <ele>403.86</ele>
        <time>2020-08-19T16:24:00.000Z</time>
      </trkpt>
      <trkpt lat="48.61131" lon="7.12663">
        <ele>403.98</ele>
        <time>2020-08-19T16:24:01.000Z</time>
      </trkpt>
      <trkpt lat="48.61135" lon="7.12667">
        <ele>403.64</ele>
        <time>2020-08-19T16:24:02.000Z</time>
      </trkpt>
      <trkpt lat="48.61139" lon="7.12672">
        <ele>403.08</ele>
        <time>2020-08-19T16:24:03.000Z</time>
      </trkpt>
      <trkpt lat="48.61144" lon="7.12678">
        <ele>403.03</ele>
        <time>2020-08-19T16:24:05.000Z</time>
      </trkpt>
      <trkpt lat="48.6115" lon="7.12682">
        <ele>402.67</ele>
        <time>2020-08-19T16:24:06.000Z</time>
      </trkpt>
      <trkpt lat="48.61159" lon="7.12687">
        <ele>400.39</ele>
        <time>2020-08-19T16:24:08.000Z</time>
      </trkpt>
      <trkpt lat="48.61164" lon="7.12691">
        <ele>399.61</ele>
        <time>2020-08-19T16:24:09.000Z</time>
      </trkpt>
      <trkpt lat="48.61169" lon="7.12694">
        <ele>399.77</ele>
        <time>2020-08-19T16:24:10.000Z</time>
      </trkpt>
      <trkpt lat="48.61173" lon="7.12697">
        <ele>400.8</ele>
        <time>2020-08-19T16:24:12.000Z</time>
      </trkpt>
      <trkpt lat="48.61179" lon="7.12701">
        <ele>399.13</ele>
        <time>2020-08-19T16:24:13.000Z</time>
      </trkpt>
      <trkpt lat="48.61187" lon="7.12703">
        <ele>398.42</ele>
        <time>2020-08-19T16:24:15.000Z</time>
      </trkpt>
      <trkpt lat="48.61194" lon="7.12702">
        <ele>397.83</ele>
        <time>2020-08-19T16:24:17.000Z</time>
      </trkpt>
      <trkpt lat="48.61199" lon="7.12704">
        <ele>398.03</ele>
        <time>2020-08-19T16:24:18.000Z</time>
      </trkpt>
      <trkpt lat="48.61204" lon="7.12702">
        <ele>398.31</ele>
        <time>2020-08-19T16:24:19.000Z</time>
      </trkpt>
      <trkpt lat="48.61208" lon="7.12701">
        <ele>399.02</ele>
        <time>2020-08-19T16:24:20.000Z</time>
      </trkpt>
      <trkpt lat="48.61218" lon="7.12698">
        <ele>399.18</ele>
        <time>2020-08-19T16:24:22.000Z</time>
      </trkpt>
      <trkpt lat="48.61223" lon="7.127">
        <ele>399.47</ele>
        <time>2020-08-19T16:24:23.000Z</time>
      </trkpt>
      <trkpt lat="48.61228" lon="7.12698">
        <ele>397.53</ele>
        <time>2020-08-19T16:24:24.000Z</time>
      </trkpt>
      <trkpt lat="48.61234" lon="7.12696">
        <ele>393.17</ele>
        <time>2020-08-19T16:24:28.000Z</time>
      </trkpt>
      <trkpt lat="48.6124" lon="7.12695">
        <ele>400.93</ele>
        <time>2020-08-19T16:24:41.000Z</time>
      </trkpt>
      <trkpt lat="48.61249" lon="7.12695">
        <ele>401.02</ele>
        <time>2020-08-19T16:24:43.000Z</time>
      </trkpt>
      <trkpt lat="48.61289" lon="7.12698">
        <ele>403.25</ele>
        <time>2020-08-19T16:24:50.000Z</time>
      </trkpt>
      <trkpt lat="48.61294" lon="7.12698">
        <ele>402.95</ele>
        <time>2020-08-19T16:24:51.000Z</time>
      </trkpt>
      <trkpt lat="48.61299" lon="7.12697">
        <ele>402.55</ele>
        <time>2020-08-19T16:24:52.000Z</time>
      </trkpt>
      <trkpt lat="48.61305" lon="7.12698">
        <ele>401.29</ele>
        <time>2020-08-19T16:24:53.000Z</time>
      </trkpt>
      <trkpt lat="48.61311" lon="7.12697">
        <ele>401.47</ele>
        <time>2020-08-19T16:24:54.000Z</time>
      </trkpt>
      <trkpt lat="48.61316" lon="7.12698">
        <ele>397.89</ele>
        <time>2020-08-19T16:24:55.000Z</time>
      </trkpt>
      <trkpt lat="48.61336" lon="7.12698">
        <ele>396.83</ele>
        <time>2020-08-19T16:24:58.000Z</time>
      </trkpt>
      <trkpt lat="48.61344" lon="7.12701">
        <ele>396.44</ele>
        <time>2020-08-19T16:25:00.000Z</time>
      </trkpt>
      <trkpt lat="48.61349" lon="7.12702">
        <ele>397.92</ele>
        <time>2020-08-19T16:25:01.000Z</time>
      </trkpt>
      <trkpt lat="48.61354" lon="7.12703">
        <ele>398.28</ele>
        <time>2020-08-19T16:25:03.000Z</time>
      </trkpt>
      <trkpt lat="48.61358" lon="7.127">
        <ele>400.54</ele>
        <time>2020-08-19T16:25:05.000Z</time>
      </trkpt>
      <trkpt lat="48.61364" lon="7.12703">
        <ele>400</ele>
        <time>2020-08-19T16:25:07.000Z</time>
      </trkpt>
      <trkpt lat="48.6137" lon="7.12704">
        <ele>398.32</ele>
        <time>2020-08-19T16:25:10.000Z</time>
      </trkpt>
      <trkpt lat="48.61376" lon="7.12706">
        <ele>397.04</ele>
        <time>2020-08-19T16:25:14.000Z</time>
      </trkpt>
      <trkpt lat="48.61381" lon="7.12706">
        <ele>397.22</ele>
        <time>2020-08-19T16:25:17.000Z</time>
      </trkpt>
      <trkpt lat="48.61385" lon="7.12702">
        <ele>398.39</ele>
        <time>2020-08-19T16:25:21.000Z</time>
      </trkpt>
      <trkpt lat="48.6139" lon="7.127">
        <ele>392.24</ele>
        <time>2020-08-19T16:25:36.000Z</time>
      </trkpt>
      <trkpt lat="48.61395" lon="7.12697">
        <ele>391.29</ele>
        <time>2020-08-19T16:25:38.000Z</time>
      </trkpt>
      <trkpt lat="48.61402" lon="7.12693">
        <ele>390.91</ele>
        <time>2020-08-19T16:25:41.000Z</time>
      </trkpt>
      <trkpt lat="48.61408" lon="7.12687">
        <ele>390.92</ele>
        <time>2020-08-19T16:25:43.000Z</time>
      </trkpt>
      <trkpt lat="48.61415" lon="7.12677">
        <ele>391.05</ele>
        <time>2020-08-19T16:25:46.000Z</time>
      </trkpt>
      <trkpt lat="48.61418" lon="7.12667">
        <ele>391.17</ele>
        <time>2020-08-19T16:25:48.000Z</time>
      </trkpt>
      <trkpt lat="48.61425" lon="7.12652">
        <ele>392.4</ele>
        <time>2020-08-19T16:25:50.000Z</time>
      </trkpt>
      <trkpt lat="48.61426" lon="7.12644">
        <ele>391.34</ele>
        <time>2020-08-19T16:25:51.000Z</time>
      </trkpt>
      <trkpt lat="48.6143" lon="7.12636">
        <ele>393.27</ele>
        <time>2020-08-19T16:25:53.000Z</time>
      </trkpt>
      <trkpt lat="48.61434" lon="7.12631">
        <ele>390.52</ele>
        <time>2020-08-19T16:25:54.000Z</time>
      </trkpt>
      <trkpt lat="48.61436" lon="7.12625">
        <ele>391.16</ele>
        <time>2020-08-19T16:26:07.000Z</time>
      </trkpt>
      <trkpt lat="48.61443" lon="7.12626">
        <ele>392.49</ele>
        <time>2020-08-19T16:26:11.000Z</time>
      </trkpt>
      <trkpt lat="48.6145" lon="7.12629">
        <ele>394.24</ele>
        <time>2020-08-19T16:26:13.000Z</time>
      </trkpt>
      <trkpt lat="48.61454" lon="7.12631">
        <ele>392.88</ele>
        <time>2020-08-19T16:26:17.000Z</time>
      </trkpt>
      <trkpt lat="48.61453" lon="7.12642">
        <ele>391.39</ele>
        <time>2020-08-19T16:26:30.000Z</time>
      </trkpt>
      <trkpt lat="48.61453" lon="7.12652">
        <ele>390.41</ele>
        <time>2020-08-19T16:26:32.000Z</time>
      </trkpt>
      <trkpt lat="48.61451" lon="7.12664">
        <ele>388.06</ele>
        <time>2020-08-19T16:26:34.000Z</time>
      </trkpt>
      <trkpt lat="48.61448" lon="7.12676">
        <ele>385.85</ele>
        <time>2020-08-19T16:26:36.000Z</time>
      </trkpt>
      <trkpt lat="48.61448" lon="7.12685">
        <ele>385.32</ele>
        <time>2020-08-19T16:26:37.000Z</time>
      </trkpt>
      <trkpt lat="48.61448" lon="7.12702">
        <ele>384.25</ele>
        <time>2020-08-19T16:26:39.000Z</time>
      </trkpt>
      <trkpt lat="48.61449" lon="7.1271">
        <ele>385.8</ele>
        <time>2020-08-19T16:26:40.000Z</time>
      </trkpt>
      <trkpt lat="48.6145" lon="7.12719">
        <ele>386.08</ele>
        <time>2020-08-19T16:26:41.000Z</time>
      </trkpt>
      <trkpt lat="48.61456" lon="7.12741">
        <ele>387.17</ele>
        <time>2020-08-19T16:26:44.000Z</time>
      </trkpt>
      <trkpt lat="48.61459" lon="7.12747">
        <ele>387.6</ele>
        <time>2020-08-19T16:26:45.000Z</time>
      </trkpt>
      <trkpt lat="48.61462" lon="7.12753">
        <ele>388.01</ele>
        <time>2020-08-19T16:26:46.000Z</time>
      </trkpt>
      <trkpt lat="48.61465" lon="7.12759">
        <ele>388.94</ele>
        <time>2020-08-19T16:26:47.000Z</time>
      </trkpt>
      <trkpt lat="48.61469" lon="7.12765">
        <ele>388.36</ele>
        <time>2020-08-19T16:26:48.000Z</time>
      </trkpt>
      <trkpt lat="48.61472" lon="7.1277">
        <ele>389.98</ele>
        <time>2020-08-19T16:26:49.000Z</time>
      </trkpt>
      <trkpt lat="48.61476" lon="7.12775">
        <ele>390.56</ele>
        <time>2020-08-19T16:26:50.000Z</time>
      </trkpt>
      <trkpt lat="48.61479" lon="7.12781">
        <ele>388.71</ele>
        <time>2020-08-19T16:26:51.000Z</time>
      </trkpt>
      <trkpt lat="48.61485" lon="7.12791">
        <ele>387.27</ele>
        <time>2020-08-19T16:26:53.000Z</time>
      </trkpt>
      <trkpt lat="48.61495" lon="7.128">
        <ele>388.84</ele>
        <time>2020-08-19T16:26:55.000Z</time>
      </trkpt>
      <trkpt lat="48.61498" lon="7.12806">
        <ele>388.41</ele>
        <time>2020-08-19T16:26:56.000Z</time>
      </trkpt>
      <trkpt lat="48.61501" lon="7.12812">
        <ele>386.18</ele>
        <time>2020-08-19T16:26:57.000Z</time>
      </trkpt>
      <trkpt lat="48.61505" lon="7.12816">
        <ele>386.45</ele>
        <time>2020-08-19T16:26:58.000Z</time>
      </trkpt>
      <trkpt lat="48.61509" lon="7.12822">
        <ele>385</ele>
        <time>2020-08-19T16:26:59.000Z</time>
      </trkpt>
      <trkpt lat="48.61513" lon="7.12829">
        <ele>383.66</ele>
        <time>2020-08-19T16:27:00.000Z</time>
      </trkpt>
      <trkpt lat="48.6152" lon="7.12835">
        <ele>381.78</ele>
        <time>2020-08-19T16:27:01.000Z</time>
      </trkpt>
      <trkpt lat="48.61525" lon="7.1284">
        <ele>381.35</ele>
        <time>2020-08-19T16:27:02.000Z</time>
      </trkpt>
      <trkpt lat="48.61531" lon="7.12846">
        <ele>379.86</ele>
        <time>2020-08-19T16:27:03.000Z</time>
      </trkpt>
      <trkpt lat="48.61533" lon="7.12854">
        <ele>378.93</ele>
        <time>2020-08-19T16:27:04.000Z</time>
      </trkpt>
      <trkpt lat="48.61538" lon="7.1286">
        <ele>378.22</ele>
        <time>2020-08-19T16:27:05.000Z</time>
      </trkpt>
      <trkpt lat="48.61541" lon="7.12866">
        <ele>378.9</ele>
        <time>2020-08-19T16:27:06.000Z</time>
      </trkpt>
      <trkpt lat="48.61547" lon="7.12869">
        <ele>380.01</ele>
        <time>2020-08-19T16:27:07.000Z</time>
      </trkpt>
      <trkpt lat="48.61551" lon="7.12878">
        <ele>377.44</ele>
        <time>2020-08-19T16:27:09.000Z</time>
      </trkpt>
      <trkpt lat="48.61555" lon="7.12885">
        <ele>377.17</ele>
        <time>2020-08-19T16:27:10.000Z</time>
      </trkpt>
      <trkpt lat="48.61558" lon="7.1289">
        <ele>377.14</ele>
        <time>2020-08-19T16:27:11.000Z</time>
      </trkpt>
      <trkpt lat="48.61563" lon="7.12896">
        <ele>376.54</ele>
        <time>2020-08-19T16:27:12.000Z</time>
      </trkpt>
      <trkpt lat="48.61569" lon="7.129">
        <ele>376.47</ele>
        <time>2020-08-19T16:27:13.000Z</time>
      </trkpt>
      <trkpt lat="48.61573" lon="7.12904">
        <ele>375.99</ele>
        <time>2020-08-19T16:27:14.000Z</time>
      </trkpt>
      <trkpt lat="48.6158" lon="7.12909">
        <ele>374.67</ele>
        <time>2020-08-19T16:27:15.000Z</time>
      </trkpt>
      <trkpt lat="48.61585" lon="7.12913">
        <ele>374.34</ele>
        <time>2020-08-19T16:27:16.000Z</time>
      </trkpt>
      <trkpt lat="48.6159" lon="7.12916">
        <ele>374.32</ele>
        <time>2020-08-19T16:27:17.000Z</time>
      </trkpt>
      <trkpt lat="48.61594" lon="7.12921">
        <ele>374.72</ele>
        <time>2020-08-19T16:27:18.000Z</time>
      </trkpt>
      <trkpt lat="48.61602" lon="7.12923">
        <ele>373.24</ele>
        <time>2020-08-19T16:27:19.000Z</time>
      </trkpt>
      <trkpt lat="48.61608" lon="7.12927">
        <ele>372.47</ele>
        <time>2020-08-19T16:27:20.000Z</time>
      </trkpt>
      <trkpt lat="48.61615" lon="7.12927">
        <ele>370.13</ele>
        <time>2020-08-19T16:27:21.000Z</time>
      </trkpt>
      <trkpt lat="48.61625" lon="7.12929">
        <ele>370.05</ele>
        <time>2020-08-19T16:27:22.000Z</time>
      </trkpt>
      <trkpt lat="48.61632" lon="7.12931">
        <ele>368.99</ele>
        <time>2020-08-19T16:27:23.000Z</time>
      </trkpt>
      <trkpt lat="48.6164" lon="7.12934">
        <ele>368.79</ele>
        <time>2020-08-19T16:27:24.000Z</time>
      </trkpt>
      <trkpt lat="48.61647" lon="7.12939">
        <ele>367.78</ele>
        <time>2020-08-19T16:27:25.000Z</time>
      </trkpt>
      <trkpt lat="48.61654" lon="7.1294">
        <ele>366.39</ele>
        <time>2020-08-19T16:27:26.000Z</time>
      </trkpt>
      <trkpt lat="48.61662" lon="7.12937">
        <ele>365.59</ele>
        <time>2020-08-19T16:27:27.000Z</time>
      </trkpt>
      <trkpt lat="48.61668" lon="7.12934">
        <ele>365.07</ele>
        <time>2020-08-19T16:27:28.000Z</time>
      </trkpt>
      <trkpt lat="48.61674" lon="7.12929">
        <ele>364.18</ele>
        <time>2020-08-19T16:27:29.000Z</time>
      </trkpt>
      <trkpt lat="48.61679" lon="7.12923">
        <ele>364.91</ele>
        <time>2020-08-19T16:27:30.000Z</time>
      </trkpt>
      <trkpt lat="48.61684" lon="7.12923">
        <ele>364.64</ele>
        <time>2020-08-19T16:27:31.000Z</time>
      </trkpt>
      <trkpt lat="48.6169" lon="7.12925">
        <ele>364.8</ele>
        <time>2020-08-19T16:27:34.000Z</time>
      </trkpt>
      <trkpt lat="48.61695" lon="7.12924">
        <ele>364.42</ele>
        <time>2020-08-19T16:27:46.000Z</time>
      </trkpt>
      <trkpt lat="48.61701" lon="7.12929">
        <ele>366.36</ele>
        <time>2020-08-19T16:27:48.000Z</time>
      </trkpt>
      <trkpt lat="48.61707" lon="7.12934">
        <ele>367.15</ele>
        <time>2020-08-19T16:27:50.000Z</time>
      </trkpt>
      <trkpt lat="48.61711" lon="7.12937">
        <ele>366.7</ele>
        <time>2020-08-19T16:27:58.000Z</time>
      </trkpt>
      <trkpt lat="48.61717" lon="7.12943">
        <ele>366.24</ele>
        <time>2020-08-19T16:28:00.000Z</time>
      </trkpt>
      <trkpt lat="48.61723" lon="7.12947">
        <ele>365.65</ele>
        <time>2020-08-19T16:28:02.000Z</time>
      </trkpt>
      <trkpt lat="48.6173" lon="7.12947">
        <ele>364.88</ele>
        <time>2020-08-19T16:28:04.000Z</time>
      </trkpt>
      <trkpt lat="48.61735" lon="7.1294">
        <ele>365.82</ele>
        <time>2020-08-19T16:28:06.000Z</time>
      </trkpt>
      <trkpt lat="48.6174" lon="7.12931">
        <ele>365.79</ele>
        <time>2020-08-19T16:28:08.000Z</time>
      </trkpt>
      <trkpt lat="48.61745" lon="7.12921">
        <ele>365.17</ele>
        <time>2020-08-19T16:28:10.000Z</time>
      </trkpt>
      <trkpt lat="48.61749" lon="7.12914">
        <ele>365.8</ele>
        <time>2020-08-19T16:28:12.000Z</time>
      </trkpt>
      <trkpt lat="48.61751" lon="7.12902">
        <ele>366.04</ele>
        <time>2020-08-19T16:28:14.000Z</time>
      </trkpt>
      <trkpt lat="48.61753" lon="7.12892">
        <ele>368.29</ele>
        <time>2020-08-19T16:28:16.000Z</time>
      </trkpt>
      <trkpt lat="48.61753" lon="7.12885">
        <ele>369.6</ele>
        <time>2020-08-19T16:28:17.000Z</time>
      </trkpt>
      <trkpt lat="48.61757" lon="7.12871">
        <ele>368.32</ele>
        <time>2020-08-19T16:28:19.000Z</time>
      </trkpt>
      <trkpt lat="48.61764" lon="7.1286">
        <ele>364.53</ele>
        <time>2020-08-19T16:28:21.000Z</time>
      </trkpt>
      <trkpt lat="48.61767" lon="7.12854">
        <ele>363.27</ele>
        <time>2020-08-19T16:28:22.000Z</time>
      </trkpt>
      <trkpt lat="48.6177" lon="7.12848">
        <ele>363.05</ele>
        <time>2020-08-19T16:28:23.000Z</time>
      </trkpt>
      <trkpt lat="48.61774" lon="7.12842">
        <ele>365.12</ele>
        <time>2020-08-19T16:28:24.000Z</time>
      </trkpt>
      <trkpt lat="48.61778" lon="7.12837">
        <ele>364.51</ele>
        <time>2020-08-19T16:28:25.000Z</time>
      </trkpt>
      <trkpt lat="48.61781" lon="7.1283">
        <ele>362.17</ele>
        <time>2020-08-19T16:28:26.000Z</time>
      </trkpt>
      <trkpt lat="48.61786" lon="7.12827">
        <ele>362.46</ele>
        <time>2020-08-19T16:28:27.000Z</time>
      </trkpt>
      <trkpt lat="48.61792" lon="7.12825">
        <ele>362.61</ele>
        <time>2020-08-19T16:28:28.000Z</time>
      </trkpt>
      <trkpt lat="48.61797" lon="7.12824">
        <ele>363.11</ele>
        <time>2020-08-19T16:28:29.000Z</time>
      </trkpt>
      <trkpt lat="48.61802" lon="7.12825">
        <ele>363.54</ele>
        <time>2020-08-19T16:28:30.000Z</time>
      </trkpt>
      <trkpt lat="48.61807" lon="7.12825">
        <ele>364.13</ele>
        <time>2020-08-19T16:28:31.000Z</time>
      </trkpt>
      <trkpt lat="48.61812" lon="7.12827">
        <ele>364.4</ele>
        <time>2020-08-19T16:28:32.000Z</time>
      </trkpt>
      <trkpt lat="48.61818" lon="7.1283">
        <ele>364.52</ele>
        <time>2020-08-19T16:28:33.000Z</time>
      </trkpt>
      <trkpt lat="48.61822" lon="7.12832">
        <ele>364.74</ele>
        <time>2020-08-19T16:28:34.000Z</time>
      </trkpt>
      <trkpt lat="48.61826" lon="7.12836">
        <ele>363.42</ele>
        <time>2020-08-19T16:28:35.000Z</time>
      </trkpt>
      <trkpt lat="48.61831" lon="7.12842">
        <ele>363.82</ele>
        <time>2020-08-19T16:28:36.000Z</time>
      </trkpt>
      <trkpt lat="48.61835" lon="7.12845">
        <ele>364.28</ele>
        <time>2020-08-19T16:28:37.000Z</time>
      </trkpt>
      <trkpt lat="48.61839" lon="7.12848">
        <ele>365.32</ele>
        <time>2020-08-19T16:28:38.000Z</time>
      </trkpt>
      <trkpt lat="48.61846" lon="7.12856">
        <ele>365.63</ele>
        <time>2020-08-19T16:28:40.000Z</time>
      </trkpt>
      <trkpt lat="48.6185" lon="7.12863">
        <ele>364.36</ele>
        <time>2020-08-19T16:28:41.000Z</time>
      </trkpt>
      <trkpt lat="48.61854" lon="7.1287">
        <ele>362.57</ele>
        <time>2020-08-19T16:28:42.000Z</time>
      </trkpt>
      <trkpt lat="48.6186" lon="7.12879">
        <ele>364.38</ele>
        <time>2020-08-19T16:28:44.000Z</time>
      </trkpt>
      <trkpt lat="48.61868" lon="7.12888">
        <ele>364.93</ele>
        <time>2020-08-19T16:28:46.000Z</time>
      </trkpt>
      <trkpt lat="48.61871" lon="7.12893">
        <ele>364.61</ele>
        <time>2020-08-19T16:28:47.000Z</time>
      </trkpt>
      <trkpt lat="48.61874" lon="7.12898">
        <ele>364.8</ele>
        <time>2020-08-19T16:28:48.000Z</time>
      </trkpt>
      <trkpt lat="48.61878" lon="7.12903">
        <ele>365</ele>
        <time>2020-08-19T16:28:49.000Z</time>
      </trkpt>
      <trkpt lat="48.61882" lon="7.12908">
        <ele>364.2</ele>
        <time>2020-08-19T16:28:50.000Z</time>
      </trkpt>
      <trkpt lat="48.61884" lon="7.12913">
        <ele>363.86</ele>
        <time>2020-08-19T16:28:51.000Z</time>
      </trkpt>
      <trkpt lat="48.61889" lon="7.12918">
        <ele>363.79</ele>
        <time>2020-08-19T16:28:52.000Z</time>
      </trkpt>
      <trkpt lat="48.61893" lon="7.12922">
        <ele>364.03</ele>
        <time>2020-08-19T16:28:53.000Z</time>
      </trkpt>
      <trkpt lat="48.61898" lon="7.12926">
        <ele>364.15</ele>
        <time>2020-08-19T16:28:54.000Z</time>
      </trkpt>
      <trkpt lat="48.61903" lon="7.12931">
        <ele>364.39</ele>
        <time>2020-08-19T16:28:55.000Z</time>
      </trkpt>
      <trkpt lat="48.61906" lon="7.12935">
        <ele>364.47</ele>
        <time>2020-08-19T16:28:56.000Z</time>
      </trkpt>
      <trkpt lat="48.61911" lon="7.12938">
        <ele>364.22</ele>
        <time>2020-08-19T16:28:57.000Z</time>
      </trkpt>
      <trkpt lat="48.61915" lon="7.12942">
        <ele>364.14</ele>
        <time>2020-08-19T16:28:58.000Z</time>
      </trkpt>
      <trkpt lat="48.61921" lon="7.12944">
        <ele>364.58</ele>
        <time>2020-08-19T16:28:59.000Z</time>
      </trkpt>
      <trkpt lat="48.61926" lon="7.12947">
        <ele>364.46</ele>
        <time>2020-08-19T16:29:00.000Z</time>
      </trkpt>
      <trkpt lat="48.61931" lon="7.1295">
        <ele>365.7</ele>
        <time>2020-08-19T16:29:01.000Z</time>
      </trkpt>
      <trkpt lat="48.61937" lon="7.12952">
        <ele>366.01</ele>
        <time>2020-08-19T16:29:02.000Z</time>
      </trkpt>
      <trkpt lat="48.61942" lon="7.12953">
        <ele>365.99</ele>
        <time>2020-08-19T16:29:03.000Z</time>
      </trkpt>
      <trkpt lat="48.61951" lon="7.12958">
        <ele>366.56</ele>
        <time>2020-08-19T16:29:04.000Z</time>
      </trkpt>
      <trkpt lat="48.61958" lon="7.1296">
        <ele>366.57</ele>
        <time>2020-08-19T16:29:05.000Z</time>
      </trkpt>
      <trkpt lat="48.61964" lon="7.12964">
        <ele>363.93</ele>
        <time>2020-08-19T16:29:06.000Z</time>
      </trkpt>
      <trkpt lat="48.61971" lon="7.12966">
        <ele>364.66</ele>
        <time>2020-08-19T16:29:07.000Z</time>
      </trkpt>
      <trkpt lat="48.61978" lon="7.12967">
        <ele>364.8</ele>
        <time>2020-08-19T16:29:08.000Z</time>
      </trkpt>
      <trkpt lat="48.61986" lon="7.12968">
        <ele>364.93</ele>
        <time>2020-08-19T16:29:09.000Z</time>
      </trkpt>
      <trkpt lat="48.61997" lon="7.12971">
        <ele>362.37</ele>
        <time>2020-08-19T16:29:10.000Z</time>
      </trkpt>
      <trkpt lat="48.62003" lon="7.12967">
        <ele>363.81</ele>
        <time>2020-08-19T16:29:11.000Z</time>
      </trkpt>
      <trkpt lat="48.62018" lon="7.12966">
        <ele>363.99</ele>
        <time>2020-08-19T16:29:13.000Z</time>
      </trkpt>
      <trkpt lat="48.62025" lon="7.12971">
        <ele>364.71</ele>
        <time>2020-08-19T16:29:14.000Z</time>
      </trkpt>
      <trkpt lat="48.62032" lon="7.12972">
        <ele>365.11</ele>
        <time>2020-08-19T16:29:15.000Z</time>
      </trkpt>
      <trkpt lat="48.62039" lon="7.12972">
        <ele>366.24</ele>
        <time>2020-08-19T16:29:16.000Z</time>
      </trkpt>
      <trkpt lat="48.62045" lon="7.12973">
        <ele>367.44</ele>
        <time>2020-08-19T16:29:17.000Z</time>
      </trkpt>
      <trkpt lat="48.62053" lon="7.12971">
        <ele>364.63</ele>
        <time>2020-08-19T16:29:18.000Z</time>
      </trkpt>
      <trkpt lat="48.6206" lon="7.12972">
        <ele>362.7</ele>
        <time>2020-08-19T16:29:19.000Z</time>
      </trkpt>
      <trkpt lat="48.62068" lon="7.12968">
        <ele>363.76</ele>
        <time>2020-08-19T16:29:20.000Z</time>
      </trkpt>
      <trkpt lat="48.62076" lon="7.12965">
        <ele>364.02</ele>
        <time>2020-08-19T16:29:21.000Z</time>
      </trkpt>
      <trkpt lat="48.62084" lon="7.12961">
        <ele>363.75</ele>
        <time>2020-08-19T16:29:22.000Z</time>
      </trkpt>
      <trkpt lat="48.62092" lon="7.12957">
        <ele>364.81</ele>
        <time>2020-08-19T16:29:23.000Z</time>
      </trkpt>
      <trkpt lat="48.62098" lon="7.12952">
        <ele>365.09</ele>
        <time>2020-08-19T16:29:24.000Z</time>
      </trkpt>
      <trkpt lat="48.62106" lon="7.1295">
        <ele>365.06</ele>
        <time>2020-08-19T16:29:25.000Z</time>
      </trkpt>
      <trkpt lat="48.62112" lon="7.12944">
        <ele>363.43</ele>
        <time>2020-08-19T16:29:26.000Z</time>
      </trkpt>
      <trkpt lat="48.62118" lon="7.1294">
        <ele>363.22</ele>
        <time>2020-08-19T16:29:27.000Z</time>
      </trkpt>
      <trkpt lat="48.62125" lon="7.12938">
        <ele>363.93</ele>
        <time>2020-08-19T16:29:28.000Z</time>
      </trkpt>
      <trkpt lat="48.62132" lon="7.12934">
        <ele>363.81</ele>
        <time>2020-08-19T16:29:29.000Z</time>
      </trkpt>
      <trkpt lat="48.62138" lon="7.1293">
        <ele>364.12</ele>
        <time>2020-08-19T16:29:30.000Z</time>
      </trkpt>
      <trkpt lat="48.62144" lon="7.12925">
        <ele>363.79</ele>
        <time>2020-08-19T16:29:31.000Z</time>
      </trkpt>
      <trkpt lat="48.6215" lon="7.12921">
        <ele>363.72</ele>
        <time>2020-08-19T16:29:32.000Z</time>
      </trkpt>
      <trkpt lat="48.62157" lon="7.12919">
        <ele>362.97</ele>
        <time>2020-08-19T16:29:33.000Z</time>
      </trkpt>
      <trkpt lat="48.62163" lon="7.12911">
        <ele>363.28</ele>
        <time>2020-08-19T16:29:34.000Z</time>
      </trkpt>
      <trkpt lat="48.6217" lon="7.12909">
        <ele>363.9</ele>
        <time>2020-08-19T16:29:35.000Z</time>
      </trkpt>
      <trkpt lat="48.62176" lon="7.12905">
        <ele>363.55</ele>
        <time>2020-08-19T16:29:36.000Z</time>
      </trkpt>
      <trkpt lat="48.62184" lon="7.12903">
        <ele>361.98</ele>
        <time>2020-08-19T16:29:37.000Z</time>
      </trkpt>
      <trkpt lat="48.6219" lon="7.12903">
        <ele>360.99</ele>
        <time>2020-08-19T16:29:38.000Z</time>
      </trkpt>
      <trkpt lat="48.62196" lon="7.12904">
        <ele>359.93</ele>
        <time>2020-08-19T16:29:39.000Z</time>
      </trkpt>
      <trkpt lat="48.62203" lon="7.12905">
        <ele>360.34</ele>
        <time>2020-08-19T16:29:40.000Z</time>
      </trkpt>
      <trkpt lat="48.62209" lon="7.12904">
        <ele>360.55</ele>
        <time>2020-08-19T16:29:41.000Z</time>
      </trkpt>
      <trkpt lat="48.62215" lon="7.12911">
        <ele>359.56</ele>
        <time>2020-08-19T16:29:42.000Z</time>
      </trkpt>
      <trkpt lat="48.6222" lon="7.12914">
        <ele>360.04</ele>
        <time>2020-08-19T16:29:43.000Z</time>
      </trkpt>
      <trkpt lat="48.62225" lon="7.12919">
        <ele>360.42</ele>
        <time>2020-08-19T16:29:44.000Z</time>
      </trkpt>
      <trkpt lat="48.6223" lon="7.12924">
        <ele>360.14</ele>
        <time>2020-08-19T16:29:45.000Z</time>
      </trkpt>
      <trkpt lat="48.62234" lon="7.12927">
        <ele>361.5</ele>
        <time>2020-08-19T16:29:46.000Z</time>
      </trkpt>
      <trkpt lat="48.62239" lon="7.12932">
        <ele>361.78</ele>
        <time>2020-08-19T16:29:47.000Z</time>
      </trkpt>
      <trkpt lat="48.62244" lon="7.12936">
        <ele>362.36</ele>
        <time>2020-08-19T16:29:48.000Z</time>
      </trkpt>
      <trkpt lat="48.62249" lon="7.12941">
        <ele>362.69</ele>
        <time>2020-08-19T16:29:49.000Z</time>
      </trkpt>
      <trkpt lat="48.62254" lon="7.12946">
        <ele>362.85</ele>
        <time>2020-08-19T16:29:50.000Z</time>
      </trkpt>
      <trkpt lat="48.62259" lon="7.12952">
        <ele>362.81</ele>
        <time>2020-08-19T16:29:51.000Z</time>
      </trkpt>
      <trkpt lat="48.62265" lon="7.12957">
        <ele>362.22</ele>
        <time>2020-08-19T16:29:52.000Z</time>
      </trkpt>
      <trkpt lat="48.62287" lon="7.12975">
        <ele>364.06</ele>
        <time>2020-08-19T16:29:56.000Z</time>
      </trkpt>
      <trkpt lat="48.62291" lon="7.12979">
        <ele>363.01</ele>
        <time>2020-08-19T16:29:57.000Z</time>
      </trkpt>
      <trkpt lat="48.62296" lon="7.12983">
        <ele>363.59</ele>
        <time>2020-08-19T16:29:58.000Z</time>
      </trkpt>
      <trkpt lat="48.62298" lon="7.12989">
        <ele>361.61</ele>
        <time>2020-08-19T16:29:59.000Z</time>
      </trkpt>
      <trkpt lat="48.62304" lon="7.12996">
        <ele>360.71</ele>
        <time>2020-08-19T16:30:01.000Z</time>
      </trkpt>
      <trkpt lat="48.62306" lon="7.12989">
        <ele>360.44</ele>
        <time>2020-08-19T16:30:06.000Z</time>
      </trkpt>
      <trkpt lat="48.62302" lon="7.12986">
        <ele>360.94</ele>
        <time>2020-08-19T16:30:08.000Z</time>
      </trkpt>
      <trkpt lat="48.62296" lon="7.12983">
        <ele>360.99</ele>
        <time>2020-08-19T16:30:10.000Z</time>
      </trkpt>
      <trkpt lat="48.6229" lon="7.12977">
        <ele>361.19</ele>
        <time>2020-08-19T16:30:12.000Z</time>
      </trkpt>
      <trkpt lat="48.62283" lon="7.1297">
        <ele>360.84</ele>
        <time>2020-08-19T16:30:14.000Z</time>
      </trkpt>
      <trkpt lat="48.62276" lon="7.12964">
        <ele>361.04</ele>
        <time>2020-08-19T16:30:16.000Z</time>
      </trkpt>
      <trkpt lat="48.62269" lon="7.12957">
        <ele>360.86</ele>
        <time>2020-08-19T16:30:18.000Z</time>
      </trkpt>
      <trkpt lat="48.62262" lon="7.1295">
        <ele>361.08</ele>
        <time>2020-08-19T16:30:20.000Z</time>
      </trkpt>
      <trkpt lat="48.62255" lon="7.12948">
        <ele>361.02</ele>
        <time>2020-08-19T16:30:22.000Z</time>
      </trkpt>
      <trkpt lat="48.62246" lon="7.12952">
        <ele>361.57</ele>
        <time>2020-08-19T16:30:24.000Z</time>
      </trkpt>
      <trkpt lat="48.6224" lon="7.12951">
        <ele>362.08</ele>
        <time>2020-08-19T16:30:26.000Z</time>
      </trkpt>
      <trkpt lat="48.62234" lon="7.12947">
        <ele>362.3</ele>
        <time>2020-08-19T16:30:28.000Z</time>
      </trkpt>
      <trkpt lat="48.6223" lon="7.1294">
        <ele>362.12</ele>
        <time>2020-08-19T16:30:30.000Z</time>
      </trkpt>
      <trkpt lat="48.62225" lon="7.12932">
        <ele>362.32</ele>
        <time>2020-08-19T16:30:32.000Z</time>
      </trkpt>
      <trkpt lat="48.62218" lon="7.12924">
        <ele>363</ele>
        <time>2020-08-19T16:30:34.000Z</time>
      </trkpt>
      <trkpt lat="48.62213" lon="7.1292">
        <ele>364.02</ele>
        <time>2020-08-19T16:30:35.000Z</time>
      </trkpt>
      <trkpt lat="48.62209" lon="7.12916">
        <ele>365.71</ele>
        <time>2020-08-19T16:30:38.000Z</time>
      </trkpt>
      <trkpt lat="48.62205" lon="7.12921">
        <ele>365.9</ele>
        <time>2020-08-19T16:31:00.000Z</time>
      </trkpt>
      <trkpt lat="48.622" lon="7.1292">
        <ele>367.21</ele>
        <time>2020-08-19T16:31:04.000Z</time>
      </trkpt>
      <trkpt lat="48.62196" lon="7.12922">
        <ele>366.35</ele>
        <time>2020-08-19T16:31:08.000Z</time>
      </trkpt>
      <trkpt lat="48.62191" lon="7.12925">
        <ele>363.85</ele>
        <time>2020-08-19T16:31:15.000Z</time>
      </trkpt>
      <trkpt lat="48.62186" lon="7.12927">
        <ele>366.98</ele>
        <time>2020-08-19T16:31:18.000Z</time>
      </trkpt>
      <trkpt lat="48.6218" lon="7.12927">
        <ele>371.51</ele>
        <time>2020-08-19T16:31:23.000Z</time>
      </trkpt>
      <trkpt lat="48.62175" lon="7.12928">
        <ele>372.99</ele>
        <time>2020-08-19T16:31:27.000Z</time>
      </trkpt>
      <trkpt lat="48.62171" lon="7.12931">
        <ele>373.51</ele>
        <time>2020-08-19T16:31:32.000Z</time>
      </trkpt>
      <trkpt lat="48.62167" lon="7.12935">
        <ele>375.4</ele>
        <time>2020-08-19T16:31:36.000Z</time>
      </trkpt>
      <trkpt lat="48.62162" lon="7.12938">
        <ele>376.45</ele>
        <time>2020-08-19T16:31:41.000Z</time>
      </trkpt>
      <trkpt lat="48.62158" lon="7.12943">
        <ele>377.51</ele>
        <time>2020-08-19T16:31:45.000Z</time>
      </trkpt>
      <trkpt lat="48.62153" lon="7.12948">
        <ele>376.03</ele>
        <time>2020-08-19T16:31:50.000Z</time>
      </trkpt>
      <trkpt lat="48.6215" lon="7.12955">
        <ele>377.98</ele>
        <time>2020-08-19T16:31:54.000Z</time>
      </trkpt>
      <trkpt lat="48.62145" lon="7.12958">
        <ele>381.35</ele>
        <time>2020-08-19T16:31:58.000Z</time>
      </trkpt>
      <trkpt lat="48.62142" lon="7.12964">
        <ele>382.62</ele>
        <time>2020-08-19T16:32:03.000Z</time>
      </trkpt>
      <trkpt lat="48.62137" lon="7.12968">
        <ele>384.57</ele>
        <time>2020-08-19T16:32:06.000Z</time>
      </trkpt>
      <trkpt lat="48.62134" lon="7.12973">
        <ele>384.47</ele>
        <time>2020-08-19T16:32:10.000Z</time>
      </trkpt>
      <trkpt lat="48.62131" lon="7.1298">
        <ele>385.52</ele>
        <time>2020-08-19T16:32:17.000Z</time>
      </trkpt>
      <trkpt lat="48.62127" lon="7.12985">
        <ele>385.02</ele>
        <time>2020-08-19T16:32:20.000Z</time>
      </trkpt>
      <trkpt lat="48.62122" lon="7.12988">
        <ele>388.77</ele>
        <time>2020-08-19T16:32:24.000Z</time>
      </trkpt>
      <trkpt lat="48.6212" lon="7.12995">
        <ele>387.45</ele>
        <time>2020-08-19T16:32:28.000Z</time>
      </trkpt>
      <trkpt lat="48.62118" lon="7.13002">
        <ele>389.55</ele>
        <time>2020-08-19T16:32:32.000Z</time>
      </trkpt>
      <trkpt lat="48.62116" lon="7.13009">
        <ele>390.45</ele>
        <time>2020-08-19T16:32:36.000Z</time>
      </trkpt>
      <trkpt lat="48.62113" lon="7.13014">
        <ele>388.58</ele>
        <time>2020-08-19T16:32:40.000Z</time>
      </trkpt>
      <trkpt lat="48.62109" lon="7.13019">
        <ele>393.28</ele>
        <time>2020-08-19T16:32:46.000Z</time>
      </trkpt>
      <trkpt lat="48.62104" lon="7.1302">
        <ele>393.11</ele>
        <time>2020-08-19T16:32:49.000Z</time>
      </trkpt>
      <trkpt lat="48.621" lon="7.13026">
        <ele>393.22</ele>
        <time>2020-08-19T16:32:52.000Z</time>
      </trkpt>
      <trkpt lat="48.62096" lon="7.13031">
        <ele>391.44</ele>
        <time>2020-08-19T16:32:55.000Z</time>
      </trkpt>
      <trkpt lat="48.62093" lon="7.13037">
        <ele>387.1</ele>
        <time>2020-08-19T16:33:00.000Z</time>
      </trkpt>
      <trkpt lat="48.62091" lon="7.13044">
        <ele>388.99</ele>
        <time>2020-08-19T16:33:09.000Z</time>
      </trkpt>
      <trkpt lat="48.62088" lon="7.13049">
        <ele>385.69</ele>
        <time>2020-08-19T16:33:12.000Z</time>
      </trkpt>
      <trkpt lat="48.62084" lon="7.13053">
        <ele>385.79</ele>
        <time>2020-08-19T16:33:16.000Z</time>
      </trkpt>
      <trkpt lat="48.62079" lon="7.13058">
        <ele>385.71</ele>
        <time>2020-08-19T16:33:19.000Z</time>
      </trkpt>
      <trkpt lat="48.62073" lon="7.13063">
        <ele>385.03</ele>
        <time>2020-08-19T16:33:22.000Z</time>
      </trkpt>
      <trkpt lat="48.62057" lon="7.13068">
        <ele>390.6</ele>
        <time>2020-08-19T16:33:31.000Z</time>
      </trkpt>
      <trkpt lat="48.62051" lon="7.13067">
        <ele>392.35</ele>
        <time>2020-08-19T16:33:34.000Z</time>
      </trkpt>
      <trkpt lat="48.62046" lon="7.13067">
        <ele>393.49</ele>
        <time>2020-08-19T16:33:39.000Z</time>
      </trkpt>
      <trkpt lat="48.62041" lon="7.13067">
        <ele>393.09</ele>
        <time>2020-08-19T16:33:43.000Z</time>
      </trkpt>
      <trkpt lat="48.62035" lon="7.13068">
        <ele>392.62</ele>
        <time>2020-08-19T16:33:48.000Z</time>
      </trkpt>
      <trkpt lat="48.6203" lon="7.1307">
        <ele>393.47</ele>
        <time>2020-08-19T16:33:51.000Z</time>
      </trkpt>
      <trkpt lat="48.62026" lon="7.13069">
        <ele>397.02</ele>
        <time>2020-08-19T16:33:55.000Z</time>
      </trkpt>
      <trkpt lat="48.62021" lon="7.13073">
        <ele>394.47</ele>
        <time>2020-08-19T16:33:59.000Z</time>
      </trkpt>
      <trkpt lat="48.62015" lon="7.13074">
        <ele>394.13</ele>
        <time>2020-08-19T16:34:03.000Z</time>
      </trkpt>
      <trkpt lat="48.6201" lon="7.13073">
        <ele>394.05</ele>
        <time>2020-08-19T16:34:06.000Z</time>
      </trkpt>
      <trkpt lat="48.62005" lon="7.13073">
        <ele>397.18</ele>
        <time>2020-08-19T16:34:10.000Z</time>
      </trkpt>
      <trkpt lat="48.62" lon="7.13074">
        <ele>400.1</ele>
        <time>2020-08-19T16:34:14.000Z</time>
      </trkpt>
      <trkpt lat="48.61995" lon="7.13077">
        <ele>424.73</ele>
        <time>2020-08-19T16:34:20.000Z</time>
      </trkpt>
      <trkpt lat="48.6199" lon="7.13078">
        <ele>414.55</ele>
        <time>2020-08-19T16:34:24.000Z</time>
      </trkpt>
      <trkpt lat="48.61985" lon="7.13081">
        <ele>411.26</ele>
        <time>2020-08-19T16:34:30.000Z</time>
      </trkpt>
      <trkpt lat="48.61981" lon="7.13085">
        <ele>406.44</ele>
        <time>2020-08-19T16:34:33.000Z</time>
      </trkpt>
      <trkpt lat="48.61976" lon="7.13089">
        <ele>403.97</ele>
        <time>2020-08-19T16:34:36.000Z</time>
      </trkpt>
      <trkpt lat="48.61972" lon="7.13088">
        <ele>403.22</ele>
        <time>2020-08-19T16:34:42.000Z</time>
      </trkpt>
      <trkpt lat="48.61966" lon="7.13086">
        <ele>407.95</ele>
        <time>2020-08-19T16:34:46.000Z</time>
      </trkpt>
      <trkpt lat="48.61961" lon="7.13087">
        <ele>407.03</ele>
        <time>2020-08-19T16:34:50.000Z</time>
      </trkpt>
      <trkpt lat="48.61955" lon="7.13088">
        <ele>406.54</ele>
        <time>2020-08-19T16:34:58.000Z</time>
      </trkpt>
      <trkpt lat="48.6195" lon="7.13091">
        <ele>406.85</ele>
        <time>2020-08-19T16:35:02.000Z</time>
      </trkpt>
      <trkpt lat="48.61945" lon="7.13094">
        <ele>409.63</ele>
        <time>2020-08-19T16:35:06.000Z</time>
      </trkpt>
      <trkpt lat="48.6194" lon="7.13092">
        <ele>407.64</ele>
        <time>2020-08-19T16:35:10.000Z</time>
      </trkpt>
      <trkpt lat="48.61935" lon="7.13091">
        <ele>409.66</ele>
        <time>2020-08-19T16:35:14.000Z</time>
      </trkpt>
      <trkpt lat="48.6193" lon="7.13091">
        <ele>411.42</ele>
        <time>2020-08-19T16:35:19.000Z</time>
      </trkpt>
      <trkpt lat="48.61926" lon="7.13091">
        <ele>410.59</ele>
        <time>2020-08-19T16:35:23.000Z</time>
      </trkpt>
      <trkpt lat="48.6192" lon="7.1309">
        <ele>409.6</ele>
        <time>2020-08-19T16:35:29.000Z</time>
      </trkpt>
      <trkpt lat="48.61915" lon="7.13088">
        <ele>409.1</ele>
        <time>2020-08-19T16:35:33.000Z</time>
      </trkpt>
      <trkpt lat="48.61909" lon="7.13088">
        <ele>411.4</ele>
        <time>2020-08-19T16:35:36.000Z</time>
      </trkpt>
      <trkpt lat="48.61904" lon="7.13086">
        <ele>413.02</ele>
        <time>2020-08-19T16:35:40.000Z</time>
      </trkpt>
      <trkpt lat="48.61893" lon="7.13082">
        <ele>418.89</ele>
        <time>2020-08-19T16:35:47.000Z</time>
      </trkpt>
      <trkpt lat="48.61887" lon="7.13085">
        <ele>420.37</ele>
        <time>2020-08-19T16:35:50.000Z</time>
      </trkpt>
      <trkpt lat="48.61883" lon="7.13085">
        <ele>419.71</ele>
        <time>2020-08-19T16:35:54.000Z</time>
      </trkpt>
      <trkpt lat="48.61878" lon="7.13082">
        <ele>419.68</ele>
        <time>2020-08-19T16:35:57.000Z</time>
      </trkpt>
      <trkpt lat="48.61874" lon="7.13078">
        <ele>414.56</ele>
        <time>2020-08-19T16:36:02.000Z</time>
      </trkpt>
      <trkpt lat="48.61869" lon="7.13076">
        <ele>415.85</ele>
        <time>2020-08-19T16:36:05.000Z</time>
      </trkpt>
      <trkpt lat="48.61864" lon="7.13077">
        <ele>416.77</ele>
        <time>2020-08-19T16:36:08.000Z</time>
      </trkpt>
      <trkpt lat="48.61859" lon="7.13074">
        <ele>417.29</ele>
        <time>2020-08-19T16:36:11.000Z</time>
      </trkpt>
      <trkpt lat="48.61854" lon="7.13073">
        <ele>416.48</ele>
        <time>2020-08-19T16:36:16.000Z</time>
      </trkpt>
      <trkpt lat="48.61849" lon="7.13076">
        <ele>415.89</ele>
        <time>2020-08-19T16:36:19.000Z</time>
      </trkpt>
      <trkpt lat="48.61845" lon="7.13079">
        <ele>419.12</ele>
        <time>2020-08-19T16:36:22.000Z</time>
      </trkpt>
      <trkpt lat="48.6184" lon="7.13079">
        <ele>420.76</ele>
        <time>2020-08-19T16:36:26.000Z</time>
      </trkpt>
      <trkpt lat="48.61837" lon="7.13084">
        <ele>419.6</ele>
        <time>2020-08-19T16:36:35.000Z</time>
      </trkpt>
      <trkpt lat="48.61832" lon="7.13088">
        <ele>421.56</ele>
        <time>2020-08-19T16:36:39.000Z</time>
      </trkpt>
      <trkpt lat="48.61828" lon="7.13091">
        <ele>425.9</ele>
        <time>2020-08-19T16:36:43.000Z</time>
      </trkpt>
      <trkpt lat="48.61818" lon="7.13101">
        <ele>422.56</ele>
        <time>2020-08-19T16:36:53.000Z</time>
      </trkpt>
      <trkpt lat="48.61813" lon="7.13104">
        <ele>421.61</ele>
        <time>2020-08-19T16:36:56.000Z</time>
      </trkpt>
      <trkpt lat="48.6181" lon="7.13111">
        <ele>420.39</ele>
        <time>2020-08-19T16:36:59.000Z</time>
      </trkpt>
      <trkpt lat="48.61806" lon="7.13115">
        <ele>423.15</ele>
        <time>2020-08-19T16:37:03.000Z</time>
      </trkpt>
      <trkpt lat="48.61802" lon="7.13121">
        <ele>423.02</ele>
        <time>2020-08-19T16:37:07.000Z</time>
      </trkpt>
      <trkpt lat="48.61797" lon="7.13125">
        <ele>424.77</ele>
        <time>2020-08-19T16:37:11.000Z</time>
      </trkpt>
      <trkpt lat="48.61793" lon="7.13129">
        <ele>423.33</ele>
        <time>2020-08-19T16:37:16.000Z</time>
      </trkpt>
      <trkpt lat="48.6179" lon="7.13133">
        <ele>426.87</ele>
        <time>2020-08-19T16:37:21.000Z</time>
      </trkpt>
      <trkpt lat="48.61786" lon="7.13139">
        <ele>428.62</ele>
        <time>2020-08-19T16:37:25.000Z</time>
      </trkpt>
      <trkpt lat="48.61781" lon="7.13143">
        <ele>430.17</ele>
        <time>2020-08-19T16:37:29.000Z</time>
      </trkpt>
      <trkpt lat="48.61777" lon="7.13147">
        <ele>432.58</ele>
        <time>2020-08-19T16:37:37.000Z</time>
      </trkpt>
      <trkpt lat="48.61773" lon="7.1315">
        <ele>433.33</ele>
        <time>2020-08-19T16:37:46.000Z</time>
      </trkpt>
      <trkpt lat="48.61769" lon="7.13155">
        <ele>434.16</ele>
        <time>2020-08-19T16:37:50.000Z</time>
      </trkpt>
      <trkpt lat="48.61764" lon="7.13156">
        <ele>434.46</ele>
        <time>2020-08-19T16:37:55.000Z</time>
      </trkpt>
      <trkpt lat="48.61759" lon="7.13159">
        <ele>432.76</ele>
        <time>2020-08-19T16:37:58.000Z</time>
      </trkpt>
      <trkpt lat="48.61755" lon="7.13163">
        <ele>434.18</ele>
        <time>2020-08-19T16:38:05.000Z</time>
      </trkpt>
      <trkpt lat="48.6175" lon="7.13166">
        <ele>434.92</ele>
        <time>2020-08-19T16:38:11.000Z</time>
      </trkpt>
      <trkpt lat="48.61747" lon="7.13172">
        <ele>432.32</ele>
        <time>2020-08-19T16:38:16.000Z</time>
      </trkpt>
      <trkpt lat="48.61742" lon="7.13176">
        <ele>434</ele>
        <time>2020-08-19T16:38:19.000Z</time>
      </trkpt>
      <trkpt lat="48.6174" lon="7.13181">
        <ele>432.9</ele>
        <time>2020-08-19T16:38:22.000Z</time>
      </trkpt>
      <trkpt lat="48.61735" lon="7.13184">
        <ele>433.87</ele>
        <time>2020-08-19T16:38:26.000Z</time>
      </trkpt>
      <trkpt lat="48.61731" lon="7.13185">
        <ele>435.56</ele>
        <time>2020-08-19T16:38:30.000Z</time>
      </trkpt>
      <trkpt lat="48.61725" lon="7.13188">
        <ele>436.59</ele>
        <time>2020-08-19T16:38:34.000Z</time>
      </trkpt>
      <trkpt lat="48.61721" lon="7.1319">
        <ele>435.73</ele>
        <time>2020-08-19T16:38:37.000Z</time>
      </trkpt>
      <trkpt lat="48.61717" lon="7.13195">
        <ele>438.69</ele>
        <time>2020-08-19T16:38:42.000Z</time>
      </trkpt>
      <trkpt lat="48.61712" lon="7.132">
        <ele>437.07</ele>
        <time>2020-08-19T16:38:45.000Z</time>
      </trkpt>
      <trkpt lat="48.61709" lon="7.13204">
        <ele>441.8</ele>
        <time>2020-08-19T16:38:49.000Z</time>
      </trkpt>
      <trkpt lat="48.61704" lon="7.1321">
        <ele>438.49</ele>
        <time>2020-08-19T16:38:53.000Z</time>
      </trkpt>
      <trkpt lat="48.61699" lon="7.13214">
        <ele>437.63</ele>
        <time>2020-08-19T16:38:57.000Z</time>
      </trkpt>
      <trkpt lat="48.61696" lon="7.13218">
        <ele>435.54</ele>
        <time>2020-08-19T16:39:02.000Z</time>
      </trkpt>
      <trkpt lat="48.61691" lon="7.13221">
        <ele>437.98</ele>
        <time>2020-08-19T16:39:06.000Z</time>
      </trkpt>
      <trkpt lat="48.61686" lon="7.13223">
        <ele>440.77</ele>
        <time>2020-08-19T16:39:12.000Z</time>
      </trkpt>
      <trkpt lat="48.61681" lon="7.13227">
        <ele>439.27</ele>
        <time>2020-08-19T16:39:16.000Z</time>
      </trkpt>
      <trkpt lat="48.61675" lon="7.13231">
        <ele>440.64</ele>
        <time>2020-08-19T16:39:20.000Z</time>
      </trkpt>
      <trkpt lat="48.6167" lon="7.13232">
        <ele>441.55</ele>
        <time>2020-08-19T16:39:23.000Z</time>
      </trkpt>
      <trkpt lat="48.61652" lon="7.13234">
        <ele>441.24</ele>
        <time>2020-08-19T16:39:40.000Z</time>
      </trkpt>
      <trkpt lat="48.6163" lon="7.13233">
        <ele>445.53</ele>
        <time>2020-08-19T16:39:51.000Z</time>
      </trkpt>
      <trkpt lat="48.61624" lon="7.13234">
        <ele>445</ele>
        <time>2020-08-19T16:39:53.000Z</time>
      </trkpt>
      <trkpt lat="48.61618" lon="7.13236">
        <ele>445.09</ele>
        <time>2020-08-19T16:39:55.000Z</time>
      </trkpt>
      <trkpt lat="48.61612" lon="7.13236">
        <ele>445.43</ele>
        <time>2020-08-19T16:39:57.000Z</time>
      </trkpt>
      <trkpt lat="48.61604" lon="7.13235">
        <ele>448.62</ele>
        <time>2020-08-19T16:39:59.000Z</time>
      </trkpt>
      <trkpt lat="48.61599" lon="7.13235">
        <ele>446.51</ele>
        <time>2020-08-19T16:40:01.000Z</time>
      </trkpt>
      <trkpt lat="48.61594" lon="7.13235">
        <ele>444.99</ele>
        <time>2020-08-19T16:40:03.000Z</time>
      </trkpt>
      <trkpt lat="48.61588" lon="7.13236">
        <ele>445.73</ele>
        <time>2020-08-19T16:40:05.000Z</time>
      </trkpt>
      <trkpt lat="48.61581" lon="7.13238">
        <ele>442.78</ele>
        <time>2020-08-19T16:40:07.000Z</time>
      </trkpt>
      <trkpt lat="48.61576" lon="7.13239">
        <ele>444.04</ele>
        <time>2020-08-19T16:40:09.000Z</time>
      </trkpt>
      <trkpt lat="48.61571" lon="7.13241">
        <ele>445.54</ele>
        <time>2020-08-19T16:40:11.000Z</time>
      </trkpt>
      <trkpt lat="48.61567" lon="7.13242">
        <ele>444.49</ele>
        <time>2020-08-19T16:40:14.000Z</time>
      </trkpt>
      <trkpt lat="48.61561" lon="7.13245">
        <ele>445.74</ele>
        <time>2020-08-19T16:40:18.000Z</time>
      </trkpt>
      <trkpt lat="48.61558" lon="7.13249">
        <ele>446.81</ele>
        <time>2020-08-19T16:40:20.000Z</time>
      </trkpt>
      <trkpt lat="48.61553" lon="7.13253">
        <ele>447.74</ele>
        <time>2020-08-19T16:40:22.000Z</time>
      </trkpt>
      <trkpt lat="48.61549" lon="7.13258">
        <ele>448.51</ele>
        <time>2020-08-19T16:40:24.000Z</time>
      </trkpt>
      <trkpt lat="48.61545" lon="7.13262">
        <ele>449.79</ele>
        <time>2020-08-19T16:40:26.000Z</time>
      </trkpt>
      <trkpt lat="48.6154" lon="7.13265">
        <ele>448.35</ele>
        <time>2020-08-19T16:40:28.000Z</time>
      </trkpt>
      <trkpt lat="48.61522" lon="7.13283">
        <ele>449.59</ele>
        <time>2020-08-19T16:40:34.000Z</time>
      </trkpt>
      <trkpt lat="48.61517" lon="7.13287">
        <ele>449.13</ele>
        <time>2020-08-19T16:40:36.000Z</time>
      </trkpt>
      <trkpt lat="48.61511" lon="7.13292">
        <ele>450.69</ele>
        <time>2020-08-19T16:40:38.000Z</time>
      </trkpt>
      <trkpt lat="48.61507" lon="7.13297">
        <ele>448.61</ele>
        <time>2020-08-19T16:40:40.000Z</time>
      </trkpt>
      <trkpt lat="48.61504" lon="7.13303">
        <ele>449.12</ele>
        <time>2020-08-19T16:40:43.000Z</time>
      </trkpt>
      <trkpt lat="48.61504" lon="7.13311">
        <ele>448.25</ele>
        <time>2020-08-19T16:40:46.000Z</time>
      </trkpt>
      <trkpt lat="48.61501" lon="7.13318">
        <ele>447.41</ele>
        <time>2020-08-19T16:40:48.000Z</time>
      </trkpt>
      <trkpt lat="48.615" lon="7.13329">
        <ele>445.48</ele>
        <time>2020-08-19T16:40:51.000Z</time>
      </trkpt>
      <trkpt lat="48.61498" lon="7.13343">
        <ele>446.37</ele>
        <time>2020-08-19T16:40:53.000Z</time>
      </trkpt>
      <trkpt lat="48.61498" lon="7.1335">
        <ele>447.13</ele>
        <time>2020-08-19T16:40:54.000Z</time>
      </trkpt>
      <trkpt lat="48.61497" lon="7.13361">
        <ele>448.74</ele>
        <time>2020-08-19T16:40:56.000Z</time>
      </trkpt>
      <trkpt lat="48.61495" lon="7.13373">
        <ele>449.62</ele>
        <time>2020-08-19T16:40:58.000Z</time>
      </trkpt>
      <trkpt lat="48.61495" lon="7.13386">
        <ele>463.99</ele>
        <time>2020-08-19T16:41:00.000Z</time>
      </trkpt>
      <trkpt lat="48.61494" lon="7.13398">
        <ele>461.81</ele>
        <time>2020-08-19T16:41:02.000Z</time>
      </trkpt>
      <trkpt lat="48.61493" lon="7.13406">
        <ele>460.22</ele>
        <time>2020-08-19T16:41:04.000Z</time>
      </trkpt>
      <trkpt lat="48.61492" lon="7.13413">
        <ele>451.43</ele>
        <time>2020-08-19T16:41:06.000Z</time>
      </trkpt>
      <trkpt lat="48.61488" lon="7.1342">
        <ele>452.32</ele>
        <time>2020-08-19T16:41:08.000Z</time>
      </trkpt>
      <trkpt lat="48.61483" lon="7.13425">
        <ele>453.41</ele>
        <time>2020-08-19T16:41:10.000Z</time>
      </trkpt>
      <trkpt lat="48.61479" lon="7.13428">
        <ele>453.53</ele>
        <time>2020-08-19T16:41:12.000Z</time>
      </trkpt>
      <trkpt lat="48.61474" lon="7.13427">
        <ele>453.97</ele>
        <time>2020-08-19T16:41:14.000Z</time>
      </trkpt>
      <trkpt lat="48.6147" lon="7.13425">
        <ele>454.4</ele>
        <time>2020-08-19T16:41:16.000Z</time>
      </trkpt>
      <trkpt lat="48.61463" lon="7.13425">
        <ele>562.89</ele>
        <time>2020-08-19T16:41:18.000Z</time>
      </trkpt>
      <trkpt lat="48.61457" lon="7.13425">
        <ele>535.94</ele>
        <time>2020-08-19T16:41:20.000Z</time>
      </trkpt>
      <trkpt lat="48.6145" lon="7.13425">
        <ele>515.11</ele>
        <time>2020-08-19T16:41:22.000Z</time>
      </trkpt>
      <trkpt lat="48.61443" lon="7.13427">
        <ele>489.05</ele>
        <time>2020-08-19T16:41:24.000Z</time>
      </trkpt>
      <trkpt lat="48.61437" lon="7.13428">
        <ele>529.22</ele>
        <time>2020-08-19T16:41:26.000Z</time>
      </trkpt>
      <trkpt lat="48.61412" lon="7.13438">
        <ele>489.77</ele>
        <time>2020-08-19T16:41:32.000Z</time>
      </trkpt>
      <trkpt lat="48.6139" lon="7.13433">
        <ele>461.38</ele>
        <time>2020-08-19T16:41:38.000Z</time>
      </trkpt>
      <trkpt lat="48.61383" lon="7.13435">
        <ele>463.49</ele>
        <time>2020-08-19T16:41:40.000Z</time>
      </trkpt>
      <trkpt lat="48.61379" lon="7.13439">
        <ele>464.85</ele>
        <time>2020-08-19T16:41:42.000Z</time>
      </trkpt>
      <trkpt lat="48.61372" lon="7.13442">
        <ele>465.57</ele>
        <time>2020-08-19T16:41:45.000Z</time>
      </trkpt>
      <trkpt lat="48.61368" lon="7.13445">
        <ele>466.45</ele>
        <time>2020-08-19T16:41:47.000Z</time>
      </trkpt>
      <trkpt lat="48.61364" lon="7.13449">
        <ele>464.43</ele>
        <time>2020-08-19T16:41:49.000Z</time>
      </trkpt>
      <trkpt lat="48.61353" lon="7.13452">
        <ele>460.66</ele>
        <time>2020-08-19T16:41:53.000Z</time>
      </trkpt>
      <trkpt lat="48.61349" lon="7.13459">
        <ele>460.97</ele>
        <time>2020-08-19T16:41:55.000Z</time>
      </trkpt>
      <trkpt lat="48.61344" lon="7.13464">
        <ele>462.95</ele>
        <time>2020-08-19T16:41:57.000Z</time>
      </trkpt>
      <trkpt lat="48.6134" lon="7.1347">
        <ele>463.95</ele>
        <time>2020-08-19T16:41:59.000Z</time>
      </trkpt>
      <trkpt lat="48.61337" lon="7.13477">
        <ele>464.85</ele>
        <time>2020-08-19T16:42:13.000Z</time>
      </trkpt>
      <trkpt lat="48.61334" lon="7.13483">
        <ele>464.01</ele>
        <time>2020-08-19T16:42:18.000Z</time>
      </trkpt>
      <trkpt lat="48.61335" lon="7.1349">
        <ele>466.69</ele>
        <time>2020-08-19T16:42:24.000Z</time>
      </trkpt>
      <trkpt lat="48.61334" lon="7.13498">
        <ele>464.54</ele>
        <time>2020-08-19T16:42:32.000Z</time>
      </trkpt>
      <trkpt lat="48.61332" lon="7.13507">
        <ele>465</ele>
        <time>2020-08-19T16:42:35.000Z</time>
      </trkpt>
      <trkpt lat="48.61329" lon="7.13515">
        <ele>465.27</ele>
        <time>2020-08-19T16:42:38.000Z</time>
      </trkpt>
      <trkpt lat="48.61325" lon="7.13523">
        <ele>466.12</ele>
        <time>2020-08-19T16:42:40.000Z</time>
      </trkpt>
      <trkpt lat="48.61321" lon="7.13528">
        <ele>466.6</ele>
        <time>2020-08-19T16:42:42.000Z</time>
      </trkpt>
      <trkpt lat="48.61318" lon="7.13534">
        <ele>467.06</ele>
        <time>2020-08-19T16:42:44.000Z</time>
      </trkpt>
      <trkpt lat="48.61315" lon="7.13542">
        <ele>465.7</ele>
        <time>2020-08-19T16:42:47.000Z</time>
      </trkpt>
      <trkpt lat="48.61315" lon="7.13549">
        <ele>467.22</ele>
        <time>2020-08-19T16:42:50.000Z</time>
      </trkpt>
      <trkpt lat="48.61312" lon="7.13557">
        <ele>469.21</ele>
        <time>2020-08-19T16:42:53.000Z</time>
      </trkpt>
      <trkpt lat="48.6131" lon="7.13565">
        <ele>469.5</ele>
        <time>2020-08-19T16:42:56.000Z</time>
      </trkpt>
      <trkpt lat="48.61308" lon="7.13572">
        <ele>469.86</ele>
        <time>2020-08-19T16:42:59.000Z</time>
      </trkpt>
      <trkpt lat="48.61308" lon="7.1358">
        <ele>470.02</ele>
        <time>2020-08-19T16:43:02.000Z</time>
      </trkpt>
      <trkpt lat="48.61306" lon="7.13587">
        <ele>473.21</ele>
        <time>2020-08-19T16:43:06.000Z</time>
      </trkpt>
      <trkpt lat="48.61302" lon="7.13596">
        <ele>474.69</ele>
        <time>2020-08-19T16:43:09.000Z</time>
      </trkpt>
      <trkpt lat="48.613" lon="7.13605">
        <ele>475.6</ele>
        <time>2020-08-19T16:43:12.000Z</time>
      </trkpt>
      <trkpt lat="48.61299" lon="7.13613">
        <ele>476.14</ele>
        <time>2020-08-19T16:43:15.000Z</time>
      </trkpt>
      <trkpt lat="48.61296" lon="7.13619">
        <ele>537.68</ele>
        <time>2020-08-19T16:43:19.000Z</time>
      </trkpt>
      <trkpt lat="48.61291" lon="7.13624">
        <ele>518.08</ele>
        <time>2020-08-19T16:43:22.000Z</time>
      </trkpt>
      <trkpt lat="48.61277" lon="7.13621">
        <ele>498.57</ele>
        <time>2020-08-19T16:43:27.000Z</time>
      </trkpt>
      <trkpt lat="48.61272" lon="7.13621">
        <ele>494.24</ele>
        <time>2020-08-19T16:43:29.000Z</time>
      </trkpt>
      <trkpt lat="48.61266" lon="7.13617">
        <ele>542.16</ele>
        <time>2020-08-19T16:43:50.000Z</time>
      </trkpt>
      <trkpt lat="48.6126" lon="7.13615">
        <ele>522.36</ele>
        <time>2020-08-19T16:43:52.000Z</time>
      </trkpt>
      <trkpt lat="48.61257" lon="7.1361">
        <ele>513.53</ele>
        <time>2020-08-19T16:43:54.000Z</time>
      </trkpt>
      <trkpt lat="48.61236" lon="7.13597">
        <ele>484.37</ele>
        <time>2020-08-19T16:44:01.000Z</time>
      </trkpt>
      <trkpt lat="48.6123" lon="7.13592">
        <ele>487.39</ele>
        <time>2020-08-19T16:44:03.000Z</time>
      </trkpt>
      <trkpt lat="48.61224" lon="7.13589">
        <ele>485.17</ele>
        <time>2020-08-19T16:44:05.000Z</time>
      </trkpt>
      <trkpt lat="48.61219" lon="7.13588">
        <ele>486.27</ele>
        <time>2020-08-19T16:44:07.000Z</time>
      </trkpt>
      <trkpt lat="48.61214" lon="7.13585">
        <ele>486.47</ele>
        <time>2020-08-19T16:44:10.000Z</time>
      </trkpt>
      <trkpt lat="48.6121" lon="7.13579">
        <ele>487.21</ele>
        <time>2020-08-19T16:44:12.000Z</time>
      </trkpt>
      <trkpt lat="48.61205" lon="7.13574">
        <ele>488.31</ele>
        <time>2020-08-19T16:44:15.000Z</time>
      </trkpt>
      <trkpt lat="48.61199" lon="7.13574">
        <ele>489.2</ele>
        <time>2020-08-19T16:44:17.000Z</time>
      </trkpt>
      <trkpt lat="48.61172" lon="7.13568">
        <ele>484.9</ele>
        <time>2020-08-19T16:44:24.000Z</time>
      </trkpt>
      <trkpt lat="48.61166" lon="7.1357">
        <ele>483.17</ele>
        <time>2020-08-19T16:44:26.000Z</time>
      </trkpt>
      <trkpt lat="48.61153" lon="7.13578">
        <ele>476.92</ele>
        <time>2020-08-19T16:44:33.000Z</time>
      </trkpt>
      <trkpt lat="48.61147" lon="7.1358">
        <ele>507.9</ele>
        <time>2020-08-19T16:44:36.000Z</time>
      </trkpt>
      <trkpt lat="48.61142" lon="7.13585">
        <ele>489.49</ele>
        <time>2020-08-19T16:44:39.000Z</time>
      </trkpt>
      <trkpt lat="48.61139" lon="7.13589">
        <ele>485.5</ele>
        <time>2020-08-19T16:44:41.000Z</time>
      </trkpt>
      <trkpt lat="48.61135" lon="7.13596">
        <ele>483.31</ele>
        <time>2020-08-19T16:44:43.000Z</time>
      </trkpt>
      <trkpt lat="48.61132" lon="7.13602">
        <ele>480.99</ele>
        <time>2020-08-19T16:44:45.000Z</time>
      </trkpt>
      <trkpt lat="48.61128" lon="7.13608">
        <ele>479.44</ele>
        <time>2020-08-19T16:44:48.000Z</time>
      </trkpt>
      <trkpt lat="48.61127" lon="7.13616">
        <ele>478.29</ele>
        <time>2020-08-19T16:44:50.000Z</time>
      </trkpt>
      <trkpt lat="48.61125" lon="7.13626">
        <ele>479.44</ele>
        <time>2020-08-19T16:44:52.000Z</time>
      </trkpt>
      <trkpt lat="48.61123" lon="7.13636">
        <ele>478.83</ele>
        <time>2020-08-19T16:44:54.000Z</time>
      </trkpt>
      <trkpt lat="48.6112" lon="7.13644">
        <ele>479.31</ele>
        <time>2020-08-19T16:44:56.000Z</time>
      </trkpt>
      <trkpt lat="48.61117" lon="7.13652">
        <ele>479.44</ele>
        <time>2020-08-19T16:44:58.000Z</time>
      </trkpt>
      <trkpt lat="48.61116" lon="7.13659">
        <ele>481.63</ele>
        <time>2020-08-19T16:45:00.000Z</time>
      </trkpt>
      <trkpt lat="48.61114" lon="7.13665">
        <ele>482.56</ele>
        <time>2020-08-19T16:45:02.000Z</time>
      </trkpt>
      <trkpt lat="48.61112" lon="7.13675">
        <ele>483.37</ele>
        <time>2020-08-19T16:45:05.000Z</time>
      </trkpt>
      <trkpt lat="48.61111" lon="7.13681">
        <ele>484.95</ele>
        <time>2020-08-19T16:45:08.000Z</time>
      </trkpt>
      <trkpt lat="48.6111" lon="7.13688">
        <ele>485.7</ele>
        <time>2020-08-19T16:45:10.000Z</time>
      </trkpt>
      <trkpt lat="48.61108" lon="7.13698">
        <ele>483.71</ele>
        <time>2020-08-19T16:45:12.000Z</time>
      </trkpt>
      <trkpt lat="48.61107" lon="7.13706">
        <ele>481.72</ele>
        <time>2020-08-19T16:45:14.000Z</time>
      </trkpt>
      <trkpt lat="48.61107" lon="7.13715">
        <ele>482.02</ele>
        <time>2020-08-19T16:45:16.000Z</time>
      </trkpt>
      <trkpt lat="48.61108" lon="7.13724">
        <ele>519.79</ele>
        <time>2020-08-19T16:45:18.000Z</time>
      </trkpt>
      <trkpt lat="48.61107" lon="7.13734">
        <ele>507.35</ele>
        <time>2020-08-19T16:45:20.000Z</time>
      </trkpt>
      <trkpt lat="48.61106" lon="7.13742">
        <ele>499.3</ele>
        <time>2020-08-19T16:45:22.000Z</time>
      </trkpt>
      <trkpt lat="48.61103" lon="7.13752">
        <ele>496.32</ele>
        <time>2020-08-19T16:45:24.000Z</time>
      </trkpt>
      <trkpt lat="48.61101" lon="7.13761">
        <ele>494.64</ele>
        <time>2020-08-19T16:45:26.000Z</time>
      </trkpt>
      <trkpt lat="48.61099" lon="7.13767">
        <ele>491.66</ele>
        <time>2020-08-19T16:45:28.000Z</time>
      </trkpt>
      <trkpt lat="48.61094" lon="7.13775">
        <ele>491.85</ele>
        <time>2020-08-19T16:45:30.000Z</time>
      </trkpt>
      <trkpt lat="48.61089" lon="7.13779">
        <ele>493</ele>
        <time>2020-08-19T16:45:32.000Z</time>
      </trkpt>
      <trkpt lat="48.61086" lon="7.13787">
        <ele>493.44</ele>
        <time>2020-08-19T16:45:34.000Z</time>
      </trkpt>
      <trkpt lat="48.61083" lon="7.13794">
        <ele>494.1</ele>
        <time>2020-08-19T16:45:36.000Z</time>
      </trkpt>
      <trkpt lat="48.61081" lon="7.13803">
        <ele>494.49</ele>
        <time>2020-08-19T16:45:38.000Z</time>
      </trkpt>
      <trkpt lat="48.61081" lon="7.13812">
        <ele>495.18</ele>
        <time>2020-08-19T16:45:40.000Z</time>
      </trkpt>
      <trkpt lat="48.6108" lon="7.13822">
        <ele>523.3</ele>
        <time>2020-08-19T16:45:42.000Z</time>
      </trkpt>
      <trkpt lat="48.61078" lon="7.1383">
        <ele>533.84</ele>
        <time>2020-08-19T16:45:44.000Z</time>
      </trkpt>
      <trkpt lat="48.61075" lon="7.13838">
        <ele>517.37</ele>
        <time>2020-08-19T16:45:46.000Z</time>
      </trkpt>
      <trkpt lat="48.61073" lon="7.13844">
        <ele>511.82</ele>
        <time>2020-08-19T16:45:48.000Z</time>
      </trkpt>
      <trkpt lat="48.61074" lon="7.13854">
        <ele>508.79</ele>
        <time>2020-08-19T16:45:50.000Z</time>
      </trkpt>
      <trkpt lat="48.61075" lon="7.13862">
        <ele>506.86</ele>
        <time>2020-08-19T16:45:52.000Z</time>
      </trkpt>
      <trkpt lat="48.61076" lon="7.13872">
        <ele>507.89</ele>
        <time>2020-08-19T16:45:54.000Z</time>
      </trkpt>
      <trkpt lat="48.61076" lon="7.13879">
        <ele>506.28</ele>
        <time>2020-08-19T16:45:56.000Z</time>
      </trkpt>
      <trkpt lat="48.61075" lon="7.13886">
        <ele>502.3</ele>
        <time>2020-08-19T16:45:58.000Z</time>
      </trkpt>
      <trkpt lat="48.6107" lon="7.13892">
        <ele>501.04</ele>
        <time>2020-08-19T16:46:00.000Z</time>
      </trkpt>
      <trkpt lat="48.61065" lon="7.13899">
        <ele>497.77</ele>
        <time>2020-08-19T16:46:02.000Z</time>
      </trkpt>
      <trkpt lat="48.61058" lon="7.13903">
        <ele>495.1</ele>
        <time>2020-08-19T16:46:04.000Z</time>
      </trkpt>
      <trkpt lat="48.61052" lon="7.13905">
        <ele>496.81</ele>
        <time>2020-08-19T16:46:06.000Z</time>
      </trkpt>
      <trkpt lat="48.61044" lon="7.13904">
        <ele>496.25</ele>
        <time>2020-08-19T16:46:08.000Z</time>
      </trkpt>
      <trkpt lat="48.61037" lon="7.13904">
        <ele>495.62</ele>
        <time>2020-08-19T16:46:10.000Z</time>
      </trkpt>
      <trkpt lat="48.61029" lon="7.139">
        <ele>497.25</ele>
        <time>2020-08-19T16:46:12.000Z</time>
      </trkpt>
      <trkpt lat="48.61024" lon="7.13897">
        <ele>496.71</ele>
        <time>2020-08-19T16:46:14.000Z</time>
      </trkpt>
      <trkpt lat="48.61019" lon="7.13894">
        <ele>497.16</ele>
        <time>2020-08-19T16:46:16.000Z</time>
      </trkpt>
      <trkpt lat="48.61014" lon="7.13891">
        <ele>498.71</ele>
        <time>2020-08-19T16:46:18.000Z</time>
      </trkpt>
      <trkpt lat="48.6101" lon="7.13887">
        <ele>500.03</ele>
        <time>2020-08-19T16:46:20.000Z</time>
      </trkpt>
      <trkpt lat="48.61004" lon="7.13883">
        <ele>500.27</ele>
        <time>2020-08-19T16:46:22.000Z</time>
      </trkpt>
      <trkpt lat="48.61" lon="7.13878">
        <ele>501.08</ele>
        <time>2020-08-19T16:46:25.000Z</time>
      </trkpt>
      <trkpt lat="48.60994" lon="7.13872">
        <ele>500.55</ele>
        <time>2020-08-19T16:46:27.000Z</time>
      </trkpt>
      <trkpt lat="48.60988" lon="7.13865">
        <ele>500.99</ele>
        <time>2020-08-19T16:46:29.000Z</time>
      </trkpt>
      <trkpt lat="48.60982" lon="7.13859">
        <ele>499.65</ele>
        <time>2020-08-19T16:46:31.000Z</time>
      </trkpt>
      <trkpt lat="48.60976" lon="7.13854">
        <ele>501.39</ele>
        <time>2020-08-19T16:46:33.000Z</time>
      </trkpt>
      <trkpt lat="48.60969" lon="7.13847">
        <ele>498.37</ele>
        <time>2020-08-19T16:46:35.000Z</time>
      </trkpt>
      <trkpt lat="48.60962" lon="7.13841">
        <ele>497.98</ele>
        <time>2020-08-19T16:46:37.000Z</time>
      </trkpt>
      <trkpt lat="48.60955" lon="7.13834">
        <ele>500.96</ele>
        <time>2020-08-19T16:46:39.000Z</time>
      </trkpt>
      <trkpt lat="48.6095" lon="7.13828">
        <ele>500.54</ele>
        <time>2020-08-19T16:46:41.000Z</time>
      </trkpt>
      <trkpt lat="48.60946" lon="7.13821">
        <ele>499.55</ele>
        <time>2020-08-19T16:46:43.000Z</time>
      </trkpt>
      <trkpt lat="48.60941" lon="7.13813">
        <ele>501.49</ele>
        <time>2020-08-19T16:46:45.000Z</time>
      </trkpt>
      <trkpt lat="48.60938" lon="7.13806">
        <ele>502.91</ele>
        <time>2020-08-19T16:46:47.000Z</time>
      </trkpt>
      <trkpt lat="48.60934" lon="7.13799">
        <ele>503.82</ele>
        <time>2020-08-19T16:46:49.000Z</time>
      </trkpt>
      <trkpt lat="48.60931" lon="7.13793">
        <ele>505.22</ele>
        <time>2020-08-19T16:46:52.000Z</time>
      </trkpt>
      <trkpt lat="48.60927" lon="7.13786">
        <ele>508.52</ele>
        <time>2020-08-19T16:47:13.000Z</time>
      </trkpt>
      <trkpt lat="48.60925" lon="7.13778">
        <ele>507.15</ele>
        <time>2020-08-19T16:47:15.000Z</time>
      </trkpt>
      <trkpt lat="48.60889" lon="7.13732">
        <ele>516.08</ele>
        <time>2020-08-19T16:47:34.000Z</time>
      </trkpt>
      <trkpt lat="48.6089" lon="7.13724">
        <ele>508.55</ele>
        <time>2020-08-19T16:47:43.000Z</time>
      </trkpt>
      <trkpt lat="48.60885" lon="7.13721">
        <ele>536.04</ele>
        <time>2020-08-19T16:47:48.000Z</time>
      </trkpt>
      <trkpt lat="48.6088" lon="7.13721">
        <ele>513.18</ele>
        <time>2020-08-19T16:47:54.000Z</time>
      </trkpt>
      <trkpt lat="48.60875" lon="7.13718">
        <ele>524.58</ele>
        <time>2020-08-19T16:47:59.000Z</time>
      </trkpt>
      <trkpt lat="48.60871" lon="7.13715">
        <ele>520.86</ele>
        <time>2020-08-19T16:48:04.000Z</time>
      </trkpt>
      <trkpt lat="48.60866" lon="7.13711">
        <ele>531.79</ele>
        <time>2020-08-19T16:48:10.000Z</time>
      </trkpt>
      <trkpt lat="48.60862" lon="7.13707">
        <ele>523.3</ele>
        <time>2020-08-19T16:48:17.000Z</time>
      </trkpt>
      <trkpt lat="48.6086" lon="7.137">
        <ele>518.27</ele>
        <time>2020-08-19T16:48:21.000Z</time>
      </trkpt>
      <trkpt lat="48.60855" lon="7.13697">
        <ele>522.53</ele>
        <time>2020-08-19T16:48:28.000Z</time>
      </trkpt>
      <trkpt lat="48.6085" lon="7.13694">
        <ele>524.82</ele>
        <time>2020-08-19T16:48:33.000Z</time>
      </trkpt>
      <trkpt lat="48.60845" lon="7.13691">
        <ele>533.08</ele>
        <time>2020-08-19T16:48:38.000Z</time>
      </trkpt>
      <trkpt lat="48.60841" lon="7.13686">
        <ele>523.78</ele>
        <time>2020-08-19T16:48:51.000Z</time>
      </trkpt>
      <trkpt lat="48.60837" lon="7.13684">
        <ele>523.69</ele>
        <time>2020-08-19T16:48:55.000Z</time>
      </trkpt>
      <trkpt lat="48.60831" lon="7.13683">
        <ele>523.26</ele>
        <time>2020-08-19T16:49:00.000Z</time>
      </trkpt>
      <trkpt lat="48.60827" lon="7.13681">
        <ele>527.13</ele>
        <time>2020-08-19T16:49:04.000Z</time>
      </trkpt>
      <trkpt lat="48.60822" lon="7.13678">
        <ele>527.97</ele>
        <time>2020-08-19T16:49:09.000Z</time>
      </trkpt>
      <trkpt lat="48.60818" lon="7.13679">
        <ele>526.97</ele>
        <time>2020-08-19T16:49:16.000Z</time>
      </trkpt>
      <trkpt lat="48.60814" lon="7.13675">
        <ele>529.06</ele>
        <time>2020-08-19T16:49:24.000Z</time>
      </trkpt>
      <trkpt lat="48.6081" lon="7.13671">
        <ele>528.66</ele>
        <time>2020-08-19T16:49:31.000Z</time>
      </trkpt>
      <trkpt lat="48.60805" lon="7.1367">
        <ele>529.81</ele>
        <time>2020-08-19T16:49:35.000Z</time>
      </trkpt>
      <trkpt lat="48.60804" lon="7.13677">
        <ele>530.92</ele>
        <time>2020-08-19T16:49:59.000Z</time>
      </trkpt>
      <trkpt lat="48.60806" lon="7.13683">
        <ele>531.48</ele>
        <time>2020-08-19T16:50:27.000Z</time>
      </trkpt>
      <trkpt lat="48.60807" lon="7.13691">
        <ele>532.28</ele>
        <time>2020-08-19T16:50:33.000Z</time>
      </trkpt>
      <trkpt lat="48.60809" lon="7.13698">
        <ele>533.67</ele>
        <time>2020-08-19T16:50:38.000Z</time>
      </trkpt>
      <trkpt lat="48.60809" lon="7.13706">
        <ele>534.39</ele>
        <time>2020-08-19T16:50:43.000Z</time>
      </trkpt>
      <trkpt lat="48.60813" lon="7.1371">
        <ele>533.25</ele>
        <time>2020-08-19T16:50:51.000Z</time>
      </trkpt>
      <trkpt lat="48.60816" lon="7.13715">
        <ele>531.17</ele>
        <time>2020-08-19T16:50:55.000Z</time>
      </trkpt>
      <trkpt lat="48.60815" lon="7.13723">
        <ele>531.68</ele>
        <time>2020-08-19T16:51:00.000Z</time>
      </trkpt>
      <trkpt lat="48.60814" lon="7.1373">
        <ele>533.33</ele>
        <time>2020-08-19T16:51:05.000Z</time>
      </trkpt>
      <trkpt lat="48.60818" lon="7.13736">
        <ele>532.85</ele>
        <time>2020-08-19T16:51:09.000Z</time>
      </trkpt>
      <trkpt lat="48.6082" lon="7.13743">
        <ele>534.92</ele>
        <time>2020-08-19T16:51:14.000Z</time>
      </trkpt>
      <trkpt lat="48.60821" lon="7.13751">
        <ele>535.1</ele>
        <time>2020-08-19T16:51:22.000Z</time>
      </trkpt>
      <trkpt lat="48.60828" lon="7.13775">
        <ele>535.33</ele>
        <time>2020-08-19T16:51:33.000Z</time>
      </trkpt>
      <trkpt lat="48.60827" lon="7.13782">
        <ele>534.96</ele>
        <time>2020-08-19T16:51:40.000Z</time>
      </trkpt>
      <trkpt lat="48.60826" lon="7.1379">
        <ele>536.25</ele>
        <time>2020-08-19T16:51:48.000Z</time>
      </trkpt>
      <trkpt lat="48.60824" lon="7.13798">
        <ele>537.5</ele>
        <time>2020-08-19T16:51:53.000Z</time>
      </trkpt>
      <trkpt lat="48.60825" lon="7.13822">
        <ele>539.4</ele>
        <time>2020-08-19T16:52:03.000Z</time>
      </trkpt>
      <trkpt lat="48.60825" lon="7.13829">
        <ele>539.05</ele>
        <time>2020-08-19T16:52:07.000Z</time>
      </trkpt>
      <trkpt lat="48.60826" lon="7.13836">
        <ele>543.71</ele>
        <time>2020-08-19T16:52:12.000Z</time>
      </trkpt>
      <trkpt lat="48.60828" lon="7.13843">
        <ele>542.34</ele>
        <time>2020-08-19T16:52:15.000Z</time>
      </trkpt>
      <trkpt lat="48.60829" lon="7.1385">
        <ele>544.68</ele>
        <time>2020-08-19T16:52:21.000Z</time>
      </trkpt>
      <trkpt lat="48.60831" lon="7.13857">
        <ele>544.67</ele>
        <time>2020-08-19T16:52:27.000Z</time>
      </trkpt>
      <trkpt lat="48.60832" lon="7.13865">
        <ele>543.15</ele>
        <time>2020-08-19T16:52:31.000Z</time>
      </trkpt>
      <trkpt lat="48.60832" lon="7.13872">
        <ele>544.61</ele>
        <time>2020-08-19T16:52:34.000Z</time>
      </trkpt>
      <trkpt lat="48.60831" lon="7.1388">
        <ele>545.41</ele>
        <time>2020-08-19T16:52:38.000Z</time>
      </trkpt>
      <trkpt lat="48.60834" lon="7.13885">
        <ele>544.14</ele>
        <time>2020-08-19T16:52:42.000Z</time>
      </trkpt>
      <trkpt lat="48.60832" lon="7.13921">
        <ele>542.97</ele>
        <time>2020-08-19T16:53:00.000Z</time>
      </trkpt>
      <trkpt lat="48.60834" lon="7.13928">
        <ele>529.54</ele>
        <time>2020-08-19T16:53:09.000Z</time>
      </trkpt>
      <trkpt lat="48.60837" lon="7.13934">
        <ele>543.15</ele>
        <time>2020-08-19T16:53:15.000Z</time>
      </trkpt>
      <trkpt lat="48.60839" lon="7.13941">
        <ele>547.27</ele>
        <time>2020-08-19T16:53:22.000Z</time>
      </trkpt>
      <trkpt lat="48.60839" lon="7.13949">
        <ele>547.37</ele>
        <time>2020-08-19T16:53:27.000Z</time>
      </trkpt>
      <trkpt lat="48.60838" lon="7.13956">
        <ele>549.29</ele>
        <time>2020-08-19T16:53:30.000Z</time>
      </trkpt>
      <trkpt lat="48.60839" lon="7.13963">
        <ele>549.04</ele>
        <time>2020-08-19T16:53:34.000Z</time>
      </trkpt>
      <trkpt lat="48.6084" lon="7.1397">
        <ele>547.55</ele>
        <time>2020-08-19T16:53:38.000Z</time>
      </trkpt>
      <trkpt lat="48.6084" lon="7.13979">
        <ele>548.35</ele>
        <time>2020-08-19T16:53:42.000Z</time>
      </trkpt>
      <trkpt lat="48.60839" lon="7.13986">
        <ele>550.1</ele>
        <time>2020-08-19T16:53:48.000Z</time>
      </trkpt>
      <trkpt lat="48.60842" lon="7.13993">
        <ele>552.03</ele>
        <time>2020-08-19T16:53:52.000Z</time>
      </trkpt>
      <trkpt lat="48.60844" lon="7.14">
        <ele>553.23</ele>
        <time>2020-08-19T16:53:58.000Z</time>
      </trkpt>
      <trkpt lat="48.60845" lon="7.14009">
        <ele>554.57</ele>
        <time>2020-08-19T16:54:02.000Z</time>
      </trkpt>
      <trkpt lat="48.60843" lon="7.14015">
        <ele>558.17</ele>
        <time>2020-08-19T16:54:06.000Z</time>
      </trkpt>
      <trkpt lat="48.60842" lon="7.14023">
        <ele>558.64</ele>
        <time>2020-08-19T16:54:13.000Z</time>
      </trkpt>
      <trkpt lat="48.60842" lon="7.14031">
        <ele>560.6</ele>
        <time>2020-08-19T16:54:18.000Z</time>
      </trkpt>
      <trkpt lat="48.60839" lon="7.14039">
        <ele>560.96</ele>
        <time>2020-08-19T16:54:23.000Z</time>
      </trkpt>
      <trkpt lat="48.60838" lon="7.14045">
        <ele>556.76</ele>
        <time>2020-08-19T16:54:27.000Z</time>
      </trkpt>
      <trkpt lat="48.60838" lon="7.14054">
        <ele>558.67</ele>
        <time>2020-08-19T16:54:31.000Z</time>
      </trkpt>
      <trkpt lat="48.60838" lon="7.14061">
        <ele>559.17</ele>
        <time>2020-08-19T16:54:35.000Z</time>
      </trkpt>
      <trkpt lat="48.60837" lon="7.14069">
        <ele>558.16</ele>
        <time>2020-08-19T16:54:39.000Z</time>
      </trkpt>
      <trkpt lat="48.60838" lon="7.14077">
        <ele>559.16</ele>
        <time>2020-08-19T16:54:44.000Z</time>
      </trkpt>
      <trkpt lat="48.60838" lon="7.14084">
        <ele>559.37</ele>
        <time>2020-08-19T16:54:49.000Z</time>
      </trkpt>
      <trkpt lat="48.60836" lon="7.14092">
        <ele>552.03</ele>
        <time>2020-08-19T16:54:54.000Z</time>
      </trkpt>
      <trkpt lat="48.60838" lon="7.14099">
        <ele>560.11</ele>
        <time>2020-08-19T16:54:58.000Z</time>
      </trkpt>
      <trkpt lat="48.6084" lon="7.14107">
        <ele>562.68</ele>
        <time>2020-08-19T16:55:02.000Z</time>
      </trkpt>
      <trkpt lat="48.60842" lon="7.14114">
        <ele>566.39</ele>
        <time>2020-08-19T16:55:06.000Z</time>
      </trkpt>
      <trkpt lat="48.60846" lon="7.14121">
        <ele>566.7</ele>
        <time>2020-08-19T16:55:11.000Z</time>
      </trkpt>
      <trkpt lat="48.60848" lon="7.14127">
        <ele>565.55</ele>
        <time>2020-08-19T16:55:15.000Z</time>
      </trkpt>
      <trkpt lat="48.60849" lon="7.14134">
        <ele>565.19</ele>
        <time>2020-08-19T16:55:19.000Z</time>
      </trkpt>
      <trkpt lat="48.60849" lon="7.14143">
        <ele>565.6</ele>
        <time>2020-08-19T16:55:23.000Z</time>
      </trkpt>
      <trkpt lat="48.60852" lon="7.14149">
        <ele>564.66</ele>
        <time>2020-08-19T16:55:27.000Z</time>
      </trkpt>
      <trkpt lat="48.60855" lon="7.14156">
        <ele>566.38</ele>
        <time>2020-08-19T16:55:32.000Z</time>
      </trkpt>
      <trkpt lat="48.60839" lon="7.14178">
        <ele>570.63</ele>
        <time>2020-08-19T16:56:02.000Z</time>
      </trkpt>
      <trkpt lat="48.60834" lon="7.14183">
        <ele>573.42</ele>
        <time>2020-08-19T16:56:05.000Z</time>
      </trkpt>
      <trkpt lat="48.6083" lon="7.14187">
        <ele>573.91</ele>
        <time>2020-08-19T16:56:10.000Z</time>
      </trkpt>
      <trkpt lat="48.60826" lon="7.14191">
        <ele>573.91</ele>
        <time>2020-08-19T16:56:14.000Z</time>
      </trkpt>
      <trkpt lat="48.60821" lon="7.14194">
        <ele>574.89</ele>
        <time>2020-08-19T16:56:23.000Z</time>
      </trkpt>
      <trkpt lat="48.60817" lon="7.14198">
        <ele>572.85</ele>
        <time>2020-08-19T16:56:27.000Z</time>
      </trkpt>
      <trkpt lat="48.60814" lon="7.14204">
        <ele>571.01</ele>
        <time>2020-08-19T16:56:30.000Z</time>
      </trkpt>
      <trkpt lat="48.6081" lon="7.14209">
        <ele>573.96</ele>
        <time>2020-08-19T16:56:34.000Z</time>
      </trkpt>
      <trkpt lat="48.60806" lon="7.14212">
        <ele>576.14</ele>
        <time>2020-08-19T16:56:37.000Z</time>
      </trkpt>
      <trkpt lat="48.60801" lon="7.14213">
        <ele>577.66</ele>
        <time>2020-08-19T16:56:41.000Z</time>
      </trkpt>
      <trkpt lat="48.60797" lon="7.14216">
        <ele>580.2</ele>
        <time>2020-08-19T16:56:44.000Z</time>
      </trkpt>
      <trkpt lat="48.60792" lon="7.1422">
        <ele>582.89</ele>
        <time>2020-08-19T16:56:49.000Z</time>
      </trkpt>
      <trkpt lat="48.60788" lon="7.14224">
        <ele>585.07</ele>
        <time>2020-08-19T16:56:52.000Z</time>
      </trkpt>
      <trkpt lat="48.60784" lon="7.1423">
        <ele>587.6</ele>
        <time>2020-08-19T16:57:00.000Z</time>
      </trkpt>
      <trkpt lat="48.6078" lon="7.14236">
        <ele>587.44</ele>
        <time>2020-08-19T16:57:03.000Z</time>
      </trkpt>
      <trkpt lat="48.60776" lon="7.14241">
        <ele>591.47</ele>
        <time>2020-08-19T16:57:07.000Z</time>
      </trkpt>
      <trkpt lat="48.6074" lon="7.14275">
        <ele>591.52</ele>
        <time>2020-08-19T16:57:24.000Z</time>
      </trkpt>
      <trkpt lat="48.60735" lon="7.1428">
        <ele>589.58</ele>
        <time>2020-08-19T16:57:27.000Z</time>
      </trkpt>
      <trkpt lat="48.6073" lon="7.14285">
        <ele>585.67</ele>
        <time>2020-08-19T16:57:30.000Z</time>
      </trkpt>
      <trkpt lat="48.60726" lon="7.14289">
        <ele>586.06</ele>
        <time>2020-08-19T16:57:33.000Z</time>
      </trkpt>
      <trkpt lat="48.60716" lon="7.14296">
        <ele>586.33</ele>
        <time>2020-08-19T16:57:38.000Z</time>
      </trkpt>
      <trkpt lat="48.60711" lon="7.14297">
        <ele>585.13</ele>
        <time>2020-08-19T16:57:40.000Z</time>
      </trkpt>
      <trkpt lat="48.60706" lon="7.14298">
        <ele>581.41</ele>
        <time>2020-08-19T16:57:42.000Z</time>
      </trkpt>
      <trkpt lat="48.60701" lon="7.14298">
        <ele>581.12</ele>
        <time>2020-08-19T16:57:45.000Z</time>
      </trkpt>
      <trkpt lat="48.60696" lon="7.143">
        <ele>579.83</ele>
        <time>2020-08-19T16:57:48.000Z</time>
      </trkpt>
      <trkpt lat="48.60693" lon="7.14305">
        <ele>581.57</ele>
        <time>2020-08-19T16:57:50.000Z</time>
      </trkpt>
      <trkpt lat="48.60688" lon="7.1431">
        <ele>580.57</ele>
        <time>2020-08-19T16:57:53.000Z</time>
      </trkpt>
      <trkpt lat="48.60683" lon="7.14312">
        <ele>465.19</ele>
        <time>2020-08-19T16:57:55.000Z</time>
      </trkpt>
      <trkpt lat="48.60677" lon="7.14316">
        <ele>520.17</ele>
        <time>2020-08-19T16:57:58.000Z</time>
      </trkpt>
      <trkpt lat="48.60671" lon="7.1432">
        <ele>550.85</ele>
        <time>2020-08-19T16:58:01.000Z</time>
      </trkpt>
      <trkpt lat="48.60666" lon="7.14322">
        <ele>564.12</ele>
        <time>2020-08-19T16:58:03.000Z</time>
      </trkpt>
      <trkpt lat="48.60661" lon="7.14323">
        <ele>572.11</ele>
        <time>2020-08-19T16:58:05.000Z</time>
      </trkpt>
      <trkpt lat="48.60655" lon="7.14326">
        <ele>576.12</ele>
        <time>2020-08-19T16:58:08.000Z</time>
      </trkpt>
      <trkpt lat="48.6065" lon="7.14328">
        <ele>579.51</ele>
        <time>2020-08-19T16:58:10.000Z</time>
      </trkpt>
      <trkpt lat="48.60645" lon="7.14332">
        <ele>581.15</ele>
        <time>2020-08-19T16:58:12.000Z</time>
      </trkpt>
      <trkpt lat="48.60642" lon="7.14339">
        <ele>583.84</ele>
        <time>2020-08-19T16:58:14.000Z</time>
      </trkpt>
      <trkpt lat="48.60638" lon="7.14345">
        <ele>585.48</ele>
        <time>2020-08-19T16:58:17.000Z</time>
      </trkpt>
      <trkpt lat="48.60633" lon="7.14352">
        <ele>584.63</ele>
        <time>2020-08-19T16:58:20.000Z</time>
      </trkpt>
      <trkpt lat="48.60629" lon="7.14358">
        <ele>582.51</ele>
        <time>2020-08-19T16:58:23.000Z</time>
      </trkpt>
      <trkpt lat="48.60625" lon="7.14362">
        <ele>583.91</ele>
        <time>2020-08-19T16:58:25.000Z</time>
      </trkpt>
      <trkpt lat="48.60621" lon="7.14364">
        <ele>584.14</ele>
        <time>2020-08-19T16:58:27.000Z</time>
      </trkpt>
      <trkpt lat="48.60616" lon="7.14363">
        <ele>583.7</ele>
        <time>2020-08-19T16:58:35.000Z</time>
      </trkpt>
      <trkpt lat="48.60612" lon="7.14367">
        <ele>584.54</ele>
        <time>2020-08-19T16:58:49.000Z</time>
      </trkpt>
      <trkpt lat="48.60608" lon="7.14371">
        <ele>583.52</ele>
        <time>2020-08-19T16:58:56.000Z</time>
      </trkpt>
      <trkpt lat="48.60605" lon="7.14379">
        <ele>585.36</ele>
        <time>2020-08-19T16:59:00.000Z</time>
      </trkpt>
      <trkpt lat="48.60602" lon="7.14388">
        <ele>585.84</ele>
        <time>2020-08-19T16:59:03.000Z</time>
      </trkpt>
      <trkpt lat="48.60599" lon="7.14405">
        <ele>586.48</ele>
        <time>2020-08-19T16:59:09.000Z</time>
      </trkpt>
      <trkpt lat="48.60604" lon="7.14405">
        <ele>580.03</ele>
        <time>2020-08-19T16:59:29.000Z</time>
      </trkpt>
      <trkpt lat="48.60627" lon="7.14432">
        <ele>586.6</ele>
        <time>2020-08-19T17:00:16.000Z</time>
      </trkpt>
      <trkpt lat="48.60623" lon="7.14436">
        <ele>582.77</ele>
        <time>2020-08-19T17:00:27.000Z</time>
      </trkpt>
      <trkpt lat="48.60618" lon="7.14439">
        <ele>583.33</ele>
        <time>2020-08-19T17:00:36.000Z</time>
      </trkpt>
      <trkpt lat="48.60615" lon="7.14447">
        <ele>584.79</ele>
        <time>2020-08-19T17:00:48.000Z</time>
      </trkpt>
      <trkpt lat="48.60613" lon="7.14454">
        <ele>579.14</ele>
        <time>2020-08-19T17:00:55.000Z</time>
      </trkpt>
      <trkpt lat="48.60609" lon="7.14456">
        <ele>576.88</ele>
        <time>2020-08-19T17:01:10.000Z</time>
      </trkpt>
      <trkpt lat="48.60599" lon="7.14456">
        <ele>577.38</ele>
        <time>2020-08-19T17:01:23.000Z</time>
      </trkpt>
      <trkpt lat="48.60593" lon="7.14446">
        <ele>568.75</ele>
        <time>2020-08-19T17:01:37.000Z</time>
      </trkpt>
      <trkpt lat="48.6059" lon="7.14451">
        <ele>564.68</ele>
        <time>2020-08-19T17:01:52.000Z</time>
      </trkpt>
      <trkpt lat="48.60586" lon="7.14447">
        <ele>560.83</ele>
        <time>2020-08-19T17:02:07.000Z</time>
      </trkpt>
      <trkpt lat="48.60582" lon="7.1445">
        <ele>564.38</ele>
        <time>2020-08-19T17:02:31.000Z</time>
      </trkpt>
      <trkpt lat="48.60548" lon="7.14599">
        <ele>556.54</ele>
        <time>2020-08-19T17:03:18.000Z</time>
      </trkpt>
      <trkpt lat="48.60545" lon="7.14605">
        <ele>544.31</ele>
        <time>2020-08-19T17:03:20.000Z</time>
      </trkpt>
      <trkpt lat="48.60546" lon="7.14612">
        <ele>533.08</ele>
        <time>2020-08-19T17:03:38.000Z</time>
      </trkpt>
      <trkpt lat="48.60543" lon="7.14619">
        <ele>529.12</ele>
        <time>2020-08-19T17:04:43.000Z</time>
      </trkpt>
      <trkpt lat="48.6054" lon="7.14624">
        <ele>529.57</ele>
        <time>2020-08-19T17:05:22.000Z</time>
      </trkpt>
      <trkpt lat="48.60536" lon="7.14621">
        <ele>528.67</ele>
        <time>2020-08-19T17:06:59.000Z</time>
      </trkpt>
      <trkpt lat="48.60536" lon="7.14629">
        <ele>536.13</ele>
        <time>2020-08-19T17:07:26.000Z</time>
      </trkpt>
      <trkpt lat="48.60532" lon="7.14635">
        <ele>534.99</ele>
        <time>2020-08-19T17:07:34.000Z</time>
      </trkpt>
      <trkpt lat="48.60525" lon="7.14631">
        <ele>531.33</ele>
        <time>2020-08-19T17:07:49.000Z</time>
      </trkpt>
      <trkpt lat="48.6052" lon="7.14634">
        <ele>533</ele>
        <time>2020-08-19T17:07:51.000Z</time>
      </trkpt>
      <trkpt lat="48.60515" lon="7.1464">
        <ele>531.37</ele>
        <time>2020-08-19T17:07:53.000Z</time>
      </trkpt>
      <trkpt lat="48.60512" lon="7.14647">
        <ele>529.85</ele>
        <time>2020-08-19T17:07:56.000Z</time>
      </trkpt>
      <trkpt lat="48.6051" lon="7.14654">
        <ele>532.3</ele>
        <time>2020-08-19T17:08:05.000Z</time>
      </trkpt>
      <trkpt lat="48.60509" lon="7.14662">
        <ele>531.68</ele>
        <time>2020-08-19T17:08:07.000Z</time>
      </trkpt>
      <trkpt lat="48.60508" lon="7.14672">
        <ele>530.16</ele>
        <time>2020-08-19T17:08:09.000Z</time>
      </trkpt>
      <trkpt lat="48.60508" lon="7.14682">
        <ele>528.56</ele>
        <time>2020-08-19T17:08:11.000Z</time>
      </trkpt>
      <trkpt lat="48.60507" lon="7.14693">
        <ele>526.09</ele>
        <time>2020-08-19T17:08:13.000Z</time>
      </trkpt>
      <trkpt lat="48.60505" lon="7.14704">
        <ele>525.82</ele>
        <time>2020-08-19T17:08:15.000Z</time>
      </trkpt>
      <trkpt lat="48.60504" lon="7.14715">
        <ele>525.61</ele>
        <time>2020-08-19T17:08:17.000Z</time>
      </trkpt>
      <trkpt lat="48.60501" lon="7.14727">
        <ele>524.45</ele>
        <time>2020-08-19T17:08:19.000Z</time>
      </trkpt>
      <trkpt lat="48.60497" lon="7.14737">
        <ele>524.19</ele>
        <time>2020-08-19T17:08:21.000Z</time>
      </trkpt>
      <trkpt lat="48.60493" lon="7.14745">
        <ele>523.38</ele>
        <time>2020-08-19T17:08:23.000Z</time>
      </trkpt>
      <trkpt lat="48.60489" lon="7.14751">
        <ele>524.41</ele>
        <time>2020-08-19T17:08:42.000Z</time>
      </trkpt>
      <trkpt lat="48.60485" lon="7.14759">
        <ele>523.82</ele>
        <time>2020-08-19T17:08:45.000Z</time>
      </trkpt>
      <trkpt lat="48.60483" lon="7.14767">
        <ele>523.81</ele>
        <time>2020-08-19T17:08:47.000Z</time>
      </trkpt>
      <trkpt lat="48.60479" lon="7.14776">
        <ele>523.28</ele>
        <time>2020-08-19T17:08:49.000Z</time>
      </trkpt>
      <trkpt lat="48.60476" lon="7.14783">
        <ele>524.65</ele>
        <time>2020-08-19T17:08:51.000Z</time>
      </trkpt>
      <trkpt lat="48.60475" lon="7.14793">
        <ele>524.43</ele>
        <time>2020-08-19T17:08:54.000Z</time>
      </trkpt>
      <trkpt lat="48.60471" lon="7.14801">
        <ele>522.99</ele>
        <time>2020-08-19T17:08:56.000Z</time>
      </trkpt>
      <trkpt lat="48.60466" lon="7.14806">
        <ele>523.59</ele>
        <time>2020-08-19T17:08:58.000Z</time>
      </trkpt>
      <trkpt lat="48.60462" lon="7.14813">
        <ele>521.04</ele>
        <time>2020-08-19T17:09:01.000Z</time>
      </trkpt>
      <trkpt lat="48.60458" lon="7.1482">
        <ele>520.44</ele>
        <time>2020-08-19T17:09:03.000Z</time>
      </trkpt>
      <trkpt lat="48.60455" lon="7.14826">
        <ele>521.05</ele>
        <time>2020-08-19T17:09:05.000Z</time>
      </trkpt>
      <trkpt lat="48.60451" lon="7.14831">
        <ele>521.74</ele>
        <time>2020-08-19T17:09:07.000Z</time>
      </trkpt>
      <trkpt lat="48.60446" lon="7.14836">
        <ele>521.54</ele>
        <time>2020-08-19T17:09:10.000Z</time>
      </trkpt>
      <trkpt lat="48.60442" lon="7.14841">
        <ele>522.94</ele>
        <time>2020-08-19T17:09:13.000Z</time>
      </trkpt>
      <trkpt lat="48.60435" lon="7.14843">
        <ele>521.36</ele>
        <time>2020-08-19T17:09:16.000Z</time>
      </trkpt>
      <trkpt lat="48.6043" lon="7.14848">
        <ele>528.34</ele>
        <time>2020-08-19T17:09:19.000Z</time>
      </trkpt>
      <trkpt lat="48.60427" lon="7.14854">
        <ele>528.11</ele>
        <time>2020-08-19T17:09:21.000Z</time>
      </trkpt>
      <trkpt lat="48.60422" lon="7.14859">
        <ele>530.85</ele>
        <time>2020-08-19T17:09:24.000Z</time>
      </trkpt>
      <trkpt lat="48.60417" lon="7.14861">
        <ele>534.44</ele>
        <time>2020-08-19T17:09:26.000Z</time>
      </trkpt>
      <trkpt lat="48.60413" lon="7.14865">
        <ele>536.94</ele>
        <time>2020-08-19T17:09:29.000Z</time>
      </trkpt>
      <trkpt lat="48.60407" lon="7.1487">
        <ele>539.93</ele>
        <time>2020-08-19T17:09:32.000Z</time>
      </trkpt>
      <trkpt lat="48.60402" lon="7.14877">
        <ele>539.19</ele>
        <time>2020-08-19T17:09:35.000Z</time>
      </trkpt>
      <trkpt lat="48.60398" lon="7.1488">
        <ele>541.47</ele>
        <time>2020-08-19T17:09:37.000Z</time>
      </trkpt>
      <trkpt lat="48.60393" lon="7.14884">
        <ele>542.53</ele>
        <time>2020-08-19T17:09:40.000Z</time>
      </trkpt>
      <trkpt lat="48.60387" lon="7.14887">
        <ele>544.03</ele>
        <time>2020-08-19T17:09:43.000Z</time>
      </trkpt>
      <trkpt lat="48.60382" lon="7.1489">
        <ele>547.85</ele>
        <time>2020-08-19T17:09:46.000Z</time>
      </trkpt>
      <trkpt lat="48.60377" lon="7.14894">
        <ele>546.34</ele>
        <time>2020-08-19T17:09:50.000Z</time>
      </trkpt>
      <trkpt lat="48.60373" lon="7.14898">
        <ele>546.09</ele>
        <time>2020-08-19T17:09:53.000Z</time>
      </trkpt>
      <trkpt lat="48.6037" lon="7.14905">
        <ele>548.17</ele>
        <time>2020-08-19T17:09:56.000Z</time>
      </trkpt>
      <trkpt lat="48.60367" lon="7.14911">
        <ele>545.9</ele>
        <time>2020-08-19T17:10:00.000Z</time>
      </trkpt>
      <trkpt lat="48.60363" lon="7.14917">
        <ele>545.21</ele>
        <time>2020-08-19T17:10:06.000Z</time>
      </trkpt>
      <trkpt lat="48.6036" lon="7.14922">
        <ele>543.77</ele>
        <time>2020-08-19T17:10:09.000Z</time>
      </trkpt>
      <trkpt lat="48.60355" lon="7.14926">
        <ele>544.87</ele>
        <time>2020-08-19T17:10:12.000Z</time>
      </trkpt>
      <trkpt lat="48.6035" lon="7.14931">
        <ele>542.25</ele>
        <time>2020-08-19T17:10:15.000Z</time>
      </trkpt>
      <trkpt lat="48.60347" lon="7.14937">
        <ele>542.58</ele>
        <time>2020-08-19T17:10:19.000Z</time>
      </trkpt>
      <trkpt lat="48.60344" lon="7.14942">
        <ele>543.51</ele>
        <time>2020-08-19T17:10:23.000Z</time>
      </trkpt>
      <trkpt lat="48.60338" lon="7.14944">
        <ele>541.89</ele>
        <time>2020-08-19T17:10:27.000Z</time>
      </trkpt>
      <trkpt lat="48.60333" lon="7.14945">
        <ele>539.25</ele>
        <time>2020-08-19T17:10:30.000Z</time>
      </trkpt>
      <trkpt lat="48.60328" lon="7.14947">
        <ele>539.99</ele>
        <time>2020-08-19T17:10:33.000Z</time>
      </trkpt>
      <trkpt lat="48.60323" lon="7.14949">
        <ele>541.52</ele>
        <time>2020-08-19T17:10:35.000Z</time>
      </trkpt>
      <trkpt lat="48.60318" lon="7.14951">
        <ele>547.25</ele>
        <time>2020-08-19T17:10:38.000Z</time>
      </trkpt>
      <trkpt lat="48.60314" lon="7.14952">
        <ele>549.55</ele>
        <time>2020-08-19T17:10:40.000Z</time>
      </trkpt>
      <trkpt lat="48.60309" lon="7.14954">
        <ele>552.73</ele>
        <time>2020-08-19T17:10:43.000Z</time>
      </trkpt>
      <trkpt lat="48.60304" lon="7.14958">
        <ele>552.14</ele>
        <time>2020-08-19T17:10:46.000Z</time>
      </trkpt>
      <trkpt lat="48.603" lon="7.1496">
        <ele>552.27</ele>
        <time>2020-08-19T17:10:48.000Z</time>
      </trkpt>
      <trkpt lat="48.60294" lon="7.14964">
        <ele>551.81</ele>
        <time>2020-08-19T17:10:51.000Z</time>
      </trkpt>
      <trkpt lat="48.60289" lon="7.14968">
        <ele>551.25</ele>
        <time>2020-08-19T17:10:54.000Z</time>
      </trkpt>
      <trkpt lat="48.60284" lon="7.14971">
        <ele>550.23</ele>
        <time>2020-08-19T17:10:57.000Z</time>
      </trkpt>
      <trkpt lat="48.60278" lon="7.14973">
        <ele>550.9</ele>
        <time>2020-08-19T17:11:00.000Z</time>
      </trkpt>
      <trkpt lat="48.60271" lon="7.14975">
        <ele>553.06</ele>
        <time>2020-08-19T17:11:03.000Z</time>
      </trkpt>
      <trkpt lat="48.60265" lon="7.14975">
        <ele>555.35</ele>
        <time>2020-08-19T17:11:06.000Z</time>
      </trkpt>
      <trkpt lat="48.6026" lon="7.14976">
        <ele>555.55</ele>
        <time>2020-08-19T17:11:09.000Z</time>
      </trkpt>
      <trkpt lat="48.60255" lon="7.14979">
        <ele>554.55</ele>
        <time>2020-08-19T17:11:12.000Z</time>
      </trkpt>
      <trkpt lat="48.60249" lon="7.14979">
        <ele>555.57</ele>
        <time>2020-08-19T17:11:15.000Z</time>
      </trkpt>
      <trkpt lat="48.60244" lon="7.14982">
        <ele>555.21</ele>
        <time>2020-08-19T17:11:18.000Z</time>
      </trkpt>
      <trkpt lat="48.60239" lon="7.14981">
        <ele>555.3</ele>
        <time>2020-08-19T17:11:22.000Z</time>
      </trkpt>
      <trkpt lat="48.60234" lon="7.14982">
        <ele>554.9</ele>
        <time>2020-08-19T17:11:26.000Z</time>
      </trkpt>
      <trkpt lat="48.60229" lon="7.14983">
        <ele>560.36</ele>
        <time>2020-08-19T17:11:30.000Z</time>
      </trkpt>
      <trkpt lat="48.60224" lon="7.14983">
        <ele>561.55</ele>
        <time>2020-08-19T17:11:33.000Z</time>
      </trkpt>
      <trkpt lat="48.60218" lon="7.14981">
        <ele>563.72</ele>
        <time>2020-08-19T17:11:36.000Z</time>
      </trkpt>
      <trkpt lat="48.60213" lon="7.1498">
        <ele>564.17</ele>
        <time>2020-08-19T17:11:39.000Z</time>
      </trkpt>
      <trkpt lat="48.60208" lon="7.14978">
        <ele>568.94</ele>
        <time>2020-08-19T17:11:43.000Z</time>
      </trkpt>
      <trkpt lat="48.60204" lon="7.14972">
        <ele>652.61</ele>
        <time>2020-08-19T17:11:47.000Z</time>
      </trkpt>
      <trkpt lat="48.602" lon="7.14966">
        <ele>605.17</ele>
        <time>2020-08-19T17:11:50.000Z</time>
      </trkpt>
      <trkpt lat="48.60197" lon="7.14959">
        <ele>586.62</ele>
        <time>2020-08-19T17:11:53.000Z</time>
      </trkpt>
      <trkpt lat="48.60194" lon="7.14952">
        <ele>573.25</ele>
        <time>2020-08-19T17:11:56.000Z</time>
      </trkpt>
      <trkpt lat="48.60191" lon="7.14944">
        <ele>625.75</ele>
        <time>2020-08-19T17:11:59.000Z</time>
      </trkpt>
      <trkpt lat="48.60187" lon="7.14936">
        <ele>611.02</ele>
        <time>2020-08-19T17:12:02.000Z</time>
      </trkpt>
      <trkpt lat="48.60183" lon="7.1493">
        <ele>586.27</ele>
        <time>2020-08-19T17:12:05.000Z</time>
      </trkpt>
      <trkpt lat="48.60178" lon="7.14924">
        <ele>576.54</ele>
        <time>2020-08-19T17:12:08.000Z</time>
      </trkpt>
      <trkpt lat="48.60175" lon="7.14918">
        <ele>571.28</ele>
        <time>2020-08-19T17:12:11.000Z</time>
      </trkpt>
      <trkpt lat="48.60172" lon="7.14912">
        <ele>567.1</ele>
        <time>2020-08-19T17:12:14.000Z</time>
      </trkpt>
      <trkpt lat="48.6017" lon="7.14906">
        <ele>567.08</ele>
        <time>2020-08-19T17:12:17.000Z</time>
      </trkpt>
      <trkpt lat="48.60167" lon="7.149">
        <ele>568.14</ele>
        <time>2020-08-19T17:12:21.000Z</time>
      </trkpt>
      <trkpt lat="48.60163" lon="7.14895">
        <ele>564.52</ele>
        <time>2020-08-19T17:12:24.000Z</time>
      </trkpt>
      <trkpt lat="48.60159" lon="7.14892">
        <ele>568.85</ele>
        <time>2020-08-19T17:12:27.000Z</time>
      </trkpt>
      <trkpt lat="48.60154" lon="7.14887">
        <ele>570.93</ele>
        <time>2020-08-19T17:12:31.000Z</time>
      </trkpt>
      <trkpt lat="48.60149" lon="7.14882">
        <ele>642.13</ele>
        <time>2020-08-19T17:12:35.000Z</time>
      </trkpt>
      <trkpt lat="48.60144" lon="7.14877">
        <ele>608.3</ele>
        <time>2020-08-19T17:12:38.000Z</time>
      </trkpt>
      <trkpt lat="48.6014" lon="7.14872">
        <ele>586.64</ele>
        <time>2020-08-19T17:12:42.000Z</time>
      </trkpt>
      <trkpt lat="48.60136" lon="7.14867">
        <ele>546.81</ele>
        <time>2020-08-19T17:12:45.000Z</time>
      </trkpt>
      <trkpt lat="48.60132" lon="7.14863">
        <ele>555.37</ele>
        <time>2020-08-19T17:12:48.000Z</time>
      </trkpt>
      <trkpt lat="48.60127" lon="7.14859">
        <ele>563.53</ele>
        <time>2020-08-19T17:12:51.000Z</time>
      </trkpt>
      <trkpt lat="48.60123" lon="7.14857">
        <ele>566.43</ele>
        <time>2020-08-19T17:12:54.000Z</time>
      </trkpt>
      <trkpt lat="48.60118" lon="7.14857">
        <ele>566.47</ele>
        <time>2020-08-19T17:12:57.000Z</time>
      </trkpt>
      <trkpt lat="48.60112" lon="7.1486">
        <ele>569.93</ele>
        <time>2020-08-19T17:13:00.000Z</time>
      </trkpt>
      <trkpt lat="48.60107" lon="7.14864">
        <ele>569.29</ele>
        <time>2020-08-19T17:13:03.000Z</time>
      </trkpt>
      <trkpt lat="48.60104" lon="7.14869">
        <ele>572.33</ele>
        <time>2020-08-19T17:13:06.000Z</time>
      </trkpt>
      <trkpt lat="48.601" lon="7.14876">
        <ele>576.67</ele>
        <time>2020-08-19T17:13:10.000Z</time>
      </trkpt>
      <trkpt lat="48.60097" lon="7.14882">
        <ele>575.72</ele>
        <time>2020-08-19T17:13:14.000Z</time>
      </trkpt>
      <trkpt lat="48.60096" lon="7.1489">
        <ele>578.06</ele>
        <time>2020-08-19T17:13:17.000Z</time>
      </trkpt>
      <trkpt lat="48.60094" lon="7.14898">
        <ele>620.94</ele>
        <time>2020-08-19T17:13:21.000Z</time>
      </trkpt>
      <trkpt lat="48.60092" lon="7.14905">
        <ele>599.73</ele>
        <time>2020-08-19T17:13:25.000Z</time>
      </trkpt>
      <trkpt lat="48.60092" lon="7.14913">
        <ele>593.34</ele>
        <time>2020-08-19T17:13:29.000Z</time>
      </trkpt>
      <trkpt lat="48.60091" lon="7.14921">
        <ele>587.56</ele>
        <time>2020-08-19T17:13:34.000Z</time>
      </trkpt>
      <trkpt lat="48.60092" lon="7.14929">
        <ele>587.03</ele>
        <time>2020-08-19T17:13:38.000Z</time>
      </trkpt>
      <trkpt lat="48.60093" lon="7.14937">
        <ele>584.34</ele>
        <time>2020-08-19T17:13:41.000Z</time>
      </trkpt>
      <trkpt lat="48.60094" lon="7.14945">
        <ele>584.37</ele>
        <time>2020-08-19T17:13:44.000Z</time>
      </trkpt>
      <trkpt lat="48.60094" lon="7.14953">
        <ele>582.75</ele>
        <time>2020-08-19T17:13:47.000Z</time>
      </trkpt>
      <trkpt lat="48.60093" lon="7.1496">
        <ele>583.58</ele>
        <time>2020-08-19T17:13:50.000Z</time>
      </trkpt>
      <trkpt lat="48.60093" lon="7.14968">
        <ele>583.05</ele>
        <time>2020-08-19T17:13:53.000Z</time>
      </trkpt>
      <trkpt lat="48.60093" lon="7.14978">
        <ele>584.51</ele>
        <time>2020-08-19T17:13:56.000Z</time>
      </trkpt>
      <trkpt lat="48.60094" lon="7.14985">
        <ele>588.3</ele>
        <time>2020-08-19T17:14:00.000Z</time>
      </trkpt>
      <trkpt lat="48.60094" lon="7.14995">
        <ele>585.96</ele>
        <time>2020-08-19T17:14:04.000Z</time>
      </trkpt>
      <trkpt lat="48.60093" lon="7.15002">
        <ele>589.2</ele>
        <time>2020-08-19T17:14:07.000Z</time>
      </trkpt>
      <trkpt lat="48.60092" lon="7.15009">
        <ele>588.63</ele>
        <time>2020-08-19T17:14:10.000Z</time>
      </trkpt>
      <trkpt lat="48.60092" lon="7.15016">
        <ele>588.25</ele>
        <time>2020-08-19T17:14:13.000Z</time>
      </trkpt>
      <trkpt lat="48.60091" lon="7.15025">
        <ele>589.54</ele>
        <time>2020-08-19T17:14:16.000Z</time>
      </trkpt>
      <trkpt lat="48.6009" lon="7.15032">
        <ele>591.75</ele>
        <time>2020-08-19T17:14:19.000Z</time>
      </trkpt>
      <trkpt lat="48.60089" lon="7.15039">
        <ele>580.09</ele>
        <time>2020-08-19T17:14:22.000Z</time>
      </trkpt>
      <trkpt lat="48.60088" lon="7.15046">
        <ele>588.15</ele>
        <time>2020-08-19T17:14:25.000Z</time>
      </trkpt>
      <trkpt lat="48.60088" lon="7.15054">
        <ele>591.59</ele>
        <time>2020-08-19T17:14:28.000Z</time>
      </trkpt>
      <trkpt lat="48.60087" lon="7.15063">
        <ele>593.95</ele>
        <time>2020-08-19T17:14:31.000Z</time>
      </trkpt>
      <trkpt lat="48.60088" lon="7.15072">
        <ele>595.39</ele>
        <time>2020-08-19T17:14:34.000Z</time>
      </trkpt>
      <trkpt lat="48.60087" lon="7.15082">
        <ele>598.24</ele>
        <time>2020-08-19T17:14:37.000Z</time>
      </trkpt>
      <trkpt lat="48.60087" lon="7.15088">
        <ele>520.2</ele>
        <time>2020-08-19T17:14:40.000Z</time>
      </trkpt>
      <trkpt lat="48.60085" lon="7.15098">
        <ele>561.75</ele>
        <time>2020-08-19T17:14:43.000Z</time>
      </trkpt>
      <trkpt lat="48.60085" lon="7.15106">
        <ele>572.97</ele>
        <time>2020-08-19T17:14:45.000Z</time>
      </trkpt>
      <trkpt lat="48.60085" lon="7.15116">
        <ele>573.89</ele>
        <time>2020-08-19T17:14:48.000Z</time>
      </trkpt>
      <trkpt lat="48.60086" lon="7.15126">
        <ele>576.1</ele>
        <time>2020-08-19T17:14:51.000Z</time>
      </trkpt>
      <trkpt lat="48.60084" lon="7.15134">
        <ele>576.5</ele>
        <time>2020-08-19T17:14:54.000Z</time>
      </trkpt>
      <trkpt lat="48.60085" lon="7.15144">
        <ele>578.87</ele>
        <time>2020-08-19T17:14:57.000Z</time>
      </trkpt>
      <trkpt lat="48.60085" lon="7.1515">
        <ele>580.83</ele>
        <time>2020-08-19T17:14:59.000Z</time>
      </trkpt>
      <trkpt lat="48.60084" lon="7.15157">
        <ele>582.48</ele>
        <time>2020-08-19T17:15:01.000Z</time>
      </trkpt>
      <trkpt lat="48.60085" lon="7.15166">
        <ele>581.55</ele>
        <time>2020-08-19T17:15:04.000Z</time>
      </trkpt>
      <trkpt lat="48.60085" lon="7.15176">
        <ele>584.03</ele>
        <time>2020-08-19T17:15:07.000Z</time>
      </trkpt>
      <trkpt lat="48.60083" lon="7.15185">
        <ele>585.57</ele>
        <time>2020-08-19T17:15:09.000Z</time>
      </trkpt>
      <trkpt lat="48.60083" lon="7.15193">
        <ele>585.71</ele>
        <time>2020-08-19T17:15:11.000Z</time>
      </trkpt>
      <trkpt lat="48.60082" lon="7.15202">
        <ele>587.18</ele>
        <time>2020-08-19T17:15:13.000Z</time>
      </trkpt>
      <trkpt lat="48.60081" lon="7.15212">
        <ele>587.2</ele>
        <time>2020-08-19T17:15:16.000Z</time>
      </trkpt>
      <trkpt lat="48.6008" lon="7.15219">
        <ele>587.04</ele>
        <time>2020-08-19T17:15:18.000Z</time>
      </trkpt>
      <trkpt lat="48.60078" lon="7.15227">
        <ele>502.72</ele>
        <time>2020-08-19T17:15:20.000Z</time>
      </trkpt>
      <trkpt lat="48.60076" lon="7.15233">
        <ele>529.81</ele>
        <time>2020-08-19T17:15:22.000Z</time>
      </trkpt>
      <trkpt lat="48.60073" lon="7.15241">
        <ele>550.33</ele>
        <time>2020-08-19T17:15:24.000Z</time>
      </trkpt>
      <trkpt lat="48.60071" lon="7.15247">
        <ele>565.6</ele>
        <time>2020-08-19T17:15:26.000Z</time>
      </trkpt>
      <trkpt lat="48.60069" lon="7.15257">
        <ele>579.44</ele>
        <time>2020-08-19T17:15:29.000Z</time>
      </trkpt>
      <trkpt lat="48.60068" lon="7.15264">
        <ele>584.46</ele>
        <time>2020-08-19T17:15:31.000Z</time>
      </trkpt>
      <trkpt lat="48.60066" lon="7.15272">
        <ele>587.14</ele>
        <time>2020-08-19T17:15:33.000Z</time>
      </trkpt>
      <trkpt lat="48.60065" lon="7.15278">
        <ele>587.66</ele>
        <time>2020-08-19T17:15:35.000Z</time>
      </trkpt>
      <trkpt lat="48.60064" lon="7.15286">
        <ele>589.64</ele>
        <time>2020-08-19T17:15:37.000Z</time>
      </trkpt>
      <trkpt lat="48.60064" lon="7.15296">
        <ele>590.04</ele>
        <time>2020-08-19T17:15:40.000Z</time>
      </trkpt>
      <trkpt lat="48.60063" lon="7.15304">
        <ele>590.63</ele>
        <time>2020-08-19T17:15:42.000Z</time>
      </trkpt>
      <trkpt lat="48.60062" lon="7.15311">
        <ele>591.34</ele>
        <time>2020-08-19T17:15:44.000Z</time>
      </trkpt>
      <trkpt lat="48.60063" lon="7.15321">
        <ele>594.26</ele>
        <time>2020-08-19T17:15:47.000Z</time>
      </trkpt>
      <trkpt lat="48.60064" lon="7.15329">
        <ele>595.35</ele>
        <time>2020-08-19T17:15:50.000Z</time>
      </trkpt>
      <trkpt lat="48.60065" lon="7.15338">
        <ele>598.1</ele>
        <time>2020-08-19T17:15:53.000Z</time>
      </trkpt>
      <trkpt lat="48.60064" lon="7.15346">
        <ele>597.08</ele>
        <time>2020-08-19T17:15:56.000Z</time>
      </trkpt>
      <trkpt lat="48.60063" lon="7.15353">
        <ele>595.79</ele>
        <time>2020-08-19T17:15:59.000Z</time>
      </trkpt>
      <trkpt lat="48.60063" lon="7.15361">
        <ele>598</ele>
        <time>2020-08-19T17:16:02.000Z</time>
      </trkpt>
      <trkpt lat="48.60062" lon="7.15369">
        <ele>599.09</ele>
        <time>2020-08-19T17:16:05.000Z</time>
      </trkpt>
      <trkpt lat="48.60062" lon="7.15377">
        <ele>600.75</ele>
        <time>2020-08-19T17:16:08.000Z</time>
      </trkpt>
      <trkpt lat="48.60063" lon="7.15387">
        <ele>602.2</ele>
        <time>2020-08-19T17:16:11.000Z</time>
      </trkpt>
      <trkpt lat="48.60063" lon="7.15396">
        <ele>601.99</ele>
        <time>2020-08-19T17:16:14.000Z</time>
      </trkpt>
      <trkpt lat="48.60065" lon="7.15405">
        <ele>602.44</ele>
        <time>2020-08-19T17:16:17.000Z</time>
      </trkpt>
      <trkpt lat="48.60066" lon="7.15412">
        <ele>603.1</ele>
        <time>2020-08-19T17:16:20.000Z</time>
      </trkpt>
      <trkpt lat="48.60068" lon="7.15419">
        <ele>601.34</ele>
        <time>2020-08-19T17:16:23.000Z</time>
      </trkpt>
      <trkpt lat="48.60069" lon="7.15427">
        <ele>602.62</ele>
        <time>2020-08-19T17:16:26.000Z</time>
      </trkpt>
      <trkpt lat="48.60069" lon="7.15434">
        <ele>599.87</ele>
        <time>2020-08-19T17:16:29.000Z</time>
      </trkpt>
      <trkpt lat="48.60071" lon="7.1544">
        <ele>600.13</ele>
        <time>2020-08-19T17:16:32.000Z</time>
      </trkpt>
      <trkpt lat="48.60073" lon="7.15449">
        <ele>599.11</ele>
        <time>2020-08-19T17:16:35.000Z</time>
      </trkpt>
      <trkpt lat="48.60075" lon="7.15459">
        <ele>598.61</ele>
        <time>2020-08-19T17:16:38.000Z</time>
      </trkpt>
      <trkpt lat="48.60078" lon="7.15465">
        <ele>599.08</ele>
        <time>2020-08-19T17:16:40.000Z</time>
      </trkpt>
      <trkpt lat="48.60075" lon="7.1547">
        <ele>589.45</ele>
        <time>2020-08-19T17:16:50.000Z</time>
      </trkpt>
      <trkpt lat="48.60077" lon="7.15478">
        <ele>597.85</ele>
        <time>2020-08-19T17:17:04.000Z</time>
      </trkpt>
      <trkpt lat="48.60078" lon="7.15486">
        <ele>594.05</ele>
        <time>2020-08-19T17:17:07.000Z</time>
      </trkpt>
      <trkpt lat="48.6008" lon="7.15496">
        <ele>594.54</ele>
        <time>2020-08-19T17:17:10.000Z</time>
      </trkpt>
      <trkpt lat="48.60082" lon="7.15502">
        <ele>595.23</ele>
        <time>2020-08-19T17:17:12.000Z</time>
      </trkpt>
      <trkpt lat="48.60081" lon="7.1551">
        <ele>598</ele>
        <time>2020-08-19T17:17:16.000Z</time>
      </trkpt>
      <trkpt lat="48.60083" lon="7.15519">
        <ele>598.58</ele>
        <time>2020-08-19T17:17:20.000Z</time>
      </trkpt>
      <trkpt lat="48.60085" lon="7.15526">
        <ele>604.14</ele>
        <time>2020-08-19T17:17:24.000Z</time>
      </trkpt>
      <trkpt lat="48.60087" lon="7.15534">
        <ele>606.99</ele>
        <time>2020-08-19T17:17:28.000Z</time>
      </trkpt>
      <trkpt lat="48.60088" lon="7.15543">
        <ele>609.21</ele>
        <time>2020-08-19T17:17:31.000Z</time>
      </trkpt>
      <trkpt lat="48.60089" lon="7.1555">
        <ele>609.99</ele>
        <time>2020-08-19T17:17:33.000Z</time>
      </trkpt>
      <trkpt lat="48.60089" lon="7.15558">
        <ele>614.6</ele>
        <time>2020-08-19T17:17:36.000Z</time>
      </trkpt>
      <trkpt lat="48.60088" lon="7.15567">
        <ele>614.31</ele>
        <time>2020-08-19T17:17:39.000Z</time>
      </trkpt>
      <trkpt lat="48.60088" lon="7.15576">
        <ele>614.47</ele>
        <time>2020-08-19T17:17:42.000Z</time>
      </trkpt>
      <trkpt lat="48.60089" lon="7.15583">
        <ele>613.28</ele>
        <time>2020-08-19T17:17:45.000Z</time>
      </trkpt>
      <trkpt lat="48.60089" lon="7.15591">
        <ele>614.82</ele>
        <time>2020-08-19T17:17:49.000Z</time>
      </trkpt>
      <trkpt lat="48.60088" lon="7.15599">
        <ele>614.13</ele>
        <time>2020-08-19T17:17:52.000Z</time>
      </trkpt>
      <trkpt lat="48.60088" lon="7.15608">
        <ele>615.99</ele>
        <time>2020-08-19T17:17:55.000Z</time>
      </trkpt>
      <trkpt lat="48.60087" lon="7.15617">
        <ele>615.15</ele>
        <time>2020-08-19T17:17:59.000Z</time>
      </trkpt>
      <trkpt lat="48.60087" lon="7.15626">
        <ele>617</ele>
        <time>2020-08-19T17:18:02.000Z</time>
      </trkpt>
      <trkpt lat="48.60086" lon="7.15632">
        <ele>617.67</ele>
        <time>2020-08-19T17:18:04.000Z</time>
      </trkpt>
      <trkpt lat="48.60084" lon="7.1564">
        <ele>616</ele>
        <time>2020-08-19T17:18:07.000Z</time>
      </trkpt>
      <trkpt lat="48.60083" lon="7.1565">
        <ele>616.79</ele>
        <time>2020-08-19T17:18:10.000Z</time>
      </trkpt>
      <trkpt lat="48.60082" lon="7.15659">
        <ele>623.04</ele>
        <time>2020-08-19T17:18:13.000Z</time>
      </trkpt>
      <trkpt lat="48.6008" lon="7.15666">
        <ele>621.68</ele>
        <time>2020-08-19T17:18:15.000Z</time>
      </trkpt>
      <trkpt lat="48.60079" lon="7.15675">
        <ele>622.48</ele>
        <time>2020-08-19T17:18:18.000Z</time>
      </trkpt>
      <trkpt lat="48.60077" lon="7.15681">
        <ele>623.27</ele>
        <time>2020-08-19T17:18:21.000Z</time>
      </trkpt>
      <trkpt lat="48.60075" lon="7.1569">
        <ele>623.55</ele>
        <time>2020-08-19T17:18:24.000Z</time>
      </trkpt>
      <trkpt lat="48.60074" lon="7.15696">
        <ele>623.11</ele>
        <time>2020-08-19T17:18:26.000Z</time>
      </trkpt>
      <trkpt lat="48.60073" lon="7.15704">
        <ele>624.64</ele>
        <time>2020-08-19T17:18:29.000Z</time>
      </trkpt>
      <trkpt lat="48.60073" lon="7.15712">
        <ele>625.26</ele>
        <time>2020-08-19T17:18:32.000Z</time>
      </trkpt>
      <trkpt lat="48.60073" lon="7.15721">
        <ele>623.87</ele>
        <time>2020-08-19T17:18:36.000Z</time>
      </trkpt>
      <trkpt lat="48.60073" lon="7.1573">
        <ele>622.89</ele>
        <time>2020-08-19T17:18:39.000Z</time>
      </trkpt>
      <trkpt lat="48.60073" lon="7.1574">
        <ele>624.22</ele>
        <time>2020-08-19T17:18:42.000Z</time>
      </trkpt>
      <trkpt lat="48.60074" lon="7.15747">
        <ele>624.76</ele>
        <time>2020-08-19T17:18:45.000Z</time>
      </trkpt>
      <trkpt lat="48.60075" lon="7.15755">
        <ele>625.64</ele>
        <time>2020-08-19T17:18:48.000Z</time>
      </trkpt>
      <trkpt lat="48.60076" lon="7.15763">
        <ele>626.49</ele>
        <time>2020-08-19T17:18:51.000Z</time>
      </trkpt>
      <trkpt lat="48.60075" lon="7.15772">
        <ele>625.18</ele>
        <time>2020-08-19T17:18:54.000Z</time>
      </trkpt>
      <trkpt lat="48.60072" lon="7.1578">
        <ele>626.25</ele>
        <time>2020-08-19T17:18:58.000Z</time>
      </trkpt>
      <trkpt lat="48.60073" lon="7.15789">
        <ele>623.48</ele>
        <time>2020-08-19T17:19:01.000Z</time>
      </trkpt>
      <trkpt lat="48.60074" lon="7.15796">
        <ele>617.93</ele>
        <time>2020-08-19T17:19:03.000Z</time>
      </trkpt>
      <trkpt lat="48.60074" lon="7.15806">
        <ele>617.22</ele>
        <time>2020-08-19T17:19:06.000Z</time>
      </trkpt>
      <trkpt lat="48.60075" lon="7.15816">
        <ele>616.87</ele>
        <time>2020-08-19T17:19:09.000Z</time>
      </trkpt>
      <trkpt lat="48.60075" lon="7.15826">
        <ele>618.16</ele>
        <time>2020-08-19T17:19:12.000Z</time>
      </trkpt>
      <trkpt lat="48.60074" lon="7.15835">
        <ele>619.08</ele>
        <time>2020-08-19T17:19:15.000Z</time>
      </trkpt>
      <trkpt lat="48.60074" lon="7.15843">
        <ele>617.75</ele>
        <time>2020-08-19T17:19:18.000Z</time>
      </trkpt>
      <trkpt lat="48.60074" lon="7.15852">
        <ele>619.89</ele>
        <time>2020-08-19T17:19:22.000Z</time>
      </trkpt>
      <trkpt lat="48.60073" lon="7.1586">
        <ele>620.06</ele>
        <time>2020-08-19T17:19:25.000Z</time>
      </trkpt>
      <trkpt lat="48.60072" lon="7.15869">
        <ele>621.72</ele>
        <time>2020-08-19T17:19:28.000Z</time>
      </trkpt>
      <trkpt lat="48.60072" lon="7.15877">
        <ele>621.61</ele>
        <time>2020-08-19T17:19:32.000Z</time>
      </trkpt>
      <trkpt lat="48.60072" lon="7.15885">
        <ele>621.64</ele>
        <time>2020-08-19T17:19:35.000Z</time>
      </trkpt>
      <trkpt lat="48.60071" lon="7.15893">
        <ele>622.24</ele>
        <time>2020-08-19T17:19:38.000Z</time>
      </trkpt>
      <trkpt lat="48.60072" lon="7.15902">
        <ele>622.56</ele>
        <time>2020-08-19T17:19:41.000Z</time>
      </trkpt>
      <trkpt lat="48.60072" lon="7.1591">
        <ele>622.57</ele>
        <time>2020-08-19T17:19:44.000Z</time>
      </trkpt>
      <trkpt lat="48.60072" lon="7.15918">
        <ele>623.9</ele>
        <time>2020-08-19T17:19:47.000Z</time>
      </trkpt>
      <trkpt lat="48.60073" lon="7.15925">
        <ele>625.81</ele>
        <time>2020-08-19T17:19:51.000Z</time>
      </trkpt>
      <trkpt lat="48.60075" lon="7.15933">
        <ele>623.8</ele>
        <time>2020-08-19T17:19:54.000Z</time>
      </trkpt>
      <trkpt lat="48.60075" lon="7.1594">
        <ele>624.56</ele>
        <time>2020-08-19T17:19:57.000Z</time>
      </trkpt>
      <trkpt lat="48.60075" lon="7.15948">
        <ele>625.9</ele>
        <time>2020-08-19T17:20:00.000Z</time>
      </trkpt>
      <trkpt lat="48.60076" lon="7.15955">
        <ele>628.53</ele>
        <time>2020-08-19T17:20:02.000Z</time>
      </trkpt>
      <trkpt lat="48.60077" lon="7.15962">
        <ele>631.04</ele>
        <time>2020-08-19T17:20:05.000Z</time>
      </trkpt>
      <trkpt lat="48.6008" lon="7.1597">
        <ele>632.91</ele>
        <time>2020-08-19T17:20:08.000Z</time>
      </trkpt>
      <trkpt lat="48.60081" lon="7.15979">
        <ele>633.53</ele>
        <time>2020-08-19T17:20:11.000Z</time>
      </trkpt>
      <trkpt lat="48.60083" lon="7.15988">
        <ele>633</ele>
        <time>2020-08-19T17:20:14.000Z</time>
      </trkpt>
      <trkpt lat="48.60086" lon="7.15995">
        <ele>628.11</ele>
        <time>2020-08-19T17:20:17.000Z</time>
      </trkpt>
      <trkpt lat="48.60088" lon="7.16002">
        <ele>622.22</ele>
        <time>2020-08-19T17:20:20.000Z</time>
      </trkpt>
      <trkpt lat="48.6009" lon="7.16008">
        <ele>622.42</ele>
        <time>2020-08-19T17:20:23.000Z</time>
      </trkpt>
      <trkpt lat="48.60093" lon="7.16015">
        <ele>623.58</ele>
        <time>2020-08-19T17:20:27.000Z</time>
      </trkpt>
      <trkpt lat="48.60093" lon="7.16022">
        <ele>626.22</ele>
        <time>2020-08-19T17:20:30.000Z</time>
      </trkpt>
      <trkpt lat="48.60097" lon="7.16031">
        <ele>626.29</ele>
        <time>2020-08-19T17:20:33.000Z</time>
      </trkpt>
      <trkpt lat="48.60099" lon="7.16039">
        <ele>625.05</ele>
        <time>2020-08-19T17:20:36.000Z</time>
      </trkpt>
      <trkpt lat="48.60099" lon="7.16048">
        <ele>626.86</ele>
        <time>2020-08-19T17:20:40.000Z</time>
      </trkpt>
      <trkpt lat="48.601" lon="7.16056">
        <ele>628</ele>
        <time>2020-08-19T17:20:43.000Z</time>
      </trkpt>
      <trkpt lat="48.60101" lon="7.16064">
        <ele>629.42</ele>
        <time>2020-08-19T17:20:46.000Z</time>
      </trkpt>
      <trkpt lat="48.60104" lon="7.1607">
        <ele>624.57</ele>
        <time>2020-08-19T17:20:48.000Z</time>
      </trkpt>
      <trkpt lat="48.60106" lon="7.16077">
        <ele>624.3</ele>
        <time>2020-08-19T17:20:51.000Z</time>
      </trkpt>
      <trkpt lat="48.60108" lon="7.16085">
        <ele>624.95</ele>
        <time>2020-08-19T17:20:54.000Z</time>
      </trkpt>
      <trkpt lat="48.6011" lon="7.16093">
        <ele>627.03</ele>
        <time>2020-08-19T17:20:57.000Z</time>
      </trkpt>
      <trkpt lat="48.6011" lon="7.16102">
        <ele>627.53</ele>
        <time>2020-08-19T17:21:01.000Z</time>
      </trkpt>
      <trkpt lat="48.60111" lon="7.16111">
        <ele>626.86</ele>
        <time>2020-08-19T17:21:05.000Z</time>
      </trkpt>
      <trkpt lat="48.60114" lon="7.16118">
        <ele>625.42</ele>
        <time>2020-08-19T17:21:08.000Z</time>
      </trkpt>
      <trkpt lat="48.60115" lon="7.16125">
        <ele>628.72</ele>
        <time>2020-08-19T17:21:12.000Z</time>
      </trkpt>
      <trkpt lat="48.60115" lon="7.16134">
        <ele>634.18</ele>
        <time>2020-08-19T17:21:16.000Z</time>
      </trkpt>
      <trkpt lat="48.60115" lon="7.16141">
        <ele>631.8</ele>
        <time>2020-08-19T17:21:19.000Z</time>
      </trkpt>
      <trkpt lat="48.60115" lon="7.16148">
        <ele>632.93</ele>
        <time>2020-08-19T17:21:22.000Z</time>
      </trkpt>
      <trkpt lat="48.60116" lon="7.16156">
        <ele>634.28</ele>
        <time>2020-08-19T17:21:26.000Z</time>
      </trkpt>
      <trkpt lat="48.60116" lon="7.16163">
        <ele>634.18</ele>
        <time>2020-08-19T17:21:29.000Z</time>
      </trkpt>
      <trkpt lat="48.60119" lon="7.16169">
        <ele>632.93</ele>
        <time>2020-08-19T17:21:31.000Z</time>
      </trkpt>
      <trkpt lat="48.6012" lon="7.16177">
        <ele>632.54</ele>
        <time>2020-08-19T17:21:34.000Z</time>
      </trkpt>
      <trkpt lat="48.60122" lon="7.16186">
        <ele>628.36</ele>
        <time>2020-08-19T17:21:38.000Z</time>
      </trkpt>
      <trkpt lat="48.60123" lon="7.16194">
        <ele>628.05</ele>
        <time>2020-08-19T17:21:41.000Z</time>
      </trkpt>
      <trkpt lat="48.60125" lon="7.16202">
        <ele>630.04</ele>
        <time>2020-08-19T17:21:44.000Z</time>
      </trkpt>
      <trkpt lat="48.60129" lon="7.16208">
        <ele>630.33</ele>
        <time>2020-08-19T17:21:47.000Z</time>
      </trkpt>
      <trkpt lat="48.60131" lon="7.16214">
        <ele>632.46</ele>
        <time>2020-08-19T17:21:49.000Z</time>
      </trkpt>
      <trkpt lat="48.60134" lon="7.16223">
        <ele>632.45</ele>
        <time>2020-08-19T17:21:52.000Z</time>
      </trkpt>
      <trkpt lat="48.60134" lon="7.16232">
        <ele>633.82</ele>
        <time>2020-08-19T17:21:55.000Z</time>
      </trkpt>
      <trkpt lat="48.60137" lon="7.16238">
        <ele>639.61</ele>
        <time>2020-08-19T17:22:56.000Z</time>
      </trkpt>
      <trkpt lat="48.60135" lon="7.16244">
        <ele>644.93</ele>
        <time>2020-08-19T17:23:07.000Z</time>
      </trkpt>
      <trkpt lat="48.60135" lon="7.16251">
        <ele>646.43</ele>
        <time>2020-08-19T17:23:10.000Z</time>
      </trkpt>
      <trkpt lat="48.60134" lon="7.16259">
        <ele>649.82</ele>
        <time>2020-08-19T17:23:14.000Z</time>
      </trkpt>
      <trkpt lat="48.60136" lon="7.16266">
        <ele>647.1</ele>
        <time>2020-08-19T17:23:17.000Z</time>
      </trkpt>
      <trkpt lat="48.60138" lon="7.16273">
        <ele>645.8</ele>
        <time>2020-08-19T17:23:20.000Z</time>
      </trkpt>
      <trkpt lat="48.60139" lon="7.1628">
        <ele>645.51</ele>
        <time>2020-08-19T17:23:23.000Z</time>
      </trkpt>
      <trkpt lat="48.60142" lon="7.16286">
        <ele>647.58</ele>
        <time>2020-08-19T17:23:26.000Z</time>
      </trkpt>
      <trkpt lat="48.60145" lon="7.16292">
        <ele>649.77</ele>
        <time>2020-08-19T17:23:29.000Z</time>
      </trkpt>
      <trkpt lat="48.60147" lon="7.16299">
        <ele>649.79</ele>
        <time>2020-08-19T17:23:39.000Z</time>
      </trkpt>
      <trkpt lat="48.60149" lon="7.16306">
        <ele>651.16</ele>
        <time>2020-08-19T17:26:56.000Z</time>
      </trkpt>
      <trkpt lat="48.60152" lon="7.16312">
        <ele>523.34</ele>
        <time>2020-08-19T17:26:58.000Z</time>
      </trkpt>
      <trkpt lat="48.60154" lon="7.16319">
        <ele>547.67</ele>
        <time>2020-08-19T17:27:00.000Z</time>
      </trkpt>
      <trkpt lat="48.60155" lon="7.16326">
        <ele>590.91</ele>
        <time>2020-08-19T17:27:02.000Z</time>
      </trkpt>
      <trkpt lat="48.60157" lon="7.16334">
        <ele>610.1</ele>
        <time>2020-08-19T17:27:04.000Z</time>
      </trkpt>
      <trkpt lat="48.60159" lon="7.16344">
        <ele>626.53</ele>
        <time>2020-08-19T17:27:06.000Z</time>
      </trkpt>
      <trkpt lat="48.60162" lon="7.16353">
        <ele>627.83</ele>
        <time>2020-08-19T17:27:08.000Z</time>
      </trkpt>
      <trkpt lat="48.60166" lon="7.16363">
        <ele>631.71</ele>
        <time>2020-08-19T17:27:10.000Z</time>
      </trkpt>
      <trkpt lat="48.6017" lon="7.16371">
        <ele>636.98</ele>
        <time>2020-08-19T17:27:12.000Z</time>
      </trkpt>
      <trkpt lat="48.60172" lon="7.16379">
        <ele>636.16</ele>
        <time>2020-08-19T17:27:14.000Z</time>
      </trkpt>
      <trkpt lat="48.60175" lon="7.16386">
        <ele>638.5</ele>
        <time>2020-08-19T17:27:16.000Z</time>
      </trkpt>
      <trkpt lat="48.60179" lon="7.16394">
        <ele>642.18</ele>
        <time>2020-08-19T17:27:18.000Z</time>
      </trkpt>
      <trkpt lat="48.60182" lon="7.16403">
        <ele>643.65</ele>
        <time>2020-08-19T17:27:20.000Z</time>
      </trkpt>
      <trkpt lat="48.60186" lon="7.16412">
        <ele>644</ele>
        <time>2020-08-19T17:27:22.000Z</time>
      </trkpt>
      <trkpt lat="48.60191" lon="7.16421">
        <ele>644.27</ele>
        <time>2020-08-19T17:27:24.000Z</time>
      </trkpt>
      <trkpt lat="48.60194" lon="7.1643">
        <ele>643.21</ele>
        <time>2020-08-19T17:27:26.000Z</time>
      </trkpt>
      <trkpt lat="48.60198" lon="7.16438">
        <ele>645.2</ele>
        <time>2020-08-19T17:27:28.000Z</time>
      </trkpt>
      <trkpt lat="48.60201" lon="7.16446">
        <ele>645.44</ele>
        <time>2020-08-19T17:27:30.000Z</time>
      </trkpt>
      <trkpt lat="48.60204" lon="7.16452">
        <ele>646.35</ele>
        <time>2020-08-19T17:27:32.000Z</time>
      </trkpt>
      <trkpt lat="48.60208" lon="7.1646">
        <ele>643.57</ele>
        <time>2020-08-19T17:27:34.000Z</time>
      </trkpt>
      <trkpt lat="48.60212" lon="7.16465">
        <ele>643.48</ele>
        <time>2020-08-19T17:27:36.000Z</time>
      </trkpt>
      <trkpt lat="48.60215" lon="7.16471">
        <ele>644.77</ele>
        <time>2020-08-19T17:27:38.000Z</time>
      </trkpt>
      <trkpt lat="48.60218" lon="7.16479">
        <ele>644.61</ele>
        <time>2020-08-19T17:27:40.000Z</time>
      </trkpt>
      <trkpt lat="48.60221" lon="7.16488">
        <ele>645.78</ele>
        <time>2020-08-19T17:27:42.000Z</time>
      </trkpt>
      <trkpt lat="48.60224" lon="7.16496">
        <ele>645.48</ele>
        <time>2020-08-19T17:27:44.000Z</time>
      </trkpt>
      <trkpt lat="48.6023" lon="7.16509">
        <ele>646.04</ele>
        <time>2020-08-19T17:27:46.000Z</time>
      </trkpt>
      <trkpt lat="48.60233" lon="7.16514">
        <ele>647.33</ele>
        <time>2020-08-19T17:27:47.000Z</time>
      </trkpt>
      <trkpt lat="48.60238" lon="7.16525">
        <ele>646.51</ele>
        <time>2020-08-19T17:27:49.000Z</time>
      </trkpt>
      <trkpt lat="48.6024" lon="7.16531">
        <ele>645.38</ele>
        <time>2020-08-19T17:27:50.000Z</time>
      </trkpt>
      <trkpt lat="48.60246" lon="7.1654">
        <ele>643.45</ele>
        <time>2020-08-19T17:27:52.000Z</time>
      </trkpt>
      <trkpt lat="48.60249" lon="7.16545">
        <ele>641.28</ele>
        <time>2020-08-19T17:27:53.000Z</time>
      </trkpt>
      <trkpt lat="48.60253" lon="7.16553">
        <ele>641.97</ele>
        <time>2020-08-19T17:27:55.000Z</time>
      </trkpt>
      <trkpt lat="48.60258" lon="7.16564">
        <ele>642.98</ele>
        <time>2020-08-19T17:27:57.000Z</time>
      </trkpt>
      <trkpt lat="48.6026" lon="7.16576">
        <ele>640.83</ele>
        <time>2020-08-19T17:27:59.000Z</time>
      </trkpt>
      <trkpt lat="48.60264" lon="7.16588">
        <ele>636.81</ele>
        <time>2020-08-19T17:28:01.000Z</time>
      </trkpt>
      <trkpt lat="48.60267" lon="7.16599">
        <ele>636.39</ele>
        <time>2020-08-19T17:28:03.000Z</time>
      </trkpt>
      <trkpt lat="48.60268" lon="7.16607">
        <ele>635.6</ele>
        <time>2020-08-19T17:28:04.000Z</time>
      </trkpt>
      <trkpt lat="48.60269" lon="7.16618">
        <ele>636.23</ele>
        <time>2020-08-19T17:28:06.000Z</time>
      </trkpt>
      <trkpt lat="48.60269" lon="7.16626">
        <ele>636.89</ele>
        <time>2020-08-19T17:28:08.000Z</time>
      </trkpt>
      <trkpt lat="48.60271" lon="7.16637">
        <ele>636.32</ele>
        <time>2020-08-19T17:28:10.000Z</time>
      </trkpt>
      <trkpt lat="48.60272" lon="7.16647">
        <ele>637.51</ele>
        <time>2020-08-19T17:28:12.000Z</time>
      </trkpt>
      <trkpt lat="48.60271" lon="7.16656">
        <ele>637.76</ele>
        <time>2020-08-19T17:28:14.000Z</time>
      </trkpt>
      <trkpt lat="48.60273" lon="7.16666">
        <ele>638.5</ele>
        <time>2020-08-19T17:28:16.000Z</time>
      </trkpt>
      <trkpt lat="48.60276" lon="7.16677">
        <ele>640.2</ele>
        <time>2020-08-19T17:28:18.000Z</time>
      </trkpt>
      <trkpt lat="48.60277" lon="7.16686">
        <ele>640.07</ele>
        <time>2020-08-19T17:28:20.000Z</time>
      </trkpt>
      <trkpt lat="48.60278" lon="7.16696">
        <ele>639.34</ele>
        <time>2020-08-19T17:28:22.000Z</time>
      </trkpt>
      <trkpt lat="48.60278" lon="7.16704">
        <ele>637.93</ele>
        <time>2020-08-19T17:28:24.000Z</time>
      </trkpt>
      <trkpt lat="48.60279" lon="7.16712">
        <ele>637.54</ele>
        <time>2020-08-19T17:28:26.000Z</time>
      </trkpt>
      <trkpt lat="48.60282" lon="7.16721">
        <ele>637.17</ele>
        <time>2020-08-19T17:28:28.000Z</time>
      </trkpt>
      <trkpt lat="48.60285" lon="7.16729">
        <ele>639.17</ele>
        <time>2020-08-19T17:28:30.000Z</time>
      </trkpt>
      <trkpt lat="48.60287" lon="7.16735">
        <ele>640.75</ele>
        <time>2020-08-19T17:28:32.000Z</time>
      </trkpt>
      <trkpt lat="48.6029" lon="7.16741">
        <ele>642.82</ele>
        <time>2020-08-19T17:28:34.000Z</time>
      </trkpt>
      <trkpt lat="48.60291" lon="7.1675">
        <ele>643.84</ele>
        <time>2020-08-19T17:28:37.000Z</time>
      </trkpt>
      <trkpt lat="48.6029" lon="7.16758">
        <ele>645.2</ele>
        <time>2020-08-19T17:28:39.000Z</time>
      </trkpt>
      <trkpt lat="48.60286" lon="7.16768">
        <ele>646.18</ele>
        <time>2020-08-19T17:28:41.000Z</time>
      </trkpt>
      <trkpt lat="48.60272" lon="7.16881">
        <ele>647.57</ele>
        <time>2020-08-19T17:28:59.000Z</time>
      </trkpt>
      <trkpt lat="48.60271" lon="7.16891">
        <ele>643.24</ele>
        <time>2020-08-19T17:29:01.000Z</time>
      </trkpt>
      <trkpt lat="48.60267" lon="7.16897">
        <ele>641.21</ele>
        <time>2020-08-19T17:29:07.000Z</time>
      </trkpt>
      <trkpt lat="48.60267" lon="7.16905">
        <ele>644.86</ele>
        <time>2020-08-19T17:29:12.000Z</time>
      </trkpt>
      <trkpt lat="48.60266" lon="7.16912">
        <ele>643.79</ele>
        <time>2020-08-19T17:29:15.000Z</time>
      </trkpt>
      <trkpt lat="48.60265" lon="7.16919">
        <ele>641.95</ele>
        <time>2020-08-19T17:29:19.000Z</time>
      </trkpt>
      <trkpt lat="48.60264" lon="7.16927">
        <ele>641.77</ele>
        <time>2020-08-19T17:29:23.000Z</time>
      </trkpt>
      <trkpt lat="48.60262" lon="7.16934">
        <ele>643.02</ele>
        <time>2020-08-19T17:29:26.000Z</time>
      </trkpt>
      <trkpt lat="48.6026" lon="7.1694">
        <ele>644.85</ele>
        <time>2020-08-19T17:29:31.000Z</time>
      </trkpt>
      <trkpt lat="48.60261" lon="7.16948">
        <ele>646.28</ele>
        <time>2020-08-19T17:29:35.000Z</time>
      </trkpt>
      <trkpt lat="48.60261" lon="7.16957">
        <ele>646.76</ele>
        <time>2020-08-19T17:29:39.000Z</time>
      </trkpt>
      <trkpt lat="48.6026" lon="7.16965">
        <ele>647.77</ele>
        <time>2020-08-19T17:29:43.000Z</time>
      </trkpt>
      <trkpt lat="48.60261" lon="7.16973">
        <ele>649.52</ele>
        <time>2020-08-19T17:29:47.000Z</time>
      </trkpt>
      <trkpt lat="48.6026" lon="7.16981">
        <ele>649.79</ele>
        <time>2020-08-19T17:29:51.000Z</time>
      </trkpt>
      <trkpt lat="48.60258" lon="7.16987">
        <ele>650.74</ele>
        <time>2020-08-19T17:29:55.000Z</time>
      </trkpt>
      <trkpt lat="48.60256" lon="7.16995">
        <ele>650.1</ele>
        <time>2020-08-19T17:29:59.000Z</time>
      </trkpt>
      <trkpt lat="48.60254" lon="7.17001">
        <ele>650.58</ele>
        <time>2020-08-19T17:30:07.000Z</time>
      </trkpt>
      <trkpt lat="48.60253" lon="7.17008">
        <ele>652.16</ele>
        <time>2020-08-19T17:30:11.000Z</time>
      </trkpt>
      <trkpt lat="48.60252" lon="7.17016">
        <ele>652.21</ele>
        <time>2020-08-19T17:30:16.000Z</time>
      </trkpt>
      <trkpt lat="48.60251" lon="7.17024">
        <ele>651.72</ele>
        <time>2020-08-19T17:30:20.000Z</time>
      </trkpt>
      <trkpt lat="48.60248" lon="7.17031">
        <ele>652.72</ele>
        <time>2020-08-19T17:30:24.000Z</time>
      </trkpt>
      <trkpt lat="48.60245" lon="7.17037">
        <ele>651.74</ele>
        <time>2020-08-19T17:30:27.000Z</time>
      </trkpt>
      <trkpt lat="48.60242" lon="7.17044">
        <ele>651.72</ele>
        <time>2020-08-19T17:30:31.000Z</time>
      </trkpt>
      <trkpt lat="48.6024" lon="7.1705">
        <ele>652.03</ele>
        <time>2020-08-19T17:30:35.000Z</time>
      </trkpt>
      <trkpt lat="48.60239" lon="7.17058">
        <ele>655.13</ele>
        <time>2020-08-19T17:30:40.000Z</time>
      </trkpt>
      <trkpt lat="48.60237" lon="7.17066">
        <ele>654.76</ele>
        <time>2020-08-19T17:30:45.000Z</time>
      </trkpt>
      <trkpt lat="48.60236" lon="7.17073">
        <ele>655.08</ele>
        <time>2020-08-19T17:30:51.000Z</time>
      </trkpt>
      <trkpt lat="48.60232" lon="7.17078">
        <ele>655.87</ele>
        <time>2020-08-19T17:30:54.000Z</time>
      </trkpt>
      <trkpt lat="48.60231" lon="7.17085">
        <ele>656.4</ele>
        <time>2020-08-19T17:30:58.000Z</time>
      </trkpt>
      <trkpt lat="48.60231" lon="7.17092">
        <ele>657.47</ele>
        <time>2020-08-19T17:31:03.000Z</time>
      </trkpt>
      <trkpt lat="48.60232" lon="7.17101">
        <ele>658.54</ele>
        <time>2020-08-19T17:31:08.000Z</time>
      </trkpt>
      <trkpt lat="48.60232" lon="7.17108">
        <ele>657.05</ele>
        <time>2020-08-19T17:31:12.000Z</time>
      </trkpt>
      <trkpt lat="48.60231" lon="7.17116">
        <ele>660.07</ele>
        <time>2020-08-19T17:31:16.000Z</time>
      </trkpt>
      <trkpt lat="48.60228" lon="7.17123">
        <ele>659.98</ele>
        <time>2020-08-19T17:31:20.000Z</time>
      </trkpt>
      <trkpt lat="48.60225" lon="7.17128">
        <ele>658.25</ele>
        <time>2020-08-19T17:31:23.000Z</time>
      </trkpt>
      <trkpt lat="48.60222" lon="7.17136">
        <ele>660.08</ele>
        <time>2020-08-19T17:31:27.000Z</time>
      </trkpt>
      <trkpt lat="48.60219" lon="7.17141">
        <ele>659.97</ele>
        <time>2020-08-19T17:31:31.000Z</time>
      </trkpt>
      <trkpt lat="48.60216" lon="7.17146">
        <ele>660.31</ele>
        <time>2020-08-19T17:31:35.000Z</time>
      </trkpt>
      <trkpt lat="48.60211" lon="7.1715">
        <ele>660.59</ele>
        <time>2020-08-19T17:31:39.000Z</time>
      </trkpt>
      <trkpt lat="48.60207" lon="7.17155">
        <ele>660.35</ele>
        <time>2020-08-19T17:31:44.000Z</time>
      </trkpt>
      <trkpt lat="48.60203" lon="7.1716">
        <ele>660.35</ele>
        <time>2020-08-19T17:31:48.000Z</time>
      </trkpt>
      <trkpt lat="48.602" lon="7.17165">
        <ele>662.34</ele>
        <time>2020-08-19T17:31:54.000Z</time>
      </trkpt>
      <trkpt lat="48.60198" lon="7.17172">
        <ele>663.9</ele>
        <time>2020-08-19T17:31:58.000Z</time>
      </trkpt>
      <trkpt lat="48.60173" lon="7.17247">
        <ele>662.72</ele>
        <time>2020-08-19T17:32:36.000Z</time>
      </trkpt>
      <trkpt lat="48.60172" lon="7.17254">
        <ele>665.71</ele>
        <time>2020-08-19T17:32:41.000Z</time>
      </trkpt>
      <trkpt lat="48.60169" lon="7.17258">
        <ele>664.28</ele>
        <time>2020-08-19T17:32:49.000Z</time>
      </trkpt>
      <trkpt lat="48.60172" lon="7.17264">
        <ele>662.03</ele>
        <time>2020-08-19T17:33:00.000Z</time>
      </trkpt>
      <trkpt lat="48.60171" lon="7.17271">
        <ele>660.41</ele>
        <time>2020-08-19T17:33:10.000Z</time>
      </trkpt>
      <trkpt lat="48.60173" lon="7.17278">
        <ele>659.06</ele>
        <time>2020-08-19T17:33:15.000Z</time>
      </trkpt>
      <trkpt lat="48.6017" lon="7.17284">
        <ele>659.85</ele>
        <time>2020-08-19T17:33:21.000Z</time>
      </trkpt>
      <trkpt lat="48.60167" lon="7.1729">
        <ele>659.79</ele>
        <time>2020-08-19T17:33:25.000Z</time>
      </trkpt>
      <trkpt lat="48.60164" lon="7.17296">
        <ele>660.22</ele>
        <time>2020-08-19T17:33:28.000Z</time>
      </trkpt>
      <trkpt lat="48.60163" lon="7.17303">
        <ele>659.87</ele>
        <time>2020-08-19T17:33:32.000Z</time>
      </trkpt>
      <trkpt lat="48.60162" lon="7.1731">
        <ele>659.39</ele>
        <time>2020-08-19T17:33:36.000Z</time>
      </trkpt>
      <trkpt lat="48.60159" lon="7.17317">
        <ele>659.6</ele>
        <time>2020-08-19T17:33:45.000Z</time>
      </trkpt>
      <trkpt lat="48.60158" lon="7.17325">
        <ele>662.07</ele>
        <time>2020-08-19T17:33:51.000Z</time>
      </trkpt>
      <trkpt lat="48.60156" lon="7.17332">
        <ele>662.08</ele>
        <time>2020-08-19T17:33:55.000Z</time>
      </trkpt>
      <trkpt lat="48.60155" lon="7.17338">
        <ele>663.33</ele>
        <time>2020-08-19T17:33:59.000Z</time>
      </trkpt>
      <trkpt lat="48.60153" lon="7.17346">
        <ele>663.68</ele>
        <time>2020-08-19T17:34:03.000Z</time>
      </trkpt>
      <trkpt lat="48.60153" lon="7.17354">
        <ele>662.77</ele>
        <time>2020-08-19T17:34:07.000Z</time>
      </trkpt>
      <trkpt lat="48.60152" lon="7.17362">
        <ele>662.86</ele>
        <time>2020-08-19T17:34:11.000Z</time>
      </trkpt>
      <trkpt lat="48.60152" lon="7.17369">
        <ele>659.9</ele>
        <time>2020-08-19T17:34:43.000Z</time>
      </trkpt>
      <trkpt lat="48.60153" lon="7.17377">
        <ele>663.23</ele>
        <time>2020-08-19T17:34:47.000Z</time>
      </trkpt>
      <trkpt lat="48.60153" lon="7.17384">
        <ele>661.27</ele>
        <time>2020-08-19T17:34:51.000Z</time>
      </trkpt>
      <trkpt lat="48.60154" lon="7.17392">
        <ele>659.08</ele>
        <time>2020-08-19T17:34:54.000Z</time>
      </trkpt>
      <trkpt lat="48.60153" lon="7.174">
        <ele>657.46</ele>
        <time>2020-08-19T17:34:58.000Z</time>
      </trkpt>
      <trkpt lat="48.60152" lon="7.17408">
        <ele>654.51</ele>
        <time>2020-08-19T17:35:02.000Z</time>
      </trkpt>
      <trkpt lat="48.6015" lon="7.17415">
        <ele>652.18</ele>
        <time>2020-08-19T17:35:05.000Z</time>
      </trkpt>
      <trkpt lat="48.60147" lon="7.17422">
        <ele>652.65</ele>
        <time>2020-08-19T17:35:09.000Z</time>
      </trkpt>
      <trkpt lat="48.60147" lon="7.17429">
        <ele>652.76</ele>
        <time>2020-08-19T17:35:13.000Z</time>
      </trkpt>
      <trkpt lat="48.60145" lon="7.17437">
        <ele>650.14</ele>
        <time>2020-08-19T17:35:17.000Z</time>
      </trkpt>
      <trkpt lat="48.60145" lon="7.17446">
        <ele>650.65</ele>
        <time>2020-08-19T17:35:21.000Z</time>
      </trkpt>
      <trkpt lat="48.60145" lon="7.17453">
        <ele>652.8</ele>
        <time>2020-08-19T17:35:25.000Z</time>
      </trkpt>
      <trkpt lat="48.60147" lon="7.17461">
        <ele>654.4</ele>
        <time>2020-08-19T17:35:29.000Z</time>
      </trkpt>
      <trkpt lat="48.60148" lon="7.17468">
        <ele>653.69</ele>
        <time>2020-08-19T17:35:32.000Z</time>
      </trkpt>
      <trkpt lat="48.60148" lon="7.17476">
        <ele>654.17</ele>
        <time>2020-08-19T17:35:36.000Z</time>
      </trkpt>
      <trkpt lat="48.60148" lon="7.17484">
        <ele>656.77</ele>
        <time>2020-08-19T17:35:40.000Z</time>
      </trkpt>
      <trkpt lat="48.60147" lon="7.17491">
        <ele>656.38</ele>
        <time>2020-08-19T17:35:44.000Z</time>
      </trkpt>
      <trkpt lat="48.60147" lon="7.17499">
        <ele>658.29</ele>
        <time>2020-08-19T17:35:49.000Z</time>
      </trkpt>
      <trkpt lat="48.60146" lon="7.17507">
        <ele>594.96</ele>
        <time>2020-08-19T17:35:53.000Z</time>
      </trkpt>
      <trkpt lat="48.60146" lon="7.17515">
        <ele>632.32</ele>
        <time>2020-08-19T17:35:57.000Z</time>
      </trkpt>
      <trkpt lat="48.60147" lon="7.17523">
        <ele>651.87</ele>
        <time>2020-08-19T17:36:02.000Z</time>
      </trkpt>
      <trkpt lat="48.6015" lon="7.17528">
        <ele>655.54</ele>
        <time>2020-08-19T17:36:06.000Z</time>
      </trkpt>
      <trkpt lat="48.60152" lon="7.17535">
        <ele>660.49</ele>
        <time>2020-08-19T17:36:10.000Z</time>
      </trkpt>
      <trkpt lat="48.60154" lon="7.17541">
        <ele>598.72</ele>
        <time>2020-08-19T17:36:14.000Z</time>
      </trkpt>
      <trkpt lat="48.60155" lon="7.1755">
        <ele>638.73</ele>
        <time>2020-08-19T17:36:18.000Z</time>
      </trkpt>
      <trkpt lat="48.60155" lon="7.17558">
        <ele>650.05</ele>
        <time>2020-08-19T17:36:21.000Z</time>
      </trkpt>
      <trkpt lat="48.60155" lon="7.17565">
        <ele>655.7</ele>
        <time>2020-08-19T17:36:24.000Z</time>
      </trkpt>
      <trkpt lat="48.60156" lon="7.17572">
        <ele>654.82</ele>
        <time>2020-08-19T17:36:27.000Z</time>
      </trkpt>
      <trkpt lat="48.60156" lon="7.17581">
        <ele>656.81</ele>
        <time>2020-08-19T17:36:31.000Z</time>
      </trkpt>
      <trkpt lat="48.60158" lon="7.17587">
        <ele>657.56</ele>
        <time>2020-08-19T17:36:34.000Z</time>
      </trkpt>
      <trkpt lat="48.60164" lon="7.17723">
        <ele>661.53</ele>
        <time>2020-08-19T17:37:10.000Z</time>
      </trkpt>
      <trkpt lat="48.60167" lon="7.17728">
        <ele>657.82</ele>
        <time>2020-08-19T17:37:21.000Z</time>
      </trkpt>
      <trkpt lat="48.60169" lon="7.17734">
        <ele>658.94</ele>
        <time>2020-08-19T17:37:26.000Z</time>
      </trkpt>
      <trkpt lat="48.60166" lon="7.1774">
        <ele>657.9</ele>
        <time>2020-08-19T17:37:31.000Z</time>
      </trkpt>
      <trkpt lat="48.60162" lon="7.17745">
        <ele>657.15</ele>
        <time>2020-08-19T17:37:35.000Z</time>
      </trkpt>
      <trkpt lat="48.60158" lon="7.17751">
        <ele>657.15</ele>
        <time>2020-08-19T17:37:40.000Z</time>
      </trkpt>
      <trkpt lat="48.60157" lon="7.17758">
        <ele>655.43</ele>
        <time>2020-08-19T17:37:55.000Z</time>
      </trkpt>
      <trkpt lat="48.60153" lon="7.17764">
        <ele>657.76</ele>
        <time>2020-08-19T17:37:59.000Z</time>
      </trkpt>
      <trkpt lat="48.60155" lon="7.17771">
        <ele>656.75</ele>
        <time>2020-08-19T17:38:05.000Z</time>
      </trkpt>
      <trkpt lat="48.60151" lon="7.17776">
        <ele>657.21</ele>
        <time>2020-08-19T17:38:10.000Z</time>
      </trkpt>
      <trkpt lat="48.60146" lon="7.17788">
        <ele>653.96</ele>
        <time>2020-08-19T17:38:23.000Z</time>
      </trkpt>
      <trkpt lat="48.60146" lon="7.17795">
        <ele>653.18</ele>
        <time>2020-08-19T17:38:30.000Z</time>
      </trkpt>
      <trkpt lat="48.60138" lon="7.17818">
        <ele>646.09</ele>
        <time>2020-08-19T17:38:45.000Z</time>
      </trkpt>
      <trkpt lat="48.60136" lon="7.17825">
        <ele>644.78</ele>
        <time>2020-08-19T17:38:49.000Z</time>
      </trkpt>
      <trkpt lat="48.60133" lon="7.1783">
        <ele>642.78</ele>
        <time>2020-08-19T17:38:54.000Z</time>
      </trkpt>
      <trkpt lat="48.60129" lon="7.17838">
        <ele>641.62</ele>
        <time>2020-08-19T17:39:04.000Z</time>
      </trkpt>
      <trkpt lat="48.60125" lon="7.17844">
        <ele>640.28</ele>
        <time>2020-08-19T17:39:06.000Z</time>
      </trkpt>
      <trkpt lat="48.60105" lon="7.17887">
        <ele>635.62</ele>
        <time>2020-08-19T17:39:14.000Z</time>
      </trkpt>
      <trkpt lat="48.60103" lon="7.17896">
        <ele>631.99</ele>
        <time>2020-08-19T17:39:16.000Z</time>
      </trkpt>
      <trkpt lat="48.60101" lon="7.17906">
        <ele>615.2</ele>
        <time>2020-08-19T17:39:50.000Z</time>
      </trkpt>
      <trkpt lat="48.60098" lon="7.17913">
        <ele>627.94</ele>
        <time>2020-08-19T17:39:52.000Z</time>
      </trkpt>
      <trkpt lat="48.60093" lon="7.17922">
        <ele>630.06</ele>
        <time>2020-08-19T17:39:54.000Z</time>
      </trkpt>
      <trkpt lat="48.60089" lon="7.17929">
        <ele>630.51</ele>
        <time>2020-08-19T17:39:56.000Z</time>
      </trkpt>
      <trkpt lat="48.60084" lon="7.17933">
        <ele>632.46</ele>
        <time>2020-08-19T17:39:58.000Z</time>
      </trkpt>
      <trkpt lat="48.60079" lon="7.17937">
        <ele>633.55</ele>
        <time>2020-08-19T17:40:00.000Z</time>
      </trkpt>
      <trkpt lat="48.60074" lon="7.17941">
        <ele>634.1</ele>
        <time>2020-08-19T17:40:02.000Z</time>
      </trkpt>
      <trkpt lat="48.60078" lon="7.17935">
        <ele>634.17</ele>
        <time>2020-08-19T17:40:19.000Z</time>
      </trkpt>
      <trkpt lat="48.60083" lon="7.17932">
        <ele>633.97</ele>
        <time>2020-08-19T17:40:21.000Z</time>
      </trkpt>
      <trkpt lat="48.60087" lon="7.17929">
        <ele>633.31</ele>
        <time>2020-08-19T17:40:23.000Z</time>
      </trkpt>
      <trkpt lat="48.60093" lon="7.17929">
        <ele>633.03</ele>
        <time>2020-08-19T17:40:25.000Z</time>
      </trkpt>
      <trkpt lat="48.60096" lon="7.17935">
        <ele>633.94</ele>
        <time>2020-08-19T17:40:27.000Z</time>
      </trkpt>
      <trkpt lat="48.60096" lon="7.17946">
        <ele>632.86</ele>
        <time>2020-08-19T17:40:29.000Z</time>
      </trkpt>
      <trkpt lat="48.60093" lon="7.17953">
        <ele>632.93</ele>
        <time>2020-08-19T17:40:32.000Z</time>
      </trkpt>
      <trkpt lat="48.60094" lon="7.17962">
        <ele>629.31</ele>
        <time>2020-08-19T17:40:39.000Z</time>
      </trkpt>
      <trkpt lat="48.60089" lon="7.17996">
        <ele>631.76</ele>
        <time>2020-08-19T17:40:45.000Z</time>
      </trkpt>
      <trkpt lat="48.60088" lon="7.18004">
        <ele>631.5</ele>
        <time>2020-08-19T17:40:46.000Z</time>
      </trkpt>
      <trkpt lat="48.60086" lon="7.18012">
        <ele>631.72</ele>
        <time>2020-08-19T17:40:47.000Z</time>
      </trkpt>
      <trkpt lat="48.60085" lon="7.18018">
        <ele>631.45</ele>
        <time>2020-08-19T17:40:48.000Z</time>
      </trkpt>
      <trkpt lat="48.60083" lon="7.18027">
        <ele>631.19</ele>
        <time>2020-08-19T17:40:49.000Z</time>
      </trkpt>
      <trkpt lat="48.60082" lon="7.18036">
        <ele>630.76</ele>
        <time>2020-08-19T17:40:50.000Z</time>
      </trkpt>
      <trkpt lat="48.6008" lon="7.18043">
        <ele>630.25</ele>
        <time>2020-08-19T17:40:51.000Z</time>
      </trkpt>
      <trkpt lat="48.60075" lon="7.18051">
        <ele>629.31</ele>
        <time>2020-08-19T17:40:52.000Z</time>
      </trkpt>
      <trkpt lat="48.60073" lon="7.1806">
        <ele>627.9</ele>
        <time>2020-08-19T17:40:53.000Z</time>
      </trkpt>
      <trkpt lat="48.60072" lon="7.18069">
        <ele>629.08</ele>
        <time>2020-08-19T17:40:54.000Z</time>
      </trkpt>
      <trkpt lat="48.6007" lon="7.18077">
        <ele>626.78</ele>
        <time>2020-08-19T17:40:55.000Z</time>
      </trkpt>
      <trkpt lat="48.60067" lon="7.18087">
        <ele>625.08</ele>
        <time>2020-08-19T17:40:56.000Z</time>
      </trkpt>
      <trkpt lat="48.60067" lon="7.18099">
        <ele>623.75</ele>
        <time>2020-08-19T17:40:57.000Z</time>
      </trkpt>
      <trkpt lat="48.60066" lon="7.18109">
        <ele>623.57</ele>
        <time>2020-08-19T17:40:58.000Z</time>
      </trkpt>
      <trkpt lat="48.60065" lon="7.18118">
        <ele>623.37</ele>
        <time>2020-08-19T17:40:59.000Z</time>
      </trkpt>
      <trkpt lat="48.60064" lon="7.18131">
        <ele>624.65</ele>
        <time>2020-08-19T17:41:00.000Z</time>
      </trkpt>
      <trkpt lat="48.60064" lon="7.18142">
        <ele>625.1</ele>
        <time>2020-08-19T17:41:01.000Z</time>
      </trkpt>
      <trkpt lat="48.60064" lon="7.18155">
        <ele>625.11</ele>
        <time>2020-08-19T17:41:02.000Z</time>
      </trkpt>
      <trkpt lat="48.60062" lon="7.18167">
        <ele>623.61</ele>
        <time>2020-08-19T17:41:03.000Z</time>
      </trkpt>
      <trkpt lat="48.60061" lon="7.18178">
        <ele>621.99</ele>
        <time>2020-08-19T17:41:04.000Z</time>
      </trkpt>
      <trkpt lat="48.6006" lon="7.18192">
        <ele>622.06</ele>
        <time>2020-08-19T17:41:05.000Z</time>
      </trkpt>
      <trkpt lat="48.6006" lon="7.18205">
        <ele>621.9</ele>
        <time>2020-08-19T17:41:06.000Z</time>
      </trkpt>
      <trkpt lat="48.60059" lon="7.18216">
        <ele>620.29</ele>
        <time>2020-08-19T17:41:07.000Z</time>
      </trkpt>
      <trkpt lat="48.60057" lon="7.18227">
        <ele>619.75</ele>
        <time>2020-08-19T17:41:08.000Z</time>
      </trkpt>
      <trkpt lat="48.60058" lon="7.18238">
        <ele>619.92</ele>
        <time>2020-08-19T17:41:09.000Z</time>
      </trkpt>
      <trkpt lat="48.60059" lon="7.18249">
        <ele>620.2</ele>
        <time>2020-08-19T17:41:10.000Z</time>
      </trkpt>
      <trkpt lat="48.60061" lon="7.18261">
        <ele>619.76</ele>
        <time>2020-08-19T17:41:11.000Z</time>
      </trkpt>
      <trkpt lat="48.60063" lon="7.18271">
        <ele>618.56</ele>
        <time>2020-08-19T17:41:12.000Z</time>
      </trkpt>
      <trkpt lat="48.60067" lon="7.18281">
        <ele>616.75</ele>
        <time>2020-08-19T17:41:13.000Z</time>
      </trkpt>
      <trkpt lat="48.60074" lon="7.18291">
        <ele>617.55</ele>
        <time>2020-08-19T17:41:14.000Z</time>
      </trkpt>
      <trkpt lat="48.6008" lon="7.18302">
        <ele>616.56</ele>
        <time>2020-08-19T17:41:15.000Z</time>
      </trkpt>
      <trkpt lat="48.60086" lon="7.1831">
        <ele>616.16</ele>
        <time>2020-08-19T17:41:16.000Z</time>
      </trkpt>
      <trkpt lat="48.60094" lon="7.1832">
        <ele>615.05</ele>
        <time>2020-08-19T17:41:17.000Z</time>
      </trkpt>
      <trkpt lat="48.60102" lon="7.18329">
        <ele>612.83</ele>
        <time>2020-08-19T17:41:18.000Z</time>
      </trkpt>
      <trkpt lat="48.60109" lon="7.18337">
        <ele>612.99</ele>
        <time>2020-08-19T17:41:19.000Z</time>
      </trkpt>
      <trkpt lat="48.60116" lon="7.18343">
        <ele>613.05</ele>
        <time>2020-08-19T17:41:20.000Z</time>
      </trkpt>
      <trkpt lat="48.60124" lon="7.1835">
        <ele>612.28</ele>
        <time>2020-08-19T17:41:21.000Z</time>
      </trkpt>
      <trkpt lat="48.60131" lon="7.18357">
        <ele>612</ele>
        <time>2020-08-19T17:41:22.000Z</time>
      </trkpt>
      <trkpt lat="48.60138" lon="7.18363">
        <ele>610.78</ele>
        <time>2020-08-19T17:41:23.000Z</time>
      </trkpt>
      <trkpt lat="48.60146" lon="7.1837">
        <ele>610.34</ele>
        <time>2020-08-19T17:41:24.000Z</time>
      </trkpt>
      <trkpt lat="48.60152" lon="7.18379">
        <ele>610.76</ele>
        <time>2020-08-19T17:41:25.000Z</time>
      </trkpt>
      <trkpt lat="48.60161" lon="7.18385">
        <ele>610.19</ele>
        <time>2020-08-19T17:41:26.000Z</time>
      </trkpt>
      <trkpt lat="48.60167" lon="7.18394">
        <ele>610.3</ele>
        <time>2020-08-19T17:41:27.000Z</time>
      </trkpt>
      <trkpt lat="48.60172" lon="7.18406">
        <ele>607.32</ele>
        <time>2020-08-19T17:41:28.000Z</time>
      </trkpt>
      <trkpt lat="48.60178" lon="7.18417">
        <ele>607.38</ele>
        <time>2020-08-19T17:41:29.000Z</time>
      </trkpt>
      <trkpt lat="48.60183" lon="7.18428">
        <ele>606.98</ele>
        <time>2020-08-19T17:41:30.000Z</time>
      </trkpt>
      <trkpt lat="48.60187" lon="7.18439">
        <ele>606.6</ele>
        <time>2020-08-19T17:41:31.000Z</time>
      </trkpt>
      <trkpt lat="48.60192" lon="7.18448">
        <ele>606.78</ele>
        <time>2020-08-19T17:41:32.000Z</time>
      </trkpt>
      <trkpt lat="48.60196" lon="7.18457">
        <ele>606.93</ele>
        <time>2020-08-19T17:41:33.000Z</time>
      </trkpt>
      <trkpt lat="48.60201" lon="7.18466">
        <ele>606.84</ele>
        <time>2020-08-19T17:41:34.000Z</time>
      </trkpt>
      <trkpt lat="48.60205" lon="7.18475">
        <ele>606.44</ele>
        <time>2020-08-19T17:41:35.000Z</time>
      </trkpt>
      <trkpt lat="48.60208" lon="7.18485">
        <ele>604.96</ele>
        <time>2020-08-19T17:41:36.000Z</time>
      </trkpt>
      <trkpt lat="48.60212" lon="7.18497">
        <ele>604.6</ele>
        <time>2020-08-19T17:41:37.000Z</time>
      </trkpt>
      <trkpt lat="48.60217" lon="7.18506">
        <ele>603.71</ele>
        <time>2020-08-19T17:41:38.000Z</time>
      </trkpt>
      <trkpt lat="48.60221" lon="7.18516">
        <ele>602.78</ele>
        <time>2020-08-19T17:41:39.000Z</time>
      </trkpt>
      <trkpt lat="48.60225" lon="7.18527">
        <ele>603.5</ele>
        <time>2020-08-19T17:41:40.000Z</time>
      </trkpt>
      <trkpt lat="48.60229" lon="7.1854">
        <ele>603.21</ele>
        <time>2020-08-19T17:41:41.000Z</time>
      </trkpt>
      <trkpt lat="48.60233" lon="7.18551">
        <ele>603.06</ele>
        <time>2020-08-19T17:41:42.000Z</time>
      </trkpt>
      <trkpt lat="48.60239" lon="7.18562">
        <ele>602.24</ele>
        <time>2020-08-19T17:41:43.000Z</time>
      </trkpt>
      <trkpt lat="48.60243" lon="7.18575">
        <ele>602.43</ele>
        <time>2020-08-19T17:41:44.000Z</time>
      </trkpt>
      <trkpt lat="48.60248" lon="7.18586">
        <ele>602.36</ele>
        <time>2020-08-19T17:41:45.000Z</time>
      </trkpt>
      <trkpt lat="48.60253" lon="7.18597">
        <ele>600.87</ele>
        <time>2020-08-19T17:41:46.000Z</time>
      </trkpt>
      <trkpt lat="48.60259" lon="7.1861">
        <ele>599.73</ele>
        <time>2020-08-19T17:41:47.000Z</time>
      </trkpt>
      <trkpt lat="48.60266" lon="7.18619">
        <ele>597.9</ele>
        <time>2020-08-19T17:41:48.000Z</time>
      </trkpt>
      <trkpt lat="48.60274" lon="7.18628">
        <ele>597.7</ele>
        <time>2020-08-19T17:41:49.000Z</time>
      </trkpt>
      <trkpt lat="48.60281" lon="7.18636">
        <ele>596.58</ele>
        <time>2020-08-19T17:41:50.000Z</time>
      </trkpt>
      <trkpt lat="48.60289" lon="7.18643">
        <ele>595.97</ele>
        <time>2020-08-19T17:41:51.000Z</time>
      </trkpt>
      <trkpt lat="48.60297" lon="7.18649">
        <ele>594.9</ele>
        <time>2020-08-19T17:41:52.000Z</time>
      </trkpt>
      <trkpt lat="48.60305" lon="7.18653">
        <ele>595.87</ele>
        <time>2020-08-19T17:41:53.000Z</time>
      </trkpt>
      <trkpt lat="48.60311" lon="7.18657">
        <ele>595.17</ele>
        <time>2020-08-19T17:41:54.000Z</time>
      </trkpt>
      <trkpt lat="48.60316" lon="7.18659">
        <ele>593.25</ele>
        <time>2020-08-19T17:41:55.000Z</time>
      </trkpt>
      <trkpt lat="48.60321" lon="7.18659">
        <ele>592.98</ele>
        <time>2020-08-19T17:41:56.000Z</time>
      </trkpt>
      <trkpt lat="48.60326" lon="7.18659">
        <ele>591.24</ele>
        <time>2020-08-19T17:42:10.000Z</time>
      </trkpt>
      <trkpt lat="48.60331" lon="7.18665">
        <ele>590.52</ele>
        <time>2020-08-19T17:42:12.000Z</time>
      </trkpt>
      <trkpt lat="48.60334" lon="7.18672">
        <ele>588.37</ele>
        <time>2020-08-19T17:42:13.000Z</time>
      </trkpt>
      <trkpt lat="48.60338" lon="7.18682">
        <ele>588.61</ele>
        <time>2020-08-19T17:42:15.000Z</time>
      </trkpt>
      <trkpt lat="48.60343" lon="7.18692">
        <ele>587.47</ele>
        <time>2020-08-19T17:42:17.000Z</time>
      </trkpt>
      <trkpt lat="48.60348" lon="7.18702">
        <ele>586.87</ele>
        <time>2020-08-19T17:42:19.000Z</time>
      </trkpt>
      <trkpt lat="48.60353" lon="7.18711">
        <ele>585.58</ele>
        <time>2020-08-19T17:42:21.000Z</time>
      </trkpt>
      <trkpt lat="48.60362" lon="7.18719">
        <ele>582.74</ele>
        <time>2020-08-19T17:42:23.000Z</time>
      </trkpt>
      <trkpt lat="48.60369" lon="7.18727">
        <ele>583.85</ele>
        <time>2020-08-19T17:42:25.000Z</time>
      </trkpt>
      <trkpt lat="48.60375" lon="7.1873">
        <ele>584.43</ele>
        <time>2020-08-19T17:42:27.000Z</time>
      </trkpt>
      <trkpt lat="48.6038" lon="7.18725">
        <ele>584.7</ele>
        <time>2020-08-19T17:42:45.000Z</time>
      </trkpt>
      <trkpt lat="48.60385" lon="7.1872">
        <ele>586</ele>
        <time>2020-08-19T17:42:48.000Z</time>
      </trkpt>
      <trkpt lat="48.6039" lon="7.18714">
        <ele>584.64</ele>
        <time>2020-08-19T17:42:50.000Z</time>
      </trkpt>
      <trkpt lat="48.60397" lon="7.18709">
        <ele>581.73</ele>
        <time>2020-08-19T17:42:52.000Z</time>
      </trkpt>
      <trkpt lat="48.60405" lon="7.18705">
        <ele>581.69</ele>
        <time>2020-08-19T17:42:54.000Z</time>
      </trkpt>
      <trkpt lat="48.60412" lon="7.18703">
        <ele>580.76</ele>
        <time>2020-08-19T17:42:55.000Z</time>
      </trkpt>
      <trkpt lat="48.60417" lon="7.18699">
        <ele>540.1</ele>
        <time>2020-08-19T17:42:56.000Z</time>
      </trkpt>
      <trkpt lat="48.60422" lon="7.18698">
        <ele>549.3</ele>
        <time>2020-08-19T17:42:57.000Z</time>
      </trkpt>
      <trkpt lat="48.60428" lon="7.18696">
        <ele>555.61</ele>
        <time>2020-08-19T17:42:58.000Z</time>
      </trkpt>
      <trkpt lat="48.60436" lon="7.18696">
        <ele>566.29</ele>
        <time>2020-08-19T17:43:00.000Z</time>
      </trkpt>
      <trkpt lat="48.60445" lon="7.18696">
        <ele>576.14</ele>
        <time>2020-08-19T17:43:02.000Z</time>
      </trkpt>
      <trkpt lat="48.60451" lon="7.18695">
        <ele>577.34</ele>
        <time>2020-08-19T17:43:03.000Z</time>
      </trkpt>
      <trkpt lat="48.60456" lon="7.18696">
        <ele>578.02</ele>
        <time>2020-08-19T17:43:04.000Z</time>
      </trkpt>
      <trkpt lat="48.60464" lon="7.18696">
        <ele>579.61</ele>
        <time>2020-08-19T17:43:05.000Z</time>
      </trkpt>
      <trkpt lat="48.60501" lon="7.18708">
        <ele>580.81</ele>
        <time>2020-08-19T17:43:10.000Z</time>
      </trkpt>
      <trkpt lat="48.60508" lon="7.18711">
        <ele>582.41</ele>
        <time>2020-08-19T17:43:11.000Z</time>
      </trkpt>
      <trkpt lat="48.60516" lon="7.18716">
        <ele>580.63</ele>
        <time>2020-08-19T17:43:12.000Z</time>
      </trkpt>
      <trkpt lat="48.60524" lon="7.18719">
        <ele>579.16</ele>
        <time>2020-08-19T17:43:13.000Z</time>
      </trkpt>
      <trkpt lat="48.60531" lon="7.18725">
        <ele>578.9</ele>
        <time>2020-08-19T17:43:14.000Z</time>
      </trkpt>
      <trkpt lat="48.60539" lon="7.18728">
        <ele>578.54</ele>
        <time>2020-08-19T17:43:15.000Z</time>
      </trkpt>
      <trkpt lat="48.60547" lon="7.18733">
        <ele>578.37</ele>
        <time>2020-08-19T17:43:16.000Z</time>
      </trkpt>
      <trkpt lat="48.60555" lon="7.18738">
        <ele>579.35</ele>
        <time>2020-08-19T17:43:17.000Z</time>
      </trkpt>
      <trkpt lat="48.60563" lon="7.18742">
        <ele>580.64</ele>
        <time>2020-08-19T17:43:18.000Z</time>
      </trkpt>
      <trkpt lat="48.6057" lon="7.18746">
        <ele>581.24</ele>
        <time>2020-08-19T17:43:19.000Z</time>
      </trkpt>
      <trkpt lat="48.60579" lon="7.18751">
        <ele>581.85</ele>
        <time>2020-08-19T17:43:20.000Z</time>
      </trkpt>
      <trkpt lat="48.60586" lon="7.18755">
        <ele>581.52</ele>
        <time>2020-08-19T17:43:21.000Z</time>
      </trkpt>
      <trkpt lat="48.60593" lon="7.1876">
        <ele>583.34</ele>
        <time>2020-08-19T17:43:22.000Z</time>
      </trkpt>
      <trkpt lat="48.60602" lon="7.18763">
        <ele>585.34</ele>
        <time>2020-08-19T17:43:23.000Z</time>
      </trkpt>
      <trkpt lat="48.60612" lon="7.18765">
        <ele>587.11</ele>
        <time>2020-08-19T17:43:24.000Z</time>
      </trkpt>
      <trkpt lat="48.60619" lon="7.18768">
        <ele>586.57</ele>
        <time>2020-08-19T17:43:25.000Z</time>
      </trkpt>
      <trkpt lat="48.60628" lon="7.1877">
        <ele>585.8</ele>
        <time>2020-08-19T17:43:26.000Z</time>
      </trkpt>
      <trkpt lat="48.60636" lon="7.18774">
        <ele>585.73</ele>
        <time>2020-08-19T17:43:27.000Z</time>
      </trkpt>
      <trkpt lat="48.60645" lon="7.18776">
        <ele>584.85</ele>
        <time>2020-08-19T17:43:28.000Z</time>
      </trkpt>
      <trkpt lat="48.60656" lon="7.18776">
        <ele>584.83</ele>
        <time>2020-08-19T17:43:29.000Z</time>
      </trkpt>
      <trkpt lat="48.60664" lon="7.18777">
        <ele>585.1</ele>
        <time>2020-08-19T17:43:30.000Z</time>
      </trkpt>
      <trkpt lat="48.60671" lon="7.18777">
        <ele>584.58</ele>
        <time>2020-08-19T17:43:31.000Z</time>
      </trkpt>
      <trkpt lat="48.60679" lon="7.18776">
        <ele>585.7</ele>
        <time>2020-08-19T17:43:32.000Z</time>
      </trkpt>
      <trkpt lat="48.60687" lon="7.18773">
        <ele>586.04</ele>
        <time>2020-08-19T17:43:33.000Z</time>
      </trkpt>
      <trkpt lat="48.60694" lon="7.18767">
        <ele>585.64</ele>
        <time>2020-08-19T17:43:34.000Z</time>
      </trkpt>
      <trkpt lat="48.60699" lon="7.1876">
        <ele>584.92</ele>
        <time>2020-08-19T17:43:35.000Z</time>
      </trkpt>
      <trkpt lat="48.60702" lon="7.18751">
        <ele>585.26</ele>
        <time>2020-08-19T17:43:36.000Z</time>
      </trkpt>
      <trkpt lat="48.60705" lon="7.18739">
        <ele>584.83</ele>
        <time>2020-08-19T17:43:37.000Z</time>
      </trkpt>
      <trkpt lat="48.60707" lon="7.18727">
        <ele>585.29</ele>
        <time>2020-08-19T17:43:38.000Z</time>
      </trkpt>
      <trkpt lat="48.60709" lon="7.18714">
        <ele>586.01</ele>
        <time>2020-08-19T17:43:39.000Z</time>
      </trkpt>
      <trkpt lat="48.60712" lon="7.18703">
        <ele>584.83</ele>
        <time>2020-08-19T17:43:40.000Z</time>
      </trkpt>
      <trkpt lat="48.60713" lon="7.18689">
        <ele>585.34</ele>
        <time>2020-08-19T17:43:41.000Z</time>
      </trkpt>
      <trkpt lat="48.60713" lon="7.18676">
        <ele>585.12</ele>
        <time>2020-08-19T17:43:42.000Z</time>
      </trkpt>
      <trkpt lat="48.60715" lon="7.18661">
        <ele>587.21</ele>
        <time>2020-08-19T17:43:43.000Z</time>
      </trkpt>
      <trkpt lat="48.60716" lon="7.18648">
        <ele>587.44</ele>
        <time>2020-08-19T17:43:44.000Z</time>
      </trkpt>
      <trkpt lat="48.60717" lon="7.18636">
        <ele>586.79</ele>
        <time>2020-08-19T17:43:45.000Z</time>
      </trkpt>
      <trkpt lat="48.60717" lon="7.18621">
        <ele>585.08</ele>
        <time>2020-08-19T17:43:46.000Z</time>
      </trkpt>
      <trkpt lat="48.60718" lon="7.18608">
        <ele>585.66</ele>
        <time>2020-08-19T17:43:47.000Z</time>
      </trkpt>
      <trkpt lat="48.60719" lon="7.18594">
        <ele>584.36</ele>
        <time>2020-08-19T17:43:48.000Z</time>
      </trkpt>
      <trkpt lat="48.60721" lon="7.18581">
        <ele>583.77</ele>
        <time>2020-08-19T17:43:49.000Z</time>
      </trkpt>
      <trkpt lat="48.60721" lon="7.18568">
        <ele>583.86</ele>
        <time>2020-08-19T17:43:50.000Z</time>
      </trkpt>
      <trkpt lat="48.60722" lon="7.18555">
        <ele>583.78</ele>
        <time>2020-08-19T17:43:51.000Z</time>
      </trkpt>
      <trkpt lat="48.60724" lon="7.18543">
        <ele>583.72</ele>
        <time>2020-08-19T17:43:52.000Z</time>
      </trkpt>
      <trkpt lat="48.60726" lon="7.1853">
        <ele>583.59</ele>
        <time>2020-08-19T17:43:53.000Z</time>
      </trkpt>
      <trkpt lat="48.60729" lon="7.18518">
        <ele>583.68</ele>
        <time>2020-08-19T17:43:54.000Z</time>
      </trkpt>
      <trkpt lat="48.60732" lon="7.18506">
        <ele>584.1</ele>
        <time>2020-08-19T17:43:55.000Z</time>
      </trkpt>
      <trkpt lat="48.60735" lon="7.18494">
        <ele>583.14</ele>
        <time>2020-08-19T17:43:56.000Z</time>
      </trkpt>
      <trkpt lat="48.60738" lon="7.18482">
        <ele>583.25</ele>
        <time>2020-08-19T17:43:57.000Z</time>
      </trkpt>
      <trkpt lat="48.60741" lon="7.1847">
        <ele>582.52</ele>
        <time>2020-08-19T17:43:58.000Z</time>
      </trkpt>
      <trkpt lat="48.60745" lon="7.18458">
        <ele>581.82</ele>
        <time>2020-08-19T17:43:59.000Z</time>
      </trkpt>
      <trkpt lat="48.60749" lon="7.18447">
        <ele>581.63</ele>
        <time>2020-08-19T17:44:00.000Z</time>
      </trkpt>
      <trkpt lat="48.60754" lon="7.18436">
        <ele>580.9</ele>
        <time>2020-08-19T17:44:01.000Z</time>
      </trkpt>
      <trkpt lat="48.60759" lon="7.18427">
        <ele>580.66</ele>
        <time>2020-08-19T17:44:02.000Z</time>
      </trkpt>
      <trkpt lat="48.60764" lon="7.18418">
        <ele>580.38</ele>
        <time>2020-08-19T17:44:03.000Z</time>
      </trkpt>
      <trkpt lat="48.60769" lon="7.18408">
        <ele>579.94</ele>
        <time>2020-08-19T17:44:04.000Z</time>
      </trkpt>
      <trkpt lat="48.60775" lon="7.18398">
        <ele>578.78</ele>
        <time>2020-08-19T17:44:05.000Z</time>
      </trkpt>
      <trkpt lat="48.6078" lon="7.18387">
        <ele>577.72</ele>
        <time>2020-08-19T17:44:06.000Z</time>
      </trkpt>
      <trkpt lat="48.60784" lon="7.18379">
        <ele>576.88</ele>
        <time>2020-08-19T17:44:07.000Z</time>
      </trkpt>
      <trkpt lat="48.6079" lon="7.18373">
        <ele>575.94</ele>
        <time>2020-08-19T17:44:08.000Z</time>
      </trkpt>
      <trkpt lat="48.60795" lon="7.18362">
        <ele>575.69</ele>
        <time>2020-08-19T17:44:09.000Z</time>
      </trkpt>
      <trkpt lat="48.608" lon="7.18353">
        <ele>574.75</ele>
        <time>2020-08-19T17:44:10.000Z</time>
      </trkpt>
      <trkpt lat="48.60805" lon="7.18344">
        <ele>573.72</ele>
        <time>2020-08-19T17:44:11.000Z</time>
      </trkpt>
      <trkpt lat="48.60812" lon="7.18339">
        <ele>572.82</ele>
        <time>2020-08-19T17:44:12.000Z</time>
      </trkpt>
      <trkpt lat="48.60819" lon="7.18333">
        <ele>571</ele>
        <time>2020-08-19T17:44:13.000Z</time>
      </trkpt>
      <trkpt lat="48.60826" lon="7.1833">
        <ele>570.31</ele>
        <time>2020-08-19T17:44:14.000Z</time>
      </trkpt>
      <trkpt lat="48.60834" lon="7.18329">
        <ele>570.8</ele>
        <time>2020-08-19T17:44:15.000Z</time>
      </trkpt>
      <trkpt lat="48.6084" lon="7.18328">
        <ele>569.89</ele>
        <time>2020-08-19T17:44:16.000Z</time>
      </trkpt>
      <trkpt lat="48.60845" lon="7.18328">
        <ele>570.1</ele>
        <time>2020-08-19T17:44:17.000Z</time>
      </trkpt>
      <trkpt lat="48.6085" lon="7.18328">
        <ele>569.54</ele>
        <time>2020-08-19T17:44:38.000Z</time>
      </trkpt>
      <trkpt lat="48.60856" lon="7.18328">
        <ele>566.44</ele>
        <time>2020-08-19T17:44:40.000Z</time>
      </trkpt>
      <trkpt lat="48.60864" lon="7.18332">
        <ele>566.09</ele>
        <time>2020-08-19T17:44:42.000Z</time>
      </trkpt>
      <trkpt lat="48.60868" lon="7.18334">
        <ele>566.35</ele>
        <time>2020-08-19T17:44:43.000Z</time>
      </trkpt>
      <trkpt lat="48.60873" lon="7.18337">
        <ele>566.18</ele>
        <time>2020-08-19T17:44:44.000Z</time>
      </trkpt>
      <trkpt lat="48.60877" lon="7.1834">
        <ele>565.69</ele>
        <time>2020-08-19T17:44:45.000Z</time>
      </trkpt>
      <trkpt lat="48.60881" lon="7.18342">
        <ele>565.75</ele>
        <time>2020-08-19T17:44:46.000Z</time>
      </trkpt>
      <trkpt lat="48.60887" lon="7.1835">
        <ele>565.22</ele>
        <time>2020-08-19T17:44:48.000Z</time>
      </trkpt>
      <trkpt lat="48.60894" lon="7.18356">
        <ele>566.03</ele>
        <time>2020-08-19T17:44:50.000Z</time>
      </trkpt>
      <trkpt lat="48.60899" lon="7.1836">
        <ele>566.45</ele>
        <time>2020-08-19T17:44:52.000Z</time>
      </trkpt>
      <trkpt lat="48.60901" lon="7.18366">
        <ele>567.67</ele>
        <time>2020-08-19T17:45:11.000Z</time>
      </trkpt>
      <trkpt lat="48.60906" lon="7.18374">
        <ele>569.77</ele>
        <time>2020-08-19T17:45:14.000Z</time>
      </trkpt>
      <trkpt lat="48.6091" lon="7.18381">
        <ele>566.84</ele>
        <time>2020-08-19T17:45:17.000Z</time>
      </trkpt>
      <trkpt lat="48.60921" lon="7.18395">
        <ele>564.08</ele>
        <time>2020-08-19T17:45:20.000Z</time>
      </trkpt>
      <trkpt lat="48.60926" lon="7.18399">
        <ele>557.94</ele>
        <time>2020-08-19T17:45:37.000Z</time>
      </trkpt>
      <trkpt lat="48.60931" lon="7.18402">
        <ele>557.93</ele>
        <time>2020-08-19T17:45:38.000Z</time>
      </trkpt>
      <trkpt lat="48.60935" lon="7.18414">
        <ele>558.69</ele>
        <time>2020-08-19T17:45:40.000Z</time>
      </trkpt>
      <trkpt lat="48.60935" lon="7.18421">
        <ele>558.18</ele>
        <time>2020-08-19T17:45:41.000Z</time>
      </trkpt>
      <trkpt lat="48.60938" lon="7.18427">
        <ele>558.67</ele>
        <time>2020-08-19T17:45:42.000Z</time>
      </trkpt>
      <trkpt lat="48.60941" lon="7.18437">
        <ele>557.93</ele>
        <time>2020-08-19T17:45:44.000Z</time>
      </trkpt>
      <trkpt lat="48.60946" lon="7.18442">
        <ele>556.59</ele>
        <time>2020-08-19T17:45:45.000Z</time>
      </trkpt>
      <trkpt lat="48.60951" lon="7.18446">
        <ele>556.23</ele>
        <time>2020-08-19T17:45:46.000Z</time>
      </trkpt>
      <trkpt lat="48.60957" lon="7.18452">
        <ele>557.14</ele>
        <time>2020-08-19T17:45:48.000Z</time>
      </trkpt>
      <trkpt lat="48.60964" lon="7.18458">
        <ele>560.61</ele>
        <time>2020-08-19T17:45:50.000Z</time>
      </trkpt>
      <trkpt lat="48.60968" lon="7.18462">
        <ele>561.26</ele>
        <time>2020-08-19T17:45:51.000Z</time>
      </trkpt>
      <trkpt lat="48.60973" lon="7.18465">
        <ele>560.66</ele>
        <time>2020-08-19T17:45:52.000Z</time>
      </trkpt>
      <trkpt lat="48.60978" lon="7.1847">
        <ele>560.91</ele>
        <time>2020-08-19T17:45:53.000Z</time>
      </trkpt>
      <trkpt lat="48.60984" lon="7.18475">
        <ele>560.37</ele>
        <time>2020-08-19T17:45:54.000Z</time>
      </trkpt>
      <trkpt lat="48.60989" lon="7.18481">
        <ele>557.82</ele>
        <time>2020-08-19T17:45:55.000Z</time>
      </trkpt>
      <trkpt lat="48.60993" lon="7.18483">
        <ele>557.59</ele>
        <time>2020-08-19T17:45:56.000Z</time>
      </trkpt>
      <trkpt lat="48.60999" lon="7.18488">
        <ele>555.87</ele>
        <time>2020-08-19T17:45:58.000Z</time>
      </trkpt>
      <trkpt lat="48.61005" lon="7.18492">
        <ele>555.71</ele>
        <time>2020-08-19T17:46:00.000Z</time>
      </trkpt>
      <trkpt lat="48.6101" lon="7.185">
        <ele>556.36</ele>
        <time>2020-08-19T17:46:02.000Z</time>
      </trkpt>
      <trkpt lat="48.61015" lon="7.18503">
        <ele>555.19</ele>
        <time>2020-08-19T17:46:03.000Z</time>
      </trkpt>
      <trkpt lat="48.61021" lon="7.18507">
        <ele>554.56</ele>
        <time>2020-08-19T17:46:04.000Z</time>
      </trkpt>
      <trkpt lat="48.61027" lon="7.18511">
        <ele>555.03</ele>
        <time>2020-08-19T17:46:05.000Z</time>
      </trkpt>
      <trkpt lat="48.61034" lon="7.18515">
        <ele>554.77</ele>
        <time>2020-08-19T17:46:06.000Z</time>
      </trkpt>
      <trkpt lat="48.6104" lon="7.18519">
        <ele>556.97</ele>
        <time>2020-08-19T17:46:07.000Z</time>
      </trkpt>
      <trkpt lat="48.61046" lon="7.18521">
        <ele>554.26</ele>
        <time>2020-08-19T17:46:08.000Z</time>
      </trkpt>
      <trkpt lat="48.61051" lon="7.18523">
        <ele>553.9</ele>
        <time>2020-08-19T17:46:09.000Z</time>
      </trkpt>
      <trkpt lat="48.61062" lon="7.18528">
        <ele>554.18</ele>
        <time>2020-08-19T17:46:11.000Z</time>
      </trkpt>
      <trkpt lat="48.61068" lon="7.18535">
        <ele>553.41</ele>
        <time>2020-08-19T17:46:13.000Z</time>
      </trkpt>
      <trkpt lat="48.61076" lon="7.18539">
        <ele>553.69</ele>
        <time>2020-08-19T17:46:15.000Z</time>
      </trkpt>
      <trkpt lat="48.61082" lon="7.18543">
        <ele>555.51</ele>
        <time>2020-08-19T17:46:16.000Z</time>
      </trkpt>
      <trkpt lat="48.61098" lon="7.18543">
        <ele>557.16</ele>
        <time>2020-08-19T17:46:19.000Z</time>
      </trkpt>
      <trkpt lat="48.61104" lon="7.18543">
        <ele>557.03</ele>
        <time>2020-08-19T17:46:20.000Z</time>
      </trkpt>
      <trkpt lat="48.61108" lon="7.18542">
        <ele>555.46</ele>
        <time>2020-08-19T17:46:21.000Z</time>
      </trkpt>
      <trkpt lat="48.61113" lon="7.1854">
        <ele>556.11</ele>
        <time>2020-08-19T17:46:22.000Z</time>
      </trkpt>
      <trkpt lat="48.6112" lon="7.18539">
        <ele>557.52</ele>
        <time>2020-08-19T17:46:23.000Z</time>
      </trkpt>
      <trkpt lat="48.61125" lon="7.18537">
        <ele>557.8</ele>
        <time>2020-08-19T17:46:24.000Z</time>
      </trkpt>
      <trkpt lat="48.61132" lon="7.18536">
        <ele>558</ele>
        <time>2020-08-19T17:46:25.000Z</time>
      </trkpt>
      <trkpt lat="48.61148" lon="7.1854">
        <ele>551.07</ele>
        <time>2020-08-19T17:46:27.000Z</time>
      </trkpt>
      <trkpt lat="48.61158" lon="7.18547">
        <ele>546.23</ele>
        <time>2020-08-19T17:46:29.000Z</time>
      </trkpt>
      <trkpt lat="48.61165" lon="7.1855">
        <ele>544.37</ele>
        <time>2020-08-19T17:46:30.000Z</time>
      </trkpt>
      <trkpt lat="48.61173" lon="7.18556">
        <ele>542.59</ele>
        <time>2020-08-19T17:46:32.000Z</time>
      </trkpt>
      <trkpt lat="48.61179" lon="7.18561">
        <ele>543.32</ele>
        <time>2020-08-19T17:46:33.000Z</time>
      </trkpt>
      <trkpt lat="48.61185" lon="7.18566">
        <ele>544.36</ele>
        <time>2020-08-19T17:46:34.000Z</time>
      </trkpt>
      <trkpt lat="48.61191" lon="7.18576">
        <ele>543.71</ele>
        <time>2020-08-19T17:46:36.000Z</time>
      </trkpt>
      <trkpt lat="48.61195" lon="7.18582">
        <ele>543.01</ele>
        <time>2020-08-19T17:46:37.000Z</time>
      </trkpt>
      <trkpt lat="48.61199" lon="7.18589">
        <ele>542.11</ele>
        <time>2020-08-19T17:46:38.000Z</time>
      </trkpt>
      <trkpt lat="48.61204" lon="7.18593">
        <ele>540.6</ele>
        <time>2020-08-19T17:46:39.000Z</time>
      </trkpt>
      <trkpt lat="48.61208" lon="7.18597">
        <ele>539.07</ele>
        <time>2020-08-19T17:46:40.000Z</time>
      </trkpt>
      <trkpt lat="48.61212" lon="7.18603">
        <ele>538.34</ele>
        <time>2020-08-19T17:46:41.000Z</time>
      </trkpt>
      <trkpt lat="48.61217" lon="7.18607">
        <ele>538.35</ele>
        <time>2020-08-19T17:46:42.000Z</time>
      </trkpt>
      <trkpt lat="48.61225" lon="7.18615">
        <ele>538.73</ele>
        <time>2020-08-19T17:46:44.000Z</time>
      </trkpt>
      <trkpt lat="48.6123" lon="7.18621">
        <ele>538.37</ele>
        <time>2020-08-19T17:46:45.000Z</time>
      </trkpt>
      <trkpt lat="48.61233" lon="7.18626">
        <ele>537.68</ele>
        <time>2020-08-19T17:46:46.000Z</time>
      </trkpt>
      <trkpt lat="48.61237" lon="7.18631">
        <ele>537.02</ele>
        <time>2020-08-19T17:46:47.000Z</time>
      </trkpt>
      <trkpt lat="48.61241" lon="7.18637">
        <ele>536.83</ele>
        <time>2020-08-19T17:46:48.000Z</time>
      </trkpt>
      <trkpt lat="48.61245" lon="7.18642">
        <ele>534.88</ele>
        <time>2020-08-19T17:46:49.000Z</time>
      </trkpt>
      <trkpt lat="48.6125" lon="7.1865">
        <ele>533.76</ele>
        <time>2020-08-19T17:46:50.000Z</time>
      </trkpt>
      <trkpt lat="48.61255" lon="7.18657">
        <ele>532.86</ele>
        <time>2020-08-19T17:46:51.000Z</time>
      </trkpt>
      <trkpt lat="48.61258" lon="7.18662">
        <ele>533.55</ele>
        <time>2020-08-19T17:46:52.000Z</time>
      </trkpt>
      <trkpt lat="48.61264" lon="7.1867">
        <ele>534.22</ele>
        <time>2020-08-19T17:46:54.000Z</time>
      </trkpt>
      <trkpt lat="48.61269" lon="7.1868">
        <ele>534.22</ele>
        <time>2020-08-19T17:46:56.000Z</time>
      </trkpt>
      <trkpt lat="48.61276" lon="7.18682">
        <ele>530.9</ele>
        <time>2020-08-19T17:46:57.000Z</time>
      </trkpt>
      <trkpt lat="48.61281" lon="7.18685">
        <ele>531.56</ele>
        <time>2020-08-19T17:46:58.000Z</time>
      </trkpt>
      <trkpt lat="48.61285" lon="7.1869">
        <ele>529.83</ele>
        <time>2020-08-19T17:46:59.000Z</time>
      </trkpt>
      <trkpt lat="48.61291" lon="7.18695">
        <ele>528.47</ele>
        <time>2020-08-19T17:47:01.000Z</time>
      </trkpt>
      <trkpt lat="48.61295" lon="7.18701">
        <ele>527.2</ele>
        <time>2020-08-19T17:47:02.000Z</time>
      </trkpt>
      <trkpt lat="48.61301" lon="7.18705">
        <ele>525.36</ele>
        <time>2020-08-19T17:47:03.000Z</time>
      </trkpt>
      <trkpt lat="48.61311" lon="7.1871">
        <ele>524.96</ele>
        <time>2020-08-19T17:47:05.000Z</time>
      </trkpt>
      <trkpt lat="48.61318" lon="7.18713">
        <ele>524.57</ele>
        <time>2020-08-19T17:47:06.000Z</time>
      </trkpt>
      <trkpt lat="48.61323" lon="7.18718">
        <ele>523.86</ele>
        <time>2020-08-19T17:47:07.000Z</time>
      </trkpt>
      <trkpt lat="48.6133" lon="7.18721">
        <ele>523.06</ele>
        <time>2020-08-19T17:47:08.000Z</time>
      </trkpt>
      <trkpt lat="48.61337" lon="7.18724">
        <ele>522.24</ele>
        <time>2020-08-19T17:47:09.000Z</time>
      </trkpt>
      <trkpt lat="48.61342" lon="7.18727">
        <ele>521.42</ele>
        <time>2020-08-19T17:47:10.000Z</time>
      </trkpt>
      <trkpt lat="48.61348" lon="7.1873">
        <ele>521.09</ele>
        <time>2020-08-19T17:47:11.000Z</time>
      </trkpt>
      <trkpt lat="48.61354" lon="7.18732">
        <ele>521.05</ele>
        <time>2020-08-19T17:47:12.000Z</time>
      </trkpt>
      <trkpt lat="48.6136" lon="7.18732">
        <ele>533.22</ele>
        <time>2020-08-19T17:47:13.000Z</time>
      </trkpt>
      <trkpt lat="48.61367" lon="7.18733">
        <ele>530.23</ele>
        <time>2020-08-19T17:47:14.000Z</time>
      </trkpt>
      <trkpt lat="48.61374" lon="7.18736">
        <ele>433.91</ele>
        <time>2020-08-19T17:47:15.000Z</time>
      </trkpt>
      <trkpt lat="48.61378" lon="7.18739">
        <ele>453.83</ele>
        <time>2020-08-19T17:47:16.000Z</time>
      </trkpt>
      <trkpt lat="48.61384" lon="7.18745">
        <ele>463.7</ele>
        <time>2020-08-19T17:47:17.000Z</time>
      </trkpt>
      <trkpt lat="48.61411" lon="7.18746">
        <ele>479.03</ele>
        <time>2020-08-19T17:47:20.000Z</time>
      </trkpt>
      <trkpt lat="48.61415" lon="7.1875">
        <ele>482.16</ele>
        <time>2020-08-19T17:47:21.000Z</time>
      </trkpt>
      <trkpt lat="48.61429" lon="7.18757">
        <ele>489.28</ele>
        <time>2020-08-19T17:47:23.000Z</time>
      </trkpt>
      <trkpt lat="48.61434" lon="7.18758">
        <ele>490.6</ele>
        <time>2020-08-19T17:47:24.000Z</time>
      </trkpt>
      <trkpt lat="48.61436" lon="7.18766">
        <ele>493.29</ele>
        <time>2020-08-19T17:47:25.000Z</time>
      </trkpt>
      <trkpt lat="48.61444" lon="7.18766">
        <ele>496.94</ele>
        <time>2020-08-19T17:47:26.000Z</time>
      </trkpt>
      <trkpt lat="48.61449" lon="7.18768">
        <ele>498.98</ele>
        <time>2020-08-19T17:47:27.000Z</time>
      </trkpt>
      <trkpt lat="48.61455" lon="7.18767">
        <ele>501.11</ele>
        <time>2020-08-19T17:47:28.000Z</time>
      </trkpt>
      <trkpt lat="48.61462" lon="7.18768">
        <ele>503.94</ele>
        <time>2020-08-19T17:47:29.000Z</time>
      </trkpt>
      <trkpt lat="48.61469" lon="7.18767">
        <ele>507.24</ele>
        <time>2020-08-19T17:47:30.000Z</time>
      </trkpt>
      <trkpt lat="48.61476" lon="7.18767">
        <ele>506.8</ele>
        <time>2020-08-19T17:47:31.000Z</time>
      </trkpt>
      <trkpt lat="48.61481" lon="7.18771">
        <ele>508.82</ele>
        <time>2020-08-19T17:47:32.000Z</time>
      </trkpt>
      <trkpt lat="48.61487" lon="7.1877">
        <ele>513.72</ele>
        <time>2020-08-19T17:47:33.000Z</time>
      </trkpt>
      <trkpt lat="48.61495" lon="7.1877">
        <ele>513.54</ele>
        <time>2020-08-19T17:47:34.000Z</time>
      </trkpt>
      <trkpt lat="48.615" lon="7.1877">
        <ele>515.3</ele>
        <time>2020-08-19T17:47:35.000Z</time>
      </trkpt>
      <trkpt lat="48.61506" lon="7.1877">
        <ele>512.53</ele>
        <time>2020-08-19T17:47:36.000Z</time>
      </trkpt>
      <trkpt lat="48.61511" lon="7.18768">
        <ele>512.93</ele>
        <time>2020-08-19T17:47:37.000Z</time>
      </trkpt>
      <trkpt lat="48.61517" lon="7.18763">
        <ele>516.14</ele>
        <time>2020-08-19T17:47:38.000Z</time>
      </trkpt>
      <trkpt lat="48.61523" lon="7.18762">
        <ele>516.7</ele>
        <time>2020-08-19T17:47:40.000Z</time>
      </trkpt>
      <trkpt lat="48.6153" lon="7.1876">
        <ele>515.83</ele>
        <time>2020-08-19T17:47:52.000Z</time>
      </trkpt>
      <trkpt lat="48.61534" lon="7.18756">
        <ele>517.24</ele>
        <time>2020-08-19T17:47:53.000Z</time>
      </trkpt>
      <trkpt lat="48.61542" lon="7.18749">
        <ele>517.69</ele>
        <time>2020-08-19T17:47:55.000Z</time>
      </trkpt>
      <trkpt lat="48.61548" lon="7.18741">
        <ele>517.89</ele>
        <time>2020-08-19T17:47:57.000Z</time>
      </trkpt>
      <trkpt lat="48.61551" lon="7.18732">
        <ele>517.31</ele>
        <time>2020-08-19T17:47:59.000Z</time>
      </trkpt>
      <trkpt lat="48.61556" lon="7.18718">
        <ele>518.61</ele>
        <time>2020-08-19T17:48:01.000Z</time>
      </trkpt>
      <trkpt lat="48.61559" lon="7.18708">
        <ele>517.97</ele>
        <time>2020-08-19T17:48:03.000Z</time>
      </trkpt>
      <trkpt lat="48.61561" lon="7.18697">
        <ele>517.38</ele>
        <time>2020-08-19T17:48:05.000Z</time>
      </trkpt>
      <trkpt lat="48.61561" lon="7.1869">
        <ele>518.76</ele>
        <time>2020-08-19T17:48:06.000Z</time>
      </trkpt>
      <trkpt lat="48.61564" lon="7.18682">
        <ele>518.71</ele>
        <time>2020-08-19T17:48:07.000Z</time>
      </trkpt>
      <trkpt lat="48.61564" lon="7.18664">
        <ele>518.27</ele>
        <time>2020-08-19T17:48:09.000Z</time>
      </trkpt>
      <trkpt lat="48.61562" lon="7.18654">
        <ele>517.44</ele>
        <time>2020-08-19T17:48:10.000Z</time>
      </trkpt>
      <trkpt lat="48.61564" lon="7.18645">
        <ele>518.55</ele>
        <time>2020-08-19T17:48:11.000Z</time>
      </trkpt>
      <trkpt lat="48.61564" lon="7.18637">
        <ele>517.88</ele>
        <time>2020-08-19T17:48:12.000Z</time>
      </trkpt>
      <trkpt lat="48.61564" lon="7.1863">
        <ele>515.6</ele>
        <time>2020-08-19T17:48:13.000Z</time>
      </trkpt>
      <trkpt lat="48.61564" lon="7.18619">
        <ele>516.56</ele>
        <time>2020-08-19T17:48:14.000Z</time>
      </trkpt>
      <trkpt lat="48.61561" lon="7.18607">
        <ele>517.9</ele>
        <time>2020-08-19T17:48:15.000Z</time>
      </trkpt>
      <trkpt lat="48.6156" lon="7.18599">
        <ele>518.28</ele>
        <time>2020-08-19T17:48:16.000Z</time>
      </trkpt>
      <trkpt lat="48.61559" lon="7.18591">
        <ele>518.42</ele>
        <time>2020-08-19T17:48:17.000Z</time>
      </trkpt>
      <trkpt lat="48.61551" lon="7.18566">
        <ele>521.85</ele>
        <time>2020-08-19T17:48:20.000Z</time>
      </trkpt>
      <trkpt lat="48.61547" lon="7.18557">
        <ele>521.92</ele>
        <time>2020-08-19T17:48:21.000Z</time>
      </trkpt>
      <trkpt lat="48.61546" lon="7.18548">
        <ele>523.54</ele>
        <time>2020-08-19T17:48:22.000Z</time>
      </trkpt>
      <trkpt lat="48.61543" lon="7.18537">
        <ele>521.26</ele>
        <time>2020-08-19T17:48:23.000Z</time>
      </trkpt>
      <trkpt lat="48.61542" lon="7.18527">
        <ele>520.6</ele>
        <time>2020-08-19T17:48:24.000Z</time>
      </trkpt>
      <trkpt lat="48.61535" lon="7.18512">
        <ele>519.9</ele>
        <time>2020-08-19T17:48:26.000Z</time>
      </trkpt>
      <trkpt lat="48.61533" lon="7.18504">
        <ele>520.5</ele>
        <time>2020-08-19T17:48:27.000Z</time>
      </trkpt>
      <trkpt lat="48.61529" lon="7.18496">
        <ele>521.45</ele>
        <time>2020-08-19T17:48:28.000Z</time>
      </trkpt>
      <trkpt lat="48.61526" lon="7.18486">
        <ele>520.39</ele>
        <time>2020-08-19T17:48:29.000Z</time>
      </trkpt>
      <trkpt lat="48.61521" lon="7.18477">
        <ele>522.11</ele>
        <time>2020-08-19T17:48:30.000Z</time>
      </trkpt>
      <trkpt lat="48.61517" lon="7.18472">
        <ele>522.54</ele>
        <time>2020-08-19T17:48:31.000Z</time>
      </trkpt>
      <trkpt lat="48.61514" lon="7.18463">
        <ele>522.21</ele>
        <time>2020-08-19T17:48:32.000Z</time>
      </trkpt>
      <trkpt lat="48.6151" lon="7.18456">
        <ele>521.8</ele>
        <time>2020-08-19T17:48:33.000Z</time>
      </trkpt>
      <trkpt lat="48.61507" lon="7.18449">
        <ele>522</ele>
        <time>2020-08-19T17:48:34.000Z</time>
      </trkpt>
      <trkpt lat="48.61506" lon="7.18441">
        <ele>520.6</ele>
        <time>2020-08-19T17:48:35.000Z</time>
      </trkpt>
      <trkpt lat="48.61505" lon="7.18433">
        <ele>521.58</ele>
        <time>2020-08-19T17:48:36.000Z</time>
      </trkpt>
      <trkpt lat="48.61504" lon="7.18426">
        <ele>520.93</ele>
        <time>2020-08-19T17:48:37.000Z</time>
      </trkpt>
      <trkpt lat="48.61504" lon="7.18418">
        <ele>519.61</ele>
        <time>2020-08-19T17:48:38.000Z</time>
      </trkpt>
      <trkpt lat="48.61504" lon="7.1841">
        <ele>519</ele>
        <time>2020-08-19T17:48:39.000Z</time>
      </trkpt>
      <trkpt lat="48.61502" lon="7.18401">
        <ele>523.63</ele>
        <time>2020-08-19T17:48:40.000Z</time>
      </trkpt>
      <trkpt lat="48.61504" lon="7.18393">
        <ele>525.47</ele>
        <time>2020-08-19T17:48:41.000Z</time>
      </trkpt>
      <trkpt lat="48.61506" lon="7.18387">
        <ele>526.43</ele>
        <time>2020-08-19T17:48:42.000Z</time>
      </trkpt>
      <trkpt lat="48.6151" lon="7.18383">
        <ele>526.53</ele>
        <time>2020-08-19T17:48:43.000Z</time>
      </trkpt>
      <trkpt lat="48.61515" lon="7.18384">
        <ele>526.26</ele>
        <time>2020-08-19T17:48:44.000Z</time>
      </trkpt>
      <trkpt lat="48.6152" lon="7.18382">
        <ele>527.32</ele>
        <time>2020-08-19T17:48:45.000Z</time>
      </trkpt>
      <trkpt lat="48.61528" lon="7.18382">
        <ele>527.44</ele>
        <time>2020-08-19T17:48:46.000Z</time>
      </trkpt>
      <trkpt lat="48.61532" lon="7.1838">
        <ele>525.35</ele>
        <time>2020-08-19T17:48:47.000Z</time>
      </trkpt>
      <trkpt lat="48.61539" lon="7.18379">
        <ele>527.11</ele>
        <time>2020-08-19T17:48:48.000Z</time>
      </trkpt>
      <trkpt lat="48.61545" lon="7.1838">
        <ele>527.14</ele>
        <time>2020-08-19T17:48:49.000Z</time>
      </trkpt>
      <trkpt lat="48.61552" lon="7.18379">
        <ele>526.93</ele>
        <time>2020-08-19T17:48:50.000Z</time>
      </trkpt>
      <trkpt lat="48.6156" lon="7.18378">
        <ele>526.07</ele>
        <time>2020-08-19T17:48:51.000Z</time>
      </trkpt>
      <trkpt lat="48.61567" lon="7.18379">
        <ele>525.71</ele>
        <time>2020-08-19T17:48:52.000Z</time>
      </trkpt>
      <trkpt lat="48.61574" lon="7.1838">
        <ele>526.09</ele>
        <time>2020-08-19T17:48:53.000Z</time>
      </trkpt>
      <trkpt lat="48.61582" lon="7.1838">
        <ele>528.14</ele>
        <time>2020-08-19T17:48:54.000Z</time>
      </trkpt>
      <trkpt lat="48.61587" lon="7.18383">
        <ele>527.26</ele>
        <time>2020-08-19T17:48:55.000Z</time>
      </trkpt>
      <trkpt lat="48.61593" lon="7.18384">
        <ele>526.52</ele>
        <time>2020-08-19T17:48:56.000Z</time>
      </trkpt>
      <trkpt lat="48.616" lon="7.18385">
        <ele>526.45</ele>
        <time>2020-08-19T17:48:57.000Z</time>
      </trkpt>
      <trkpt lat="48.61606" lon="7.18387">
        <ele>526.34</ele>
        <time>2020-08-19T17:48:58.000Z</time>
      </trkpt>
      <trkpt lat="48.61613" lon="7.18388">
        <ele>529.95</ele>
        <time>2020-08-19T17:48:59.000Z</time>
      </trkpt>
      <trkpt lat="48.61621" lon="7.1839">
        <ele>527.38</ele>
        <time>2020-08-19T17:49:00.000Z</time>
      </trkpt>
      <trkpt lat="48.61629" lon="7.18393">
        <ele>526.64</ele>
        <time>2020-08-19T17:49:01.000Z</time>
      </trkpt>
      <trkpt lat="48.61637" lon="7.18393">
        <ele>527.85</ele>
        <time>2020-08-19T17:49:02.000Z</time>
      </trkpt>
      <trkpt lat="48.61646" lon="7.18395">
        <ele>527.81</ele>
        <time>2020-08-19T17:49:03.000Z</time>
      </trkpt>
      <trkpt lat="48.61653" lon="7.18398">
        <ele>528.16</ele>
        <time>2020-08-19T17:49:04.000Z</time>
      </trkpt>
      <trkpt lat="48.61661" lon="7.18396">
        <ele>524.54</ele>
        <time>2020-08-19T17:49:05.000Z</time>
      </trkpt>
      <trkpt lat="48.61669" lon="7.18397">
        <ele>523.67</ele>
        <time>2020-08-19T17:49:06.000Z</time>
      </trkpt>
      <trkpt lat="48.61677" lon="7.184">
        <ele>523.31</ele>
        <time>2020-08-19T17:49:07.000Z</time>
      </trkpt>
      <trkpt lat="48.61685" lon="7.18402">
        <ele>522.73</ele>
        <time>2020-08-19T17:49:08.000Z</time>
      </trkpt>
      <trkpt lat="48.61692" lon="7.18404">
        <ele>522.68</ele>
        <time>2020-08-19T17:49:09.000Z</time>
      </trkpt>
      <trkpt lat="48.617" lon="7.18407">
        <ele>522.24</ele>
        <time>2020-08-19T17:49:10.000Z</time>
      </trkpt>
      <trkpt lat="48.61707" lon="7.18407">
        <ele>519.73</ele>
        <time>2020-08-19T17:49:11.000Z</time>
      </trkpt>
      <trkpt lat="48.61718" lon="7.18407">
        <ele>518.29</ele>
        <time>2020-08-19T17:49:12.000Z</time>
      </trkpt>
      <trkpt lat="48.61726" lon="7.18407">
        <ele>517.99</ele>
        <time>2020-08-19T17:49:13.000Z</time>
      </trkpt>
      <trkpt lat="48.61734" lon="7.1841">
        <ele>520.33</ele>
        <time>2020-08-19T17:49:14.000Z</time>
      </trkpt>
      <trkpt lat="48.61739" lon="7.18412">
        <ele>520.57</ele>
        <time>2020-08-19T17:49:15.000Z</time>
      </trkpt>
      <trkpt lat="48.61747" lon="7.18409">
        <ele>519.16</ele>
        <time>2020-08-19T17:49:16.000Z</time>
      </trkpt>
      <trkpt lat="48.61756" lon="7.18408">
        <ele>517.03</ele>
        <time>2020-08-19T17:49:17.000Z</time>
      </trkpt>
      <trkpt lat="48.61761" lon="7.18407">
        <ele>515.86</ele>
        <time>2020-08-19T17:49:18.000Z</time>
      </trkpt>
      <trkpt lat="48.61767" lon="7.18405">
        <ele>514.85</ele>
        <time>2020-08-19T17:49:20.000Z</time>
      </trkpt>
      <trkpt lat="48.61772" lon="7.18401">
        <ele>513.16</ele>
        <time>2020-08-19T17:49:21.000Z</time>
      </trkpt>
      <trkpt lat="48.61776" lon="7.18396">
        <ele>513.75</ele>
        <time>2020-08-19T17:49:22.000Z</time>
      </trkpt>
      <trkpt lat="48.61781" lon="7.18392">
        <ele>514.04</ele>
        <time>2020-08-19T17:49:23.000Z</time>
      </trkpt>
      <trkpt lat="48.61783" lon="7.18382">
        <ele>514.1</ele>
        <time>2020-08-19T17:49:24.000Z</time>
      </trkpt>
      <trkpt lat="48.61786" lon="7.18374">
        <ele>511.23</ele>
        <time>2020-08-19T17:49:25.000Z</time>
      </trkpt>
      <trkpt lat="48.6179" lon="7.1837">
        <ele>511.49</ele>
        <time>2020-08-19T17:49:26.000Z</time>
      </trkpt>
      <trkpt lat="48.61792" lon="7.18362">
        <ele>508.39</ele>
        <time>2020-08-19T17:49:27.000Z</time>
      </trkpt>
      <trkpt lat="48.61793" lon="7.18352">
        <ele>507.95</ele>
        <time>2020-08-19T17:49:28.000Z</time>
      </trkpt>
      <trkpt lat="48.61793" lon="7.18341">
        <ele>506.88</ele>
        <time>2020-08-19T17:49:29.000Z</time>
      </trkpt>
      <trkpt lat="48.61793" lon="7.18333">
        <ele>507.08</ele>
        <time>2020-08-19T17:49:30.000Z</time>
      </trkpt>
      <trkpt lat="48.61793" lon="7.18324">
        <ele>506.53</ele>
        <time>2020-08-19T17:49:31.000Z</time>
      </trkpt>
      <trkpt lat="48.61794" lon="7.18313">
        <ele>506.06</ele>
        <time>2020-08-19T17:49:32.000Z</time>
      </trkpt>
      <trkpt lat="48.61794" lon="7.18303">
        <ele>505.38</ele>
        <time>2020-08-19T17:49:33.000Z</time>
      </trkpt>
      <trkpt lat="48.61793" lon="7.18291">
        <ele>505.2</ele>
        <time>2020-08-19T17:49:34.000Z</time>
      </trkpt>
      <trkpt lat="48.61792" lon="7.18279">
        <ele>506.95</ele>
        <time>2020-08-19T17:49:35.000Z</time>
      </trkpt>
      <trkpt lat="48.61791" lon="7.18266">
        <ele>507.52</ele>
        <time>2020-08-19T17:49:36.000Z</time>
      </trkpt>
      <trkpt lat="48.6179" lon="7.18256">
        <ele>508.08</ele>
        <time>2020-08-19T17:49:37.000Z</time>
      </trkpt>
      <trkpt lat="48.61792" lon="7.18243">
        <ele>507.27</ele>
        <time>2020-08-19T17:49:38.000Z</time>
      </trkpt>
      <trkpt lat="48.61795" lon="7.18233">
        <ele>509.04</ele>
        <time>2020-08-19T17:49:39.000Z</time>
      </trkpt>
      <trkpt lat="48.618" lon="7.18222">
        <ele>508.77</ele>
        <time>2020-08-19T17:49:40.000Z</time>
      </trkpt>
      <trkpt lat="48.61806" lon="7.18217">
        <ele>510.18</ele>
        <time>2020-08-19T17:49:41.000Z</time>
      </trkpt>
      <trkpt lat="48.6181" lon="7.18209">
        <ele>510</ele>
        <time>2020-08-19T17:49:42.000Z</time>
      </trkpt>
      <trkpt lat="48.61814" lon="7.18201">
        <ele>511.05</ele>
        <time>2020-08-19T17:49:43.000Z</time>
      </trkpt>
      <trkpt lat="48.61817" lon="7.18194">
        <ele>417.67</ele>
        <time>2020-08-19T17:49:44.000Z</time>
      </trkpt>
      <trkpt lat="48.61822" lon="7.18189">
        <ele>431.54</ele>
        <time>2020-08-19T17:49:45.000Z</time>
      </trkpt>
      <trkpt lat="48.61828" lon="7.18184">
        <ele>443.89</ele>
        <time>2020-08-19T17:49:46.000Z</time>
      </trkpt>
      <trkpt lat="48.61832" lon="7.18177">
        <ele>455.01</ele>
        <time>2020-08-19T17:49:47.000Z</time>
      </trkpt>
      <trkpt lat="48.61836" lon="7.18171">
        <ele>469.06</ele>
        <time>2020-08-19T17:49:48.000Z</time>
      </trkpt>
      <trkpt lat="48.61843" lon="7.18165">
        <ele>480.06</ele>
        <time>2020-08-19T17:49:49.000Z</time>
      </trkpt>
      <trkpt lat="48.61852" lon="7.18165">
        <ele>486.09</ele>
        <time>2020-08-19T17:49:50.000Z</time>
      </trkpt>
      <trkpt lat="48.61858" lon="7.18161">
        <ele>490.36</ele>
        <time>2020-08-19T17:49:51.000Z</time>
      </trkpt>
      <trkpt lat="48.61864" lon="7.18159">
        <ele>491.97</ele>
        <time>2020-08-19T17:49:52.000Z</time>
      </trkpt>
      <trkpt lat="48.61869" lon="7.18161">
        <ele>487.54</ele>
        <time>2020-08-19T17:49:53.000Z</time>
      </trkpt>
      <trkpt lat="48.61874" lon="7.18159">
        <ele>494.72</ele>
        <time>2020-08-19T17:49:54.000Z</time>
      </trkpt>
      <trkpt lat="48.6188" lon="7.1816">
        <ele>499.88</ele>
        <time>2020-08-19T17:49:55.000Z</time>
      </trkpt>
      <trkpt lat="48.61885" lon="7.18161">
        <ele>506.27</ele>
        <time>2020-08-19T17:49:56.000Z</time>
      </trkpt>
      <trkpt lat="48.61891" lon="7.18159">
        <ele>507.61</ele>
        <time>2020-08-19T17:49:57.000Z</time>
      </trkpt>
      <trkpt lat="48.61897" lon="7.1816">
        <ele>510.54</ele>
        <time>2020-08-19T17:49:58.000Z</time>
      </trkpt>
      <trkpt lat="48.61904" lon="7.18159">
        <ele>510.8</ele>
        <time>2020-08-19T17:49:59.000Z</time>
      </trkpt>
      <trkpt lat="48.6191" lon="7.18158">
        <ele>510.62</ele>
        <time>2020-08-19T17:50:00.000Z</time>
      </trkpt>
      <trkpt lat="48.61916" lon="7.18157">
        <ele>510.01</ele>
        <time>2020-08-19T17:50:01.000Z</time>
      </trkpt>
      <trkpt lat="48.6193" lon="7.18159">
        <ele>510.35</ele>
        <time>2020-08-19T17:50:03.000Z</time>
      </trkpt>
      <trkpt lat="48.61936" lon="7.18158">
        <ele>509.93</ele>
        <time>2020-08-19T17:50:04.000Z</time>
      </trkpt>
      <trkpt lat="48.6194" lon="7.18158">
        <ele>509.88</ele>
        <time>2020-08-19T17:50:05.000Z</time>
      </trkpt>
      <trkpt lat="48.61949" lon="7.18156">
        <ele>507.13</ele>
        <time>2020-08-19T17:50:06.000Z</time>
      </trkpt>
      <trkpt lat="48.61955" lon="7.18155">
        <ele>507.13</ele>
        <time>2020-08-19T17:50:07.000Z</time>
      </trkpt>
      <trkpt lat="48.61966" lon="7.18154">
        <ele>509.54</ele>
        <time>2020-08-19T17:50:09.000Z</time>
      </trkpt>
      <trkpt lat="48.61974" lon="7.18156">
        <ele>510.72</ele>
        <time>2020-08-19T17:50:11.000Z</time>
      </trkpt>
      <trkpt lat="48.61979" lon="7.18154">
        <ele>510.75</ele>
        <time>2020-08-19T17:50:12.000Z</time>
      </trkpt>
      <trkpt lat="48.61984" lon="7.18152">
        <ele>510.17</ele>
        <time>2020-08-19T17:50:13.000Z</time>
      </trkpt>
      <trkpt lat="48.6199" lon="7.18155">
        <ele>511.39</ele>
        <time>2020-08-19T17:50:14.000Z</time>
      </trkpt>
      <trkpt lat="48.61997" lon="7.18158">
        <ele>508.99</ele>
        <time>2020-08-19T17:50:15.000Z</time>
      </trkpt>
      <trkpt lat="48.62011" lon="7.18158">
        <ele>508.89</ele>
        <time>2020-08-19T17:50:17.000Z</time>
      </trkpt>
      <trkpt lat="48.62017" lon="7.18158">
        <ele>507.65</ele>
        <time>2020-08-19T17:50:18.000Z</time>
      </trkpt>
      <trkpt lat="48.62022" lon="7.18153">
        <ele>507.52</ele>
        <time>2020-08-19T17:50:19.000Z</time>
      </trkpt>
      <trkpt lat="48.62027" lon="7.18148">
        <ele>509.38</ele>
        <time>2020-08-19T17:50:20.000Z</time>
      </trkpt>
      <trkpt lat="48.62041" lon="7.18141">
        <ele>511.74</ele>
        <time>2020-08-19T17:50:22.000Z</time>
      </trkpt>
      <trkpt lat="48.62046" lon="7.18136">
        <ele>512.73</ele>
        <time>2020-08-19T17:50:23.000Z</time>
      </trkpt>
      <trkpt lat="48.62052" lon="7.18131">
        <ele>514.21</ele>
        <time>2020-08-19T17:50:24.000Z</time>
      </trkpt>
      <trkpt lat="48.62057" lon="7.18126">
        <ele>516.41</ele>
        <time>2020-08-19T17:50:25.000Z</time>
      </trkpt>
      <trkpt lat="48.62062" lon="7.1812">
        <ele>516.84</ele>
        <time>2020-08-19T17:50:26.000Z</time>
      </trkpt>
      <trkpt lat="48.62067" lon="7.18114">
        <ele>517.15</ele>
        <time>2020-08-19T17:50:27.000Z</time>
      </trkpt>
      <trkpt lat="48.62071" lon="7.18109">
        <ele>516.79</ele>
        <time>2020-08-19T17:50:28.000Z</time>
      </trkpt>
      <trkpt lat="48.62076" lon="7.18105">
        <ele>516.5</ele>
        <time>2020-08-19T17:50:29.000Z</time>
      </trkpt>
      <trkpt lat="48.62084" lon="7.181">
        <ele>522.34</ele>
        <time>2020-08-19T17:50:43.000Z</time>
      </trkpt>
      <trkpt lat="48.6209" lon="7.18098">
        <ele>524.42</ele>
        <time>2020-08-19T17:50:45.000Z</time>
      </trkpt>
      <trkpt lat="48.62107" lon="7.18087">
        <ele>523.41</ele>
        <time>2020-08-19T17:50:48.000Z</time>
      </trkpt>
      <trkpt lat="48.62113" lon="7.18083">
        <ele>522.7</ele>
        <time>2020-08-19T17:50:49.000Z</time>
      </trkpt>
      <trkpt lat="48.62115" lon="7.18076">
        <ele>525.17</ele>
        <time>2020-08-19T17:50:50.000Z</time>
      </trkpt>
      <trkpt lat="48.62119" lon="7.18068">
        <ele>523.21</ele>
        <time>2020-08-19T17:50:52.000Z</time>
      </trkpt>
      <trkpt lat="48.62123" lon="7.18063">
        <ele>521.04</ele>
        <time>2020-08-19T17:50:53.000Z</time>
      </trkpt>
      <trkpt lat="48.62126" lon="7.18057">
        <ele>521.28</ele>
        <time>2020-08-19T17:50:54.000Z</time>
      </trkpt>
      <trkpt lat="48.62129" lon="7.18048">
        <ele>520.92</ele>
        <time>2020-08-19T17:50:55.000Z</time>
      </trkpt>
      <trkpt lat="48.62134" lon="7.1804">
        <ele>520.17</ele>
        <time>2020-08-19T17:50:56.000Z</time>
      </trkpt>
      <trkpt lat="48.62138" lon="7.18034">
        <ele>521.1</ele>
        <time>2020-08-19T17:50:57.000Z</time>
      </trkpt>
      <trkpt lat="48.62139" lon="7.18023">
        <ele>519.63</ele>
        <time>2020-08-19T17:50:58.000Z</time>
      </trkpt>
      <trkpt lat="48.62142" lon="7.18015">
        <ele>521.44</ele>
        <time>2020-08-19T17:50:59.000Z</time>
      </trkpt>
      <trkpt lat="48.62146" lon="7.18007">
        <ele>520.04</ele>
        <time>2020-08-19T17:51:00.000Z</time>
      </trkpt>
      <trkpt lat="48.62148" lon="7.17999">
        <ele>519.05</ele>
        <time>2020-08-19T17:51:01.000Z</time>
      </trkpt>
      <trkpt lat="48.6215" lon="7.17989">
        <ele>520.04</ele>
        <time>2020-08-19T17:51:02.000Z</time>
      </trkpt>
      <trkpt lat="48.62151" lon="7.1798">
        <ele>520.58</ele>
        <time>2020-08-19T17:51:03.000Z</time>
      </trkpt>
      <trkpt lat="48.62154" lon="7.17972">
        <ele>520.77</ele>
        <time>2020-08-19T17:51:04.000Z</time>
      </trkpt>
      <trkpt lat="48.62156" lon="7.17964">
        <ele>520.03</ele>
        <time>2020-08-19T17:51:05.000Z</time>
      </trkpt>
      <trkpt lat="48.62158" lon="7.17956">
        <ele>520.99</ele>
        <time>2020-08-19T17:51:06.000Z</time>
      </trkpt>
      <trkpt lat="48.6216" lon="7.17948">
        <ele>521.81</ele>
        <time>2020-08-19T17:51:07.000Z</time>
      </trkpt>
      <trkpt lat="48.62161" lon="7.1794">
        <ele>522.45</ele>
        <time>2020-08-19T17:51:08.000Z</time>
      </trkpt>
      <trkpt lat="48.6216" lon="7.1793">
        <ele>519.27</ele>
        <time>2020-08-19T17:51:09.000Z</time>
      </trkpt>
      <trkpt lat="48.62165" lon="7.17917">
        <ele>518.34</ele>
        <time>2020-08-19T17:51:10.000Z</time>
      </trkpt>
      <trkpt lat="48.62169" lon="7.17908">
        <ele>519.42</ele>
        <time>2020-08-19T17:51:11.000Z</time>
      </trkpt>
      <trkpt lat="48.62174" lon="7.17899">
        <ele>520.39</ele>
        <time>2020-08-19T17:51:12.000Z</time>
      </trkpt>
      <trkpt lat="48.6218" lon="7.17892">
        <ele>522.22</ele>
        <time>2020-08-19T17:51:13.000Z</time>
      </trkpt>
      <trkpt lat="48.62186" lon="7.17888">
        <ele>523.65</ele>
        <time>2020-08-19T17:51:14.000Z</time>
      </trkpt>
      <trkpt lat="48.62193" lon="7.17884">
        <ele>523.99</ele>
        <time>2020-08-19T17:51:15.000Z</time>
      </trkpt>
      <trkpt lat="48.62198" lon="7.17879">
        <ele>524.19</ele>
        <time>2020-08-19T17:51:16.000Z</time>
      </trkpt>
      <trkpt lat="48.62204" lon="7.17877">
        <ele>522.68</ele>
        <time>2020-08-19T17:51:17.000Z</time>
      </trkpt>
      <trkpt lat="48.62209" lon="7.17874">
        <ele>522.16</ele>
        <time>2020-08-19T17:51:18.000Z</time>
      </trkpt>
      <trkpt lat="48.62216" lon="7.17871">
        <ele>522.16</ele>
        <time>2020-08-19T17:51:19.000Z</time>
      </trkpt>
      <trkpt lat="48.62222" lon="7.17867">
        <ele>521.72</ele>
        <time>2020-08-19T17:51:20.000Z</time>
      </trkpt>
      <trkpt lat="48.62229" lon="7.17863">
        <ele>521.76</ele>
        <time>2020-08-19T17:51:21.000Z</time>
      </trkpt>
      <trkpt lat="48.62236" lon="7.1786">
        <ele>522.26</ele>
        <time>2020-08-19T17:51:22.000Z</time>
      </trkpt>
      <trkpt lat="48.62242" lon="7.17857">
        <ele>522.47</ele>
        <time>2020-08-19T17:51:23.000Z</time>
      </trkpt>
      <trkpt lat="48.62248" lon="7.17853">
        <ele>522.44</ele>
        <time>2020-08-19T17:51:24.000Z</time>
      </trkpt>
      <trkpt lat="48.62255" lon="7.17848">
        <ele>521.26</ele>
        <time>2020-08-19T17:51:25.000Z</time>
      </trkpt>
      <trkpt lat="48.6226" lon="7.17847">
        <ele>519.7</ele>
        <time>2020-08-19T17:51:26.000Z</time>
      </trkpt>
      <trkpt lat="48.62267" lon="7.17843">
        <ele>520.7</ele>
        <time>2020-08-19T17:51:27.000Z</time>
      </trkpt>
      <trkpt lat="48.62272" lon="7.17842">
        <ele>520.39</ele>
        <time>2020-08-19T17:51:28.000Z</time>
      </trkpt>
      <trkpt lat="48.62278" lon="7.17839">
        <ele>521.07</ele>
        <time>2020-08-19T17:51:29.000Z</time>
      </trkpt>
      <trkpt lat="48.62283" lon="7.17835">
        <ele>521.16</ele>
        <time>2020-08-19T17:51:30.000Z</time>
      </trkpt>
      <trkpt lat="48.6229" lon="7.17834">
        <ele>521.12</ele>
        <time>2020-08-19T17:51:31.000Z</time>
      </trkpt>
      <trkpt lat="48.62296" lon="7.17831">
        <ele>520.35</ele>
        <time>2020-08-19T17:51:32.000Z</time>
      </trkpt>
      <trkpt lat="48.62303" lon="7.17829">
        <ele>521.14</ele>
        <time>2020-08-19T17:51:33.000Z</time>
      </trkpt>
      <trkpt lat="48.62309" lon="7.17828">
        <ele>521.72</ele>
        <time>2020-08-19T17:51:34.000Z</time>
      </trkpt>
      <trkpt lat="48.62315" lon="7.17826">
        <ele>522.14</ele>
        <time>2020-08-19T17:51:35.000Z</time>
      </trkpt>
      <trkpt lat="48.62321" lon="7.1783">
        <ele>520.22</ele>
        <time>2020-08-19T17:51:36.000Z</time>
      </trkpt>
      <trkpt lat="48.62326" lon="7.17825">
        <ele>522.48</ele>
        <time>2020-08-19T17:51:37.000Z</time>
      </trkpt>
      <trkpt lat="48.62331" lon="7.17822">
        <ele>521.94</ele>
        <time>2020-08-19T17:51:38.000Z</time>
      </trkpt>
      <trkpt lat="48.62337" lon="7.17824">
        <ele>522.41</ele>
        <time>2020-08-19T17:51:39.000Z</time>
      </trkpt>
      <trkpt lat="48.62349" lon="7.17823">
        <ele>521.16</ele>
        <time>2020-08-19T17:51:41.000Z</time>
      </trkpt>
      <trkpt lat="48.62356" lon="7.17822">
        <ele>520.55</ele>
        <time>2020-08-19T17:51:42.000Z</time>
      </trkpt>
      <trkpt lat="48.62363" lon="7.1782">
        <ele>520.78</ele>
        <time>2020-08-19T17:51:43.000Z</time>
      </trkpt>
      <trkpt lat="48.6237" lon="7.1782">
        <ele>521.32</ele>
        <time>2020-08-19T17:51:44.000Z</time>
      </trkpt>
      <trkpt lat="48.62377" lon="7.17818">
        <ele>521.85</ele>
        <time>2020-08-19T17:51:45.000Z</time>
      </trkpt>
      <trkpt lat="48.62383" lon="7.17819">
        <ele>522.32</ele>
        <time>2020-08-19T17:51:46.000Z</time>
      </trkpt>
      <trkpt lat="48.62388" lon="7.17821">
        <ele>522.02</ele>
        <time>2020-08-19T17:51:47.000Z</time>
      </trkpt>
      <trkpt lat="48.62394" lon="7.17822">
        <ele>522.15</ele>
        <time>2020-08-19T17:51:48.000Z</time>
      </trkpt>
      <trkpt lat="48.624" lon="7.17817">
        <ele>520.58</ele>
        <time>2020-08-19T17:51:49.000Z</time>
      </trkpt>
      <trkpt lat="48.62406" lon="7.17816">
        <ele>521.11</ele>
        <time>2020-08-19T17:51:50.000Z</time>
      </trkpt>
      <trkpt lat="48.62413" lon="7.17814">
        <ele>518.6</ele>
        <time>2020-08-19T17:51:51.000Z</time>
      </trkpt>
      <trkpt lat="48.62419" lon="7.17811">
        <ele>516.75</ele>
        <time>2020-08-19T17:51:52.000Z</time>
      </trkpt>
      <trkpt lat="48.62425" lon="7.17808">
        <ele>518.68</ele>
        <time>2020-08-19T17:51:53.000Z</time>
      </trkpt>
      <trkpt lat="48.62431" lon="7.17807">
        <ele>519.17</ele>
        <time>2020-08-19T17:51:54.000Z</time>
      </trkpt>
      <trkpt lat="48.62435" lon="7.17803">
        <ele>532.98</ele>
        <time>2020-08-19T17:52:06.000Z</time>
      </trkpt>
      <trkpt lat="48.62441" lon="7.17802">
        <ele>537.18</ele>
        <time>2020-08-19T17:52:08.000Z</time>
      </trkpt>
      <trkpt lat="48.62524" lon="7.17824">
        <ele>531.55</ele>
        <time>2020-08-19T17:52:23.000Z</time>
      </trkpt>
      <trkpt lat="48.62529" lon="7.17831">
        <ele>529.84</ele>
        <time>2020-08-19T17:52:25.000Z</time>
      </trkpt>
      <trkpt lat="48.62533" lon="7.17838">
        <ele>527.71</ele>
        <time>2020-08-19T17:52:27.000Z</time>
      </trkpt>
      <trkpt lat="48.62537" lon="7.17843">
        <ele>531.33</ele>
        <time>2020-08-19T17:52:28.000Z</time>
      </trkpt>
      <trkpt lat="48.62536" lon="7.17851">
        <ele>528.84</ele>
        <time>2020-08-19T17:53:57.000Z</time>
      </trkpt>
      <trkpt lat="48.6254" lon="7.17848">
        <ele>526.2</ele>
        <time>2020-08-19T17:57:32.000Z</time>
      </trkpt>
      <trkpt lat="48.62545" lon="7.17854">
        <ele>524.12</ele>
        <time>2020-08-19T17:58:04.000Z</time>
      </trkpt>
      <trkpt lat="48.62549" lon="7.1785">
        <ele>523.71</ele>
        <time>2020-08-19T17:58:06.000Z</time>
      </trkpt>
      <trkpt lat="48.62552" lon="7.17845">
        <ele>528.06</ele>
        <time>2020-08-19T17:58:09.000Z</time>
      </trkpt>
      <trkpt lat="48.62555" lon="7.17839">
        <ele>529.09</ele>
        <time>2020-08-19T17:58:13.000Z</time>
      </trkpt>
      <trkpt lat="48.62557" lon="7.17832">
        <ele>527.43</ele>
        <time>2020-08-19T17:58:15.000Z</time>
      </trkpt>
      <trkpt lat="48.62556" lon="7.17825">
        <ele>524.79</ele>
        <time>2020-08-19T17:58:18.000Z</time>
      </trkpt>
      <trkpt lat="48.62555" lon="7.17792">
        <ele>522.11</ele>
        <time>2020-08-19T17:58:30.000Z</time>
      </trkpt>
      <trkpt lat="48.62564" lon="7.17769">
        <ele>535.01</ele>
        <time>2020-08-19T17:58:51.000Z</time>
      </trkpt>
      <trkpt lat="48.62563" lon="7.17777">
        <ele>533.07</ele>
        <time>2020-08-19T17:59:33.000Z</time>
      </trkpt>
      <trkpt lat="48.62562" lon="7.17786">
        <ele>533.79</ele>
        <time>2020-08-19T17:59:37.000Z</time>
      </trkpt>
      <trkpt lat="48.62562" lon="7.17793">
        <ele>532.06</ele>
        <time>2020-08-19T17:59:41.000Z</time>
      </trkpt>
      <trkpt lat="48.62564" lon="7.17801">
        <ele>532.04</ele>
        <time>2020-08-19T17:59:44.000Z</time>
      </trkpt>
      <trkpt lat="48.62567" lon="7.17808">
        <ele>533.06</ele>
        <time>2020-08-19T17:59:47.000Z</time>
      </trkpt>
      <trkpt lat="48.62571" lon="7.17811">
        <ele>532.37</ele>
        <time>2020-08-19T17:59:50.000Z</time>
      </trkpt>
      <trkpt lat="48.62574" lon="7.17816">
        <ele>531.4</ele>
        <time>2020-08-19T17:59:53.000Z</time>
      </trkpt>
      <trkpt lat="48.62576" lon="7.17823">
        <ele>530.65</ele>
        <time>2020-08-19T17:59:56.000Z</time>
      </trkpt>
      <trkpt lat="48.62577" lon="7.1783">
        <ele>530.65</ele>
        <time>2020-08-19T17:59:59.000Z</time>
      </trkpt>
      <trkpt lat="48.62582" lon="7.17834">
        <ele>529.91</ele>
        <time>2020-08-19T18:00:02.000Z</time>
      </trkpt>
      <trkpt lat="48.62586" lon="7.17837">
        <ele>529.85</ele>
        <time>2020-08-19T18:00:07.000Z</time>
      </trkpt>
      <trkpt lat="48.62588" lon="7.17843">
        <ele>523.09</ele>
        <time>2020-08-19T18:00:25.000Z</time>
      </trkpt>
      <trkpt lat="48.6259" lon="7.17851">
        <ele>527.3</ele>
        <time>2020-08-19T18:00:29.000Z</time>
      </trkpt>
      <trkpt lat="48.62592" lon="7.17859">
        <ele>528.17</ele>
        <time>2020-08-19T18:00:34.000Z</time>
      </trkpt>
      <trkpt lat="48.62593" lon="7.17866">
        <ele>529.28</ele>
        <time>2020-08-19T18:00:38.000Z</time>
      </trkpt>
      <trkpt lat="48.62594" lon="7.17874">
        <ele>534.35</ele>
        <time>2020-08-19T18:00:48.000Z</time>
      </trkpt>
      <trkpt lat="48.62593" lon="7.17881">
        <ele>534.9</ele>
        <time>2020-08-19T18:00:52.000Z</time>
      </trkpt>
      <trkpt lat="48.62595" lon="7.17888">
        <ele>535.96</ele>
        <time>2020-08-19T18:00:55.000Z</time>
      </trkpt>
      <trkpt lat="48.62596" lon="7.17895">
        <ele>536.73</ele>
        <time>2020-08-19T18:00:59.000Z</time>
      </trkpt>
      <trkpt lat="48.626" lon="7.17901">
        <ele>542.43</ele>
        <time>2020-08-19T18:01:04.000Z</time>
      </trkpt>
      <trkpt lat="48.62602" lon="7.17908">
        <ele>542.99</ele>
        <time>2020-08-19T18:01:08.000Z</time>
      </trkpt>
      <trkpt lat="48.62605" lon="7.17915">
        <ele>544.36</ele>
        <time>2020-08-19T18:01:13.000Z</time>
      </trkpt>
      <trkpt lat="48.62606" lon="7.17924">
        <ele>542.69</ele>
        <time>2020-08-19T18:01:17.000Z</time>
      </trkpt>
      <trkpt lat="48.62606" lon="7.17931">
        <ele>545.99</ele>
        <time>2020-08-19T18:01:22.000Z</time>
      </trkpt>
      <trkpt lat="48.62611" lon="7.17933">
        <ele>546.74</ele>
        <time>2020-08-19T18:01:26.000Z</time>
      </trkpt>
      <trkpt lat="48.6261" lon="7.17926">
        <ele>545.76</ele>
        <time>2020-08-19T18:01:32.000Z</time>
      </trkpt>
      <trkpt lat="48.6261" lon="7.17919">
        <ele>547.72</ele>
        <time>2020-08-19T18:01:37.000Z</time>
      </trkpt>
      <trkpt lat="48.62611" lon="7.17912">
        <ele>550.35</ele>
        <time>2020-08-19T18:01:42.000Z</time>
      </trkpt>
      <trkpt lat="48.6261" lon="7.17905">
        <ele>550.4</ele>
        <time>2020-08-19T18:01:46.000Z</time>
      </trkpt>
      <trkpt lat="48.62612" lon="7.17897">
        <ele>550.71</ele>
        <time>2020-08-19T18:01:51.000Z</time>
      </trkpt>
      <trkpt lat="48.62616" lon="7.17889">
        <ele>551.37</ele>
        <time>2020-08-19T18:01:56.000Z</time>
      </trkpt>
      <trkpt lat="48.62618" lon="7.17881">
        <ele>557.39</ele>
        <time>2020-08-19T18:02:00.000Z</time>
      </trkpt>
      <trkpt lat="48.6262" lon="7.17866">
        <ele>560.56</ele>
        <time>2020-08-19T18:02:06.000Z</time>
      </trkpt>
      <trkpt lat="48.62625" lon="7.17863">
        <ele>560.84</ele>
        <time>2020-08-19T18:02:10.000Z</time>
      </trkpt>
      <trkpt lat="48.62627" lon="7.1787">
        <ele>558.84</ele>
        <time>2020-08-19T18:02:18.000Z</time>
      </trkpt>
      <trkpt lat="48.62628" lon="7.17878">
        <ele>559.32</ele>
        <time>2020-08-19T18:02:21.000Z</time>
      </trkpt>
      <trkpt lat="48.62629" lon="7.17885">
        <ele>562.26</ele>
        <time>2020-08-19T18:02:26.000Z</time>
      </trkpt>
      <trkpt lat="48.62632" lon="7.17893">
        <ele>562.6</ele>
        <time>2020-08-19T18:02:30.000Z</time>
      </trkpt>
      <trkpt lat="48.62632" lon="7.179">
        <ele>564.62</ele>
        <time>2020-08-19T18:02:34.000Z</time>
      </trkpt>
      <trkpt lat="48.62635" lon="7.17906">
        <ele>564.77</ele>
        <time>2020-08-19T18:02:38.000Z</time>
      </trkpt>
      <trkpt lat="48.6264" lon="7.17929">
        <ele>563.1</ele>
        <time>2020-08-19T18:02:51.000Z</time>
      </trkpt>
      <trkpt lat="48.62643" lon="7.17936">
        <ele>565.34</ele>
        <time>2020-08-19T18:02:56.000Z</time>
      </trkpt>
      <trkpt lat="48.62647" lon="7.17942">
        <ele>565.66</ele>
        <time>2020-08-19T18:03:00.000Z</time>
      </trkpt>
      <trkpt lat="48.62649" lon="7.17948">
        <ele>570.15</ele>
        <time>2020-08-19T18:03:06.000Z</time>
      </trkpt>
      <trkpt lat="48.62651" lon="7.17955">
        <ele>570.9</ele>
        <time>2020-08-19T18:03:12.000Z</time>
      </trkpt>
      <trkpt lat="48.62656" lon="7.1796">
        <ele>572.24</ele>
        <time>2020-08-19T18:03:16.000Z</time>
      </trkpt>
      <trkpt lat="48.62659" lon="7.17965">
        <ele>573.38</ele>
        <time>2020-08-19T18:03:19.000Z</time>
      </trkpt>
      <trkpt lat="48.62661" lon="7.17973">
        <ele>578</ele>
        <time>2020-08-19T18:03:25.000Z</time>
      </trkpt>
      <trkpt lat="48.62672" lon="7.17982">
        <ele>577.16</ele>
        <time>2020-08-19T18:03:33.000Z</time>
      </trkpt>
      <trkpt lat="48.62676" lon="7.17986">
        <ele>576.11</ele>
        <time>2020-08-19T18:03:37.000Z</time>
      </trkpt>
      <trkpt lat="48.62677" lon="7.17993">
        <ele>576.55</ele>
        <time>2020-08-19T18:03:41.000Z</time>
      </trkpt>
      <trkpt lat="48.62682" lon="7.17996">
        <ele>572.03</ele>
        <time>2020-08-19T18:03:45.000Z</time>
      </trkpt>
      <trkpt lat="48.62683" lon="7.18003">
        <ele>575.57</ele>
        <time>2020-08-19T18:03:54.000Z</time>
      </trkpt>
      <trkpt lat="48.62682" lon="7.18011">
        <ele>578.44</ele>
        <time>2020-08-19T18:03:59.000Z</time>
      </trkpt>
      <trkpt lat="48.62688" lon="7.18009">
        <ele>574.76</ele>
        <time>2020-08-19T18:04:05.000Z</time>
      </trkpt>
      <trkpt lat="48.6269" lon="7.18002">
        <ele>576.93</ele>
        <time>2020-08-19T18:04:11.000Z</time>
      </trkpt>
      <trkpt lat="48.62685" lon="7.17996">
        <ele>581.35</ele>
        <time>2020-08-19T18:04:15.000Z</time>
      </trkpt>
      <trkpt lat="48.62682" lon="7.1799">
        <ele>580.74</ele>
        <time>2020-08-19T18:04:19.000Z</time>
      </trkpt>
      <trkpt lat="48.62679" lon="7.17984">
        <ele>580.29</ele>
        <time>2020-08-19T18:04:23.000Z</time>
      </trkpt>
      <trkpt lat="48.62678" lon="7.17975">
        <ele>583.5</ele>
        <time>2020-08-19T18:04:27.000Z</time>
      </trkpt>
      <trkpt lat="48.62678" lon="7.17967">
        <ele>583.96</ele>
        <time>2020-08-19T18:04:31.000Z</time>
      </trkpt>
      <trkpt lat="48.62677" lon="7.1796">
        <ele>582.14</ele>
        <time>2020-08-19T18:04:35.000Z</time>
      </trkpt>
      <trkpt lat="48.62675" lon="7.17954">
        <ele>583.96</ele>
        <time>2020-08-19T18:04:38.000Z</time>
      </trkpt>
      <trkpt lat="48.62673" lon="7.17946">
        <ele>581.31</ele>
        <time>2020-08-19T18:04:44.000Z</time>
      </trkpt>
      <trkpt lat="48.6267" lon="7.1794">
        <ele>577.99</ele>
        <time>2020-08-19T18:04:48.000Z</time>
      </trkpt>
      <trkpt lat="48.62667" lon="7.17934">
        <ele>580.14</ele>
        <time>2020-08-19T18:04:52.000Z</time>
      </trkpt>
      <trkpt lat="48.62666" lon="7.17928">
        <ele>581.66</ele>
        <time>2020-08-19T18:04:56.000Z</time>
      </trkpt>
      <trkpt lat="48.62664" lon="7.17921">
        <ele>583.8</ele>
        <time>2020-08-19T18:04:59.000Z</time>
      </trkpt>
      <trkpt lat="48.62667" lon="7.17915">
        <ele>586.22</ele>
        <time>2020-08-19T18:05:05.000Z</time>
      </trkpt>
      <trkpt lat="48.62671" lon="7.17918">
        <ele>587.6</ele>
        <time>2020-08-19T18:05:28.000Z</time>
      </trkpt>
      <trkpt lat="48.62676" lon="7.17921">
        <ele>588.31</ele>
        <time>2020-08-19T18:05:32.000Z</time>
      </trkpt>
      <trkpt lat="48.6268" lon="7.17924">
        <ele>588.61</ele>
        <time>2020-08-19T18:05:35.000Z</time>
      </trkpt>
      <trkpt lat="48.62685" lon="7.17929">
        <ele>585.73</ele>
        <time>2020-08-19T18:05:38.000Z</time>
      </trkpt>
      <trkpt lat="48.62689" lon="7.17935">
        <ele>584.71</ele>
        <time>2020-08-19T18:05:42.000Z</time>
      </trkpt>
      <trkpt lat="48.62692" lon="7.1794">
        <ele>585.5</ele>
        <time>2020-08-19T18:05:46.000Z</time>
      </trkpt>
      <trkpt lat="48.62697" lon="7.17943">
        <ele>584.86</ele>
        <time>2020-08-19T18:05:51.000Z</time>
      </trkpt>
      <trkpt lat="48.62701" lon="7.17948">
        <ele>585.03</ele>
        <time>2020-08-19T18:05:54.000Z</time>
      </trkpt>
      <trkpt lat="48.62706" lon="7.17952">
        <ele>587.45</ele>
        <time>2020-08-19T18:05:58.000Z</time>
      </trkpt>
      <trkpt lat="48.62709" lon="7.17958">
        <ele>593.89</ele>
        <time>2020-08-19T18:07:11.000Z</time>
      </trkpt>
      <trkpt lat="48.62712" lon="7.17965">
        <ele>592.45</ele>
        <time>2020-08-19T18:07:14.000Z</time>
      </trkpt>
      <trkpt lat="48.62711" lon="7.17974">
        <ele>587.29</ele>
        <time>2020-08-19T18:07:17.000Z</time>
      </trkpt>
      <trkpt lat="48.62733" lon="7.18073">
        <ele>585.22</ele>
        <time>2020-08-19T18:07:37.000Z</time>
      </trkpt>
      <trkpt lat="48.62736" lon="7.1809">
        <ele>584.26</ele>
        <time>2020-08-19T18:07:39.000Z</time>
      </trkpt>
      <trkpt lat="48.62737" lon="7.18098">
        <ele>584.53</ele>
        <time>2020-08-19T18:07:40.000Z</time>
      </trkpt>
      <trkpt lat="48.62738" lon="7.18105">
        <ele>584.51</ele>
        <time>2020-08-19T18:07:41.000Z</time>
      </trkpt>
      <trkpt lat="48.62739" lon="7.18112">
        <ele>584.52</ele>
        <time>2020-08-19T18:07:42.000Z</time>
      </trkpt>
      <trkpt lat="48.62745" lon="7.18116">
        <ele>590.09</ele>
        <time>2020-08-19T18:07:43.000Z</time>
      </trkpt>
      <trkpt lat="48.62747" lon="7.18124">
        <ele>590.99</ele>
        <time>2020-08-19T18:07:44.000Z</time>
      </trkpt>
      <trkpt lat="48.6275" lon="7.18132">
        <ele>594.75</ele>
        <time>2020-08-19T18:07:45.000Z</time>
      </trkpt>
      <trkpt lat="48.62753" lon="7.18139">
        <ele>594.46</ele>
        <time>2020-08-19T18:07:46.000Z</time>
      </trkpt>
      <trkpt lat="48.62757" lon="7.18151">
        <ele>594.96</ele>
        <time>2020-08-19T18:07:48.000Z</time>
      </trkpt>
      <trkpt lat="48.62758" lon="7.18161">
        <ele>594.62</ele>
        <time>2020-08-19T18:07:50.000Z</time>
      </trkpt>
      <trkpt lat="48.62761" lon="7.18171">
        <ele>594.39</ele>
        <time>2020-08-19T18:07:52.000Z</time>
      </trkpt>
      <trkpt lat="48.62765" lon="7.18184">
        <ele>596.48</ele>
        <time>2020-08-19T18:07:54.000Z</time>
      </trkpt>
      <trkpt lat="48.62768" lon="7.18193">
        <ele>596.05</ele>
        <time>2020-08-19T18:07:55.000Z</time>
      </trkpt>
      <trkpt lat="48.6277" lon="7.182">
        <ele>595.53</ele>
        <time>2020-08-19T18:07:56.000Z</time>
      </trkpt>
      <trkpt lat="48.62774" lon="7.18214">
        <ele>593.56</ele>
        <time>2020-08-19T18:07:58.000Z</time>
      </trkpt>
      <trkpt lat="48.62777" lon="7.18221">
        <ele>591.75</ele>
        <time>2020-08-19T18:07:59.000Z</time>
      </trkpt>
      <trkpt lat="48.62779" lon="7.18227">
        <ele>590.74</ele>
        <time>2020-08-19T18:08:00.000Z</time>
      </trkpt>
      <trkpt lat="48.62783" lon="7.18235">
        <ele>589.92</ele>
        <time>2020-08-19T18:08:01.000Z</time>
      </trkpt>
      <trkpt lat="48.62787" lon="7.18244">
        <ele>589.08</ele>
        <time>2020-08-19T18:08:02.000Z</time>
      </trkpt>
      <trkpt lat="48.62796" lon="7.18264">
        <ele>588.75</ele>
        <time>2020-08-19T18:08:04.000Z</time>
      </trkpt>
      <trkpt lat="48.628" lon="7.18273">
        <ele>588.3</ele>
        <time>2020-08-19T18:08:05.000Z</time>
      </trkpt>
      <trkpt lat="48.62805" lon="7.18282">
        <ele>587.16</ele>
        <time>2020-08-19T18:08:06.000Z</time>
      </trkpt>
      <trkpt lat="48.6281" lon="7.1829">
        <ele>588.55</ele>
        <time>2020-08-19T18:08:07.000Z</time>
      </trkpt>
      <trkpt lat="48.62831" lon="7.18311">
        <ele>588.76</ele>
        <time>2020-08-19T18:08:11.000Z</time>
      </trkpt>
      <trkpt lat="48.62834" lon="7.18316">
        <ele>587.98</ele>
        <time>2020-08-19T18:08:13.000Z</time>
      </trkpt>
      <trkpt lat="48.62839" lon="7.18322">
        <ele>590.54</ele>
        <time>2020-08-19T18:08:21.000Z</time>
      </trkpt>
      <trkpt lat="48.62843" lon="7.18328">
        <ele>592.4</ele>
        <time>2020-08-19T18:08:24.000Z</time>
      </trkpt>
      <trkpt lat="48.62857" lon="7.18343">
        <ele>596.33</ele>
        <time>2020-08-19T18:08:27.000Z</time>
      </trkpt>
      <trkpt lat="48.62862" lon="7.18348">
        <ele>595.52</ele>
        <time>2020-08-19T18:08:28.000Z</time>
      </trkpt>
      <trkpt lat="48.62869" lon="7.18352">
        <ele>593.05</ele>
        <time>2020-08-19T18:08:30.000Z</time>
      </trkpt>
      <trkpt lat="48.62873" lon="7.18356">
        <ele>592.9</ele>
        <time>2020-08-19T18:08:38.000Z</time>
      </trkpt>
      <trkpt lat="48.62877" lon="7.18349">
        <ele>591.92</ele>
        <time>2020-08-19T18:08:43.000Z</time>
      </trkpt>
      <trkpt lat="48.6288" lon="7.18339">
        <ele>591.63</ele>
        <time>2020-08-19T18:08:46.000Z</time>
      </trkpt>
      <trkpt lat="48.62879" lon="7.18328">
        <ele>591.29</ele>
        <time>2020-08-19T18:08:48.000Z</time>
      </trkpt>
      <trkpt lat="48.62878" lon="7.18317">
        <ele>590.93</ele>
        <time>2020-08-19T18:08:50.000Z</time>
      </trkpt>
      <trkpt lat="48.62876" lon="7.18305">
        <ele>590.26</ele>
        <time>2020-08-19T18:08:52.000Z</time>
      </trkpt>
      <trkpt lat="48.62876" lon="7.18295">
        <ele>590.46</ele>
        <time>2020-08-19T18:08:54.000Z</time>
      </trkpt>
      <trkpt lat="48.62877" lon="7.18289">
        <ele>588.79</ele>
        <time>2020-08-19T18:09:01.000Z</time>
      </trkpt>
      <trkpt lat="48.62876" lon="7.18281">
        <ele>588.75</ele>
        <time>2020-08-19T18:09:06.000Z</time>
      </trkpt>
      <trkpt lat="48.62874" lon="7.18262">
        <ele>589.79</ele>
        <time>2020-08-19T18:09:09.000Z</time>
      </trkpt>
      <trkpt lat="48.62874" lon="7.18254">
        <ele>589.41</ele>
        <time>2020-08-19T18:09:10.000Z</time>
      </trkpt>
      <trkpt lat="48.6287" lon="7.1823">
        <ele>589</ele>
        <time>2020-08-19T18:09:13.000Z</time>
      </trkpt>
      <trkpt lat="48.62869" lon="7.18221">
        <ele>589.19</ele>
        <time>2020-08-19T18:09:14.000Z</time>
      </trkpt>
      <trkpt lat="48.62874" lon="7.1821">
        <ele>589.06</ele>
        <time>2020-08-19T18:09:15.000Z</time>
      </trkpt>
      <trkpt lat="48.62876" lon="7.18204">
        <ele>587.71</ele>
        <time>2020-08-19T18:09:16.000Z</time>
      </trkpt>
      <trkpt lat="48.62879" lon="7.18196">
        <ele>588.21</ele>
        <time>2020-08-19T18:09:17.000Z</time>
      </trkpt>
      <trkpt lat="48.62879" lon="7.18185">
        <ele>586.07</ele>
        <time>2020-08-19T18:09:19.000Z</time>
      </trkpt>
      <trkpt lat="48.62879" lon="7.18175">
        <ele>585.1</ele>
        <time>2020-08-19T18:09:21.000Z</time>
      </trkpt>
      <trkpt lat="48.6288" lon="7.18163">
        <ele>584.29</ele>
        <time>2020-08-19T18:09:23.000Z</time>
      </trkpt>
      <trkpt lat="48.6288" lon="7.18154">
        <ele>584.2</ele>
        <time>2020-08-19T18:09:24.000Z</time>
      </trkpt>
      <trkpt lat="48.62881" lon="7.18145">
        <ele>583.91</ele>
        <time>2020-08-19T18:09:25.000Z</time>
      </trkpt>
      <trkpt lat="48.62882" lon="7.18136">
        <ele>582.62</ele>
        <time>2020-08-19T18:09:26.000Z</time>
      </trkpt>
      <trkpt lat="48.62881" lon="7.18128">
        <ele>582.85</ele>
        <time>2020-08-19T18:09:27.000Z</time>
      </trkpt>
      <trkpt lat="48.62885" lon="7.18119">
        <ele>579.87</ele>
        <time>2020-08-19T18:09:28.000Z</time>
      </trkpt>
      <trkpt lat="48.6289" lon="7.18108">
        <ele>577.14</ele>
        <time>2020-08-19T18:09:30.000Z</time>
      </trkpt>
      <trkpt lat="48.62892" lon="7.18101">
        <ele>577.21</ele>
        <time>2020-08-19T18:09:31.000Z</time>
      </trkpt>
      <trkpt lat="48.62895" lon="7.18094">
        <ele>577.52</ele>
        <time>2020-08-19T18:09:32.000Z</time>
      </trkpt>
      <trkpt lat="48.62898" lon="7.18085">
        <ele>576.83</ele>
        <time>2020-08-19T18:09:33.000Z</time>
      </trkpt>
      <trkpt lat="48.62901" lon="7.18077">
        <ele>576.67</ele>
        <time>2020-08-19T18:09:34.000Z</time>
      </trkpt>
      <trkpt lat="48.62905" lon="7.1807">
        <ele>576.42</ele>
        <time>2020-08-19T18:09:35.000Z</time>
      </trkpt>
      <trkpt lat="48.62911" lon="7.18045">
        <ele>578.65</ele>
        <time>2020-08-19T18:09:37.000Z</time>
      </trkpt>
      <trkpt lat="48.62916" lon="7.18037">
        <ele>577.75</ele>
        <time>2020-08-19T18:09:38.000Z</time>
      </trkpt>
      <trkpt lat="48.62919" lon="7.18027">
        <ele>576.51</ele>
        <time>2020-08-19T18:09:39.000Z</time>
      </trkpt>
      <trkpt lat="48.62923" lon="7.1802">
        <ele>574.27</ele>
        <time>2020-08-19T18:09:40.000Z</time>
      </trkpt>
      <trkpt lat="48.62926" lon="7.18012">
        <ele>573.41</ele>
        <time>2020-08-19T18:09:41.000Z</time>
      </trkpt>
      <trkpt lat="48.62929" lon="7.18005">
        <ele>573.43</ele>
        <time>2020-08-19T18:09:42.000Z</time>
      </trkpt>
      <trkpt lat="48.62931" lon="7.17995">
        <ele>572.95</ele>
        <time>2020-08-19T18:09:43.000Z</time>
      </trkpt>
      <trkpt lat="48.62934" lon="7.17985">
        <ele>573.42</ele>
        <time>2020-08-19T18:09:44.000Z</time>
      </trkpt>
      <trkpt lat="48.62938" lon="7.17978">
        <ele>573.02</ele>
        <time>2020-08-19T18:09:45.000Z</time>
      </trkpt>
      <trkpt lat="48.62941" lon="7.17971">
        <ele>573.06</ele>
        <time>2020-08-19T18:09:46.000Z</time>
      </trkpt>
      <trkpt lat="48.62941" lon="7.17962">
        <ele>571.98</ele>
        <time>2020-08-19T18:09:47.000Z</time>
      </trkpt>
      <trkpt lat="48.62944" lon="7.17955">
        <ele>623.45</ele>
        <time>2020-08-19T18:09:48.000Z</time>
      </trkpt>
      <trkpt lat="48.62944" lon="7.17947">
        <ele>613.72</ele>
        <time>2020-08-19T18:09:49.000Z</time>
      </trkpt>
      <trkpt lat="48.62948" lon="7.1794">
        <ele>605.04</ele>
        <time>2020-08-19T18:09:50.000Z</time>
      </trkpt>
      <trkpt lat="48.62952" lon="7.17934">
        <ele>596.39</ele>
        <time>2020-08-19T18:09:51.000Z</time>
      </trkpt>
      <trkpt lat="48.62954" lon="7.17928">
        <ele>590.07</ele>
        <time>2020-08-19T18:09:52.000Z</time>
      </trkpt>
      <trkpt lat="48.62956" lon="7.17921">
        <ele>585.42</ele>
        <time>2020-08-19T18:09:53.000Z</time>
      </trkpt>
      <trkpt lat="48.62959" lon="7.17914">
        <ele>583.66</ele>
        <time>2020-08-19T18:09:54.000Z</time>
      </trkpt>
      <trkpt lat="48.62962" lon="7.17907">
        <ele>581.49</ele>
        <time>2020-08-19T18:09:55.000Z</time>
      </trkpt>
      <trkpt lat="48.62967" lon="7.17899">
        <ele>582.14</ele>
        <time>2020-08-19T18:09:57.000Z</time>
      </trkpt>
      <trkpt lat="48.62971" lon="7.17893">
        <ele>577.83</ele>
        <time>2020-08-19T18:09:58.000Z</time>
      </trkpt>
      <trkpt lat="48.62974" lon="7.17887">
        <ele>576.37</ele>
        <time>2020-08-19T18:09:59.000Z</time>
      </trkpt>
      <trkpt lat="48.62978" lon="7.17883">
        <ele>573.89</ele>
        <time>2020-08-19T18:10:00.000Z</time>
      </trkpt>
      <trkpt lat="48.62983" lon="7.17877">
        <ele>573.02</ele>
        <time>2020-08-19T18:10:01.000Z</time>
      </trkpt>
      <trkpt lat="48.62989" lon="7.17871">
        <ele>572.2</ele>
        <time>2020-08-19T18:10:02.000Z</time>
      </trkpt>
      <trkpt lat="48.63001" lon="7.17854">
        <ele>571.73</ele>
        <time>2020-08-19T18:10:04.000Z</time>
      </trkpt>
      <trkpt lat="48.6302" lon="7.17827">
        <ele>569.21</ele>
        <time>2020-08-19T18:10:07.000Z</time>
      </trkpt>
      <trkpt lat="48.63025" lon="7.17818">
        <ele>568.49</ele>
        <time>2020-08-19T18:10:08.000Z</time>
      </trkpt>
      <trkpt lat="48.63029" lon="7.1781">
        <ele>568.31</ele>
        <time>2020-08-19T18:10:09.000Z</time>
      </trkpt>
      <trkpt lat="48.63034" lon="7.17801">
        <ele>571.49</ele>
        <time>2020-08-19T18:10:10.000Z</time>
      </trkpt>
      <trkpt lat="48.63037" lon="7.17793">
        <ele>571.57</ele>
        <time>2020-08-19T18:10:11.000Z</time>
      </trkpt>
      <trkpt lat="48.6304" lon="7.17785">
        <ele>572.65</ele>
        <time>2020-08-19T18:10:12.000Z</time>
      </trkpt>
      <trkpt lat="48.63044" lon="7.17776">
        <ele>573.48</ele>
        <time>2020-08-19T18:10:13.000Z</time>
      </trkpt>
      <trkpt lat="48.63047" lon="7.17768">
        <ele>573.66</ele>
        <time>2020-08-19T18:10:14.000Z</time>
      </trkpt>
      <trkpt lat="48.6305" lon="7.17759">
        <ele>574.17</ele>
        <time>2020-08-19T18:10:15.000Z</time>
      </trkpt>
      <trkpt lat="48.63052" lon="7.17753">
        <ele>575.09</ele>
        <time>2020-08-19T18:10:16.000Z</time>
      </trkpt>
      <trkpt lat="48.63056" lon="7.17744">
        <ele>574.44</ele>
        <time>2020-08-19T18:10:17.000Z</time>
      </trkpt>
      <trkpt lat="48.6306" lon="7.17735">
        <ele>574.61</ele>
        <time>2020-08-19T18:10:18.000Z</time>
      </trkpt>
      <trkpt lat="48.63064" lon="7.17725">
        <ele>574.34</ele>
        <time>2020-08-19T18:10:19.000Z</time>
      </trkpt>
      <trkpt lat="48.63066" lon="7.17719">
        <ele>574.27</ele>
        <time>2020-08-19T18:10:20.000Z</time>
      </trkpt>
      <trkpt lat="48.6307" lon="7.1771">
        <ele>571.94</ele>
        <time>2020-08-19T18:10:21.000Z</time>
      </trkpt>
      <trkpt lat="48.63075" lon="7.17703">
        <ele>571.22</ele>
        <time>2020-08-19T18:10:22.000Z</time>
      </trkpt>
      <trkpt lat="48.63081" lon="7.17697">
        <ele>570.5</ele>
        <time>2020-08-19T18:10:23.000Z</time>
      </trkpt>
      <trkpt lat="48.63085" lon="7.1769">
        <ele>569.39</ele>
        <time>2020-08-19T18:10:24.000Z</time>
      </trkpt>
      <trkpt lat="48.63089" lon="7.17684">
        <ele>569.55</ele>
        <time>2020-08-19T18:10:25.000Z</time>
      </trkpt>
      <trkpt lat="48.63091" lon="7.17676">
        <ele>572.59</ele>
        <time>2020-08-19T18:10:48.000Z</time>
      </trkpt>
      <trkpt lat="48.63096" lon="7.17672">
        <ele>572.78</ele>
        <time>2020-08-19T18:10:50.000Z</time>
      </trkpt>
      <trkpt lat="48.631" lon="7.17663">
        <ele>574.79</ele>
        <time>2020-08-19T18:10:53.000Z</time>
      </trkpt>
      <trkpt lat="48.63106" lon="7.17658">
        <ele>575.65</ele>
        <time>2020-08-19T18:10:55.000Z</time>
      </trkpt>
      <trkpt lat="48.63111" lon="7.17654">
        <ele>577.92</ele>
        <time>2020-08-19T18:10:57.000Z</time>
      </trkpt>
      <trkpt lat="48.63115" lon="7.17648">
        <ele>577.87</ele>
        <time>2020-08-19T18:10:59.000Z</time>
      </trkpt>
      <trkpt lat="48.63119" lon="7.17642">
        <ele>576.66</ele>
        <time>2020-08-19T18:11:01.000Z</time>
      </trkpt>
      <trkpt lat="48.63124" lon="7.17635">
        <ele>577.39</ele>
        <time>2020-08-19T18:11:03.000Z</time>
      </trkpt>
      <trkpt lat="48.6313" lon="7.17631">
        <ele>577.42</ele>
        <time>2020-08-19T18:11:05.000Z</time>
      </trkpt>
      <trkpt lat="48.63134" lon="7.17628">
        <ele>575.86</ele>
        <time>2020-08-19T18:11:07.000Z</time>
      </trkpt>
      <trkpt lat="48.6314" lon="7.17623">
        <ele>574.19</ele>
        <time>2020-08-19T18:11:09.000Z</time>
      </trkpt>
      <trkpt lat="48.63147" lon="7.17619">
        <ele>573.79</ele>
        <time>2020-08-19T18:11:11.000Z</time>
      </trkpt>
      <trkpt lat="48.63152" lon="7.17616">
        <ele>570.18</ele>
        <time>2020-08-19T18:11:13.000Z</time>
      </trkpt>
      <trkpt lat="48.63156" lon="7.17611">
        <ele>571.91</ele>
        <time>2020-08-19T18:11:15.000Z</time>
      </trkpt>
      <trkpt lat="48.63162" lon="7.17605">
        <ele>570.25</ele>
        <time>2020-08-19T18:11:17.000Z</time>
      </trkpt>
      <trkpt lat="48.63169" lon="7.17602">
        <ele>568.19</ele>
        <time>2020-08-19T18:11:19.000Z</time>
      </trkpt>
      <trkpt lat="48.63188" lon="7.17591">
        <ele>570.26</ele>
        <time>2020-08-19T18:11:23.000Z</time>
      </trkpt>
      <trkpt lat="48.63193" lon="7.17589">
        <ele>570.98</ele>
        <time>2020-08-19T18:11:24.000Z</time>
      </trkpt>
      <trkpt lat="48.63198" lon="7.17587">
        <ele>571.49</ele>
        <time>2020-08-19T18:11:25.000Z</time>
      </trkpt>
      <trkpt lat="48.63202" lon="7.17584">
        <ele>572.61</ele>
        <time>2020-08-19T18:11:26.000Z</time>
      </trkpt>
      <trkpt lat="48.63207" lon="7.17581">
        <ele>570.47</ele>
        <time>2020-08-19T18:11:27.000Z</time>
      </trkpt>
      <trkpt lat="48.6322" lon="7.17577">
        <ele>567.67</ele>
        <time>2020-08-19T18:11:30.000Z</time>
      </trkpt>
      <trkpt lat="48.63225" lon="7.17577">
        <ele>569.81</ele>
        <time>2020-08-19T18:11:31.000Z</time>
      </trkpt>
      <trkpt lat="48.63235" lon="7.17575">
        <ele>569.84</ele>
        <time>2020-08-19T18:11:33.000Z</time>
      </trkpt>
      <trkpt lat="48.63244" lon="7.17579">
        <ele>568.21</ele>
        <time>2020-08-19T18:11:35.000Z</time>
      </trkpt>
      <trkpt lat="48.63249" lon="7.17579">
        <ele>568.36</ele>
        <time>2020-08-19T18:11:36.000Z</time>
      </trkpt>
      <trkpt lat="48.63255" lon="7.17577">
        <ele>568.92</ele>
        <time>2020-08-19T18:11:37.000Z</time>
      </trkpt>
      <trkpt lat="48.63259" lon="7.17575">
        <ele>574.52</ele>
        <time>2020-08-19T18:11:43.000Z</time>
      </trkpt>
      <trkpt lat="48.63263" lon="7.17578">
        <ele>575.56</ele>
        <time>2020-08-19T18:11:50.000Z</time>
      </trkpt>
      <trkpt lat="48.63268" lon="7.17584">
        <ele>576.87</ele>
        <time>2020-08-19T18:11:57.000Z</time>
      </trkpt>
      <trkpt lat="48.63273" lon="7.17586">
        <ele>576.49</ele>
        <time>2020-08-19T18:11:59.000Z</time>
      </trkpt>
      <trkpt lat="48.63278" lon="7.17589">
        <ele>576.33</ele>
        <time>2020-08-19T18:12:02.000Z</time>
      </trkpt>
      <trkpt lat="48.63284" lon="7.17593">
        <ele>575.89</ele>
        <time>2020-08-19T18:12:04.000Z</time>
      </trkpt>
      <trkpt lat="48.6329" lon="7.17597">
        <ele>576.53</ele>
        <time>2020-08-19T18:12:06.000Z</time>
      </trkpt>
      <trkpt lat="48.63296" lon="7.176">
        <ele>577.2</ele>
        <time>2020-08-19T18:12:08.000Z</time>
      </trkpt>
      <trkpt lat="48.63304" lon="7.17607">
        <ele>576.91</ele>
        <time>2020-08-19T18:12:10.000Z</time>
      </trkpt>
      <trkpt lat="48.63311" lon="7.17613">
        <ele>577.79</ele>
        <time>2020-08-19T18:12:12.000Z</time>
      </trkpt>
      <trkpt lat="48.63317" lon="7.17619">
        <ele>578.4</ele>
        <time>2020-08-19T18:12:14.000Z</time>
      </trkpt>
      <trkpt lat="48.63333" lon="7.17632">
        <ele>576.19</ele>
        <time>2020-08-19T18:12:17.000Z</time>
      </trkpt>
      <trkpt lat="48.63338" lon="7.17637">
        <ele>574.69</ele>
        <time>2020-08-19T18:12:18.000Z</time>
      </trkpt>
      <trkpt lat="48.63343" lon="7.17639">
        <ele>574.53</ele>
        <time>2020-08-19T18:12:19.000Z</time>
      </trkpt>
      <trkpt lat="48.63347" lon="7.17643">
        <ele>572.29</ele>
        <time>2020-08-19T18:12:20.000Z</time>
      </trkpt>
      <trkpt lat="48.63352" lon="7.17647">
        <ele>571.82</ele>
        <time>2020-08-19T18:12:21.000Z</time>
      </trkpt>
      <trkpt lat="48.63355" lon="7.17652">
        <ele>571.29</ele>
        <time>2020-08-19T18:12:22.000Z</time>
      </trkpt>
      <trkpt lat="48.6336" lon="7.17657">
        <ele>571.53</ele>
        <time>2020-08-19T18:12:23.000Z</time>
      </trkpt>
      <trkpt lat="48.63364" lon="7.17661">
        <ele>572.12</ele>
        <time>2020-08-19T18:12:24.000Z</time>
      </trkpt>
      <trkpt lat="48.63366" lon="7.17668">
        <ele>572.53</ele>
        <time>2020-08-19T18:12:25.000Z</time>
      </trkpt>
      <trkpt lat="48.63373" lon="7.17674">
        <ele>570.64</ele>
        <time>2020-08-19T18:12:27.000Z</time>
      </trkpt>
      <trkpt lat="48.63377" lon="7.17679">
        <ele>571.25</ele>
        <time>2020-08-19T18:12:28.000Z</time>
      </trkpt>
      <trkpt lat="48.63381" lon="7.17683">
        <ele>570.9</ele>
        <time>2020-08-19T18:12:29.000Z</time>
      </trkpt>
      <trkpt lat="48.63389" lon="7.17701">
        <ele>547.82</ele>
        <time>2020-08-19T18:12:32.000Z</time>
      </trkpt>
      <trkpt lat="48.63394" lon="7.17704">
        <ele>551.08</ele>
        <time>2020-08-19T18:12:33.000Z</time>
      </trkpt>
      <trkpt lat="48.634" lon="7.17707">
        <ele>553.31</ele>
        <time>2020-08-19T18:12:34.000Z</time>
      </trkpt>
      <trkpt lat="48.63404" lon="7.17712">
        <ele>556.91</ele>
        <time>2020-08-19T18:12:35.000Z</time>
      </trkpt>
      <trkpt lat="48.63408" lon="7.17716">
        <ele>559.7</ele>
        <time>2020-08-19T18:12:36.000Z</time>
      </trkpt>
      <trkpt lat="48.63415" lon="7.17726">
        <ele>560.23</ele>
        <time>2020-08-19T18:12:38.000Z</time>
      </trkpt>
      <trkpt lat="48.63421" lon="7.17734">
        <ele>563.65</ele>
        <time>2020-08-19T18:12:40.000Z</time>
      </trkpt>
      <trkpt lat="48.63428" lon="7.17743">
        <ele>563.77</ele>
        <time>2020-08-19T18:12:42.000Z</time>
      </trkpt>
      <trkpt lat="48.63431" lon="7.17749">
        <ele>564.99</ele>
        <time>2020-08-19T18:12:43.000Z</time>
      </trkpt>
      <trkpt lat="48.63437" lon="7.17754">
        <ele>568.56</ele>
        <time>2020-08-19T18:12:45.000Z</time>
      </trkpt>
      <trkpt lat="48.63443" lon="7.1776">
        <ele>567.2</ele>
        <time>2020-08-19T18:12:47.000Z</time>
      </trkpt>
      <trkpt lat="48.63449" lon="7.17767">
        <ele>565.53</ele>
        <time>2020-08-19T18:12:49.000Z</time>
      </trkpt>
      <trkpt lat="48.63454" lon="7.17769">
        <ele>563.42</ele>
        <time>2020-08-19T18:12:55.000Z</time>
      </trkpt>
      <trkpt lat="48.63458" lon="7.17775">
        <ele>549.05</ele>
        <time>2020-08-19T18:13:08.000Z</time>
      </trkpt>
      <trkpt lat="48.63463" lon="7.17785">
        <ele>552.71</ele>
        <time>2020-08-19T18:13:10.000Z</time>
      </trkpt>
      <trkpt lat="48.63468" lon="7.17788">
        <ele>555.72</ele>
        <time>2020-08-19T18:13:11.000Z</time>
      </trkpt>
      <trkpt lat="48.63472" lon="7.17793">
        <ele>558.33</ele>
        <time>2020-08-19T18:13:12.000Z</time>
      </trkpt>
      <trkpt lat="48.63479" lon="7.17804">
        <ele>562.02</ele>
        <time>2020-08-19T18:13:14.000Z</time>
      </trkpt>
      <trkpt lat="48.63483" lon="7.1781">
        <ele>563.17</ele>
        <time>2020-08-19T18:13:15.000Z</time>
      </trkpt>
      <trkpt lat="48.63487" lon="7.17816">
        <ele>565.16</ele>
        <time>2020-08-19T18:13:16.000Z</time>
      </trkpt>
      <trkpt lat="48.63492" lon="7.17822">
        <ele>565.32</ele>
        <time>2020-08-19T18:13:17.000Z</time>
      </trkpt>
      <trkpt lat="48.63496" lon="7.17828">
        <ele>566.11</ele>
        <time>2020-08-19T18:13:18.000Z</time>
      </trkpt>
      <trkpt lat="48.63501" lon="7.17834">
        <ele>566.33</ele>
        <time>2020-08-19T18:13:19.000Z</time>
      </trkpt>
      <trkpt lat="48.63506" lon="7.17842">
        <ele>567.65</ele>
        <time>2020-08-19T18:13:20.000Z</time>
      </trkpt>
      <trkpt lat="48.6351" lon="7.17849">
        <ele>568.42</ele>
        <time>2020-08-19T18:13:21.000Z</time>
      </trkpt>
      <trkpt lat="48.63513" lon="7.17857">
        <ele>567.27</ele>
        <time>2020-08-19T18:13:22.000Z</time>
      </trkpt>
      <trkpt lat="48.63516" lon="7.17865">
        <ele>566.65</ele>
        <time>2020-08-19T18:13:23.000Z</time>
      </trkpt>
      <trkpt lat="48.63543" lon="7.1791">
        <ele>566.33</ele>
        <time>2020-08-19T18:13:29.000Z</time>
      </trkpt>
      <trkpt lat="48.63547" lon="7.17914">
        <ele>566.12</ele>
        <time>2020-08-19T18:13:30.000Z</time>
      </trkpt>
      <trkpt lat="48.63549" lon="7.17921">
        <ele>567.77</ele>
        <time>2020-08-19T18:13:48.000Z</time>
      </trkpt>
      <trkpt lat="48.63553" lon="7.17927">
        <ele>567.29</ele>
        <time>2020-08-19T18:13:50.000Z</time>
      </trkpt>
      <trkpt lat="48.63556" lon="7.17933">
        <ele>568.13</ele>
        <time>2020-08-19T18:13:51.000Z</time>
      </trkpt>
      <trkpt lat="48.63562" lon="7.1794">
        <ele>567.62</ele>
        <time>2020-08-19T18:13:53.000Z</time>
      </trkpt>
      <trkpt lat="48.63567" lon="7.17948">
        <ele>568.09</ele>
        <time>2020-08-19T18:13:55.000Z</time>
      </trkpt>
      <trkpt lat="48.63571" lon="7.17953">
        <ele>568.94</ele>
        <time>2020-08-19T18:13:56.000Z</time>
      </trkpt>
      <trkpt lat="48.63575" lon="7.17961">
        <ele>567.99</ele>
        <time>2020-08-19T18:13:58.000Z</time>
      </trkpt>
      <trkpt lat="48.63578" lon="7.17966">
        <ele>569.84</ele>
        <time>2020-08-19T18:14:05.000Z</time>
      </trkpt>
      <trkpt lat="48.63579" lon="7.17973">
        <ele>569.42</ele>
        <time>2020-08-19T18:14:07.000Z</time>
      </trkpt>
      <trkpt lat="48.63583" lon="7.17982">
        <ele>569.93</ele>
        <time>2020-08-19T18:14:09.000Z</time>
      </trkpt>
      <trkpt lat="48.63587" lon="7.17991">
        <ele>571.49</ele>
        <time>2020-08-19T18:14:11.000Z</time>
      </trkpt>
      <trkpt lat="48.63591" lon="7.17999">
        <ele>570.63</ele>
        <time>2020-08-19T18:14:13.000Z</time>
      </trkpt>
      <trkpt lat="48.63593" lon="7.18006">
        <ele>567.34</ele>
        <time>2020-08-19T18:14:15.000Z</time>
      </trkpt>
      <trkpt lat="48.63596" lon="7.18016">
        <ele>566.67</ele>
        <time>2020-08-19T18:14:17.000Z</time>
      </trkpt>
      <trkpt lat="48.63601" lon="7.18021">
        <ele>567.14</ele>
        <time>2020-08-19T18:14:18.000Z</time>
      </trkpt>
      <trkpt lat="48.63604" lon="7.18033">
        <ele>566.9</ele>
        <time>2020-08-19T18:14:20.000Z</time>
      </trkpt>
      <trkpt lat="48.63607" lon="7.18046">
        <ele>566.89</ele>
        <time>2020-08-19T18:14:22.000Z</time>
      </trkpt>
      <trkpt lat="48.6361" lon="7.18055">
        <ele>567.14</ele>
        <time>2020-08-19T18:14:23.000Z</time>
      </trkpt>
      <trkpt lat="48.63631" lon="7.18097">
        <ele>570.98</ele>
        <time>2020-08-19T18:14:29.000Z</time>
      </trkpt>
      <trkpt lat="48.63632" lon="7.18107">
        <ele>571.43</ele>
        <time>2020-08-19T18:14:31.000Z</time>
      </trkpt>
      <trkpt lat="48.63637" lon="7.18112">
        <ele>575.58</ele>
        <time>2020-08-19T18:14:41.000Z</time>
      </trkpt>
      <trkpt lat="48.63639" lon="7.18119">
        <ele>572.93</ele>
        <time>2020-08-19T18:14:43.000Z</time>
      </trkpt>
      <trkpt lat="48.6364" lon="7.18126">
        <ele>573.24</ele>
        <time>2020-08-19T18:14:45.000Z</time>
      </trkpt>
      <trkpt lat="48.63651" lon="7.18138">
        <ele>571.54</ele>
        <time>2020-08-19T18:14:48.000Z</time>
      </trkpt>
      <trkpt lat="48.63664" lon="7.18159">
        <ele>573.09</ele>
        <time>2020-08-19T18:14:52.000Z</time>
      </trkpt>
      <trkpt lat="48.63673" lon="7.18176">
        <ele>574.09</ele>
        <time>2020-08-19T18:14:55.000Z</time>
      </trkpt>
      <trkpt lat="48.63676" lon="7.18182">
        <ele>574.94</ele>
        <time>2020-08-19T18:14:56.000Z</time>
      </trkpt>
      <trkpt lat="48.6368" lon="7.18184">
        <ele>578.22</ele>
        <time>2020-08-19T18:15:07.000Z</time>
      </trkpt>
      <trkpt lat="48.63683" lon="7.1819">
        <ele>578.57</ele>
        <time>2020-08-19T18:15:09.000Z</time>
      </trkpt>
      <trkpt lat="48.6368" lon="7.18196">
        <ele>578.44</ele>
        <time>2020-08-19T18:15:13.000Z</time>
      </trkpt>
      <trkpt lat="48.63676" lon="7.18201">
        <ele>580.02</ele>
        <time>2020-08-19T18:15:17.000Z</time>
      </trkpt>
      <trkpt lat="48.63671" lon="7.18196">
        <ele>575.52</ele>
        <time>2020-08-19T18:15:24.000Z</time>
      </trkpt>
      <trkpt lat="48.63667" lon="7.18192">
        <ele>573.75</ele>
        <time>2020-08-19T18:15:27.000Z</time>
      </trkpt>
      <trkpt lat="48.63663" lon="7.18188">
        <ele>574.68</ele>
        <time>2020-08-19T18:15:30.000Z</time>
      </trkpt>
      <trkpt lat="48.63658" lon="7.18192">
        <ele>573.69</ele>
        <time>2020-08-19T18:15:35.000Z</time>
      </trkpt>
      <trkpt lat="48.63653" lon="7.18194">
        <ele>572.52</ele>
        <time>2020-08-19T18:15:37.000Z</time>
      </trkpt>
      <trkpt lat="48.63648" lon="7.18195">
        <ele>572.16</ele>
        <time>2020-08-19T18:15:39.000Z</time>
      </trkpt>
      <trkpt lat="48.63643" lon="7.18196">
        <ele>569.46</ele>
        <time>2020-08-19T18:15:41.000Z</time>
      </trkpt>
      <trkpt lat="48.63638" lon="7.182">
        <ele>569.66</ele>
        <time>2020-08-19T18:15:44.000Z</time>
      </trkpt>
      <trkpt lat="48.63632" lon="7.18204">
        <ele>568.79</ele>
        <time>2020-08-19T18:15:48.000Z</time>
      </trkpt>
      <trkpt lat="48.63627" lon="7.18204">
        <ele>565.53</ele>
        <time>2020-08-19T18:15:50.000Z</time>
      </trkpt>
      <trkpt lat="48.63623" lon="7.18205">
        <ele>567.2</ele>
        <time>2020-08-19T18:15:52.000Z</time>
      </trkpt>
      <trkpt lat="48.63617" lon="7.18202">
        <ele>568.34</ele>
        <time>2020-08-19T18:15:54.000Z</time>
      </trkpt>
      <trkpt lat="48.63611" lon="7.18199">
        <ele>570.38</ele>
        <time>2020-08-19T18:15:56.000Z</time>
      </trkpt>
      <trkpt lat="48.63605" lon="7.182">
        <ele>571.58</ele>
        <time>2020-08-19T18:15:58.000Z</time>
      </trkpt>
      <trkpt lat="48.63601" lon="7.18203">
        <ele>569.84</ele>
        <time>2020-08-19T18:16:00.000Z</time>
      </trkpt>
      <trkpt lat="48.63598" lon="7.18209">
        <ele>571.15</ele>
        <time>2020-08-19T18:16:03.000Z</time>
      </trkpt>
      <trkpt lat="48.63594" lon="7.18213">
        <ele>569.84</ele>
        <time>2020-08-19T18:16:06.000Z</time>
      </trkpt>
      <trkpt lat="48.6359" lon="7.18209">
        <ele>566.08</ele>
        <time>2020-08-19T18:16:09.000Z</time>
      </trkpt>
      <trkpt lat="48.63584" lon="7.18205">
        <ele>564.83</ele>
        <time>2020-08-19T18:16:11.000Z</time>
      </trkpt>
      <trkpt lat="48.63572" lon="7.18205">
        <ele>563.55</ele>
        <time>2020-08-19T18:16:15.000Z</time>
      </trkpt>
      <trkpt lat="48.63559" lon="7.18197">
        <ele>562.56</ele>
        <time>2020-08-19T18:16:19.000Z</time>
      </trkpt>
      <trkpt lat="48.63555" lon="7.18194">
        <ele>562.29</ele>
        <time>2020-08-19T18:16:21.000Z</time>
      </trkpt>
      <trkpt lat="48.63556" lon="7.18201">
        <ele>556.3</ele>
        <time>2020-08-19T18:16:40.000Z</time>
      </trkpt>
      <trkpt lat="48.6356" lon="7.18206">
        <ele>553.2</ele>
        <time>2020-08-19T18:16:46.000Z</time>
      </trkpt>
      <trkpt lat="48.63558" lon="7.18214">
        <ele>552.55</ele>
        <time>2020-08-19T18:16:55.000Z</time>
      </trkpt>
      <trkpt lat="48.63559" lon="7.18222">
        <ele>552.33</ele>
        <time>2020-08-19T18:17:02.000Z</time>
      </trkpt>
      <trkpt lat="48.63558" lon="7.18232">
        <ele>552.17</ele>
        <time>2020-08-19T18:17:05.000Z</time>
      </trkpt>
      <trkpt lat="48.63555" lon="7.18241">
        <ele>552.35</ele>
        <time>2020-08-19T18:17:07.000Z</time>
      </trkpt>
      <trkpt lat="48.6356" lon="7.18244">
        <ele>554.96</ele>
        <time>2020-08-19T18:17:12.000Z</time>
      </trkpt>
      <trkpt lat="48.6356" lon="7.18237">
        <ele>550.61</ele>
        <time>2020-08-19T18:17:17.000Z</time>
      </trkpt>
      <trkpt lat="48.63528" lon="7.18185">
        <ele>537.57</ele>
        <time>2020-08-19T18:17:56.000Z</time>
      </trkpt>
      <trkpt lat="48.63523" lon="7.18179">
        <ele>541.88</ele>
        <time>2020-08-19T18:18:08.000Z</time>
      </trkpt>
      <trkpt lat="48.63518" lon="7.18173">
        <ele>532.05</ele>
        <time>2020-08-19T18:18:16.000Z</time>
      </trkpt>
      <trkpt lat="48.63515" lon="7.18168">
        <ele>529.33</ele>
        <time>2020-08-19T18:18:21.000Z</time>
      </trkpt>
      <trkpt lat="48.63491" lon="7.18122">
        <ele>520.69</ele>
        <time>2020-08-19T18:18:48.000Z</time>
      </trkpt>
      <trkpt lat="48.63493" lon="7.18116">
        <ele>520.96</ele>
        <time>2020-08-19T18:18:56.000Z</time>
      </trkpt>
      <trkpt lat="48.63488" lon="7.18114">
        <ele>523.01</ele>
        <time>2020-08-19T18:19:03.000Z</time>
      </trkpt>
      <trkpt lat="48.63487" lon="7.18107">
        <ele>521.33</ele>
        <time>2020-08-19T18:19:09.000Z</time>
      </trkpt>
      <trkpt lat="48.63482" lon="7.18105">
        <ele>517.27</ele>
        <time>2020-08-19T18:19:13.000Z</time>
      </trkpt>
      <trkpt lat="48.63477" lon="7.18102">
        <ele>522.79</ele>
        <time>2020-08-19T18:19:18.000Z</time>
      </trkpt>
      <trkpt lat="48.63477" lon="7.18109">
        <ele>517.03</ele>
        <time>2020-08-19T18:19:41.000Z</time>
      </trkpt>
      <trkpt lat="48.63476" lon="7.18118">
        <ele>515</ele>
        <time>2020-08-19T18:19:43.000Z</time>
      </trkpt>
      <trkpt lat="48.63476" lon="7.18125">
        <ele>515.15</ele>
        <time>2020-08-19T18:19:45.000Z</time>
      </trkpt>
      <trkpt lat="48.63475" lon="7.18132">
        <ele>513.37</ele>
        <time>2020-08-19T18:19:51.000Z</time>
      </trkpt>
      <trkpt lat="48.63471" lon="7.18138">
        <ele>509.33</ele>
        <time>2020-08-19T18:19:54.000Z</time>
      </trkpt>
      <trkpt lat="48.63467" lon="7.18145">
        <ele>508.06</ele>
        <time>2020-08-19T18:19:57.000Z</time>
      </trkpt>
      <trkpt lat="48.63467" lon="7.18153">
        <ele>509</ele>
        <time>2020-08-19T18:19:59.000Z</time>
      </trkpt>
      <trkpt lat="48.63467" lon="7.18162">
        <ele>507.56</ele>
        <time>2020-08-19T18:20:02.000Z</time>
      </trkpt>
      <trkpt lat="48.63468" lon="7.18171">
        <ele>506.87</ele>
        <time>2020-08-19T18:20:04.000Z</time>
      </trkpt>
      <trkpt lat="48.63469" lon="7.18178">
        <ele>505.27</ele>
        <time>2020-08-19T18:20:06.000Z</time>
      </trkpt>
      <trkpt lat="48.63471" lon="7.18188">
        <ele>505.31</ele>
        <time>2020-08-19T18:20:08.000Z</time>
      </trkpt>
      <trkpt lat="48.63472" lon="7.18198">
        <ele>500.52</ele>
        <time>2020-08-19T18:20:10.000Z</time>
      </trkpt>
      <trkpt lat="48.63472" lon="7.1822">
        <ele>499.04</ele>
        <time>2020-08-19T18:20:15.000Z</time>
      </trkpt>
      <trkpt lat="48.63473" lon="7.18228">
        <ele>497.35</ele>
        <time>2020-08-19T18:20:17.000Z</time>
      </trkpt>
      <trkpt lat="48.63474" lon="7.18235">
        <ele>494.55</ele>
        <time>2020-08-19T18:20:19.000Z</time>
      </trkpt>
      <trkpt lat="48.63475" lon="7.18244">
        <ele>492.92</ele>
        <time>2020-08-19T18:20:22.000Z</time>
      </trkpt>
      <trkpt lat="48.63476" lon="7.18251">
        <ele>492.83</ele>
        <time>2020-08-19T18:20:25.000Z</time>
      </trkpt>
      <trkpt lat="48.63475" lon="7.1826">
        <ele>493.43</ele>
        <time>2020-08-19T18:20:27.000Z</time>
      </trkpt>
      <trkpt lat="48.63473" lon="7.18268">
        <ele>490.66</ele>
        <time>2020-08-19T18:20:31.000Z</time>
      </trkpt>
      <trkpt lat="48.6347" lon="7.18293">
        <ele>488.41</ele>
        <time>2020-08-19T18:20:48.000Z</time>
      </trkpt>
      <trkpt lat="48.63469" lon="7.18316">
        <ele>483.96</ele>
        <time>2020-08-19T18:20:53.000Z</time>
      </trkpt>
      <trkpt lat="48.63471" lon="7.18324">
        <ele>483.54</ele>
        <time>2020-08-19T18:20:56.000Z</time>
      </trkpt>
      <trkpt lat="48.63473" lon="7.18333">
        <ele>482.68</ele>
        <time>2020-08-19T18:20:59.000Z</time>
      </trkpt>
      <trkpt lat="48.63475" lon="7.18341">
        <ele>479.93</ele>
        <time>2020-08-19T18:21:01.000Z</time>
      </trkpt>
      <trkpt lat="48.63476" lon="7.18352">
        <ele>480.29</ele>
        <time>2020-08-19T18:21:03.000Z</time>
      </trkpt>
      <trkpt lat="48.63475" lon="7.18362">
        <ele>479.44</ele>
        <time>2020-08-19T18:21:05.000Z</time>
      </trkpt>
      <trkpt lat="48.63476" lon="7.1837">
        <ele>480.84</ele>
        <time>2020-08-19T18:21:07.000Z</time>
      </trkpt>
      <trkpt lat="48.63476" lon="7.18379">
        <ele>477.53</ele>
        <time>2020-08-19T18:21:09.000Z</time>
      </trkpt>
      <trkpt lat="48.63475" lon="7.18389">
        <ele>473.64</ele>
        <time>2020-08-19T18:21:11.000Z</time>
      </trkpt>
      <trkpt lat="48.63475" lon="7.18399">
        <ele>472.4</ele>
        <time>2020-08-19T18:21:13.000Z</time>
      </trkpt>
      <trkpt lat="48.63475" lon="7.18407">
        <ele>470.78</ele>
        <time>2020-08-19T18:21:15.000Z</time>
      </trkpt>
      <trkpt lat="48.63474" lon="7.18414">
        <ele>468.24</ele>
        <time>2020-08-19T18:21:18.000Z</time>
      </trkpt>
      <trkpt lat="48.63473" lon="7.18422">
        <ele>470</ele>
        <time>2020-08-19T18:21:21.000Z</time>
      </trkpt>
      <trkpt lat="48.63472" lon="7.18429">
        <ele>469.84</ele>
        <time>2020-08-19T18:21:25.000Z</time>
      </trkpt>
      <trkpt lat="48.63471" lon="7.18436">
        <ele>463.7</ele>
        <time>2020-08-19T18:21:32.000Z</time>
      </trkpt>
      <trkpt lat="48.63494" lon="7.18504">
        <ele>470.63</ele>
        <time>2020-08-19T18:21:48.000Z</time>
      </trkpt>
      <trkpt lat="48.63498" lon="7.18508">
        <ele>471.75</ele>
        <time>2020-08-19T18:21:50.000Z</time>
      </trkpt>
      <trkpt lat="48.63504" lon="7.18509">
        <ele>474.84</ele>
        <time>2020-08-19T18:21:58.000Z</time>
      </trkpt>
      <trkpt lat="48.63506" lon="7.18515">
        <ele>477.52</ele>
        <time>2020-08-19T18:22:09.000Z</time>
      </trkpt>
      <trkpt lat="48.6351" lon="7.18523">
        <ele>477.53</ele>
        <time>2020-08-19T18:22:11.000Z</time>
      </trkpt>
      <trkpt lat="48.63513" lon="7.18533">
        <ele>479.23</ele>
        <time>2020-08-19T18:22:13.000Z</time>
      </trkpt>
      <trkpt lat="48.63518" lon="7.18541">
        <ele>476.9</ele>
        <time>2020-08-19T18:22:15.000Z</time>
      </trkpt>
      <trkpt lat="48.63523" lon="7.18553">
        <ele>474.42</ele>
        <time>2020-08-19T18:22:17.000Z</time>
      </trkpt>
      <trkpt lat="48.63525" lon="7.18569">
        <ele>471.61</ele>
        <time>2020-08-19T18:22:19.000Z</time>
      </trkpt>
      <trkpt lat="48.63528" lon="7.18577">
        <ele>470.82</ele>
        <time>2020-08-19T18:22:20.000Z</time>
      </trkpt>
      <trkpt lat="48.6353" lon="7.18584">
        <ele>469.41</ele>
        <time>2020-08-19T18:22:21.000Z</time>
      </trkpt>
      <trkpt lat="48.63532" lon="7.1859">
        <ele>469.53</ele>
        <time>2020-08-19T18:22:22.000Z</time>
      </trkpt>
      <trkpt lat="48.63534" lon="7.18598">
        <ele>467.57</ele>
        <time>2020-08-19T18:22:23.000Z</time>
      </trkpt>
      <trkpt lat="48.63537" lon="7.18608">
        <ele>467.07</ele>
        <time>2020-08-19T18:22:24.000Z</time>
      </trkpt>
      <trkpt lat="48.63539" lon="7.18616">
        <ele>466.6</ele>
        <time>2020-08-19T18:22:25.000Z</time>
      </trkpt>
      <trkpt lat="48.63543" lon="7.18623">
        <ele>466.78</ele>
        <time>2020-08-19T18:22:26.000Z</time>
      </trkpt>
      <trkpt lat="48.63545" lon="7.1863">
        <ele>466.45</ele>
        <time>2020-08-19T18:22:27.000Z</time>
      </trkpt>
      <trkpt lat="48.63549" lon="7.18641">
        <ele>464.74</ele>
        <time>2020-08-19T18:22:28.000Z</time>
      </trkpt>
      <trkpt lat="48.63554" lon="7.18649">
        <ele>464.25</ele>
        <time>2020-08-19T18:22:29.000Z</time>
      </trkpt>
      <trkpt lat="48.6356" lon="7.18655">
        <ele>464.58</ele>
        <time>2020-08-19T18:22:30.000Z</time>
      </trkpt>
      <trkpt lat="48.63563" lon="7.1866">
        <ele>463.66</ele>
        <time>2020-08-19T18:22:31.000Z</time>
      </trkpt>
      <trkpt lat="48.63565" lon="7.18669">
        <ele>464.67</ele>
        <time>2020-08-19T18:22:32.000Z</time>
      </trkpt>
      <trkpt lat="48.63567" lon="7.18676">
        <ele>463.5</ele>
        <time>2020-08-19T18:22:33.000Z</time>
      </trkpt>
      <trkpt lat="48.6357" lon="7.18684">
        <ele>463.83</ele>
        <time>2020-08-19T18:22:34.000Z</time>
      </trkpt>
      <trkpt lat="48.63574" lon="7.18693">
        <ele>464.23</ele>
        <time>2020-08-19T18:22:35.000Z</time>
      </trkpt>
      <trkpt lat="48.63578" lon="7.187">
        <ele>463.47</ele>
        <time>2020-08-19T18:22:36.000Z</time>
      </trkpt>
      <trkpt lat="48.63583" lon="7.18708">
        <ele>462.78</ele>
        <time>2020-08-19T18:22:37.000Z</time>
      </trkpt>
      <trkpt lat="48.63588" lon="7.18715">
        <ele>463.33</ele>
        <time>2020-08-19T18:22:38.000Z</time>
      </trkpt>
      <trkpt lat="48.63599" lon="7.18728">
        <ele>465.81</ele>
        <time>2020-08-19T18:22:40.000Z</time>
      </trkpt>
      <trkpt lat="48.63603" lon="7.18733">
        <ele>464.47</ele>
        <time>2020-08-19T18:22:41.000Z</time>
      </trkpt>
      <trkpt lat="48.63605" lon="7.18739">
        <ele>465.98</ele>
        <time>2020-08-19T18:22:45.000Z</time>
      </trkpt>
      <trkpt lat="48.6361" lon="7.18744">
        <ele>470.18</ele>
        <time>2020-08-19T18:22:56.000Z</time>
      </trkpt>
      <trkpt lat="48.63613" lon="7.18747">
        <ele>472.16</ele>
        <time>2020-08-19T18:22:58.000Z</time>
      </trkpt>
      <trkpt lat="48.63618" lon="7.18751">
        <ele>473.06</ele>
        <time>2020-08-19T18:23:00.000Z</time>
      </trkpt>
      <trkpt lat="48.63626" lon="7.18755">
        <ele>472.08</ele>
        <time>2020-08-19T18:23:02.000Z</time>
      </trkpt>
      <trkpt lat="48.63634" lon="7.18761">
        <ele>471.96</ele>
        <time>2020-08-19T18:23:04.000Z</time>
      </trkpt>
      <trkpt lat="48.63645" lon="7.18773">
        <ele>468.29</ele>
        <time>2020-08-19T18:23:07.000Z</time>
      </trkpt>
      <trkpt lat="48.63653" lon="7.18778">
        <ele>468.91</ele>
        <time>2020-08-19T18:23:09.000Z</time>
      </trkpt>
      <trkpt lat="48.63658" lon="7.18779">
        <ele>468.86</ele>
        <time>2020-08-19T18:23:10.000Z</time>
      </trkpt>
      <trkpt lat="48.63665" lon="7.18784">
        <ele>470.81</ele>
        <time>2020-08-19T18:23:12.000Z</time>
      </trkpt>
      <trkpt lat="48.63659" lon="7.18784">
        <ele>470.26</ele>
        <time>2020-08-19T18:23:16.000Z</time>
      </trkpt>
      <trkpt lat="48.63654" lon="7.18782">
        <ele>471.86</ele>
        <time>2020-08-19T18:23:18.000Z</time>
      </trkpt>
      <trkpt lat="48.63646" lon="7.18777">
        <ele>474.25</ele>
        <time>2020-08-19T18:23:20.000Z</time>
      </trkpt>
      <trkpt lat="48.63641" lon="7.18774">
        <ele>474.4</ele>
        <time>2020-08-19T18:23:21.000Z</time>
      </trkpt>
      <trkpt lat="48.63639" lon="7.18768">
        <ele>472.38</ele>
        <time>2020-08-19T18:23:22.000Z</time>
      </trkpt>
      <trkpt lat="48.63634" lon="7.18763">
        <ele>472.1</ele>
        <time>2020-08-19T18:23:23.000Z</time>
      </trkpt>
      <trkpt lat="48.63629" lon="7.18759">
        <ele>471.95</ele>
        <time>2020-08-19T18:23:24.000Z</time>
      </trkpt>
      <trkpt lat="48.63625" lon="7.18752">
        <ele>472.08</ele>
        <time>2020-08-19T18:23:25.000Z</time>
      </trkpt>
      <trkpt lat="48.63618" lon="7.18746">
        <ele>470.51</ele>
        <time>2020-08-19T18:23:27.000Z</time>
      </trkpt>
      <trkpt lat="48.63613" lon="7.18751">
        <ele>470.91</ele>
        <time>2020-08-19T18:23:29.000Z</time>
      </trkpt>
      <trkpt lat="48.63613" lon="7.18758">
        <ele>471.49</ele>
        <time>2020-08-19T18:23:31.000Z</time>
      </trkpt>
      <trkpt lat="48.63616" lon="7.18767">
        <ele>470.13</ele>
        <time>2020-08-19T18:23:33.000Z</time>
      </trkpt>
      <trkpt lat="48.63619" lon="7.18773">
        <ele>471.23</ele>
        <time>2020-08-19T18:23:34.000Z</time>
      </trkpt>
      <trkpt lat="48.63622" lon="7.18781">
        <ele>468.91</ele>
        <time>2020-08-19T18:23:36.000Z</time>
      </trkpt>
      <trkpt lat="48.63625" lon="7.18787">
        <ele>468.96</ele>
        <time>2020-08-19T18:23:37.000Z</time>
      </trkpt>
      <trkpt lat="48.63629" lon="7.18793">
        <ele>468.37</ele>
        <time>2020-08-19T18:23:39.000Z</time>
      </trkpt>
      <trkpt lat="48.63632" lon="7.18799">
        <ele>465.88</ele>
        <time>2020-08-19T18:23:40.000Z</time>
      </trkpt>
      <trkpt lat="48.63636" lon="7.18808">
        <ele>459.95</ele>
        <time>2020-08-19T18:23:42.000Z</time>
      </trkpt>
      <trkpt lat="48.63643" lon="7.18809">
        <ele>466.73</ele>
        <time>2020-08-19T18:23:48.000Z</time>
      </trkpt>
      <trkpt lat="48.6365" lon="7.18819">
        <ele>465.61</ele>
        <time>2020-08-19T18:23:50.000Z</time>
      </trkpt>
      <trkpt lat="48.63655" lon="7.18826">
        <ele>462.9</ele>
        <time>2020-08-19T18:23:51.000Z</time>
      </trkpt>
      <trkpt lat="48.63658" lon="7.18833">
        <ele>461.69</ele>
        <time>2020-08-19T18:23:52.000Z</time>
      </trkpt>
      <trkpt lat="48.63662" lon="7.1884">
        <ele>461.44</ele>
        <time>2020-08-19T18:23:54.000Z</time>
      </trkpt>
      <trkpt lat="48.63662" lon="7.18862">
        <ele>459.18</ele>
        <time>2020-08-19T18:23:57.000Z</time>
      </trkpt>
      <trkpt lat="48.63667" lon="7.18866">
        <ele>457.97</ele>
        <time>2020-08-19T18:23:58.000Z</time>
      </trkpt>
      <trkpt lat="48.63674" lon="7.18879">
        <ele>458.27</ele>
        <time>2020-08-19T18:24:00.000Z</time>
      </trkpt>
      <trkpt lat="48.63675" lon="7.18886">
        <ele>457.16</ele>
        <time>2020-08-19T18:24:01.000Z</time>
      </trkpt>
      <trkpt lat="48.63678" lon="7.18896">
        <ele>456.21</ele>
        <time>2020-08-19T18:24:03.000Z</time>
      </trkpt>
      <trkpt lat="48.63684" lon="7.18902">
        <ele>454.1</ele>
        <time>2020-08-19T18:24:04.000Z</time>
      </trkpt>
      <trkpt lat="48.63685" lon="7.18909">
        <ele>453.68</ele>
        <time>2020-08-19T18:24:05.000Z</time>
      </trkpt>
      <trkpt lat="48.63686" lon="7.18923">
        <ele>453.84</ele>
        <time>2020-08-19T18:24:07.000Z</time>
      </trkpt>
      <trkpt lat="48.63691" lon="7.18938">
        <ele>452.25</ele>
        <time>2020-08-19T18:24:09.000Z</time>
      </trkpt>
      <trkpt lat="48.63692" lon="7.18946">
        <ele>452.17</ele>
        <time>2020-08-19T18:24:10.000Z</time>
      </trkpt>
      <trkpt lat="48.63693" lon="7.18954">
        <ele>451.84</ele>
        <time>2020-08-19T18:24:11.000Z</time>
      </trkpt>
      <trkpt lat="48.63693" lon="7.18964">
        <ele>449.45</ele>
        <time>2020-08-19T18:24:12.000Z</time>
      </trkpt>
      <trkpt lat="48.63696" lon="7.18981">
        <ele>449.83</ele>
        <time>2020-08-19T18:24:14.000Z</time>
      </trkpt>
      <trkpt lat="48.63697" lon="7.18995">
        <ele>446.87</ele>
        <time>2020-08-19T18:24:16.000Z</time>
      </trkpt>
      <trkpt lat="48.63696" lon="7.19002">
        <ele>444.96</ele>
        <time>2020-08-19T18:24:18.000Z</time>
      </trkpt>
      <trkpt lat="48.63695" lon="7.19009">
        <ele>445.44</ele>
        <time>2020-08-19T18:24:32.000Z</time>
      </trkpt>
      <trkpt lat="48.637" lon="7.19026">
        <ele>443.04</ele>
        <time>2020-08-19T18:24:35.000Z</time>
      </trkpt>
      <trkpt lat="48.63703" lon="7.19052">
        <ele>441.01</ele>
        <time>2020-08-19T18:24:39.000Z</time>
      </trkpt>
      <trkpt lat="48.63703" lon="7.19062">
        <ele>436.12</ele>
        <time>2020-08-19T18:24:41.000Z</time>
      </trkpt>
      <trkpt lat="48.63703" lon="7.19074">
        <ele>437.19</ele>
        <time>2020-08-19T18:24:43.000Z</time>
      </trkpt>
      <trkpt lat="48.63703" lon="7.19082">
        <ele>435.78</ele>
        <time>2020-08-19T18:24:45.000Z</time>
      </trkpt>
      <trkpt lat="48.637" lon="7.19088">
        <ele>432.26</ele>
        <time>2020-08-19T18:24:59.000Z</time>
      </trkpt>
      <trkpt lat="48.63691" lon="7.19098">
        <ele>431.43</ele>
        <time>2020-08-19T18:25:02.000Z</time>
      </trkpt>
      <trkpt lat="48.63685" lon="7.19106">
        <ele>431.71</ele>
        <time>2020-08-19T18:25:04.000Z</time>
      </trkpt>
      <trkpt lat="48.63681" lon="7.1911">
        <ele>431.55</ele>
        <time>2020-08-19T18:25:06.000Z</time>
      </trkpt>
      <trkpt lat="48.63677" lon="7.19115">
        <ele>433.58</ele>
        <time>2020-08-19T18:25:08.000Z</time>
      </trkpt>
      <trkpt lat="48.63671" lon="7.19121">
        <ele>433.23</ele>
        <time>2020-08-19T18:25:10.000Z</time>
      </trkpt>
      <trkpt lat="48.63665" lon="7.19121">
        <ele>428.08</ele>
        <time>2020-08-19T18:25:24.000Z</time>
      </trkpt>
      <trkpt lat="48.63657" lon="7.19125">
        <ele>427.26</ele>
        <time>2020-08-19T18:25:26.000Z</time>
      </trkpt>
      <trkpt lat="48.63654" lon="7.1913">
        <ele>429.07</ele>
        <time>2020-08-19T18:25:34.000Z</time>
      </trkpt>
      <trkpt lat="48.63649" lon="7.19132">
        <ele>424.72</ele>
        <time>2020-08-19T18:25:43.000Z</time>
      </trkpt>
      <trkpt lat="48.63645" lon="7.19131">
        <ele>424.21</ele>
        <time>2020-08-19T18:25:48.000Z</time>
      </trkpt>
      <trkpt lat="48.63639" lon="7.19133">
        <ele>421.14</ele>
        <time>2020-08-19T18:25:54.000Z</time>
      </trkpt>
      <trkpt lat="48.63635" lon="7.19136">
        <ele>419.37</ele>
        <time>2020-08-19T18:25:56.000Z</time>
      </trkpt>
      <trkpt lat="48.6363" lon="7.19139">
        <ele>418.69</ele>
        <time>2020-08-19T18:25:58.000Z</time>
      </trkpt>
      <trkpt lat="48.63626" lon="7.19144">
        <ele>417.47</ele>
        <time>2020-08-19T18:26:00.000Z</time>
      </trkpt>
      <trkpt lat="48.6362" lon="7.19152">
        <ele>415.68</ele>
        <time>2020-08-19T18:26:02.000Z</time>
      </trkpt>
      <trkpt lat="48.63616" lon="7.19159">
        <ele>414.98</ele>
        <time>2020-08-19T18:26:04.000Z</time>
      </trkpt>
      <trkpt lat="48.63613" lon="7.19165">
        <ele>416.7</ele>
        <time>2020-08-19T18:26:06.000Z</time>
      </trkpt>
      <trkpt lat="48.63611" lon="7.19173">
        <ele>416.3</ele>
        <time>2020-08-19T18:26:10.000Z</time>
      </trkpt>
      <trkpt lat="48.63607" lon="7.19178">
        <ele>416.98</ele>
        <time>2020-08-19T18:26:14.000Z</time>
      </trkpt>
      <trkpt lat="48.63603" lon="7.19186">
        <ele>413.11</ele>
        <time>2020-08-19T18:26:19.000Z</time>
      </trkpt>
      <trkpt lat="48.63601" lon="7.19194">
        <ele>411.91</ele>
        <time>2020-08-19T18:26:24.000Z</time>
      </trkpt>
      <trkpt lat="48.63597" lon="7.19199">
        <ele>406.7</ele>
        <time>2020-08-19T18:26:28.000Z</time>
      </trkpt>
      <trkpt lat="48.63593" lon="7.19204">
        <ele>405.69</ele>
        <time>2020-08-19T18:26:30.000Z</time>
      </trkpt>
      <trkpt lat="48.63591" lon="7.19211">
        <ele>404.62</ele>
        <time>2020-08-19T18:26:32.000Z</time>
      </trkpt>
      <trkpt lat="48.63588" lon="7.1922">
        <ele>396.35</ele>
        <time>2020-08-19T18:26:34.000Z</time>
      </trkpt>
      <trkpt lat="48.63587" lon="7.19228">
        <ele>400.23</ele>
        <time>2020-08-19T18:26:36.000Z</time>
      </trkpt>
      <trkpt lat="48.63587" lon="7.19236">
        <ele>401.35</ele>
        <time>2020-08-19T18:26:38.000Z</time>
      </trkpt>
      <trkpt lat="48.63585" lon="7.19245">
        <ele>402.37</ele>
        <time>2020-08-19T18:26:40.000Z</time>
      </trkpt>
      <trkpt lat="48.6358" lon="7.19261">
        <ele>400.36</ele>
        <time>2020-08-19T18:26:43.000Z</time>
      </trkpt>
      <trkpt lat="48.63571" lon="7.19296">
        <ele>390.12</ele>
        <time>2020-08-19T18:26:49.000Z</time>
      </trkpt>
      <trkpt lat="48.6357" lon="7.19306">
        <ele>392.73</ele>
        <time>2020-08-19T18:26:51.000Z</time>
      </trkpt>
      <trkpt lat="48.63569" lon="7.19313">
        <ele>395.55</ele>
        <time>2020-08-19T18:26:56.000Z</time>
      </trkpt>
      <trkpt lat="48.63566" lon="7.19321">
        <ele>400.32</ele>
        <time>2020-08-19T18:27:11.000Z</time>
      </trkpt>
      <trkpt lat="48.63546" lon="7.19329">
        <ele>393.45</ele>
        <time>2020-08-19T18:27:15.000Z</time>
      </trkpt>
      <trkpt lat="48.63541" lon="7.1933">
        <ele>393.1</ele>
        <time>2020-08-19T18:27:20.000Z</time>
      </trkpt>
      <trkpt lat="48.63531" lon="7.19335">
        <ele>384.45</ele>
        <time>2020-08-19T18:27:37.000Z</time>
      </trkpt>
      <trkpt lat="48.63526" lon="7.19338">
        <ele>382.98</ele>
        <time>2020-08-19T18:27:41.000Z</time>
      </trkpt>
      <trkpt lat="48.63526" lon="7.19345">
        <ele>379.88</ele>
        <time>2020-08-19T18:28:02.000Z</time>
      </trkpt>
      <trkpt lat="48.63532" lon="7.19384">
        <ele>378.63</ele>
        <time>2020-08-19T18:28:22.000Z</time>
      </trkpt>
      <trkpt lat="48.63526" lon="7.19387">
        <ele>377.55</ele>
        <time>2020-08-19T18:28:25.000Z</time>
      </trkpt>
      <trkpt lat="48.63521" lon="7.19389">
        <ele>373.1</ele>
        <time>2020-08-19T18:28:28.000Z</time>
      </trkpt>
      <trkpt lat="48.6351" lon="7.19392">
        <ele>372.01</ele>
        <time>2020-08-19T18:28:34.000Z</time>
      </trkpt>
      <trkpt lat="48.63505" lon="7.19394">
        <ele>369.39</ele>
        <time>2020-08-19T18:28:37.000Z</time>
      </trkpt>
      <trkpt lat="48.635" lon="7.19395">
        <ele>368.64</ele>
        <time>2020-08-19T18:28:43.000Z</time>
      </trkpt>
      <trkpt lat="48.63496" lon="7.19394">
        <ele>371.23</ele>
        <time>2020-08-19T18:28:49.000Z</time>
      </trkpt>
      <trkpt lat="48.63491" lon="7.1939">
        <ele>371.18</ele>
        <time>2020-08-19T18:28:59.000Z</time>
      </trkpt>
      <trkpt lat="48.63487" lon="7.19393">
        <ele>369.91</ele>
        <time>2020-08-19T18:29:12.000Z</time>
      </trkpt>
      <trkpt lat="48.63482" lon="7.19394">
        <ele>372.81</ele>
        <time>2020-08-19T18:29:15.000Z</time>
      </trkpt>
      <trkpt lat="48.63478" lon="7.1939">
        <ele>374.27</ele>
        <time>2020-08-19T18:29:23.000Z</time>
      </trkpt>
      <trkpt lat="48.63473" lon="7.19391">
        <ele>371.8</ele>
        <time>2020-08-19T18:29:27.000Z</time>
      </trkpt>
      <trkpt lat="48.63468" lon="7.19392">
        <ele>373.8</ele>
        <time>2020-08-19T18:29:31.000Z</time>
      </trkpt>
      <trkpt lat="48.63463" lon="7.19395">
        <ele>381.76</ele>
        <time>2020-08-19T18:29:36.000Z</time>
      </trkpt>
      <trkpt lat="48.63458" lon="7.19395">
        <ele>382.51</ele>
        <time>2020-08-19T18:29:40.000Z</time>
      </trkpt>
      <trkpt lat="48.63453" lon="7.1939">
        <ele>384.52</ele>
        <time>2020-08-19T18:29:44.000Z</time>
      </trkpt>
      <trkpt lat="48.63448" lon="7.19386">
        <ele>385.64</ele>
        <time>2020-08-19T18:29:48.000Z</time>
      </trkpt>
      <trkpt lat="48.63443" lon="7.19385">
        <ele>386.71</ele>
        <time>2020-08-19T18:29:52.000Z</time>
      </trkpt>
      <trkpt lat="48.6344" lon="7.19378">
        <ele>378.2</ele>
        <time>2020-08-19T18:29:56.000Z</time>
      </trkpt>
      <trkpt lat="48.63437" lon="7.19372">
        <ele>378.57</ele>
        <time>2020-08-19T18:30:01.000Z</time>
      </trkpt>
      <trkpt lat="48.63436" lon="7.19364">
        <ele>378.29</ele>
        <time>2020-08-19T18:30:06.000Z</time>
      </trkpt>
      <trkpt lat="48.6343" lon="7.19359">
        <ele>380.93</ele>
        <time>2020-08-19T18:30:11.000Z</time>
      </trkpt>
      <trkpt lat="48.63426" lon="7.19358">
        <ele>385.41</ele>
        <time>2020-08-19T18:30:15.000Z</time>
      </trkpt>
      <trkpt lat="48.63401" lon="7.1937">
        <ele>386.67</ele>
        <time>2020-08-19T18:30:29.000Z</time>
      </trkpt>
      <trkpt lat="48.63396" lon="7.1937">
        <ele>382.53</ele>
        <time>2020-08-19T18:30:32.000Z</time>
      </trkpt>
      <trkpt lat="48.63384" lon="7.1937">
        <ele>383.71</ele>
        <time>2020-08-19T18:30:41.000Z</time>
      </trkpt>
      <trkpt lat="48.6338" lon="7.19375">
        <ele>386.51</ele>
        <time>2020-08-19T18:30:46.000Z</time>
      </trkpt>
      <trkpt lat="48.63377" lon="7.19381">
        <ele>388.13</ele>
        <time>2020-08-19T18:30:50.000Z</time>
      </trkpt>
      <trkpt lat="48.63375" lon="7.19387">
        <ele>387.13</ele>
        <time>2020-08-19T18:31:02.000Z</time>
      </trkpt>
      <trkpt lat="48.6338" lon="7.1939">
        <ele>384.07</ele>
        <time>2020-08-19T18:31:10.000Z</time>
      </trkpt>
      <trkpt lat="48.63376" lon="7.19387">
        <ele>378.87</ele>
        <time>2020-08-19T18:31:19.000Z</time>
      </trkpt>
      <trkpt lat="48.63384" lon="7.19384">
        <ele>381.18</ele>
        <time>2020-08-19T18:31:27.000Z</time>
      </trkpt>
      <trkpt lat="48.63393" lon="7.19382">
        <ele>380.55</ele>
        <time>2020-08-19T18:31:29.000Z</time>
      </trkpt>
      <trkpt lat="48.63401" lon="7.19382">
        <ele>380.8</ele>
        <time>2020-08-19T18:31:31.000Z</time>
      </trkpt>
      <trkpt lat="48.63405" lon="7.19384">
        <ele>380.57</ele>
        <time>2020-08-19T18:31:32.000Z</time>
      </trkpt>
      <trkpt lat="48.6341" lon="7.19385">
        <ele>380.71</ele>
        <time>2020-08-19T18:31:33.000Z</time>
      </trkpt>
      <trkpt lat="48.63418" lon="7.19386">
        <ele>382.14</ele>
        <time>2020-08-19T18:31:35.000Z</time>
      </trkpt>
      <trkpt lat="48.63424" lon="7.19387">
        <ele>382.04</ele>
        <time>2020-08-19T18:31:36.000Z</time>
      </trkpt>
      <trkpt lat="48.6343" lon="7.19389">
        <ele>382.2</ele>
        <time>2020-08-19T18:31:37.000Z</time>
      </trkpt>
      <trkpt lat="48.63436" lon="7.19392">
        <ele>382.4</ele>
        <time>2020-08-19T18:31:38.000Z</time>
      </trkpt>
      <trkpt lat="48.63441" lon="7.19395">
        <ele>381.9</ele>
        <time>2020-08-19T18:31:39.000Z</time>
      </trkpt>
      <trkpt lat="48.63447" lon="7.19396">
        <ele>382.44</ele>
        <time>2020-08-19T18:31:40.000Z</time>
      </trkpt>
      <trkpt lat="48.63453" lon="7.19398">
        <ele>382.66</ele>
        <time>2020-08-19T18:31:41.000Z</time>
      </trkpt>
      <trkpt lat="48.63459" lon="7.19403">
        <ele>381.34</ele>
        <time>2020-08-19T18:31:42.000Z</time>
      </trkpt>
      <trkpt lat="48.63463" lon="7.19405">
        <ele>381.08</ele>
        <time>2020-08-19T18:31:43.000Z</time>
      </trkpt>
      <trkpt lat="48.63469" lon="7.19407">
        <ele>380.84</ele>
        <time>2020-08-19T18:31:44.000Z</time>
      </trkpt>
      <trkpt lat="48.63475" lon="7.19411">
        <ele>382.58</ele>
        <time>2020-08-19T18:31:45.000Z</time>
      </trkpt>
      <trkpt lat="48.63481" lon="7.19414">
        <ele>382.23</ele>
        <time>2020-08-19T18:31:46.000Z</time>
      </trkpt>
      <trkpt lat="48.63486" lon="7.19418">
        <ele>383.12</ele>
        <time>2020-08-19T18:31:47.000Z</time>
      </trkpt>
      <trkpt lat="48.63492" lon="7.19422">
        <ele>382.27</ele>
        <time>2020-08-19T18:31:48.000Z</time>
      </trkpt>
      <trkpt lat="48.63497" lon="7.19426">
        <ele>382.35</ele>
        <time>2020-08-19T18:31:49.000Z</time>
      </trkpt>
      <trkpt lat="48.63502" lon="7.1943">
        <ele>382.26</ele>
        <time>2020-08-19T18:31:50.000Z</time>
      </trkpt>
      <trkpt lat="48.63508" lon="7.19434">
        <ele>382.03</ele>
        <time>2020-08-19T18:31:51.000Z</time>
      </trkpt>
      <trkpt lat="48.63513" lon="7.19436">
        <ele>383.28</ele>
        <time>2020-08-19T18:31:52.000Z</time>
      </trkpt>
      <trkpt lat="48.63518" lon="7.19439">
        <ele>383.09</ele>
        <time>2020-08-19T18:31:53.000Z</time>
      </trkpt>
      <trkpt lat="48.63524" lon="7.19441">
        <ele>383.79</ele>
        <time>2020-08-19T18:31:54.000Z</time>
      </trkpt>
      <trkpt lat="48.63529" lon="7.19443">
        <ele>383.84</ele>
        <time>2020-08-19T18:31:55.000Z</time>
      </trkpt>
      <trkpt lat="48.63535" lon="7.19444">
        <ele>383.91</ele>
        <time>2020-08-19T18:31:56.000Z</time>
      </trkpt>
      <trkpt lat="48.63541" lon="7.19446">
        <ele>383.62</ele>
        <time>2020-08-19T18:31:57.000Z</time>
      </trkpt>
      <trkpt lat="48.63547" lon="7.19446">
        <ele>382.9</ele>
        <time>2020-08-19T18:31:58.000Z</time>
      </trkpt>
      <trkpt lat="48.63553" lon="7.19446">
        <ele>383.35</ele>
        <time>2020-08-19T18:31:59.000Z</time>
      </trkpt>
      <trkpt lat="48.63559" lon="7.19446">
        <ele>383.29</ele>
        <time>2020-08-19T18:32:00.000Z</time>
      </trkpt>
      <trkpt lat="48.63566" lon="7.19446">
        <ele>382.11</ele>
        <time>2020-08-19T18:32:01.000Z</time>
      </trkpt>
      <trkpt lat="48.63572" lon="7.19446">
        <ele>382.16</ele>
        <time>2020-08-19T18:32:02.000Z</time>
      </trkpt>
      <trkpt lat="48.63578" lon="7.19446">
        <ele>381.76</ele>
        <time>2020-08-19T18:32:03.000Z</time>
      </trkpt>
      <trkpt lat="48.63585" lon="7.19444">
        <ele>380.53</ele>
        <time>2020-08-19T18:32:04.000Z</time>
      </trkpt>
      <trkpt lat="48.63591" lon="7.19442">
        <ele>380.33</ele>
        <time>2020-08-19T18:32:05.000Z</time>
      </trkpt>
      <trkpt lat="48.63597" lon="7.19441">
        <ele>379.73</ele>
        <time>2020-08-19T18:32:06.000Z</time>
      </trkpt>
      <trkpt lat="48.63603" lon="7.19439">
        <ele>379.89</ele>
        <time>2020-08-19T18:32:07.000Z</time>
      </trkpt>
      <trkpt lat="48.6361" lon="7.19437">
        <ele>379.37</ele>
        <time>2020-08-19T18:32:08.000Z</time>
      </trkpt>
      <trkpt lat="48.63616" lon="7.19438">
        <ele>377.43</ele>
        <time>2020-08-19T18:32:09.000Z</time>
      </trkpt>
      <trkpt lat="48.63621" lon="7.1944">
        <ele>376.77</ele>
        <time>2020-08-19T18:32:10.000Z</time>
      </trkpt>
      <trkpt lat="48.63626" lon="7.19442">
        <ele>377.52</ele>
        <time>2020-08-19T18:32:11.000Z</time>
      </trkpt>
      <trkpt lat="48.63634" lon="7.19447">
        <ele>377.85</ele>
        <time>2020-08-19T18:32:13.000Z</time>
      </trkpt>
      <trkpt lat="48.63639" lon="7.19446">
        <ele>381.81</ele>
        <time>2020-08-19T18:32:29.000Z</time>
      </trkpt>
      <trkpt lat="48.63645" lon="7.19446">
        <ele>381.45</ele>
        <time>2020-08-19T18:32:31.000Z</time>
      </trkpt>
      <trkpt lat="48.63654" lon="7.19446">
        <ele>382.16</ele>
        <time>2020-08-19T18:32:33.000Z</time>
      </trkpt>
      <trkpt lat="48.63659" lon="7.19446">
        <ele>381.81</ele>
        <time>2020-08-19T18:32:34.000Z</time>
      </trkpt>
      <trkpt lat="48.63665" lon="7.19446">
        <ele>380.32</ele>
        <time>2020-08-19T18:32:35.000Z</time>
      </trkpt>
      <trkpt lat="48.6367" lon="7.19444">
        <ele>379.04</ele>
        <time>2020-08-19T18:32:36.000Z</time>
      </trkpt>
      <trkpt lat="48.63681" lon="7.19443">
        <ele>378.29</ele>
        <time>2020-08-19T18:32:38.000Z</time>
      </trkpt>
      <trkpt lat="48.63688" lon="7.19444">
        <ele>377.88</ele>
        <time>2020-08-19T18:32:39.000Z</time>
      </trkpt>
      <trkpt lat="48.63694" lon="7.19444">
        <ele>378.17</ele>
        <time>2020-08-19T18:32:40.000Z</time>
      </trkpt>
      <trkpt lat="48.637" lon="7.19449">
        <ele>376.69</ele>
        <time>2020-08-19T18:32:41.000Z</time>
      </trkpt>
      <trkpt lat="48.63707" lon="7.19454">
        <ele>375.5</ele>
        <time>2020-08-19T18:32:42.000Z</time>
      </trkpt>
      <trkpt lat="48.63712" lon="7.19461">
        <ele>375.11</ele>
        <time>2020-08-19T18:32:43.000Z</time>
      </trkpt>
      <trkpt lat="48.63718" lon="7.19467">
        <ele>374.42</ele>
        <time>2020-08-19T18:32:44.000Z</time>
      </trkpt>
      <trkpt lat="48.63723" lon="7.19474">
        <ele>374.26</ele>
        <time>2020-08-19T18:32:45.000Z</time>
      </trkpt>
      <trkpt lat="48.63729" lon="7.19481">
        <ele>374.08</ele>
        <time>2020-08-19T18:32:46.000Z</time>
      </trkpt>
      <trkpt lat="48.63734" lon="7.19487">
        <ele>373.92</ele>
        <time>2020-08-19T18:32:47.000Z</time>
      </trkpt>
      <trkpt lat="48.6374" lon="7.19493">
        <ele>374.13</ele>
        <time>2020-08-19T18:32:48.000Z</time>
      </trkpt>
      <trkpt lat="48.63745" lon="7.195">
        <ele>374.6</ele>
        <time>2020-08-19T18:32:49.000Z</time>
      </trkpt>
      <trkpt lat="48.63751" lon="7.19506">
        <ele>374.37</ele>
        <time>2020-08-19T18:32:50.000Z</time>
      </trkpt>
      <trkpt lat="48.63757" lon="7.19513">
        <ele>375.04</ele>
        <time>2020-08-19T18:32:51.000Z</time>
      </trkpt>
      <trkpt lat="48.63763" lon="7.1952">
        <ele>375.13</ele>
        <time>2020-08-19T18:32:52.000Z</time>
      </trkpt>
      <trkpt lat="48.63769" lon="7.19529">
        <ele>373.94</ele>
        <time>2020-08-19T18:32:53.000Z</time>
      </trkpt>
      <trkpt lat="48.63775" lon="7.19538">
        <ele>374.01</ele>
        <time>2020-08-19T18:32:54.000Z</time>
      </trkpt>
      <trkpt lat="48.63781" lon="7.19548">
        <ele>373.23</ele>
        <time>2020-08-19T18:32:55.000Z</time>
      </trkpt>
      <trkpt lat="48.63786" lon="7.19556">
        <ele>373.14</ele>
        <time>2020-08-19T18:32:56.000Z</time>
      </trkpt>
      <trkpt lat="48.63792" lon="7.19566">
        <ele>372.74</ele>
        <time>2020-08-19T18:32:57.000Z</time>
      </trkpt>
      <trkpt lat="48.63798" lon="7.19574">
        <ele>373.69</ele>
        <time>2020-08-19T18:32:58.000Z</time>
      </trkpt>
      <trkpt lat="48.63805" lon="7.19582">
        <ele>373.7</ele>
        <time>2020-08-19T18:32:59.000Z</time>
      </trkpt>
      <trkpt lat="48.63813" lon="7.19589">
        <ele>373.98</ele>
        <time>2020-08-19T18:33:00.000Z</time>
      </trkpt>
      <trkpt lat="48.63821" lon="7.19594">
        <ele>374.1</ele>
        <time>2020-08-19T18:33:01.000Z</time>
      </trkpt>
      <trkpt lat="48.63828" lon="7.19601">
        <ele>371.98</ele>
        <time>2020-08-19T18:33:02.000Z</time>
      </trkpt>
      <trkpt lat="48.63837" lon="7.19605">
        <ele>371.62</ele>
        <time>2020-08-19T18:33:03.000Z</time>
      </trkpt>
      <trkpt lat="48.63845" lon="7.19609">
        <ele>370.81</ele>
        <time>2020-08-19T18:33:04.000Z</time>
      </trkpt>
      <trkpt lat="48.63853" lon="7.1961">
        <ele>369.87</ele>
        <time>2020-08-19T18:33:05.000Z</time>
      </trkpt>
      <trkpt lat="48.63862" lon="7.19612">
        <ele>370.01</ele>
        <time>2020-08-19T18:33:06.000Z</time>
      </trkpt>
      <trkpt lat="48.63871" lon="7.19611">
        <ele>370.94</ele>
        <time>2020-08-19T18:33:07.000Z</time>
      </trkpt>
      <trkpt lat="48.6388" lon="7.1961">
        <ele>370.68</ele>
        <time>2020-08-19T18:33:08.000Z</time>
      </trkpt>
      <trkpt lat="48.63888" lon="7.19608">
        <ele>371.35</ele>
        <time>2020-08-19T18:33:09.000Z</time>
      </trkpt>
      <trkpt lat="48.63897" lon="7.19604">
        <ele>370.86</ele>
        <time>2020-08-19T18:33:10.000Z</time>
      </trkpt>
      <trkpt lat="48.63904" lon="7.19599">
        <ele>370.7</ele>
        <time>2020-08-19T18:33:11.000Z</time>
      </trkpt>
      <trkpt lat="48.63912" lon="7.19592">
        <ele>371.59</ele>
        <time>2020-08-19T18:33:12.000Z</time>
      </trkpt>
      <trkpt lat="48.63919" lon="7.19584">
        <ele>372.33</ele>
        <time>2020-08-19T18:33:13.000Z</time>
      </trkpt>
      <trkpt lat="48.63925" lon="7.19577">
        <ele>371.96</ele>
        <time>2020-08-19T18:33:14.000Z</time>
      </trkpt>
      <trkpt lat="48.63932" lon="7.19568">
        <ele>371.78</ele>
        <time>2020-08-19T18:33:15.000Z</time>
      </trkpt>
      <trkpt lat="48.63938" lon="7.1956">
        <ele>371.6</ele>
        <time>2020-08-19T18:33:16.000Z</time>
      </trkpt>
      <trkpt lat="48.63944" lon="7.19549">
        <ele>372.98</ele>
        <time>2020-08-19T18:33:17.000Z</time>
      </trkpt>
      <trkpt lat="48.6395" lon="7.19542">
        <ele>371.73</ele>
        <time>2020-08-19T18:33:18.000Z</time>
      </trkpt>
      <trkpt lat="48.63956" lon="7.19533">
        <ele>370</ele>
        <time>2020-08-19T18:33:19.000Z</time>
      </trkpt>
      <trkpt lat="48.63962" lon="7.19524">
        <ele>370.2</ele>
        <time>2020-08-19T18:33:20.000Z</time>
      </trkpt>
      <trkpt lat="48.6397" lon="7.19519">
        <ele>367.04</ele>
        <time>2020-08-19T18:33:21.000Z</time>
      </trkpt>
      <trkpt lat="48.63977" lon="7.19513">
        <ele>367.45</ele>
        <time>2020-08-19T18:33:22.000Z</time>
      </trkpt>
      <trkpt lat="48.63984" lon="7.1951">
        <ele>365.47</ele>
        <time>2020-08-19T18:33:23.000Z</time>
      </trkpt>
      <trkpt lat="48.63993" lon="7.19509">
        <ele>367.25</ele>
        <time>2020-08-19T18:33:24.000Z</time>
      </trkpt>
      <trkpt lat="48.64001" lon="7.19513">
        <ele>366.13</ele>
        <time>2020-08-19T18:33:25.000Z</time>
      </trkpt>
      <trkpt lat="48.64009" lon="7.19518">
        <ele>365.28</ele>
        <time>2020-08-19T18:33:26.000Z</time>
      </trkpt>
      <trkpt lat="48.64017" lon="7.19523">
        <ele>363.85</ele>
        <time>2020-08-19T18:33:27.000Z</time>
      </trkpt>
      <trkpt lat="48.64026" lon="7.19531">
        <ele>362.99</ele>
        <time>2020-08-19T18:33:28.000Z</time>
      </trkpt>
      <trkpt lat="48.64033" lon="7.19537">
        <ele>362.97</ele>
        <time>2020-08-19T18:33:29.000Z</time>
      </trkpt>
      <trkpt lat="48.64041" lon="7.19543">
        <ele>363.09</ele>
        <time>2020-08-19T18:33:30.000Z</time>
      </trkpt>
      <trkpt lat="48.6405" lon="7.19549">
        <ele>363.65</ele>
        <time>2020-08-19T18:33:31.000Z</time>
      </trkpt>
      <trkpt lat="48.64057" lon="7.19556">
        <ele>360.99</ele>
        <time>2020-08-19T18:33:32.000Z</time>
      </trkpt>
      <trkpt lat="48.64064" lon="7.19561">
        <ele>361.12</ele>
        <time>2020-08-19T18:33:33.000Z</time>
      </trkpt>
      <trkpt lat="48.64072" lon="7.19568">
        <ele>361.13</ele>
        <time>2020-08-19T18:33:34.000Z</time>
      </trkpt>
      <trkpt lat="48.64079" lon="7.19573">
        <ele>361.21</ele>
        <time>2020-08-19T18:33:35.000Z</time>
      </trkpt>
      <trkpt lat="48.64088" lon="7.19577">
        <ele>361.44</ele>
        <time>2020-08-19T18:33:36.000Z</time>
      </trkpt>
      <trkpt lat="48.64099" lon="7.19577">
        <ele>359.55</ele>
        <time>2020-08-19T18:33:37.000Z</time>
      </trkpt>
      <trkpt lat="48.64108" lon="7.19578">
        <ele>359.21</ele>
        <time>2020-08-19T18:33:38.000Z</time>
      </trkpt>
      <trkpt lat="48.64117" lon="7.19579">
        <ele>358.74</ele>
        <time>2020-08-19T18:33:39.000Z</time>
      </trkpt>
      <trkpt lat="48.64126" lon="7.19579">
        <ele>358.23</ele>
        <time>2020-08-19T18:33:40.000Z</time>
      </trkpt>
      <trkpt lat="48.64134" lon="7.19577">
        <ele>357.05</ele>
        <time>2020-08-19T18:33:41.000Z</time>
      </trkpt>
      <trkpt lat="48.64143" lon="7.19576">
        <ele>357</ele>
        <time>2020-08-19T18:33:42.000Z</time>
      </trkpt>
      <trkpt lat="48.64152" lon="7.19576">
        <ele>356.74</ele>
        <time>2020-08-19T18:33:43.000Z</time>
      </trkpt>
      <trkpt lat="48.64161" lon="7.19576">
        <ele>356.52</ele>
        <time>2020-08-19T18:33:44.000Z</time>
      </trkpt>
      <trkpt lat="48.6417" lon="7.19573">
        <ele>357.99</ele>
        <time>2020-08-19T18:33:45.000Z</time>
      </trkpt>
      <trkpt lat="48.64178" lon="7.19573">
        <ele>358.05</ele>
        <time>2020-08-19T18:33:46.000Z</time>
      </trkpt>
      <trkpt lat="48.64186" lon="7.19572">
        <ele>359.37</ele>
        <time>2020-08-19T18:33:47.000Z</time>
      </trkpt>
      <trkpt lat="48.64194" lon="7.19573">
        <ele>360.5</ele>
        <time>2020-08-19T18:33:48.000Z</time>
      </trkpt>
      <trkpt lat="48.64203" lon="7.19574">
        <ele>359.45</ele>
        <time>2020-08-19T18:33:49.000Z</time>
      </trkpt>
      <trkpt lat="48.64212" lon="7.19575">
        <ele>360.48</ele>
        <time>2020-08-19T18:33:50.000Z</time>
      </trkpt>
      <trkpt lat="48.64221" lon="7.19579">
        <ele>360.36</ele>
        <time>2020-08-19T18:33:51.000Z</time>
      </trkpt>
      <trkpt lat="48.64228" lon="7.19585">
        <ele>360.62</ele>
        <time>2020-08-19T18:33:52.000Z</time>
      </trkpt>
      <trkpt lat="48.64236" lon="7.19592">
        <ele>360.06</ele>
        <time>2020-08-19T18:33:53.000Z</time>
      </trkpt>
      <trkpt lat="48.64243" lon="7.19599">
        <ele>359.99</ele>
        <time>2020-08-19T18:33:54.000Z</time>
      </trkpt>
      <trkpt lat="48.6425" lon="7.19607">
        <ele>359.26</ele>
        <time>2020-08-19T18:33:55.000Z</time>
      </trkpt>
      <trkpt lat="48.64257" lon="7.19614">
        <ele>358.36</ele>
        <time>2020-08-19T18:33:56.000Z</time>
      </trkpt>
      <trkpt lat="48.64264" lon="7.19622">
        <ele>358.77</ele>
        <time>2020-08-19T18:33:57.000Z</time>
      </trkpt>
      <trkpt lat="48.64271" lon="7.1963">
        <ele>360.73</ele>
        <time>2020-08-19T18:33:58.000Z</time>
      </trkpt>
      <trkpt lat="48.64277" lon="7.19641">
        <ele>359.83</ele>
        <time>2020-08-19T18:33:59.000Z</time>
      </trkpt>
      <trkpt lat="48.64284" lon="7.19651">
        <ele>360.55</ele>
        <time>2020-08-19T18:34:00.000Z</time>
      </trkpt>
      <trkpt lat="48.6429" lon="7.1966">
        <ele>361.13</ele>
        <time>2020-08-19T18:34:01.000Z</time>
      </trkpt>
      <trkpt lat="48.64296" lon="7.19669">
        <ele>359.53</ele>
        <time>2020-08-19T18:34:02.000Z</time>
      </trkpt>
      <trkpt lat="48.64302" lon="7.19676">
        <ele>358.08</ele>
        <time>2020-08-19T18:34:03.000Z</time>
      </trkpt>
      <trkpt lat="48.6431" lon="7.19682">
        <ele>357.66</ele>
        <time>2020-08-19T18:34:04.000Z</time>
      </trkpt>
      <trkpt lat="48.64318" lon="7.19688">
        <ele>358.37</ele>
        <time>2020-08-19T18:34:05.000Z</time>
      </trkpt>
      <trkpt lat="48.64326" lon="7.19688">
        <ele>356.51</ele>
        <time>2020-08-19T18:34:06.000Z</time>
      </trkpt>
      <trkpt lat="48.64335" lon="7.19689">
        <ele>355.24</ele>
        <time>2020-08-19T18:34:07.000Z</time>
      </trkpt>
      <trkpt lat="48.64343" lon="7.19687">
        <ele>354.94</ele>
        <time>2020-08-19T18:34:08.000Z</time>
      </trkpt>
      <trkpt lat="48.64352" lon="7.19686">
        <ele>354.37</ele>
        <time>2020-08-19T18:34:09.000Z</time>
      </trkpt>
      <trkpt lat="48.64361" lon="7.19684">
        <ele>352.84</ele>
        <time>2020-08-19T18:34:10.000Z</time>
      </trkpt>
      <trkpt lat="48.6437" lon="7.19682">
        <ele>353.43</ele>
        <time>2020-08-19T18:34:11.000Z</time>
      </trkpt>
      <trkpt lat="48.64378" lon="7.19679">
        <ele>352.95</ele>
        <time>2020-08-19T18:34:12.000Z</time>
      </trkpt>
      <trkpt lat="48.64387" lon="7.19679">
        <ele>351.25</ele>
        <time>2020-08-19T18:34:13.000Z</time>
      </trkpt>
      <trkpt lat="48.64396" lon="7.19678">
        <ele>350.91</ele>
        <time>2020-08-19T18:34:14.000Z</time>
      </trkpt>
      <trkpt lat="48.64404" lon="7.19677">
        <ele>350.18</ele>
        <time>2020-08-19T18:34:15.000Z</time>
      </trkpt>
      <trkpt lat="48.64413" lon="7.19679">
        <ele>350.44</ele>
        <time>2020-08-19T18:34:16.000Z</time>
      </trkpt>
      <trkpt lat="48.64421" lon="7.19681">
        <ele>351.34</ele>
        <time>2020-08-19T18:34:17.000Z</time>
      </trkpt>
      <trkpt lat="48.64429" lon="7.19687">
        <ele>349.93</ele>
        <time>2020-08-19T18:34:18.000Z</time>
      </trkpt>
      <trkpt lat="48.64436" lon="7.19692">
        <ele>351.21</ele>
        <time>2020-08-19T18:34:19.000Z</time>
      </trkpt>
      <trkpt lat="48.64444" lon="7.19699">
        <ele>351.41</ele>
        <time>2020-08-19T18:34:20.000Z</time>
      </trkpt>
      <trkpt lat="48.64449" lon="7.19706">
        <ele>350.93</ele>
        <time>2020-08-19T18:34:21.000Z</time>
      </trkpt>
      <trkpt lat="48.64455" lon="7.19711">
        <ele>351.44</ele>
        <time>2020-08-19T18:34:22.000Z</time>
      </trkpt>
      <trkpt lat="48.64458" lon="7.19718">
        <ele>350.14</ele>
        <time>2020-08-19T18:34:23.000Z</time>
      </trkpt>
      <trkpt lat="48.64461" lon="7.19723">
        <ele>349.96</ele>
        <time>2020-08-19T18:34:24.000Z</time>
      </trkpt>
      <trkpt lat="48.64466" lon="7.19724">
        <ele>349.45</ele>
        <time>2020-08-19T18:34:37.000Z</time>
      </trkpt>
      <trkpt lat="48.64471" lon="7.19731">
        <ele>349</ele>
        <time>2020-08-19T18:34:39.000Z</time>
      </trkpt>
      <trkpt lat="48.64477" lon="7.19738">
        <ele>348.3</ele>
        <time>2020-08-19T18:34:41.000Z</time>
      </trkpt>
      <trkpt lat="48.64481" lon="7.19741">
        <ele>348.82</ele>
        <time>2020-08-19T18:34:42.000Z</time>
      </trkpt>
      <trkpt lat="48.64485" lon="7.19746">
        <ele>348.99</ele>
        <time>2020-08-19T18:34:43.000Z</time>
      </trkpt>
      <trkpt lat="48.64489" lon="7.1975">
        <ele>348.56</ele>
        <time>2020-08-19T18:34:44.000Z</time>
      </trkpt>
      <trkpt lat="48.64493" lon="7.19757">
        <ele>347.3</ele>
        <time>2020-08-19T18:34:45.000Z</time>
      </trkpt>
      <trkpt lat="48.64499" lon="7.19764">
        <ele>347.26</ele>
        <time>2020-08-19T18:34:46.000Z</time>
      </trkpt>
      <trkpt lat="48.64504" lon="7.19771">
        <ele>347.81</ele>
        <time>2020-08-19T18:34:47.000Z</time>
      </trkpt>
      <trkpt lat="48.6451" lon="7.19779">
        <ele>347.56</ele>
        <time>2020-08-19T18:34:48.000Z</time>
      </trkpt>
      <trkpt lat="48.64516" lon="7.19786">
        <ele>348.87</ele>
        <time>2020-08-19T18:34:49.000Z</time>
      </trkpt>
      <trkpt lat="48.64523" lon="7.19794">
        <ele>349.84</ele>
        <time>2020-08-19T18:34:50.000Z</time>
      </trkpt>
      <trkpt lat="48.64529" lon="7.19801">
        <ele>349.77</ele>
        <time>2020-08-19T18:34:51.000Z</time>
      </trkpt>
      <trkpt lat="48.64535" lon="7.19808">
        <ele>350.5</ele>
        <time>2020-08-19T18:34:52.000Z</time>
      </trkpt>
      <trkpt lat="48.64541" lon="7.19815">
        <ele>351.03</ele>
        <time>2020-08-19T18:34:53.000Z</time>
      </trkpt>
      <trkpt lat="48.64548" lon="7.19823">
        <ele>350.69</ele>
        <time>2020-08-19T18:34:54.000Z</time>
      </trkpt>
      <trkpt lat="48.64554" lon="7.19829">
        <ele>350.77</ele>
        <time>2020-08-19T18:34:55.000Z</time>
      </trkpt>
      <trkpt lat="48.64561" lon="7.19835">
        <ele>351.53</ele>
        <time>2020-08-19T18:34:56.000Z</time>
      </trkpt>
      <trkpt lat="48.64566" lon="7.19843">
        <ele>350.68</ele>
        <time>2020-08-19T18:34:57.000Z</time>
      </trkpt>
      <trkpt lat="48.64572" lon="7.19852">
        <ele>350.66</ele>
        <time>2020-08-19T18:34:58.000Z</time>
      </trkpt>
      <trkpt lat="48.64578" lon="7.19863">
        <ele>351.19</ele>
        <time>2020-08-19T18:34:59.000Z</time>
      </trkpt>
      <trkpt lat="48.64583" lon="7.19872">
        <ele>351.15</ele>
        <time>2020-08-19T18:35:00.000Z</time>
      </trkpt>
      <trkpt lat="48.6459" lon="7.19879">
        <ele>350.97</ele>
        <time>2020-08-19T18:35:01.000Z</time>
      </trkpt>
      <trkpt lat="48.64594" lon="7.19888">
        <ele>350.7</ele>
        <time>2020-08-19T18:35:02.000Z</time>
      </trkpt>
      <trkpt lat="48.64599" lon="7.19898">
        <ele>351.02</ele>
        <time>2020-08-19T18:35:03.000Z</time>
      </trkpt>
      <trkpt lat="48.64604" lon="7.19908">
        <ele>350.94</ele>
        <time>2020-08-19T18:35:04.000Z</time>
      </trkpt>
      <trkpt lat="48.64608" lon="7.19918">
        <ele>350.45</ele>
        <time>2020-08-19T18:35:05.000Z</time>
      </trkpt>
      <trkpt lat="48.64613" lon="7.19927">
        <ele>349.84</ele>
        <time>2020-08-19T18:35:06.000Z</time>
      </trkpt>
      <trkpt lat="48.64618" lon="7.19936">
        <ele>349.67</ele>
        <time>2020-08-19T18:35:07.000Z</time>
      </trkpt>
      <trkpt lat="48.64624" lon="7.19944">
        <ele>349.43</ele>
        <time>2020-08-19T18:35:08.000Z</time>
      </trkpt>
      <trkpt lat="48.6463" lon="7.19953">
        <ele>349.03</ele>
        <time>2020-08-19T18:35:09.000Z</time>
      </trkpt>
      <trkpt lat="48.64636" lon="7.1996">
        <ele>349.31</ele>
        <time>2020-08-19T18:35:10.000Z</time>
      </trkpt>
      <trkpt lat="48.64643" lon="7.19968">
        <ele>349.02</ele>
        <time>2020-08-19T18:35:11.000Z</time>
      </trkpt>
      <trkpt lat="48.64649" lon="7.19976">
        <ele>348.84</ele>
        <time>2020-08-19T18:35:12.000Z</time>
      </trkpt>
      <trkpt lat="48.64656" lon="7.19984">
        <ele>348.36</ele>
        <time>2020-08-19T18:35:13.000Z</time>
      </trkpt>
      <trkpt lat="48.64662" lon="7.19992">
        <ele>347.85</ele>
        <time>2020-08-19T18:35:14.000Z</time>
      </trkpt>
      <trkpt lat="48.64668" lon="7.2">
        <ele>347.62</ele>
        <time>2020-08-19T18:35:15.000Z</time>
      </trkpt>
      <trkpt lat="48.64674" lon="7.20008">
        <ele>346.47</ele>
        <time>2020-08-19T18:35:16.000Z</time>
      </trkpt>
      <trkpt lat="48.64681" lon="7.20016">
        <ele>346.48</ele>
        <time>2020-08-19T18:35:17.000Z</time>
      </trkpt>
      <trkpt lat="48.64686" lon="7.20023">
        <ele>346.57</ele>
        <time>2020-08-19T18:35:18.000Z</time>
      </trkpt>
      <trkpt lat="48.64693" lon="7.20031">
        <ele>345.76</ele>
        <time>2020-08-19T18:35:19.000Z</time>
      </trkpt>
      <trkpt lat="48.64699" lon="7.20038">
        <ele>346</ele>
        <time>2020-08-19T18:35:20.000Z</time>
      </trkpt>
      <trkpt lat="48.64705" lon="7.20046">
        <ele>345.21</ele>
        <time>2020-08-19T18:35:21.000Z</time>
      </trkpt>
      <trkpt lat="48.64712" lon="7.20054">
        <ele>345.34</ele>
        <time>2020-08-19T18:35:22.000Z</time>
      </trkpt>
      <trkpt lat="48.64773" lon="7.2012">
        <ele>344.92</ele>
        <time>2020-08-19T18:35:31.000Z</time>
      </trkpt>
      <trkpt lat="48.64779" lon="7.20124">
        <ele>346.51</ele>
        <time>2020-08-19T18:35:32.000Z</time>
      </trkpt>
      <trkpt lat="48.64783" lon="7.20128">
        <ele>347.78</ele>
        <time>2020-08-19T18:35:33.000Z</time>
      </trkpt>
      <trkpt lat="48.64788" lon="7.20129">
        <ele>351.34</ele>
        <time>2020-08-19T18:35:43.000Z</time>
      </trkpt>
      <trkpt lat="48.64793" lon="7.20123">
        <ele>348.41</ele>
        <time>2020-08-19T18:35:52.000Z</time>
      </trkpt>
      <trkpt lat="48.64799" lon="7.20115">
        <ele>347.17</ele>
        <time>2020-08-19T18:35:54.000Z</time>
      </trkpt>
      <trkpt lat="48.64802" lon="7.20109">
        <ele>347.3</ele>
        <time>2020-08-19T18:35:55.000Z</time>
      </trkpt>
      <trkpt lat="48.64806" lon="7.20105">
        <ele>347.43</ele>
        <time>2020-08-19T18:35:56.000Z</time>
      </trkpt>
      <trkpt lat="48.64811" lon="7.20096">
        <ele>347.57</ele>
        <time>2020-08-19T18:35:58.000Z</time>
      </trkpt>
      <trkpt lat="48.64815" lon="7.20091">
        <ele>347.02</ele>
        <time>2020-08-19T18:35:59.000Z</time>
      </trkpt>
      <trkpt lat="48.64819" lon="7.20085">
        <ele>346.19</ele>
        <time>2020-08-19T18:36:00.000Z</time>
      </trkpt>
      <trkpt lat="48.64822" lon="7.2008">
        <ele>345.89</ele>
        <time>2020-08-19T18:36:01.000Z</time>
      </trkpt>
      <trkpt lat="48.64827" lon="7.20074">
        <ele>345.72</ele>
        <time>2020-08-19T18:36:03.000Z</time>
      </trkpt>
      <trkpt lat="48.64832" lon="7.20074">
        <ele>346.44</ele>
        <time>2020-08-19T18:36:09.000Z</time>
      </trkpt>
      <trkpt lat="48.64839" lon="7.20074">
        <ele>348.45</ele>
        <time>2020-08-19T18:36:21.000Z</time>
      </trkpt>
    </trkseg>
  </trk>
</gpx>